<?xml version='1.0' encoding='UTF-8'?>
<gpx version="1.1" creator="https://www.komoot.de" xmlns="http://www.topografix.com/GPX/1/1" xmlns:xsi="http://www.w3.org/2001/XMLSchema-instance" xsi:schemaLocation="http://www.topografix.com/GPX/1/1 http://www.topografix.com/GPX/1/1/gpx.xsd">
  <metadata>
    <name>Road ride</name>
    <author>
      <link href="https://www.komoot.de">
        <text>komoot</text>
        <type>text/html</type>
      </link>
    </author>
  </metadata>
  <trk>
    <name>Road ride</name>
    <type>racebike</type>
    <trkseg>
      <trkpt lat="22.893289" lon="109.079471">
        <ele>84.051148</ele>
        <time>2026-08-15T01:36:05.000Z</time>
      </trkpt>
      <trkpt lat="22.893312" lon="109.079516">
        <ele>84.051148</ele>
        <time>2026-08-15T01:36:07.000Z</time>
      </trkpt>
      <trkpt lat="22.893333" lon="109.079561">
        <ele>84.051148</ele>
        <time>2026-08-15T01:36:08.000Z</time>
      </trkpt>
      <trkpt lat="22.893357" lon="109.079607">
        <ele>84.051148</ele>
        <time>2026-08-15T01:36:09.000Z</time>
      </trkpt>
      <trkpt lat="22.893380" lon="109.079651">
        <ele>84.051148</ele>
        <time>2026-08-15T01:36:10.000Z</time>
      </trkpt>
      <trkpt lat="22.893403" lon="109.079694">
        <ele>84.051148</ele>
        <time>2026-08-15T01:36:11.000Z</time>
      </trkpt>
      <trkpt lat="22.893426" lon="109.079740">
        <ele>84.051148</ele>
        <time>2026-08-15T01:36:12.000Z</time>
      </trkpt>
      <trkpt lat="22.893447" lon="109.079784">
        <ele>84.051148</ele>
        <time>2026-08-15T01:36:13.000Z</time>
      </trkpt>
      <trkpt lat="22.893467" lon="109.079830">
        <ele>84.051148</ele>
        <time>2026-08-15T01:36:14.000Z</time>
      </trkpt>
      <trkpt lat="22.893489" lon="109.079874">
        <ele>84.051148</ele>
        <time>2026-08-15T01:36:15.000Z</time>
      </trkpt>
      <trkpt lat="22.893508" lon="109.079918">
        <ele>84.051148</ele>
        <time>2026-08-15T01:36:16.000Z</time>
      </trkpt>
      <trkpt lat="22.893527" lon="109.079963">
        <ele>84.051148</ele>
        <time>2026-08-15T01:36:17.000Z</time>
      </trkpt>
      <trkpt lat="22.893549" lon="109.080007">
        <ele>84.051148</ele>
        <time>2026-08-15T01:36:18.000Z</time>
      </trkpt>
      <trkpt lat="22.893570" lon="109.080053">
        <ele>84.051148</ele>
        <time>2026-08-15T01:36:19.000Z</time>
      </trkpt>
      <trkpt lat="22.893593" lon="109.080099">
        <ele>84.051148</ele>
        <time>2026-08-15T01:36:20.000Z</time>
      </trkpt>
      <trkpt lat="22.893613" lon="109.080148">
        <ele>84.051148</ele>
        <time>2026-08-15T01:36:21.000Z</time>
      </trkpt>
      <trkpt lat="22.893635" lon="109.080194">
        <ele>84.051148</ele>
        <time>2026-08-15T01:36:22.000Z</time>
      </trkpt>
      <trkpt lat="22.893661" lon="109.080241">
        <ele>84.051148</ele>
        <time>2026-08-15T01:36:23.000Z</time>
      </trkpt>
      <trkpt lat="22.893685" lon="109.080290">
        <ele>84.051148</ele>
        <time>2026-08-15T01:36:24.000Z</time>
      </trkpt>
      <trkpt lat="22.893709" lon="109.080337">
        <ele>84.049961</ele>
        <time>2026-08-15T01:36:25.000Z</time>
      </trkpt>
      <trkpt lat="22.893736" lon="109.080383">
        <ele>84.028400</ele>
        <time>2026-08-15T01:36:26.000Z</time>
      </trkpt>
      <trkpt lat="22.893763" lon="109.080431">
        <ele>84.006167</ele>
        <time>2026-08-15T01:36:27.000Z</time>
      </trkpt>
      <trkpt lat="22.893790" lon="109.080480">
        <ele>83.983597</ele>
        <time>2026-08-15T01:36:28.000Z</time>
      </trkpt>
      <trkpt lat="22.893814" lon="109.080529">
        <ele>83.961659</ele>
        <time>2026-08-15T01:36:29.000Z</time>
      </trkpt>
      <trkpt lat="22.893841" lon="109.080578">
        <ele>83.939088</ele>
        <time>2026-08-15T01:36:30.000Z</time>
      </trkpt>
      <trkpt lat="22.893868" lon="109.080629">
        <ele>83.915835</ele>
        <time>2026-08-15T01:36:31.000Z</time>
      </trkpt>
      <trkpt lat="22.893895" lon="109.080682">
        <ele>83.891894</ele>
        <time>2026-08-15T01:36:32.000Z</time>
      </trkpt>
      <trkpt lat="22.893925" lon="109.080734">
        <ele>83.867640</ele>
        <time>2026-08-15T01:36:33.000Z</time>
      </trkpt>
      <trkpt lat="22.893959" lon="109.080787">
        <ele>83.842109</ele>
        <time>2026-08-15T01:36:34.000Z</time>
      </trkpt>
      <trkpt lat="22.893984" lon="109.080839">
        <ele>83.818922</ele>
        <time>2026-08-15T01:36:35.000Z</time>
      </trkpt>
      <trkpt lat="22.894011" lon="109.080891">
        <ele>83.795326</ele>
        <time>2026-08-15T01:36:36.000Z</time>
      </trkpt>
      <trkpt lat="22.894039" lon="109.080942">
        <ele>83.771856</ele>
        <time>2026-08-15T01:36:37.000Z</time>
      </trkpt>
      <trkpt lat="22.894066" lon="109.080993">
        <ele>83.748604</ele>
        <time>2026-08-15T01:36:38.000Z</time>
      </trkpt>
      <trkpt lat="22.894093" lon="109.081042">
        <ele>83.726033</ele>
        <time>2026-08-15T01:36:39.000Z</time>
      </trkpt>
      <trkpt lat="22.894122" lon="109.081092">
        <ele>83.702676</ele>
        <time>2026-08-15T01:36:40.000Z</time>
      </trkpt>
      <trkpt lat="22.894142" lon="109.081142">
        <ele>83.681128</ele>
        <time>2026-08-15T01:36:41.000Z</time>
      </trkpt>
      <trkpt lat="22.894155" lon="109.081194">
        <ele>83.659829</ele>
        <time>2026-08-15T01:36:42.000Z</time>
      </trkpt>
      <trkpt lat="22.894186" lon="109.081245">
        <ele>83.635675</ele>
        <time>2026-08-15T01:36:43.000Z</time>
      </trkpt>
      <trkpt lat="22.894212" lon="109.081296">
        <ele>83.612633</ele>
        <time>2026-08-15T01:36:44.000Z</time>
      </trkpt>
      <trkpt lat="22.894235" lon="109.081351">
        <ele>83.588756</ele>
        <time>2026-08-15T01:36:45.000Z</time>
      </trkpt>
      <trkpt lat="22.894260" lon="109.081411">
        <ele>83.562724</ele>
        <time>2026-08-15T01:36:46.000Z</time>
      </trkpt>
      <trkpt lat="22.894278" lon="109.081467">
        <ele>83.539278</ele>
        <time>2026-08-15T01:36:47.000Z</time>
      </trkpt>
      <trkpt lat="22.894278" lon="109.081467">
        <ele>83.539278</ele>
        <time>2026-08-15T01:36:48.000Z</time>
      </trkpt>
      <trkpt lat="22.894336" lon="109.081597">
        <ele>83.482179</ele>
        <time>2026-08-15T01:36:50.000Z</time>
      </trkpt>
      <trkpt lat="22.894476" lon="109.081848">
        <ele>83.366187</ele>
        <time>2026-08-15T01:36:55.000Z</time>
      </trkpt>
      <trkpt lat="22.894511" lon="109.081867">
        <ele>83.349395</ele>
        <time>2026-08-15T01:36:56.000Z</time>
      </trkpt>
      <trkpt lat="22.894542" lon="109.081895">
        <ele>83.332090</ele>
        <time>2026-08-15T01:36:57.000Z</time>
      </trkpt>
      <trkpt lat="22.894592" lon="109.081930">
        <ele>83.306560</ele>
        <time>2026-08-15T01:36:58.000Z</time>
      </trkpt>
      <trkpt lat="22.894628" lon="109.081974">
        <ele>83.283297</ele>
        <time>2026-08-15T01:36:59.000Z</time>
      </trkpt>
      <trkpt lat="22.894664" lon="109.082015">
        <ele>83.322813</ele>
        <time>2026-08-15T01:37:00.000Z</time>
      </trkpt>
      <trkpt lat="22.894702" lon="109.082054">
        <ele>83.375772</ele>
        <time>2026-08-15T01:37:01.000Z</time>
      </trkpt>
      <trkpt lat="22.894731" lon="109.082099">
        <ele>83.427005</ele>
        <time>2026-08-15T01:37:02.000Z</time>
      </trkpt>
      <trkpt lat="22.894754" lon="109.082146">
        <ele>83.476655</ele>
        <time>2026-08-15T01:37:03.000Z</time>
      </trkpt>
      <trkpt lat="22.894761" lon="109.082197">
        <ele>83.524758</ele>
        <time>2026-08-15T01:37:04.000Z</time>
      </trkpt>
      <trkpt lat="22.894779" lon="109.082244">
        <ele>83.572243</ele>
        <time>2026-08-15T01:37:05.000Z</time>
      </trkpt>
      <trkpt lat="22.894798" lon="109.082287">
        <ele>83.616734</ele>
        <time>2026-08-15T01:37:06.000Z</time>
      </trkpt>
      <trkpt lat="22.894817" lon="109.082329">
        <ele>83.660386</ele>
        <time>2026-08-15T01:37:07.000Z</time>
      </trkpt>
      <trkpt lat="22.894839" lon="109.082370">
        <ele>83.704651</ele>
        <time>2026-08-15T01:37:08.000Z</time>
      </trkpt>
      <trkpt lat="22.894865" lon="109.082414">
        <ele>83.753418</ele>
        <time>2026-08-15T01:37:09.000Z</time>
      </trkpt>
      <trkpt lat="22.894888" lon="109.082454">
        <ele>83.797407</ele>
        <time>2026-08-15T01:37:10.000Z</time>
      </trkpt>
      <trkpt lat="22.894909" lon="109.082494">
        <ele>83.840358</ele>
        <time>2026-08-15T01:37:11.000Z</time>
      </trkpt>
      <trkpt lat="22.894932" lon="109.082536">
        <ele>83.885940</ele>
        <time>2026-08-15T01:37:12.000Z</time>
      </trkpt>
      <trkpt lat="22.894954" lon="109.082579">
        <ele>83.931827</ele>
        <time>2026-08-15T01:37:13.000Z</time>
      </trkpt>
      <trkpt lat="22.894974" lon="109.082620">
        <ele>83.975108</ele>
        <time>2026-08-15T01:37:14.000Z</time>
      </trkpt>
      <trkpt lat="22.894995" lon="109.082663">
        <ele>84.020511</ele>
        <time>2026-08-15T01:37:15.000Z</time>
      </trkpt>
      <trkpt lat="22.895016" lon="109.082706">
        <ele>84.065915</ele>
        <time>2026-08-15T01:37:16.000Z</time>
      </trkpt>
      <trkpt lat="22.895041" lon="109.082751">
        <ele>84.114939</ele>
        <time>2026-08-15T01:37:17.000Z</time>
      </trkpt>
      <trkpt lat="22.895063" lon="109.082795">
        <ele>84.161643</ele>
        <time>2026-08-15T01:37:18.000Z</time>
      </trkpt>
      <trkpt lat="22.895086" lon="109.082839">
        <ele>84.208839</ele>
        <time>2026-08-15T01:37:19.000Z</time>
      </trkpt>
      <trkpt lat="22.895107" lon="109.082884">
        <ele>84.255899</ele>
        <time>2026-08-15T01:37:20.000Z</time>
      </trkpt>
      <trkpt lat="22.895129" lon="109.082930">
        <ele>84.304252</ele>
        <time>2026-08-15T01:37:21.000Z</time>
      </trkpt>
      <trkpt lat="22.895145" lon="109.082977">
        <ele>84.350997</ele>
        <time>2026-08-15T01:37:22.000Z</time>
      </trkpt>
      <trkpt lat="22.895167" lon="109.083024">
        <ele>84.400179</ele>
        <time>2026-08-15T01:37:23.000Z</time>
      </trkpt>
      <trkpt lat="22.895189" lon="109.083072">
        <ele>84.450195</ele>
        <time>2026-08-15T01:37:24.000Z</time>
      </trkpt>
      <trkpt lat="22.895212" lon="109.083120">
        <ele>84.500670</ele>
        <time>2026-08-15T01:37:25.000Z</time>
      </trkpt>
      <trkpt lat="22.895233" lon="109.083168">
        <ele>84.550243</ele>
        <time>2026-08-15T01:37:26.000Z</time>
      </trkpt>
      <trkpt lat="22.895256" lon="109.083215">
        <ele>84.599892</ele>
        <time>2026-08-15T01:37:27.000Z</time>
      </trkpt>
      <trkpt lat="22.895279" lon="109.083261">
        <ele>84.648719</ele>
        <time>2026-08-15T01:37:28.000Z</time>
      </trkpt>
      <trkpt lat="22.895299" lon="109.083305">
        <ele>84.694492</ele>
        <time>2026-08-15T01:37:29.000Z</time>
      </trkpt>
      <trkpt lat="22.895321" lon="109.083350">
        <ele>84.742018</ele>
        <time>2026-08-15T01:37:30.000Z</time>
      </trkpt>
      <trkpt lat="22.895346" lon="109.083392">
        <ele>84.788668</ele>
        <time>2026-08-15T01:37:31.000Z</time>
      </trkpt>
      <trkpt lat="22.895367" lon="109.083434">
        <ele>84.833249</ele>
        <time>2026-08-15T01:37:32.000Z</time>
      </trkpt>
      <trkpt lat="22.895389" lon="109.083478">
        <ele>84.879954</ele>
        <time>2026-08-15T01:37:33.000Z</time>
      </trkpt>
      <trkpt lat="22.895413" lon="109.083521">
        <ele>84.926857</ele>
        <time>2026-08-15T01:37:34.000Z</time>
      </trkpt>
      <trkpt lat="22.895437" lon="109.083564">
        <ele>84.973760</ele>
        <time>2026-08-15T01:37:35.000Z</time>
      </trkpt>
      <trkpt lat="22.895455" lon="109.083607">
        <ele>85.017823</ele>
        <time>2026-08-15T01:37:36.000Z</time>
      </trkpt>
      <trkpt lat="22.895477" lon="109.083652">
        <ele>85.065349</ele>
        <time>2026-08-15T01:37:37.000Z</time>
      </trkpt>
      <trkpt lat="22.895498" lon="109.083696">
        <ele>85.099730</ele>
        <time>2026-08-15T01:37:38.000Z</time>
      </trkpt>
      <trkpt lat="22.895519" lon="109.083739">
        <ele>85.095223</ele>
        <time>2026-08-15T01:37:39.000Z</time>
      </trkpt>
      <trkpt lat="22.895541" lon="109.083784">
        <ele>85.090505</ele>
        <time>2026-08-15T01:37:40.000Z</time>
      </trkpt>
      <trkpt lat="22.895562" lon="109.083829">
        <ele>85.085834</ele>
        <time>2026-08-15T01:37:41.000Z</time>
      </trkpt>
      <trkpt lat="22.895584" lon="109.083874">
        <ele>85.081116</ele>
        <time>2026-08-15T01:37:42.000Z</time>
      </trkpt>
      <trkpt lat="22.895605" lon="109.083919">
        <ele>85.076445</ele>
        <time>2026-08-15T01:37:43.000Z</time>
      </trkpt>
      <trkpt lat="22.895627" lon="109.083964">
        <ele>85.071727</ele>
        <time>2026-08-15T01:37:44.000Z</time>
      </trkpt>
      <trkpt lat="22.895650" lon="109.084008">
        <ele>85.067042</ele>
        <time>2026-08-15T01:37:45.000Z</time>
      </trkpt>
      <trkpt lat="22.895674" lon="109.084053">
        <ele>85.062227</ele>
        <time>2026-08-15T01:37:46.000Z</time>
      </trkpt>
      <trkpt lat="22.895698" lon="109.084098">
        <ele>85.057412</ele>
        <time>2026-08-15T01:37:47.000Z</time>
      </trkpt>
      <trkpt lat="22.895723" lon="109.084141">
        <ele>85.052703</ele>
        <time>2026-08-15T01:37:48.000Z</time>
      </trkpt>
      <trkpt lat="22.895745" lon="109.084186">
        <ele>85.047985</ele>
        <time>2026-08-15T01:37:49.000Z</time>
      </trkpt>
      <trkpt lat="22.895768" lon="109.084229">
        <ele>85.043381</ele>
        <time>2026-08-15T01:37:50.000Z</time>
      </trkpt>
      <trkpt lat="22.895791" lon="109.084273">
        <ele>85.038696</ele>
        <time>2026-08-15T01:37:51.000Z</time>
      </trkpt>
      <trkpt lat="22.895814" lon="109.084318">
        <ele>85.033930</ele>
        <time>2026-08-15T01:37:52.000Z</time>
      </trkpt>
      <trkpt lat="22.895836" lon="109.084364">
        <ele>85.029131</ele>
        <time>2026-08-15T01:37:53.000Z</time>
      </trkpt>
      <trkpt lat="22.895861" lon="109.084411">
        <ele>85.024105</ele>
        <time>2026-08-15T01:37:54.000Z</time>
      </trkpt>
      <trkpt lat="22.895885" lon="109.084458">
        <ele>85.019129</ele>
        <time>2026-08-15T01:37:55.000Z</time>
      </trkpt>
      <trkpt lat="22.895910" lon="109.084508">
        <ele>85.013860</ele>
        <time>2026-08-15T01:37:56.000Z</time>
      </trkpt>
      <trkpt lat="22.895934" lon="109.084557">
        <ele>85.008721</ele>
        <time>2026-08-15T01:37:57.000Z</time>
      </trkpt>
      <trkpt lat="22.895959" lon="109.084607">
        <ele>85.003453</ele>
        <time>2026-08-15T01:37:58.000Z</time>
      </trkpt>
      <trkpt lat="22.895987" lon="109.084656">
        <ele>84.998113</ele>
        <time>2026-08-15T01:37:59.000Z</time>
      </trkpt>
      <trkpt lat="22.896016" lon="109.084706">
        <ele>84.992642</ele>
        <time>2026-08-15T01:38:00.000Z</time>
      </trkpt>
      <trkpt lat="22.896045" lon="109.084757">
        <ele>84.987092</ele>
        <time>2026-08-15T01:38:01.000Z</time>
      </trkpt>
      <trkpt lat="22.896073" lon="109.084810">
        <ele>84.981434</ele>
        <time>2026-08-15T01:38:02.000Z</time>
      </trkpt>
      <trkpt lat="22.896098" lon="109.084864">
        <ele>84.975837</ele>
        <time>2026-08-15T01:38:03.000Z</time>
      </trkpt>
      <trkpt lat="22.896123" lon="109.084918">
        <ele>84.970241</ele>
        <time>2026-08-15T01:38:04.000Z</time>
      </trkpt>
      <trkpt lat="22.896150" lon="109.084973">
        <ele>84.964469</ele>
        <time>2026-08-15T01:38:05.000Z</time>
      </trkpt>
      <trkpt lat="22.896176" lon="109.085027">
        <ele>84.958827</ele>
        <time>2026-08-15T01:38:06.000Z</time>
      </trkpt>
      <trkpt lat="22.896203" lon="109.085082">
        <ele>84.953056</ele>
        <time>2026-08-15T01:38:07.000Z</time>
      </trkpt>
      <trkpt lat="22.896229" lon="109.085136">
        <ele>84.947413</ele>
        <time>2026-08-15T01:38:08.000Z</time>
      </trkpt>
      <trkpt lat="22.896256" lon="109.085190">
        <ele>84.941723</ele>
        <time>2026-08-15T01:38:09.000Z</time>
      </trkpt>
      <trkpt lat="22.896282" lon="109.085244">
        <ele>84.936081</ele>
        <time>2026-08-15T01:38:10.000Z</time>
      </trkpt>
      <trkpt lat="22.896308" lon="109.085298">
        <ele>84.930439</ele>
        <time>2026-08-15T01:38:11.000Z</time>
      </trkpt>
      <trkpt lat="22.896333" lon="109.085352">
        <ele>84.924842</ele>
        <time>2026-08-15T01:38:12.000Z</time>
      </trkpt>
      <trkpt lat="22.896360" lon="109.085406">
        <ele>84.926148</ele>
        <time>2026-08-15T01:38:13.000Z</time>
      </trkpt>
      <trkpt lat="22.896386" lon="109.085460">
        <ele>84.967481</ele>
        <time>2026-08-15T01:38:14.000Z</time>
      </trkpt>
      <trkpt lat="22.896412" lon="109.085513">
        <ele>85.008214</ele>
        <time>2026-08-15T01:38:15.000Z</time>
      </trkpt>
      <trkpt lat="22.896439" lon="109.085565">
        <ele>85.048706</ele>
        <time>2026-08-15T01:38:16.000Z</time>
      </trkpt>
      <trkpt lat="22.896466" lon="109.085618">
        <ele>85.089790</ele>
        <time>2026-08-15T01:38:17.000Z</time>
      </trkpt>
      <trkpt lat="22.896493" lon="109.085671">
        <ele>85.130874</ele>
        <time>2026-08-15T01:38:18.000Z</time>
      </trkpt>
      <trkpt lat="22.896519" lon="109.085722">
        <ele>85.170415</ele>
        <time>2026-08-15T01:38:19.000Z</time>
      </trkpt>
      <trkpt lat="22.896544" lon="109.085774">
        <ele>85.210204</ele>
        <time>2026-08-15T01:38:20.000Z</time>
      </trkpt>
      <trkpt lat="22.896575" lon="109.085826">
        <ele>85.252221</ele>
        <time>2026-08-15T01:38:21.000Z</time>
      </trkpt>
      <trkpt lat="22.896601" lon="109.085876">
        <ele>85.291169</ele>
        <time>2026-08-15T01:38:22.000Z</time>
      </trkpt>
      <trkpt lat="22.896630" lon="109.085929">
        <ele>85.332986</ele>
        <time>2026-08-15T01:38:23.000Z</time>
      </trkpt>
      <trkpt lat="22.896658" lon="109.085982">
        <ele>85.374432</ele>
        <time>2026-08-15T01:38:24.000Z</time>
      </trkpt>
      <trkpt lat="22.896685" lon="109.086033">
        <ele>85.414334</ele>
        <time>2026-08-15T01:38:25.000Z</time>
      </trkpt>
      <trkpt lat="22.896712" lon="109.086085">
        <ele>85.454826</ele>
        <time>2026-08-15T01:38:26.000Z</time>
      </trkpt>
      <trkpt lat="22.896737" lon="109.086138">
        <ele>85.495218</ele>
        <time>2026-08-15T01:38:27.000Z</time>
      </trkpt>
      <trkpt lat="22.896759" lon="109.086191">
        <ele>85.534652</ele>
        <time>2026-08-15T01:38:28.000Z</time>
      </trkpt>
      <trkpt lat="22.896782" lon="109.086244">
        <ele>85.574395</ele>
        <time>2026-08-15T01:38:29.000Z</time>
      </trkpt>
      <trkpt lat="22.896807" lon="109.086297">
        <ele>85.614787</ele>
        <time>2026-08-15T01:38:30.000Z</time>
      </trkpt>
      <trkpt lat="22.896830" lon="109.086350">
        <ele>85.654529</ele>
        <time>2026-08-15T01:38:31.000Z</time>
      </trkpt>
      <trkpt lat="22.896853" lon="109.086403">
        <ele>85.694272</ele>
        <time>2026-08-15T01:38:32.000Z</time>
      </trkpt>
      <trkpt lat="22.896876" lon="109.086454">
        <ele>85.732791</ele>
        <time>2026-08-15T01:38:33.000Z</time>
      </trkpt>
      <trkpt lat="22.896901" lon="109.086505">
        <ele>85.771980</ele>
        <time>2026-08-15T01:38:34.000Z</time>
      </trkpt>
      <trkpt lat="22.896926" lon="109.086556">
        <ele>85.811170</ele>
        <time>2026-08-15T01:38:35.000Z</time>
      </trkpt>
      <trkpt lat="22.896951" lon="109.086605">
        <ele>85.849166</ele>
        <time>2026-08-15T01:38:36.000Z</time>
      </trkpt>
      <trkpt lat="22.896977" lon="109.086654">
        <ele>85.887526</ele>
        <time>2026-08-15T01:38:37.000Z</time>
      </trkpt>
      <trkpt lat="22.897003" lon="109.086701">
        <ele>85.924715</ele>
        <time>2026-08-15T01:38:38.000Z</time>
      </trkpt>
      <trkpt lat="22.897028" lon="109.086748">
        <ele>85.961531</ele>
        <time>2026-08-15T01:38:39.000Z</time>
      </trkpt>
      <trkpt lat="22.897052" lon="109.086794">
        <ele>85.997393</ele>
        <time>2026-08-15T01:38:40.000Z</time>
      </trkpt>
      <trkpt lat="22.897076" lon="109.086838">
        <ele>86.032080</ele>
        <time>2026-08-15T01:38:41.000Z</time>
      </trkpt>
      <trkpt lat="22.897100" lon="109.086884">
        <ele>86.067941</ele>
        <time>2026-08-15T01:38:42.000Z</time>
      </trkpt>
      <trkpt lat="22.897123" lon="109.086930">
        <ele>86.103446</ele>
        <time>2026-08-15T01:38:43.000Z</time>
      </trkpt>
      <trkpt lat="22.897144" lon="109.086975">
        <ele>86.137665</ele>
        <time>2026-08-15T01:38:44.000Z</time>
      </trkpt>
      <trkpt lat="22.897166" lon="109.087020">
        <ele>86.172224</ele>
        <time>2026-08-15T01:38:45.000Z</time>
      </trkpt>
      <trkpt lat="22.897189" lon="109.087065">
        <ele>86.207133</ele>
        <time>2026-08-15T01:38:46.000Z</time>
      </trkpt>
      <trkpt lat="22.897210" lon="109.087109">
        <ele>86.240749</ele>
        <time>2026-08-15T01:38:47.000Z</time>
      </trkpt>
      <trkpt lat="22.897232" lon="109.087152">
        <ele>86.296189</ele>
        <time>2026-08-15T01:38:48.000Z</time>
      </trkpt>
      <trkpt lat="22.897254" lon="109.087195">
        <ele>86.354402</ele>
        <time>2026-08-15T01:38:49.000Z</time>
      </trkpt>
      <trkpt lat="22.897276" lon="109.087239">
        <ele>86.413653</ele>
        <time>2026-08-15T01:38:50.000Z</time>
      </trkpt>
      <trkpt lat="22.897299" lon="109.087281">
        <ele>86.471480</ele>
        <time>2026-08-15T01:38:51.000Z</time>
      </trkpt>
      <trkpt lat="22.897321" lon="109.087323">
        <ele>86.528662</ele>
        <time>2026-08-15T01:38:52.000Z</time>
      </trkpt>
      <trkpt lat="22.897342" lon="109.087363">
        <ele>86.583150</ele>
        <time>2026-08-15T01:38:53.000Z</time>
      </trkpt>
      <trkpt lat="22.897362" lon="109.087403">
        <ele>86.637015</ele>
        <time>2026-08-15T01:38:54.000Z</time>
      </trkpt>
      <trkpt lat="22.897382" lon="109.087443">
        <ele>86.690879</ele>
        <time>2026-08-15T01:38:55.000Z</time>
      </trkpt>
      <trkpt lat="22.897403" lon="109.087485">
        <ele>86.747436</ele>
        <time>2026-08-15T01:38:56.000Z</time>
      </trkpt>
      <trkpt lat="22.897423" lon="109.087528">
        <ele>86.804446</ele>
        <time>2026-08-15T01:38:57.000Z</time>
      </trkpt>
      <trkpt lat="22.897446" lon="109.087569">
        <ele>86.861259</ele>
        <time>2026-08-15T01:38:58.000Z</time>
      </trkpt>
      <trkpt lat="22.897467" lon="109.087611">
        <ele>86.917817</ele>
        <time>2026-08-15T01:38:59.000Z</time>
      </trkpt>
      <trkpt lat="22.897488" lon="109.087653">
        <ele>86.974374</ele>
        <time>2026-08-15T01:39:00.000Z</time>
      </trkpt>
      <trkpt lat="22.897508" lon="109.087697">
        <ele>87.032443</ele>
        <time>2026-08-15T01:39:01.000Z</time>
      </trkpt>
      <trkpt lat="22.897528" lon="109.087740">
        <ele>87.089452</ele>
        <time>2026-08-15T01:39:02.000Z</time>
      </trkpt>
      <trkpt lat="22.897550" lon="109.087783">
        <ele>87.147666</ele>
        <time>2026-08-15T01:39:03.000Z</time>
      </trkpt>
      <trkpt lat="22.897573" lon="109.087825">
        <ele>87.205493</ele>
        <time>2026-08-15T01:39:04.000Z</time>
      </trkpt>
      <trkpt lat="22.897595" lon="109.087866">
        <ele>87.261648</ele>
        <time>2026-08-15T01:39:05.000Z</time>
      </trkpt>
      <trkpt lat="22.897616" lon="109.087909">
        <ele>87.319248</ele>
        <time>2026-08-15T01:39:06.000Z</time>
      </trkpt>
      <trkpt lat="22.897637" lon="109.087952">
        <ele>87.376849</ele>
        <time>2026-08-15T01:39:07.000Z</time>
      </trkpt>
      <trkpt lat="22.897658" lon="109.087995">
        <ele>87.434449</ele>
        <time>2026-08-15T01:39:08.000Z</time>
      </trkpt>
      <trkpt lat="22.897680" lon="109.088036">
        <ele>87.490604</ele>
        <time>2026-08-15T01:39:09.000Z</time>
      </trkpt>
      <trkpt lat="22.897703" lon="109.088077">
        <ele>87.547418</ele>
        <time>2026-08-15T01:39:10.000Z</time>
      </trkpt>
      <trkpt lat="22.897725" lon="109.088117">
        <ele>87.602554</ele>
        <time>2026-08-15T01:39:11.000Z</time>
      </trkpt>
      <trkpt lat="22.897748" lon="109.088155">
        <ele>87.656366</ele>
        <time>2026-08-15T01:39:12.000Z</time>
      </trkpt>
      <trkpt lat="22.897772" lon="109.088193">
        <ele>87.710894</ele>
        <time>2026-08-15T01:39:13.000Z</time>
      </trkpt>
      <trkpt lat="22.897799" lon="109.088231">
        <ele>87.767691</ele>
        <time>2026-08-15T01:39:14.000Z</time>
      </trkpt>
      <trkpt lat="22.897825" lon="109.088268">
        <ele>87.822766</ele>
        <time>2026-08-15T01:39:15.000Z</time>
      </trkpt>
      <trkpt lat="22.897855" lon="109.088305">
        <ele>87.881102</ele>
        <time>2026-08-15T01:39:16.000Z</time>
      </trkpt>
      <trkpt lat="22.897881" lon="109.088342">
        <ele>87.936178</ele>
        <time>2026-08-15T01:39:17.000Z</time>
      </trkpt>
      <trkpt lat="22.897909" lon="109.088379">
        <ele>87.992849</ele>
        <time>2026-08-15T01:39:18.000Z</time>
      </trkpt>
      <trkpt lat="22.897941" lon="109.088415">
        <ele>88.052056</ele>
        <time>2026-08-15T01:39:19.000Z</time>
      </trkpt>
      <trkpt lat="22.897974" lon="109.088450">
        <ele>88.111329</ele>
        <time>2026-08-15T01:39:20.000Z</time>
      </trkpt>
      <trkpt lat="22.898008" lon="109.088486">
        <ele>88.172348</ele>
        <time>2026-08-15T01:39:21.000Z</time>
      </trkpt>
      <trkpt lat="22.898042" lon="109.088520">
        <ele>88.231739</ele>
        <time>2026-08-15T01:39:22.000Z</time>
      </trkpt>
      <trkpt lat="22.898075" lon="109.088554">
        <ele>88.290191</ele>
        <time>2026-08-15T01:39:23.000Z</time>
      </trkpt>
      <trkpt lat="22.898112" lon="109.088586">
        <ele>88.350969</ele>
        <time>2026-08-15T01:39:24.000Z</time>
      </trkpt>
      <trkpt lat="22.898149" lon="109.088619">
        <ele>88.412491</ele>
        <time>2026-08-15T01:39:25.000Z</time>
      </trkpt>
      <trkpt lat="22.898186" lon="109.088651">
        <ele>88.473269</ele>
        <time>2026-08-15T01:39:26.000Z</time>
      </trkpt>
      <trkpt lat="22.898225" lon="109.088682">
        <ele>88.535370</ele>
        <time>2026-08-15T01:39:27.000Z</time>
      </trkpt>
      <trkpt lat="22.898263" lon="109.088714">
        <ele>88.600775</ele>
        <time>2026-08-15T01:39:28.000Z</time>
      </trkpt>
      <trkpt lat="22.898299" lon="109.088746">
        <ele>88.665716</ele>
        <time>2026-08-15T01:39:29.000Z</time>
      </trkpt>
      <trkpt lat="22.898335" lon="109.088777">
        <ele>88.729849</ele>
        <time>2026-08-15T01:39:30.000Z</time>
      </trkpt>
      <trkpt lat="22.898371" lon="109.088809">
        <ele>88.794790</ele>
        <time>2026-08-15T01:39:31.000Z</time>
      </trkpt>
      <trkpt lat="22.898412" lon="109.088839">
        <ele>88.863799</ele>
        <time>2026-08-15T01:39:32.000Z</time>
      </trkpt>
      <trkpt lat="22.898450" lon="109.088869">
        <ele>88.929378</ele>
        <time>2026-08-15T01:39:33.000Z</time>
      </trkpt>
      <trkpt lat="22.898488" lon="109.088897">
        <ele>88.993478</ele>
        <time>2026-08-15T01:39:34.000Z</time>
      </trkpt>
      <trkpt lat="22.898523" lon="109.088926">
        <ele>89.054931</ele>
        <time>2026-08-15T01:39:35.000Z</time>
      </trkpt>
      <trkpt lat="22.898559" lon="109.088954">
        <ele>89.116741</ele>
        <time>2026-08-15T01:39:36.000Z</time>
      </trkpt>
      <trkpt lat="22.898596" lon="109.088984">
        <ele>89.181196</ele>
        <time>2026-08-15T01:39:37.000Z</time>
      </trkpt>
      <trkpt lat="22.898632" lon="109.089012">
        <ele>89.243007</ele>
        <time>2026-08-15T01:39:38.000Z</time>
      </trkpt>
      <trkpt lat="22.898668" lon="109.089041">
        <ele>89.305575</ele>
        <time>2026-08-15T01:39:39.000Z</time>
      </trkpt>
      <trkpt lat="22.898703" lon="109.089072">
        <ele>89.368621</ele>
        <time>2026-08-15T01:39:40.000Z</time>
      </trkpt>
      <trkpt lat="22.898739" lon="109.089102">
        <ele>89.431963</ele>
        <time>2026-08-15T01:39:41.000Z</time>
      </trkpt>
      <trkpt lat="22.898775" lon="109.089132">
        <ele>89.495306</ele>
        <time>2026-08-15T01:39:42.000Z</time>
      </trkpt>
      <trkpt lat="22.898810" lon="109.089161">
        <ele>89.556759</ele>
        <time>2026-08-15T01:39:43.000Z</time>
      </trkpt>
      <trkpt lat="22.898843" lon="109.089192">
        <ele>89.617667</ele>
        <time>2026-08-15T01:39:44.000Z</time>
      </trkpt>
      <trkpt lat="22.898876" lon="109.089222">
        <ele>89.677743</ele>
        <time>2026-08-15T01:39:45.000Z</time>
      </trkpt>
      <trkpt lat="22.898910" lon="109.089253">
        <ele>89.739714</ele>
        <time>2026-08-15T01:39:46.000Z</time>
      </trkpt>
      <trkpt lat="22.898944" lon="109.089282">
        <ele>89.800063</ele>
        <time>2026-08-15T01:39:47.000Z</time>
      </trkpt>
      <trkpt lat="22.898978" lon="109.089311">
        <ele>89.860412</ele>
        <time>2026-08-15T01:39:48.000Z</time>
      </trkpt>
      <trkpt lat="22.899011" lon="109.089340">
        <ele>89.919670</ele>
        <time>2026-08-15T01:39:49.000Z</time>
      </trkpt>
      <trkpt lat="22.899044" lon="109.089367">
        <ele>89.977345</ele>
        <time>2026-08-15T01:39:50.000Z</time>
      </trkpt>
      <trkpt lat="22.899076" lon="109.089397">
        <ele>90.036357</ele>
        <time>2026-08-15T01:39:51.000Z</time>
      </trkpt>
      <trkpt lat="22.899108" lon="109.089426">
        <ele>90.094537</ele>
        <time>2026-08-15T01:39:52.000Z</time>
      </trkpt>
      <trkpt lat="22.899141" lon="109.089454">
        <ele>90.152995</ele>
        <time>2026-08-15T01:39:53.000Z</time>
      </trkpt>
      <trkpt lat="22.899176" lon="109.089482">
        <ele>90.213676</ele>
        <time>2026-08-15T01:39:54.000Z</time>
      </trkpt>
      <trkpt lat="22.899209" lon="109.089511">
        <ele>90.272934</ele>
        <time>2026-08-15T01:39:55.000Z</time>
      </trkpt>
      <trkpt lat="22.899243" lon="109.089536">
        <ele>90.330249</ele>
        <time>2026-08-15T01:39:56.000Z</time>
      </trkpt>
      <trkpt lat="22.899276" lon="109.089562">
        <ele>90.387159</ele>
        <time>2026-08-15T01:39:57.000Z</time>
      </trkpt>
      <trkpt lat="22.899308" lon="109.089589">
        <ele>90.443725</ele>
        <time>2026-08-15T01:39:58.000Z</time>
      </trkpt>
      <trkpt lat="22.899339" lon="109.089614">
        <ele>90.497624</ele>
        <time>2026-08-15T01:39:59.000Z</time>
      </trkpt>
      <trkpt lat="22.899371" lon="109.089638">
        <ele>90.551909</ele>
        <time>2026-08-15T01:40:00.000Z</time>
      </trkpt>
      <trkpt lat="22.899400" lon="109.089660">
        <ele>90.601288</ele>
        <time>2026-08-15T01:40:01.000Z</time>
      </trkpt>
      <trkpt lat="22.899428" lon="109.089681">
        <ele>90.648787</ele>
        <time>2026-08-15T01:40:02.000Z</time>
      </trkpt>
      <trkpt lat="22.899456" lon="109.089704">
        <ele>90.697794</ele>
        <time>2026-08-15T01:40:03.000Z</time>
      </trkpt>
      <trkpt lat="22.899481" lon="109.089727">
        <ele>90.743531</ele>
        <time>2026-08-15T01:40:04.000Z</time>
      </trkpt>
      <trkpt lat="22.899505" lon="109.089749">
        <ele>90.787373</ele>
        <time>2026-08-15T01:40:05.000Z</time>
      </trkpt>
      <trkpt lat="22.899530" lon="109.089772">
        <ele>90.833110</ele>
        <time>2026-08-15T01:40:06.000Z</time>
      </trkpt>
      <trkpt lat="22.899559" lon="109.089796">
        <ele>90.884006</ele>
        <time>2026-08-15T01:40:07.000Z</time>
      </trkpt>
      <trkpt lat="22.899587" lon="109.089820">
        <ele>90.933799</ele>
        <time>2026-08-15T01:40:08.000Z</time>
      </trkpt>
      <trkpt lat="22.899614" lon="109.089844">
        <ele>90.982504</ele>
        <time>2026-08-15T01:40:09.000Z</time>
      </trkpt>
      <trkpt lat="22.899642" lon="109.089866">
        <ele>91.030746</ele>
        <time>2026-08-15T01:40:10.000Z</time>
      </trkpt>
      <trkpt lat="22.899670" lon="109.089890">
        <ele>91.064710</ele>
        <time>2026-08-15T01:40:11.000Z</time>
      </trkpt>
      <trkpt lat="22.899696" lon="109.089911">
        <ele>91.061942</ele>
        <time>2026-08-15T01:40:12.000Z</time>
      </trkpt>
      <trkpt lat="22.899724" lon="109.089935">
        <ele>91.058895</ele>
        <time>2026-08-15T01:40:13.000Z</time>
      </trkpt>
      <trkpt lat="22.899751" lon="109.089958">
        <ele>91.055963</ele>
        <time>2026-08-15T01:40:14.000Z</time>
      </trkpt>
      <trkpt lat="22.899779" lon="109.089980">
        <ele>91.053011</ele>
        <time>2026-08-15T01:40:15.000Z</time>
      </trkpt>
      <trkpt lat="22.899806" lon="109.090002">
        <ele>91.050127</ele>
        <time>2026-08-15T01:40:16.000Z</time>
      </trkpt>
      <trkpt lat="22.899835" lon="109.090025">
        <ele>91.047060</ele>
        <time>2026-08-15T01:40:17.000Z</time>
      </trkpt>
      <trkpt lat="22.899863" lon="109.090047">
        <ele>91.044108</ele>
        <time>2026-08-15T01:40:18.000Z</time>
      </trkpt>
      <trkpt lat="22.899893" lon="109.090071">
        <ele>91.040925</ele>
        <time>2026-08-15T01:40:19.000Z</time>
      </trkpt>
      <trkpt lat="22.899922" lon="109.090095">
        <ele>91.037810</ele>
        <time>2026-08-15T01:40:20.000Z</time>
      </trkpt>
      <trkpt lat="22.899952" lon="109.090117">
        <ele>91.034718</ele>
        <time>2026-08-15T01:40:21.000Z</time>
      </trkpt>
      <trkpt lat="22.899980" lon="109.090140">
        <ele>91.031719</ele>
        <time>2026-08-15T01:40:22.000Z</time>
      </trkpt>
      <trkpt lat="22.900007" lon="109.090166">
        <ele>91.028636</ele>
        <time>2026-08-15T01:40:23.000Z</time>
      </trkpt>
      <trkpt lat="22.900035" lon="109.090192">
        <ele>91.025489</ele>
        <time>2026-08-15T01:40:24.000Z</time>
      </trkpt>
      <trkpt lat="22.900064" lon="109.090217">
        <ele>91.022326</ele>
        <time>2026-08-15T01:40:25.000Z</time>
      </trkpt>
      <trkpt lat="22.900094" lon="109.090242">
        <ele>91.019096</ele>
        <time>2026-08-15T01:40:26.000Z</time>
      </trkpt>
      <trkpt lat="22.900124" lon="109.090267">
        <ele>91.015865</ele>
        <time>2026-08-15T01:40:27.000Z</time>
      </trkpt>
      <trkpt lat="22.900155" lon="109.090295">
        <ele>91.012421</ele>
        <time>2026-08-15T01:40:28.000Z</time>
      </trkpt>
      <trkpt lat="22.900188" lon="109.090324">
        <ele>91.008794</ele>
        <time>2026-08-15T01:40:29.000Z</time>
      </trkpt>
      <trkpt lat="22.900221" lon="109.090354">
        <ele>91.005118</ele>
        <time>2026-08-15T01:40:30.000Z</time>
      </trkpt>
      <trkpt lat="22.900255" lon="109.090388">
        <ele>91.001170</ele>
        <time>2026-08-15T01:40:31.000Z</time>
      </trkpt>
      <trkpt lat="22.900292" lon="109.090423">
        <ele>90.996978</ele>
        <time>2026-08-15T01:40:32.000Z</time>
      </trkpt>
      <trkpt lat="22.900329" lon="109.090460">
        <ele>90.992681</ele>
        <time>2026-08-15T01:40:33.000Z</time>
      </trkpt>
      <trkpt lat="22.900366" lon="109.090497">
        <ele>90.988385</ele>
        <time>2026-08-15T01:40:34.000Z</time>
      </trkpt>
      <trkpt lat="22.900403" lon="109.090536">
        <ele>90.983980</ele>
        <time>2026-08-15T01:40:35.000Z</time>
      </trkpt>
      <trkpt lat="22.900441" lon="109.090578">
        <ele>90.979348</ele>
        <time>2026-08-15T01:40:36.000Z</time>
      </trkpt>
      <trkpt lat="22.900480" lon="109.090621">
        <ele>90.974600</ele>
        <time>2026-08-15T01:40:37.000Z</time>
      </trkpt>
      <trkpt lat="22.900519" lon="109.090666">
        <ele>90.969739</ele>
        <time>2026-08-15T01:40:38.000Z</time>
      </trkpt>
      <trkpt lat="22.900556" lon="109.090713">
        <ele>90.964874</ele>
        <time>2026-08-15T01:40:39.000Z</time>
      </trkpt>
      <trkpt lat="22.900595" lon="109.090763">
        <ele>90.959719</ele>
        <time>2026-08-15T01:40:40.000Z</time>
      </trkpt>
      <trkpt lat="22.900634" lon="109.090818">
        <ele>90.954258</ele>
        <time>2026-08-15T01:40:41.000Z</time>
      </trkpt>
      <trkpt lat="22.900670" lon="109.090869">
        <ele>90.949203</ele>
        <time>2026-08-15T01:40:42.000Z</time>
      </trkpt>
      <trkpt lat="22.900707" lon="109.090920">
        <ele>90.944095</ele>
        <time>2026-08-15T01:40:43.000Z</time>
      </trkpt>
      <trkpt lat="22.900740" lon="109.090973">
        <ele>90.939062</ele>
        <time>2026-08-15T01:40:44.000Z</time>
      </trkpt>
      <trkpt lat="22.900777" lon="109.091027">
        <ele>90.933767</ele>
        <time>2026-08-15T01:40:45.000Z</time>
      </trkpt>
      <trkpt lat="22.900816" lon="109.091083">
        <ele>90.928243</ele>
        <time>2026-08-15T01:40:46.000Z</time>
      </trkpt>
      <trkpt lat="22.900854" lon="109.091138">
        <ele>90.922834</ele>
        <time>2026-08-15T01:40:47.000Z</time>
      </trkpt>
      <trkpt lat="22.900894" lon="109.091193">
        <ele>90.917321</ele>
        <time>2026-08-15T01:40:48.000Z</time>
      </trkpt>
      <trkpt lat="22.900934" lon="109.091248">
        <ele>90.912792</ele>
        <time>2026-08-15T01:40:49.000Z</time>
      </trkpt>
      <trkpt lat="22.900975" lon="109.091303">
        <ele>90.936142</ele>
        <time>2026-08-15T01:40:50.000Z</time>
      </trkpt>
      <trkpt lat="22.901014" lon="109.091355">
        <ele>90.958272</ele>
        <time>2026-08-15T01:40:51.000Z</time>
      </trkpt>
      <trkpt lat="22.901054" lon="109.091408">
        <ele>90.980884</ele>
        <time>2026-08-15T01:40:52.000Z</time>
      </trkpt>
      <trkpt lat="22.901092" lon="109.091462">
        <ele>91.003310</ele>
        <time>2026-08-15T01:40:53.000Z</time>
      </trkpt>
      <trkpt lat="22.901128" lon="109.091514">
        <ele>91.024778</ele>
        <time>2026-08-15T01:40:54.000Z</time>
      </trkpt>
      <trkpt lat="22.901164" lon="109.091564">
        <ele>91.045721</ele>
        <time>2026-08-15T01:40:55.000Z</time>
      </trkpt>
      <trkpt lat="22.901200" lon="109.091615">
        <ele>91.066925</ele>
        <time>2026-08-15T01:40:56.000Z</time>
      </trkpt>
      <trkpt lat="22.901236" lon="109.091665">
        <ele>91.087869</ele>
        <time>2026-08-15T01:40:57.000Z</time>
      </trkpt>
      <trkpt lat="22.901271" lon="109.091713">
        <ele>91.108072</ele>
        <time>2026-08-15T01:40:58.000Z</time>
      </trkpt>
      <trkpt lat="22.901305" lon="109.091765">
        <ele>91.129117</ele>
        <time>2026-08-15T01:40:59.000Z</time>
      </trkpt>
      <trkpt lat="22.901339" lon="109.091818">
        <ele>91.150431</ele>
        <time>2026-08-15T01:41:00.000Z</time>
      </trkpt>
      <trkpt lat="22.901372" lon="109.091870">
        <ele>91.171271</ele>
        <time>2026-08-15T01:41:01.000Z</time>
      </trkpt>
      <trkpt lat="22.901407" lon="109.091919">
        <ele>91.191734</ele>
        <time>2026-08-15T01:41:02.000Z</time>
      </trkpt>
      <trkpt lat="22.901442" lon="109.091965">
        <ele>91.211424</ele>
        <time>2026-08-15T01:41:03.000Z</time>
      </trkpt>
      <trkpt lat="22.901476" lon="109.092012">
        <ele>91.231146</ele>
        <time>2026-08-15T01:41:04.000Z</time>
      </trkpt>
      <trkpt lat="22.901510" lon="109.092061">
        <ele>91.251391</ele>
        <time>2026-08-15T01:41:05.000Z</time>
      </trkpt>
      <trkpt lat="22.901544" lon="109.092110">
        <ele>91.271636</ele>
        <time>2026-08-15T01:41:06.000Z</time>
      </trkpt>
      <trkpt lat="22.901578" lon="109.092159">
        <ele>91.291882</ele>
        <time>2026-08-15T01:41:07.000Z</time>
      </trkpt>
      <trkpt lat="22.901613" lon="109.092207">
        <ele>91.312085</ele>
        <time>2026-08-15T01:41:08.000Z</time>
      </trkpt>
      <trkpt lat="22.901647" lon="109.092255">
        <ele>91.332068</ele>
        <time>2026-08-15T01:41:09.000Z</time>
      </trkpt>
      <trkpt lat="22.901681" lon="109.092304">
        <ele>91.352313</ele>
        <time>2026-08-15T01:41:10.000Z</time>
      </trkpt>
      <trkpt lat="22.901715" lon="109.092353">
        <ele>91.372558</ele>
        <time>2026-08-15T01:41:11.000Z</time>
      </trkpt>
      <trkpt lat="22.901749" lon="109.092401">
        <ele>91.392541</ele>
        <time>2026-08-15T01:41:12.000Z</time>
      </trkpt>
      <trkpt lat="22.901783" lon="109.092451">
        <ele>91.413051</ele>
        <time>2026-08-15T01:41:13.000Z</time>
      </trkpt>
      <trkpt lat="22.901817" lon="109.092501">
        <ele>91.433561</ele>
        <time>2026-08-15T01:41:14.000Z</time>
      </trkpt>
      <trkpt lat="22.901854" lon="109.092553">
        <ele>91.455245</ele>
        <time>2026-08-15T01:41:15.000Z</time>
      </trkpt>
      <trkpt lat="22.901890" lon="109.092605">
        <ele>91.476713</ele>
        <time>2026-08-15T01:41:16.000Z</time>
      </trkpt>
      <trkpt lat="22.901926" lon="109.092655">
        <ele>91.497656</ele>
        <time>2026-08-15T01:41:17.000Z</time>
      </trkpt>
      <trkpt lat="22.901961" lon="109.092705">
        <ele>91.518381</ele>
        <time>2026-08-15T01:41:18.000Z</time>
      </trkpt>
      <trkpt lat="22.901996" lon="109.092756">
        <ele>91.539369</ele>
        <time>2026-08-15T01:41:19.000Z</time>
      </trkpt>
      <trkpt lat="22.902031" lon="109.092808">
        <ele>91.566992</ele>
        <time>2026-08-15T01:41:20.000Z</time>
      </trkpt>
      <trkpt lat="22.902067" lon="109.092859">
        <ele>91.620027</ele>
        <time>2026-08-15T01:41:21.000Z</time>
      </trkpt>
      <trkpt lat="22.902103" lon="109.092910">
        <ele>91.673061</ele>
        <time>2026-08-15T01:41:22.000Z</time>
      </trkpt>
      <trkpt lat="22.902136" lon="109.092961">
        <ele>91.724505</ele>
        <time>2026-08-15T01:41:23.000Z</time>
      </trkpt>
      <trkpt lat="22.902168" lon="109.093014">
        <ele>91.776812</ele>
        <time>2026-08-15T01:41:24.000Z</time>
      </trkpt>
      <trkpt lat="22.902201" lon="109.093066">
        <ele>91.828933</ele>
        <time>2026-08-15T01:41:25.000Z</time>
      </trkpt>
      <trkpt lat="22.902236" lon="109.093116">
        <ele>91.880768</ele>
        <time>2026-08-15T01:41:26.000Z</time>
      </trkpt>
      <trkpt lat="22.902267" lon="109.093166">
        <ele>91.930516</ele>
        <time>2026-08-15T01:41:27.000Z</time>
      </trkpt>
      <trkpt lat="22.902301" lon="109.093219">
        <ele>91.983826</ele>
        <time>2026-08-15T01:41:28.000Z</time>
      </trkpt>
      <trkpt lat="22.902330" lon="109.093268">
        <ele>92.031899</ele>
        <time>2026-08-15T01:41:29.000Z</time>
      </trkpt>
      <trkpt lat="22.902358" lon="109.093315">
        <ele>92.078100</ele>
        <time>2026-08-15T01:41:30.000Z</time>
      </trkpt>
      <trkpt lat="22.902386" lon="109.093361">
        <ele>92.123609</ele>
        <time>2026-08-15T01:41:31.000Z</time>
      </trkpt>
      <trkpt lat="22.902413" lon="109.093408">
        <ele>92.169329</ele>
        <time>2026-08-15T01:41:32.000Z</time>
      </trkpt>
      <trkpt lat="22.902440" lon="109.093456">
        <ele>92.215752</ele>
        <time>2026-08-15T01:41:33.000Z</time>
      </trkpt>
      <trkpt lat="22.902468" lon="109.093504">
        <ele>92.262648</ele>
        <time>2026-08-15T01:41:34.000Z</time>
      </trkpt>
      <trkpt lat="22.902497" lon="109.093555">
        <ele>92.312118</ele>
        <time>2026-08-15T01:41:35.000Z</time>
      </trkpt>
      <trkpt lat="22.902528" lon="109.093606">
        <ele>92.362553</ele>
        <time>2026-08-15T01:41:36.000Z</time>
      </trkpt>
      <trkpt lat="22.902557" lon="109.093657">
        <ele>92.412023</ele>
        <time>2026-08-15T01:41:37.000Z</time>
      </trkpt>
      <trkpt lat="22.902586" lon="109.093709">
        <ele>92.462198</ele>
        <time>2026-08-15T01:41:38.000Z</time>
      </trkpt>
      <trkpt lat="22.902615" lon="109.093762">
        <ele>92.513080</ele>
        <time>2026-08-15T01:41:39.000Z</time>
      </trkpt>
      <trkpt lat="22.902644" lon="109.093814">
        <ele>92.563255</ele>
        <time>2026-08-15T01:41:40.000Z</time>
      </trkpt>
      <trkpt lat="22.902672" lon="109.093867">
        <ele>92.613686</ele>
        <time>2026-08-15T01:41:41.000Z</time>
      </trkpt>
      <trkpt lat="22.902701" lon="109.093919">
        <ele>92.663861</ele>
        <time>2026-08-15T01:41:42.000Z</time>
      </trkpt>
      <trkpt lat="22.902729" lon="109.093972">
        <ele>92.714291</ele>
        <time>2026-08-15T01:41:43.000Z</time>
      </trkpt>
      <trkpt lat="22.902758" lon="109.094025">
        <ele>92.765174</ele>
        <time>2026-08-15T01:41:44.000Z</time>
      </trkpt>
      <trkpt lat="22.902786" lon="109.094077">
        <ele>92.814890</ele>
        <time>2026-08-15T01:41:45.000Z</time>
      </trkpt>
      <trkpt lat="22.902813" lon="109.094129">
        <ele>92.864161</ele>
        <time>2026-08-15T01:41:46.000Z</time>
      </trkpt>
      <trkpt lat="22.902838" lon="109.094182">
        <ele>92.913309</ele>
        <time>2026-08-15T01:41:47.000Z</time>
      </trkpt>
      <trkpt lat="22.902865" lon="109.094233">
        <ele>92.961862</ele>
        <time>2026-08-15T01:41:48.000Z</time>
      </trkpt>
      <trkpt lat="22.902892" lon="109.094284">
        <ele>93.010415</ele>
        <time>2026-08-15T01:41:49.000Z</time>
      </trkpt>
      <trkpt lat="22.902918" lon="109.094334">
        <ele>93.057807</ele>
        <time>2026-08-15T01:41:50.000Z</time>
      </trkpt>
      <trkpt lat="22.902944" lon="109.094385">
        <ele>93.105920</ele>
        <time>2026-08-15T01:41:51.000Z</time>
      </trkpt>
      <trkpt lat="22.902968" lon="109.094436">
        <ele>93.153191</ele>
        <time>2026-08-15T01:41:52.000Z</time>
      </trkpt>
      <trkpt lat="22.902992" lon="109.094485">
        <ele>93.215100</ele>
        <time>2026-08-15T01:41:53.000Z</time>
      </trkpt>
      <trkpt lat="22.903013" lon="109.094535">
        <ele>93.284061</ele>
        <time>2026-08-15T01:41:54.000Z</time>
      </trkpt>
      <trkpt lat="22.903036" lon="109.094587">
        <ele>93.356450</ele>
        <time>2026-08-15T01:41:55.000Z</time>
      </trkpt>
      <trkpt lat="22.903061" lon="109.094633">
        <ele>93.423475</ele>
        <time>2026-08-15T01:41:56.000Z</time>
      </trkpt>
      <trkpt lat="22.903081" lon="109.094677">
        <ele>93.485049</ele>
        <time>2026-08-15T01:41:57.000Z</time>
      </trkpt>
      <trkpt lat="22.903099" lon="109.094718">
        <ele>93.542046</ele>
        <time>2026-08-15T01:41:58.000Z</time>
      </trkpt>
      <trkpt lat="22.903117" lon="109.094757">
        <ele>93.596787</ele>
        <time>2026-08-15T01:41:59.000Z</time>
      </trkpt>
      <trkpt lat="22.903135" lon="109.094795">
        <ele>93.650410</ele>
        <time>2026-08-15T01:42:00.000Z</time>
      </trkpt>
      <trkpt lat="22.903152" lon="109.094833">
        <ele>93.703424</ele>
        <time>2026-08-15T01:42:01.000Z</time>
      </trkpt>
      <trkpt lat="22.903167" lon="109.094870">
        <ele>93.754154</ele>
        <time>2026-08-15T01:42:02.000Z</time>
      </trkpt>
      <trkpt lat="22.903183" lon="109.094906">
        <ele>93.804315</ele>
        <time>2026-08-15T01:42:03.000Z</time>
      </trkpt>
      <trkpt lat="22.903198" lon="109.094943">
        <ele>93.855045</ele>
        <time>2026-08-15T01:42:04.000Z</time>
      </trkpt>
      <trkpt lat="22.903213" lon="109.094979">
        <ele>93.904630</ele>
        <time>2026-08-15T01:42:05.000Z</time>
      </trkpt>
      <trkpt lat="22.903230" lon="109.095016">
        <ele>93.956517</ele>
        <time>2026-08-15T01:42:06.000Z</time>
      </trkpt>
      <trkpt lat="22.903247" lon="109.095053">
        <ele>94.008405</ele>
        <time>2026-08-15T01:42:07.000Z</time>
      </trkpt>
      <trkpt lat="22.903264" lon="109.095091">
        <ele>94.061419</ele>
        <time>2026-08-15T01:42:08.000Z</time>
      </trkpt>
      <trkpt lat="22.903281" lon="109.095132">
        <ele>94.117843</ele>
        <time>2026-08-15T01:42:09.000Z</time>
      </trkpt>
      <trkpt lat="22.903298" lon="109.095172">
        <ele>94.173125</ele>
        <time>2026-08-15T01:42:10.000Z</time>
      </trkpt>
      <trkpt lat="22.903313" lon="109.095212">
        <ele>94.227322</ele>
        <time>2026-08-15T01:42:11.000Z</time>
      </trkpt>
      <trkpt lat="22.903330" lon="109.095253">
        <ele>94.283746</ele>
        <time>2026-08-15T01:42:12.000Z</time>
      </trkpt>
      <trkpt lat="22.903355" lon="109.095294">
        <ele>94.345449</ele>
        <time>2026-08-15T01:42:13.000Z</time>
      </trkpt>
      <trkpt lat="22.903375" lon="109.095335">
        <ele>94.403671</ele>
        <time>2026-08-15T01:42:14.000Z</time>
      </trkpt>
      <trkpt lat="22.903389" lon="109.095378">
        <ele>94.460904</ele>
        <time>2026-08-15T01:42:15.000Z</time>
      </trkpt>
      <trkpt lat="22.903404" lon="109.095423">
        <ele>94.520959</ele>
        <time>2026-08-15T01:42:16.000Z</time>
      </trkpt>
      <trkpt lat="22.903421" lon="109.095467">
        <ele>94.580836</ele>
        <time>2026-08-15T01:42:17.000Z</time>
      </trkpt>
      <trkpt lat="22.903439" lon="109.095512">
        <ele>94.642402</ele>
        <time>2026-08-15T01:42:18.000Z</time>
      </trkpt>
      <trkpt lat="22.903458" lon="109.095556">
        <ele>94.703385</ele>
        <time>2026-08-15T01:42:19.000Z</time>
      </trkpt>
      <trkpt lat="22.903479" lon="109.095602">
        <ele>94.767812</ele>
        <time>2026-08-15T01:42:20.000Z</time>
      </trkpt>
      <trkpt lat="22.903497" lon="109.095647">
        <ele>94.829378</ele>
        <time>2026-08-15T01:42:21.000Z</time>
      </trkpt>
      <trkpt lat="22.903517" lon="109.095693">
        <ele>94.893212</ele>
        <time>2026-08-15T01:42:22.000Z</time>
      </trkpt>
      <trkpt lat="22.903531" lon="109.095742">
        <ele>94.957593</ele>
        <time>2026-08-15T01:42:23.000Z</time>
      </trkpt>
      <trkpt lat="22.903544" lon="109.095790">
        <ele>95.020379</ele>
        <time>2026-08-15T01:42:24.000Z</time>
      </trkpt>
      <trkpt lat="22.903558" lon="109.095838">
        <ele>95.083563</ele>
        <time>2026-08-15T01:42:25.000Z</time>
      </trkpt>
      <trkpt lat="22.903570" lon="109.095886">
        <ele>95.145978</ele>
        <time>2026-08-15T01:42:26.000Z</time>
      </trkpt>
      <trkpt lat="22.903581" lon="109.095931">
        <ele>95.204405</ele>
        <time>2026-08-15T01:42:27.000Z</time>
      </trkpt>
      <trkpt lat="22.903594" lon="109.095972">
        <ele>95.258819</ele>
        <time>2026-08-15T01:42:28.000Z</time>
      </trkpt>
      <trkpt lat="22.903608" lon="109.096015">
        <ele>95.316052</ele>
        <time>2026-08-15T01:42:29.000Z</time>
      </trkpt>
      <trkpt lat="22.903623" lon="109.096057">
        <ele>95.372582</ele>
        <time>2026-08-15T01:42:30.000Z</time>
      </trkpt>
      <trkpt lat="22.903636" lon="109.096099">
        <ele>95.428185</ele>
        <time>2026-08-15T01:42:31.000Z</time>
      </trkpt>
      <trkpt lat="22.903650" lon="109.096144">
        <ele>95.487790</ele>
        <time>2026-08-15T01:42:32.000Z</time>
      </trkpt>
      <trkpt lat="22.903666" lon="109.096191">
        <ele>95.550671</ele>
        <time>2026-08-15T01:42:33.000Z</time>
      </trkpt>
      <trkpt lat="22.903682" lon="109.096238">
        <ele>95.613551</ele>
        <time>2026-08-15T01:42:34.000Z</time>
      </trkpt>
      <trkpt lat="22.903702" lon="109.096287">
        <ele>95.646266</ele>
        <time>2026-08-15T01:42:35.000Z</time>
      </trkpt>
      <trkpt lat="22.903723" lon="109.096337">
        <ele>95.677056</ele>
        <time>2026-08-15T01:42:36.000Z</time>
      </trkpt>
      <trkpt lat="22.903746" lon="109.096392">
        <ele>95.710901</ele>
        <time>2026-08-15T01:42:37.000Z</time>
      </trkpt>
      <trkpt lat="22.903767" lon="109.096447">
        <ele>95.744261</ele>
        <time>2026-08-15T01:42:38.000Z</time>
      </trkpt>
      <trkpt lat="22.903783" lon="109.096500">
        <ele>95.775512</ele>
        <time>2026-08-15T01:42:39.000Z</time>
      </trkpt>
      <trkpt lat="22.903799" lon="109.096553">
        <ele>95.806762</ele>
        <time>2026-08-15T01:42:40.000Z</time>
      </trkpt>
      <trkpt lat="22.903815" lon="109.096606">
        <ele>95.838013</ele>
        <time>2026-08-15T01:42:41.000Z</time>
      </trkpt>
      <trkpt lat="22.903829" lon="109.096658">
        <ele>95.868369</ele>
        <time>2026-08-15T01:42:42.000Z</time>
      </trkpt>
      <trkpt lat="22.903844" lon="109.096710">
        <ele>95.898901</ele>
        <time>2026-08-15T01:42:43.000Z</time>
      </trkpt>
      <trkpt lat="22.903858" lon="109.096759">
        <ele>95.927647</ele>
        <time>2026-08-15T01:42:44.000Z</time>
      </trkpt>
      <trkpt lat="22.903872" lon="109.096809">
        <ele>95.956928</ele>
        <time>2026-08-15T01:42:45.000Z</time>
      </trkpt>
      <trkpt lat="22.903886" lon="109.096858">
        <ele>95.985674</ele>
        <time>2026-08-15T01:42:46.000Z</time>
      </trkpt>
      <trkpt lat="22.903896" lon="109.096904">
        <ele>96.012157</ele>
        <time>2026-08-15T01:42:47.000Z</time>
      </trkpt>
      <trkpt lat="22.903906" lon="109.096950">
        <ele>96.038639</ele>
        <time>2026-08-15T01:42:48.000Z</time>
      </trkpt>
      <trkpt lat="22.903913" lon="109.096995">
        <ele>96.064211</ele>
        <time>2026-08-15T01:42:49.000Z</time>
      </trkpt>
      <trkpt lat="22.903920" lon="109.097038">
        <ele>96.088677</ele>
        <time>2026-08-15T01:42:50.000Z</time>
      </trkpt>
      <trkpt lat="22.903929" lon="109.097078">
        <ele>96.111749</ele>
        <time>2026-08-15T01:42:51.000Z</time>
      </trkpt>
      <trkpt lat="22.903937" lon="109.097119">
        <ele>96.135232</ele>
        <time>2026-08-15T01:42:52.000Z</time>
      </trkpt>
      <trkpt lat="22.903946" lon="109.097162">
        <ele>96.159940</ele>
        <time>2026-08-15T01:42:53.000Z</time>
      </trkpt>
      <trkpt lat="22.903951" lon="109.097207">
        <ele>96.185337</ele>
        <time>2026-08-15T01:42:54.000Z</time>
      </trkpt>
      <trkpt lat="22.903952" lon="109.097251">
        <ele>96.209998</ele>
        <time>2026-08-15T01:42:55.000Z</time>
      </trkpt>
      <trkpt lat="22.903956" lon="109.097298">
        <ele>96.236445</ele>
        <time>2026-08-15T01:42:56.000Z</time>
      </trkpt>
      <trkpt lat="22.903959" lon="109.097346">
        <ele>96.263402</ele>
        <time>2026-08-15T01:42:57.000Z</time>
      </trkpt>
      <trkpt lat="22.903963" lon="109.097395">
        <ele>96.290965</ele>
        <time>2026-08-15T01:42:58.000Z</time>
      </trkpt>
      <trkpt lat="22.903965" lon="109.097443">
        <ele>96.317888</ele>
        <time>2026-08-15T01:42:59.000Z</time>
      </trkpt>
      <trkpt lat="22.903969" lon="109.097491">
        <ele>96.344893</ele>
        <time>2026-08-15T01:43:00.000Z</time>
      </trkpt>
      <trkpt lat="22.903973" lon="109.097540">
        <ele>96.372456</ele>
        <time>2026-08-15T01:43:01.000Z</time>
      </trkpt>
      <trkpt lat="22.903977" lon="109.097589">
        <ele>96.400019</ele>
        <time>2026-08-15T01:43:02.000Z</time>
      </trkpt>
      <trkpt lat="22.903978" lon="109.097638">
        <ele>96.427482</ele>
        <time>2026-08-15T01:43:03.000Z</time>
      </trkpt>
      <trkpt lat="22.903979" lon="109.097688">
        <ele>96.455504</ele>
        <time>2026-08-15T01:43:04.000Z</time>
      </trkpt>
      <trkpt lat="22.903978" lon="109.097741">
        <ele>96.485207</ele>
        <time>2026-08-15T01:43:05.000Z</time>
      </trkpt>
      <trkpt lat="22.903978" lon="109.097792">
        <ele>96.513783</ele>
        <time>2026-08-15T01:43:06.000Z</time>
      </trkpt>
      <trkpt lat="22.903976" lon="109.097846">
        <ele>96.544065</ele>
        <time>2026-08-15T01:43:07.000Z</time>
      </trkpt>
      <trkpt lat="22.903975" lon="109.097900">
        <ele>96.574328</ele>
        <time>2026-08-15T01:43:08.000Z</time>
      </trkpt>
      <trkpt lat="22.903974" lon="109.097953">
        <ele>96.604031</ele>
        <time>2026-08-15T01:43:09.000Z</time>
      </trkpt>
      <trkpt lat="22.903973" lon="109.098004">
        <ele>96.632614</ele>
        <time>2026-08-15T01:43:10.000Z</time>
      </trkpt>
      <trkpt lat="22.903970" lon="109.098057">
        <ele>96.662367</ele>
        <time>2026-08-15T01:43:11.000Z</time>
      </trkpt>
      <trkpt lat="22.903966" lon="109.098111">
        <ele>96.692721</ele>
        <time>2026-08-15T01:43:12.000Z</time>
      </trkpt>
      <trkpt lat="22.903962" lon="109.098165">
        <ele>96.736918</ele>
        <time>2026-08-15T01:43:13.000Z</time>
      </trkpt>
      <trkpt lat="22.903958" lon="109.098220">
        <ele>96.808176</ele>
        <time>2026-08-15T01:43:14.000Z</time>
      </trkpt>
      <trkpt lat="22.903954" lon="109.098276">
        <ele>96.880720</ele>
        <time>2026-08-15T01:43:15.000Z</time>
      </trkpt>
      <trkpt lat="22.903948" lon="109.098333">
        <ele>96.954818</ele>
        <time>2026-08-15T01:43:16.000Z</time>
      </trkpt>
      <trkpt lat="22.903942" lon="109.098393">
        <ele>97.032768</ele>
        <time>2026-08-15T01:43:17.000Z</time>
      </trkpt>
      <trkpt lat="22.903935" lon="109.098451">
        <ele>97.108318</ele>
        <time>2026-08-15T01:43:18.000Z</time>
      </trkpt>
      <trkpt lat="22.903927" lon="109.098510">
        <ele>97.185342</ele>
        <time>2026-08-15T01:43:19.000Z</time>
      </trkpt>
      <trkpt lat="22.903918" lon="109.098570">
        <ele>97.263856</ele>
        <time>2026-08-15T01:43:20.000Z</time>
      </trkpt>
      <trkpt lat="22.903910" lon="109.098631">
        <ele>97.343436</ele>
        <time>2026-08-15T01:43:21.000Z</time>
      </trkpt>
      <trkpt lat="22.903903" lon="109.098690">
        <ele>97.420268</ele>
        <time>2026-08-15T01:43:22.000Z</time>
      </trkpt>
      <trkpt lat="22.903893" lon="109.098750">
        <ele>97.499020</ele>
        <time>2026-08-15T01:43:23.000Z</time>
      </trkpt>
      <trkpt lat="22.903883" lon="109.098808">
        <ele>97.575232</ele>
        <time>2026-08-15T01:43:24.000Z</time>
      </trkpt>
      <trkpt lat="22.903875" lon="109.098866">
        <ele>97.650978</ele>
        <time>2026-08-15T01:43:25.000Z</time>
      </trkpt>
      <trkpt lat="22.903866" lon="109.098923">
        <ele>97.725670</ele>
        <time>2026-08-15T01:43:26.000Z</time>
      </trkpt>
      <trkpt lat="22.903859" lon="109.098981">
        <ele>97.801221</ele>
        <time>2026-08-15T01:43:27.000Z</time>
      </trkpt>
      <trkpt lat="22.903850" lon="109.099039">
        <ele>97.877188</ele>
        <time>2026-08-15T01:43:28.000Z</time>
      </trkpt>
      <trkpt lat="22.903842" lon="109.099096">
        <ele>97.951656</ele>
        <time>2026-08-15T01:43:29.000Z</time>
      </trkpt>
      <trkpt lat="22.903835" lon="109.099152">
        <ele>98.024647</ele>
        <time>2026-08-15T01:43:30.000Z</time>
      </trkpt>
      <trkpt lat="22.903828" lon="109.099205">
        <ele>98.093800</ele>
        <time>2026-08-15T01:43:31.000Z</time>
      </trkpt>
      <trkpt lat="22.903822" lon="109.099258">
        <ele>98.162768</ele>
        <time>2026-08-15T01:43:32.000Z</time>
      </trkpt>
      <trkpt lat="22.903817" lon="109.099311">
        <ele>98.231579</ele>
        <time>2026-08-15T01:43:33.000Z</time>
      </trkpt>
      <trkpt lat="22.903813" lon="109.099362">
        <ele>98.297687</ele>
        <time>2026-08-15T01:43:34.000Z</time>
      </trkpt>
      <trkpt lat="22.903808" lon="109.099412">
        <ele>98.362645</ele>
        <time>2026-08-15T01:43:35.000Z</time>
      </trkpt>
      <trkpt lat="22.903805" lon="109.099459">
        <ele>98.423494</ele>
        <time>2026-08-15T01:43:36.000Z</time>
      </trkpt>
      <trkpt lat="22.903803" lon="109.099504">
        <ele>98.481682</ele>
        <time>2026-08-15T01:43:37.000Z</time>
      </trkpt>
      <trkpt lat="22.903800" lon="109.099547">
        <ele>98.537378</ele>
        <time>2026-08-15T01:43:38.000Z</time>
      </trkpt>
      <trkpt lat="22.903799" lon="109.099587">
        <ele>98.589060</ele>
        <time>2026-08-15T01:43:39.000Z</time>
      </trkpt>
      <trkpt lat="22.903797" lon="109.099624">
        <ele>98.636930</ele>
        <time>2026-08-15T01:43:40.000Z</time>
      </trkpt>
      <trkpt lat="22.903795" lon="109.099663">
        <ele>98.687379</ele>
        <time>2026-08-15T01:43:41.000Z</time>
      </trkpt>
      <trkpt lat="22.903794" lon="109.099701">
        <ele>98.736478</ele>
        <time>2026-08-15T01:43:42.000Z</time>
      </trkpt>
      <trkpt lat="22.903793" lon="109.099739">
        <ele>98.785578</ele>
        <time>2026-08-15T01:43:43.000Z</time>
      </trkpt>
      <trkpt lat="22.903796" lon="109.099775">
        <ele>98.832264</ele>
        <time>2026-08-15T01:43:44.000Z</time>
      </trkpt>
      <trkpt lat="22.903797" lon="109.099809">
        <ele>98.876200</ele>
        <time>2026-08-15T01:43:45.000Z</time>
      </trkpt>
      <trkpt lat="22.903799" lon="109.099842">
        <ele>98.918913</ele>
        <time>2026-08-15T01:43:46.000Z</time>
      </trkpt>
      <trkpt lat="22.903801" lon="109.099874">
        <ele>98.960339</ele>
        <time>2026-08-15T01:43:47.000Z</time>
      </trkpt>
      <trkpt lat="22.903804" lon="109.099908">
        <ele>99.004453</ele>
        <time>2026-08-15T01:43:48.000Z</time>
      </trkpt>
      <trkpt lat="22.903808" lon="109.099944">
        <ele>99.051286</ele>
        <time>2026-08-15T01:43:49.000Z</time>
      </trkpt>
      <trkpt lat="22.903812" lon="109.099980">
        <ele>99.098120</ele>
        <time>2026-08-15T01:43:50.000Z</time>
      </trkpt>
      <trkpt lat="22.903817" lon="109.100017">
        <ele>99.146419</ele>
        <time>2026-08-15T01:43:51.000Z</time>
      </trkpt>
      <trkpt lat="22.903820" lon="109.100056">
        <ele>99.196965</ele>
        <time>2026-08-15T01:43:52.000Z</time>
      </trkpt>
      <trkpt lat="22.903822" lon="109.100094">
        <ele>99.231271</ele>
        <time>2026-08-15T01:43:53.000Z</time>
      </trkpt>
      <trkpt lat="22.903828" lon="109.100133">
        <ele>99.217854</ele>
        <time>2026-08-15T01:43:54.000Z</time>
      </trkpt>
      <trkpt lat="22.903836" lon="109.100172">
        <ele>99.204296</ele>
        <time>2026-08-15T01:43:55.000Z</time>
      </trkpt>
      <trkpt lat="22.903845" lon="109.100209">
        <ele>99.191310</ele>
        <time>2026-08-15T01:43:56.000Z</time>
      </trkpt>
      <trkpt lat="22.903851" lon="109.100248">
        <ele>99.177893</ele>
        <time>2026-08-15T01:43:57.000Z</time>
      </trkpt>
      <trkpt lat="22.903855" lon="109.100290">
        <ele>99.163566</ele>
        <time>2026-08-15T01:43:58.000Z</time>
      </trkpt>
      <trkpt lat="22.903860" lon="109.100332">
        <ele>99.149196</ele>
        <time>2026-08-15T01:43:59.000Z</time>
      </trkpt>
      <trkpt lat="22.903868" lon="109.100374">
        <ele>99.134643</ele>
        <time>2026-08-15T01:44:00.000Z</time>
      </trkpt>
      <trkpt lat="22.903877" lon="109.100417">
        <ele>99.119680</ele>
        <time>2026-08-15T01:44:01.000Z</time>
      </trkpt>
      <trkpt lat="22.903885" lon="109.100462">
        <ele>99.104128</ele>
        <time>2026-08-15T01:44:02.000Z</time>
      </trkpt>
      <trkpt lat="22.903894" lon="109.100506">
        <ele>99.088834</ele>
        <time>2026-08-15T01:44:03.000Z</time>
      </trkpt>
      <trkpt lat="22.903904" lon="109.100549">
        <ele>99.073786</ele>
        <time>2026-08-15T01:44:04.000Z</time>
      </trkpt>
      <trkpt lat="22.903915" lon="109.100592">
        <ele>99.058643</ele>
        <time>2026-08-15T01:44:05.000Z</time>
      </trkpt>
      <trkpt lat="22.903926" lon="109.100637">
        <ele>99.042844</ele>
        <time>2026-08-15T01:44:06.000Z</time>
      </trkpt>
      <trkpt lat="22.903939" lon="109.100681">
        <ele>99.027165</ele>
        <time>2026-08-15T01:44:07.000Z</time>
      </trkpt>
      <trkpt lat="22.903951" lon="109.100728">
        <ele>99.010616</ele>
        <time>2026-08-15T01:44:08.000Z</time>
      </trkpt>
      <trkpt lat="22.903964" lon="109.100777">
        <ele>98.993313</ele>
        <time>2026-08-15T01:44:09.000Z</time>
      </trkpt>
      <trkpt lat="22.903979" lon="109.100825">
        <ele>98.976113</ele>
        <time>2026-08-15T01:44:10.000Z</time>
      </trkpt>
      <trkpt lat="22.903993" lon="109.100874">
        <ele>98.958705</ele>
        <time>2026-08-15T01:44:11.000Z</time>
      </trkpt>
      <trkpt lat="22.904008" lon="109.100926">
        <ele>98.940215</ele>
        <time>2026-08-15T01:44:12.000Z</time>
      </trkpt>
      <trkpt lat="22.904023" lon="109.100980">
        <ele>98.921077</ele>
        <time>2026-08-15T01:44:13.000Z</time>
      </trkpt>
      <trkpt lat="22.904039" lon="109.101035">
        <ele>98.901506</ele>
        <time>2026-08-15T01:44:14.000Z</time>
      </trkpt>
      <trkpt lat="22.904055" lon="109.101092">
        <ele>98.881286</ele>
        <time>2026-08-15T01:44:15.000Z</time>
      </trkpt>
      <trkpt lat="22.904071" lon="109.101152">
        <ele>98.860091</ele>
        <time>2026-08-15T01:44:16.000Z</time>
      </trkpt>
      <trkpt lat="22.904087" lon="109.101214">
        <ele>98.838242</ele>
        <time>2026-08-15T01:44:17.000Z</time>
      </trkpt>
      <trkpt lat="22.904105" lon="109.101276">
        <ele>98.816184</ele>
        <time>2026-08-15T01:44:18.000Z</time>
      </trkpt>
      <trkpt lat="22.904124" lon="109.101339">
        <ele>98.793690</ele>
        <time>2026-08-15T01:44:19.000Z</time>
      </trkpt>
      <trkpt lat="22.904143" lon="109.101405">
        <ele>98.770227</ele>
        <time>2026-08-15T01:44:20.000Z</time>
      </trkpt>
      <trkpt lat="22.904161" lon="109.101472">
        <ele>98.746545</ele>
        <time>2026-08-15T01:44:21.000Z</time>
      </trkpt>
      <trkpt lat="22.904179" lon="109.101539">
        <ele>98.722863</ele>
        <time>2026-08-15T01:44:22.000Z</time>
      </trkpt>
      <trkpt lat="22.904198" lon="109.101606">
        <ele>98.699075</ele>
        <time>2026-08-15T01:44:23.000Z</time>
      </trkpt>
      <trkpt lat="22.904216" lon="109.101672">
        <ele>98.675719</ele>
        <time>2026-08-15T01:44:24.000Z</time>
      </trkpt>
      <trkpt lat="22.904236" lon="109.101739">
        <ele>98.651820</ele>
        <time>2026-08-15T01:44:25.000Z</time>
      </trkpt>
      <trkpt lat="22.904255" lon="109.101808">
        <ele>98.627383</ele>
        <time>2026-08-15T01:44:26.000Z</time>
      </trkpt>
      <trkpt lat="22.904274" lon="109.101876">
        <ele>98.603271</ele>
        <time>2026-08-15T01:44:27.000Z</time>
      </trkpt>
      <trkpt lat="22.904293" lon="109.101942">
        <ele>98.579808</ele>
        <time>2026-08-15T01:44:28.000Z</time>
      </trkpt>
      <trkpt lat="22.904313" lon="109.102006">
        <ele>98.519051</ele>
        <time>2026-08-15T01:44:29.000Z</time>
      </trkpt>
      <trkpt lat="22.904331" lon="109.102069">
        <ele>98.439947</ele>
        <time>2026-08-15T01:44:30.000Z</time>
      </trkpt>
      <trkpt lat="22.904349" lon="109.102133">
        <ele>98.359696</ele>
        <time>2026-08-15T01:44:31.000Z</time>
      </trkpt>
      <trkpt lat="22.904367" lon="109.102195">
        <ele>98.281737</ele>
        <time>2026-08-15T01:44:32.000Z</time>
      </trkpt>
      <trkpt lat="22.904385" lon="109.102259">
        <ele>98.201487</ele>
        <time>2026-08-15T01:44:33.000Z</time>
      </trkpt>
      <trkpt lat="22.904405" lon="109.102323">
        <ele>98.120438</ele>
        <time>2026-08-15T01:44:34.000Z</time>
      </trkpt>
      <trkpt lat="22.904424" lon="109.102388">
        <ele>98.038655</ele>
        <time>2026-08-15T01:44:35.000Z</time>
      </trkpt>
      <trkpt lat="22.904444" lon="109.102455">
        <ele>97.954192</ele>
        <time>2026-08-15T01:44:36.000Z</time>
      </trkpt>
      <trkpt lat="22.904464" lon="109.102520">
        <ele>97.872006</ele>
        <time>2026-08-15T01:44:37.000Z</time>
      </trkpt>
      <trkpt lat="22.904484" lon="109.102585">
        <ele>97.789821</ele>
        <time>2026-08-15T01:44:38.000Z</time>
      </trkpt>
      <trkpt lat="22.904504" lon="109.102652">
        <ele>97.705357</ele>
        <time>2026-08-15T01:44:39.000Z</time>
      </trkpt>
      <trkpt lat="22.904525" lon="109.102720">
        <ele>97.619347</ele>
        <time>2026-08-15T01:44:40.000Z</time>
      </trkpt>
      <trkpt lat="22.904544" lon="109.102787">
        <ele>97.535275</ele>
        <time>2026-08-15T01:44:41.000Z</time>
      </trkpt>
      <trkpt lat="22.904564" lon="109.102856">
        <ele>97.448526</ele>
        <time>2026-08-15T01:44:42.000Z</time>
      </trkpt>
      <trkpt lat="22.904583" lon="109.102925">
        <ele>97.362160</ele>
        <time>2026-08-15T01:44:43.000Z</time>
      </trkpt>
      <trkpt lat="22.904603" lon="109.102994">
        <ele>97.275411</ele>
        <time>2026-08-15T01:44:44.000Z</time>
      </trkpt>
      <trkpt lat="22.904623" lon="109.103062">
        <ele>97.189806</ele>
        <time>2026-08-15T01:44:45.000Z</time>
      </trkpt>
      <trkpt lat="22.904644" lon="109.103132">
        <ele>97.101518</ele>
        <time>2026-08-15T01:44:46.000Z</time>
      </trkpt>
      <trkpt lat="22.904664" lon="109.103202">
        <ele>97.013625</ele>
        <time>2026-08-15T01:44:47.000Z</time>
      </trkpt>
      <trkpt lat="22.904684" lon="109.103272">
        <ele>96.925731</ele>
        <time>2026-08-15T01:44:48.000Z</time>
      </trkpt>
      <trkpt lat="22.904704" lon="109.103342">
        <ele>96.837838</ele>
        <time>2026-08-15T01:44:49.000Z</time>
      </trkpt>
      <trkpt lat="22.904723" lon="109.103412">
        <ele>96.750322</ele>
        <time>2026-08-15T01:44:50.000Z</time>
      </trkpt>
      <trkpt lat="22.904745" lon="109.103481">
        <ele>96.662757</ele>
        <time>2026-08-15T01:44:51.000Z</time>
      </trkpt>
      <trkpt lat="22.904766" lon="109.103551">
        <ele>96.574469</ele>
        <time>2026-08-15T01:44:52.000Z</time>
      </trkpt>
      <trkpt lat="22.904788" lon="109.103620">
        <ele>96.486904</ele>
        <time>2026-08-15T01:44:53.000Z</time>
      </trkpt>
      <trkpt lat="22.904809" lon="109.103688">
        <ele>96.400893</ele>
        <time>2026-08-15T01:44:54.000Z</time>
      </trkpt>
      <trkpt lat="22.904831" lon="109.103757">
        <ele>96.313328</ele>
        <time>2026-08-15T01:44:55.000Z</time>
      </trkpt>
      <trkpt lat="22.904852" lon="109.103825">
        <ele>96.226301</ele>
        <time>2026-08-15T01:44:56.000Z</time>
      </trkpt>
      <trkpt lat="22.904873" lon="109.103893">
        <ele>96.109257</ele>
        <time>2026-08-15T01:44:57.000Z</time>
      </trkpt>
      <trkpt lat="22.904894" lon="109.103962">
        <ele>95.990664</ele>
        <time>2026-08-15T01:44:58.000Z</time>
      </trkpt>
      <trkpt lat="22.904916" lon="109.104031">
        <ele>95.871504</ele>
        <time>2026-08-15T01:44:59.000Z</time>
      </trkpt>
      <trkpt lat="22.904939" lon="109.104102">
        <ele>95.748679</ele>
        <time>2026-08-15T01:45:00.000Z</time>
      </trkpt>
      <trkpt lat="22.904959" lon="109.104172">
        <ele>95.629073</ele>
        <time>2026-08-15T01:45:01.000Z</time>
      </trkpt>
      <trkpt lat="22.904978" lon="109.104242">
        <ele>95.509980</ele>
        <time>2026-08-15T01:45:02.000Z</time>
      </trkpt>
      <trkpt lat="22.904998" lon="109.104311">
        <ele>95.391931</ele>
        <time>2026-08-15T01:45:03.000Z</time>
      </trkpt>
      <trkpt lat="22.905020" lon="109.104379">
        <ele>95.274312</ele>
        <time>2026-08-15T01:45:04.000Z</time>
      </trkpt>
      <trkpt lat="22.905041" lon="109.104448">
        <ele>95.155720</ele>
        <time>2026-08-15T01:45:05.000Z</time>
      </trkpt>
      <trkpt lat="22.905062" lon="109.104519">
        <ele>95.034024</ele>
        <time>2026-08-15T01:45:06.000Z</time>
      </trkpt>
      <trkpt lat="22.905083" lon="109.104590">
        <ele>94.912329</ele>
        <time>2026-08-15T01:45:07.000Z</time>
      </trkpt>
      <trkpt lat="22.905105" lon="109.104660">
        <ele>94.791625</ele>
        <time>2026-08-15T01:45:08.000Z</time>
      </trkpt>
      <trkpt lat="22.905127" lon="109.104730">
        <ele>94.670922</ele>
        <time>2026-08-15T01:45:09.000Z</time>
      </trkpt>
      <trkpt lat="22.905150" lon="109.104805">
        <ele>94.541921</ele>
        <time>2026-08-15T01:45:10.000Z</time>
      </trkpt>
      <trkpt lat="22.905173" lon="109.104879">
        <ele>94.414467</ele>
        <time>2026-08-15T01:45:11.000Z</time>
      </trkpt>
      <trkpt lat="22.905197" lon="109.104954">
        <ele>94.284895</ele>
        <time>2026-08-15T01:45:12.000Z</time>
      </trkpt>
      <trkpt lat="22.905221" lon="109.105030">
        <ele>94.153780</ele>
        <time>2026-08-15T01:45:13.000Z</time>
      </trkpt>
      <trkpt lat="22.905245" lon="109.105107">
        <ele>94.021121</ele>
        <time>2026-08-15T01:45:14.000Z</time>
      </trkpt>
      <trkpt lat="22.905269" lon="109.105185">
        <ele>93.886914</ele>
        <time>2026-08-15T01:45:15.000Z</time>
      </trkpt>
      <trkpt lat="22.905291" lon="109.105262">
        <ele>93.755348</ele>
        <time>2026-08-15T01:45:16.000Z</time>
      </trkpt>
      <trkpt lat="22.905315" lon="109.105339">
        <ele>93.622689</ele>
        <time>2026-08-15T01:45:17.000Z</time>
      </trkpt>
      <trkpt lat="22.905338" lon="109.105416">
        <ele>93.490586</ele>
        <time>2026-08-15T01:45:18.000Z</time>
      </trkpt>
      <trkpt lat="22.905361" lon="109.105494">
        <ele>93.356931</ele>
        <time>2026-08-15T01:45:19.000Z</time>
      </trkpt>
      <trkpt lat="22.905387" lon="109.105571">
        <ele>93.223094</ele>
        <time>2026-08-15T01:45:20.000Z</time>
      </trkpt>
      <trkpt lat="22.905412" lon="109.105648">
        <ele>93.089856</ele>
        <time>2026-08-15T01:45:21.000Z</time>
      </trkpt>
      <trkpt lat="22.905434" lon="109.105723">
        <ele>93.031232</ele>
        <time>2026-08-15T01:45:22.000Z</time>
      </trkpt>
      <trkpt lat="22.905456" lon="109.105797">
        <ele>93.012180</ele>
        <time>2026-08-15T01:45:23.000Z</time>
      </trkpt>
      <trkpt lat="22.905479" lon="109.105872">
        <ele>92.992812</ele>
        <time>2026-08-15T01:45:24.000Z</time>
      </trkpt>
      <trkpt lat="22.905502" lon="109.105947">
        <ele>92.973443</ele>
        <time>2026-08-15T01:45:25.000Z</time>
      </trkpt>
      <trkpt lat="22.905526" lon="109.106021">
        <ele>92.954221</ele>
        <time>2026-08-15T01:45:26.000Z</time>
      </trkpt>
      <trkpt lat="22.905549" lon="109.106093">
        <ele>92.935548</ele>
        <time>2026-08-15T01:45:27.000Z</time>
      </trkpt>
      <trkpt lat="22.905572" lon="109.106164">
        <ele>92.917107</ele>
        <time>2026-08-15T01:45:28.000Z</time>
      </trkpt>
      <trkpt lat="22.905593" lon="109.106233">
        <ele>92.899302</ele>
        <time>2026-08-15T01:45:29.000Z</time>
      </trkpt>
      <trkpt lat="22.905613" lon="109.106301">
        <ele>92.881812</ele>
        <time>2026-08-15T01:45:30.000Z</time>
      </trkpt>
      <trkpt lat="22.905634" lon="109.106369">
        <ele>92.864239</ele>
        <time>2026-08-15T01:45:31.000Z</time>
      </trkpt>
      <trkpt lat="22.905656" lon="109.106437">
        <ele>92.846580</ele>
        <time>2026-08-15T01:45:32.000Z</time>
      </trkpt>
      <trkpt lat="22.905679" lon="109.106504">
        <ele>92.829060</ele>
        <time>2026-08-15T01:45:33.000Z</time>
      </trkpt>
      <trkpt lat="22.905701" lon="109.106570">
        <ele>92.811863</ele>
        <time>2026-08-15T01:45:34.000Z</time>
      </trkpt>
      <trkpt lat="22.905722" lon="109.106637">
        <ele>92.794522</ele>
        <time>2026-08-15T01:45:35.000Z</time>
      </trkpt>
      <trkpt lat="22.905743" lon="109.106703">
        <ele>92.777413</ele>
        <time>2026-08-15T01:45:36.000Z</time>
      </trkpt>
      <trkpt lat="22.905763" lon="109.106770">
        <ele>92.760156</ele>
        <time>2026-08-15T01:45:37.000Z</time>
      </trkpt>
      <trkpt lat="22.905783" lon="109.106834">
        <ele>92.743597</ele>
        <time>2026-08-15T01:45:38.000Z</time>
      </trkpt>
      <trkpt lat="22.905804" lon="109.106897">
        <ele>92.727181</ele>
        <time>2026-08-15T01:45:39.000Z</time>
      </trkpt>
      <trkpt lat="22.905823" lon="109.106959">
        <ele>92.711171</ele>
        <time>2026-08-15T01:45:40.000Z</time>
      </trkpt>
      <trkpt lat="22.905841" lon="109.107023">
        <ele>92.694775</ele>
        <time>2026-08-15T01:45:41.000Z</time>
      </trkpt>
      <trkpt lat="22.905862" lon="109.107085">
        <ele>92.678589</ele>
        <time>2026-08-15T01:45:42.000Z</time>
      </trkpt>
      <trkpt lat="22.905883" lon="109.107145">
        <ele>92.662862</ele>
        <time>2026-08-15T01:45:43.000Z</time>
      </trkpt>
      <trkpt lat="22.905903" lon="109.107205">
        <ele>92.647228</ele>
        <time>2026-08-15T01:45:44.000Z</time>
      </trkpt>
      <trkpt lat="22.905924" lon="109.107263">
        <ele>92.631958</ele>
        <time>2026-08-15T01:45:45.000Z</time>
      </trkpt>
      <trkpt lat="22.905944" lon="109.107323">
        <ele>92.616324</ele>
        <time>2026-08-15T01:45:46.000Z</time>
      </trkpt>
      <trkpt lat="22.905966" lon="109.107381">
        <ele>92.600955</ele>
        <time>2026-08-15T01:45:47.000Z</time>
      </trkpt>
      <trkpt lat="22.905987" lon="109.107437">
        <ele>92.586141</ele>
        <time>2026-08-15T01:45:48.000Z</time>
      </trkpt>
      <trkpt lat="22.906009" lon="109.107491">
        <ele>92.571673</ele>
        <time>2026-08-15T01:45:49.000Z</time>
      </trkpt>
      <trkpt lat="22.906033" lon="109.107545">
        <ele>92.591911</ele>
        <time>2026-08-15T01:45:50.000Z</time>
      </trkpt>
      <trkpt lat="22.906056" lon="109.107599">
        <ele>92.639778</ele>
        <time>2026-08-15T01:45:51.000Z</time>
      </trkpt>
      <trkpt lat="22.906080" lon="109.107651">
        <ele>92.686574</ele>
        <time>2026-08-15T01:45:52.000Z</time>
      </trkpt>
      <trkpt lat="22.906104" lon="109.107704">
        <ele>92.734091</ele>
        <time>2026-08-15T01:45:53.000Z</time>
      </trkpt>
      <trkpt lat="22.906126" lon="109.107756">
        <ele>92.780131</ele>
        <time>2026-08-15T01:45:54.000Z</time>
      </trkpt>
      <trkpt lat="22.906150" lon="109.107808">
        <ele>92.826927</ele>
        <time>2026-08-15T01:45:55.000Z</time>
      </trkpt>
      <trkpt lat="22.906171" lon="109.107859">
        <ele>92.871874</ele>
        <time>2026-08-15T01:45:56.000Z</time>
      </trkpt>
      <trkpt lat="22.906192" lon="109.107909">
        <ele>92.916087</ele>
        <time>2026-08-15T01:45:57.000Z</time>
      </trkpt>
      <trkpt lat="22.906216" lon="109.107958">
        <ele>92.960738</ele>
        <time>2026-08-15T01:45:58.000Z</time>
      </trkpt>
      <trkpt lat="22.906239" lon="109.108009">
        <ele>93.006426</ele>
        <time>2026-08-15T01:45:59.000Z</time>
      </trkpt>
      <trkpt lat="22.906261" lon="109.108059">
        <ele>93.051008</ele>
        <time>2026-08-15T01:46:00.000Z</time>
      </trkpt>
      <trkpt lat="22.906282" lon="109.108109">
        <ele>93.095222</ele>
        <time>2026-08-15T01:46:01.000Z</time>
      </trkpt>
      <trkpt lat="22.906301" lon="109.108157">
        <ele>93.137256</ele>
        <time>2026-08-15T01:46:02.000Z</time>
      </trkpt>
      <trkpt lat="22.906319" lon="109.108205">
        <ele>93.178953</ele>
        <time>2026-08-15T01:46:03.000Z</time>
      </trkpt>
      <trkpt lat="22.906339" lon="109.108254">
        <ele>93.222075</ele>
        <time>2026-08-15T01:46:04.000Z</time>
      </trkpt>
      <trkpt lat="22.906359" lon="109.108301">
        <ele>93.263730</ele>
        <time>2026-08-15T01:46:05.000Z</time>
      </trkpt>
      <trkpt lat="22.906380" lon="109.108348">
        <ele>93.305759</ele>
        <time>2026-08-15T01:46:06.000Z</time>
      </trkpt>
      <trkpt lat="22.906400" lon="109.108394">
        <ele>93.346685</ele>
        <time>2026-08-15T01:46:07.000Z</time>
      </trkpt>
      <trkpt lat="22.906419" lon="109.108440">
        <ele>93.387246</ele>
        <time>2026-08-15T01:46:08.000Z</time>
      </trkpt>
      <trkpt lat="22.906438" lon="109.108486">
        <ele>93.427807</ele>
        <time>2026-08-15T01:46:09.000Z</time>
      </trkpt>
      <trkpt lat="22.906459" lon="109.108532">
        <ele>93.469114</ele>
        <time>2026-08-15T01:46:10.000Z</time>
      </trkpt>
      <trkpt lat="22.906482" lon="109.108580">
        <ele>93.512646</ele>
        <time>2026-08-15T01:46:11.000Z</time>
      </trkpt>
      <trkpt lat="22.906503" lon="109.108626">
        <ele>93.553953</ele>
        <time>2026-08-15T01:46:12.000Z</time>
      </trkpt>
      <trkpt lat="22.906526" lon="109.108670">
        <ele>93.594657</ele>
        <time>2026-08-15T01:46:13.000Z</time>
      </trkpt>
      <trkpt lat="22.906549" lon="109.108716">
        <ele>93.636768</ele>
        <time>2026-08-15T01:46:14.000Z</time>
      </trkpt>
      <trkpt lat="22.906568" lon="109.108762">
        <ele>93.677329</ele>
        <time>2026-08-15T01:46:15.000Z</time>
      </trkpt>
      <trkpt lat="22.906588" lon="109.108808">
        <ele>93.718255</ele>
        <time>2026-08-15T01:46:16.000Z</time>
      </trkpt>
      <trkpt lat="22.906608" lon="109.108854">
        <ele>93.759181</ele>
        <time>2026-08-15T01:46:17.000Z</time>
      </trkpt>
      <trkpt lat="22.906629" lon="109.108900">
        <ele>93.800488</ele>
        <time>2026-08-15T01:46:18.000Z</time>
      </trkpt>
      <trkpt lat="22.906650" lon="109.108945">
        <ele>93.841075</ele>
        <time>2026-08-15T01:46:19.000Z</time>
      </trkpt>
      <trkpt lat="22.906670" lon="109.108990">
        <ele>93.881275</ele>
        <time>2026-08-15T01:46:20.000Z</time>
      </trkpt>
      <trkpt lat="22.906688" lon="109.109035">
        <ele>93.920747</ele>
        <time>2026-08-15T01:46:21.000Z</time>
      </trkpt>
      <trkpt lat="22.906708" lon="109.109080">
        <ele>93.960947</ele>
        <time>2026-08-15T01:46:22.000Z</time>
      </trkpt>
      <trkpt lat="22.906729" lon="109.109124">
        <ele>94.000818</ele>
        <time>2026-08-15T01:46:23.000Z</time>
      </trkpt>
      <trkpt lat="22.906748" lon="109.109168">
        <ele>94.039917</ele>
        <time>2026-08-15T01:46:24.000Z</time>
      </trkpt>
      <trkpt lat="22.906767" lon="109.109211">
        <ele>94.078288</ele>
        <time>2026-08-15T01:46:25.000Z</time>
      </trkpt>
      <trkpt lat="22.906786" lon="109.109253">
        <ele>94.115935</ele>
        <time>2026-08-15T01:46:26.000Z</time>
      </trkpt>
      <trkpt lat="22.906804" lon="109.109296">
        <ele>94.120401</ele>
        <time>2026-08-15T01:46:27.000Z</time>
      </trkpt>
      <trkpt lat="22.906822" lon="109.109340">
        <ele>94.086011</ele>
        <time>2026-08-15T01:46:28.000Z</time>
      </trkpt>
      <trkpt lat="22.906839" lon="109.109386">
        <ele>94.050607</ele>
        <time>2026-08-15T01:46:29.000Z</time>
      </trkpt>
      <trkpt lat="22.906857" lon="109.109432">
        <ele>94.014907</ele>
        <time>2026-08-15T01:46:30.000Z</time>
      </trkpt>
      <trkpt lat="22.906876" lon="109.109477">
        <ele>93.979548</ele>
        <time>2026-08-15T01:46:31.000Z</time>
      </trkpt>
      <trkpt lat="22.906895" lon="109.109521">
        <ele>93.944836</ele>
        <time>2026-08-15T01:46:32.000Z</time>
      </trkpt>
      <trkpt lat="22.906916" lon="109.109566">
        <ele>93.908803</ele>
        <time>2026-08-15T01:46:33.000Z</time>
      </trkpt>
      <trkpt lat="22.906939" lon="109.109613">
        <ele>93.870787</ele>
        <time>2026-08-15T01:46:34.000Z</time>
      </trkpt>
      <trkpt lat="22.906960" lon="109.109661">
        <ele>93.832829</ele>
        <time>2026-08-15T01:46:35.000Z</time>
      </trkpt>
      <trkpt lat="22.906982" lon="109.109708">
        <ele>93.795171</ele>
        <time>2026-08-15T01:46:36.000Z</time>
      </trkpt>
      <trkpt lat="22.907003" lon="109.109754">
        <ele>93.758499</ele>
        <time>2026-08-15T01:46:37.000Z</time>
      </trkpt>
      <trkpt lat="22.907025" lon="109.109800">
        <ele>93.721476</ele>
        <time>2026-08-15T01:46:38.000Z</time>
      </trkpt>
      <trkpt lat="22.907047" lon="109.109845">
        <ele>93.685085</ele>
        <time>2026-08-15T01:46:39.000Z</time>
      </trkpt>
      <trkpt lat="22.907072" lon="109.109892">
        <ele>93.646317</ele>
        <time>2026-08-15T01:46:40.000Z</time>
      </trkpt>
      <trkpt lat="22.907097" lon="109.109940">
        <ele>93.606929</ele>
        <time>2026-08-15T01:46:41.000Z</time>
      </trkpt>
      <trkpt lat="22.907122" lon="109.109988">
        <ele>93.567542</ele>
        <time>2026-08-15T01:46:42.000Z</time>
      </trkpt>
      <trkpt lat="22.907151" lon="109.110037">
        <ele>93.525939</ele>
        <time>2026-08-15T01:46:43.000Z</time>
      </trkpt>
      <trkpt lat="22.907181" lon="109.110087">
        <ele>93.483315</ele>
        <time>2026-08-15T01:46:44.000Z</time>
      </trkpt>
      <trkpt lat="22.907211" lon="109.110138">
        <ele>93.440091</ele>
        <time>2026-08-15T01:46:45.000Z</time>
      </trkpt>
      <trkpt lat="22.907243" lon="109.110192">
        <ele>93.394226</ele>
        <time>2026-08-15T01:46:46.000Z</time>
      </trkpt>
      <trkpt lat="22.907278" lon="109.110247">
        <ele>93.346476</ele>
        <time>2026-08-15T01:46:47.000Z</time>
      </trkpt>
      <trkpt lat="22.907315" lon="109.110303">
        <ele>93.297248</ele>
        <time>2026-08-15T01:46:48.000Z</time>
      </trkpt>
      <trkpt lat="22.907350" lon="109.110361">
        <ele>93.247720</ele>
        <time>2026-08-15T01:46:49.000Z</time>
      </trkpt>
      <trkpt lat="22.907388" lon="109.110422">
        <ele>93.195119</ele>
        <time>2026-08-15T01:46:50.000Z</time>
      </trkpt>
      <trkpt lat="22.907426" lon="109.110484">
        <ele>93.141924</ele>
        <time>2026-08-15T01:46:51.000Z</time>
      </trkpt>
      <trkpt lat="22.907465" lon="109.110548">
        <ele>93.087111</ele>
        <time>2026-08-15T01:46:52.000Z</time>
      </trkpt>
      <trkpt lat="22.907505" lon="109.110609">
        <ele>93.033625</ele>
        <time>2026-08-15T01:46:53.000Z</time>
      </trkpt>
      <trkpt lat="22.907545" lon="109.110669">
        <ele>92.980720</ele>
        <time>2026-08-15T01:46:54.000Z</time>
      </trkpt>
      <trkpt lat="22.907583" lon="109.110727">
        <ele>92.929880</ele>
        <time>2026-08-15T01:46:55.000Z</time>
      </trkpt>
      <trkpt lat="22.907620" lon="109.110784">
        <ele>92.880070</ele>
        <time>2026-08-15T01:46:56.000Z</time>
      </trkpt>
      <trkpt lat="22.907655" lon="109.110840">
        <ele>92.831731</ele>
        <time>2026-08-15T01:46:57.000Z</time>
      </trkpt>
      <trkpt lat="22.907689" lon="109.110896">
        <ele>92.783822</ele>
        <time>2026-08-15T01:46:58.000Z</time>
      </trkpt>
      <trkpt lat="22.907721" lon="109.110952">
        <ele>92.749337</ele>
        <time>2026-08-15T01:46:59.000Z</time>
      </trkpt>
      <trkpt lat="22.907750" lon="109.111007">
        <ele>92.826698</ele>
        <time>2026-08-15T01:47:00.000Z</time>
      </trkpt>
      <trkpt lat="22.907779" lon="109.111061">
        <ele>92.903002</ele>
        <time>2026-08-15T01:47:01.000Z</time>
      </trkpt>
      <trkpt lat="22.907806" lon="109.111115">
        <ele>92.978006</ele>
        <time>2026-08-15T01:47:02.000Z</time>
      </trkpt>
      <trkpt lat="22.907833" lon="109.111167">
        <ele>93.050874</ele>
        <time>2026-08-15T01:47:03.000Z</time>
      </trkpt>
      <trkpt lat="22.907859" lon="109.111218">
        <ele>93.122029</ele>
        <time>2026-08-15T01:47:04.000Z</time>
      </trkpt>
      <trkpt lat="22.907884" lon="109.111270">
        <ele>93.193633</ele>
        <time>2026-08-15T01:47:05.000Z</time>
      </trkpt>
      <trkpt lat="22.907907" lon="109.111323">
        <ele>93.265151</ele>
        <time>2026-08-15T01:47:06.000Z</time>
      </trkpt>
      <trkpt lat="22.907930" lon="109.111376">
        <ele>93.336670</ele>
        <time>2026-08-15T01:47:07.000Z</time>
      </trkpt>
      <trkpt lat="22.907954" lon="109.111430">
        <ele>93.409860</ele>
        <time>2026-08-15T01:47:08.000Z</time>
      </trkpt>
      <trkpt lat="22.907976" lon="109.111482">
        <ele>93.479713</ele>
        <time>2026-08-15T01:47:09.000Z</time>
      </trkpt>
      <trkpt lat="22.907998" lon="109.111534">
        <ele>93.549566</ele>
        <time>2026-08-15T01:47:10.000Z</time>
      </trkpt>
      <trkpt lat="22.908018" lon="109.111586">
        <ele>93.618354</ele>
        <time>2026-08-15T01:47:11.000Z</time>
      </trkpt>
      <trkpt lat="22.908038" lon="109.111641">
        <ele>93.690536</ele>
        <time>2026-08-15T01:47:12.000Z</time>
      </trkpt>
      <trkpt lat="22.908064" lon="109.111694">
        <ele>93.763837</ele>
        <time>2026-08-15T01:47:13.000Z</time>
      </trkpt>
      <trkpt lat="22.908090" lon="109.111747">
        <ele>93.837138</ele>
        <time>2026-08-15T01:47:14.000Z</time>
      </trkpt>
      <trkpt lat="22.908112" lon="109.111795">
        <ele>93.902586</ele>
        <time>2026-08-15T01:47:15.000Z</time>
      </trkpt>
      <trkpt lat="22.908133" lon="109.111844">
        <ele>93.968558</ele>
        <time>2026-08-15T01:47:16.000Z</time>
      </trkpt>
      <trkpt lat="22.908151" lon="109.111893">
        <ele>94.032954</ele>
        <time>2026-08-15T01:47:17.000Z</time>
      </trkpt>
      <trkpt lat="22.908168" lon="109.111944">
        <ele>94.099162</ele>
        <time>2026-08-15T01:47:18.000Z</time>
      </trkpt>
      <trkpt lat="22.908179" lon="109.111993">
        <ele>94.160728</ele>
        <time>2026-08-15T01:47:19.000Z</time>
      </trkpt>
      <trkpt lat="22.908189" lon="109.112041">
        <ele>94.220802</ele>
        <time>2026-08-15T01:47:20.000Z</time>
      </trkpt>
      <trkpt lat="22.908203" lon="109.112090">
        <ele>94.283428</ele>
        <time>2026-08-15T01:47:21.000Z</time>
      </trkpt>
      <trkpt lat="22.908214" lon="109.112138">
        <ele>94.343809</ele>
        <time>2026-08-15T01:47:22.000Z</time>
      </trkpt>
      <trkpt lat="22.908225" lon="109.112185">
        <ele>94.403005</ele>
        <time>2026-08-15T01:47:23.000Z</time>
      </trkpt>
      <trkpt lat="22.908235" lon="109.112234">
        <ele>94.464271</ele>
        <time>2026-08-15T01:47:24.000Z</time>
      </trkpt>
      <trkpt lat="22.908239" lon="109.112281">
        <ele>94.521889</ele>
        <time>2026-08-15T01:47:25.000Z</time>
      </trkpt>
      <trkpt lat="22.908247" lon="109.112326">
        <ele>94.577835</ele>
        <time>2026-08-15T01:47:26.000Z</time>
      </trkpt>
      <trkpt lat="22.908255" lon="109.112371">
        <ele>94.633781</ele>
        <time>2026-08-15T01:47:27.000Z</time>
      </trkpt>
      <trkpt lat="22.908262" lon="109.112415">
        <ele>94.688287</ele>
        <time>2026-08-15T01:47:28.000Z</time>
      </trkpt>
      <trkpt lat="22.908269" lon="109.112457">
        <ele>94.740390</ele>
        <time>2026-08-15T01:47:29.000Z</time>
      </trkpt>
      <trkpt lat="22.908278" lon="109.112501">
        <ele>94.795410</ele>
        <time>2026-08-15T01:47:30.000Z</time>
      </trkpt>
      <trkpt lat="22.908285" lon="109.112543">
        <ele>94.847512</ele>
        <time>2026-08-15T01:47:31.000Z</time>
      </trkpt>
      <trkpt lat="22.908291" lon="109.112586">
        <ele>94.900602</ele>
        <time>2026-08-15T01:47:32.000Z</time>
      </trkpt>
      <trkpt lat="22.908296" lon="109.112631">
        <ele>94.955932</ele>
        <time>2026-08-15T01:47:33.000Z</time>
      </trkpt>
      <trkpt lat="22.908302" lon="109.112673">
        <ele>95.007815</ele>
        <time>2026-08-15T01:47:34.000Z</time>
      </trkpt>
      <trkpt lat="22.908306" lon="109.112717">
        <ele>95.061788</ele>
        <time>2026-08-15T01:47:35.000Z</time>
      </trkpt>
      <trkpt lat="22.908310" lon="109.112760">
        <ele>95.114545</ele>
        <time>2026-08-15T01:47:36.000Z</time>
      </trkpt>
      <trkpt lat="22.908315" lon="109.112805">
        <ele>95.142462</ele>
        <time>2026-08-15T01:47:37.000Z</time>
      </trkpt>
      <trkpt lat="22.908316" lon="109.112849">
        <ele>95.163350</ele>
        <time>2026-08-15T01:47:38.000Z</time>
      </trkpt>
      <trkpt lat="22.908316" lon="109.112891">
        <ele>95.183283</ele>
        <time>2026-08-15T01:47:39.000Z</time>
      </trkpt>
      <trkpt lat="22.908318" lon="109.112937">
        <ele>95.205138</ele>
        <time>2026-08-15T01:47:40.000Z</time>
      </trkpt>
      <trkpt lat="22.908322" lon="109.112982">
        <ele>95.226593</ele>
        <time>2026-08-15T01:47:41.000Z</time>
      </trkpt>
      <trkpt lat="22.908325" lon="109.113028">
        <ele>95.248478</ele>
        <time>2026-08-15T01:47:42.000Z</time>
      </trkpt>
      <trkpt lat="22.908329" lon="109.113076">
        <ele>95.271351</ele>
        <time>2026-08-15T01:47:43.000Z</time>
      </trkpt>
      <trkpt lat="22.908337" lon="109.113124">
        <ele>95.294501</ele>
        <time>2026-08-15T01:47:44.000Z</time>
      </trkpt>
      <trkpt lat="22.908345" lon="109.113174">
        <ele>95.318586</ele>
        <time>2026-08-15T01:47:45.000Z</time>
      </trkpt>
      <trkpt lat="22.908353" lon="109.113227">
        <ele>95.344074</ele>
        <time>2026-08-15T01:47:46.000Z</time>
      </trkpt>
      <trkpt lat="22.908357" lon="109.113281">
        <ele>95.369784</ele>
        <time>2026-08-15T01:47:47.000Z</time>
      </trkpt>
      <trkpt lat="22.908363" lon="109.113336">
        <ele>95.396069</ele>
        <time>2026-08-15T01:47:48.000Z</time>
      </trkpt>
      <trkpt lat="22.908369" lon="109.113389">
        <ele>95.421411</ele>
        <time>2026-08-15T01:47:49.000Z</time>
      </trkpt>
      <trkpt lat="22.908376" lon="109.113444">
        <ele>95.447761</ele>
        <time>2026-08-15T01:47:50.000Z</time>
      </trkpt>
      <trkpt lat="22.908384" lon="109.113500">
        <ele>95.474655</ele>
        <time>2026-08-15T01:47:51.000Z</time>
      </trkpt>
      <trkpt lat="22.908391" lon="109.113554">
        <ele>95.500535</ele>
        <time>2026-08-15T01:47:52.000Z</time>
      </trkpt>
      <trkpt lat="22.908396" lon="109.113608">
        <ele>95.526291</ele>
        <time>2026-08-15T01:47:53.000Z</time>
      </trkpt>
      <trkpt lat="22.908402" lon="109.113660">
        <ele>95.551163</ele>
        <time>2026-08-15T01:47:54.000Z</time>
      </trkpt>
      <trkpt lat="22.908408" lon="109.113713">
        <ele>95.576505</ele>
        <time>2026-08-15T01:47:55.000Z</time>
      </trkpt>
      <trkpt lat="22.908413" lon="109.113766">
        <ele>95.601789</ele>
        <time>2026-08-15T01:47:56.000Z</time>
      </trkpt>
      <trkpt lat="22.908415" lon="109.113819">
        <ele>95.626963</ele>
        <time>2026-08-15T01:47:57.000Z</time>
      </trkpt>
      <trkpt lat="22.908420" lon="109.113873">
        <ele>95.652719</ele>
        <time>2026-08-15T01:47:58.000Z</time>
      </trkpt>
      <trkpt lat="22.908425" lon="109.113925">
        <ele>95.677532</ele>
        <time>2026-08-15T01:47:59.000Z</time>
      </trkpt>
      <trkpt lat="22.908431" lon="109.113977">
        <ele>95.702403</ele>
        <time>2026-08-15T01:48:00.000Z</time>
      </trkpt>
      <trkpt lat="22.908437" lon="109.114029">
        <ele>95.727274</ele>
        <time>2026-08-15T01:48:01.000Z</time>
      </trkpt>
      <trkpt lat="22.908443" lon="109.114079">
        <ele>95.751204</ele>
        <time>2026-08-15T01:48:02.000Z</time>
      </trkpt>
      <trkpt lat="22.908449" lon="109.114126">
        <ele>95.773722</ele>
        <time>2026-08-15T01:48:03.000Z</time>
      </trkpt>
      <trkpt lat="22.908455" lon="109.114174">
        <ele>95.796711</ele>
        <time>2026-08-15T01:48:04.000Z</time>
      </trkpt>
      <trkpt lat="22.908461" lon="109.114223">
        <ele>95.820170</ele>
        <time>2026-08-15T01:48:05.000Z</time>
      </trkpt>
      <trkpt lat="22.908469" lon="109.114270">
        <ele>95.842853</ele>
        <time>2026-08-15T01:48:06.000Z</time>
      </trkpt>
      <trkpt lat="22.908475" lon="109.114320">
        <ele>95.866782</ele>
        <time>2026-08-15T01:48:07.000Z</time>
      </trkpt>
      <trkpt lat="22.908482" lon="109.114370">
        <ele>95.890784</ele>
        <time>2026-08-15T01:48:08.000Z</time>
      </trkpt>
      <trkpt lat="22.908489" lon="109.114422">
        <ele>95.915724</ele>
        <time>2026-08-15T01:48:09.000Z</time>
      </trkpt>
      <trkpt lat="22.908496" lon="109.114474">
        <ele>95.940665</ele>
        <time>2026-08-15T01:48:10.000Z</time>
      </trkpt>
      <trkpt lat="22.908501" lon="109.114527">
        <ele>95.965949</ele>
        <time>2026-08-15T01:48:11.000Z</time>
      </trkpt>
      <trkpt lat="22.908505" lon="109.114580">
        <ele>95.991186</ele>
        <time>2026-08-15T01:48:12.000Z</time>
      </trkpt>
      <trkpt lat="22.908509" lon="109.114636">
        <ele>96.017843</ele>
        <time>2026-08-15T01:48:13.000Z</time>
      </trkpt>
      <trkpt lat="22.908516" lon="109.114693">
        <ele>96.045133</ele>
        <time>2026-08-15T01:48:14.000Z</time>
      </trkpt>
      <trkpt lat="22.908525" lon="109.114751">
        <ele>96.042649</ele>
        <time>2026-08-15T01:48:15.000Z</time>
      </trkpt>
      <trkpt lat="22.908532" lon="109.114811">
        <ele>96.030444</ele>
        <time>2026-08-15T01:48:16.000Z</time>
      </trkpt>
      <trkpt lat="22.908539" lon="109.114870">
        <ele>96.018440</ele>
        <time>2026-08-15T01:48:17.000Z</time>
      </trkpt>
      <trkpt lat="22.908545" lon="109.114930">
        <ele>96.006260</ele>
        <time>2026-08-15T01:48:18.000Z</time>
      </trkpt>
      <trkpt lat="22.908553" lon="109.114991">
        <ele>95.993826</ele>
        <time>2026-08-15T01:48:19.000Z</time>
      </trkpt>
      <trkpt lat="22.908563" lon="109.115055">
        <ele>95.980726</ele>
        <time>2026-08-15T01:48:20.000Z</time>
      </trkpt>
      <trkpt lat="22.908571" lon="109.115122">
        <ele>95.967092</ele>
        <time>2026-08-15T01:48:21.000Z</time>
      </trkpt>
      <trkpt lat="22.908579" lon="109.115191">
        <ele>95.953057</ele>
        <time>2026-08-15T01:48:22.000Z</time>
      </trkpt>
      <trkpt lat="22.908588" lon="109.115260">
        <ele>95.938994</ele>
        <time>2026-08-15T01:48:23.000Z</time>
      </trkpt>
      <trkpt lat="22.908597" lon="109.115328">
        <ele>95.925130</ele>
        <time>2026-08-15T01:48:24.000Z</time>
      </trkpt>
      <trkpt lat="22.908605" lon="109.115396">
        <ele>95.911296</ele>
        <time>2026-08-15T01:48:25.000Z</time>
      </trkpt>
      <trkpt lat="22.908613" lon="109.115464">
        <ele>95.897462</ele>
        <time>2026-08-15T01:48:26.000Z</time>
      </trkpt>
      <trkpt lat="22.908619" lon="109.115534">
        <ele>95.883275</ele>
        <time>2026-08-15T01:48:27.000Z</time>
      </trkpt>
      <trkpt lat="22.908628" lon="109.115602">
        <ele>95.869411</ele>
        <time>2026-08-15T01:48:28.000Z</time>
      </trkpt>
      <trkpt lat="22.908636" lon="109.115668">
        <ele>95.855977</ele>
        <time>2026-08-15T01:48:29.000Z</time>
      </trkpt>
      <trkpt lat="22.908644" lon="109.115733">
        <ele>95.842743</ele>
        <time>2026-08-15T01:48:30.000Z</time>
      </trkpt>
      <trkpt lat="22.908651" lon="109.115796">
        <ele>95.829937</ele>
        <time>2026-08-15T01:48:31.000Z</time>
      </trkpt>
      <trkpt lat="22.908659" lon="109.115857">
        <ele>95.817503</ele>
        <time>2026-08-15T01:48:32.000Z</time>
      </trkpt>
      <trkpt lat="22.908667" lon="109.115918">
        <ele>95.805069</ele>
        <time>2026-08-15T01:48:33.000Z</time>
      </trkpt>
      <trkpt lat="22.908673" lon="109.115980">
        <ele>95.792488</ele>
        <time>2026-08-15T01:48:34.000Z</time>
      </trkpt>
      <trkpt lat="22.908680" lon="109.116043">
        <ele>95.779682</ele>
        <time>2026-08-15T01:48:35.000Z</time>
      </trkpt>
      <trkpt lat="22.908686" lon="109.116104">
        <ele>95.767302</ele>
        <time>2026-08-15T01:48:36.000Z</time>
      </trkpt>
      <trkpt lat="22.908693" lon="109.116167">
        <ele>95.754496</ele>
        <time>2026-08-15T01:48:37.000Z</time>
      </trkpt>
      <trkpt lat="22.908699" lon="109.116230">
        <ele>95.741715</ele>
        <time>2026-08-15T01:48:38.000Z</time>
      </trkpt>
      <trkpt lat="22.908706" lon="109.116293">
        <ele>95.728909</ele>
        <time>2026-08-15T01:48:39.000Z</time>
      </trkpt>
      <trkpt lat="22.908713" lon="109.116358">
        <ele>95.715703</ele>
        <time>2026-08-15T01:48:40.000Z</time>
      </trkpt>
      <trkpt lat="22.908720" lon="109.116421">
        <ele>95.702897</ele>
        <time>2026-08-15T01:48:41.000Z</time>
      </trkpt>
      <trkpt lat="22.908729" lon="109.116484">
        <ele>95.690031</ele>
        <time>2026-08-15T01:48:42.000Z</time>
      </trkpt>
      <trkpt lat="22.908741" lon="109.116546">
        <ele>95.677246</ele>
        <time>2026-08-15T01:48:43.000Z</time>
      </trkpt>
      <trkpt lat="22.908759" lon="109.116608">
        <ele>95.664127</ele>
        <time>2026-08-15T01:48:44.000Z</time>
      </trkpt>
      <trkpt lat="22.908769" lon="109.116668">
        <ele>95.690349</ele>
        <time>2026-08-15T01:48:45.000Z</time>
      </trkpt>
      <trkpt lat="22.908776" lon="109.116725">
        <ele>95.755282</ele>
        <time>2026-08-15T01:48:46.000Z</time>
      </trkpt>
      <trkpt lat="22.908786" lon="109.116783">
        <ele>95.821912</ele>
        <time>2026-08-15T01:48:47.000Z</time>
      </trkpt>
      <trkpt lat="22.908795" lon="109.116842">
        <ele>95.889441</ele>
        <time>2026-08-15T01:48:48.000Z</time>
      </trkpt>
      <trkpt lat="22.908807" lon="109.116900">
        <ele>95.956565</ele>
        <time>2026-08-15T01:48:49.000Z</time>
      </trkpt>
      <trkpt lat="22.908820" lon="109.116955">
        <ele>96.020682</ele>
        <time>2026-08-15T01:48:50.000Z</time>
      </trkpt>
      <trkpt lat="22.908829" lon="109.117017">
        <ele>96.091555</ele>
        <time>2026-08-15T01:48:51.000Z</time>
      </trkpt>
      <trkpt lat="22.908832" lon="109.117074">
        <ele>96.156023</ele>
        <time>2026-08-15T01:48:52.000Z</time>
      </trkpt>
      <trkpt lat="22.908833" lon="109.117130">
        <ele>96.219269</ele>
        <time>2026-08-15T01:48:53.000Z</time>
      </trkpt>
      <trkpt lat="22.908835" lon="109.117183">
        <ele>96.279166</ele>
        <time>2026-08-15T01:48:54.000Z</time>
      </trkpt>
      <trkpt lat="22.908839" lon="109.117234">
        <ele>96.336963</ele>
        <time>2026-08-15T01:48:55.000Z</time>
      </trkpt>
      <trkpt lat="22.908838" lon="109.117287">
        <ele>96.396822</ele>
        <time>2026-08-15T01:48:56.000Z</time>
      </trkpt>
      <trkpt lat="22.908840" lon="109.117339">
        <ele>96.455590</ele>
        <time>2026-08-15T01:48:57.000Z</time>
      </trkpt>
      <trkpt lat="22.908840" lon="109.117392">
        <ele>96.515437</ele>
        <time>2026-08-15T01:48:58.000Z</time>
      </trkpt>
      <trkpt lat="22.908840" lon="109.117445">
        <ele>96.575283</ele>
        <time>2026-08-15T01:48:59.000Z</time>
      </trkpt>
      <trkpt lat="22.908841" lon="109.117497">
        <ele>96.634013</ele>
        <time>2026-08-15T01:49:00.000Z</time>
      </trkpt>
      <trkpt lat="22.908842" lon="109.117549">
        <ele>96.692743</ele>
        <time>2026-08-15T01:49:01.000Z</time>
      </trkpt>
      <trkpt lat="22.908846" lon="109.117603">
        <ele>96.753916</ele>
        <time>2026-08-15T01:49:02.000Z</time>
      </trkpt>
      <trkpt lat="22.908850" lon="109.117656">
        <ele>96.813963</ele>
        <time>2026-08-15T01:49:03.000Z</time>
      </trkpt>
      <trkpt lat="22.908853" lon="109.117707">
        <ele>96.871668</ele>
        <time>2026-08-15T01:49:04.000Z</time>
      </trkpt>
      <trkpt lat="22.908857" lon="109.117758">
        <ele>96.929465</ele>
        <time>2026-08-15T01:49:05.000Z</time>
      </trkpt>
      <trkpt lat="22.908860" lon="109.117808">
        <ele>96.986044</ele>
        <time>2026-08-15T01:49:06.000Z</time>
      </trkpt>
      <trkpt lat="22.908859" lon="109.117858">
        <ele>97.042516</ele>
        <time>2026-08-15T01:49:07.000Z</time>
      </trkpt>
      <trkpt lat="22.908861" lon="109.117907">
        <ele>97.097900</ele>
        <time>2026-08-15T01:49:08.000Z</time>
      </trkpt>
      <trkpt lat="22.908864" lon="109.117952">
        <ele>97.148846</ele>
        <time>2026-08-15T01:49:09.000Z</time>
      </trkpt>
      <trkpt lat="22.908868" lon="109.117997">
        <ele>97.199895</ele>
        <time>2026-08-15T01:49:10.000Z</time>
      </trkpt>
      <trkpt lat="22.908871" lon="109.118041">
        <ele>97.249715</ele>
        <time>2026-08-15T01:49:11.000Z</time>
      </trkpt>
      <trkpt lat="22.908875" lon="109.118087">
        <ele>97.301888</ele>
        <time>2026-08-15T01:49:12.000Z</time>
      </trkpt>
      <trkpt lat="22.908879" lon="109.118132">
        <ele>97.352937</ele>
        <time>2026-08-15T01:49:13.000Z</time>
      </trkpt>
      <trkpt lat="22.908886" lon="109.118177">
        <ele>97.404470</ele>
        <time>2026-08-15T01:49:14.000Z</time>
      </trkpt>
      <trkpt lat="22.908889" lon="109.118222">
        <ele>97.455416</ele>
        <time>2026-08-15T01:49:15.000Z</time>
      </trkpt>
      <trkpt lat="22.908891" lon="109.118268">
        <ele>97.507416</ele>
        <time>2026-08-15T01:49:16.000Z</time>
      </trkpt>
      <trkpt lat="22.908894" lon="109.118311">
        <ele>97.556110</ele>
        <time>2026-08-15T01:49:17.000Z</time>
      </trkpt>
      <trkpt lat="22.908897" lon="109.118353">
        <ele>97.603677</ele>
        <time>2026-08-15T01:49:18.000Z</time>
      </trkpt>
      <trkpt lat="22.908900" lon="109.118397">
        <ele>97.653497</ele>
        <time>2026-08-15T01:49:19.000Z</time>
      </trkpt>
      <trkpt lat="22.908906" lon="109.118443">
        <ele>97.705958</ele>
        <time>2026-08-15T01:49:20.000Z</time>
      </trkpt>
      <trkpt lat="22.908912" lon="109.118491">
        <ele>97.760655</ele>
        <time>2026-08-15T01:49:21.000Z</time>
      </trkpt>
      <trkpt lat="22.908915" lon="109.118540">
        <ele>97.816107</ele>
        <time>2026-08-15T01:49:22.000Z</time>
      </trkpt>
      <trkpt lat="22.908918" lon="109.118590">
        <ele>97.862612</ele>
        <time>2026-08-15T01:49:23.000Z</time>
      </trkpt>
      <trkpt lat="22.908928" lon="109.118639">
        <ele>97.862869</ele>
        <time>2026-08-15T01:49:24.000Z</time>
      </trkpt>
      <trkpt lat="22.908937" lon="109.118691">
        <ele>97.863141</ele>
        <time>2026-08-15T01:49:25.000Z</time>
      </trkpt>
      <trkpt lat="22.908944" lon="109.118746">
        <ele>97.863426</ele>
        <time>2026-08-15T01:49:26.000Z</time>
      </trkpt>
      <trkpt lat="22.908949" lon="109.118802">
        <ele>97.863714</ele>
        <time>2026-08-15T01:49:27.000Z</time>
      </trkpt>
      <trkpt lat="22.908957" lon="109.118859">
        <ele>97.864010</ele>
        <time>2026-08-15T01:49:28.000Z</time>
      </trkpt>
      <trkpt lat="22.908970" lon="109.118916">
        <ele>97.864312</ele>
        <time>2026-08-15T01:49:29.000Z</time>
      </trkpt>
      <trkpt lat="22.908989" lon="109.118981">
        <ele>97.864661</ele>
        <time>2026-08-15T01:49:30.000Z</time>
      </trkpt>
      <trkpt lat="22.908996" lon="109.119045">
        <ele>97.864992</ele>
        <time>2026-08-15T01:49:31.000Z</time>
      </trkpt>
      <trkpt lat="22.909001" lon="109.119108">
        <ele>97.865317</ele>
        <time>2026-08-15T01:49:32.000Z</time>
      </trkpt>
      <trkpt lat="22.909008" lon="109.119168">
        <ele>97.865627</ele>
        <time>2026-08-15T01:49:33.000Z</time>
      </trkpt>
      <trkpt lat="22.909013" lon="109.119228">
        <ele>97.865936</ele>
        <time>2026-08-15T01:49:34.000Z</time>
      </trkpt>
      <trkpt lat="22.909018" lon="109.119289">
        <ele>97.866250</ele>
        <time>2026-08-15T01:49:35.000Z</time>
      </trkpt>
      <trkpt lat="22.909022" lon="109.119352">
        <ele>97.866574</ele>
        <time>2026-08-15T01:49:36.000Z</time>
      </trkpt>
      <trkpt lat="22.909024" lon="109.119418">
        <ele>97.866913</ele>
        <time>2026-08-15T01:49:37.000Z</time>
      </trkpt>
      <trkpt lat="22.909027" lon="109.119483">
        <ele>97.867247</ele>
        <time>2026-08-15T01:49:38.000Z</time>
      </trkpt>
      <trkpt lat="22.909029" lon="109.119550">
        <ele>97.867591</ele>
        <time>2026-08-15T01:49:39.000Z</time>
      </trkpt>
      <trkpt lat="22.909033" lon="109.119615">
        <ele>97.867925</ele>
        <time>2026-08-15T01:49:40.000Z</time>
      </trkpt>
      <trkpt lat="22.909037" lon="109.119681">
        <ele>97.868265</ele>
        <time>2026-08-15T01:49:41.000Z</time>
      </trkpt>
      <trkpt lat="22.909043" lon="109.119744">
        <ele>97.868590</ele>
        <time>2026-08-15T01:49:42.000Z</time>
      </trkpt>
      <trkpt lat="22.909049" lon="109.119805">
        <ele>97.868904</ele>
        <time>2026-08-15T01:49:43.000Z</time>
      </trkpt>
      <trkpt lat="22.909058" lon="109.119867">
        <ele>97.869226</ele>
        <time>2026-08-15T01:49:44.000Z</time>
      </trkpt>
      <trkpt lat="22.909064" lon="109.119930">
        <ele>97.869551</ele>
        <time>2026-08-15T01:49:45.000Z</time>
      </trkpt>
      <trkpt lat="22.909067" lon="109.119994">
        <ele>97.869880</ele>
        <time>2026-08-15T01:49:46.000Z</time>
      </trkpt>
      <trkpt lat="22.909071" lon="109.120056">
        <ele>97.870199</ele>
        <time>2026-08-15T01:49:47.000Z</time>
      </trkpt>
      <trkpt lat="22.909074" lon="109.120119">
        <ele>97.870523</ele>
        <time>2026-08-15T01:49:48.000Z</time>
      </trkpt>
      <trkpt lat="22.909078" lon="109.120179">
        <ele>97.870831</ele>
        <time>2026-08-15T01:49:49.000Z</time>
      </trkpt>
      <trkpt lat="22.909083" lon="109.120238">
        <ele>97.871135</ele>
        <time>2026-08-15T01:49:50.000Z</time>
      </trkpt>
      <trkpt lat="22.909087" lon="109.120299">
        <ele>97.871449</ele>
        <time>2026-08-15T01:49:51.000Z</time>
      </trkpt>
      <trkpt lat="22.909094" lon="109.120355">
        <ele>97.871739</ele>
        <time>2026-08-15T01:49:52.000Z</time>
      </trkpt>
      <trkpt lat="22.909100" lon="109.120409">
        <ele>97.872018</ele>
        <time>2026-08-15T01:49:53.000Z</time>
      </trkpt>
      <trkpt lat="22.909108" lon="109.120462">
        <ele>97.872294</ele>
        <time>2026-08-15T01:49:54.000Z</time>
      </trkpt>
      <trkpt lat="22.909116" lon="109.120514">
        <ele>97.872564</ele>
        <time>2026-08-15T01:49:55.000Z</time>
      </trkpt>
      <trkpt lat="22.909129" lon="109.120567">
        <ele>97.910089</ele>
        <time>2026-08-15T01:49:56.000Z</time>
      </trkpt>
      <trkpt lat="22.909136" lon="109.120619">
        <ele>97.948859</ele>
        <time>2026-08-15T01:49:57.000Z</time>
      </trkpt>
      <trkpt lat="22.909145" lon="109.120666">
        <ele>97.984274</ele>
        <time>2026-08-15T01:49:58.000Z</time>
      </trkpt>
      <trkpt lat="22.909154" lon="109.120712">
        <ele>98.018967</ele>
        <time>2026-08-15T01:49:59.000Z</time>
      </trkpt>
      <trkpt lat="22.909163" lon="109.120759">
        <ele>98.054382</ele>
        <time>2026-08-15T01:50:00.000Z</time>
      </trkpt>
      <trkpt lat="22.909171" lon="109.120805">
        <ele>98.088917</ele>
        <time>2026-08-15T01:50:01.000Z</time>
      </trkpt>
      <trkpt lat="22.909178" lon="109.120851">
        <ele>98.123313</ele>
        <time>2026-08-15T01:50:02.000Z</time>
      </trkpt>
      <trkpt lat="22.909183" lon="109.120898">
        <ele>98.158217</ele>
        <time>2026-08-15T01:50:03.000Z</time>
      </trkpt>
      <trkpt lat="22.909191" lon="109.120946">
        <ele>98.194203</ele>
        <time>2026-08-15T01:50:04.000Z</time>
      </trkpt>
      <trkpt lat="22.909204" lon="109.120992">
        <ele>98.229700</ele>
        <time>2026-08-15T01:50:05.000Z</time>
      </trkpt>
      <trkpt lat="22.909212" lon="109.121041">
        <ele>98.266413</ele>
        <time>2026-08-15T01:50:06.000Z</time>
      </trkpt>
      <trkpt lat="22.909221" lon="109.121089">
        <ele>98.302550</ele>
        <time>2026-08-15T01:50:07.000Z</time>
      </trkpt>
      <trkpt lat="22.909233" lon="109.121139">
        <ele>98.340669</ele>
        <time>2026-08-15T01:50:08.000Z</time>
      </trkpt>
      <trkpt lat="22.909240" lon="109.121190">
        <ele>98.378709</ele>
        <time>2026-08-15T01:50:09.000Z</time>
      </trkpt>
      <trkpt lat="22.909248" lon="109.121240">
        <ele>98.416148</ele>
        <time>2026-08-15T01:50:10.000Z</time>
      </trkpt>
      <trkpt lat="22.909257" lon="109.121292">
        <ele>98.455181</ele>
        <time>2026-08-15T01:50:11.000Z</time>
      </trkpt>
      <trkpt lat="22.909268" lon="109.121343">
        <ele>98.493823</ele>
        <time>2026-08-15T01:50:12.000Z</time>
      </trkpt>
      <trkpt lat="22.909278" lon="109.121397">
        <ele>98.534458</ele>
        <time>2026-08-15T01:50:13.000Z</time>
      </trkpt>
      <trkpt lat="22.909288" lon="109.121451">
        <ele>98.575093</ele>
        <time>2026-08-15T01:50:14.000Z</time>
      </trkpt>
      <trkpt lat="22.909299" lon="109.121503">
        <ele>98.614454</ele>
        <time>2026-08-15T01:50:15.000Z</time>
      </trkpt>
      <trkpt lat="22.909309" lon="109.121555">
        <ele>98.653643</ele>
        <time>2026-08-15T01:50:16.000Z</time>
      </trkpt>
      <trkpt lat="22.909321" lon="109.121608">
        <ele>98.693907</ele>
        <time>2026-08-15T01:50:17.000Z</time>
      </trkpt>
      <trkpt lat="22.909332" lon="109.121660">
        <ele>98.733268</ele>
        <time>2026-08-15T01:50:18.000Z</time>
      </trkpt>
      <trkpt lat="22.909344" lon="109.121713">
        <ele>98.773532</ele>
        <time>2026-08-15T01:50:19.000Z</time>
      </trkpt>
      <trkpt lat="22.909355" lon="109.121769">
        <ele>98.815774</ele>
        <time>2026-08-15T01:50:20.000Z</time>
      </trkpt>
      <trkpt lat="22.909366" lon="109.121823">
        <ele>98.856574</ele>
        <time>2026-08-15T01:50:21.000Z</time>
      </trkpt>
      <trkpt lat="22.909376" lon="109.121878">
        <ele>98.897932</ele>
        <time>2026-08-15T01:50:22.000Z</time>
      </trkpt>
      <trkpt lat="22.909387" lon="109.121931">
        <ele>98.938013</ele>
        <time>2026-08-15T01:50:23.000Z</time>
      </trkpt>
      <trkpt lat="22.909397" lon="109.121984">
        <ele>98.977924</ele>
        <time>2026-08-15T01:50:24.000Z</time>
      </trkpt>
      <trkpt lat="22.909411" lon="109.122040">
        <ele>99.020732</ele>
        <time>2026-08-15T01:50:25.000Z</time>
      </trkpt>
      <trkpt lat="22.909422" lon="109.122094">
        <ele>99.061532</ele>
        <time>2026-08-15T01:50:26.000Z</time>
      </trkpt>
      <trkpt lat="22.909433" lon="109.122149">
        <ele>99.103053</ele>
        <time>2026-08-15T01:50:27.000Z</time>
      </trkpt>
      <trkpt lat="22.909445" lon="109.122204">
        <ele>99.144751</ele>
        <time>2026-08-15T01:50:28.000Z</time>
      </trkpt>
      <trkpt lat="22.909455" lon="109.122257">
        <ele>99.184663</ele>
        <time>2026-08-15T01:50:29.000Z</time>
      </trkpt>
      <trkpt lat="22.909466" lon="109.122311">
        <ele>99.225463</ele>
        <time>2026-08-15T01:50:30.000Z</time>
      </trkpt>
      <trkpt lat="22.909478" lon="109.122367">
        <ele>99.267879</ele>
        <time>2026-08-15T01:50:31.000Z</time>
      </trkpt>
      <trkpt lat="22.909491" lon="109.122422">
        <ele>99.309769</ele>
        <time>2026-08-15T01:50:32.000Z</time>
      </trkpt>
      <trkpt lat="22.909501" lon="109.122476">
        <ele>99.296166</ele>
        <time>2026-08-15T01:50:33.000Z</time>
      </trkpt>
      <trkpt lat="22.909512" lon="109.122530">
        <ele>99.277591</ele>
        <time>2026-08-15T01:50:34.000Z</time>
      </trkpt>
      <trkpt lat="22.909523" lon="109.122586">
        <ele>99.258360</ele>
        <time>2026-08-15T01:50:35.000Z</time>
      </trkpt>
      <trkpt lat="22.909534" lon="109.122642">
        <ele>99.239128</ele>
        <time>2026-08-15T01:50:36.000Z</time>
      </trkpt>
      <trkpt lat="22.909544" lon="109.122696">
        <ele>99.220628</ele>
        <time>2026-08-15T01:50:37.000Z</time>
      </trkpt>
      <trkpt lat="22.909556" lon="109.122748">
        <ele>99.202623</ele>
        <time>2026-08-15T01:50:38.000Z</time>
      </trkpt>
      <trkpt lat="22.909567" lon="109.122798">
        <ele>99.185358</ele>
        <time>2026-08-15T01:50:39.000Z</time>
      </trkpt>
      <trkpt lat="22.909574" lon="109.122848">
        <ele>99.168371</ele>
        <time>2026-08-15T01:50:40.000Z</time>
      </trkpt>
      <trkpt lat="22.909584" lon="109.122900">
        <ele>99.150530</ele>
        <time>2026-08-15T01:50:41.000Z</time>
      </trkpt>
      <trkpt lat="22.909595" lon="109.122952">
        <ele>99.132610</ele>
        <time>2026-08-15T01:50:42.000Z</time>
      </trkpt>
      <trkpt lat="22.909605" lon="109.123003">
        <ele>99.115097</ele>
        <time>2026-08-15T01:50:43.000Z</time>
      </trkpt>
      <trkpt lat="22.909616" lon="109.123055">
        <ele>99.097177</ele>
        <time>2026-08-15T01:50:44.000Z</time>
      </trkpt>
      <trkpt lat="22.909627" lon="109.123106">
        <ele>99.079584</ele>
        <time>2026-08-15T01:50:45.000Z</time>
      </trkpt>
      <trkpt lat="22.909637" lon="109.123159">
        <ele>99.061414</ele>
        <time>2026-08-15T01:50:46.000Z</time>
      </trkpt>
      <trkpt lat="22.909649" lon="109.123213">
        <ele>99.042757</ele>
        <time>2026-08-15T01:50:47.000Z</time>
      </trkpt>
      <trkpt lat="22.909661" lon="109.123270">
        <ele>99.023118</ele>
        <time>2026-08-15T01:50:48.000Z</time>
      </trkpt>
      <trkpt lat="22.909675" lon="109.123329">
        <ele>99.002655</ele>
        <time>2026-08-15T01:50:49.000Z</time>
      </trkpt>
      <trkpt lat="22.909688" lon="109.123389">
        <ele>98.981953</ele>
        <time>2026-08-15T01:50:50.000Z</time>
      </trkpt>
      <trkpt lat="22.909701" lon="109.123450">
        <ele>98.960924</ele>
        <time>2026-08-15T01:50:51.000Z</time>
      </trkpt>
      <trkpt lat="22.909712" lon="109.123512">
        <ele>98.939718</ele>
        <time>2026-08-15T01:50:52.000Z</time>
      </trkpt>
      <trkpt lat="22.909723" lon="109.123578">
        <ele>98.917190</ele>
        <time>2026-08-15T01:50:53.000Z</time>
      </trkpt>
      <trkpt lat="22.909733" lon="109.123646">
        <ele>98.894062</ele>
        <time>2026-08-15T01:50:54.000Z</time>
      </trkpt>
      <trkpt lat="22.909741" lon="109.123716">
        <ele>98.870371</ele>
        <time>2026-08-15T01:50:55.000Z</time>
      </trkpt>
      <trkpt lat="22.909751" lon="109.123788">
        <ele>98.845915</ele>
        <time>2026-08-15T01:50:56.000Z</time>
      </trkpt>
      <trkpt lat="22.909761" lon="109.123852">
        <ele>98.824113</ele>
        <time>2026-08-15T01:50:57.000Z</time>
      </trkpt>
      <trkpt lat="22.909773" lon="109.123917">
        <ele>98.801847</ele>
        <time>2026-08-15T01:50:58.000Z</time>
      </trkpt>
      <trkpt lat="22.909780" lon="109.123991">
        <ele>98.776862</ele>
        <time>2026-08-15T01:50:59.000Z</time>
      </trkpt>
      <trkpt lat="22.909781" lon="109.124064">
        <ele>98.752341</ele>
        <time>2026-08-15T01:51:00.000Z</time>
      </trkpt>
      <trkpt lat="22.909782" lon="109.124135">
        <ele>98.728492</ele>
        <time>2026-08-15T01:51:01.000Z</time>
      </trkpt>
      <trkpt lat="22.909781" lon="109.124204">
        <ele>98.705314</ele>
        <time>2026-08-15T01:51:02.000Z</time>
      </trkpt>
      <trkpt lat="22.909777" lon="109.124274">
        <ele>98.681758</ele>
        <time>2026-08-15T01:51:03.000Z</time>
      </trkpt>
      <trkpt lat="22.909772" lon="109.124345">
        <ele>98.657842</ele>
        <time>2026-08-15T01:51:04.000Z</time>
      </trkpt>
      <trkpt lat="22.909775" lon="109.124418">
        <ele>98.667642</ele>
        <time>2026-08-15T01:51:05.000Z</time>
      </trkpt>
      <trkpt lat="22.909774" lon="109.124492">
        <ele>98.678361</ele>
        <time>2026-08-15T01:51:06.000Z</time>
      </trkpt>
      <trkpt lat="22.909772" lon="109.124562">
        <ele>98.688505</ele>
        <time>2026-08-15T01:51:07.000Z</time>
      </trkpt>
      <trkpt lat="22.909773" lon="109.124634">
        <ele>98.698934</ele>
        <time>2026-08-15T01:51:08.000Z</time>
      </trkpt>
      <trkpt lat="22.909774" lon="109.124700">
        <ele>98.708495</ele>
        <time>2026-08-15T01:51:09.000Z</time>
      </trkpt>
      <trkpt lat="22.909771" lon="109.124765">
        <ele>98.717921</ele>
        <time>2026-08-15T01:51:10.000Z</time>
      </trkpt>
      <trkpt lat="22.909769" lon="109.124830">
        <ele>98.727340</ele>
        <time>2026-08-15T01:51:11.000Z</time>
      </trkpt>
      <trkpt lat="22.909767" lon="109.124895">
        <ele>98.736760</ele>
        <time>2026-08-15T01:51:12.000Z</time>
      </trkpt>
      <trkpt lat="22.909767" lon="109.124959">
        <ele>98.746029</ele>
        <time>2026-08-15T01:51:13.000Z</time>
      </trkpt>
      <trkpt lat="22.909769" lon="109.125021">
        <ele>98.755015</ele>
        <time>2026-08-15T01:51:14.000Z</time>
      </trkpt>
      <trkpt lat="22.909770" lon="109.125087">
        <ele>98.764575</ele>
        <time>2026-08-15T01:51:15.000Z</time>
      </trkpt>
      <trkpt lat="22.909768" lon="109.125153">
        <ele>98.774140</ele>
        <time>2026-08-15T01:51:16.000Z</time>
      </trkpt>
      <trkpt lat="22.909766" lon="109.125223">
        <ele>98.784283</ele>
        <time>2026-08-15T01:51:17.000Z</time>
      </trkpt>
      <trkpt lat="22.909766" lon="109.125292">
        <ele>98.794277</ele>
        <time>2026-08-15T01:51:18.000Z</time>
      </trkpt>
      <trkpt lat="22.909765" lon="109.125362">
        <ele>98.804416</ele>
        <time>2026-08-15T01:51:19.000Z</time>
      </trkpt>
      <trkpt lat="22.909764" lon="109.125431">
        <ele>98.814411</ele>
        <time>2026-08-15T01:51:20.000Z</time>
      </trkpt>
      <trkpt lat="22.909763" lon="109.125500">
        <ele>98.824406</ele>
        <time>2026-08-15T01:51:21.000Z</time>
      </trkpt>
      <trkpt lat="22.909761" lon="109.125570">
        <ele>98.834550</ele>
        <time>2026-08-15T01:51:22.000Z</time>
      </trkpt>
      <trkpt lat="22.909761" lon="109.125639">
        <ele>98.844543</ele>
        <time>2026-08-15T01:51:23.000Z</time>
      </trkpt>
      <trkpt lat="22.909760" lon="109.125708">
        <ele>98.854538</ele>
        <time>2026-08-15T01:51:24.000Z</time>
      </trkpt>
      <trkpt lat="22.909758" lon="109.125776">
        <ele>98.864392</ele>
        <time>2026-08-15T01:51:25.000Z</time>
      </trkpt>
      <trkpt lat="22.909757" lon="109.125843">
        <ele>98.874097</ele>
        <time>2026-08-15T01:51:26.000Z</time>
      </trkpt>
      <trkpt lat="22.909756" lon="109.125909">
        <ele>98.883658</ele>
        <time>2026-08-15T01:51:27.000Z</time>
      </trkpt>
      <trkpt lat="22.909755" lon="109.125974">
        <ele>98.893074</ele>
        <time>2026-08-15T01:51:28.000Z</time>
      </trkpt>
      <trkpt lat="22.909755" lon="109.126036">
        <ele>98.902053</ele>
        <time>2026-08-15T01:51:29.000Z</time>
      </trkpt>
      <trkpt lat="22.909756" lon="109.126097">
        <ele>98.910890</ele>
        <time>2026-08-15T01:51:30.000Z</time>
      </trkpt>
      <trkpt lat="22.909754" lon="109.126160">
        <ele>98.920020</ele>
        <time>2026-08-15T01:51:31.000Z</time>
      </trkpt>
      <trkpt lat="22.909754" lon="109.126224">
        <ele>98.929289</ele>
        <time>2026-08-15T01:51:32.000Z</time>
      </trkpt>
      <trkpt lat="22.909754" lon="109.126285">
        <ele>98.938124</ele>
        <time>2026-08-15T01:51:33.000Z</time>
      </trkpt>
      <trkpt lat="22.909754" lon="109.126345">
        <ele>98.946619</ele>
        <time>2026-08-15T01:51:34.000Z</time>
      </trkpt>
      <trkpt lat="22.909753" lon="109.126403">
        <ele>98.954776</ele>
        <time>2026-08-15T01:51:35.000Z</time>
      </trkpt>
      <trkpt lat="22.909753" lon="109.126460">
        <ele>98.962791</ele>
        <time>2026-08-15T01:51:36.000Z</time>
      </trkpt>
      <trkpt lat="22.909755" lon="109.126519">
        <ele>98.971092</ele>
        <time>2026-08-15T01:51:37.000Z</time>
      </trkpt>
      <trkpt lat="22.909756" lon="109.126576">
        <ele>98.979109</ele>
        <time>2026-08-15T01:51:38.000Z</time>
      </trkpt>
      <trkpt lat="22.909756" lon="109.126632">
        <ele>98.986983</ele>
        <time>2026-08-15T01:51:39.000Z</time>
      </trkpt>
      <trkpt lat="22.909756" lon="109.126689">
        <ele>98.994998</ele>
        <time>2026-08-15T01:51:40.000Z</time>
      </trkpt>
      <trkpt lat="22.909755" lon="109.126748">
        <ele>99.003295</ele>
        <time>2026-08-15T01:51:41.000Z</time>
      </trkpt>
      <trkpt lat="22.909753" lon="109.126807">
        <ele>99.011597</ele>
        <time>2026-08-15T01:51:42.000Z</time>
      </trkpt>
      <trkpt lat="22.909754" lon="109.126865">
        <ele>99.019754</ele>
        <time>2026-08-15T01:51:43.000Z</time>
      </trkpt>
      <trkpt lat="22.909756" lon="109.126923">
        <ele>99.027915</ele>
        <time>2026-08-15T01:51:44.000Z</time>
      </trkpt>
      <trkpt lat="22.909758" lon="109.126980">
        <ele>99.035935</ele>
        <time>2026-08-15T01:51:45.000Z</time>
      </trkpt>
      <trkpt lat="22.909759" lon="109.127039">
        <ele>99.044233</ele>
        <time>2026-08-15T01:51:46.000Z</time>
      </trkpt>
      <trkpt lat="22.909759" lon="109.127099">
        <ele>99.052670</ele>
        <time>2026-08-15T01:51:47.000Z</time>
      </trkpt>
      <trkpt lat="22.909759" lon="109.127157">
        <ele>99.060825</ele>
        <time>2026-08-15T01:51:48.000Z</time>
      </trkpt>
      <trkpt lat="22.909760" lon="109.127215">
        <ele>99.068982</ele>
        <time>2026-08-15T01:51:49.000Z</time>
      </trkpt>
      <trkpt lat="22.909758" lon="109.127272">
        <ele>99.077002</ele>
        <time>2026-08-15T01:51:50.000Z</time>
      </trkpt>
      <trkpt lat="22.909756" lon="109.127329">
        <ele>99.085023</ele>
        <time>2026-08-15T01:51:51.000Z</time>
      </trkpt>
      <trkpt lat="22.909753" lon="109.127385">
        <ele>99.092911</ele>
        <time>2026-08-15T01:51:52.000Z</time>
      </trkpt>
      <trkpt lat="22.909748" lon="109.127445">
        <ele>99.101382</ele>
        <time>2026-08-15T01:51:53.000Z</time>
      </trkpt>
      <trkpt lat="22.909744" lon="109.127505">
        <ele>99.109840</ele>
        <time>2026-08-15T01:51:54.000Z</time>
      </trkpt>
      <trkpt lat="22.909745" lon="109.127564">
        <ele>99.118138</ele>
        <time>2026-08-15T01:51:55.000Z</time>
      </trkpt>
      <trkpt lat="22.909744" lon="109.127625">
        <ele>99.126717</ele>
        <time>2026-08-15T01:51:56.000Z</time>
      </trkpt>
      <trkpt lat="22.909743" lon="109.127684">
        <ele>99.135014</ele>
        <time>2026-08-15T01:51:57.000Z</time>
      </trkpt>
      <trkpt lat="22.909746" lon="109.127743">
        <ele>99.143323</ele>
        <time>2026-08-15T01:51:58.000Z</time>
      </trkpt>
      <trkpt lat="22.909747" lon="109.127804">
        <ele>99.151901</ele>
        <time>2026-08-15T01:51:59.000Z</time>
      </trkpt>
      <trkpt lat="22.909747" lon="109.127864">
        <ele>99.160338</ele>
        <time>2026-08-15T01:52:00.000Z</time>
      </trkpt>
      <trkpt lat="22.909748" lon="109.127924">
        <ele>99.168776</ele>
        <time>2026-08-15T01:52:01.000Z</time>
      </trkpt>
      <trkpt lat="22.909747" lon="109.127985">
        <ele>99.177355</ele>
        <time>2026-08-15T01:52:02.000Z</time>
      </trkpt>
      <trkpt lat="22.909746" lon="109.128047">
        <ele>99.186074</ele>
        <time>2026-08-15T01:52:03.000Z</time>
      </trkpt>
      <trkpt lat="22.909745" lon="109.128107">
        <ele>99.194512</ele>
        <time>2026-08-15T01:52:04.000Z</time>
      </trkpt>
      <trkpt lat="22.909743" lon="109.128169">
        <ele>99.203235</ele>
        <time>2026-08-15T01:52:05.000Z</time>
      </trkpt>
      <trkpt lat="22.909741" lon="109.128232">
        <ele>99.212099</ele>
        <time>2026-08-15T01:52:06.000Z</time>
      </trkpt>
      <trkpt lat="22.909739" lon="109.128295">
        <ele>99.210011</ele>
        <time>2026-08-15T01:52:07.000Z</time>
      </trkpt>
      <trkpt lat="22.909738" lon="109.128358">
        <ele>99.203429</ele>
        <time>2026-08-15T01:52:08.000Z</time>
      </trkpt>
      <trkpt lat="22.909736" lon="109.128421">
        <ele>99.196845</ele>
        <time>2026-08-15T01:52:09.000Z</time>
      </trkpt>
      <trkpt lat="22.909734" lon="109.128484">
        <ele>99.190260</ele>
        <time>2026-08-15T01:52:10.000Z</time>
      </trkpt>
      <trkpt lat="22.909733" lon="109.128545">
        <ele>99.183888</ele>
        <time>2026-08-15T01:52:11.000Z</time>
      </trkpt>
      <trkpt lat="22.909730" lon="109.128608">
        <ele>99.177298</ele>
        <time>2026-08-15T01:52:12.000Z</time>
      </trkpt>
      <trkpt lat="22.909727" lon="109.128674">
        <ele>99.170396</ele>
        <time>2026-08-15T01:52:13.000Z</time>
      </trkpt>
      <trkpt lat="22.909725" lon="109.128741">
        <ele>99.163394</ele>
        <time>2026-08-15T01:52:14.000Z</time>
      </trkpt>
      <trkpt lat="22.909724" lon="109.128807">
        <ele>99.156499</ele>
        <time>2026-08-15T01:52:15.000Z</time>
      </trkpt>
      <trkpt lat="22.909725" lon="109.128873">
        <ele>99.149604</ele>
        <time>2026-08-15T01:52:16.000Z</time>
      </trkpt>
      <trkpt lat="22.909726" lon="109.128936">
        <ele>99.143022</ele>
        <time>2026-08-15T01:52:17.000Z</time>
      </trkpt>
      <trkpt lat="22.909726" lon="109.129001">
        <ele>99.136233</ele>
        <time>2026-08-15T01:52:18.000Z</time>
      </trkpt>
      <trkpt lat="22.909725" lon="109.129064">
        <ele>99.129651</ele>
        <time>2026-08-15T01:52:19.000Z</time>
      </trkpt>
      <trkpt lat="22.909725" lon="109.129127">
        <ele>99.123071</ele>
        <time>2026-08-15T01:52:20.000Z</time>
      </trkpt>
      <trkpt lat="22.909724" lon="109.129188">
        <ele>99.116698</ele>
        <time>2026-08-15T01:52:21.000Z</time>
      </trkpt>
      <trkpt lat="22.909724" lon="109.129251">
        <ele>99.110117</ele>
        <time>2026-08-15T01:52:22.000Z</time>
      </trkpt>
      <trkpt lat="22.909723" lon="109.129314">
        <ele>99.103536</ele>
        <time>2026-08-15T01:52:23.000Z</time>
      </trkpt>
      <trkpt lat="22.909722" lon="109.129377">
        <ele>99.096954</ele>
        <time>2026-08-15T01:52:24.000Z</time>
      </trkpt>
      <trkpt lat="22.909720" lon="109.129441">
        <ele>99.090265</ele>
        <time>2026-08-15T01:52:25.000Z</time>
      </trkpt>
      <trkpt lat="22.909718" lon="109.129504">
        <ele>99.083681</ele>
        <time>2026-08-15T01:52:26.000Z</time>
      </trkpt>
      <trkpt lat="22.909718" lon="109.129567">
        <ele>99.077100</ele>
        <time>2026-08-15T01:52:27.000Z</time>
      </trkpt>
      <trkpt lat="22.909718" lon="109.129630">
        <ele>99.070519</ele>
        <time>2026-08-15T01:52:28.000Z</time>
      </trkpt>
      <trkpt lat="22.909717" lon="109.129693">
        <ele>99.063938</ele>
        <time>2026-08-15T01:52:29.000Z</time>
      </trkpt>
      <trkpt lat="22.909716" lon="109.129757">
        <ele>99.057252</ele>
        <time>2026-08-15T01:52:30.000Z</time>
      </trkpt>
      <trkpt lat="22.909715" lon="109.129819">
        <ele>99.050775</ele>
        <time>2026-08-15T01:52:31.000Z</time>
      </trkpt>
      <trkpt lat="22.909713" lon="109.129880">
        <ele>99.044399</ele>
        <time>2026-08-15T01:52:32.000Z</time>
      </trkpt>
      <trkpt lat="22.909712" lon="109.129940">
        <ele>99.038131</ele>
        <time>2026-08-15T01:52:33.000Z</time>
      </trkpt>
      <trkpt lat="22.909711" lon="109.129999">
        <ele>99.031967</ele>
        <time>2026-08-15T01:52:34.000Z</time>
      </trkpt>
      <trkpt lat="22.909710" lon="109.130058">
        <ele>99.025803</ele>
        <time>2026-08-15T01:52:35.000Z</time>
      </trkpt>
      <trkpt lat="22.909709" lon="109.130119">
        <ele>99.019430</ele>
        <time>2026-08-15T01:52:36.000Z</time>
      </trkpt>
      <trkpt lat="22.909708" lon="109.130180">
        <ele>99.013057</ele>
        <time>2026-08-15T01:52:37.000Z</time>
      </trkpt>
      <trkpt lat="22.909705" lon="109.130241">
        <ele>99.006124</ele>
        <time>2026-08-15T01:52:38.000Z</time>
      </trkpt>
      <trkpt lat="22.909704" lon="109.130301">
        <ele>98.998997</ele>
        <time>2026-08-15T01:52:39.000Z</time>
      </trkpt>
      <trkpt lat="22.909705" lon="109.130362">
        <ele>98.991751</ele>
        <time>2026-08-15T01:52:40.000Z</time>
      </trkpt>
      <trkpt lat="22.909704" lon="109.130423">
        <ele>98.984506</ele>
        <time>2026-08-15T01:52:41.000Z</time>
      </trkpt>
      <trkpt lat="22.909703" lon="109.130486">
        <ele>98.977023</ele>
        <time>2026-08-15T01:52:42.000Z</time>
      </trkpt>
      <trkpt lat="22.909702" lon="109.130546">
        <ele>98.969896</ele>
        <time>2026-08-15T01:52:43.000Z</time>
      </trkpt>
      <trkpt lat="22.909701" lon="109.130606">
        <ele>98.962769</ele>
        <time>2026-08-15T01:52:44.000Z</time>
      </trkpt>
      <trkpt lat="22.909699" lon="109.130662">
        <ele>98.956114</ele>
        <time>2026-08-15T01:52:45.000Z</time>
      </trkpt>
      <trkpt lat="22.909698" lon="109.130719">
        <ele>98.949343</ele>
        <time>2026-08-15T01:52:46.000Z</time>
      </trkpt>
      <trkpt lat="22.909699" lon="109.130777">
        <ele>98.942454</ele>
        <time>2026-08-15T01:52:47.000Z</time>
      </trkpt>
      <trkpt lat="22.909696" lon="109.130834">
        <ele>98.935673</ele>
        <time>2026-08-15T01:52:48.000Z</time>
      </trkpt>
      <trkpt lat="22.909694" lon="109.130893">
        <ele>98.928662</ele>
        <time>2026-08-15T01:52:49.000Z</time>
      </trkpt>
      <trkpt lat="22.909693" lon="109.130952">
        <ele>98.921654</ele>
        <time>2026-08-15T01:52:50.000Z</time>
      </trkpt>
      <trkpt lat="22.909691" lon="109.131009">
        <ele>98.914879</ele>
        <time>2026-08-15T01:52:51.000Z</time>
      </trkpt>
      <trkpt lat="22.909690" lon="109.131065">
        <ele>98.908227</ele>
        <time>2026-08-15T01:52:52.000Z</time>
      </trkpt>
      <trkpt lat="22.909686" lon="109.131122">
        <ele>98.901438</ele>
        <time>2026-08-15T01:52:53.000Z</time>
      </trkpt>
      <trkpt lat="22.909686" lon="109.131181">
        <ele>98.894432</ele>
        <time>2026-08-15T01:52:54.000Z</time>
      </trkpt>
      <trkpt lat="22.909688" lon="109.131241">
        <ele>98.887301</ele>
        <time>2026-08-15T01:52:55.000Z</time>
      </trkpt>
      <trkpt lat="22.909686" lon="109.131302">
        <ele>98.880052</ele>
        <time>2026-08-15T01:52:56.000Z</time>
      </trkpt>
      <trkpt lat="22.909682" lon="109.131363">
        <ele>98.872790</ele>
        <time>2026-08-15T01:52:57.000Z</time>
      </trkpt>
      <trkpt lat="22.909682" lon="109.131422">
        <ele>98.865783</ele>
        <time>2026-08-15T01:52:58.000Z</time>
      </trkpt>
      <trkpt lat="22.909678" lon="109.131479">
        <ele>98.858994</ele>
        <time>2026-08-15T01:52:59.000Z</time>
      </trkpt>
      <trkpt lat="22.909678" lon="109.131539">
        <ele>98.851868</ele>
        <time>2026-08-15T01:53:00.000Z</time>
      </trkpt>
      <trkpt lat="22.909679" lon="109.131600">
        <ele>98.844622</ele>
        <time>2026-08-15T01:53:01.000Z</time>
      </trkpt>
      <trkpt lat="22.909680" lon="109.131659">
        <ele>98.837614</ele>
        <time>2026-08-15T01:53:02.000Z</time>
      </trkpt>
      <trkpt lat="22.909677" lon="109.131717">
        <ele>98.830715</ele>
        <time>2026-08-15T01:53:03.000Z</time>
      </trkpt>
      <trkpt lat="22.909674" lon="109.131778">
        <ele>98.823461</ele>
        <time>2026-08-15T01:53:04.000Z</time>
      </trkpt>
      <trkpt lat="22.909671" lon="109.131837">
        <ele>98.816443</ele>
        <time>2026-08-15T01:53:05.000Z</time>
      </trkpt>
      <trkpt lat="22.909667" lon="109.131896">
        <ele>98.809417</ele>
        <time>2026-08-15T01:53:06.000Z</time>
      </trkpt>
      <trkpt lat="22.909664" lon="109.131955">
        <ele>98.802400</ele>
        <time>2026-08-15T01:53:07.000Z</time>
      </trkpt>
      <trkpt lat="22.909661" lon="109.132014">
        <ele>98.795382</ele>
        <time>2026-08-15T01:53:08.000Z</time>
      </trkpt>
      <trkpt lat="22.909659" lon="109.132077">
        <ele>98.787896</ele>
        <time>2026-08-15T01:53:09.000Z</time>
      </trkpt>
      <trkpt lat="22.909656" lon="109.132139">
        <ele>98.780523</ele>
        <time>2026-08-15T01:53:10.000Z</time>
      </trkpt>
      <trkpt lat="22.909655" lon="109.132203">
        <ele>98.784831</ele>
        <time>2026-08-15T01:53:11.000Z</time>
      </trkpt>
      <trkpt lat="22.909652" lon="109.132267">
        <ele>98.792603</ele>
        <time>2026-08-15T01:53:12.000Z</time>
      </trkpt>
      <trkpt lat="22.909650" lon="109.132334">
        <ele>98.800733</ele>
        <time>2026-08-15T01:53:13.000Z</time>
      </trkpt>
      <trkpt lat="22.909647" lon="109.132402">
        <ele>98.808990</ele>
        <time>2026-08-15T01:53:14.000Z</time>
      </trkpt>
      <trkpt lat="22.909644" lon="109.132472">
        <ele>98.817489</ele>
        <time>2026-08-15T01:53:15.000Z</time>
      </trkpt>
      <trkpt lat="22.909641" lon="109.132543">
        <ele>98.826109</ele>
        <time>2026-08-15T01:53:16.000Z</time>
      </trkpt>
      <trkpt lat="22.909637" lon="109.132616">
        <ele>98.834978</ele>
        <time>2026-08-15T01:53:17.000Z</time>
      </trkpt>
      <trkpt lat="22.909633" lon="109.132687">
        <ele>98.843605</ele>
        <time>2026-08-15T01:53:18.000Z</time>
      </trkpt>
      <trkpt lat="22.909629" lon="109.132758">
        <ele>98.852232</ele>
        <time>2026-08-15T01:53:19.000Z</time>
      </trkpt>
      <trkpt lat="22.909625" lon="109.132828">
        <ele>98.860737</ele>
        <time>2026-08-15T01:53:20.000Z</time>
      </trkpt>
      <trkpt lat="22.909620" lon="109.132898">
        <ele>98.869253</ele>
        <time>2026-08-15T01:53:21.000Z</time>
      </trkpt>
      <trkpt lat="22.909615" lon="109.132966">
        <ele>98.877526</ele>
        <time>2026-08-15T01:53:22.000Z</time>
      </trkpt>
      <trkpt lat="22.909610" lon="109.133033">
        <ele>98.885678</ele>
        <time>2026-08-15T01:53:23.000Z</time>
      </trkpt>
      <trkpt lat="22.909605" lon="109.133100">
        <ele>98.893831</ele>
        <time>2026-08-15T01:53:24.000Z</time>
      </trkpt>
      <trkpt lat="22.909600" lon="109.133166">
        <ele>98.901862</ele>
        <time>2026-08-15T01:53:25.000Z</time>
      </trkpt>
      <trkpt lat="22.909595" lon="109.133232">
        <ele>98.909894</ele>
        <time>2026-08-15T01:53:26.000Z</time>
      </trkpt>
      <trkpt lat="22.909588" lon="109.133298">
        <ele>98.917951</ele>
        <time>2026-08-15T01:53:27.000Z</time>
      </trkpt>
      <trkpt lat="22.909582" lon="109.133365">
        <ele>98.926115</ele>
        <time>2026-08-15T01:53:28.000Z</time>
      </trkpt>
      <trkpt lat="22.909577" lon="109.133432">
        <ele>98.934267</ele>
        <time>2026-08-15T01:53:29.000Z</time>
      </trkpt>
      <trkpt lat="22.909572" lon="109.133498">
        <ele>98.942299</ele>
        <time>2026-08-15T01:53:30.000Z</time>
      </trkpt>
      <trkpt lat="22.909567" lon="109.133564">
        <ele>98.950330</ele>
        <time>2026-08-15T01:53:31.000Z</time>
      </trkpt>
      <trkpt lat="22.909562" lon="109.133628">
        <ele>98.958120</ele>
        <time>2026-08-15T01:53:32.000Z</time>
      </trkpt>
      <trkpt lat="22.909559" lon="109.133690">
        <ele>98.965650</ele>
        <time>2026-08-15T01:53:33.000Z</time>
      </trkpt>
      <trkpt lat="22.909554" lon="109.133750">
        <ele>98.972956</ele>
        <time>2026-08-15T01:53:34.000Z</time>
      </trkpt>
      <trkpt lat="22.909550" lon="109.133808">
        <ele>98.980010</ele>
        <time>2026-08-15T01:53:35.000Z</time>
      </trkpt>
      <trkpt lat="22.909547" lon="109.133864">
        <ele>98.986813</ele>
        <time>2026-08-15T01:53:36.000Z</time>
      </trkpt>
      <trkpt lat="22.909543" lon="109.133917">
        <ele>98.993263</ele>
        <time>2026-08-15T01:53:37.000Z</time>
      </trkpt>
      <trkpt lat="22.909537" lon="109.133971">
        <ele>98.999859</ele>
        <time>2026-08-15T01:53:38.000Z</time>
      </trkpt>
      <trkpt lat="22.909532" lon="109.134024">
        <ele>99.006321</ele>
        <time>2026-08-15T01:53:39.000Z</time>
      </trkpt>
      <trkpt lat="22.909527" lon="109.134078">
        <ele>99.012903</ele>
        <time>2026-08-15T01:53:40.000Z</time>
      </trkpt>
      <trkpt lat="22.909524" lon="109.134132">
        <ele>99.013299</ele>
        <time>2026-08-15T01:53:41.000Z</time>
      </trkpt>
      <trkpt lat="22.909520" lon="109.134184">
        <ele>99.009444</ele>
        <time>2026-08-15T01:53:42.000Z</time>
      </trkpt>
      <trkpt lat="22.909516" lon="109.134236">
        <ele>99.005588</ele>
        <time>2026-08-15T01:53:43.000Z</time>
      </trkpt>
      <trkpt lat="22.909514" lon="109.134289">
        <ele>99.001669</ele>
        <time>2026-08-15T01:53:44.000Z</time>
      </trkpt>
      <trkpt lat="22.909511" lon="109.134342">
        <ele>98.997746</ele>
        <time>2026-08-15T01:53:45.000Z</time>
      </trkpt>
      <trkpt lat="22.909509" lon="109.134396">
        <ele>98.993753</ele>
        <time>2026-08-15T01:53:46.000Z</time>
      </trkpt>
      <trkpt lat="22.909506" lon="109.134452">
        <ele>98.989608</ele>
        <time>2026-08-15T01:53:47.000Z</time>
      </trkpt>
      <trkpt lat="22.909502" lon="109.134510">
        <ele>98.985311</ele>
        <time>2026-08-15T01:53:48.000Z</time>
      </trkpt>
      <trkpt lat="22.909496" lon="109.134565">
        <ele>98.981219</ele>
        <time>2026-08-15T01:53:49.000Z</time>
      </trkpt>
      <trkpt lat="22.909490" lon="109.134619">
        <ele>98.977200</ele>
        <time>2026-08-15T01:53:50.000Z</time>
      </trkpt>
      <trkpt lat="22.909487" lon="109.134675">
        <ele>98.973055</ele>
        <time>2026-08-15T01:53:51.000Z</time>
      </trkpt>
      <trkpt lat="22.909485" lon="109.134731">
        <ele>98.968915</ele>
        <time>2026-08-15T01:53:52.000Z</time>
      </trkpt>
      <trkpt lat="22.909483" lon="109.134787">
        <ele>98.964774</ele>
        <time>2026-08-15T01:53:53.000Z</time>
      </trkpt>
      <trkpt lat="22.909479" lon="109.134843">
        <ele>98.960624</ele>
        <time>2026-08-15T01:53:54.000Z</time>
      </trkpt>
      <trkpt lat="22.909475" lon="109.134900">
        <ele>98.956400</ele>
        <time>2026-08-15T01:53:55.000Z</time>
      </trkpt>
      <trkpt lat="22.909471" lon="109.134956">
        <ele>98.952250</ele>
        <time>2026-08-15T01:53:56.000Z</time>
      </trkpt>
      <trkpt lat="22.909467" lon="109.135013">
        <ele>98.948027</ele>
        <time>2026-08-15T01:53:57.000Z</time>
      </trkpt>
      <trkpt lat="22.909463" lon="109.135070">
        <ele>98.943803</ele>
        <time>2026-08-15T01:53:58.000Z</time>
      </trkpt>
      <trkpt lat="22.909457" lon="109.135125">
        <ele>98.939711</ele>
        <time>2026-08-15T01:53:59.000Z</time>
      </trkpt>
      <trkpt lat="22.909453" lon="109.135181">
        <ele>98.935561</ele>
        <time>2026-08-15T01:54:00.000Z</time>
      </trkpt>
      <trkpt lat="22.909448" lon="109.135235">
        <ele>98.931551</ele>
        <time>2026-08-15T01:54:01.000Z</time>
      </trkpt>
      <trkpt lat="22.909446" lon="109.135290">
        <ele>98.927484</ele>
        <time>2026-08-15T01:54:02.000Z</time>
      </trkpt>
      <trkpt lat="22.909444" lon="109.135344">
        <ele>98.923491</ele>
        <time>2026-08-15T01:54:03.000Z</time>
      </trkpt>
      <trkpt lat="22.909440" lon="109.135399">
        <ele>98.919415</ele>
        <time>2026-08-15T01:54:04.000Z</time>
      </trkpt>
      <trkpt lat="22.909436" lon="109.135455">
        <ele>98.915265</ele>
        <time>2026-08-15T01:54:05.000Z</time>
      </trkpt>
      <trkpt lat="22.909431" lon="109.135511">
        <ele>98.911108</ele>
        <time>2026-08-15T01:54:06.000Z</time>
      </trkpt>
      <trkpt lat="22.909425" lon="109.135569">
        <ele>98.906795</ele>
        <time>2026-08-15T01:54:07.000Z</time>
      </trkpt>
      <trkpt lat="22.909419" lon="109.135628">
        <ele>98.902410</ele>
        <time>2026-08-15T01:54:08.000Z</time>
      </trkpt>
      <trkpt lat="22.909411" lon="109.135688">
        <ele>98.897930</ele>
        <time>2026-08-15T01:54:09.000Z</time>
      </trkpt>
      <trkpt lat="22.909405" lon="109.135747">
        <ele>98.893545</ele>
        <time>2026-08-15T01:54:10.000Z</time>
      </trkpt>
      <trkpt lat="22.909399" lon="109.135808">
        <ele>98.889012</ele>
        <time>2026-08-15T01:54:11.000Z</time>
      </trkpt>
      <trkpt lat="22.909395" lon="109.135871">
        <ele>98.884346</ele>
        <time>2026-08-15T01:54:12.000Z</time>
      </trkpt>
      <trkpt lat="22.909391" lon="109.135936">
        <ele>98.879533</ele>
        <time>2026-08-15T01:54:13.000Z</time>
      </trkpt>
      <trkpt lat="22.909388" lon="109.136003">
        <ele>98.874577</ele>
        <time>2026-08-15T01:54:14.000Z</time>
      </trkpt>
      <trkpt lat="22.909383" lon="109.136070">
        <ele>98.858079</ele>
        <time>2026-08-15T01:54:15.000Z</time>
      </trkpt>
      <trkpt lat="22.909379" lon="109.136136">
        <ele>98.820973</ele>
        <time>2026-08-15T01:54:16.000Z</time>
      </trkpt>
      <trkpt lat="22.909376" lon="109.136203">
        <ele>98.783342</ele>
        <time>2026-08-15T01:54:17.000Z</time>
      </trkpt>
      <trkpt lat="22.909370" lon="109.136269">
        <ele>98.746136</ele>
        <time>2026-08-15T01:54:18.000Z</time>
      </trkpt>
      <trkpt lat="22.909362" lon="109.136337">
        <ele>98.707678</ele>
        <time>2026-08-15T01:54:19.000Z</time>
      </trkpt>
      <trkpt lat="22.909356" lon="109.136406">
        <ele>98.668797</ele>
        <time>2026-08-15T01:54:20.000Z</time>
      </trkpt>
      <trkpt lat="22.909350" lon="109.136474">
        <ele>98.630475</ele>
        <time>2026-08-15T01:54:21.000Z</time>
      </trkpt>
      <trkpt lat="22.909346" lon="109.136543">
        <ele>98.591690</ele>
        <time>2026-08-15T01:54:22.000Z</time>
      </trkpt>
      <trkpt lat="22.909341" lon="109.136615">
        <ele>98.551183</ele>
        <time>2026-08-15T01:54:23.000Z</time>
      </trkpt>
      <trkpt lat="22.909336" lon="109.136689">
        <ele>98.509558</ele>
        <time>2026-08-15T01:54:24.000Z</time>
      </trkpt>
      <trkpt lat="22.909330" lon="109.136763">
        <ele>98.467884</ele>
        <time>2026-08-15T01:54:25.000Z</time>
      </trkpt>
      <trkpt lat="22.909324" lon="109.136839">
        <ele>98.425092</ele>
        <time>2026-08-15T01:54:26.000Z</time>
      </trkpt>
      <trkpt lat="22.909322" lon="109.136913">
        <ele>98.383560</ele>
        <time>2026-08-15T01:54:27.000Z</time>
      </trkpt>
      <trkpt lat="22.909320" lon="109.136984">
        <ele>98.343711</ele>
        <time>2026-08-15T01:54:28.000Z</time>
      </trkpt>
      <trkpt lat="22.909314" lon="109.137054">
        <ele>98.304271</ele>
        <time>2026-08-15T01:54:29.000Z</time>
      </trkpt>
      <trkpt lat="22.909309" lon="109.137125">
        <ele>98.264324</ele>
        <time>2026-08-15T01:54:30.000Z</time>
      </trkpt>
      <trkpt lat="22.909300" lon="109.137196">
        <ele>98.224118</ele>
        <time>2026-08-15T01:54:31.000Z</time>
      </trkpt>
      <trkpt lat="22.909289" lon="109.137267">
        <ele>98.183728</ele>
        <time>2026-08-15T01:54:32.000Z</time>
      </trkpt>
      <trkpt lat="22.909282" lon="109.137335">
        <ele>98.145342</ele>
        <time>2026-08-15T01:54:33.000Z</time>
      </trkpt>
      <trkpt lat="22.909274" lon="109.137404">
        <ele>98.106328</ele>
        <time>2026-08-15T01:54:34.000Z</time>
      </trkpt>
      <trkpt lat="22.909267" lon="109.137471">
        <ele>98.068500</ele>
        <time>2026-08-15T01:54:35.000Z</time>
      </trkpt>
      <trkpt lat="22.909260" lon="109.137539">
        <ele>98.030115</ele>
        <time>2026-08-15T01:54:36.000Z</time>
      </trkpt>
      <trkpt lat="22.909254" lon="109.137607">
        <ele>97.991793</ele>
        <time>2026-08-15T01:54:37.000Z</time>
      </trkpt>
      <trkpt lat="22.909246" lon="109.137674">
        <ele>97.953891</ele>
        <time>2026-08-15T01:54:38.000Z</time>
      </trkpt>
      <trkpt lat="22.909240" lon="109.137741">
        <ele>97.916127</ele>
        <time>2026-08-15T01:54:39.000Z</time>
      </trkpt>
      <trkpt lat="22.909237" lon="109.137806">
        <ele>97.879617</ele>
        <time>2026-08-15T01:54:40.000Z</time>
      </trkpt>
      <trkpt lat="22.909234" lon="109.137869">
        <ele>97.844227</ele>
        <time>2026-08-15T01:54:41.000Z</time>
      </trkpt>
      <trkpt lat="22.909232" lon="109.137931">
        <ele>97.809424</ele>
        <time>2026-08-15T01:54:42.000Z</time>
      </trkpt>
      <trkpt lat="22.909227" lon="109.137992">
        <ele>97.775574</ele>
        <time>2026-08-15T01:54:43.000Z</time>
      </trkpt>
      <trkpt lat="22.909221" lon="109.138051">
        <ele>97.762060</ele>
        <time>2026-08-15T01:54:44.000Z</time>
      </trkpt>
      <trkpt lat="22.909216" lon="109.138112">
        <ele>97.748118</ele>
        <time>2026-08-15T01:54:45.000Z</time>
      </trkpt>
      <trkpt lat="22.909212" lon="109.138173">
        <ele>97.734196</ele>
        <time>2026-08-15T01:54:46.000Z</time>
      </trkpt>
      <trkpt lat="22.909206" lon="109.138235">
        <ele>97.720003</ele>
        <time>2026-08-15T01:54:47.000Z</time>
      </trkpt>
      <trkpt lat="22.909200" lon="109.138297">
        <ele>97.705811</ele>
        <time>2026-08-15T01:54:48.000Z</time>
      </trkpt>
      <trkpt lat="22.909195" lon="109.138358">
        <ele>97.691869</ele>
        <time>2026-08-15T01:54:49.000Z</time>
      </trkpt>
      <trkpt lat="22.909189" lon="109.138419">
        <ele>97.677903</ele>
        <time>2026-08-15T01:54:50.000Z</time>
      </trkpt>
      <trkpt lat="22.909183" lon="109.138478">
        <ele>97.664389</ele>
        <time>2026-08-15T01:54:51.000Z</time>
      </trkpt>
      <trkpt lat="22.909178" lon="109.138538">
        <ele>97.650674</ele>
        <time>2026-08-15T01:54:52.000Z</time>
      </trkpt>
      <trkpt lat="22.909171" lon="109.138597">
        <ele>97.637131</ele>
        <time>2026-08-15T01:54:53.000Z</time>
      </trkpt>
      <trkpt lat="22.909165" lon="109.138656">
        <ele>97.623617</ele>
        <time>2026-08-15T01:54:54.000Z</time>
      </trkpt>
      <trkpt lat="22.909160" lon="109.138715">
        <ele>97.610129</ele>
        <time>2026-08-15T01:54:55.000Z</time>
      </trkpt>
      <trkpt lat="22.909154" lon="109.138775">
        <ele>97.596389</ele>
        <time>2026-08-15T01:54:56.000Z</time>
      </trkpt>
      <trkpt lat="22.909149" lon="109.138834">
        <ele>97.582900</ele>
        <time>2026-08-15T01:54:57.000Z</time>
      </trkpt>
      <trkpt lat="22.909145" lon="109.138893">
        <ele>97.569432</ele>
        <time>2026-08-15T01:54:58.000Z</time>
      </trkpt>
      <trkpt lat="22.909138" lon="109.138953">
        <ele>97.555663</ele>
        <time>2026-08-15T01:54:59.000Z</time>
      </trkpt>
      <trkpt lat="22.909128" lon="109.139015">
        <ele>97.541334</ele>
        <time>2026-08-15T01:55:00.000Z</time>
      </trkpt>
      <trkpt lat="22.909117" lon="109.139077">
        <ele>97.526959</ele>
        <time>2026-08-15T01:55:01.000Z</time>
      </trkpt>
      <trkpt lat="22.909106" lon="109.139140">
        <ele>97.512362</ele>
        <time>2026-08-15T01:55:02.000Z</time>
      </trkpt>
      <trkpt lat="22.909096" lon="109.139205">
        <ele>97.497359</ele>
        <time>2026-08-15T01:55:03.000Z</time>
      </trkpt>
      <trkpt lat="22.909084" lon="109.139269">
        <ele>97.482490</ele>
        <time>2026-08-15T01:55:04.000Z</time>
      </trkpt>
      <trkpt lat="22.909072" lon="109.139331">
        <ele>97.468067</ele>
        <time>2026-08-15T01:55:05.000Z</time>
      </trkpt>
      <trkpt lat="22.909062" lon="109.139393">
        <ele>97.453737</ele>
        <time>2026-08-15T01:55:06.000Z</time>
      </trkpt>
      <trkpt lat="22.909057" lon="109.139458">
        <ele>97.438888</ele>
        <time>2026-08-15T01:55:07.000Z</time>
      </trkpt>
      <trkpt lat="22.909051" lon="109.139519">
        <ele>97.424921</ele>
        <time>2026-08-15T01:55:08.000Z</time>
      </trkpt>
      <trkpt lat="22.909051" lon="109.139583">
        <ele>97.410351</ele>
        <time>2026-08-15T01:55:09.000Z</time>
      </trkpt>
      <trkpt lat="22.909047" lon="109.139646">
        <ele>97.395975</ele>
        <time>2026-08-15T01:55:10.000Z</time>
      </trkpt>
      <trkpt lat="22.909042" lon="109.139708">
        <ele>97.381806</ele>
        <time>2026-08-15T01:55:11.000Z</time>
      </trkpt>
      <trkpt lat="22.909031" lon="109.139770">
        <ele>97.367431</ele>
        <time>2026-08-15T01:55:12.000Z</time>
      </trkpt>
      <trkpt lat="22.909016" lon="109.139829">
        <ele>97.353497</ele>
        <time>2026-08-15T01:55:13.000Z</time>
      </trkpt>
      <trkpt lat="22.909004" lon="109.139888">
        <ele>97.339742</ele>
        <time>2026-08-15T01:55:14.000Z</time>
      </trkpt>
      <trkpt lat="22.908994" lon="109.139949">
        <ele>97.342509</ele>
        <time>2026-08-15T01:55:15.000Z</time>
      </trkpt>
      <trkpt lat="22.908983" lon="109.140010">
        <ele>97.369943</ele>
        <time>2026-08-15T01:55:16.000Z</time>
      </trkpt>
      <trkpt lat="22.908970" lon="109.140069">
        <ele>97.396717</ele>
        <time>2026-08-15T01:55:17.000Z</time>
      </trkpt>
      <trkpt lat="22.908956" lon="109.140127">
        <ele>97.423180</ele>
        <time>2026-08-15T01:55:18.000Z</time>
      </trkpt>
      <trkpt lat="22.908943" lon="109.140189">
        <ele>97.451244</ele>
        <time>2026-08-15T01:55:19.000Z</time>
      </trkpt>
      <trkpt lat="22.908931" lon="109.140253">
        <ele>97.480070</ele>
        <time>2026-08-15T01:55:20.000Z</time>
      </trkpt>
      <trkpt lat="22.908916" lon="109.140317">
        <ele>97.509216</ele>
        <time>2026-08-15T01:55:21.000Z</time>
      </trkpt>
      <trkpt lat="22.908910" lon="109.140377">
        <ele>97.535853</ele>
        <time>2026-08-15T01:55:22.000Z</time>
      </trkpt>
      <trkpt lat="22.908901" lon="109.140435">
        <ele>97.561812</ele>
        <time>2026-08-15T01:55:23.000Z</time>
      </trkpt>
      <trkpt lat="22.908888" lon="109.140495">
        <ele>97.589016</ele>
        <time>2026-08-15T01:55:24.000Z</time>
      </trkpt>
      <trkpt lat="22.908875" lon="109.140560">
        <ele>97.618373</ele>
        <time>2026-08-15T01:55:25.000Z</time>
      </trkpt>
      <trkpt lat="22.908860" lon="109.140629">
        <ele>97.649663</ele>
        <time>2026-08-15T01:55:26.000Z</time>
      </trkpt>
      <trkpt lat="22.908845" lon="109.140695">
        <ele>97.679666</ele>
        <time>2026-08-15T01:55:27.000Z</time>
      </trkpt>
      <trkpt lat="22.908832" lon="109.140760">
        <ele>97.709022</ele>
        <time>2026-08-15T01:55:28.000Z</time>
      </trkpt>
      <trkpt lat="22.908824" lon="109.140826">
        <ele>97.738403</ele>
        <time>2026-08-15T01:55:29.000Z</time>
      </trkpt>
      <trkpt lat="22.908815" lon="109.140890">
        <ele>97.766977</ele>
        <time>2026-08-15T01:55:30.000Z</time>
      </trkpt>
      <trkpt lat="22.908806" lon="109.140956">
        <ele>97.796424</ele>
        <time>2026-08-15T01:55:31.000Z</time>
      </trkpt>
      <trkpt lat="22.908797" lon="109.141022">
        <ele>97.825870</ele>
        <time>2026-08-15T01:55:32.000Z</time>
      </trkpt>
      <trkpt lat="22.908784" lon="109.141082">
        <ele>97.853074</ele>
        <time>2026-08-15T01:55:33.000Z</time>
      </trkpt>
      <trkpt lat="22.908774" lon="109.141142">
        <ele>97.879986</ele>
        <time>2026-08-15T01:55:34.000Z</time>
      </trkpt>
      <trkpt lat="22.908766" lon="109.141199">
        <ele>97.905433</ele>
        <time>2026-08-15T01:55:35.000Z</time>
      </trkpt>
      <trkpt lat="22.908756" lon="109.141255">
        <ele>97.930609</ele>
        <time>2026-08-15T01:55:36.000Z</time>
      </trkpt>
      <trkpt lat="22.908747" lon="109.141314">
        <ele>97.957004</ele>
        <time>2026-08-15T01:55:37.000Z</time>
      </trkpt>
      <trkpt lat="22.908735" lon="109.141370">
        <ele>97.982380</ele>
        <time>2026-08-15T01:55:38.000Z</time>
      </trkpt>
      <trkpt lat="22.908727" lon="109.141423">
        <ele>98.006083</ele>
        <time>2026-08-15T01:55:39.000Z</time>
      </trkpt>
      <trkpt lat="22.908715" lon="109.141473">
        <ele>98.028888</ele>
        <time>2026-08-15T01:55:40.000Z</time>
      </trkpt>
      <trkpt lat="22.908715" lon="109.141527">
        <ele>98.052721</ele>
        <time>2026-08-15T01:55:41.000Z</time>
      </trkpt>
      <trkpt lat="22.908714" lon="109.141581">
        <ele>98.076559</ele>
        <time>2026-08-15T01:55:42.000Z</time>
      </trkpt>
      <trkpt lat="22.908705" lon="109.141631">
        <ele>98.099044</ele>
        <time>2026-08-15T01:55:43.000Z</time>
      </trkpt>
      <trkpt lat="22.908697" lon="109.141683">
        <ele>98.122312</ele>
        <time>2026-08-15T01:55:44.000Z</time>
      </trkpt>
      <trkpt lat="22.908686" lon="109.141733">
        <ele>98.145001</ele>
        <time>2026-08-15T01:55:45.000Z</time>
      </trkpt>
      <trkpt lat="22.908677" lon="109.141781">
        <ele>98.166620</ele>
        <time>2026-08-15T01:55:46.000Z</time>
      </trkpt>
      <trkpt lat="22.908669" lon="109.141829">
        <ele>98.188149</ele>
        <time>2026-08-15T01:55:47.000Z</time>
      </trkpt>
      <trkpt lat="22.908662" lon="109.141884">
        <ele>98.188416</ele>
        <time>2026-08-15T01:55:48.000Z</time>
      </trkpt>
      <trkpt lat="22.908655" lon="109.141936">
        <ele>98.182726</ele>
        <time>2026-08-15T01:55:49.000Z</time>
      </trkpt>
      <trkpt lat="22.908646" lon="109.141991">
        <ele>98.176676</ele>
        <time>2026-08-15T01:55:50.000Z</time>
      </trkpt>
      <trkpt lat="22.908636" lon="109.142047">
        <ele>98.170499</ele>
        <time>2026-08-15T01:55:51.000Z</time>
      </trkpt>
      <trkpt lat="22.908625" lon="109.142102">
        <ele>98.164404</ele>
        <time>2026-08-15T01:55:52.000Z</time>
      </trkpt>
      <trkpt lat="22.908613" lon="109.142156">
        <ele>98.158389</ele>
        <time>2026-08-15T01:55:53.000Z</time>
      </trkpt>
      <trkpt lat="22.908602" lon="109.142210">
        <ele>98.152400</ele>
        <time>2026-08-15T01:55:54.000Z</time>
      </trkpt>
      <trkpt lat="22.908591" lon="109.142264">
        <ele>98.146411</ele>
        <time>2026-08-15T01:55:55.000Z</time>
      </trkpt>
      <trkpt lat="22.908579" lon="109.142321">
        <ele>98.140079</ele>
        <time>2026-08-15T01:55:56.000Z</time>
      </trkpt>
      <trkpt lat="22.908567" lon="109.142378">
        <ele>98.133748</ele>
        <time>2026-08-15T01:55:57.000Z</time>
      </trkpt>
      <trkpt lat="22.908554" lon="109.142436">
        <ele>98.127284</ele>
        <time>2026-08-15T01:55:58.000Z</time>
      </trkpt>
      <trkpt lat="22.908542" lon="109.142493">
        <ele>98.120952</ele>
        <time>2026-08-15T01:55:59.000Z</time>
      </trkpt>
      <trkpt lat="22.908529" lon="109.142551">
        <ele>98.114488</ele>
        <time>2026-08-15T01:56:00.000Z</time>
      </trkpt>
      <trkpt lat="22.908516" lon="109.142610">
        <ele>98.107919</ele>
        <time>2026-08-15T01:56:01.000Z</time>
      </trkpt>
      <trkpt lat="22.908503" lon="109.142668">
        <ele>98.101454</ele>
        <time>2026-08-15T01:56:02.000Z</time>
      </trkpt>
      <trkpt lat="22.908492" lon="109.142726">
        <ele>98.095042</ele>
        <time>2026-08-15T01:56:03.000Z</time>
      </trkpt>
      <trkpt lat="22.908481" lon="109.142787">
        <ele>98.088311</ele>
        <time>2026-08-15T01:56:04.000Z</time>
      </trkpt>
      <trkpt lat="22.908470" lon="109.142848">
        <ele>98.081580</ele>
        <time>2026-08-15T01:56:05.000Z</time>
      </trkpt>
      <trkpt lat="22.908459" lon="109.142908">
        <ele>98.074955</ele>
        <time>2026-08-15T01:56:06.000Z</time>
      </trkpt>
      <trkpt lat="22.908445" lon="109.142970">
        <ele>98.068042</ele>
        <time>2026-08-15T01:56:07.000Z</time>
      </trkpt>
      <trkpt lat="22.908432" lon="109.143031">
        <ele>98.061262</ele>
        <time>2026-08-15T01:56:08.000Z</time>
      </trkpt>
      <trkpt lat="22.908420" lon="109.143091">
        <ele>98.054613</ele>
        <time>2026-08-15T01:56:09.000Z</time>
      </trkpt>
      <trkpt lat="22.908408" lon="109.143152">
        <ele>98.047858</ele>
        <time>2026-08-15T01:56:10.000Z</time>
      </trkpt>
      <trkpt lat="22.908396" lon="109.143214">
        <ele>98.040998</ele>
        <time>2026-08-15T01:56:11.000Z</time>
      </trkpt>
      <trkpt lat="22.908383" lon="109.143275">
        <ele>98.034218</ele>
        <time>2026-08-15T01:56:12.000Z</time>
      </trkpt>
      <trkpt lat="22.908370" lon="109.143336">
        <ele>98.027437</ele>
        <time>2026-08-15T01:56:13.000Z</time>
      </trkpt>
      <trkpt lat="22.908358" lon="109.143396">
        <ele>98.020789</ele>
        <time>2026-08-15T01:56:14.000Z</time>
      </trkpt>
      <trkpt lat="22.908346" lon="109.143455">
        <ele>98.014246</ele>
        <time>2026-08-15T01:56:15.000Z</time>
      </trkpt>
      <trkpt lat="22.908335" lon="109.143516">
        <ele>98.007515</ele>
        <time>2026-08-15T01:56:16.000Z</time>
      </trkpt>
      <trkpt lat="22.908323" lon="109.143577">
        <ele>98.000760</ele>
        <time>2026-08-15T01:56:17.000Z</time>
      </trkpt>
      <trkpt lat="22.908311" lon="109.143636">
        <ele>97.994217</ele>
        <time>2026-08-15T01:56:18.000Z</time>
      </trkpt>
      <trkpt lat="22.908297" lon="109.143697">
        <ele>97.987409</ele>
        <time>2026-08-15T01:56:19.000Z</time>
      </trkpt>
      <trkpt lat="22.908282" lon="109.143759">
        <ele>97.986792</ele>
        <time>2026-08-15T01:56:20.000Z</time>
      </trkpt>
      <trkpt lat="22.908269" lon="109.143822">
        <ele>98.014582</ele>
        <time>2026-08-15T01:56:21.000Z</time>
      </trkpt>
      <trkpt lat="22.908258" lon="109.143884">
        <ele>98.041760</ele>
        <time>2026-08-15T01:56:22.000Z</time>
      </trkpt>
      <trkpt lat="22.908247" lon="109.143948">
        <ele>98.069784</ele>
        <time>2026-08-15T01:56:23.000Z</time>
      </trkpt>
      <trkpt lat="22.908234" lon="109.144009">
        <ele>98.096735</ele>
        <time>2026-08-15T01:56:24.000Z</time>
      </trkpt>
      <trkpt lat="22.908221" lon="109.144070">
        <ele>98.123686</ele>
        <time>2026-08-15T01:56:25.000Z</time>
      </trkpt>
      <trkpt lat="22.908210" lon="109.144131">
        <ele>98.150442</ele>
        <time>2026-08-15T01:56:26.000Z</time>
      </trkpt>
      <trkpt lat="22.908197" lon="109.144190">
        <ele>98.176554</ele>
        <time>2026-08-15T01:56:27.000Z</time>
      </trkpt>
      <trkpt lat="22.908183" lon="109.144248">
        <ele>98.202363</ele>
        <time>2026-08-15T01:56:28.000Z</time>
      </trkpt>
      <trkpt lat="22.908170" lon="109.144305">
        <ele>98.227640</ele>
        <time>2026-08-15T01:56:29.000Z</time>
      </trkpt>
      <trkpt lat="22.908158" lon="109.144365">
        <ele>98.254068</ele>
        <time>2026-08-15T01:56:30.000Z</time>
      </trkpt>
      <trkpt lat="22.908147" lon="109.144425">
        <ele>98.280401</ele>
        <time>2026-08-15T01:56:31.000Z</time>
      </trkpt>
      <trkpt lat="22.908137" lon="109.144486">
        <ele>98.307071</ele>
        <time>2026-08-15T01:56:32.000Z</time>
      </trkpt>
      <trkpt lat="22.908126" lon="109.144543">
        <ele>98.332139</ele>
        <time>2026-08-15T01:56:33.000Z</time>
      </trkpt>
      <trkpt lat="22.908114" lon="109.144599">
        <ele>98.356888</ele>
        <time>2026-08-15T01:56:34.000Z</time>
      </trkpt>
      <trkpt lat="22.908102" lon="109.144655">
        <ele>98.381637</ele>
        <time>2026-08-15T01:56:35.000Z</time>
      </trkpt>
      <trkpt lat="22.908091" lon="109.144711">
        <ele>98.406284</ele>
        <time>2026-08-15T01:56:36.000Z</time>
      </trkpt>
      <trkpt lat="22.908078" lon="109.144770">
        <ele>98.432396</ele>
        <time>2026-08-15T01:56:37.000Z</time>
      </trkpt>
      <trkpt lat="22.908069" lon="109.144829">
        <ele>98.458139</ele>
        <time>2026-08-15T01:56:38.000Z</time>
      </trkpt>
      <trkpt lat="22.908060" lon="109.144887">
        <ele>98.483456</ele>
        <time>2026-08-15T01:56:39.000Z</time>
      </trkpt>
      <trkpt lat="22.908050" lon="109.144945">
        <ele>98.508856</ele>
        <time>2026-08-15T01:56:40.000Z</time>
      </trkpt>
      <trkpt lat="22.908043" lon="109.145005">
        <ele>98.534889</ele>
        <time>2026-08-15T01:56:41.000Z</time>
      </trkpt>
      <trkpt lat="22.908034" lon="109.145062">
        <ele>98.559782</ele>
        <time>2026-08-15T01:56:42.000Z</time>
      </trkpt>
      <trkpt lat="22.908024" lon="109.145119">
        <ele>98.584759</ele>
        <time>2026-08-15T01:56:43.000Z</time>
      </trkpt>
      <trkpt lat="22.908013" lon="109.145175">
        <ele>98.609406</ele>
        <time>2026-08-15T01:56:44.000Z</time>
      </trkpt>
      <trkpt lat="22.908001" lon="109.145234">
        <ele>98.635414</ele>
        <time>2026-08-15T01:56:45.000Z</time>
      </trkpt>
      <trkpt lat="22.907988" lon="109.145293">
        <ele>98.661526</ele>
        <time>2026-08-15T01:56:46.000Z</time>
      </trkpt>
      <trkpt lat="22.907975" lon="109.145350">
        <ele>98.686803</ele>
        <time>2026-08-15T01:56:47.000Z</time>
      </trkpt>
      <trkpt lat="22.907961" lon="109.145405">
        <ele>98.711365</ele>
        <time>2026-08-15T01:56:48.000Z</time>
      </trkpt>
      <trkpt lat="22.907948" lon="109.145462">
        <ele>98.736641</ele>
        <time>2026-08-15T01:56:49.000Z</time>
      </trkpt>
      <trkpt lat="22.907936" lon="109.145516">
        <ele>98.760552</ele>
        <time>2026-08-15T01:56:50.000Z</time>
      </trkpt>
      <trkpt lat="22.907926" lon="109.145571">
        <ele>98.784683</ele>
        <time>2026-08-15T01:56:51.000Z</time>
      </trkpt>
      <trkpt lat="22.907916" lon="109.145625">
        <ele>98.808393</ele>
        <time>2026-08-15T01:56:52.000Z</time>
      </trkpt>
      <trkpt lat="22.907906" lon="109.145680">
        <ele>98.831414</ele>
        <time>2026-08-15T01:56:53.000Z</time>
      </trkpt>
      <trkpt lat="22.907896" lon="109.145734">
        <ele>98.852562</ele>
        <time>2026-08-15T01:56:54.000Z</time>
      </trkpt>
      <trkpt lat="22.907885" lon="109.145789">
        <ele>98.874171</ele>
        <time>2026-08-15T01:56:55.000Z</time>
      </trkpt>
      <trkpt lat="22.907874" lon="109.145845">
        <ele>98.896156</ele>
        <time>2026-08-15T01:56:56.000Z</time>
      </trkpt>
      <trkpt lat="22.907862" lon="109.145901">
        <ele>98.918231</ele>
        <time>2026-08-15T01:56:57.000Z</time>
      </trkpt>
      <trkpt lat="22.907849" lon="109.145957">
        <ele>98.940404</ele>
        <time>2026-08-15T01:56:58.000Z</time>
      </trkpt>
      <trkpt lat="22.907837" lon="109.146012">
        <ele>98.962106</ele>
        <time>2026-08-15T01:56:59.000Z</time>
      </trkpt>
      <trkpt lat="22.907825" lon="109.146068">
        <ele>98.984181</ele>
        <time>2026-08-15T01:57:00.000Z</time>
      </trkpt>
      <trkpt lat="22.907815" lon="109.146123">
        <ele>99.005705</ele>
        <time>2026-08-15T01:57:01.000Z</time>
      </trkpt>
      <trkpt lat="22.907806" lon="109.146176">
        <ele>99.026398</ele>
        <time>2026-08-15T01:57:02.000Z</time>
      </trkpt>
      <trkpt lat="22.907797" lon="109.146228">
        <ele>99.046712</ele>
        <time>2026-08-15T01:57:03.000Z</time>
      </trkpt>
      <trkpt lat="22.907786" lon="109.146281">
        <ele>99.067572</ele>
        <time>2026-08-15T01:57:04.000Z</time>
      </trkpt>
      <trkpt lat="22.907776" lon="109.146333">
        <ele>99.087967</ele>
        <time>2026-08-15T01:57:05.000Z</time>
      </trkpt>
      <trkpt lat="22.907768" lon="109.146386">
        <ele>99.108588</ele>
        <time>2026-08-15T01:57:06.000Z</time>
      </trkpt>
      <trkpt lat="22.907761" lon="109.146438">
        <ele>99.128766</ele>
        <time>2026-08-15T01:57:07.000Z</time>
      </trkpt>
      <trkpt lat="22.907752" lon="109.146489">
        <ele>99.148703</ele>
        <time>2026-08-15T01:57:08.000Z</time>
      </trkpt>
      <trkpt lat="22.907742" lon="109.146540">
        <ele>99.168723</ele>
        <time>2026-08-15T01:57:09.000Z</time>
      </trkpt>
      <trkpt lat="22.907731" lon="109.146590">
        <ele>99.188460</ele>
        <time>2026-08-15T01:57:10.000Z</time>
      </trkpt>
      <trkpt lat="22.907721" lon="109.146642">
        <ele>99.208856</ele>
        <time>2026-08-15T01:57:11.000Z</time>
      </trkpt>
      <trkpt lat="22.907711" lon="109.146693">
        <ele>99.228876</ele>
        <time>2026-08-15T01:57:12.000Z</time>
      </trkpt>
      <trkpt lat="22.907700" lon="109.146745">
        <ele>99.249361</ele>
        <time>2026-08-15T01:57:13.000Z</time>
      </trkpt>
      <trkpt lat="22.907689" lon="109.146798">
        <ele>99.270221</ele>
        <time>2026-08-15T01:57:14.000Z</time>
      </trkpt>
      <trkpt lat="22.907679" lon="109.146853">
        <ele>99.291745</ele>
        <time>2026-08-15T01:57:15.000Z</time>
      </trkpt>
      <trkpt lat="22.907667" lon="109.146908">
        <ele>99.313447</ele>
        <time>2026-08-15T01:57:16.000Z</time>
      </trkpt>
      <trkpt lat="22.907654" lon="109.146961">
        <ele>99.334505</ele>
        <time>2026-08-15T01:57:17.000Z</time>
      </trkpt>
      <trkpt lat="22.907642" lon="109.147012">
        <ele>99.354715</ele>
        <time>2026-08-15T01:57:18.000Z</time>
      </trkpt>
      <trkpt lat="22.907630" lon="109.147066">
        <ele>99.376043</ele>
        <time>2026-08-15T01:57:19.000Z</time>
      </trkpt>
      <trkpt lat="22.907619" lon="109.147120">
        <ele>99.397278</ele>
        <time>2026-08-15T01:57:20.000Z</time>
      </trkpt>
      <trkpt lat="22.907608" lon="109.147176">
        <ele>99.419262</ele>
        <time>2026-08-15T01:57:21.000Z</time>
      </trkpt>
      <trkpt lat="22.907598" lon="109.147231">
        <ele>99.440787</ele>
        <time>2026-08-15T01:57:22.000Z</time>
      </trkpt>
      <trkpt lat="22.907588" lon="109.147286">
        <ele>99.462311</ele>
        <time>2026-08-15T01:57:23.000Z</time>
      </trkpt>
      <trkpt lat="22.907577" lon="109.147340">
        <ele>99.483546</ele>
        <time>2026-08-15T01:57:24.000Z</time>
      </trkpt>
      <trkpt lat="22.907566" lon="109.147393">
        <ele>99.504405</ele>
        <time>2026-08-15T01:57:25.000Z</time>
      </trkpt>
      <trkpt lat="22.907556" lon="109.147446">
        <ele>99.525177</ele>
        <time>2026-08-15T01:57:26.000Z</time>
      </trkpt>
      <trkpt lat="22.907548" lon="109.147499">
        <ele>99.545798</ele>
        <time>2026-08-15T01:57:27.000Z</time>
      </trkpt>
      <trkpt lat="22.907538" lon="109.147551">
        <ele>99.566193</ele>
        <time>2026-08-15T01:57:28.000Z</time>
      </trkpt>
      <trkpt lat="22.907527" lon="109.147602">
        <ele>99.595441</ele>
        <time>2026-08-15T01:57:29.000Z</time>
      </trkpt>
      <trkpt lat="22.907516" lon="109.147654">
        <ele>99.628977</ele>
        <time>2026-08-15T01:57:30.000Z</time>
      </trkpt>
      <trkpt lat="22.907505" lon="109.147708">
        <ele>99.663738</ele>
        <time>2026-08-15T01:57:31.000Z</time>
      </trkpt>
      <trkpt lat="22.907493" lon="109.147761">
        <ele>99.698043</ele>
        <time>2026-08-15T01:57:32.000Z</time>
      </trkpt>
      <trkpt lat="22.907481" lon="109.147813">
        <ele>99.731738</ele>
        <time>2026-08-15T01:57:33.000Z</time>
      </trkpt>
      <trkpt lat="22.907468" lon="109.147865">
        <ele>99.765605</ele>
        <time>2026-08-15T01:57:34.000Z</time>
      </trkpt>
      <trkpt lat="22.907458" lon="109.147918">
        <ele>99.799610</ele>
        <time>2026-08-15T01:57:35.000Z</time>
      </trkpt>
      <trkpt lat="22.907449" lon="109.147971">
        <ele>99.833484</ele>
        <time>2026-08-15T01:57:36.000Z</time>
      </trkpt>
      <trkpt lat="22.907439" lon="109.148022">
        <ele>99.866259</ele>
        <time>2026-08-15T01:57:37.000Z</time>
      </trkpt>
      <trkpt lat="22.907427" lon="109.148071">
        <ele>99.898128</ele>
        <time>2026-08-15T01:57:38.000Z</time>
      </trkpt>
      <trkpt lat="22.907416" lon="109.148120">
        <ele>99.929828</ele>
        <time>2026-08-15T01:57:39.000Z</time>
      </trkpt>
      <trkpt lat="22.907405" lon="109.148172">
        <ele>99.963364</ele>
        <time>2026-08-15T01:57:40.000Z</time>
      </trkpt>
      <trkpt lat="22.907395" lon="109.148224">
        <ele>99.996753</ele>
        <time>2026-08-15T01:57:41.000Z</time>
      </trkpt>
      <trkpt lat="22.907386" lon="109.148276">
        <ele>100.030010</ele>
        <time>2026-08-15T01:57:42.000Z</time>
      </trkpt>
      <trkpt lat="22.907376" lon="109.148330">
        <ele>100.064631</ele>
        <time>2026-08-15T01:57:43.000Z</time>
      </trkpt>
      <trkpt lat="22.907366" lon="109.148383">
        <ele>100.098635</ele>
        <time>2026-08-15T01:57:44.000Z</time>
      </trkpt>
      <trkpt lat="22.907354" lon="109.148435">
        <ele>100.132330</ele>
        <time>2026-08-15T01:57:45.000Z</time>
      </trkpt>
      <trkpt lat="22.907340" lon="109.148487">
        <ele>100.166382</ele>
        <time>2026-08-15T01:57:46.000Z</time>
      </trkpt>
      <trkpt lat="22.907327" lon="109.148541">
        <ele>100.201464</ele>
        <time>2026-08-15T01:57:47.000Z</time>
      </trkpt>
      <trkpt lat="22.907316" lon="109.148593">
        <ele>100.235000</ele>
        <time>2026-08-15T01:57:48.000Z</time>
      </trkpt>
      <trkpt lat="22.907307" lon="109.148645">
        <ele>100.268256</ele>
        <time>2026-08-15T01:57:49.000Z</time>
      </trkpt>
      <trkpt lat="22.907294" lon="109.148697">
        <ele>100.302124</ele>
        <time>2026-08-15T01:57:50.000Z</time>
      </trkpt>
      <trkpt lat="22.907284" lon="109.148751">
        <ele>100.336744</ele>
        <time>2026-08-15T01:57:51.000Z</time>
      </trkpt>
      <trkpt lat="22.907273" lon="109.148801">
        <ele>100.369056</ele>
        <time>2026-08-15T01:57:52.000Z</time>
      </trkpt>
      <trkpt lat="22.907262" lon="109.148851">
        <ele>100.401368</ele>
        <time>2026-08-15T01:57:53.000Z</time>
      </trkpt>
      <trkpt lat="22.907252" lon="109.148901">
        <ele>100.433527</ele>
        <time>2026-08-15T01:57:54.000Z</time>
      </trkpt>
      <trkpt lat="22.907242" lon="109.148950">
        <ele>100.465073</ele>
        <time>2026-08-15T01:57:55.000Z</time>
      </trkpt>
      <trkpt lat="22.907234" lon="109.149000">
        <ele>100.496971</ele>
        <time>2026-08-15T01:57:56.000Z</time>
      </trkpt>
      <trkpt lat="22.907227" lon="109.149049">
        <ele>100.528139</ele>
        <time>2026-08-15T01:57:57.000Z</time>
      </trkpt>
      <trkpt lat="22.907218" lon="109.149098">
        <ele>100.559544</ele>
        <time>2026-08-15T01:57:58.000Z</time>
      </trkpt>
      <trkpt lat="22.907209" lon="109.149148">
        <ele>100.591566</ele>
        <time>2026-08-15T01:57:59.000Z</time>
      </trkpt>
      <trkpt lat="22.907198" lon="109.149198">
        <ele>100.623878</ele>
        <time>2026-08-15T01:58:00.000Z</time>
      </trkpt>
      <trkpt lat="22.907190" lon="109.149247">
        <ele>100.655157</ele>
        <time>2026-08-15T01:58:01.000Z</time>
      </trkpt>
      <trkpt lat="22.907183" lon="109.149300">
        <ele>100.688811</ele>
        <time>2026-08-15T01:58:02.000Z</time>
      </trkpt>
      <trkpt lat="22.907173" lon="109.149351">
        <ele>100.721585</ele>
        <time>2026-08-15T01:58:03.000Z</time>
      </trkpt>
      <trkpt lat="22.907160" lon="109.149403">
        <ele>100.755452</ele>
        <time>2026-08-15T01:58:04.000Z</time>
      </trkpt>
      <trkpt lat="22.907149" lon="109.149454">
        <ele>100.788376</ele>
        <time>2026-08-15T01:58:05.000Z</time>
      </trkpt>
      <trkpt lat="22.907138" lon="109.149505">
        <ele>100.796374</ele>
        <time>2026-08-15T01:58:06.000Z</time>
      </trkpt>
      <trkpt lat="22.907124" lon="109.149554">
        <ele>100.792092</ele>
        <time>2026-08-15T01:58:07.000Z</time>
      </trkpt>
      <trkpt lat="22.907110" lon="109.149602">
        <ele>100.787889</ele>
        <time>2026-08-15T01:58:08.000Z</time>
      </trkpt>
      <trkpt lat="22.907101" lon="109.149650">
        <ele>100.783801</ele>
        <time>2026-08-15T01:58:09.000Z</time>
      </trkpt>
      <trkpt lat="22.907091" lon="109.149700">
        <ele>100.779530</ele>
        <time>2026-08-15T01:58:10.000Z</time>
      </trkpt>
      <trkpt lat="22.907081" lon="109.149750">
        <ele>100.775259</ele>
        <time>2026-08-15T01:58:11.000Z</time>
      </trkpt>
      <trkpt lat="22.907072" lon="109.149800">
        <ele>100.771007</ele>
        <time>2026-08-15T01:58:12.000Z</time>
      </trkpt>
      <trkpt lat="22.907063" lon="109.149849">
        <ele>100.766836</ele>
        <time>2026-08-15T01:58:13.000Z</time>
      </trkpt>
      <trkpt lat="22.907054" lon="109.149898">
        <ele>100.762666</ele>
        <time>2026-08-15T01:58:14.000Z</time>
      </trkpt>
      <trkpt lat="22.907045" lon="109.149948">
        <ele>100.758414</ele>
        <time>2026-08-15T01:58:15.000Z</time>
      </trkpt>
      <trkpt lat="22.907036" lon="109.150001">
        <ele>100.753915</ele>
        <time>2026-08-15T01:58:16.000Z</time>
      </trkpt>
      <trkpt lat="22.907030" lon="109.150056">
        <ele>100.749292</ele>
        <time>2026-08-15T01:58:17.000Z</time>
      </trkpt>
      <trkpt lat="22.907019" lon="109.150112">
        <ele>100.744513</ele>
        <time>2026-08-15T01:58:18.000Z</time>
      </trkpt>
      <trkpt lat="22.907007" lon="109.150169">
        <ele>100.739633</ele>
        <time>2026-08-15T01:58:19.000Z</time>
      </trkpt>
      <trkpt lat="22.906995" lon="109.150228">
        <ele>100.734590</ele>
        <time>2026-08-15T01:58:20.000Z</time>
      </trkpt>
      <trkpt lat="22.906982" lon="109.150290">
        <ele>100.729282</ele>
        <time>2026-08-15T01:58:21.000Z</time>
      </trkpt>
      <trkpt lat="22.906969" lon="109.150353">
        <ele>100.723893</ele>
        <time>2026-08-15T01:58:22.000Z</time>
      </trkpt>
      <trkpt lat="22.906956" lon="109.150415">
        <ele>100.718586</ele>
        <time>2026-08-15T01:58:23.000Z</time>
      </trkpt>
      <trkpt lat="22.906942" lon="109.150478">
        <ele>100.713177</ele>
        <time>2026-08-15T01:58:24.000Z</time>
      </trkpt>
      <trkpt lat="22.906929" lon="109.150540">
        <ele>100.707869</ele>
        <time>2026-08-15T01:58:25.000Z</time>
      </trkpt>
      <trkpt lat="22.906916" lon="109.150601">
        <ele>100.702643</ele>
        <time>2026-08-15T01:58:26.000Z</time>
      </trkpt>
      <trkpt lat="22.906904" lon="109.150661">
        <ele>100.697518</ele>
        <time>2026-08-15T01:58:27.000Z</time>
      </trkpt>
      <trkpt lat="22.906889" lon="109.150722">
        <ele>100.692248</ele>
        <time>2026-08-15T01:58:28.000Z</time>
      </trkpt>
      <trkpt lat="22.906874" lon="109.150780">
        <ele>100.687220</ele>
        <time>2026-08-15T01:58:29.000Z</time>
      </trkpt>
      <trkpt lat="22.906860" lon="109.150838">
        <ele>100.682215</ele>
        <time>2026-08-15T01:58:30.000Z</time>
      </trkpt>
      <trkpt lat="22.906849" lon="109.150899">
        <ele>100.677027</ele>
        <time>2026-08-15T01:58:31.000Z</time>
      </trkpt>
      <trkpt lat="22.906838" lon="109.150962">
        <ele>100.671675</ele>
        <time>2026-08-15T01:58:32.000Z</time>
      </trkpt>
      <trkpt lat="22.906824" lon="109.151027">
        <ele>100.666103</ele>
        <time>2026-08-15T01:58:33.000Z</time>
      </trkpt>
      <trkpt lat="22.906812" lon="109.151090">
        <ele>100.660734</ele>
        <time>2026-08-15T01:58:34.000Z</time>
      </trkpt>
      <trkpt lat="22.906802" lon="109.151153">
        <ele>100.655397</ele>
        <time>2026-08-15T01:58:35.000Z</time>
      </trkpt>
      <trkpt lat="22.906789" lon="109.151216">
        <ele>100.650009</ele>
        <time>2026-08-15T01:58:36.000Z</time>
      </trkpt>
      <trkpt lat="22.906776" lon="109.151278">
        <ele>100.644701</ele>
        <time>2026-08-15T01:58:37.000Z</time>
      </trkpt>
      <trkpt lat="22.906763" lon="109.151338">
        <ele>100.639556</ele>
        <time>2026-08-15T01:58:38.000Z</time>
      </trkpt>
      <trkpt lat="22.906752" lon="109.151399">
        <ele>100.644844</ele>
        <time>2026-08-15T01:58:39.000Z</time>
      </trkpt>
      <trkpt lat="22.906740" lon="109.151460">
        <ele>100.667682</ele>
        <time>2026-08-15T01:58:40.000Z</time>
      </trkpt>
      <trkpt lat="22.906730" lon="109.151517">
        <ele>100.688928</ele>
        <time>2026-08-15T01:58:41.000Z</time>
      </trkpt>
      <trkpt lat="22.906721" lon="109.151577">
        <ele>100.711186</ele>
        <time>2026-08-15T01:58:42.000Z</time>
      </trkpt>
      <trkpt lat="22.906713" lon="109.151638">
        <ele>100.733747</ele>
        <time>2026-08-15T01:58:43.000Z</time>
      </trkpt>
      <trkpt lat="22.906708" lon="109.151695">
        <ele>100.754712</ele>
        <time>2026-08-15T01:58:44.000Z</time>
      </trkpt>
      <trkpt lat="22.906703" lon="109.151750">
        <ele>100.774948</ele>
        <time>2026-08-15T01:58:45.000Z</time>
      </trkpt>
      <trkpt lat="22.906701" lon="109.151804">
        <ele>100.794736</ele>
        <time>2026-08-15T01:58:46.000Z</time>
      </trkpt>
      <trkpt lat="22.906697" lon="109.151854">
        <ele>100.813112</ele>
        <time>2026-08-15T01:58:47.000Z</time>
      </trkpt>
      <trkpt lat="22.906690" lon="109.151906">
        <ele>100.832354</ele>
        <time>2026-08-15T01:58:48.000Z</time>
      </trkpt>
      <trkpt lat="22.906684" lon="109.151957">
        <ele>100.851179</ele>
        <time>2026-08-15T01:58:49.000Z</time>
      </trkpt>
      <trkpt lat="22.906680" lon="109.152007">
        <ele>100.869556</ele>
        <time>2026-08-15T01:58:50.000Z</time>
      </trkpt>
      <trkpt lat="22.906673" lon="109.152050">
        <ele>100.885544</ele>
        <time>2026-08-15T01:58:51.000Z</time>
      </trkpt>
      <trkpt lat="22.906669" lon="109.152098">
        <ele>100.903191</ele>
        <time>2026-08-15T01:58:52.000Z</time>
      </trkpt>
      <trkpt lat="22.906666" lon="109.152144">
        <ele>100.920076</ele>
        <time>2026-08-15T01:58:53.000Z</time>
      </trkpt>
      <trkpt lat="22.906664" lon="109.152187">
        <ele>100.935840</ele>
        <time>2026-08-15T01:58:54.000Z</time>
      </trkpt>
      <trkpt lat="22.906661" lon="109.152236">
        <ele>100.953821</ele>
        <time>2026-08-15T01:58:55.000Z</time>
      </trkpt>
      <trkpt lat="22.906658" lon="109.152285">
        <ele>100.971802</ele>
        <time>2026-08-15T01:58:56.000Z</time>
      </trkpt>
      <trkpt lat="22.906657" lon="109.152332">
        <ele>100.989016</ele>
        <time>2026-08-15T01:58:57.000Z</time>
      </trkpt>
      <trkpt lat="22.906657" lon="109.152378">
        <ele>101.005858</ele>
        <time>2026-08-15T01:58:58.000Z</time>
      </trkpt>
      <trkpt lat="22.906660" lon="109.152427">
        <ele>101.023839</ele>
        <time>2026-08-15T01:58:59.000Z</time>
      </trkpt>
      <trkpt lat="22.906660" lon="109.152477">
        <ele>101.042147</ele>
        <time>2026-08-15T01:59:00.000Z</time>
      </trkpt>
      <trkpt lat="22.906655" lon="109.152527">
        <ele>101.060562</ele>
        <time>2026-08-15T01:59:01.000Z</time>
      </trkpt>
      <trkpt lat="22.906651" lon="109.152578">
        <ele>101.079303</ele>
        <time>2026-08-15T01:59:02.000Z</time>
      </trkpt>
      <trkpt lat="22.906651" lon="109.152630">
        <ele>101.098343</ele>
        <time>2026-08-15T01:59:03.000Z</time>
      </trkpt>
      <trkpt lat="22.906651" lon="109.152683">
        <ele>101.117749</ele>
        <time>2026-08-15T01:59:04.000Z</time>
      </trkpt>
      <trkpt lat="22.906651" lon="109.152736">
        <ele>101.137154</ele>
        <time>2026-08-15T01:59:05.000Z</time>
      </trkpt>
      <trkpt lat="22.906651" lon="109.152790">
        <ele>101.156926</ele>
        <time>2026-08-15T01:59:06.000Z</time>
      </trkpt>
      <trkpt lat="22.906651" lon="109.152844">
        <ele>101.176698</ele>
        <time>2026-08-15T01:59:07.000Z</time>
      </trkpt>
      <trkpt lat="22.906651" lon="109.152897">
        <ele>101.196104</ele>
        <time>2026-08-15T01:59:08.000Z</time>
      </trkpt>
      <trkpt lat="22.906650" lon="109.152951">
        <ele>101.215880</ele>
        <time>2026-08-15T01:59:09.000Z</time>
      </trkpt>
      <trkpt lat="22.906651" lon="109.153007">
        <ele>101.236389</ele>
        <time>2026-08-15T01:59:10.000Z</time>
      </trkpt>
      <trkpt lat="22.906652" lon="109.153064">
        <ele>101.257263</ele>
        <time>2026-08-15T01:59:11.000Z</time>
      </trkpt>
      <trkpt lat="22.906657" lon="109.153124">
        <ele>101.279321</ele>
        <time>2026-08-15T01:59:12.000Z</time>
      </trkpt>
      <trkpt lat="22.906657" lon="109.153182">
        <ele>101.300558</ele>
        <time>2026-08-15T01:59:13.000Z</time>
      </trkpt>
      <trkpt lat="22.906656" lon="109.153239">
        <ele>101.321432</ele>
        <time>2026-08-15T01:59:14.000Z</time>
      </trkpt>
      <trkpt lat="22.906655" lon="109.153301">
        <ele>101.344137</ele>
        <time>2026-08-15T01:59:15.000Z</time>
      </trkpt>
      <trkpt lat="22.906657" lon="109.153365">
        <ele>101.323844</ele>
        <time>2026-08-15T01:59:16.000Z</time>
      </trkpt>
      <trkpt lat="22.906657" lon="109.153430">
        <ele>101.283854</ele>
        <time>2026-08-15T01:59:17.000Z</time>
      </trkpt>
      <trkpt lat="22.906655" lon="109.153494">
        <ele>101.244456</ele>
        <time>2026-08-15T01:59:18.000Z</time>
      </trkpt>
      <trkpt lat="22.906655" lon="109.153562">
        <ele>101.202620</ele>
        <time>2026-08-15T01:59:19.000Z</time>
      </trkpt>
      <trkpt lat="22.906653" lon="109.153630">
        <ele>101.160763</ele>
        <time>2026-08-15T01:59:20.000Z</time>
      </trkpt>
      <trkpt lat="22.906651" lon="109.153699">
        <ele>101.118291</ele>
        <time>2026-08-15T01:59:21.000Z</time>
      </trkpt>
      <trkpt lat="22.906649" lon="109.153769">
        <ele>101.075204</ele>
        <time>2026-08-15T01:59:22.000Z</time>
      </trkpt>
      <trkpt lat="22.906646" lon="109.153839">
        <ele>101.032091</ele>
        <time>2026-08-15T01:59:23.000Z</time>
      </trkpt>
      <trkpt lat="22.906641" lon="109.153908">
        <ele>100.989509</ele>
        <time>2026-08-15T01:59:24.000Z</time>
      </trkpt>
      <trkpt lat="22.906636" lon="109.153977">
        <ele>100.946927</ele>
        <time>2026-08-15T01:59:25.000Z</time>
      </trkpt>
      <trkpt lat="22.906629" lon="109.154044">
        <ele>100.905442</ele>
        <time>2026-08-15T01:59:26.000Z</time>
      </trkpt>
      <trkpt lat="22.906619" lon="109.154111">
        <ele>100.863684</ele>
        <time>2026-08-15T01:59:27.000Z</time>
      </trkpt>
      <trkpt lat="22.906608" lon="109.154178">
        <ele>100.821813</ele>
        <time>2026-08-15T01:59:28.000Z</time>
      </trkpt>
      <trkpt lat="22.906597" lon="109.154244">
        <ele>100.780549</ele>
        <time>2026-08-15T01:59:29.000Z</time>
      </trkpt>
      <trkpt lat="22.906584" lon="109.154310">
        <ele>100.739025</ele>
        <time>2026-08-15T01:59:30.000Z</time>
      </trkpt>
      <trkpt lat="22.906570" lon="109.154376">
        <ele>100.697357</ele>
        <time>2026-08-15T01:59:31.000Z</time>
      </trkpt>
      <trkpt lat="22.906554" lon="109.154441">
        <ele>100.655964</ele>
        <time>2026-08-15T01:59:32.000Z</time>
      </trkpt>
      <trkpt lat="22.906539" lon="109.154503">
        <ele>100.616526</ele>
        <time>2026-08-15T01:59:33.000Z</time>
      </trkpt>
      <trkpt lat="22.906525" lon="109.154563">
        <ele>100.578446</ele>
        <time>2026-08-15T01:59:34.000Z</time>
      </trkpt>
      <trkpt lat="22.906510" lon="109.154624">
        <ele>100.539602</ele>
        <time>2026-08-15T01:59:35.000Z</time>
      </trkpt>
      <trkpt lat="22.906495" lon="109.154685">
        <ele>100.500759</ele>
        <time>2026-08-15T01:59:36.000Z</time>
      </trkpt>
      <trkpt lat="22.906479" lon="109.154743">
        <ele>100.463509</ele>
        <time>2026-08-15T01:59:37.000Z</time>
      </trkpt>
      <trkpt lat="22.906464" lon="109.154802">
        <ele>100.425853</ele>
        <time>2026-08-15T01:59:38.000Z</time>
      </trkpt>
      <trkpt lat="22.906447" lon="109.154861">
        <ele>100.387820</ele>
        <time>2026-08-15T01:59:39.000Z</time>
      </trkpt>
      <trkpt lat="22.906429" lon="109.154918">
        <ele>100.350748</ele>
        <time>2026-08-15T01:59:40.000Z</time>
      </trkpt>
      <trkpt lat="22.906410" lon="109.154974">
        <ele>100.314032</ele>
        <time>2026-08-15T01:59:41.000Z</time>
      </trkpt>
      <trkpt lat="22.906393" lon="109.155032">
        <ele>100.276586</ele>
        <time>2026-08-15T01:59:42.000Z</time>
      </trkpt>
      <trkpt lat="22.906378" lon="109.155090">
        <ele>100.239523</ele>
        <time>2026-08-15T01:59:43.000Z</time>
      </trkpt>
      <trkpt lat="22.906365" lon="109.155149">
        <ele>100.202200</ele>
        <time>2026-08-15T01:59:44.000Z</time>
      </trkpt>
      <trkpt lat="22.906349" lon="109.155206">
        <ele>100.165539</ele>
        <time>2026-08-15T01:59:45.000Z</time>
      </trkpt>
      <trkpt lat="22.906331" lon="109.155264">
        <ele>100.166202</ele>
        <time>2026-08-15T01:59:46.000Z</time>
      </trkpt>
      <trkpt lat="22.906312" lon="109.155324">
        <ele>100.194970</ele>
        <time>2026-08-15T01:59:47.000Z</time>
      </trkpt>
      <trkpt lat="22.906291" lon="109.155384">
        <ele>100.224072</ele>
        <time>2026-08-15T01:59:48.000Z</time>
      </trkpt>
      <trkpt lat="22.906271" lon="109.155445">
        <ele>100.253430</ele>
        <time>2026-08-15T01:59:49.000Z</time>
      </trkpt>
      <trkpt lat="22.906254" lon="109.155506">
        <ele>100.282327</ele>
        <time>2026-08-15T01:59:50.000Z</time>
      </trkpt>
      <trkpt lat="22.906236" lon="109.155566">
        <ele>100.310938</ele>
        <time>2026-08-15T01:59:51.000Z</time>
      </trkpt>
      <trkpt lat="22.906216" lon="109.155626">
        <ele>100.339870</ele>
        <time>2026-08-15T01:59:52.000Z</time>
      </trkpt>
      <trkpt lat="22.906197" lon="109.155686">
        <ele>100.368638</ele>
        <time>2026-08-15T01:59:53.000Z</time>
      </trkpt>
      <trkpt lat="22.906179" lon="109.155744">
        <ele>100.396388</ele>
        <time>2026-08-15T01:59:54.000Z</time>
      </trkpt>
      <trkpt lat="22.906162" lon="109.155803">
        <ele>100.424418</ele>
        <time>2026-08-15T01:59:55.000Z</time>
      </trkpt>
      <trkpt lat="22.906146" lon="109.155861">
        <ele>100.451870</ele>
        <time>2026-08-15T01:59:56.000Z</time>
      </trkpt>
      <trkpt lat="22.906129" lon="109.155918">
        <ele>100.479036</ele>
        <time>2026-08-15T01:59:57.000Z</time>
      </trkpt>
      <trkpt lat="22.906112" lon="109.155976">
        <ele>100.506633</ele>
        <time>2026-08-15T01:59:58.000Z</time>
      </trkpt>
      <trkpt lat="22.906092" lon="109.156033">
        <ele>100.534290</ele>
        <time>2026-08-15T01:59:59.000Z</time>
      </trkpt>
      <trkpt lat="22.906075" lon="109.156090">
        <ele>100.561455</ele>
        <time>2026-08-15T02:00:00.000Z</time>
      </trkpt>
      <trkpt lat="22.906059" lon="109.156148">
        <ele>100.588908</ele>
        <time>2026-08-15T02:00:01.000Z</time>
      </trkpt>
      <trkpt lat="22.906040" lon="109.156202">
        <ele>100.615118</ele>
        <time>2026-08-15T02:00:02.000Z</time>
      </trkpt>
      <trkpt lat="22.906022" lon="109.156257">
        <ele>100.641583</ele>
        <time>2026-08-15T02:00:03.000Z</time>
      </trkpt>
      <trkpt lat="22.906004" lon="109.156312">
        <ele>100.668048</ele>
        <time>2026-08-15T02:00:04.000Z</time>
      </trkpt>
      <trkpt lat="22.905986" lon="109.156366">
        <ele>100.694086</ele>
        <time>2026-08-15T02:00:05.000Z</time>
      </trkpt>
      <trkpt lat="22.905969" lon="109.156422">
        <ele>100.720821</ele>
        <time>2026-08-15T02:00:06.000Z</time>
      </trkpt>
      <trkpt lat="22.905954" lon="109.156476">
        <ele>100.746395</ele>
        <time>2026-08-15T02:00:07.000Z</time>
      </trkpt>
      <trkpt lat="22.905937" lon="109.156527">
        <ele>100.770986</ele>
        <time>2026-08-15T02:00:08.000Z</time>
      </trkpt>
      <trkpt lat="22.905918" lon="109.156578">
        <ele>100.795930</ele>
        <time>2026-08-15T02:00:09.000Z</time>
      </trkpt>
      <trkpt lat="22.905902" lon="109.156631">
        <ele>100.821219</ele>
        <time>2026-08-15T02:00:10.000Z</time>
      </trkpt>
      <trkpt lat="22.905886" lon="109.156683">
        <ele>100.846078</ele>
        <time>2026-08-15T02:00:11.000Z</time>
      </trkpt>
      <trkpt lat="22.905872" lon="109.156736">
        <ele>100.871077</ele>
        <time>2026-08-15T02:00:12.000Z</time>
      </trkpt>
      <trkpt lat="22.905857" lon="109.156787">
        <ele>100.895352</ele>
        <time>2026-08-15T02:00:13.000Z</time>
      </trkpt>
      <trkpt lat="22.905838" lon="109.156835">
        <ele>100.919040</ele>
        <time>2026-08-15T02:00:14.000Z</time>
      </trkpt>
      <trkpt lat="22.905821" lon="109.156884">
        <ele>100.942781</ele>
        <time>2026-08-15T02:00:15.000Z</time>
      </trkpt>
      <trkpt lat="22.905807" lon="109.156935">
        <ele>100.966911</ele>
        <time>2026-08-15T02:00:16.000Z</time>
      </trkpt>
      <trkpt lat="22.905793" lon="109.156987">
        <ele>100.991475</ele>
        <time>2026-08-15T02:00:17.000Z</time>
      </trkpt>
      <trkpt lat="22.905775" lon="109.157036">
        <ele>101.015394</ele>
        <time>2026-08-15T02:00:18.000Z</time>
      </trkpt>
      <trkpt lat="22.905759" lon="109.157086">
        <ele>101.033999</ele>
        <time>2026-08-15T02:00:19.000Z</time>
      </trkpt>
      <trkpt lat="22.905742" lon="109.157135">
        <ele>101.026485</ele>
        <time>2026-08-15T02:00:20.000Z</time>
      </trkpt>
      <trkpt lat="22.905724" lon="109.157186">
        <ele>101.018647</ele>
        <time>2026-08-15T02:00:21.000Z</time>
      </trkpt>
      <trkpt lat="22.905707" lon="109.157238">
        <ele>101.010728</ele>
        <time>2026-08-15T02:00:22.000Z</time>
      </trkpt>
      <trkpt lat="22.905690" lon="109.157290">
        <ele>101.002809</ele>
        <time>2026-08-15T02:00:23.000Z</time>
      </trkpt>
      <trkpt lat="22.905675" lon="109.157341">
        <ele>100.995126</ele>
        <time>2026-08-15T02:00:24.000Z</time>
      </trkpt>
      <trkpt lat="22.905660" lon="109.157394">
        <ele>100.987169</ele>
        <time>2026-08-15T02:00:25.000Z</time>
      </trkpt>
      <trkpt lat="22.905647" lon="109.157446">
        <ele>100.979437</ele>
        <time>2026-08-15T02:00:26.000Z</time>
      </trkpt>
      <trkpt lat="22.905630" lon="109.157498">
        <ele>100.971518</ele>
        <time>2026-08-15T02:00:27.000Z</time>
      </trkpt>
      <trkpt lat="22.905615" lon="109.157550">
        <ele>100.963698</ele>
        <time>2026-08-15T02:00:28.000Z</time>
      </trkpt>
      <trkpt lat="22.905598" lon="109.157602">
        <ele>100.955780</ele>
        <time>2026-08-15T02:00:29.000Z</time>
      </trkpt>
      <trkpt lat="22.905578" lon="109.157652">
        <ele>100.947957</ele>
        <time>2026-08-15T02:00:30.000Z</time>
      </trkpt>
      <trkpt lat="22.905561" lon="109.157703">
        <ele>100.940173</ele>
        <time>2026-08-15T02:00:31.000Z</time>
      </trkpt>
      <trkpt lat="22.905543" lon="109.157756">
        <ele>100.932067</ele>
        <time>2026-08-15T02:00:32.000Z</time>
      </trkpt>
      <trkpt lat="22.905524" lon="109.157809">
        <ele>100.923905</ele>
        <time>2026-08-15T02:00:33.000Z</time>
      </trkpt>
      <trkpt lat="22.905507" lon="109.157864">
        <ele>100.915579</ele>
        <time>2026-08-15T02:00:34.000Z</time>
      </trkpt>
      <trkpt lat="22.905492" lon="109.157919">
        <ele>100.907347</ele>
        <time>2026-08-15T02:00:35.000Z</time>
      </trkpt>
      <trkpt lat="22.905477" lon="109.157974">
        <ele>100.899116</ele>
        <time>2026-08-15T02:00:36.000Z</time>
      </trkpt>
      <trkpt lat="22.905462" lon="109.158029">
        <ele>100.890884</ele>
        <time>2026-08-15T02:00:37.000Z</time>
      </trkpt>
      <trkpt lat="22.905445" lon="109.158086">
        <ele>100.882285</ele>
        <time>2026-08-15T02:00:38.000Z</time>
      </trkpt>
      <trkpt lat="22.905427" lon="109.158143">
        <ele>100.873638</ele>
        <time>2026-08-15T02:00:39.000Z</time>
      </trkpt>
      <trkpt lat="22.905407" lon="109.158201">
        <ele>100.864750</ele>
        <time>2026-08-15T02:00:40.000Z</time>
      </trkpt>
      <trkpt lat="22.905388" lon="109.158257">
        <ele>100.856186</ele>
        <time>2026-08-15T02:00:41.000Z</time>
      </trkpt>
      <trkpt lat="22.905368" lon="109.158314">
        <ele>100.847432</ele>
        <time>2026-08-15T02:00:42.000Z</time>
      </trkpt>
      <trkpt lat="22.905348" lon="109.158371">
        <ele>100.838679</ele>
        <time>2026-08-15T02:00:43.000Z</time>
      </trkpt>
      <trkpt lat="22.905329" lon="109.158430">
        <ele>100.829709</ele>
        <time>2026-08-15T02:00:44.000Z</time>
      </trkpt>
      <trkpt lat="22.905309" lon="109.158486">
        <ele>100.821090</ele>
        <time>2026-08-15T02:00:45.000Z</time>
      </trkpt>
      <trkpt lat="22.905290" lon="109.158542">
        <ele>100.812525</ele>
        <time>2026-08-15T02:00:46.000Z</time>
      </trkpt>
      <trkpt lat="22.905269" lon="109.158600">
        <ele>100.803581</ele>
        <time>2026-08-15T02:00:47.000Z</time>
      </trkpt>
      <trkpt lat="22.905249" lon="109.158658">
        <ele>100.794694</ele>
        <time>2026-08-15T02:00:48.000Z</time>
      </trkpt>
      <trkpt lat="22.905228" lon="109.158718">
        <ele>100.785482</ele>
        <time>2026-08-15T02:00:49.000Z</time>
      </trkpt>
      <trkpt lat="22.905205" lon="109.158776">
        <ele>100.776420</ele>
        <time>2026-08-15T02:00:50.000Z</time>
      </trkpt>
      <trkpt lat="22.905183" lon="109.158836">
        <ele>100.767152</ele>
        <time>2026-08-15T02:00:51.000Z</time>
      </trkpt>
      <trkpt lat="22.905158" lon="109.158896">
        <ele>100.757702</ele>
        <time>2026-08-15T02:00:52.000Z</time>
      </trkpt>
      <trkpt lat="22.905135" lon="109.158955">
        <ele>100.751885</ele>
        <time>2026-08-15T02:00:53.000Z</time>
      </trkpt>
      <trkpt lat="22.905109" lon="109.159013">
        <ele>100.747390</ele>
        <time>2026-08-15T02:00:54.000Z</time>
      </trkpt>
      <trkpt lat="22.905081" lon="109.159069">
        <ele>100.742949</ele>
        <time>2026-08-15T02:00:55.000Z</time>
      </trkpt>
      <trkpt lat="22.905051" lon="109.159125">
        <ele>100.738435</ele>
        <time>2026-08-15T02:00:56.000Z</time>
      </trkpt>
      <trkpt lat="22.905022" lon="109.159178">
        <ele>100.734139</ele>
        <time>2026-08-15T02:00:57.000Z</time>
      </trkpt>
      <trkpt lat="22.904993" lon="109.159229">
        <ele>100.729962</ele>
        <time>2026-08-15T02:00:58.000Z</time>
      </trkpt>
      <trkpt lat="22.904962" lon="109.159280">
        <ele>100.725703</ele>
        <time>2026-08-15T02:00:59.000Z</time>
      </trkpt>
      <trkpt lat="22.904931" lon="109.159329">
        <ele>100.721561</ele>
        <time>2026-08-15T02:01:00.000Z</time>
      </trkpt>
      <trkpt lat="22.904898" lon="109.159378">
        <ele>100.717330</ele>
        <time>2026-08-15T02:01:01.000Z</time>
      </trkpt>
      <trkpt lat="22.904865" lon="109.159425">
        <ele>100.713212</ele>
        <time>2026-08-15T02:01:02.000Z</time>
      </trkpt>
      <trkpt lat="22.904831" lon="109.159471">
        <ele>100.709102</ele>
        <time>2026-08-15T02:01:03.000Z</time>
      </trkpt>
      <trkpt lat="22.904796" lon="109.159517">
        <ele>100.704944</ele>
        <time>2026-08-15T02:01:04.000Z</time>
      </trkpt>
      <trkpt lat="22.904762" lon="109.159561">
        <ele>100.700941</ele>
        <time>2026-08-15T02:01:05.000Z</time>
      </trkpt>
      <trkpt lat="22.904726" lon="109.159604">
        <ele>100.696892</ele>
        <time>2026-08-15T02:01:06.000Z</time>
      </trkpt>
      <trkpt lat="22.904691" lon="109.159647">
        <ele>100.692893</ele>
        <time>2026-08-15T02:01:07.000Z</time>
      </trkpt>
      <trkpt lat="22.904656" lon="109.159690">
        <ele>100.688894</ele>
        <time>2026-08-15T02:01:08.000Z</time>
      </trkpt>
      <trkpt lat="22.904620" lon="109.159733">
        <ele>100.684844</ele>
        <time>2026-08-15T02:01:09.000Z</time>
      </trkpt>
      <trkpt lat="22.904586" lon="109.159773">
        <ele>100.681051</ele>
        <time>2026-08-15T02:01:10.000Z</time>
      </trkpt>
      <trkpt lat="22.904550" lon="109.159813">
        <ele>100.677154</ele>
        <time>2026-08-15T02:01:11.000Z</time>
      </trkpt>
      <trkpt lat="22.904513" lon="109.159854">
        <ele>100.673154</ele>
        <time>2026-08-15T02:01:12.000Z</time>
      </trkpt>
      <trkpt lat="22.904477" lon="109.159894">
        <ele>100.669256</ele>
        <time>2026-08-15T02:01:13.000Z</time>
      </trkpt>
      <trkpt lat="22.904439" lon="109.159935">
        <ele>100.665203</ele>
        <time>2026-08-15T02:01:14.000Z</time>
      </trkpt>
      <trkpt lat="22.904402" lon="109.159976">
        <ele>100.661203</ele>
        <time>2026-08-15T02:01:15.000Z</time>
      </trkpt>
      <trkpt lat="22.904365" lon="109.160017">
        <ele>100.657203</ele>
        <time>2026-08-15T02:01:16.000Z</time>
      </trkpt>
      <trkpt lat="22.904328" lon="109.160057">
        <ele>100.653252</ele>
        <time>2026-08-15T02:01:17.000Z</time>
      </trkpt>
      <trkpt lat="22.904290" lon="109.160097">
        <ele>100.649247</ele>
        <time>2026-08-15T02:01:18.000Z</time>
      </trkpt>
      <trkpt lat="22.904252" lon="109.160137">
        <ele>100.645243</ele>
        <time>2026-08-15T02:01:19.000Z</time>
      </trkpt>
      <trkpt lat="22.904213" lon="109.160178">
        <ele>100.641136</ele>
        <time>2026-08-15T02:01:20.000Z</time>
      </trkpt>
      <trkpt lat="22.904174" lon="109.160218">
        <ele>100.637076</ele>
        <time>2026-08-15T02:01:21.000Z</time>
      </trkpt>
      <trkpt lat="22.904136" lon="109.160258">
        <ele>100.633072</ele>
        <time>2026-08-15T02:01:22.000Z</time>
      </trkpt>
      <trkpt lat="22.904098" lon="109.160297">
        <ele>100.629115</ele>
        <time>2026-08-15T02:01:23.000Z</time>
      </trkpt>
      <trkpt lat="22.904061" lon="109.160338">
        <ele>100.625115</ele>
        <time>2026-08-15T02:01:24.000Z</time>
      </trkpt>
      <trkpt lat="22.904023" lon="109.160377">
        <ele>100.621159</ele>
        <time>2026-08-15T02:01:25.000Z</time>
      </trkpt>
      <trkpt lat="22.903985" lon="109.160416">
        <ele>100.602635</ele>
        <time>2026-08-15T02:01:26.000Z</time>
      </trkpt>
      <trkpt lat="22.903948" lon="109.160457">
        <ele>100.566119</ele>
        <time>2026-08-15T02:01:27.000Z</time>
      </trkpt>
      <trkpt lat="22.903910" lon="109.160497">
        <ele>100.529562</ele>
        <time>2026-08-15T02:01:28.000Z</time>
      </trkpt>
      <trkpt lat="22.903868" lon="109.160533">
        <ele>100.492603</ele>
        <time>2026-08-15T02:01:29.000Z</time>
      </trkpt>
      <trkpt lat="22.903831" lon="109.160573">
        <ele>100.456539</ele>
        <time>2026-08-15T02:01:30.000Z</time>
      </trkpt>
      <trkpt lat="22.903792" lon="109.160612">
        <ele>100.419918</ele>
        <time>2026-08-15T02:01:31.000Z</time>
      </trkpt>
      <trkpt lat="22.903753" lon="109.160652">
        <ele>100.382862</ele>
        <time>2026-08-15T02:01:32.000Z</time>
      </trkpt>
      <trkpt lat="22.903714" lon="109.160693">
        <ele>100.345367</ele>
        <time>2026-08-15T02:01:33.000Z</time>
      </trkpt>
      <trkpt lat="22.903675" lon="109.160735">
        <ele>100.307426</ele>
        <time>2026-08-15T02:01:34.000Z</time>
      </trkpt>
      <trkpt lat="22.903636" lon="109.160775">
        <ele>100.270370</ele>
        <time>2026-08-15T02:01:35.000Z</time>
      </trkpt>
      <trkpt lat="22.903597" lon="109.160815">
        <ele>100.233315</ele>
        <time>2026-08-15T02:01:36.000Z</time>
      </trkpt>
      <trkpt lat="22.903558" lon="109.160856">
        <ele>100.195819</ele>
        <time>2026-08-15T02:01:37.000Z</time>
      </trkpt>
      <trkpt lat="22.903520" lon="109.160898">
        <ele>100.158366</ele>
        <time>2026-08-15T02:01:38.000Z</time>
      </trkpt>
      <trkpt lat="22.903481" lon="109.160938">
        <ele>100.121310</ele>
        <time>2026-08-15T02:01:39.000Z</time>
      </trkpt>
      <trkpt lat="22.903441" lon="109.160980">
        <ele>100.082876</ele>
        <time>2026-08-15T02:01:40.000Z</time>
      </trkpt>
      <trkpt lat="22.903400" lon="109.161022">
        <ele>100.043943</ele>
        <time>2026-08-15T02:01:41.000Z</time>
      </trkpt>
      <trkpt lat="22.903360" lon="109.161063">
        <ele>100.005948</ele>
        <time>2026-08-15T02:01:42.000Z</time>
      </trkpt>
      <trkpt lat="22.903320" lon="109.161103">
        <ele>99.968387</ele>
        <time>2026-08-15T02:01:43.000Z</time>
      </trkpt>
      <trkpt lat="22.903280" lon="109.161143">
        <ele>99.930827</ele>
        <time>2026-08-15T02:01:44.000Z</time>
      </trkpt>
      <trkpt lat="22.903238" lon="109.161183">
        <ele>99.892239</ele>
        <time>2026-08-15T02:01:45.000Z</time>
      </trkpt>
      <trkpt lat="22.903198" lon="109.161223">
        <ele>99.854678</ele>
        <time>2026-08-15T02:01:46.000Z</time>
      </trkpt>
      <trkpt lat="22.903157" lon="109.161266">
        <ele>99.815305</ele>
        <time>2026-08-15T02:01:47.000Z</time>
      </trkpt>
      <trkpt lat="22.903116" lon="109.161311">
        <ele>99.775038</ele>
        <time>2026-08-15T02:01:48.000Z</time>
      </trkpt>
      <trkpt lat="22.903075" lon="109.161356">
        <ele>99.734770</ele>
        <time>2026-08-15T02:01:49.000Z</time>
      </trkpt>
      <trkpt lat="22.903032" lon="109.161400">
        <ele>99.693959</ele>
        <time>2026-08-15T02:01:50.000Z</time>
      </trkpt>
      <trkpt lat="22.902990" lon="109.161446">
        <ele>99.652754</ele>
        <time>2026-08-15T02:01:51.000Z</time>
      </trkpt>
      <trkpt lat="22.902946" lon="109.161492">
        <ele>99.610564</ele>
        <time>2026-08-15T02:01:52.000Z</time>
      </trkpt>
      <trkpt lat="22.902902" lon="109.161537">
        <ele>99.568814</ele>
        <time>2026-08-15T02:01:53.000Z</time>
      </trkpt>
      <trkpt lat="22.902857" lon="109.161580">
        <ele>99.527410</ele>
        <time>2026-08-15T02:01:54.000Z</time>
      </trkpt>
      <trkpt lat="22.902812" lon="109.161625">
        <ele>99.485154</ele>
        <time>2026-08-15T02:01:55.000Z</time>
      </trkpt>
      <trkpt lat="22.902769" lon="109.161671">
        <ele>99.443459</ele>
        <time>2026-08-15T02:01:56.000Z</time>
      </trkpt>
      <trkpt lat="22.902724" lon="109.161716">
        <ele>99.401203</ele>
        <time>2026-08-15T02:01:57.000Z</time>
      </trkpt>
      <trkpt lat="22.902681" lon="109.161762">
        <ele>99.344009</ele>
        <time>2026-08-15T02:01:58.000Z</time>
      </trkpt>
      <trkpt lat="22.902638" lon="109.161811">
        <ele>99.262269</ele>
        <time>2026-08-15T02:01:59.000Z</time>
      </trkpt>
      <trkpt lat="22.902595" lon="109.161859">
        <ele>99.181399</ele>
        <time>2026-08-15T02:02:00.000Z</time>
      </trkpt>
      <trkpt lat="22.902553" lon="109.161907">
        <ele>99.101437</ele>
        <time>2026-08-15T02:02:01.000Z</time>
      </trkpt>
      <trkpt lat="22.902508" lon="109.161954">
        <ele>99.019560</ele>
        <time>2026-08-15T02:02:02.000Z</time>
      </trkpt>
      <trkpt lat="22.902463" lon="109.162000">
        <ele>98.938515</ele>
        <time>2026-08-15T02:02:03.000Z</time>
      </trkpt>
      <trkpt lat="22.902420" lon="109.162047">
        <ele>98.858506</ele>
        <time>2026-08-15T02:02:04.000Z</time>
      </trkpt>
      <trkpt lat="22.902379" lon="109.162098">
        <ele>98.776748</ele>
        <time>2026-08-15T02:02:05.000Z</time>
      </trkpt>
      <trkpt lat="22.902337" lon="109.162146">
        <ele>98.696786</ele>
        <time>2026-08-15T02:02:06.000Z</time>
      </trkpt>
      <trkpt lat="22.902297" lon="109.162195">
        <ele>98.617708</ele>
        <time>2026-08-15T02:02:07.000Z</time>
      </trkpt>
      <trkpt lat="22.902255" lon="109.162242">
        <ele>98.538618</ele>
        <time>2026-08-15T02:02:08.000Z</time>
      </trkpt>
      <trkpt lat="22.902210" lon="109.162288">
        <ele>98.457573</ele>
        <time>2026-08-15T02:02:09.000Z</time>
      </trkpt>
      <trkpt lat="22.902166" lon="109.162333">
        <ele>98.378310</ele>
        <time>2026-08-15T02:02:10.000Z</time>
      </trkpt>
      <trkpt lat="22.902123" lon="109.162378">
        <ele>98.299997</ele>
        <time>2026-08-15T02:02:11.000Z</time>
      </trkpt>
      <trkpt lat="22.902079" lon="109.162424">
        <ele>98.219901</ele>
        <time>2026-08-15T02:02:12.000Z</time>
      </trkpt>
      <trkpt lat="22.902035" lon="109.162471">
        <ele>98.138963</ele>
        <time>2026-08-15T02:02:13.000Z</time>
      </trkpt>
      <trkpt lat="22.901990" lon="109.162516">
        <ele>98.058742</ele>
        <time>2026-08-15T02:02:14.000Z</time>
      </trkpt>
      <trkpt lat="22.901946" lon="109.162564">
        <ele>97.976952</ele>
        <time>2026-08-15T02:02:15.000Z</time>
      </trkpt>
      <trkpt lat="22.901904" lon="109.162612">
        <ele>97.896990</ele>
        <time>2026-08-15T02:02:16.000Z</time>
      </trkpt>
      <trkpt lat="22.901860" lon="109.162657">
        <ele>97.817728</ele>
        <time>2026-08-15T02:02:17.000Z</time>
      </trkpt>
      <trkpt lat="22.901816" lon="109.162703">
        <ele>97.737632</ele>
        <time>2026-08-15T02:02:18.000Z</time>
      </trkpt>
      <trkpt lat="22.901774" lon="109.162749">
        <ele>97.659404</ele>
        <time>2026-08-15T02:02:19.000Z</time>
      </trkpt>
      <trkpt lat="22.901732" lon="109.162796">
        <ele>97.580314</ele>
        <time>2026-08-15T02:02:20.000Z</time>
      </trkpt>
      <trkpt lat="22.901691" lon="109.162844">
        <ele>97.501249</ele>
        <time>2026-08-15T02:02:21.000Z</time>
      </trkpt>
      <trkpt lat="22.901650" lon="109.162891">
        <ele>97.423066</ele>
        <time>2026-08-15T02:02:22.000Z</time>
      </trkpt>
      <trkpt lat="22.901608" lon="109.162938">
        <ele>97.343976</ele>
        <time>2026-08-15T02:02:23.000Z</time>
      </trkpt>
      <trkpt lat="22.901567" lon="109.162986">
        <ele>97.264911</ele>
        <time>2026-08-15T02:02:24.000Z</time>
      </trkpt>
      <trkpt lat="22.901526" lon="109.163034">
        <ele>97.185847</ele>
        <time>2026-08-15T02:02:25.000Z</time>
      </trkpt>
      <trkpt lat="22.901486" lon="109.163084">
        <ele>97.105860</ele>
        <time>2026-08-15T02:02:26.000Z</time>
      </trkpt>
      <trkpt lat="22.901446" lon="109.163136">
        <ele>97.024034</ele>
        <time>2026-08-15T02:02:27.000Z</time>
      </trkpt>
      <trkpt lat="22.901408" lon="109.163190">
        <ele>96.862370</ele>
        <time>2026-08-15T02:02:28.000Z</time>
      </trkpt>
      <trkpt lat="22.901370" lon="109.163247">
        <ele>96.688910</ele>
        <time>2026-08-15T02:02:29.000Z</time>
      </trkpt>
      <trkpt lat="22.901332" lon="109.163306">
        <ele>96.511433</ele>
        <time>2026-08-15T02:02:30.000Z</time>
      </trkpt>
      <trkpt lat="22.901295" lon="109.163369">
        <ele>96.327240</ele>
        <time>2026-08-15T02:02:31.000Z</time>
      </trkpt>
      <trkpt lat="22.901259" lon="109.163432">
        <ele>96.144473</ele>
        <time>2026-08-15T02:02:32.000Z</time>
      </trkpt>
      <trkpt lat="22.901223" lon="109.163497">
        <ele>95.957497</ele>
        <time>2026-08-15T02:02:33.000Z</time>
      </trkpt>
      <trkpt lat="22.901188" lon="109.163562">
        <ele>95.771886</ele>
        <time>2026-08-15T02:02:34.000Z</time>
      </trkpt>
      <trkpt lat="22.901151" lon="109.163628">
        <ele>95.581415</ele>
        <time>2026-08-15T02:02:35.000Z</time>
      </trkpt>
      <trkpt lat="22.901114" lon="109.163695">
        <ele>95.388834</ele>
        <time>2026-08-15T02:02:36.000Z</time>
      </trkpt>
      <trkpt lat="22.901078" lon="109.163764">
        <ele>95.193341</ele>
        <time>2026-08-15T02:02:37.000Z</time>
      </trkpt>
      <trkpt lat="22.901042" lon="109.163833">
        <ele>94.997848</ele>
        <time>2026-08-15T02:02:38.000Z</time>
      </trkpt>
      <trkpt lat="22.901005" lon="109.163905">
        <ele>94.794596</ele>
        <time>2026-08-15T02:02:39.000Z</time>
      </trkpt>
      <trkpt lat="22.900968" lon="109.163978">
        <ele>94.589188</ele>
        <time>2026-08-15T02:02:40.000Z</time>
      </trkpt>
      <trkpt lat="22.900928" lon="109.164050">
        <ele>94.381906</ele>
        <time>2026-08-15T02:02:41.000Z</time>
      </trkpt>
      <trkpt lat="22.900887" lon="109.164125">
        <ele>94.166903</ele>
        <time>2026-08-15T02:02:42.000Z</time>
      </trkpt>
      <trkpt lat="22.900847" lon="109.164201">
        <ele>93.951117</ele>
        <time>2026-08-15T02:02:43.000Z</time>
      </trkpt>
      <trkpt lat="22.900809" lon="109.164276">
        <ele>93.740098</ele>
        <time>2026-08-15T02:02:44.000Z</time>
      </trkpt>
      <trkpt lat="22.900769" lon="109.164350">
        <ele>93.528579</ele>
        <time>2026-08-15T02:02:45.000Z</time>
      </trkpt>
      <trkpt lat="22.900729" lon="109.164421">
        <ele>93.323404</ele>
        <time>2026-08-15T02:02:46.000Z</time>
      </trkpt>
      <trkpt lat="22.900690" lon="109.164494">
        <ele>93.115362</ele>
        <time>2026-08-15T02:02:47.000Z</time>
      </trkpt>
      <trkpt lat="22.900653" lon="109.164568">
        <ele>92.907790</ele>
        <time>2026-08-15T02:02:48.000Z</time>
      </trkpt>
      <trkpt lat="22.900618" lon="109.164641">
        <ele>92.704907</ele>
        <time>2026-08-15T02:02:49.000Z</time>
      </trkpt>
      <trkpt lat="22.900583" lon="109.164714">
        <ele>92.502024</ele>
        <time>2026-08-15T02:02:50.000Z</time>
      </trkpt>
      <trkpt lat="22.900547" lon="109.164785">
        <ele>92.302226</ele>
        <time>2026-08-15T02:02:51.000Z</time>
      </trkpt>
      <trkpt lat="22.900513" lon="109.164856">
        <ele>92.194518</ele>
        <time>2026-08-15T02:02:52.000Z</time>
      </trkpt>
      <trkpt lat="22.900481" lon="109.164925">
        <ele>92.174846</ele>
        <time>2026-08-15T02:02:53.000Z</time>
      </trkpt>
      <trkpt lat="22.900449" lon="109.164995">
        <ele>92.154947</ele>
        <time>2026-08-15T02:02:54.000Z</time>
      </trkpt>
      <trkpt lat="22.900418" lon="109.165061">
        <ele>92.136082</ele>
        <time>2026-08-15T02:02:55.000Z</time>
      </trkpt>
      <trkpt lat="22.900386" lon="109.165126">
        <ele>92.117314</ele>
        <time>2026-08-15T02:02:56.000Z</time>
      </trkpt>
      <trkpt lat="22.900355" lon="109.165191">
        <ele>92.098676</ele>
        <time>2026-08-15T02:02:57.000Z</time>
      </trkpt>
      <trkpt lat="22.900325" lon="109.165255">
        <ele>92.080390</ele>
        <time>2026-08-15T02:02:58.000Z</time>
      </trkpt>
      <trkpt lat="22.900298" lon="109.165319">
        <ele>92.062465</ele>
        <time>2026-08-15T02:02:59.000Z</time>
      </trkpt>
      <trkpt lat="22.900272" lon="109.165383">
        <ele>92.044653</ele>
        <time>2026-08-15T02:03:00.000Z</time>
      </trkpt>
      <trkpt lat="22.900249" lon="109.165447">
        <ele>92.027160</ele>
        <time>2026-08-15T02:03:01.000Z</time>
      </trkpt>
      <trkpt lat="22.900229" lon="109.165509">
        <ele>92.010432</ele>
        <time>2026-08-15T02:03:02.000Z</time>
      </trkpt>
      <trkpt lat="22.900210" lon="109.165570">
        <ele>91.994035</ele>
        <time>2026-08-15T02:03:03.000Z</time>
      </trkpt>
      <trkpt lat="22.900192" lon="109.165633">
        <ele>91.977238</ele>
        <time>2026-08-15T02:03:04.000Z</time>
      </trkpt>
      <trkpt lat="22.900174" lon="109.165694">
        <ele>91.960928</ele>
        <time>2026-08-15T02:03:05.000Z</time>
      </trkpt>
      <trkpt lat="22.900156" lon="109.165754">
        <ele>91.944859</ele>
        <time>2026-08-15T02:03:06.000Z</time>
      </trkpt>
      <trkpt lat="22.900143" lon="109.165813">
        <ele>91.929411</ele>
        <time>2026-08-15T02:03:07.000Z</time>
      </trkpt>
      <trkpt lat="22.900131" lon="109.165873">
        <ele>91.913777</ele>
        <time>2026-08-15T02:03:08.000Z</time>
      </trkpt>
      <trkpt lat="22.900120" lon="109.165932">
        <ele>91.898448</ele>
        <time>2026-08-15T02:03:09.000Z</time>
      </trkpt>
      <trkpt lat="22.900110" lon="109.165991">
        <ele>91.883172</ele>
        <time>2026-08-15T02:03:10.000Z</time>
      </trkpt>
      <trkpt lat="22.900100" lon="109.166049">
        <ele>91.868146</ele>
        <time>2026-08-15T02:03:11.000Z</time>
      </trkpt>
      <trkpt lat="22.900092" lon="109.166106">
        <ele>91.853464</ele>
        <time>2026-08-15T02:03:12.000Z</time>
      </trkpt>
      <trkpt lat="22.900084" lon="109.166164">
        <ele>91.838530</ele>
        <time>2026-08-15T02:03:13.000Z</time>
      </trkpt>
      <trkpt lat="22.900075" lon="109.166223">
        <ele>91.823301</ele>
        <time>2026-08-15T02:03:14.000Z</time>
      </trkpt>
      <trkpt lat="22.900068" lon="109.166282">
        <ele>91.808153</ele>
        <time>2026-08-15T02:03:15.000Z</time>
      </trkpt>
      <trkpt lat="22.900059" lon="109.166342">
        <ele>91.792673</ele>
        <time>2026-08-15T02:03:16.000Z</time>
      </trkpt>
      <trkpt lat="22.900049" lon="109.166401">
        <ele>91.777397</ele>
        <time>2026-08-15T02:03:17.000Z</time>
      </trkpt>
      <trkpt lat="22.900040" lon="109.166462">
        <ele>91.761666</ele>
        <time>2026-08-15T02:03:18.000Z</time>
      </trkpt>
      <trkpt lat="22.900032" lon="109.166523">
        <ele>91.745976</ele>
        <time>2026-08-15T02:03:19.000Z</time>
      </trkpt>
      <trkpt lat="22.900024" lon="109.166584">
        <ele>91.730286</ele>
        <time>2026-08-15T02:03:20.000Z</time>
      </trkpt>
      <trkpt lat="22.900016" lon="109.166644">
        <ele>91.714848</ele>
        <time>2026-08-15T02:03:21.000Z</time>
      </trkpt>
      <trkpt lat="22.900009" lon="109.166703">
        <ele>91.718351</ele>
        <time>2026-08-15T02:03:22.000Z</time>
      </trkpt>
      <trkpt lat="22.900003" lon="109.166761">
        <ele>91.738427</ele>
        <time>2026-08-15T02:03:23.000Z</time>
      </trkpt>
      <trkpt lat="22.899995" lon="109.166819">
        <ele>91.758601</ele>
        <time>2026-08-15T02:03:24.000Z</time>
      </trkpt>
      <trkpt lat="22.899987" lon="109.166877">
        <ele>91.778775</ele>
        <time>2026-08-15T02:03:25.000Z</time>
      </trkpt>
      <trkpt lat="22.899981" lon="109.166934">
        <ele>91.798509</ele>
        <time>2026-08-15T02:03:26.000Z</time>
      </trkpt>
      <trkpt lat="22.899973" lon="109.166992">
        <ele>91.818683</ele>
        <time>2026-08-15T02:03:27.000Z</time>
      </trkpt>
      <trkpt lat="22.899965" lon="109.167051">
        <ele>91.839197</ele>
        <time>2026-08-15T02:03:28.000Z</time>
      </trkpt>
      <trkpt lat="22.899956" lon="109.167111">
        <ele>91.860108</ele>
        <time>2026-08-15T02:03:29.000Z</time>
      </trkpt>
      <trkpt lat="22.899947" lon="109.167172">
        <ele>91.881358</ele>
        <time>2026-08-15T02:03:30.000Z</time>
      </trkpt>
      <trkpt lat="22.899939" lon="109.167232">
        <ele>91.902213</ele>
        <time>2026-08-15T02:03:31.000Z</time>
      </trkpt>
      <trkpt lat="22.899931" lon="109.167292">
        <ele>91.923067</ele>
        <time>2026-08-15T02:03:32.000Z</time>
      </trkpt>
      <trkpt lat="22.899923" lon="109.167352">
        <ele>91.943921</ele>
        <time>2026-08-15T02:03:33.000Z</time>
      </trkpt>
      <trkpt lat="22.899915" lon="109.167412">
        <ele>91.964775</ele>
        <time>2026-08-15T02:03:34.000Z</time>
      </trkpt>
      <trkpt lat="22.899908" lon="109.167472">
        <ele>91.985579</ele>
        <time>2026-08-15T02:03:35.000Z</time>
      </trkpt>
      <trkpt lat="22.899901" lon="109.167531">
        <ele>92.006042</ele>
        <time>2026-08-15T02:03:36.000Z</time>
      </trkpt>
      <trkpt lat="22.899893" lon="109.167588">
        <ele>92.025876</ele>
        <time>2026-08-15T02:03:37.000Z</time>
      </trkpt>
      <trkpt lat="22.899887" lon="109.167645">
        <ele>92.045610</ele>
        <time>2026-08-15T02:03:38.000Z</time>
      </trkpt>
      <trkpt lat="22.899880" lon="109.167701">
        <ele>92.065050</ele>
        <time>2026-08-15T02:03:39.000Z</time>
      </trkpt>
      <trkpt lat="22.899874" lon="109.167758">
        <ele>92.084785</ele>
        <time>2026-08-15T02:03:40.000Z</time>
      </trkpt>
      <trkpt lat="22.899867" lon="109.167815">
        <ele>92.104566</ele>
        <time>2026-08-15T02:03:41.000Z</time>
      </trkpt>
      <trkpt lat="22.899860" lon="109.167871">
        <ele>92.124005</ele>
        <time>2026-08-15T02:03:42.000Z</time>
      </trkpt>
      <trkpt lat="22.899854" lon="109.167926">
        <ele>92.143057</ele>
        <time>2026-08-15T02:03:43.000Z</time>
      </trkpt>
      <trkpt lat="22.899847" lon="109.167981">
        <ele>92.162156</ele>
        <time>2026-08-15T02:03:44.000Z</time>
      </trkpt>
      <trkpt lat="22.899841" lon="109.168035">
        <ele>92.180866</ele>
        <time>2026-08-15T02:03:45.000Z</time>
      </trkpt>
      <trkpt lat="22.899835" lon="109.168088">
        <ele>92.199234</ele>
        <time>2026-08-15T02:03:46.000Z</time>
      </trkpt>
      <trkpt lat="22.899830" lon="109.168141">
        <ele>92.217561</ele>
        <time>2026-08-15T02:03:47.000Z</time>
      </trkpt>
      <trkpt lat="22.899825" lon="109.168194">
        <ele>92.235887</ele>
        <time>2026-08-15T02:03:48.000Z</time>
      </trkpt>
      <trkpt lat="22.899818" lon="109.168247">
        <ele>92.254305</ele>
        <time>2026-08-15T02:03:49.000Z</time>
      </trkpt>
      <trkpt lat="22.899811" lon="109.168299">
        <ele>92.272382</ele>
        <time>2026-08-15T02:03:50.000Z</time>
      </trkpt>
      <trkpt lat="22.899805" lon="109.168352">
        <ele>92.290751</ele>
        <time>2026-08-15T02:03:51.000Z</time>
      </trkpt>
      <trkpt lat="22.899800" lon="109.168406">
        <ele>92.309420</ele>
        <time>2026-08-15T02:03:52.000Z</time>
      </trkpt>
      <trkpt lat="22.899795" lon="109.168459">
        <ele>92.327746</ele>
        <time>2026-08-15T02:03:53.000Z</time>
      </trkpt>
      <trkpt lat="22.899788" lon="109.168515">
        <ele>92.347186</ele>
        <time>2026-08-15T02:03:54.000Z</time>
      </trkpt>
      <trkpt lat="22.899781" lon="109.168570">
        <ele>92.366285</ele>
        <time>2026-08-15T02:03:55.000Z</time>
      </trkpt>
      <trkpt lat="22.899778" lon="109.168624">
        <ele>92.387248</ele>
        <time>2026-08-15T02:03:56.000Z</time>
      </trkpt>
      <trkpt lat="22.899776" lon="109.168680">
        <ele>92.414605</ele>
        <time>2026-08-15T02:03:57.000Z</time>
      </trkpt>
      <trkpt lat="22.899775" lon="109.168736">
        <ele>92.441946</ele>
        <time>2026-08-15T02:03:58.000Z</time>
      </trkpt>
      <trkpt lat="22.899775" lon="109.168794">
        <ele>92.470259</ele>
        <time>2026-08-15T02:03:59.000Z</time>
      </trkpt>
      <trkpt lat="22.899776" lon="109.168849">
        <ele>92.497112</ele>
        <time>2026-08-15T02:04:00.000Z</time>
      </trkpt>
      <trkpt lat="22.899777" lon="109.168901">
        <ele>92.522502</ele>
        <time>2026-08-15T02:04:01.000Z</time>
      </trkpt>
      <trkpt lat="22.899777" lon="109.168950">
        <ele>92.546421</ele>
        <time>2026-08-15T02:04:02.000Z</time>
      </trkpt>
      <trkpt lat="22.899780" lon="109.169002">
        <ele>92.571854</ele>
        <time>2026-08-15T02:04:03.000Z</time>
      </trkpt>
      <trkpt lat="22.899784" lon="109.169052">
        <ele>92.596354</ele>
        <time>2026-08-15T02:04:04.000Z</time>
      </trkpt>
      <trkpt lat="22.899790" lon="109.169100">
        <ele>92.619999</ele>
        <time>2026-08-15T02:04:05.000Z</time>
      </trkpt>
      <trkpt lat="22.899797" lon="109.169149">
        <ele>92.644205</ele>
        <time>2026-08-15T02:04:06.000Z</time>
      </trkpt>
      <trkpt lat="22.899806" lon="109.169198">
        <ele>92.668595</ele>
        <time>2026-08-15T02:04:07.000Z</time>
      </trkpt>
      <trkpt lat="22.899817" lon="109.169246">
        <ele>92.692740</ele>
        <time>2026-08-15T02:04:08.000Z</time>
      </trkpt>
      <trkpt lat="22.899829" lon="109.169296">
        <ele>92.717962</ele>
        <time>2026-08-15T02:04:09.000Z</time>
      </trkpt>
      <trkpt lat="22.899842" lon="109.169346">
        <ele>92.743323</ele>
        <time>2026-08-15T02:04:10.000Z</time>
      </trkpt>
      <trkpt lat="22.899855" lon="109.169397">
        <ele>92.769154</ele>
        <time>2026-08-15T02:04:11.000Z</time>
      </trkpt>
      <trkpt lat="22.899871" lon="109.169447">
        <ele>92.794992</ele>
        <time>2026-08-15T02:04:12.000Z</time>
      </trkpt>
      <trkpt lat="22.899887" lon="109.169499">
        <ele>92.821755</ele>
        <time>2026-08-15T02:04:13.000Z</time>
      </trkpt>
      <trkpt lat="22.899902" lon="109.169550">
        <ele>92.847888</ele>
        <time>2026-08-15T02:04:14.000Z</time>
      </trkpt>
      <trkpt lat="22.899917" lon="109.169602">
        <ele>92.874487</ele>
        <time>2026-08-15T02:04:15.000Z</time>
      </trkpt>
      <trkpt lat="22.899933" lon="109.169654">
        <ele>92.901250</ele>
        <time>2026-08-15T02:04:16.000Z</time>
      </trkpt>
      <trkpt lat="22.899949" lon="109.169706">
        <ele>92.928012</ele>
        <time>2026-08-15T02:04:17.000Z</time>
      </trkpt>
      <trkpt lat="22.899966" lon="109.169758">
        <ele>92.954947</ele>
        <time>2026-08-15T02:04:18.000Z</time>
      </trkpt>
      <trkpt lat="22.899982" lon="109.169811">
        <ele>92.982172</ele>
        <time>2026-08-15T02:04:19.000Z</time>
      </trkpt>
      <trkpt lat="22.900000" lon="109.169863">
        <ele>93.009289</ele>
        <time>2026-08-15T02:04:20.000Z</time>
      </trkpt>
      <trkpt lat="22.900017" lon="109.169916">
        <ele>93.036684</ele>
        <time>2026-08-15T02:04:21.000Z</time>
      </trkpt>
      <trkpt lat="22.900034" lon="109.169970">
        <ele>93.064541</ele>
        <time>2026-08-15T02:04:22.000Z</time>
      </trkpt>
      <trkpt lat="22.900051" lon="109.170024">
        <ele>93.092398</ele>
        <time>2026-08-15T02:04:23.000Z</time>
      </trkpt>
      <trkpt lat="22.900070" lon="109.170079">
        <ele>93.121072</ele>
        <time>2026-08-15T02:04:24.000Z</time>
      </trkpt>
      <trkpt lat="22.900087" lon="109.170134">
        <ele>93.149391</ele>
        <time>2026-08-15T02:04:25.000Z</time>
      </trkpt>
      <trkpt lat="22.900104" lon="109.170188">
        <ele>93.177248</ele>
        <time>2026-08-15T02:04:26.000Z</time>
      </trkpt>
      <trkpt lat="22.900120" lon="109.170242">
        <ele>93.204938</ele>
        <time>2026-08-15T02:04:27.000Z</time>
      </trkpt>
      <trkpt lat="22.900137" lon="109.170296">
        <ele>93.232795</ele>
        <time>2026-08-15T02:04:28.000Z</time>
      </trkpt>
      <trkpt lat="22.900152" lon="109.170350">
        <ele>93.260327</ele>
        <time>2026-08-15T02:04:29.000Z</time>
      </trkpt>
      <trkpt lat="22.900168" lon="109.170404">
        <ele>93.288017</ele>
        <time>2026-08-15T02:04:30.000Z</time>
      </trkpt>
      <trkpt lat="22.900184" lon="109.170457">
        <ele>93.315242</ele>
        <time>2026-08-15T02:04:31.000Z</time>
      </trkpt>
      <trkpt lat="22.900199" lon="109.170509">
        <ele>93.323131</ele>
        <time>2026-08-15T02:04:32.000Z</time>
      </trkpt>
      <trkpt lat="22.900213" lon="109.170561">
        <ele>93.297172</ele>
        <time>2026-08-15T02:04:33.000Z</time>
      </trkpt>
      <trkpt lat="22.900226" lon="109.170612">
        <ele>93.271815</ele>
        <time>2026-08-15T02:04:34.000Z</time>
      </trkpt>
      <trkpt lat="22.900237" lon="109.170662">
        <ele>93.247183</ele>
        <time>2026-08-15T02:04:35.000Z</time>
      </trkpt>
      <trkpt lat="22.900247" lon="109.170714">
        <ele>93.221728</ele>
        <time>2026-08-15T02:04:36.000Z</time>
      </trkpt>
      <trkpt lat="22.900257" lon="109.170767">
        <ele>93.195805</ele>
        <time>2026-08-15T02:04:37.000Z</time>
      </trkpt>
      <trkpt lat="22.900264" lon="109.170823">
        <ele>93.168725</ele>
        <time>2026-08-15T02:04:38.000Z</time>
      </trkpt>
      <trkpt lat="22.900271" lon="109.170879">
        <ele>93.141645</ele>
        <time>2026-08-15T02:04:39.000Z</time>
      </trkpt>
      <trkpt lat="22.900276" lon="109.170935">
        <ele>93.114686</ele>
        <time>2026-08-15T02:04:40.000Z</time>
      </trkpt>
      <trkpt lat="22.900280" lon="109.170993">
        <ele>93.086816</ele>
        <time>2026-08-15T02:04:41.000Z</time>
      </trkpt>
      <trkpt lat="22.900281" lon="109.171052">
        <ele>93.058539</ele>
        <time>2026-08-15T02:04:42.000Z</time>
      </trkpt>
      <trkpt lat="22.900283" lon="109.171112">
        <ele>93.029770</ele>
        <time>2026-08-15T02:04:43.000Z</time>
      </trkpt>
      <trkpt lat="22.900283" lon="109.171173">
        <ele>93.000540</ele>
        <time>2026-08-15T02:04:44.000Z</time>
      </trkpt>
      <trkpt lat="22.900281" lon="109.171234">
        <ele>92.971292</ele>
        <time>2026-08-15T02:04:45.000Z</time>
      </trkpt>
      <trkpt lat="22.900281" lon="109.171294">
        <ele>92.942541</ele>
        <time>2026-08-15T02:04:46.000Z</time>
      </trkpt>
      <trkpt lat="22.900281" lon="109.171354">
        <ele>92.913791</ele>
        <time>2026-08-15T02:04:47.000Z</time>
      </trkpt>
      <trkpt lat="22.900281" lon="109.171417">
        <ele>92.883603</ele>
        <time>2026-08-15T02:04:48.000Z</time>
      </trkpt>
      <trkpt lat="22.900281" lon="109.171480">
        <ele>92.853414</ele>
        <time>2026-08-15T02:04:49.000Z</time>
      </trkpt>
      <trkpt lat="22.900281" lon="109.171544">
        <ele>92.822747</ele>
        <time>2026-08-15T02:04:50.000Z</time>
      </trkpt>
      <trkpt lat="22.900281" lon="109.171607">
        <ele>92.792559</ele>
        <time>2026-08-15T02:04:51.000Z</time>
      </trkpt>
      <trkpt lat="22.900281" lon="109.171671">
        <ele>92.761892</ele>
        <time>2026-08-15T02:04:52.000Z</time>
      </trkpt>
      <trkpt lat="22.900281" lon="109.171735">
        <ele>92.731224</ele>
        <time>2026-08-15T02:04:53.000Z</time>
      </trkpt>
      <trkpt lat="22.900282" lon="109.171800">
        <ele>92.700074</ele>
        <time>2026-08-15T02:04:54.000Z</time>
      </trkpt>
      <trkpt lat="22.900283" lon="109.171865">
        <ele>92.668923</ele>
        <time>2026-08-15T02:04:55.000Z</time>
      </trkpt>
      <trkpt lat="22.900283" lon="109.171932">
        <ele>92.636818</ele>
        <time>2026-08-15T02:04:56.000Z</time>
      </trkpt>
      <trkpt lat="22.900282" lon="109.172001">
        <ele>92.603751</ele>
        <time>2026-08-15T02:04:57.000Z</time>
      </trkpt>
      <trkpt lat="22.900282" lon="109.172069">
        <ele>92.571167</ele>
        <time>2026-08-15T02:04:58.000Z</time>
      </trkpt>
      <trkpt lat="22.900282" lon="109.172136">
        <ele>92.539062</ele>
        <time>2026-08-15T02:04:59.000Z</time>
      </trkpt>
      <trkpt lat="22.900283" lon="109.172203">
        <ele>92.506953</ele>
        <time>2026-08-15T02:05:00.000Z</time>
      </trkpt>
      <trkpt lat="22.900284" lon="109.172269">
        <ele>92.475323</ele>
        <time>2026-08-15T02:05:01.000Z</time>
      </trkpt>
      <trkpt lat="22.900284" lon="109.172337">
        <ele>92.442739</ele>
        <time>2026-08-15T02:05:02.000Z</time>
      </trkpt>
      <trkpt lat="22.900285" lon="109.172405">
        <ele>92.410151</ele>
        <time>2026-08-15T02:05:03.000Z</time>
      </trkpt>
      <trkpt lat="22.900285" lon="109.172474">
        <ele>92.411416</ele>
        <time>2026-08-15T02:05:04.000Z</time>
      </trkpt>
      <trkpt lat="22.900285" lon="109.172541">
        <ele>92.435247</ele>
        <time>2026-08-15T02:05:05.000Z</time>
      </trkpt>
      <trkpt lat="22.900284" lon="109.172609">
        <ele>92.459436</ele>
        <time>2026-08-15T02:05:06.000Z</time>
      </trkpt>
      <trkpt lat="22.900284" lon="109.172676">
        <ele>92.483267</ele>
        <time>2026-08-15T02:05:07.000Z</time>
      </trkpt>
      <trkpt lat="22.900284" lon="109.172744">
        <ele>92.507454</ele>
        <time>2026-08-15T02:05:08.000Z</time>
      </trkpt>
      <trkpt lat="22.900284" lon="109.172810">
        <ele>92.530929</ele>
        <time>2026-08-15T02:05:09.000Z</time>
      </trkpt>
      <trkpt lat="22.900283" lon="109.172875">
        <ele>92.554052</ele>
        <time>2026-08-15T02:05:10.000Z</time>
      </trkpt>
      <trkpt lat="22.900283" lon="109.172938">
        <ele>92.576460</ele>
        <time>2026-08-15T02:05:11.000Z</time>
      </trkpt>
      <trkpt lat="22.900283" lon="109.173000">
        <ele>92.598513</ele>
        <time>2026-08-15T02:05:12.000Z</time>
      </trkpt>
      <trkpt lat="22.900283" lon="109.173062">
        <ele>92.620565</ele>
        <time>2026-08-15T02:05:13.000Z</time>
      </trkpt>
      <trkpt lat="22.900284" lon="109.173122">
        <ele>92.641910</ele>
        <time>2026-08-15T02:05:14.000Z</time>
      </trkpt>
      <trkpt lat="22.900286" lon="109.173181">
        <ele>92.662910</ele>
        <time>2026-08-15T02:05:15.000Z</time>
      </trkpt>
      <trkpt lat="22.900287" lon="109.173242">
        <ele>92.684610</ele>
        <time>2026-08-15T02:05:16.000Z</time>
      </trkpt>
      <trkpt lat="22.900286" lon="109.173302">
        <ele>92.705954</ele>
        <time>2026-08-15T02:05:17.000Z</time>
      </trkpt>
      <trkpt lat="22.900285" lon="109.173361">
        <ele>92.726943</ele>
        <time>2026-08-15T02:05:18.000Z</time>
      </trkpt>
      <trkpt lat="22.900283" lon="109.173420">
        <ele>92.747943</ele>
        <time>2026-08-15T02:05:19.000Z</time>
      </trkpt>
      <trkpt lat="22.900283" lon="109.173478">
        <ele>92.768573</ele>
        <time>2026-08-15T02:05:20.000Z</time>
      </trkpt>
      <trkpt lat="22.900284" lon="109.173535">
        <ele>92.788851</ele>
        <time>2026-08-15T02:05:21.000Z</time>
      </trkpt>
      <trkpt lat="22.900284" lon="109.173590">
        <ele>92.808413</ele>
        <time>2026-08-15T02:05:22.000Z</time>
      </trkpt>
      <trkpt lat="22.900285" lon="109.173645">
        <ele>92.827980</ele>
        <time>2026-08-15T02:05:23.000Z</time>
      </trkpt>
      <trkpt lat="22.900286" lon="109.173701">
        <ele>92.847902</ele>
        <time>2026-08-15T02:05:24.000Z</time>
      </trkpt>
      <trkpt lat="22.900286" lon="109.173757">
        <ele>92.867820</ele>
        <time>2026-08-15T02:05:25.000Z</time>
      </trkpt>
      <trkpt lat="22.900286" lon="109.173811">
        <ele>92.887028</ele>
        <time>2026-08-15T02:05:26.000Z</time>
      </trkpt>
      <trkpt lat="22.900286" lon="109.173865">
        <ele>92.906235</ele>
        <time>2026-08-15T02:05:27.000Z</time>
      </trkpt>
      <trkpt lat="22.900285" lon="109.173918">
        <ele>92.925090</ele>
        <time>2026-08-15T02:05:28.000Z</time>
      </trkpt>
      <trkpt lat="22.900285" lon="109.173971">
        <ele>92.943941</ele>
        <time>2026-08-15T02:05:29.000Z</time>
      </trkpt>
      <trkpt lat="22.900286" lon="109.174025">
        <ele>92.963152</ele>
        <time>2026-08-15T02:05:30.000Z</time>
      </trkpt>
      <trkpt lat="22.900286" lon="109.174080">
        <ele>92.982715</ele>
        <time>2026-08-15T02:05:31.000Z</time>
      </trkpt>
      <trkpt lat="22.900286" lon="109.174136">
        <ele>93.002633</ele>
        <time>2026-08-15T02:05:32.000Z</time>
      </trkpt>
      <trkpt lat="22.900287" lon="109.174192">
        <ele>93.022555</ele>
        <time>2026-08-15T02:05:33.000Z</time>
      </trkpt>
      <trkpt lat="22.900287" lon="109.174249">
        <ele>93.042830</ele>
        <time>2026-08-15T02:05:34.000Z</time>
      </trkpt>
      <trkpt lat="22.900288" lon="109.174305">
        <ele>93.062752</ele>
        <time>2026-08-15T02:05:35.000Z</time>
      </trkpt>
      <trkpt lat="22.900288" lon="109.174362">
        <ele>93.083026</ele>
        <time>2026-08-15T02:05:36.000Z</time>
      </trkpt>
      <trkpt lat="22.900287" lon="109.174418">
        <ele>93.077794</ele>
        <time>2026-08-15T02:05:37.000Z</time>
      </trkpt>
      <trkpt lat="22.900286" lon="109.174473">
        <ele>93.055181</ele>
        <time>2026-08-15T02:05:38.000Z</time>
      </trkpt>
      <trkpt lat="22.900287" lon="109.174529">
        <ele>93.032157</ele>
        <time>2026-08-15T02:05:39.000Z</time>
      </trkpt>
      <trkpt lat="22.900286" lon="109.174587">
        <ele>93.008311</ele>
        <time>2026-08-15T02:05:40.000Z</time>
      </trkpt>
      <trkpt lat="22.900285" lon="109.174646">
        <ele>92.984054</ele>
        <time>2026-08-15T02:05:41.000Z</time>
      </trkpt>
      <trkpt lat="22.900285" lon="109.174707">
        <ele>92.958979</ele>
        <time>2026-08-15T02:05:42.000Z</time>
      </trkpt>
      <trkpt lat="22.900286" lon="109.174766">
        <ele>92.934722</ele>
        <time>2026-08-15T02:05:43.000Z</time>
      </trkpt>
      <trkpt lat="22.900288" lon="109.174831">
        <ele>92.907988</ele>
        <time>2026-08-15T02:05:44.000Z</time>
      </trkpt>
      <trkpt lat="22.900289" lon="109.174895">
        <ele>92.881676</ele>
        <time>2026-08-15T02:05:45.000Z</time>
      </trkpt>
      <trkpt lat="22.900291" lon="109.174958">
        <ele>92.855764</ele>
        <time>2026-08-15T02:05:46.000Z</time>
      </trkpt>
      <trkpt lat="22.900292" lon="109.175022">
        <ele>92.829452</ele>
        <time>2026-08-15T02:05:47.000Z</time>
      </trkpt>
      <trkpt lat="22.900291" lon="109.175088">
        <ele>92.802318</ele>
        <time>2026-08-15T02:05:48.000Z</time>
      </trkpt>
      <trkpt lat="22.900291" lon="109.175154">
        <ele>92.775187</ele>
        <time>2026-08-15T02:05:49.000Z</time>
      </trkpt>
      <trkpt lat="22.900290" lon="109.175219">
        <ele>92.748464</ele>
        <time>2026-08-15T02:05:50.000Z</time>
      </trkpt>
      <trkpt lat="22.900289" lon="109.175284">
        <ele>92.721741</ele>
        <time>2026-08-15T02:05:51.000Z</time>
      </trkpt>
      <trkpt lat="22.900288" lon="109.175348">
        <ele>92.695429</ele>
        <time>2026-08-15T02:05:52.000Z</time>
      </trkpt>
      <trkpt lat="22.900287" lon="109.175411">
        <ele>92.669528</ele>
        <time>2026-08-15T02:05:53.000Z</time>
      </trkpt>
      <trkpt lat="22.900287" lon="109.175473">
        <ele>92.644042</ele>
        <time>2026-08-15T02:05:54.000Z</time>
      </trkpt>
      <trkpt lat="22.900287" lon="109.175535">
        <ele>92.618556</ele>
        <time>2026-08-15T02:05:55.000Z</time>
      </trkpt>
      <trkpt lat="22.900287" lon="109.175597">
        <ele>92.593070</ele>
        <time>2026-08-15T02:05:56.000Z</time>
      </trkpt>
      <trkpt lat="22.900287" lon="109.175659">
        <ele>92.567584</ele>
        <time>2026-08-15T02:05:57.000Z</time>
      </trkpt>
      <trkpt lat="22.900286" lon="109.175720">
        <ele>92.542505</ele>
        <time>2026-08-15T02:05:58.000Z</time>
      </trkpt>
      <trkpt lat="22.900285" lon="109.175781">
        <ele>92.517426</ele>
        <time>2026-08-15T02:05:59.000Z</time>
      </trkpt>
      <trkpt lat="22.900284" lon="109.175842">
        <ele>92.492347</ele>
        <time>2026-08-15T02:06:00.000Z</time>
      </trkpt>
      <trkpt lat="22.900282" lon="109.175903">
        <ele>92.467256</ele>
        <time>2026-08-15T02:06:01.000Z</time>
      </trkpt>
      <trkpt lat="22.900282" lon="109.175963">
        <ele>92.442592</ele>
        <time>2026-08-15T02:06:02.000Z</time>
      </trkpt>
      <trkpt lat="22.900282" lon="109.176022">
        <ele>92.418339</ele>
        <time>2026-08-15T02:06:03.000Z</time>
      </trkpt>
      <trkpt lat="22.900284" lon="109.176084">
        <ele>92.392838</ele>
        <time>2026-08-15T02:06:04.000Z</time>
      </trkpt>
      <trkpt lat="22.900287" lon="109.176146">
        <ele>92.367316</ele>
        <time>2026-08-15T02:06:05.000Z</time>
      </trkpt>
      <trkpt lat="22.900291" lon="109.176207">
        <ele>92.342178</ele>
        <time>2026-08-15T02:06:06.000Z</time>
      </trkpt>
      <trkpt lat="22.900297" lon="109.176268">
        <ele>92.316960</ele>
        <time>2026-08-15T02:06:07.000Z</time>
      </trkpt>
      <trkpt lat="22.900302" lon="109.176330">
        <ele>92.291377</ele>
        <time>2026-08-15T02:06:08.000Z</time>
      </trkpt>
      <trkpt lat="22.900309" lon="109.176392">
        <ele>92.239054</ele>
        <time>2026-08-15T02:06:09.000Z</time>
      </trkpt>
      <trkpt lat="22.900316" lon="109.176454">
        <ele>92.183577</ele>
        <time>2026-08-15T02:06:10.000Z</time>
      </trkpt>
      <trkpt lat="22.900324" lon="109.176514">
        <ele>92.129733</ele>
        <time>2026-08-15T02:06:11.000Z</time>
      </trkpt>
      <trkpt lat="22.900331" lon="109.176575">
        <ele>92.075138</ele>
        <time>2026-08-15T02:06:12.000Z</time>
      </trkpt>
      <trkpt lat="22.900340" lon="109.176636">
        <ele>92.020271</ele>
        <time>2026-08-15T02:06:13.000Z</time>
      </trkpt>
      <trkpt lat="22.900349" lon="109.176698">
        <ele>91.964527</ele>
        <time>2026-08-15T02:06:14.000Z</time>
      </trkpt>
      <trkpt lat="22.900357" lon="109.176757">
        <ele>91.911562</ele>
        <time>2026-08-15T02:06:15.000Z</time>
      </trkpt>
      <trkpt lat="22.900366" lon="109.176817">
        <ele>91.857571</ele>
        <time>2026-08-15T02:06:16.000Z</time>
      </trkpt>
      <trkpt lat="22.900375" lon="109.176876">
        <ele>91.804457</ele>
        <time>2026-08-15T02:06:17.000Z</time>
      </trkpt>
      <trkpt lat="22.900384" lon="109.176934">
        <ele>91.752219</ele>
        <time>2026-08-15T02:06:18.000Z</time>
      </trkpt>
      <trkpt lat="22.900395" lon="109.176991">
        <ele>91.700496</ele>
        <time>2026-08-15T02:06:19.000Z</time>
      </trkpt>
      <trkpt lat="22.900406" lon="109.177048">
        <ele>91.648773</ele>
        <time>2026-08-15T02:06:20.000Z</time>
      </trkpt>
      <trkpt lat="22.900415" lon="109.177103">
        <ele>91.599161</ele>
        <time>2026-08-15T02:06:21.000Z</time>
      </trkpt>
      <trkpt lat="22.900424" lon="109.177158">
        <ele>91.549548</ele>
        <time>2026-08-15T02:06:22.000Z</time>
      </trkpt>
      <trkpt lat="22.900434" lon="109.177215">
        <ele>91.498014</ele>
        <time>2026-08-15T02:06:23.000Z</time>
      </trkpt>
      <trkpt lat="22.900444" lon="109.177274">
        <ele>91.444734</ele>
        <time>2026-08-15T02:06:24.000Z</time>
      </trkpt>
      <trkpt lat="22.900455" lon="109.177334">
        <ele>91.390401</ele>
        <time>2026-08-15T02:06:25.000Z</time>
      </trkpt>
      <trkpt lat="22.900465" lon="109.177394">
        <ele>91.336247</ele>
        <time>2026-08-15T02:06:26.000Z</time>
      </trkpt>
      <trkpt lat="22.900475" lon="109.177456">
        <ele>91.280345</ele>
        <time>2026-08-15T02:06:27.000Z</time>
      </trkpt>
      <trkpt lat="22.900485" lon="109.177519">
        <ele>91.223567</ele>
        <time>2026-08-15T02:06:28.000Z</time>
      </trkpt>
      <trkpt lat="22.900494" lon="109.177582">
        <ele>91.166945</ele>
        <time>2026-08-15T02:06:29.000Z</time>
      </trkpt>
      <trkpt lat="22.900504" lon="109.177646">
        <ele>91.109293</ele>
        <time>2026-08-15T02:06:30.000Z</time>
      </trkpt>
      <trkpt lat="22.900513" lon="109.177713">
        <ele>91.049158</ele>
        <time>2026-08-15T02:06:31.000Z</time>
      </trkpt>
      <trkpt lat="22.900525" lon="109.177781">
        <ele>90.987666</ele>
        <time>2026-08-15T02:06:32.000Z</time>
      </trkpt>
      <trkpt lat="22.900535" lon="109.177848">
        <ele>90.927384</ele>
        <time>2026-08-15T02:06:33.000Z</time>
      </trkpt>
      <trkpt lat="22.900544" lon="109.177916">
        <ele>90.866371</ele>
        <time>2026-08-15T02:06:34.000Z</time>
      </trkpt>
      <trkpt lat="22.900554" lon="109.177984">
        <ele>90.805212</ele>
        <time>2026-08-15T02:06:35.000Z</time>
      </trkpt>
      <trkpt lat="22.900565" lon="109.178051">
        <ele>90.744769</ele>
        <time>2026-08-15T02:06:36.000Z</time>
      </trkpt>
      <trkpt lat="22.900577" lon="109.178120">
        <ele>90.682405</ele>
        <time>2026-08-15T02:06:37.000Z</time>
      </trkpt>
      <trkpt lat="22.900591" lon="109.178196">
        <ele>90.613570</ele>
        <time>2026-08-15T02:06:38.000Z</time>
      </trkpt>
      <trkpt lat="22.900603" lon="109.178268">
        <ele>90.544007</ele>
        <time>2026-08-15T02:06:39.000Z</time>
      </trkpt>
      <trkpt lat="22.900614" lon="109.178338">
        <ele>90.432359</ele>
        <time>2026-08-15T02:06:40.000Z</time>
      </trkpt>
      <trkpt lat="22.900626" lon="109.178410">
        <ele>90.317318</ele>
        <time>2026-08-15T02:06:41.000Z</time>
      </trkpt>
      <trkpt lat="22.900637" lon="109.178481">
        <ele>90.204120</ele>
        <time>2026-08-15T02:06:42.000Z</time>
      </trkpt>
      <trkpt lat="22.900648" lon="109.178552">
        <ele>90.090921</ele>
        <time>2026-08-15T02:06:43.000Z</time>
      </trkpt>
      <trkpt lat="22.900658" lon="109.178624">
        <ele>89.976439</ele>
        <time>2026-08-15T02:06:44.000Z</time>
      </trkpt>
      <trkpt lat="22.900670" lon="109.178695">
        <ele>89.862945</ele>
        <time>2026-08-15T02:06:45.000Z</time>
      </trkpt>
      <trkpt lat="22.900683" lon="109.178767">
        <ele>89.747588</ele>
        <time>2026-08-15T02:06:46.000Z</time>
      </trkpt>
      <trkpt lat="22.900698" lon="109.178840">
        <ele>89.629992</ele>
        <time>2026-08-15T02:06:47.000Z</time>
      </trkpt>
      <trkpt lat="22.900711" lon="109.178912">
        <ele>89.514636</ele>
        <time>2026-08-15T02:06:48.000Z</time>
      </trkpt>
      <trkpt lat="22.900723" lon="109.178986">
        <ele>89.396499</ele>
        <time>2026-08-15T02:06:49.000Z</time>
      </trkpt>
      <trkpt lat="22.900734" lon="109.179060">
        <ele>89.278647</ele>
        <time>2026-08-15T02:06:50.000Z</time>
      </trkpt>
      <trkpt lat="22.900744" lon="109.179135">
        <ele>89.159498</ele>
        <time>2026-08-15T02:06:51.000Z</time>
      </trkpt>
      <trkpt lat="22.900753" lon="109.179209">
        <ele>89.042141</ele>
        <time>2026-08-15T02:06:52.000Z</time>
      </trkpt>
      <trkpt lat="22.900757" lon="109.179284">
        <ele>88.924024</ele>
        <time>2026-08-15T02:06:53.000Z</time>
      </trkpt>
      <trkpt lat="22.900760" lon="109.179359">
        <ele>88.805994</ele>
        <time>2026-08-15T02:06:54.000Z</time>
      </trkpt>
      <trkpt lat="22.900759" lon="109.179433">
        <ele>88.689634</ele>
        <time>2026-08-15T02:06:55.000Z</time>
      </trkpt>
      <trkpt lat="22.900754" lon="109.179506">
        <ele>88.574542</ele>
        <time>2026-08-15T02:06:56.000Z</time>
      </trkpt>
      <trkpt lat="22.900748" lon="109.179579">
        <ele>88.459311</ele>
        <time>2026-08-15T02:06:57.000Z</time>
      </trkpt>
      <trkpt lat="22.900739" lon="109.179652">
        <ele>88.343513</ele>
        <time>2026-08-15T02:06:58.000Z</time>
      </trkpt>
      <trkpt lat="22.900726" lon="109.179723">
        <ele>88.229698</ele>
        <time>2026-08-15T02:06:59.000Z</time>
      </trkpt>
      <trkpt lat="22.900708" lon="109.179793">
        <ele>88.115433</ele>
        <time>2026-08-15T02:07:00.000Z</time>
      </trkpt>
      <trkpt lat="22.900688" lon="109.179861">
        <ele>88.003201</ele>
        <time>2026-08-15T02:07:01.000Z</time>
      </trkpt>
      <trkpt lat="22.900667" lon="109.179930">
        <ele>87.888948</ele>
        <time>2026-08-15T02:07:02.000Z</time>
      </trkpt>
      <trkpt lat="22.900646" lon="109.179999">
        <ele>87.774694</ele>
        <time>2026-08-15T02:07:03.000Z</time>
      </trkpt>
      <trkpt lat="22.900624" lon="109.180067">
        <ele>87.661378</ele>
        <time>2026-08-15T02:07:04.000Z</time>
      </trkpt>
      <trkpt lat="22.900601" lon="109.180134">
        <ele>87.548960</ele>
        <time>2026-08-15T02:07:05.000Z</time>
      </trkpt>
      <trkpt lat="22.900579" lon="109.180199">
        <ele>87.489360</ele>
        <time>2026-08-15T02:07:06.000Z</time>
      </trkpt>
      <trkpt lat="22.900556" lon="109.180264">
        <ele>87.501002</ele>
        <time>2026-08-15T02:07:07.000Z</time>
      </trkpt>
      <trkpt lat="22.900532" lon="109.180328">
        <ele>87.512555</ele>
        <time>2026-08-15T02:07:08.000Z</time>
      </trkpt>
      <trkpt lat="22.900510" lon="109.180392">
        <ele>87.523976</ele>
        <time>2026-08-15T02:07:09.000Z</time>
      </trkpt>
      <trkpt lat="22.900487" lon="109.180455">
        <ele>87.535306</ele>
        <time>2026-08-15T02:07:10.000Z</time>
      </trkpt>
      <trkpt lat="22.900465" lon="109.180518">
        <ele>87.546571</ele>
        <time>2026-08-15T02:07:11.000Z</time>
      </trkpt>
      <trkpt lat="22.900444" lon="109.180582">
        <ele>87.557930</ele>
        <time>2026-08-15T02:07:12.000Z</time>
      </trkpt>
      <trkpt lat="22.900423" lon="109.180643">
        <ele>87.568818</ele>
        <time>2026-08-15T02:07:13.000Z</time>
      </trkpt>
      <trkpt lat="22.900401" lon="109.180703">
        <ele>87.579615</ele>
        <time>2026-08-15T02:07:14.000Z</time>
      </trkpt>
      <trkpt lat="22.900378" lon="109.180764">
        <ele>87.590635</ele>
        <time>2026-08-15T02:07:15.000Z</time>
      </trkpt>
      <trkpt lat="22.900356" lon="109.180825">
        <ele>87.601588</ele>
        <time>2026-08-15T02:07:16.000Z</time>
      </trkpt>
      <trkpt lat="22.900336" lon="109.180885">
        <ele>87.612256</ele>
        <time>2026-08-15T02:07:17.000Z</time>
      </trkpt>
      <trkpt lat="22.900317" lon="109.180941">
        <ele>87.622233</ele>
        <time>2026-08-15T02:07:18.000Z</time>
      </trkpt>
      <trkpt lat="22.900297" lon="109.180999">
        <ele>87.632588</ele>
        <time>2026-08-15T02:07:19.000Z</time>
      </trkpt>
      <trkpt lat="22.900276" lon="109.181056">
        <ele>87.642852</ele>
        <time>2026-08-15T02:07:20.000Z</time>
      </trkpt>
      <trkpt lat="22.900255" lon="109.181112">
        <ele>87.652961</ele>
        <time>2026-08-15T02:07:21.000Z</time>
      </trkpt>
      <trkpt lat="22.900233" lon="109.181167">
        <ele>87.662986</ele>
        <time>2026-08-15T02:07:22.000Z</time>
      </trkpt>
      <trkpt lat="22.900212" lon="109.181221">
        <ele>87.672786</ele>
        <time>2026-08-15T02:07:23.000Z</time>
      </trkpt>
      <trkpt lat="22.900193" lon="109.181273">
        <ele>87.682139</ele>
        <time>2026-08-15T02:07:24.000Z</time>
      </trkpt>
      <trkpt lat="22.900175" lon="109.181325">
        <ele>87.691426</ele>
        <time>2026-08-15T02:07:25.000Z</time>
      </trkpt>
      <trkpt lat="22.900156" lon="109.181375">
        <ele>87.700470</ele>
        <time>2026-08-15T02:07:26.000Z</time>
      </trkpt>
      <trkpt lat="22.900138" lon="109.181425">
        <ele>87.709445</ele>
        <time>2026-08-15T02:07:27.000Z</time>
      </trkpt>
      <trkpt lat="22.900120" lon="109.181474">
        <ele>87.718265</ele>
        <time>2026-08-15T02:07:28.000Z</time>
      </trkpt>
      <trkpt lat="22.900101" lon="109.181522">
        <ele>87.727000</ele>
        <time>2026-08-15T02:07:29.000Z</time>
      </trkpt>
      <trkpt lat="22.900082" lon="109.181571">
        <ele>87.735888</ele>
        <time>2026-08-15T02:07:30.000Z</time>
      </trkpt>
      <trkpt lat="22.900062" lon="109.181620">
        <ele>87.744849</ele>
        <time>2026-08-15T02:07:31.000Z</time>
      </trkpt>
      <trkpt lat="22.900042" lon="109.181670">
        <ele>87.753963</ele>
        <time>2026-08-15T02:07:32.000Z</time>
      </trkpt>
      <trkpt lat="22.900023" lon="109.181720">
        <ele>87.763006</ele>
        <time>2026-08-15T02:07:33.000Z</time>
      </trkpt>
      <trkpt lat="22.900005" lon="109.181770">
        <ele>87.771981</ele>
        <time>2026-08-15T02:07:34.000Z</time>
      </trkpt>
      <trkpt lat="22.899987" lon="109.181821">
        <ele>87.781113</ele>
        <time>2026-08-15T02:07:35.000Z</time>
      </trkpt>
      <trkpt lat="22.899970" lon="109.181873">
        <ele>87.790338</ele>
        <time>2026-08-15T02:07:36.000Z</time>
      </trkpt>
      <trkpt lat="22.899952" lon="109.181925">
        <ele>87.799626</ele>
        <time>2026-08-15T02:07:37.000Z</time>
      </trkpt>
      <trkpt lat="22.899933" lon="109.181976">
        <ele>87.808823</ele>
        <time>2026-08-15T02:07:38.000Z</time>
      </trkpt>
      <trkpt lat="22.899913" lon="109.182028">
        <ele>87.767141</ele>
        <time>2026-08-15T02:07:39.000Z</time>
      </trkpt>
      <trkpt lat="22.899894" lon="109.182078">
        <ele>87.711726</ele>
        <time>2026-08-15T02:07:40.000Z</time>
      </trkpt>
      <trkpt lat="22.899876" lon="109.182126">
        <ele>87.658629</ele>
        <time>2026-08-15T02:07:41.000Z</time>
      </trkpt>
      <trkpt lat="22.899859" lon="109.182175">
        <ele>87.604983</ele>
        <time>2026-08-15T02:07:42.000Z</time>
      </trkpt>
      <trkpt lat="22.899842" lon="109.182222">
        <ele>87.553250</ele>
        <time>2026-08-15T02:07:43.000Z</time>
      </trkpt>
      <trkpt lat="22.899824" lon="109.182268">
        <ele>87.502045</ele>
        <time>2026-08-15T02:07:44.000Z</time>
      </trkpt>
      <trkpt lat="22.899806" lon="109.182313">
        <ele>87.451781</ele>
        <time>2026-08-15T02:07:45.000Z</time>
      </trkpt>
      <trkpt lat="22.899789" lon="109.182358">
        <ele>87.401950</ele>
        <time>2026-08-15T02:07:46.000Z</time>
      </trkpt>
      <trkpt lat="22.899771" lon="109.182401">
        <ele>87.353558</ele>
        <time>2026-08-15T02:07:47.000Z</time>
      </trkpt>
      <trkpt lat="22.899753" lon="109.182445">
        <ele>87.304233</ele>
        <time>2026-08-15T02:07:48.000Z</time>
      </trkpt>
      <trkpt lat="22.899735" lon="109.182488">
        <ele>87.255841</ele>
        <time>2026-08-15T02:07:49.000Z</time>
      </trkpt>
      <trkpt lat="22.899714" lon="109.182531">
        <ele>87.205977</ele>
        <time>2026-08-15T02:07:50.000Z</time>
      </trkpt>
      <trkpt lat="22.899695" lon="109.182572">
        <ele>87.158954</ele>
        <time>2026-08-15T02:07:51.000Z</time>
      </trkpt>
      <trkpt lat="22.899675" lon="109.182615">
        <ele>87.109601</ele>
        <time>2026-08-15T02:07:52.000Z</time>
      </trkpt>
      <trkpt lat="22.899653" lon="109.182656">
        <ele>87.060988</ele>
        <time>2026-08-15T02:07:53.000Z</time>
      </trkpt>
      <trkpt lat="22.899631" lon="109.182700">
        <ele>87.009695</ele>
        <time>2026-08-15T02:07:54.000Z</time>
      </trkpt>
      <trkpt lat="22.899609" lon="109.182742">
        <ele>86.960193</ele>
        <time>2026-08-15T02:07:55.000Z</time>
      </trkpt>
      <trkpt lat="22.899586" lon="109.182784">
        <ele>86.910133</ele>
        <time>2026-08-15T02:07:56.000Z</time>
      </trkpt>
      <trkpt lat="22.899561" lon="109.182826">
        <ele>86.858899</ele>
        <time>2026-08-15T02:07:57.000Z</time>
      </trkpt>
      <trkpt lat="22.899534" lon="109.182866">
        <ele>86.808093</ele>
        <time>2026-08-15T02:07:58.000Z</time>
      </trkpt>
      <trkpt lat="22.899505" lon="109.182906">
        <ele>86.755940</ele>
        <time>2026-08-15T02:07:59.000Z</time>
      </trkpt>
      <trkpt lat="22.899478" lon="109.182946">
        <ele>86.705134</ele>
        <time>2026-08-15T02:08:00.000Z</time>
      </trkpt>
      <trkpt lat="22.899448" lon="109.182987">
        <ele>86.651488</ele>
        <time>2026-08-15T02:08:01.000Z</time>
      </trkpt>
      <trkpt lat="22.899420" lon="109.183030">
        <ele>86.597536</ele>
        <time>2026-08-15T02:08:02.000Z</time>
      </trkpt>
      <trkpt lat="22.899391" lon="109.183074">
        <ele>86.542105</ele>
        <time>2026-08-15T02:08:03.000Z</time>
      </trkpt>
      <trkpt lat="22.899365" lon="109.183124">
        <ele>86.483279</ele>
        <time>2026-08-15T02:08:04.000Z</time>
      </trkpt>
      <trkpt lat="22.899336" lon="109.183174">
        <ele>86.422743</ele>
        <time>2026-08-15T02:08:05.000Z</time>
      </trkpt>
      <trkpt lat="22.899307" lon="109.183226">
        <ele>86.360463</ele>
        <time>2026-08-15T02:08:06.000Z</time>
      </trkpt>
      <trkpt lat="22.899276" lon="109.183279">
        <ele>86.296141</ele>
        <time>2026-08-15T02:08:07.000Z</time>
      </trkpt>
      <trkpt lat="22.899244" lon="109.183334">
        <ele>86.229492</ele>
        <time>2026-08-15T02:08:08.000Z</time>
      </trkpt>
      <trkpt lat="22.899216" lon="109.183393">
        <ele>86.161492</ele>
        <time>2026-08-15T02:08:09.000Z</time>
      </trkpt>
      <trkpt lat="22.899185" lon="109.183455">
        <ele>86.089216</ele>
        <time>2026-08-15T02:08:10.000Z</time>
      </trkpt>
      <trkpt lat="22.899153" lon="109.183518">
        <ele>86.015507</ele>
        <time>2026-08-15T02:08:11.000Z</time>
      </trkpt>
      <trkpt lat="22.899120" lon="109.183583">
        <ele>85.939466</ele>
        <time>2026-08-15T02:08:12.000Z</time>
      </trkpt>
      <trkpt lat="22.899085" lon="109.183649">
        <ele>85.861441</ele>
        <time>2026-08-15T02:08:13.000Z</time>
      </trkpt>
      <trkpt lat="22.899047" lon="109.183715">
        <ele>85.798775</ele>
        <time>2026-08-15T02:08:14.000Z</time>
      </trkpt>
      <trkpt lat="22.899009" lon="109.183781">
        <ele>85.766142</ele>
        <time>2026-08-15T02:08:15.000Z</time>
      </trkpt>
      <trkpt lat="22.898972" lon="109.183846">
        <ele>85.734104</ele>
        <time>2026-08-15T02:08:16.000Z</time>
      </trkpt>
      <trkpt lat="22.898937" lon="109.183912">
        <ele>85.702174</ele>
        <time>2026-08-15T02:08:17.000Z</time>
      </trkpt>
      <trkpt lat="22.898904" lon="109.183978">
        <ele>85.670687</ele>
        <time>2026-08-15T02:08:18.000Z</time>
      </trkpt>
      <trkpt lat="22.898870" lon="109.184042">
        <ele>85.639710</ele>
        <time>2026-08-15T02:08:19.000Z</time>
      </trkpt>
      <trkpt lat="22.898837" lon="109.184104">
        <ele>85.609687</ele>
        <time>2026-08-15T02:08:20.000Z</time>
      </trkpt>
      <trkpt lat="22.898805" lon="109.184164">
        <ele>85.580617</ele>
        <time>2026-08-15T02:08:21.000Z</time>
      </trkpt>
      <trkpt lat="22.898774" lon="109.184225">
        <ele>85.551407</ele>
        <time>2026-08-15T02:08:22.000Z</time>
      </trkpt>
      <trkpt lat="22.898739" lon="109.184285">
        <ele>85.521630</ele>
        <time>2026-08-15T02:08:23.000Z</time>
      </trkpt>
      <trkpt lat="22.898706" lon="109.184343">
        <ele>85.493046</ele>
        <time>2026-08-15T02:08:24.000Z</time>
      </trkpt>
      <trkpt lat="22.898672" lon="109.184401">
        <ele>85.464221</ele>
        <time>2026-08-15T02:08:25.000Z</time>
      </trkpt>
      <trkpt lat="22.898639" lon="109.184457">
        <ele>85.436348</ele>
        <time>2026-08-15T02:08:26.000Z</time>
      </trkpt>
      <trkpt lat="22.898607" lon="109.184515">
        <ele>85.408001</ele>
        <time>2026-08-15T02:08:27.000Z</time>
      </trkpt>
      <trkpt lat="22.898576" lon="109.184570">
        <ele>85.380966</ele>
        <time>2026-08-15T02:08:28.000Z</time>
      </trkpt>
      <trkpt lat="22.898546" lon="109.184625">
        <ele>85.354165</ele>
        <time>2026-08-15T02:08:29.000Z</time>
      </trkpt>
      <trkpt lat="22.898516" lon="109.184681">
        <ele>85.327003</ele>
        <time>2026-08-15T02:08:30.000Z</time>
      </trkpt>
      <trkpt lat="22.898486" lon="109.184733">
        <ele>85.301277</ele>
        <time>2026-08-15T02:08:31.000Z</time>
      </trkpt>
      <trkpt lat="22.898456" lon="109.184785">
        <ele>85.275551</ele>
        <time>2026-08-15T02:08:32.000Z</time>
      </trkpt>
      <trkpt lat="22.898428" lon="109.184838">
        <ele>85.249934</ele>
        <time>2026-08-15T02:08:33.000Z</time>
      </trkpt>
      <trkpt lat="22.898398" lon="109.184893">
        <ele>85.223133</ele>
        <time>2026-08-15T02:08:34.000Z</time>
      </trkpt>
      <trkpt lat="22.898368" lon="109.184945">
        <ele>85.197407</ele>
        <time>2026-08-15T02:08:35.000Z</time>
      </trkpt>
      <trkpt lat="22.898342" lon="109.184996">
        <ele>85.172967</ele>
        <time>2026-08-15T02:08:36.000Z</time>
      </trkpt>
      <trkpt lat="22.898313" lon="109.185045">
        <ele>85.148547</ele>
        <time>2026-08-15T02:08:37.000Z</time>
      </trkpt>
      <trkpt lat="22.898283" lon="109.185095">
        <ele>85.123528</ele>
        <time>2026-08-15T02:08:38.000Z</time>
      </trkpt>
      <trkpt lat="22.898256" lon="109.185144">
        <ele>85.099588</ele>
        <time>2026-08-15T02:08:39.000Z</time>
      </trkpt>
      <trkpt lat="22.898229" lon="109.185194">
        <ele>85.075287</ele>
        <time>2026-08-15T02:08:40.000Z</time>
      </trkpt>
      <trkpt lat="22.898204" lon="109.185244">
        <ele>85.051433</ele>
        <time>2026-08-15T02:08:41.000Z</time>
      </trkpt>
      <trkpt lat="22.898177" lon="109.185292">
        <ele>85.027852</ele>
        <time>2026-08-15T02:08:42.000Z</time>
      </trkpt>
      <trkpt lat="22.898150" lon="109.185341">
        <ele>85.003912</ele>
        <time>2026-08-15T02:08:43.000Z</time>
      </trkpt>
      <trkpt lat="22.898123" lon="109.185388">
        <ele>85.000428</ele>
        <time>2026-08-15T02:08:44.000Z</time>
      </trkpt>
      <trkpt lat="22.898095" lon="109.185436">
        <ele>85.018409</ele>
        <time>2026-08-15T02:08:45.000Z</time>
      </trkpt>
      <trkpt lat="22.898066" lon="109.185485">
        <ele>85.036842</ele>
        <time>2026-08-15T02:08:46.000Z</time>
      </trkpt>
      <trkpt lat="22.898037" lon="109.185534">
        <ele>85.055275</ele>
        <time>2026-08-15T02:08:47.000Z</time>
      </trkpt>
      <trkpt lat="22.898011" lon="109.185584">
        <ele>85.073446</ele>
        <time>2026-08-15T02:08:48.000Z</time>
      </trkpt>
      <trkpt lat="22.897984" lon="109.185635">
        <ele>85.092062</ele>
        <time>2026-08-15T02:08:49.000Z</time>
      </trkpt>
      <trkpt lat="22.897958" lon="109.185686">
        <ele>85.110510</ele>
        <time>2026-08-15T02:08:50.000Z</time>
      </trkpt>
      <trkpt lat="22.897932" lon="109.185736">
        <ele>85.128682</ele>
        <time>2026-08-15T02:08:51.000Z</time>
      </trkpt>
      <trkpt lat="22.897905" lon="109.185786">
        <ele>85.147024</ele>
        <time>2026-08-15T02:08:52.000Z</time>
      </trkpt>
      <trkpt lat="22.897878" lon="109.185835">
        <ele>85.165095</ele>
        <time>2026-08-15T02:08:53.000Z</time>
      </trkpt>
      <trkpt lat="22.897851" lon="109.185883">
        <ele>85.182895</ele>
        <time>2026-08-15T02:08:54.000Z</time>
      </trkpt>
      <trkpt lat="22.897825" lon="109.185933">
        <ele>85.201066</ele>
        <time>2026-08-15T02:08:55.000Z</time>
      </trkpt>
      <trkpt lat="22.897799" lon="109.185983">
        <ele>85.219238</ele>
        <time>2026-08-15T02:08:56.000Z</time>
      </trkpt>
      <trkpt lat="22.897773" lon="109.186031">
        <ele>85.236861</ele>
        <time>2026-08-15T02:08:57.000Z</time>
      </trkpt>
      <trkpt lat="22.897748" lon="109.186081">
        <ele>85.254866</ele>
        <time>2026-08-15T02:08:58.000Z</time>
      </trkpt>
      <trkpt lat="22.897724" lon="109.186131">
        <ele>85.272709</ele>
        <time>2026-08-15T02:08:59.000Z</time>
      </trkpt>
      <trkpt lat="22.897700" lon="109.186180">
        <ele>85.290273</ele>
        <time>2026-08-15T02:09:00.000Z</time>
      </trkpt>
      <trkpt lat="22.897678" lon="109.186230">
        <ele>85.307810</ele>
        <time>2026-08-15T02:09:01.000Z</time>
      </trkpt>
      <trkpt lat="22.897658" lon="109.186280">
        <ele>85.325062</ele>
        <time>2026-08-15T02:09:02.000Z</time>
      </trkpt>
      <trkpt lat="22.897637" lon="109.186329">
        <ele>85.342166</ele>
        <time>2026-08-15T02:09:03.000Z</time>
      </trkpt>
      <trkpt lat="22.897616" lon="109.186379">
        <ele>85.359557</ele>
        <time>2026-08-15T02:09:04.000Z</time>
      </trkpt>
      <trkpt lat="22.897595" lon="109.186429">
        <ele>85.376949</ele>
        <time>2026-08-15T02:09:05.000Z</time>
      </trkpt>
      <trkpt lat="22.897576" lon="109.186480">
        <ele>85.394360</ele>
        <time>2026-08-15T02:09:06.000Z</time>
      </trkpt>
      <trkpt lat="22.897555" lon="109.186530">
        <ele>85.411751</ele>
        <time>2026-08-15T02:09:07.000Z</time>
      </trkpt>
      <trkpt lat="22.897533" lon="109.186580">
        <ele>85.429288</ele>
        <time>2026-08-15T02:09:08.000Z</time>
      </trkpt>
      <trkpt lat="22.897511" lon="109.186631">
        <ele>85.447111</ele>
        <time>2026-08-15T02:09:09.000Z</time>
      </trkpt>
      <trkpt lat="22.897489" lon="109.186682">
        <ele>85.464934</ele>
        <time>2026-08-15T02:09:10.000Z</time>
      </trkpt>
      <trkpt lat="22.897467" lon="109.186733">
        <ele>85.482757</ele>
        <time>2026-08-15T02:09:11.000Z</time>
      </trkpt>
      <trkpt lat="22.897445" lon="109.186785">
        <ele>85.500867</ele>
        <time>2026-08-15T02:09:12.000Z</time>
      </trkpt>
      <trkpt lat="22.897424" lon="109.186837">
        <ele>85.518837</ele>
        <time>2026-08-15T02:09:13.000Z</time>
      </trkpt>
      <trkpt lat="22.897403" lon="109.186891">
        <ele>85.537387</ele>
        <time>2026-08-15T02:09:14.000Z</time>
      </trkpt>
      <trkpt lat="22.897380" lon="109.186939">
        <ele>85.554511</ele>
        <time>2026-08-15T02:09:15.000Z</time>
      </trkpt>
      <trkpt lat="22.897357" lon="109.186992">
        <ele>85.573053</ele>
        <time>2026-08-15T02:09:16.000Z</time>
      </trkpt>
      <trkpt lat="22.897335" lon="109.187043">
        <ele>85.590876</ele>
        <time>2026-08-15T02:09:17.000Z</time>
      </trkpt>
      <trkpt lat="22.897314" lon="109.187096">
        <ele>85.609136</ele>
        <time>2026-08-15T02:09:18.000Z</time>
      </trkpt>
      <trkpt lat="22.897294" lon="109.187148">
        <ele>85.613653</ele>
        <time>2026-08-15T02:09:19.000Z</time>
      </trkpt>
      <trkpt lat="22.897273" lon="109.187202">
        <ele>85.617749</ele>
        <time>2026-08-15T02:09:20.000Z</time>
      </trkpt>
      <trkpt lat="22.897252" lon="109.187255">
        <ele>85.621781</ele>
        <time>2026-08-15T02:09:21.000Z</time>
      </trkpt>
      <trkpt lat="22.897230" lon="109.187307">
        <ele>85.625780</ele>
        <time>2026-08-15T02:09:22.000Z</time>
      </trkpt>
      <trkpt lat="22.897210" lon="109.187361">
        <ele>85.629847</ele>
        <time>2026-08-15T02:09:23.000Z</time>
      </trkpt>
      <trkpt lat="22.897188" lon="109.187414">
        <ele>85.633909</ele>
        <time>2026-08-15T02:09:24.000Z</time>
      </trkpt>
      <trkpt lat="22.897167" lon="109.187469">
        <ele>85.638069</ele>
        <time>2026-08-15T02:09:25.000Z</time>
      </trkpt>
      <trkpt lat="22.897145" lon="109.187523">
        <ele>85.642196</ele>
        <time>2026-08-15T02:09:26.000Z</time>
      </trkpt>
      <trkpt lat="22.897121" lon="109.187578">
        <ele>85.646448</ele>
        <time>2026-08-15T02:09:27.000Z</time>
      </trkpt>
      <trkpt lat="22.897100" lon="109.187634">
        <ele>85.650673</ele>
        <time>2026-08-15T02:09:28.000Z</time>
      </trkpt>
      <trkpt lat="22.897078" lon="109.187689">
        <ele>85.654864</ele>
        <time>2026-08-15T02:09:29.000Z</time>
      </trkpt>
      <trkpt lat="22.897056" lon="109.187744">
        <ele>85.659054</ele>
        <time>2026-08-15T02:09:30.000Z</time>
      </trkpt>
      <trkpt lat="22.897033" lon="109.187798">
        <ele>85.663211</ele>
        <time>2026-08-15T02:09:31.000Z</time>
      </trkpt>
      <trkpt lat="22.897010" lon="109.187851">
        <ele>85.667305</ele>
        <time>2026-08-15T02:09:32.000Z</time>
      </trkpt>
      <trkpt lat="22.896985" lon="109.187905">
        <ele>85.671528</ele>
        <time>2026-08-15T02:09:33.000Z</time>
      </trkpt>
      <trkpt lat="22.896961" lon="109.187961">
        <ele>85.675844</ele>
        <time>2026-08-15T02:09:34.000Z</time>
      </trkpt>
      <trkpt lat="22.896939" lon="109.188019">
        <ele>85.680227</ele>
        <time>2026-08-15T02:09:35.000Z</time>
      </trkpt>
      <trkpt lat="22.896916" lon="109.188077">
        <ele>85.684640</ele>
        <time>2026-08-15T02:09:36.000Z</time>
      </trkpt>
      <trkpt lat="22.896892" lon="109.188132">
        <ele>85.688893</ele>
        <time>2026-08-15T02:09:37.000Z</time>
      </trkpt>
      <trkpt lat="22.896869" lon="109.188187">
        <ele>85.693114</ele>
        <time>2026-08-15T02:09:38.000Z</time>
      </trkpt>
      <trkpt lat="22.896846" lon="109.188243">
        <ele>85.697398</ele>
        <time>2026-08-15T02:09:39.000Z</time>
      </trkpt>
      <trkpt lat="22.896821" lon="109.188297">
        <ele>85.701622</ele>
        <time>2026-08-15T02:09:40.000Z</time>
      </trkpt>
      <trkpt lat="22.896798" lon="109.188349">
        <ele>85.705653</ele>
        <time>2026-08-15T02:09:41.000Z</time>
      </trkpt>
      <trkpt lat="22.896776" lon="109.188403">
        <ele>85.709779</ele>
        <time>2026-08-15T02:09:42.000Z</time>
      </trkpt>
      <trkpt lat="22.896756" lon="109.188457">
        <ele>85.713846</ele>
        <time>2026-08-15T02:09:43.000Z</time>
      </trkpt>
      <trkpt lat="22.896736" lon="109.188511">
        <ele>85.717913</ele>
        <time>2026-08-15T02:09:44.000Z</time>
      </trkpt>
      <trkpt lat="22.896719" lon="109.188565">
        <ele>85.721901</ele>
        <time>2026-08-15T02:09:45.000Z</time>
      </trkpt>
      <trkpt lat="22.896698" lon="109.188618">
        <ele>85.725932</ele>
        <time>2026-08-15T02:09:46.000Z</time>
      </trkpt>
      <trkpt lat="22.896675" lon="109.188670">
        <ele>85.729963</ele>
        <time>2026-08-15T02:09:47.000Z</time>
      </trkpt>
      <trkpt lat="22.896651" lon="109.188723">
        <ele>85.734090</ele>
        <time>2026-08-15T02:09:48.000Z</time>
      </trkpt>
      <trkpt lat="22.896628" lon="109.188775">
        <ele>85.738121</ele>
        <time>2026-08-15T02:09:49.000Z</time>
      </trkpt>
      <trkpt lat="22.896604" lon="109.188828">
        <ele>85.742248</ele>
        <time>2026-08-15T02:09:50.000Z</time>
      </trkpt>
      <trkpt lat="22.896582" lon="109.188883">
        <ele>85.747828</ele>
        <time>2026-08-15T02:09:51.000Z</time>
      </trkpt>
      <trkpt lat="22.896558" lon="109.188935">
        <ele>85.799668</ele>
        <time>2026-08-15T02:09:52.000Z</time>
      </trkpt>
      <trkpt lat="22.896537" lon="109.188989">
        <ele>85.851912</ele>
        <time>2026-08-15T02:09:53.000Z</time>
      </trkpt>
      <trkpt lat="22.896514" lon="109.189041">
        <ele>85.903325</ele>
        <time>2026-08-15T02:09:54.000Z</time>
      </trkpt>
      <trkpt lat="22.896488" lon="109.189090">
        <ele>85.953726</ele>
        <time>2026-08-15T02:09:55.000Z</time>
      </trkpt>
      <trkpt lat="22.896461" lon="109.189140">
        <ele>86.005384</ele>
        <time>2026-08-15T02:09:56.000Z</time>
      </trkpt>
      <trkpt lat="22.896433" lon="109.189191">
        <ele>86.058301</ele>
        <time>2026-08-15T02:09:57.000Z</time>
      </trkpt>
      <trkpt lat="22.896406" lon="109.189243">
        <ele>86.111504</ele>
        <time>2026-08-15T02:09:58.000Z</time>
      </trkpt>
      <trkpt lat="22.896381" lon="109.189294">
        <ele>86.162996</ele>
        <time>2026-08-15T02:09:59.000Z</time>
      </trkpt>
      <trkpt lat="22.896359" lon="109.189346">
        <ele>86.213998</ele>
        <time>2026-08-15T02:10:00.000Z</time>
      </trkpt>
      <trkpt lat="22.896339" lon="109.189398">
        <ele>86.264224</ele>
        <time>2026-08-15T02:10:01.000Z</time>
      </trkpt>
      <trkpt lat="22.896317" lon="109.189449">
        <ele>86.314417</ele>
        <time>2026-08-15T02:10:02.000Z</time>
      </trkpt>
      <trkpt lat="22.896297" lon="109.189496">
        <ele>86.360562</ele>
        <time>2026-08-15T02:10:03.000Z</time>
      </trkpt>
      <trkpt lat="22.896281" lon="109.189543">
        <ele>86.405223</ele>
        <time>2026-08-15T02:10:04.000Z</time>
      </trkpt>
      <trkpt lat="22.896265" lon="109.189590">
        <ele>86.449883</ele>
        <time>2026-08-15T02:10:05.000Z</time>
      </trkpt>
      <trkpt lat="22.896250" lon="109.189638">
        <ele>86.495060</ele>
        <time>2026-08-15T02:10:06.000Z</time>
      </trkpt>
      <trkpt lat="22.896231" lon="109.189680">
        <ele>86.536766</ele>
        <time>2026-08-15T02:10:07.000Z</time>
      </trkpt>
      <trkpt lat="22.896213" lon="109.189719">
        <ele>86.575645</ele>
        <time>2026-08-15T02:10:08.000Z</time>
      </trkpt>
      <trkpt lat="22.896196" lon="109.189760">
        <ele>86.615720</ele>
        <time>2026-08-15T02:10:09.000Z</time>
      </trkpt>
      <trkpt lat="22.896176" lon="109.189800">
        <ele>86.656286</ele>
        <time>2026-08-15T02:10:10.000Z</time>
      </trkpt>
      <trkpt lat="22.896160" lon="109.189845">
        <ele>86.699278</ele>
        <time>2026-08-15T02:10:11.000Z</time>
      </trkpt>
      <trkpt lat="22.896142" lon="109.189888">
        <ele>86.741376</ele>
        <time>2026-08-15T02:10:12.000Z</time>
      </trkpt>
      <trkpt lat="22.896125" lon="109.189932">
        <ele>86.783903</ele>
        <time>2026-08-15T02:10:13.000Z</time>
      </trkpt>
      <trkpt lat="22.896106" lon="109.189972">
        <ele>86.824016</ele>
        <time>2026-08-15T02:10:14.000Z</time>
      </trkpt>
      <trkpt lat="22.896087" lon="109.190014">
        <ele>86.865721</ele>
        <time>2026-08-15T02:10:15.000Z</time>
      </trkpt>
      <trkpt lat="22.896069" lon="109.190057">
        <ele>86.907819</ele>
        <time>2026-08-15T02:10:16.000Z</time>
      </trkpt>
      <trkpt lat="22.896050" lon="109.190100">
        <ele>86.950326</ele>
        <time>2026-08-15T02:10:17.000Z</time>
      </trkpt>
      <trkpt lat="22.896030" lon="109.190144">
        <ele>86.994058</ele>
        <time>2026-08-15T02:10:18.000Z</time>
      </trkpt>
      <trkpt lat="22.896009" lon="109.190186">
        <ele>87.036652</ele>
        <time>2026-08-15T02:10:19.000Z</time>
      </trkpt>
      <trkpt lat="22.895984" lon="109.190227">
        <ele>87.080475</ele>
        <time>2026-08-15T02:10:20.000Z</time>
      </trkpt>
      <trkpt lat="22.895959" lon="109.190270">
        <ele>87.125796</ele>
        <time>2026-08-15T02:10:21.000Z</time>
      </trkpt>
      <trkpt lat="22.895931" lon="109.190317">
        <ele>87.175685</ele>
        <time>2026-08-15T02:10:22.000Z</time>
      </trkpt>
      <trkpt lat="22.895901" lon="109.190363">
        <ele>87.225920</ele>
        <time>2026-08-15T02:10:23.000Z</time>
      </trkpt>
      <trkpt lat="22.895874" lon="109.190411">
        <ele>87.276048</ele>
        <time>2026-08-15T02:10:24.000Z</time>
      </trkpt>
      <trkpt lat="22.895844" lon="109.190458">
        <ele>87.327013</ele>
        <time>2026-08-15T02:10:25.000Z</time>
      </trkpt>
      <trkpt lat="22.895816" lon="109.190507">
        <ele>87.378407</ele>
        <time>2026-08-15T02:10:26.000Z</time>
      </trkpt>
      <trkpt lat="22.895785" lon="109.190558">
        <ele>87.432868</ele>
        <time>2026-08-15T02:10:27.000Z</time>
      </trkpt>
      <trkpt lat="22.895758" lon="109.190617">
        <ele>87.491866</ele>
        <time>2026-08-15T02:10:28.000Z</time>
      </trkpt>
      <trkpt lat="22.895724" lon="109.190665">
        <ele>87.548844</ele>
        <time>2026-08-15T02:10:29.000Z</time>
      </trkpt>
      <trkpt lat="22.895689" lon="109.190719">
        <ele>87.610977</ele>
        <time>2026-08-15T02:10:30.000Z</time>
      </trkpt>
      <trkpt lat="22.895655" lon="109.190770">
        <ele>87.670219</ele>
        <time>2026-08-15T02:10:31.000Z</time>
      </trkpt>
      <trkpt lat="22.895618" lon="109.190826">
        <ele>87.735069</ele>
        <time>2026-08-15T02:10:32.000Z</time>
      </trkpt>
      <trkpt lat="22.895577" lon="109.190879">
        <ele>87.800197</ele>
        <time>2026-08-15T02:10:33.000Z</time>
      </trkpt>
      <trkpt lat="22.895534" lon="109.190931">
        <ele>87.865953</ele>
        <time>2026-08-15T02:10:34.000Z</time>
      </trkpt>
      <trkpt lat="22.895492" lon="109.190984">
        <ele>87.931742</ele>
        <time>2026-08-15T02:10:35.000Z</time>
      </trkpt>
      <trkpt lat="22.895453" lon="109.191043">
        <ele>88.000078</ele>
        <time>2026-08-15T02:10:36.000Z</time>
      </trkpt>
      <trkpt lat="22.895412" lon="109.191096">
        <ele>88.065205</ele>
        <time>2026-08-15T02:10:37.000Z</time>
      </trkpt>
      <trkpt lat="22.895378" lon="109.191145">
        <ele>88.122933</ele>
        <time>2026-08-15T02:10:38.000Z</time>
      </trkpt>
      <trkpt lat="22.895343" lon="109.191192">
        <ele>88.179805</ele>
        <time>2026-08-15T02:10:39.000Z</time>
      </trkpt>
      <trkpt lat="22.895301" lon="109.191236">
        <ele>88.239430</ele>
        <time>2026-08-15T02:10:40.000Z</time>
      </trkpt>
      <trkpt lat="22.895260" lon="109.191278">
        <ele>88.297016</ele>
        <time>2026-08-15T02:10:41.000Z</time>
      </trkpt>
      <trkpt lat="22.895223" lon="109.191321">
        <ele>88.352387</ele>
        <time>2026-08-15T02:10:42.000Z</time>
      </trkpt>
      <trkpt lat="22.895189" lon="109.191363">
        <ele>88.405002</ele>
        <time>2026-08-15T02:10:43.000Z</time>
      </trkpt>
      <trkpt lat="22.895157" lon="109.191404">
        <ele>88.455570</ele>
        <time>2026-08-15T02:10:44.000Z</time>
      </trkpt>
      <trkpt lat="22.895124" lon="109.191443">
        <ele>88.505403</ele>
        <time>2026-08-15T02:10:45.000Z</time>
      </trkpt>
      <trkpt lat="22.895095" lon="109.191483">
        <ele>88.553303</ele>
        <time>2026-08-15T02:10:46.000Z</time>
      </trkpt>
      <trkpt lat="22.895067" lon="109.191520">
        <ele>88.598363</ele>
        <time>2026-08-15T02:10:47.000Z</time>
      </trkpt>
      <trkpt lat="22.895038" lon="109.191557">
        <ele>88.644079</ele>
        <time>2026-08-15T02:10:48.000Z</time>
      </trkpt>
      <trkpt lat="22.895011" lon="109.191592">
        <ele>88.687038</ele>
        <time>2026-08-15T02:10:49.000Z</time>
      </trkpt>
      <trkpt lat="22.894982" lon="109.191626">
        <ele>88.730642</ele>
        <time>2026-08-15T02:10:50.000Z</time>
      </trkpt>
      <trkpt lat="22.894951" lon="109.191661">
        <ele>88.776332</ele>
        <time>2026-08-15T02:10:51.000Z</time>
      </trkpt>
      <trkpt lat="22.894923" lon="109.191697">
        <ele>88.820669</ele>
        <time>2026-08-15T02:10:52.000Z</time>
      </trkpt>
      <trkpt lat="22.894896" lon="109.191732">
        <ele>88.863628</ele>
        <time>2026-08-15T02:10:53.000Z</time>
      </trkpt>
      <trkpt lat="22.894869" lon="109.191768">
        <ele>88.907313</ele>
        <time>2026-08-15T02:10:54.000Z</time>
      </trkpt>
      <trkpt lat="22.894842" lon="109.191807">
        <ele>88.953222</ele>
        <time>2026-08-15T02:10:55.000Z</time>
      </trkpt>
      <trkpt lat="22.894814" lon="109.191845">
        <ele>88.999013</ele>
        <time>2026-08-15T02:10:56.000Z</time>
      </trkpt>
      <trkpt lat="22.894786" lon="109.191882">
        <ele>89.044073</ele>
        <time>2026-08-15T02:10:57.000Z</time>
      </trkpt>
      <trkpt lat="22.894758" lon="109.191919">
        <ele>89.089133</ele>
        <time>2026-08-15T02:10:58.000Z</time>
      </trkpt>
      <trkpt lat="22.894731" lon="109.191955">
        <ele>89.132818</ele>
        <time>2026-08-15T02:10:59.000Z</time>
      </trkpt>
      <trkpt lat="22.894704" lon="109.191992">
        <ele>89.177237</ele>
        <time>2026-08-15T02:11:00.000Z</time>
      </trkpt>
      <trkpt lat="22.894677" lon="109.192030">
        <ele>89.222397</ele>
        <time>2026-08-15T02:11:01.000Z</time>
      </trkpt>
      <trkpt lat="22.894647" lon="109.192068">
        <ele>89.269492</ele>
        <time>2026-08-15T02:11:02.000Z</time>
      </trkpt>
      <trkpt lat="22.894614" lon="109.192105">
        <ele>89.317955</ele>
        <time>2026-08-15T02:11:03.000Z</time>
      </trkpt>
      <trkpt lat="22.894585" lon="109.192143">
        <ele>89.388302</ele>
        <time>2026-08-15T02:11:04.000Z</time>
      </trkpt>
      <trkpt lat="22.894557" lon="109.192180">
        <ele>89.459982</ele>
        <time>2026-08-15T02:11:05.000Z</time>
      </trkpt>
      <trkpt lat="22.894526" lon="109.192219">
        <ele>89.537093</ele>
        <time>2026-08-15T02:11:06.000Z</time>
      </trkpt>
      <trkpt lat="22.894500" lon="109.192258">
        <ele>89.609158</ele>
        <time>2026-08-15T02:11:07.000Z</time>
      </trkpt>
      <trkpt lat="22.894474" lon="109.192297">
        <ele>89.681224</ele>
        <time>2026-08-15T02:11:08.000Z</time>
      </trkpt>
      <trkpt lat="22.894444" lon="109.192337">
        <ele>89.758438</ele>
        <time>2026-08-15T02:11:09.000Z</time>
      </trkpt>
      <trkpt lat="22.894411" lon="109.192374">
        <ele>89.835532</ele>
        <time>2026-08-15T02:11:10.000Z</time>
      </trkpt>
      <trkpt lat="22.894379" lon="109.192412">
        <ele>89.912602</ele>
        <time>2026-08-15T02:11:11.000Z</time>
      </trkpt>
      <trkpt lat="22.894348" lon="109.192450">
        <ele>89.988586</ele>
        <time>2026-08-15T02:11:12.000Z</time>
      </trkpt>
      <trkpt lat="22.894317" lon="109.192485">
        <ele>90.061269</ele>
        <time>2026-08-15T02:11:13.000Z</time>
      </trkpt>
      <trkpt lat="22.894289" lon="109.192522">
        <ele>90.132949</ele>
        <time>2026-08-15T02:11:14.000Z</time>
      </trkpt>
      <trkpt lat="22.894260" lon="109.192558">
        <ele>90.204538</ele>
        <time>2026-08-15T02:11:15.000Z</time>
      </trkpt>
      <trkpt lat="22.894235" lon="109.192594">
        <ele>90.272026</ele>
        <time>2026-08-15T02:11:16.000Z</time>
      </trkpt>
      <trkpt lat="22.894212" lon="109.192631">
        <ele>90.338844</ele>
        <time>2026-08-15T02:11:17.000Z</time>
      </trkpt>
      <trkpt lat="22.894190" lon="109.192673">
        <ele>90.411170</ele>
        <time>2026-08-15T02:11:18.000Z</time>
      </trkpt>
      <trkpt lat="22.894165" lon="109.192709">
        <ele>90.478658</ele>
        <time>2026-08-15T02:11:19.000Z</time>
      </trkpt>
      <trkpt lat="22.894139" lon="109.192745">
        <ele>90.547137</ele>
        <time>2026-08-15T02:11:20.000Z</time>
      </trkpt>
      <trkpt lat="22.894108" lon="109.192779">
        <ele>90.618748</ele>
        <time>2026-08-15T02:11:21.000Z</time>
      </trkpt>
      <trkpt lat="22.894080" lon="109.192817">
        <ele>90.691591</ele>
        <time>2026-08-15T02:11:22.000Z</time>
      </trkpt>
      <trkpt lat="22.894053" lon="109.192852">
        <ele>90.759929</ele>
        <time>2026-08-15T02:11:23.000Z</time>
      </trkpt>
      <trkpt lat="22.894023" lon="109.192880">
        <ele>90.824221</ele>
        <time>2026-08-15T02:11:24.000Z</time>
      </trkpt>
      <trkpt lat="22.893993" lon="109.192913">
        <ele>90.893625</ele>
        <time>2026-08-15T02:11:25.000Z</time>
      </trkpt>
      <trkpt lat="22.893962" lon="109.192944">
        <ele>90.962117</ele>
        <time>2026-08-15T02:11:26.000Z</time>
      </trkpt>
      <trkpt lat="22.893935" lon="109.192972">
        <ele>91.022795</ele>
        <time>2026-08-15T02:11:27.000Z</time>
      </trkpt>
      <trkpt lat="22.893917" lon="109.192990">
        <ele>91.062565</ele>
        <time>2026-08-15T02:11:28.000Z</time>
      </trkpt>
      <trkpt lat="22.893909" lon="109.193007">
        <ele>91.091142</ele>
        <time>2026-08-15T02:11:29.000Z</time>
      </trkpt>
      <trkpt lat="22.893896" lon="109.193025">
        <ele>91.125381</ele>
        <time>2026-08-15T02:11:30.000Z</time>
      </trkpt>
      <trkpt lat="22.893882" lon="109.193048">
        <ele>91.166648</ele>
        <time>2026-08-15T02:11:31.000Z</time>
      </trkpt>
      <trkpt lat="22.893864" lon="109.193063">
        <ele>91.203523</ele>
        <time>2026-08-15T02:11:32.000Z</time>
      </trkpt>
      <trkpt lat="22.893850" lon="109.193082">
        <ele>91.239945</ele>
        <time>2026-08-15T02:11:33.000Z</time>
      </trkpt>
      <trkpt lat="22.893840" lon="109.193096">
        <ele>91.266465</ele>
        <time>2026-08-15T02:11:34.000Z</time>
      </trkpt>
      <trkpt lat="22.893835" lon="109.193105">
        <ele>91.282198</ele>
        <time>2026-08-15T02:11:35.000Z</time>
      </trkpt>
      <trkpt lat="22.893844" lon="109.193111">
        <ele>91.299360</ele>
        <time>2026-08-15T02:11:36.000Z</time>
      </trkpt>
      <trkpt lat="22.893861" lon="109.193108">
        <ele>91.327348</ele>
        <time>2026-08-15T02:11:37.000Z</time>
      </trkpt>
      <trkpt lat="22.893880" lon="109.193100">
        <ele>91.360464</ele>
        <time>2026-08-15T02:11:38.000Z</time>
      </trkpt>
      <trkpt lat="22.893896" lon="109.193087">
        <ele>91.392940</ele>
        <time>2026-08-15T02:11:39.000Z</time>
      </trkpt>
      <trkpt lat="22.893911" lon="109.193072">
        <ele>91.426081</ele>
        <time>2026-08-15T02:11:40.000Z</time>
      </trkpt>
      <trkpt lat="22.893929" lon="109.193060">
        <ele>91.460407</ele>
        <time>2026-08-15T02:11:41.000Z</time>
      </trkpt>
      <trkpt lat="22.893937" lon="109.193053">
        <ele>91.477104</ele>
        <time>2026-08-15T02:11:42.000Z</time>
      </trkpt>
      <trkpt lat="22.893942" lon="109.193054">
        <ele>91.485366</ele>
        <time>2026-08-15T02:11:43.000Z</time>
      </trkpt>
      <trkpt lat="22.893854" lon="109.193078">
        <ele>91.632809</ele>
        <time>2026-08-15T02:13:55.000Z</time>
      </trkpt>
      <trkpt lat="22.893838" lon="109.193085">
        <ele>91.660841</ele>
        <time>2026-08-15T02:13:56.000Z</time>
      </trkpt>
      <trkpt lat="22.893826" lon="109.193095">
        <ele>91.685424</ele>
        <time>2026-08-15T02:13:57.000Z</time>
      </trkpt>
      <trkpt lat="22.893809" lon="109.193111">
        <ele>91.721987</ele>
        <time>2026-08-15T02:13:58.000Z</time>
      </trkpt>
      <trkpt lat="22.893789" lon="109.193134">
        <ele>91.769333</ele>
        <time>2026-08-15T02:13:59.000Z</time>
      </trkpt>
      <trkpt lat="22.893767" lon="109.193153">
        <ele>91.815017</ele>
        <time>2026-08-15T02:14:00.000Z</time>
      </trkpt>
      <trkpt lat="22.893748" lon="109.193175">
        <ele>91.860160</ele>
        <time>2026-08-15T02:14:01.000Z</time>
      </trkpt>
      <trkpt lat="22.893706" lon="109.193211">
        <ele>91.947121</ele>
        <time>2026-08-15T02:14:02.000Z</time>
      </trkpt>
      <trkpt lat="22.893678" lon="109.193243">
        <ele>92.013189</ele>
        <time>2026-08-15T02:14:03.000Z</time>
      </trkpt>
      <trkpt lat="22.893646" lon="109.193282">
        <ele>92.091371</ele>
        <time>2026-08-15T02:14:04.000Z</time>
      </trkpt>
      <trkpt lat="22.893624" lon="109.193312">
        <ele>92.148773</ele>
        <time>2026-08-15T02:14:05.000Z</time>
      </trkpt>
      <trkpt lat="22.893606" lon="109.193345">
        <ele>92.206183</ele>
        <time>2026-08-15T02:14:06.000Z</time>
      </trkpt>
      <trkpt lat="22.893570" lon="109.193389">
        <ele>92.256087</ele>
        <time>2026-08-15T02:14:07.000Z</time>
      </trkpt>
      <trkpt lat="22.893543" lon="109.193425">
        <ele>92.269815</ele>
        <time>2026-08-15T02:14:08.000Z</time>
      </trkpt>
      <trkpt lat="22.893528" lon="109.193456">
        <ele>92.280170</ele>
        <time>2026-08-15T02:14:09.000Z</time>
      </trkpt>
      <trkpt lat="22.893510" lon="109.193487">
        <ele>92.291006</ele>
        <time>2026-08-15T02:14:10.000Z</time>
      </trkpt>
      <trkpt lat="22.893486" lon="109.193520">
        <ele>92.303439</ele>
        <time>2026-08-15T02:14:11.000Z</time>
      </trkpt>
      <trkpt lat="22.893469" lon="109.193563">
        <ele>92.317277</ele>
        <time>2026-08-15T02:14:12.000Z</time>
      </trkpt>
      <trkpt lat="22.893449" lon="109.193600">
        <ele>92.329963</ele>
        <time>2026-08-15T02:14:13.000Z</time>
      </trkpt>
      <trkpt lat="22.893427" lon="109.193638">
        <ele>92.343235</ele>
        <time>2026-08-15T02:14:14.000Z</time>
      </trkpt>
      <trkpt lat="22.893408" lon="109.193677">
        <ele>92.356281</ele>
        <time>2026-08-15T02:14:15.000Z</time>
      </trkpt>
      <trkpt lat="22.893389" lon="109.193719">
        <ele>92.370118</ele>
        <time>2026-08-15T02:14:16.000Z</time>
      </trkpt>
      <trkpt lat="22.893368" lon="109.193761">
        <ele>92.384250</ele>
        <time>2026-08-15T02:14:17.000Z</time>
      </trkpt>
      <trkpt lat="22.893346" lon="109.193800">
        <ele>92.397773</ele>
        <time>2026-08-15T02:14:18.000Z</time>
      </trkpt>
      <trkpt lat="22.893318" lon="109.193837">
        <ele>92.411933</ele>
        <time>2026-08-15T02:14:19.000Z</time>
      </trkpt>
      <trkpt lat="22.893298" lon="109.193874">
        <ele>92.424619</ele>
        <time>2026-08-15T02:14:20.000Z</time>
      </trkpt>
      <trkpt lat="22.893278" lon="109.193909">
        <ele>92.436799</ele>
        <time>2026-08-15T02:14:21.000Z</time>
      </trkpt>
      <trkpt lat="22.893257" lon="109.193944">
        <ele>92.449150</ele>
        <time>2026-08-15T02:14:22.000Z</time>
      </trkpt>
      <trkpt lat="22.893234" lon="109.193976">
        <ele>92.461153</ele>
        <time>2026-08-15T02:14:23.000Z</time>
      </trkpt>
      <trkpt lat="22.893217" lon="109.194015">
        <ele>92.473912</ele>
        <time>2026-08-15T02:14:24.000Z</time>
      </trkpt>
      <trkpt lat="22.893200" lon="109.194055">
        <ele>92.486939</ele>
        <time>2026-08-15T02:14:25.000Z</time>
      </trkpt>
      <trkpt lat="22.893181" lon="109.194090">
        <ele>92.498952</ele>
        <time>2026-08-15T02:14:26.000Z</time>
      </trkpt>
      <trkpt lat="22.893163" lon="109.194122">
        <ele>92.510040</ele>
        <time>2026-08-15T02:14:27.000Z</time>
      </trkpt>
      <trkpt lat="22.893147" lon="109.194160">
        <ele>92.522395</ele>
        <time>2026-08-15T02:14:28.000Z</time>
      </trkpt>
      <trkpt lat="22.893135" lon="109.194200">
        <ele>92.534835</ele>
        <time>2026-08-15T02:14:29.000Z</time>
      </trkpt>
      <trkpt lat="22.893118" lon="109.194238">
        <ele>92.547327</ele>
        <time>2026-08-15T02:14:30.000Z</time>
      </trkpt>
      <trkpt lat="22.893098" lon="109.194272">
        <ele>92.559257</ele>
        <time>2026-08-15T02:14:31.000Z</time>
      </trkpt>
      <trkpt lat="22.893076" lon="109.194306">
        <ele>92.571544</ele>
        <time>2026-08-15T02:14:32.000Z</time>
      </trkpt>
      <trkpt lat="22.893052" lon="109.194340">
        <ele>92.584210</ele>
        <time>2026-08-15T02:14:33.000Z</time>
      </trkpt>
      <trkpt lat="22.893030" lon="109.194374">
        <ele>92.596497</ele>
        <time>2026-08-15T02:14:34.000Z</time>
      </trkpt>
      <trkpt lat="22.893012" lon="109.194411">
        <ele>92.608870</ele>
        <time>2026-08-15T02:14:35.000Z</time>
      </trkpt>
      <trkpt lat="22.892992" lon="109.194452">
        <ele>92.622590</ele>
        <time>2026-08-15T02:14:36.000Z</time>
      </trkpt>
      <trkpt lat="22.892975" lon="109.194492">
        <ele>92.635617</ele>
        <time>2026-08-15T02:14:37.000Z</time>
      </trkpt>
      <trkpt lat="22.892958" lon="109.194532">
        <ele>92.648643</ele>
        <time>2026-08-15T02:14:38.000Z</time>
      </trkpt>
      <trkpt lat="22.892946" lon="109.194578">
        <ele>92.662781</ele>
        <time>2026-08-15T02:14:39.000Z</time>
      </trkpt>
      <trkpt lat="22.892939" lon="109.194621">
        <ele>92.675694</ele>
        <time>2026-08-15T02:14:40.000Z</time>
      </trkpt>
      <trkpt lat="22.892930" lon="109.194667">
        <ele>92.689601</ele>
        <time>2026-08-15T02:14:41.000Z</time>
      </trkpt>
      <trkpt lat="22.892925" lon="109.194708">
        <ele>92.701831</ele>
        <time>2026-08-15T02:14:42.000Z</time>
      </trkpt>
      <trkpt lat="22.892922" lon="109.194753">
        <ele>92.715173</ele>
        <time>2026-08-15T02:14:43.000Z</time>
      </trkpt>
      <trkpt lat="22.892915" lon="109.194802">
        <ele>92.729837</ele>
        <time>2026-08-15T02:14:44.000Z</time>
      </trkpt>
      <trkpt lat="22.892918" lon="109.194854">
        <ele>92.745244</ele>
        <time>2026-08-15T02:14:45.000Z</time>
      </trkpt>
      <trkpt lat="22.892918" lon="109.194902">
        <ele>92.759439</ele>
        <time>2026-08-15T02:14:46.000Z</time>
      </trkpt>
      <trkpt lat="22.892916" lon="109.194950">
        <ele>92.773648</ele>
        <time>2026-08-15T02:14:47.000Z</time>
      </trkpt>
      <trkpt lat="22.892916" lon="109.194996">
        <ele>92.787251</ele>
        <time>2026-08-15T02:14:48.000Z</time>
      </trkpt>
      <trkpt lat="22.892918" lon="109.195042">
        <ele>92.800869</ele>
        <time>2026-08-15T02:14:49.000Z</time>
      </trkpt>
      <trkpt lat="22.892918" lon="109.195089">
        <ele>92.814768</ele>
        <time>2026-08-15T02:14:50.000Z</time>
      </trkpt>
      <trkpt lat="22.892916" lon="109.195139">
        <ele>92.835025</ele>
        <time>2026-08-15T02:14:51.000Z</time>
      </trkpt>
      <trkpt lat="22.892906" lon="109.195190">
        <ele>92.865714</ele>
        <time>2026-08-15T02:14:52.000Z</time>
      </trkpt>
      <trkpt lat="22.892901" lon="109.195242">
        <ele>92.896486</ele>
        <time>2026-08-15T02:14:53.000Z</time>
      </trkpt>
      <trkpt lat="22.892899" lon="109.195296">
        <ele>92.928294</ele>
        <time>2026-08-15T02:14:54.000Z</time>
      </trkpt>
      <trkpt lat="22.892890" lon="109.195345">
        <ele>92.957701</ele>
        <time>2026-08-15T02:14:55.000Z</time>
      </trkpt>
      <trkpt lat="22.892884" lon="109.195393">
        <ele>92.986210</ele>
        <time>2026-08-15T02:14:56.000Z</time>
      </trkpt>
      <trkpt lat="22.892885" lon="109.195442">
        <ele>93.015057</ele>
        <time>2026-08-15T02:14:57.000Z</time>
      </trkpt>
      <trkpt lat="22.892878" lon="109.195493">
        <ele>93.045405</ele>
        <time>2026-08-15T02:14:58.000Z</time>
      </trkpt>
      <trkpt lat="22.892874" lon="109.195541">
        <ele>93.073771</ele>
        <time>2026-08-15T02:14:59.000Z</time>
      </trkpt>
      <trkpt lat="22.892873" lon="109.195589">
        <ele>93.102029</ele>
        <time>2026-08-15T02:15:00.000Z</time>
      </trkpt>
      <trkpt lat="22.892873" lon="109.195638">
        <ele>93.130868</ele>
        <time>2026-08-15T02:15:01.000Z</time>
      </trkpt>
      <trkpt lat="22.892872" lon="109.195692">
        <ele>93.162657</ele>
        <time>2026-08-15T02:15:02.000Z</time>
      </trkpt>
      <trkpt lat="22.892875" lon="109.195744">
        <ele>93.193322</ele>
        <time>2026-08-15T02:15:03.000Z</time>
      </trkpt>
      <trkpt lat="22.892872" lon="109.195796">
        <ele>93.223987</ele>
        <time>2026-08-15T02:15:04.000Z</time>
      </trkpt>
      <trkpt lat="22.892866" lon="109.195847">
        <ele>93.254248</ele>
        <time>2026-08-15T02:15:05.000Z</time>
      </trkpt>
      <trkpt lat="22.892868" lon="109.195894">
        <ele>93.281939</ele>
        <time>2026-08-15T02:15:06.000Z</time>
      </trkpt>
      <trkpt lat="22.892868" lon="109.195942">
        <ele>93.310190</ele>
        <time>2026-08-15T02:15:07.000Z</time>
      </trkpt>
      <trkpt lat="22.892874" lon="109.195992">
        <ele>93.339867</ele>
        <time>2026-08-15T02:15:08.000Z</time>
      </trkpt>
      <trkpt lat="22.892880" lon="109.196045">
        <ele>93.371295</ele>
        <time>2026-08-15T02:15:09.000Z</time>
      </trkpt>
      <trkpt lat="22.892891" lon="109.196094">
        <ele>93.400978</ele>
        <time>2026-08-15T02:15:10.000Z</time>
      </trkpt>
      <trkpt lat="22.892898" lon="109.196141">
        <ele>93.429000</ele>
        <time>2026-08-15T02:15:11.000Z</time>
      </trkpt>
      <trkpt lat="22.892910" lon="109.196189">
        <ele>93.458273</ele>
        <time>2026-08-15T02:15:12.000Z</time>
      </trkpt>
      <trkpt lat="22.892918" lon="109.196238">
        <ele>93.487561</ele>
        <time>2026-08-15T02:15:13.000Z</time>
      </trkpt>
      <trkpt lat="22.892929" lon="109.196284">
        <ele>93.515532</ele>
        <time>2026-08-15T02:15:14.000Z</time>
      </trkpt>
      <trkpt lat="22.892940" lon="109.196331">
        <ele>93.544073</ele>
        <time>2026-08-15T02:15:15.000Z</time>
      </trkpt>
      <trkpt lat="22.892949" lon="109.196376">
        <ele>93.571176</ele>
        <time>2026-08-15T02:15:16.000Z</time>
      </trkpt>
      <trkpt lat="22.892958" lon="109.196424">
        <ele>93.600006</ele>
        <time>2026-08-15T02:15:17.000Z</time>
      </trkpt>
      <trkpt lat="22.892970" lon="109.196475">
        <ele>93.630986</ele>
        <time>2026-08-15T02:15:18.000Z</time>
      </trkpt>
      <trkpt lat="22.892985" lon="109.196522">
        <ele>93.660261</ele>
        <time>2026-08-15T02:15:19.000Z</time>
      </trkpt>
      <trkpt lat="22.893000" lon="109.196568">
        <ele>93.688981</ele>
        <time>2026-08-15T02:15:20.000Z</time>
      </trkpt>
      <trkpt lat="22.893019" lon="109.196618">
        <ele>93.720814</ele>
        <time>2026-08-15T02:15:21.000Z</time>
      </trkpt>
      <trkpt lat="22.893034" lon="109.196668">
        <ele>93.751763</ele>
        <time>2026-08-15T02:15:22.000Z</time>
      </trkpt>
      <trkpt lat="22.893047" lon="109.196716">
        <ele>93.781209</ele>
        <time>2026-08-15T02:15:23.000Z</time>
      </trkpt>
      <trkpt lat="22.893061" lon="109.196765">
        <ele>93.811404</ele>
        <time>2026-08-15T02:15:24.000Z</time>
      </trkpt>
      <trkpt lat="22.893075" lon="109.196812">
        <ele>93.840476</ele>
        <time>2026-08-15T02:15:25.000Z</time>
      </trkpt>
      <trkpt lat="22.893082" lon="109.196859">
        <ele>93.868498</ele>
        <time>2026-08-15T02:15:26.000Z</time>
      </trkpt>
      <trkpt lat="22.893091" lon="109.196908">
        <ele>93.897905</ele>
        <time>2026-08-15T02:15:27.000Z</time>
      </trkpt>
      <trkpt lat="22.893098" lon="109.196958">
        <ele>93.927671</ele>
        <time>2026-08-15T02:15:28.000Z</time>
      </trkpt>
      <trkpt lat="22.893106" lon="109.197006">
        <ele>93.956380</ele>
        <time>2026-08-15T02:15:29.000Z</time>
      </trkpt>
      <trkpt lat="22.893113" lon="109.197055">
        <ele>93.927355</ele>
        <time>2026-08-15T02:15:30.000Z</time>
      </trkpt>
      <trkpt lat="22.893125" lon="109.197102">
        <ele>93.821174</ele>
        <time>2026-08-15T02:15:31.000Z</time>
      </trkpt>
      <trkpt lat="22.893136" lon="109.197150">
        <ele>93.713488</ele>
        <time>2026-08-15T02:15:32.000Z</time>
      </trkpt>
      <trkpt lat="22.893149" lon="109.197203">
        <ele>93.594082</ele>
        <time>2026-08-15T02:15:33.000Z</time>
      </trkpt>
      <trkpt lat="22.893162" lon="109.197257">
        <ele>93.472571</ele>
        <time>2026-08-15T02:15:34.000Z</time>
      </trkpt>
      <trkpt lat="22.893173" lon="109.197313">
        <ele>93.347912</ele>
        <time>2026-08-15T02:15:35.000Z</time>
      </trkpt>
      <trkpt lat="22.893181" lon="109.197370">
        <ele>93.222385</ele>
        <time>2026-08-15T02:15:36.000Z</time>
      </trkpt>
      <trkpt lat="22.893189" lon="109.197426">
        <ele>93.099011</ele>
        <time>2026-08-15T02:15:37.000Z</time>
      </trkpt>
      <trkpt lat="22.893195" lon="109.197480">
        <ele>92.980595</ele>
        <time>2026-08-15T02:15:38.000Z</time>
      </trkpt>
      <trkpt lat="22.893198" lon="109.197534">
        <ele>92.862818</ele>
        <time>2026-08-15T02:15:39.000Z</time>
      </trkpt>
      <trkpt lat="22.893198" lon="109.197587">
        <ele>92.747432</ele>
        <time>2026-08-15T02:15:40.000Z</time>
      </trkpt>
      <trkpt lat="22.893194" lon="109.197645">
        <ele>92.620806</ele>
        <time>2026-08-15T02:15:41.000Z</time>
      </trkpt>
      <trkpt lat="22.893189" lon="109.197704">
        <ele>92.491815</ele>
        <time>2026-08-15T02:15:42.000Z</time>
      </trkpt>
      <trkpt lat="22.893186" lon="109.197766">
        <ele>92.356649</ele>
        <time>2026-08-15T02:15:43.000Z</time>
      </trkpt>
      <trkpt lat="22.893183" lon="109.197830">
        <ele>92.217134</ele>
        <time>2026-08-15T02:15:44.000Z</time>
      </trkpt>
      <trkpt lat="22.893181" lon="109.197896">
        <ele>92.073368</ele>
        <time>2026-08-15T02:15:45.000Z</time>
      </trkpt>
      <trkpt lat="22.893179" lon="109.197963">
        <ele>91.927425</ele>
        <time>2026-08-15T02:15:46.000Z</time>
      </trkpt>
      <trkpt lat="22.893175" lon="109.198030">
        <ele>91.781253</ele>
        <time>2026-08-15T02:15:47.000Z</time>
      </trkpt>
      <trkpt lat="22.893173" lon="109.198100">
        <ele>91.628783</ele>
        <time>2026-08-15T02:15:48.000Z</time>
      </trkpt>
      <trkpt lat="22.893174" lon="109.198173">
        <ele>91.469837</ele>
        <time>2026-08-15T02:15:49.000Z</time>
      </trkpt>
      <trkpt lat="22.893175" lon="109.198251">
        <ele>91.300007</ele>
        <time>2026-08-15T02:15:50.000Z</time>
      </trkpt>
      <trkpt lat="22.893174" lon="109.198331">
        <ele>91.125822</ele>
        <time>2026-08-15T02:15:51.000Z</time>
      </trkpt>
      <trkpt lat="22.893170" lon="109.198411">
        <ele>90.951398</ele>
        <time>2026-08-15T02:15:52.000Z</time>
      </trkpt>
      <trkpt lat="22.893166" lon="109.198495">
        <ele>90.768277</ele>
        <time>2026-08-15T02:15:53.000Z</time>
      </trkpt>
      <trkpt lat="22.893162" lon="109.198577">
        <ele>90.589505</ele>
        <time>2026-08-15T02:15:54.000Z</time>
      </trkpt>
      <trkpt lat="22.893158" lon="109.198660">
        <ele>90.408558</ele>
        <time>2026-08-15T02:15:55.000Z</time>
      </trkpt>
      <trkpt lat="22.893156" lon="109.198742">
        <ele>90.229973</ele>
        <time>2026-08-15T02:15:56.000Z</time>
      </trkpt>
      <trkpt lat="22.893154" lon="109.198824">
        <ele>90.051388</ele>
        <time>2026-08-15T02:15:57.000Z</time>
      </trkpt>
      <trkpt lat="22.893151" lon="109.198906">
        <ele>89.872725</ele>
        <time>2026-08-15T02:15:58.000Z</time>
      </trkpt>
      <trkpt lat="22.893149" lon="109.198988">
        <ele>89.703843</ele>
        <time>2026-08-15T02:15:59.000Z</time>
      </trkpt>
      <trkpt lat="22.893146" lon="109.199071">
        <ele>89.584809</ele>
        <time>2026-08-15T02:16:00.000Z</time>
      </trkpt>
      <trkpt lat="22.893142" lon="109.199154">
        <ele>89.465703</ele>
        <time>2026-08-15T02:16:01.000Z</time>
      </trkpt>
      <trkpt lat="22.893139" lon="109.199238">
        <ele>89.345237</ele>
        <time>2026-08-15T02:16:02.000Z</time>
      </trkpt>
      <trkpt lat="22.893135" lon="109.199321">
        <ele>89.226131</ele>
        <time>2026-08-15T02:16:03.000Z</time>
      </trkpt>
      <trkpt lat="22.893134" lon="109.199406">
        <ele>89.104312</ele>
        <time>2026-08-15T02:16:04.000Z</time>
      </trkpt>
      <trkpt lat="22.893131" lon="109.199494">
        <ele>88.978118</ele>
        <time>2026-08-15T02:16:05.000Z</time>
      </trkpt>
      <trkpt lat="22.893128" lon="109.199583">
        <ele>88.850491</ele>
        <time>2026-08-15T02:16:06.000Z</time>
      </trkpt>
      <trkpt lat="22.893126" lon="109.199672">
        <ele>88.722912</ele>
        <time>2026-08-15T02:16:07.000Z</time>
      </trkpt>
      <trkpt lat="22.893123" lon="109.199762">
        <ele>88.593853</ele>
        <time>2026-08-15T02:16:08.000Z</time>
      </trkpt>
      <trkpt lat="22.893120" lon="109.199851">
        <ele>88.466227</ele>
        <time>2026-08-15T02:16:09.000Z</time>
      </trkpt>
      <trkpt lat="22.893117" lon="109.199938">
        <ele>88.341464</ele>
        <time>2026-08-15T02:16:10.000Z</time>
      </trkpt>
      <trkpt lat="22.893116" lon="109.200022">
        <ele>88.221078</ele>
        <time>2026-08-15T02:16:11.000Z</time>
      </trkpt>
      <trkpt lat="22.893115" lon="109.200107">
        <ele>88.099259</ele>
        <time>2026-08-15T02:16:12.000Z</time>
      </trkpt>
      <trkpt lat="22.893113" lon="109.200190">
        <ele>87.980276</ele>
        <time>2026-08-15T02:16:13.000Z</time>
      </trkpt>
      <trkpt lat="22.893112" lon="109.200272">
        <ele>87.862755</ele>
        <time>2026-08-15T02:16:14.000Z</time>
      </trkpt>
      <trkpt lat="22.893111" lon="109.200349">
        <ele>87.752400</ele>
        <time>2026-08-15T02:16:15.000Z</time>
      </trkpt>
      <trkpt lat="22.893113" lon="109.200426">
        <ele>87.642011</ele>
        <time>2026-08-15T02:16:16.000Z</time>
      </trkpt>
      <trkpt lat="22.893115" lon="109.200502">
        <ele>87.533055</ele>
        <time>2026-08-15T02:16:17.000Z</time>
      </trkpt>
      <trkpt lat="22.893118" lon="109.200575">
        <ele>87.428339</ele>
        <time>2026-08-15T02:16:18.000Z</time>
      </trkpt>
      <trkpt lat="22.893119" lon="109.200647">
        <ele>87.325147</ele>
        <time>2026-08-15T02:16:19.000Z</time>
      </trkpt>
      <trkpt lat="22.893119" lon="109.200717">
        <ele>87.224834</ele>
        <time>2026-08-15T02:16:20.000Z</time>
      </trkpt>
      <trkpt lat="22.893116" lon="109.200786">
        <ele>87.125844</ele>
        <time>2026-08-15T02:16:21.000Z</time>
      </trkpt>
      <trkpt lat="22.893111" lon="109.200854">
        <ele>87.028087</ele>
        <time>2026-08-15T02:16:22.000Z</time>
      </trkpt>
      <trkpt lat="22.893106" lon="109.200924">
        <ele>86.927472</ele>
        <time>2026-08-15T02:16:23.000Z</time>
      </trkpt>
      <trkpt lat="22.893101" lon="109.200993">
        <ele>86.913315</ele>
        <time>2026-08-15T02:16:24.000Z</time>
      </trkpt>
      <trkpt lat="22.893095" lon="109.201061">
        <ele>86.901843</ele>
        <time>2026-08-15T02:16:25.000Z</time>
      </trkpt>
      <trkpt lat="22.893087" lon="109.201129">
        <ele>86.890330</ele>
        <time>2026-08-15T02:16:26.000Z</time>
      </trkpt>
      <trkpt lat="22.893081" lon="109.201198">
        <ele>86.878690</ele>
        <time>2026-08-15T02:16:27.000Z</time>
      </trkpt>
      <trkpt lat="22.893075" lon="109.201268">
        <ele>86.866883</ele>
        <time>2026-08-15T02:16:28.000Z</time>
      </trkpt>
      <trkpt lat="22.893071" lon="109.201339">
        <ele>86.854937</ele>
        <time>2026-08-15T02:16:29.000Z</time>
      </trkpt>
      <trkpt lat="22.893069" lon="109.201413">
        <ele>86.842504</ele>
        <time>2026-08-15T02:16:30.000Z</time>
      </trkpt>
      <trkpt lat="22.893067" lon="109.201488">
        <ele>86.829902</ele>
        <time>2026-08-15T02:16:31.000Z</time>
      </trkpt>
      <trkpt lat="22.893069" lon="109.201566">
        <ele>86.816798</ele>
        <time>2026-08-15T02:16:32.000Z</time>
      </trkpt>
      <trkpt lat="22.893068" lon="109.201641">
        <ele>86.804201</ele>
        <time>2026-08-15T02:16:33.000Z</time>
      </trkpt>
      <trkpt lat="22.893066" lon="109.201715">
        <ele>86.791767</ele>
        <time>2026-08-15T02:16:34.000Z</time>
      </trkpt>
      <trkpt lat="22.893061" lon="109.201788">
        <ele>86.779474</ele>
        <time>2026-08-15T02:16:35.000Z</time>
      </trkpt>
      <trkpt lat="22.893057" lon="109.201862">
        <ele>86.767024</ele>
        <time>2026-08-15T02:16:36.000Z</time>
      </trkpt>
      <trkpt lat="22.893056" lon="109.201935">
        <ele>86.754763</ele>
        <time>2026-08-15T02:16:37.000Z</time>
      </trkpt>
      <trkpt lat="22.893054" lon="109.202006">
        <ele>86.742833</ele>
        <time>2026-08-15T02:16:38.000Z</time>
      </trkpt>
      <trkpt lat="22.893053" lon="109.202078">
        <ele>86.730740</ele>
        <time>2026-08-15T02:16:39.000Z</time>
      </trkpt>
      <trkpt lat="22.893051" lon="109.202148">
        <ele>86.718978</ele>
        <time>2026-08-15T02:16:40.000Z</time>
      </trkpt>
      <trkpt lat="22.893049" lon="109.202217">
        <ele>86.707384</ele>
        <time>2026-08-15T02:16:41.000Z</time>
      </trkpt>
      <trkpt lat="22.893046" lon="109.202285">
        <ele>86.695951</ele>
        <time>2026-08-15T02:16:42.000Z</time>
      </trkpt>
      <trkpt lat="22.893044" lon="109.202352">
        <ele>86.684693</ele>
        <time>2026-08-15T02:16:43.000Z</time>
      </trkpt>
      <trkpt lat="22.893043" lon="109.202417">
        <ele>86.673775</ele>
        <time>2026-08-15T02:16:44.000Z</time>
      </trkpt>
      <trkpt lat="22.893041" lon="109.202481">
        <ele>86.663020</ele>
        <time>2026-08-15T02:16:45.000Z</time>
      </trkpt>
      <trkpt lat="22.893039" lon="109.202543">
        <ele>86.652601</ele>
        <time>2026-08-15T02:16:46.000Z</time>
      </trkpt>
      <trkpt lat="22.893038" lon="109.202605">
        <ele>86.642187</ele>
        <time>2026-08-15T02:16:47.000Z</time>
      </trkpt>
      <trkpt lat="22.893037" lon="109.202664">
        <ele>86.632277</ele>
        <time>2026-08-15T02:16:48.000Z</time>
      </trkpt>
      <trkpt lat="22.893036" lon="109.202720">
        <ele>86.622870</ele>
        <time>2026-08-15T02:16:49.000Z</time>
      </trkpt>
      <trkpt lat="22.893034" lon="109.202775">
        <ele>86.613626</ele>
        <time>2026-08-15T02:16:50.000Z</time>
      </trkpt>
      <trkpt lat="22.893032" lon="109.202830">
        <ele>86.604382</ele>
        <time>2026-08-15T02:16:51.000Z</time>
      </trkpt>
      <trkpt lat="22.893029" lon="109.202884">
        <ele>86.596317</ele>
        <time>2026-08-15T02:16:52.000Z</time>
      </trkpt>
      <trkpt lat="22.893027" lon="109.202938">
        <ele>86.593829</ele>
        <time>2026-08-15T02:16:53.000Z</time>
      </trkpt>
      <trkpt lat="22.893025" lon="109.202990">
        <ele>86.591433</ele>
        <time>2026-08-15T02:16:54.000Z</time>
      </trkpt>
      <trkpt lat="22.893024" lon="109.203042">
        <ele>86.589039</ele>
        <time>2026-08-15T02:16:55.000Z</time>
      </trkpt>
      <trkpt lat="22.893022" lon="109.203094">
        <ele>86.586643</ele>
        <time>2026-08-15T02:16:56.000Z</time>
      </trkpt>
      <trkpt lat="22.893021" lon="109.203144">
        <ele>86.584340</ele>
        <time>2026-08-15T02:16:57.000Z</time>
      </trkpt>
      <trkpt lat="22.893021" lon="109.203194">
        <ele>86.582039</ele>
        <time>2026-08-15T02:16:58.000Z</time>
      </trkpt>
      <trkpt lat="22.893020" lon="109.203245">
        <ele>86.579690</ele>
        <time>2026-08-15T02:16:59.000Z</time>
      </trkpt>
      <trkpt lat="22.893020" lon="109.203296">
        <ele>86.577342</ele>
        <time>2026-08-15T02:17:00.000Z</time>
      </trkpt>
      <trkpt lat="22.893019" lon="109.203347">
        <ele>86.574994</ele>
        <time>2026-08-15T02:17:01.000Z</time>
      </trkpt>
      <trkpt lat="22.893019" lon="109.203398">
        <ele>86.572646</ele>
        <time>2026-08-15T02:17:02.000Z</time>
      </trkpt>
      <trkpt lat="22.893018" lon="109.203448">
        <ele>86.570344</ele>
        <time>2026-08-15T02:17:03.000Z</time>
      </trkpt>
      <trkpt lat="22.893017" lon="109.203497">
        <ele>86.568087</ele>
        <time>2026-08-15T02:17:04.000Z</time>
      </trkpt>
      <trkpt lat="22.893018" lon="109.203546">
        <ele>86.565831</ele>
        <time>2026-08-15T02:17:05.000Z</time>
      </trkpt>
      <trkpt lat="22.893018" lon="109.203599">
        <ele>86.563391</ele>
        <time>2026-08-15T02:17:06.000Z</time>
      </trkpt>
      <trkpt lat="22.893018" lon="109.203650">
        <ele>86.561043</ele>
        <time>2026-08-15T02:17:07.000Z</time>
      </trkpt>
      <trkpt lat="22.893016" lon="109.203699">
        <ele>86.558785</ele>
        <time>2026-08-15T02:17:08.000Z</time>
      </trkpt>
      <trkpt lat="22.893015" lon="109.203750">
        <ele>86.556437</ele>
        <time>2026-08-15T02:17:09.000Z</time>
      </trkpt>
      <trkpt lat="22.893012" lon="109.203800">
        <ele>86.554130</ele>
        <time>2026-08-15T02:17:10.000Z</time>
      </trkpt>
      <trkpt lat="22.893011" lon="109.203849">
        <ele>86.551874</ele>
        <time>2026-08-15T02:17:11.000Z</time>
      </trkpt>
      <trkpt lat="22.893010" lon="109.203899">
        <ele>86.549572</ele>
        <time>2026-08-15T02:17:12.000Z</time>
      </trkpt>
      <trkpt lat="22.893008" lon="109.203949">
        <ele>86.547268</ele>
        <time>2026-08-15T02:17:13.000Z</time>
      </trkpt>
      <trkpt lat="22.893009" lon="109.203999">
        <ele>86.544965</ele>
        <time>2026-08-15T02:17:14.000Z</time>
      </trkpt>
      <trkpt lat="22.893009" lon="109.204049">
        <ele>86.542663</ele>
        <time>2026-08-15T02:17:15.000Z</time>
      </trkpt>
      <trkpt lat="22.893008" lon="109.204101">
        <ele>86.540269</ele>
        <time>2026-08-15T02:17:16.000Z</time>
      </trkpt>
      <trkpt lat="22.893002" lon="109.204154">
        <ele>86.537811</ele>
        <time>2026-08-15T02:17:17.000Z</time>
      </trkpt>
      <trkpt lat="22.892997" lon="109.204209">
        <ele>86.535266</ele>
        <time>2026-08-15T02:17:18.000Z</time>
      </trkpt>
      <trkpt lat="22.892991" lon="109.204264">
        <ele>86.532717</ele>
        <time>2026-08-15T02:17:19.000Z</time>
      </trkpt>
      <trkpt lat="22.892986" lon="109.204319">
        <ele>86.530172</ele>
        <time>2026-08-15T02:17:20.000Z</time>
      </trkpt>
      <trkpt lat="22.892981" lon="109.204375">
        <ele>86.527582</ele>
        <time>2026-08-15T02:17:21.000Z</time>
      </trkpt>
      <trkpt lat="22.892974" lon="109.204432">
        <ele>86.524935</ele>
        <time>2026-08-15T02:17:22.000Z</time>
      </trkpt>
      <trkpt lat="22.892966" lon="109.204491">
        <ele>86.522190</ele>
        <time>2026-08-15T02:17:23.000Z</time>
      </trkpt>
      <trkpt lat="22.892955" lon="109.204548">
        <ele>86.519509</ele>
        <time>2026-08-15T02:17:24.000Z</time>
      </trkpt>
      <trkpt lat="22.892942" lon="109.204605">
        <ele>86.516805</ele>
        <time>2026-08-15T02:17:25.000Z</time>
      </trkpt>
      <trkpt lat="22.892926" lon="109.204660">
        <ele>86.514150</ele>
        <time>2026-08-15T02:17:26.000Z</time>
      </trkpt>
      <trkpt lat="22.892909" lon="109.204713">
        <ele>86.511566</ele>
        <time>2026-08-15T02:17:27.000Z</time>
      </trkpt>
      <trkpt lat="22.892888" lon="109.204771">
        <ele>86.508697</ele>
        <time>2026-08-15T02:17:28.000Z</time>
      </trkpt>
      <trkpt lat="22.892865" lon="109.204831">
        <ele>86.489347</ele>
        <time>2026-08-15T02:17:29.000Z</time>
      </trkpt>
      <trkpt lat="22.892837" lon="109.204888">
        <ele>86.442709</ele>
        <time>2026-08-15T02:17:30.000Z</time>
      </trkpt>
      <trkpt lat="22.892808" lon="109.204948">
        <ele>86.393790</ele>
        <time>2026-08-15T02:17:31.000Z</time>
      </trkpt>
      <trkpt lat="22.892777" lon="109.205006">
        <ele>86.345377</ele>
        <time>2026-08-15T02:17:32.000Z</time>
      </trkpt>
      <trkpt lat="22.892747" lon="109.205067">
        <ele>86.295454</ele>
        <time>2026-08-15T02:17:33.000Z</time>
      </trkpt>
      <trkpt lat="22.892715" lon="109.205128">
        <ele>86.244773</ele>
        <time>2026-08-15T02:17:34.000Z</time>
      </trkpt>
      <trkpt lat="22.892681" lon="109.205191">
        <ele>86.192058</ele>
        <time>2026-08-15T02:17:35.000Z</time>
      </trkpt>
      <trkpt lat="22.892646" lon="109.205254">
        <ele>86.138942</ele>
        <time>2026-08-15T02:17:36.000Z</time>
      </trkpt>
      <trkpt lat="22.892610" lon="109.205316">
        <ele>86.086030</ele>
        <time>2026-08-15T02:17:37.000Z</time>
      </trkpt>
      <trkpt lat="22.892574" lon="109.205380">
        <ele>86.031890</ele>
        <time>2026-08-15T02:17:38.000Z</time>
      </trkpt>
      <trkpt lat="22.892538" lon="109.205444">
        <ele>85.977751</ele>
        <time>2026-08-15T02:17:39.000Z</time>
      </trkpt>
      <trkpt lat="22.892502" lon="109.205508">
        <ele>85.923611</ele>
        <time>2026-08-15T02:17:40.000Z</time>
      </trkpt>
      <trkpt lat="22.892466" lon="109.205574">
        <ele>85.868234</ele>
        <time>2026-08-15T02:17:41.000Z</time>
      </trkpt>
      <trkpt lat="22.892430" lon="109.205639">
        <ele>85.813478</ele>
        <time>2026-08-15T02:17:42.000Z</time>
      </trkpt>
      <trkpt lat="22.892394" lon="109.205705">
        <ele>85.758101</ele>
        <time>2026-08-15T02:17:43.000Z</time>
      </trkpt>
      <trkpt lat="22.892360" lon="109.205770">
        <ele>85.704134</ele>
        <time>2026-08-15T02:17:44.000Z</time>
      </trkpt>
      <trkpt lat="22.892326" lon="109.205834">
        <ele>85.650795</ele>
        <time>2026-08-15T02:17:45.000Z</time>
      </trkpt>
      <trkpt lat="22.892291" lon="109.205896">
        <ele>85.598296</ele>
        <time>2026-08-15T02:17:46.000Z</time>
      </trkpt>
      <trkpt lat="22.892258" lon="109.205957">
        <ele>85.547223</ele>
        <time>2026-08-15T02:17:47.000Z</time>
      </trkpt>
      <trkpt lat="22.892224" lon="109.206018">
        <ele>85.495748</ele>
        <time>2026-08-15T02:17:48.000Z</time>
      </trkpt>
      <trkpt lat="22.892191" lon="109.206077">
        <ele>85.445915</ele>
        <time>2026-08-15T02:17:49.000Z</time>
      </trkpt>
      <trkpt lat="22.892157" lon="109.206136">
        <ele>85.395670</ele>
        <time>2026-08-15T02:17:50.000Z</time>
      </trkpt>
      <trkpt lat="22.892127" lon="109.206195">
        <ele>85.347015</ele>
        <time>2026-08-15T02:17:51.000Z</time>
      </trkpt>
      <trkpt lat="22.892096" lon="109.206251">
        <ele>85.299846</ele>
        <time>2026-08-15T02:17:52.000Z</time>
      </trkpt>
      <trkpt lat="22.892065" lon="109.206302">
        <ele>85.255732</ele>
        <time>2026-08-15T02:17:53.000Z</time>
      </trkpt>
      <trkpt lat="22.892035" lon="109.206359">
        <ele>85.208336</ele>
        <time>2026-08-15T02:17:54.000Z</time>
      </trkpt>
      <trkpt lat="22.892007" lon="109.206414">
        <ele>85.162967</ele>
        <time>2026-08-15T02:17:55.000Z</time>
      </trkpt>
      <trkpt lat="22.891979" lon="109.206470">
        <ele>85.116965</ele>
        <time>2026-08-15T02:17:56.000Z</time>
      </trkpt>
      <trkpt lat="22.891948" lon="109.206523">
        <ele>85.162675</ele>
        <time>2026-08-15T02:17:57.000Z</time>
      </trkpt>
      <trkpt lat="22.891919" lon="109.206577">
        <ele>85.278244</ele>
        <time>2026-08-15T02:17:58.000Z</time>
      </trkpt>
      <trkpt lat="22.891891" lon="109.206627">
        <ele>85.386430</ele>
        <time>2026-08-15T02:17:59.000Z</time>
      </trkpt>
      <trkpt lat="22.891864" lon="109.206675">
        <ele>85.490415</ele>
        <time>2026-08-15T02:18:00.000Z</time>
      </trkpt>
      <trkpt lat="22.891832" lon="109.206719">
        <ele>85.594063</ele>
        <time>2026-08-15T02:18:01.000Z</time>
      </trkpt>
      <trkpt lat="22.891802" lon="109.206768">
        <ele>85.702844</ele>
        <time>2026-08-15T02:18:02.000Z</time>
      </trkpt>
      <trkpt lat="22.891774" lon="109.206820">
        <ele>85.814207</ele>
        <time>2026-08-15T02:18:03.000Z</time>
      </trkpt>
      <trkpt lat="22.891751" lon="109.206861">
        <ele>85.902962</ele>
        <time>2026-08-15T02:18:04.000Z</time>
      </trkpt>
      <trkpt lat="22.891727" lon="109.206903">
        <ele>85.994343</ele>
        <time>2026-08-15T02:18:05.000Z</time>
      </trkpt>
      <trkpt lat="22.891704" lon="109.206943">
        <ele>86.081523</ele>
        <time>2026-08-15T02:18:06.000Z</time>
      </trkpt>
      <trkpt lat="22.891681" lon="109.206980">
        <ele>86.164051</ele>
        <time>2026-08-15T02:18:07.000Z</time>
      </trkpt>
      <trkpt lat="22.891662" lon="109.207019">
        <ele>86.245622</ele>
        <time>2026-08-15T02:18:08.000Z</time>
      </trkpt>
      <trkpt lat="22.891645" lon="109.207057">
        <ele>86.323727</ele>
        <time>2026-08-15T02:18:09.000Z</time>
      </trkpt>
      <trkpt lat="22.891631" lon="109.207092">
        <ele>86.394277</ele>
        <time>2026-08-15T02:18:10.000Z</time>
      </trkpt>
      <trkpt lat="22.891615" lon="109.207126">
        <ele>86.464867</ele>
        <time>2026-08-15T02:18:11.000Z</time>
      </trkpt>
      <trkpt lat="22.891597" lon="109.207161">
        <ele>86.538981</ele>
        <time>2026-08-15T02:18:12.000Z</time>
      </trkpt>
      <trkpt lat="22.891580" lon="109.207199">
        <ele>86.617087</ele>
        <time>2026-08-15T02:18:13.000Z</time>
      </trkpt>
      <trkpt lat="22.891563" lon="109.207238">
        <ele>86.696860</ele>
        <time>2026-08-15T02:18:14.000Z</time>
      </trkpt>
      <trkpt lat="22.891545" lon="109.207276">
        <ele>86.775863</ele>
        <time>2026-08-15T02:18:15.000Z</time>
      </trkpt>
      <trkpt lat="22.891528" lon="109.207313">
        <ele>86.852309</ele>
        <time>2026-08-15T02:18:16.000Z</time>
      </trkpt>
      <trkpt lat="22.891510" lon="109.207350">
        <ele>86.929673</ele>
        <time>2026-08-15T02:18:17.000Z</time>
      </trkpt>
      <trkpt lat="22.891494" lon="109.207387">
        <ele>87.005245</ele>
        <time>2026-08-15T02:18:18.000Z</time>
      </trkpt>
      <trkpt lat="22.891477" lon="109.207424">
        <ele>87.081692</ele>
        <time>2026-08-15T02:18:19.000Z</time>
      </trkpt>
      <trkpt lat="22.891456" lon="109.207462">
        <ele>87.163624</ele>
        <time>2026-08-15T02:18:20.000Z</time>
      </trkpt>
      <trkpt lat="22.891438" lon="109.207500">
        <ele>87.242627</ele>
        <time>2026-08-15T02:18:21.000Z</time>
      </trkpt>
      <trkpt lat="22.891420" lon="109.207542">
        <ele>87.328274</ele>
        <time>2026-08-15T02:18:22.000Z</time>
      </trkpt>
      <trkpt lat="22.891403" lon="109.207583">
        <ele>87.411405</ele>
        <time>2026-08-15T02:18:23.000Z</time>
      </trkpt>
      <trkpt lat="22.891385" lon="109.207623">
        <ele>87.493714</ele>
        <time>2026-08-15T02:18:24.000Z</time>
      </trkpt>
      <trkpt lat="22.891367" lon="109.207664">
        <ele>87.577688</ele>
        <time>2026-08-15T02:18:25.000Z</time>
      </trkpt>
      <trkpt lat="22.891345" lon="109.207703">
        <ele>87.662241</ele>
        <time>2026-08-15T02:18:26.000Z</time>
      </trkpt>
      <trkpt lat="22.891326" lon="109.207745">
        <ele>87.748754</ele>
        <time>2026-08-15T02:18:27.000Z</time>
      </trkpt>
      <trkpt lat="22.891306" lon="109.207787">
        <ele>87.836170</ele>
        <time>2026-08-15T02:18:28.000Z</time>
      </trkpt>
      <trkpt lat="22.891284" lon="109.207828">
        <ele>87.923898</ele>
        <time>2026-08-15T02:18:29.000Z</time>
      </trkpt>
      <trkpt lat="22.891263" lon="109.207869">
        <ele>88.010633</ele>
        <time>2026-08-15T02:18:30.000Z</time>
      </trkpt>
      <trkpt lat="22.891243" lon="109.207912">
        <ele>88.099696</ele>
        <time>2026-08-15T02:18:31.000Z</time>
      </trkpt>
      <trkpt lat="22.891223" lon="109.207954">
        <ele>88.187112</ele>
        <time>2026-08-15T02:18:32.000Z</time>
      </trkpt>
      <trkpt lat="22.891203" lon="109.207997">
        <ele>88.276175</ele>
        <time>2026-08-15T02:18:33.000Z</time>
      </trkpt>
      <trkpt lat="22.891182" lon="109.208039">
        <ele>88.364530</ele>
        <time>2026-08-15T02:18:34.000Z</time>
      </trkpt>
      <trkpt lat="22.891162" lon="109.208081">
        <ele>88.451947</ele>
        <time>2026-08-15T02:18:35.000Z</time>
      </trkpt>
      <trkpt lat="22.891142" lon="109.208123">
        <ele>88.539363</ele>
        <time>2026-08-15T02:18:36.000Z</time>
      </trkpt>
      <trkpt lat="22.891121" lon="109.208163">
        <ele>88.624487</ele>
        <time>2026-08-15T02:18:37.000Z</time>
      </trkpt>
      <trkpt lat="22.891099" lon="109.208203">
        <ele>88.710250</ele>
        <time>2026-08-15T02:18:38.000Z</time>
      </trkpt>
      <trkpt lat="22.891076" lon="109.208243">
        <ele>88.788274</ele>
        <time>2026-08-15T02:18:39.000Z</time>
      </trkpt>
      <trkpt lat="22.891055" lon="109.208282">
        <ele>88.863024</ele>
        <time>2026-08-15T02:18:40.000Z</time>
      </trkpt>
      <trkpt lat="22.891034" lon="109.208322">
        <ele>88.939207</ele>
        <time>2026-08-15T02:18:41.000Z</time>
      </trkpt>
      <trkpt lat="22.891016" lon="109.208361">
        <ele>89.011388</ele>
        <time>2026-08-15T02:18:42.000Z</time>
      </trkpt>
      <trkpt lat="22.890996" lon="109.208401">
        <ele>89.086698</ele>
        <time>2026-08-15T02:18:43.000Z</time>
      </trkpt>
      <trkpt lat="22.890974" lon="109.208439">
        <ele>89.160964</ele>
        <time>2026-08-15T02:18:44.000Z</time>
      </trkpt>
      <trkpt lat="22.890955" lon="109.208478">
        <ele>89.233967</ele>
        <time>2026-08-15T02:18:45.000Z</time>
      </trkpt>
      <trkpt lat="22.890935" lon="109.208515">
        <ele>89.304953</ele>
        <time>2026-08-15T02:18:46.000Z</time>
      </trkpt>
      <trkpt lat="22.890914" lon="109.208549">
        <ele>89.372689</ele>
        <time>2026-08-15T02:18:47.000Z</time>
      </trkpt>
      <trkpt lat="22.890894" lon="109.208583">
        <ele>89.439441</ele>
        <time>2026-08-15T02:18:48.000Z</time>
      </trkpt>
      <trkpt lat="22.890875" lon="109.208616">
        <ele>89.503834</ele>
        <time>2026-08-15T02:18:49.000Z</time>
      </trkpt>
      <trkpt lat="22.890859" lon="109.208648">
        <ele>89.564082</ele>
        <time>2026-08-15T02:18:50.000Z</time>
      </trkpt>
      <trkpt lat="22.890842" lon="109.208679">
        <ele>89.623780</ele>
        <time>2026-08-15T02:18:51.000Z</time>
      </trkpt>
      <trkpt lat="22.890827" lon="109.208711">
        <ele>89.683192</ele>
        <time>2026-08-15T02:18:52.000Z</time>
      </trkpt>
      <trkpt lat="22.890809" lon="109.208743">
        <ele>89.745234</ele>
        <time>2026-08-15T02:18:53.000Z</time>
      </trkpt>
      <trkpt lat="22.890792" lon="109.208774">
        <ele>89.804931</ele>
        <time>2026-08-15T02:18:54.000Z</time>
      </trkpt>
      <trkpt lat="22.890776" lon="109.208804">
        <ele>89.862292</ele>
        <time>2026-08-15T02:18:55.000Z</time>
      </trkpt>
      <trkpt lat="22.890760" lon="109.208836">
        <ele>89.922540</ele>
        <time>2026-08-15T02:18:56.000Z</time>
      </trkpt>
      <trkpt lat="22.890744" lon="109.208868">
        <ele>89.982788</ele>
        <time>2026-08-15T02:18:57.000Z</time>
      </trkpt>
      <trkpt lat="22.890727" lon="109.208899">
        <ele>90.042486</ele>
        <time>2026-08-15T02:18:58.000Z</time>
      </trkpt>
      <trkpt lat="22.890710" lon="109.208932">
        <ele>90.105050</ele>
        <time>2026-08-15T02:18:59.000Z</time>
      </trkpt>
      <trkpt lat="22.890693" lon="109.208964">
        <ele>90.166175</ele>
        <time>2026-08-15T02:19:00.000Z</time>
      </trkpt>
      <trkpt lat="22.890673" lon="109.208996">
        <ele>90.230163</ele>
        <time>2026-08-15T02:19:01.000Z</time>
      </trkpt>
      <trkpt lat="22.890654" lon="109.209029">
        <ele>90.294556</ele>
        <time>2026-08-15T02:19:02.000Z</time>
      </trkpt>
      <trkpt lat="22.890635" lon="109.209064">
        <ele>90.361780</ele>
        <time>2026-08-15T02:19:03.000Z</time>
      </trkpt>
      <trkpt lat="22.890615" lon="109.209099">
        <ele>90.429932</ele>
        <time>2026-08-15T02:19:04.000Z</time>
      </trkpt>
      <trkpt lat="22.890597" lon="109.209134">
        <ele>90.496262</ele>
        <time>2026-08-15T02:19:05.000Z</time>
      </trkpt>
      <trkpt lat="22.890578" lon="109.209167">
        <ele>90.560655</ele>
        <time>2026-08-15T02:19:06.000Z</time>
      </trkpt>
      <trkpt lat="22.890559" lon="109.209201">
        <ele>90.626458</ele>
        <time>2026-08-15T02:19:07.000Z</time>
      </trkpt>
      <trkpt lat="22.890538" lon="109.209233">
        <ele>90.691471</ele>
        <time>2026-08-15T02:19:08.000Z</time>
      </trkpt>
      <trkpt lat="22.890518" lon="109.209267">
        <ele>90.758224</ele>
        <time>2026-08-15T02:19:09.000Z</time>
      </trkpt>
      <trkpt lat="22.890498" lon="109.209303">
        <ele>90.827788</ele>
        <time>2026-08-15T02:19:10.000Z</time>
      </trkpt>
      <trkpt lat="22.890478" lon="109.209338">
        <ele>90.895941</ele>
        <time>2026-08-15T02:19:11.000Z</time>
      </trkpt>
      <trkpt lat="22.890459" lon="109.209375">
        <ele>90.966035</ele>
        <time>2026-08-15T02:19:12.000Z</time>
      </trkpt>
      <trkpt lat="22.890440" lon="109.209412">
        <ele>91.036130</ele>
        <time>2026-08-15T02:19:13.000Z</time>
      </trkpt>
      <trkpt lat="22.890420" lon="109.209450">
        <ele>91.108549</ele>
        <time>2026-08-15T02:19:14.000Z</time>
      </trkpt>
      <trkpt lat="22.890399" lon="109.209490">
        <ele>91.184732</ele>
        <time>2026-08-15T02:19:15.000Z</time>
      </trkpt>
      <trkpt lat="22.890377" lon="109.209528">
        <ele>91.258998</ele>
        <time>2026-08-15T02:19:16.000Z</time>
      </trkpt>
      <trkpt lat="22.890354" lon="109.209567">
        <ele>91.335624</ele>
        <time>2026-08-15T02:19:17.000Z</time>
      </trkpt>
      <trkpt lat="22.890331" lon="109.209606">
        <ele>91.412249</ele>
        <time>2026-08-15T02:19:18.000Z</time>
      </trkpt>
      <trkpt lat="22.890309" lon="109.209645">
        <ele>91.487922</ele>
        <time>2026-08-15T02:19:19.000Z</time>
      </trkpt>
      <trkpt lat="22.890286" lon="109.209685">
        <ele>91.565946</ele>
        <time>2026-08-15T02:19:20.000Z</time>
      </trkpt>
      <trkpt lat="22.890262" lon="109.209727">
        <ele>91.647730</ele>
        <time>2026-08-15T02:19:21.000Z</time>
      </trkpt>
      <trkpt lat="22.890238" lon="109.209770">
        <ele>91.730924</ele>
        <time>2026-08-15T02:19:22.000Z</time>
      </trkpt>
      <trkpt lat="22.890216" lon="109.209812">
        <ele>91.810872</ele>
        <time>2026-08-15T02:19:23.000Z</time>
      </trkpt>
      <trkpt lat="22.890190" lon="109.209852">
        <ele>91.891879</ele>
        <time>2026-08-15T02:19:24.000Z</time>
      </trkpt>
      <trkpt lat="22.890167" lon="109.209894">
        <ele>91.943760</ele>
        <time>2026-08-15T02:19:25.000Z</time>
      </trkpt>
      <trkpt lat="22.890144" lon="109.209937">
        <ele>91.957812</ele>
        <time>2026-08-15T02:19:26.000Z</time>
      </trkpt>
      <trkpt lat="22.890121" lon="109.209978">
        <ele>91.971378</ele>
        <time>2026-08-15T02:19:27.000Z</time>
      </trkpt>
      <trkpt lat="22.890097" lon="109.210018">
        <ele>91.984869</ele>
        <time>2026-08-15T02:19:28.000Z</time>
      </trkpt>
      <trkpt lat="22.890072" lon="109.210057">
        <ele>91.998297</ele>
        <time>2026-08-15T02:19:29.000Z</time>
      </trkpt>
      <trkpt lat="22.890047" lon="109.210096">
        <ele>92.011724</ele>
        <time>2026-08-15T02:19:30.000Z</time>
      </trkpt>
      <trkpt lat="22.890023" lon="109.210137">
        <ele>92.025453</ele>
        <time>2026-08-15T02:19:31.000Z</time>
      </trkpt>
      <trkpt lat="22.890000" lon="109.210179">
        <ele>92.039261</ele>
        <time>2026-08-15T02:19:32.000Z</time>
      </trkpt>
      <trkpt lat="22.889976" lon="109.210222">
        <ele>92.053470</ele>
        <time>2026-08-15T02:19:33.000Z</time>
      </trkpt>
      <trkpt lat="22.889951" lon="109.210264">
        <ele>92.067602</ele>
        <time>2026-08-15T02:19:34.000Z</time>
      </trkpt>
      <trkpt lat="22.889929" lon="109.210309">
        <ele>92.081999</ele>
        <time>2026-08-15T02:19:35.000Z</time>
      </trkpt>
      <trkpt lat="22.889905" lon="109.210353">
        <ele>92.096450</ele>
        <time>2026-08-15T02:19:36.000Z</time>
      </trkpt>
      <trkpt lat="22.889882" lon="109.210397">
        <ele>92.110748</ele>
        <time>2026-08-15T02:19:37.000Z</time>
      </trkpt>
      <trkpt lat="22.889861" lon="109.210439">
        <ele>92.124253</ele>
        <time>2026-08-15T02:19:38.000Z</time>
      </trkpt>
      <trkpt lat="22.889842" lon="109.210482">
        <ele>92.137731</ele>
        <time>2026-08-15T02:19:39.000Z</time>
      </trkpt>
      <trkpt lat="22.889821" lon="109.210522">
        <ele>92.150742</ele>
        <time>2026-08-15T02:19:40.000Z</time>
      </trkpt>
      <trkpt lat="22.889799" lon="109.210562">
        <ele>92.163908</ele>
        <time>2026-08-15T02:19:41.000Z</time>
      </trkpt>
      <trkpt lat="22.889778" lon="109.210602">
        <ele>92.176920</ele>
        <time>2026-08-15T02:19:42.000Z</time>
      </trkpt>
      <trkpt lat="22.889757" lon="109.210642">
        <ele>92.189931</ele>
        <time>2026-08-15T02:19:43.000Z</time>
      </trkpt>
      <trkpt lat="22.889735" lon="109.210682">
        <ele>92.203097</ele>
        <time>2026-08-15T02:19:44.000Z</time>
      </trkpt>
      <trkpt lat="22.889714" lon="109.210724">
        <ele>92.216602</ele>
        <time>2026-08-15T02:19:45.000Z</time>
      </trkpt>
      <trkpt lat="22.889693" lon="109.210766">
        <ele>92.230108</ele>
        <time>2026-08-15T02:19:46.000Z</time>
      </trkpt>
      <trkpt lat="22.889671" lon="109.210808">
        <ele>92.243762</ele>
        <time>2026-08-15T02:19:47.000Z</time>
      </trkpt>
      <trkpt lat="22.889648" lon="109.210850">
        <ele>92.257571</ele>
        <time>2026-08-15T02:19:48.000Z</time>
      </trkpt>
      <trkpt lat="22.889626" lon="109.210892">
        <ele>92.271225</ele>
        <time>2026-08-15T02:19:49.000Z</time>
      </trkpt>
      <trkpt lat="22.889602" lon="109.210935">
        <ele>92.285434</ele>
        <time>2026-08-15T02:19:50.000Z</time>
      </trkpt>
      <trkpt lat="22.889577" lon="109.210978">
        <ele>92.299804</ele>
        <time>2026-08-15T02:19:51.000Z</time>
      </trkpt>
      <trkpt lat="22.889551" lon="109.211023">
        <ele>92.314816</ele>
        <time>2026-08-15T02:19:52.000Z</time>
      </trkpt>
      <trkpt lat="22.889526" lon="109.211067">
        <ele>92.329425</ele>
        <time>2026-08-15T02:19:53.000Z</time>
      </trkpt>
      <trkpt lat="22.889499" lon="109.211108">
        <ele>92.343669</ele>
        <time>2026-08-15T02:19:54.000Z</time>
      </trkpt>
      <trkpt lat="22.889474" lon="109.211153">
        <ele>92.358520</ele>
        <time>2026-08-15T02:19:55.000Z</time>
      </trkpt>
      <trkpt lat="22.889449" lon="109.211198">
        <ele>92.373371</ele>
        <time>2026-08-15T02:19:56.000Z</time>
      </trkpt>
      <trkpt lat="22.889425" lon="109.211246">
        <ele>92.388806</ele>
        <time>2026-08-15T02:19:57.000Z</time>
      </trkpt>
      <trkpt lat="22.889400" lon="109.211290">
        <ele>92.403416</ele>
        <time>2026-08-15T02:19:58.000Z</time>
      </trkpt>
      <trkpt lat="22.889373" lon="109.211334">
        <ele>92.418357</ele>
        <time>2026-08-15T02:19:59.000Z</time>
      </trkpt>
      <trkpt lat="22.889347" lon="109.211381">
        <ele>92.433850</ele>
        <time>2026-08-15T02:20:00.000Z</time>
      </trkpt>
      <trkpt lat="22.889322" lon="109.211428">
        <ele>92.449188</ele>
        <time>2026-08-15T02:20:01.000Z</time>
      </trkpt>
      <trkpt lat="22.889298" lon="109.211476">
        <ele>92.464623</ele>
        <time>2026-08-15T02:20:02.000Z</time>
      </trkpt>
      <trkpt lat="22.889274" lon="109.211524">
        <ele>92.480058</ele>
        <time>2026-08-15T02:20:03.000Z</time>
      </trkpt>
      <trkpt lat="22.889249" lon="109.211568">
        <ele>92.472793</ele>
        <time>2026-08-15T02:20:04.000Z</time>
      </trkpt>
      <trkpt lat="22.889223" lon="109.211613">
        <ele>92.423453</ele>
        <time>2026-08-15T02:20:05.000Z</time>
      </trkpt>
      <trkpt lat="22.889196" lon="109.211658">
        <ele>92.373569</ele>
        <time>2026-08-15T02:20:06.000Z</time>
      </trkpt>
      <trkpt lat="22.889168" lon="109.211702">
        <ele>92.323894</ele>
        <time>2026-08-15T02:20:07.000Z</time>
      </trkpt>
      <trkpt lat="22.889140" lon="109.211750">
        <ele>92.271121</ele>
        <time>2026-08-15T02:20:08.000Z</time>
      </trkpt>
      <trkpt lat="22.889112" lon="109.211798">
        <ele>92.218347</ele>
        <time>2026-08-15T02:20:09.000Z</time>
      </trkpt>
      <trkpt lat="22.889084" lon="109.211848">
        <ele>92.163995</ele>
        <time>2026-08-15T02:20:10.000Z</time>
      </trkpt>
      <trkpt lat="22.889055" lon="109.211899">
        <ele>92.108324</ele>
        <time>2026-08-15T02:20:11.000Z</time>
      </trkpt>
      <trkpt lat="22.889027" lon="109.211951">
        <ele>92.052375</ele>
        <time>2026-08-15T02:20:12.000Z</time>
      </trkpt>
      <trkpt lat="22.888998" lon="109.212003">
        <ele>91.995912</ele>
        <time>2026-08-15T02:20:13.000Z</time>
      </trkpt>
      <trkpt lat="22.888968" lon="109.212055">
        <ele>91.938919</ele>
        <time>2026-08-15T02:20:14.000Z</time>
      </trkpt>
      <trkpt lat="22.888937" lon="109.212105">
        <ele>91.882936</ele>
        <time>2026-08-15T02:20:15.000Z</time>
      </trkpt>
      <trkpt lat="22.888908" lon="109.212156">
        <ele>91.827265</ele>
        <time>2026-08-15T02:20:16.000Z</time>
      </trkpt>
      <trkpt lat="22.888879" lon="109.212209">
        <ele>91.770004</ele>
        <time>2026-08-15T02:20:17.000Z</time>
      </trkpt>
      <trkpt lat="22.888854" lon="109.212263">
        <ele>91.713866</ele>
        <time>2026-08-15T02:20:18.000Z</time>
      </trkpt>
      <trkpt lat="22.888833" lon="109.212318">
        <ele>91.658563</ele>
        <time>2026-08-15T02:20:19.000Z</time>
      </trkpt>
      <trkpt lat="22.888814" lon="109.212369">
        <ele>91.607462</ele>
        <time>2026-08-15T02:20:20.000Z</time>
      </trkpt>
      <trkpt lat="22.888795" lon="109.212418">
        <ele>91.558079</ele>
        <time>2026-08-15T02:20:21.000Z</time>
      </trkpt>
      <trkpt lat="22.888776" lon="109.212463">
        <ele>91.512097</ele>
        <time>2026-08-15T02:20:22.000Z</time>
      </trkpt>
      <trkpt lat="22.888761" lon="109.212501">
        <ele>91.473695</ele>
        <time>2026-08-15T02:20:23.000Z</time>
      </trkpt>
      <trkpt lat="22.888747" lon="109.212534">
        <ele>91.439947</ele>
        <time>2026-08-15T02:20:24.000Z</time>
      </trkpt>
      <trkpt lat="22.888731" lon="109.212568">
        <ele>91.404483</ele>
        <time>2026-08-15T02:20:25.000Z</time>
      </trkpt>
      <trkpt lat="22.888714" lon="109.212600">
        <ele>91.370170</ele>
        <time>2026-08-15T02:20:26.000Z</time>
      </trkpt>
      <trkpt lat="22.888694" lon="109.212637">
        <ele>91.330322</ele>
        <time>2026-08-15T02:20:27.000Z</time>
      </trkpt>
      <trkpt lat="22.888677" lon="109.212670">
        <ele>91.295201</ele>
        <time>2026-08-15T02:20:28.000Z</time>
      </trkpt>
      <trkpt lat="22.888663" lon="109.212697">
        <ele>91.266421</ele>
        <time>2026-08-15T02:20:29.000Z</time>
      </trkpt>
      <trkpt lat="22.888652" lon="109.212722">
        <ele>91.240686</ele>
        <time>2026-08-15T02:20:30.000Z</time>
      </trkpt>
      <trkpt lat="22.888644" lon="109.212744">
        <ele>91.218716</ele>
        <time>2026-08-15T02:20:31.000Z</time>
      </trkpt>
      <trkpt lat="22.888641" lon="109.212757">
        <ele>91.206267</ele>
        <time>2026-08-15T02:20:32.000Z</time>
      </trkpt>
      <trkpt lat="22.888638" lon="109.212764">
        <ele>91.199095</ele>
        <time>2026-08-15T02:20:33.000Z</time>
      </trkpt>
      <trkpt lat="22.888576" lon="109.212803">
        <ele>91.126843</ele>
        <time>2026-08-15T02:22:39.000Z</time>
      </trkpt>
      <trkpt lat="22.888561" lon="109.212814">
        <ele>91.108591</ele>
        <time>2026-08-15T02:22:40.000Z</time>
      </trkpt>
      <trkpt lat="22.888542" lon="109.212835">
        <ele>91.081250</ele>
        <time>2026-08-15T02:22:41.000Z</time>
      </trkpt>
      <trkpt lat="22.888525" lon="109.212864">
        <ele>91.049320</ele>
        <time>2026-08-15T02:22:42.000Z</time>
      </trkpt>
      <trkpt lat="22.888506" lon="109.212896">
        <ele>91.013957</ele>
        <time>2026-08-15T02:22:43.000Z</time>
      </trkpt>
      <trkpt lat="22.888489" lon="109.212929">
        <ele>90.978836</ele>
        <time>2026-08-15T02:22:44.000Z</time>
      </trkpt>
      <trkpt lat="22.888471" lon="109.212964">
        <ele>90.941602</ele>
        <time>2026-08-15T02:22:45.000Z</time>
      </trkpt>
      <trkpt lat="22.888451" lon="109.212998">
        <ele>90.904130</ele>
        <time>2026-08-15T02:22:46.000Z</time>
      </trkpt>
      <trkpt lat="22.888433" lon="109.213034">
        <ele>90.866082</ele>
        <time>2026-08-15T02:22:47.000Z</time>
      </trkpt>
      <trkpt lat="22.888412" lon="109.213069">
        <ele>90.827283</ele>
        <time>2026-08-15T02:22:48.000Z</time>
      </trkpt>
      <trkpt lat="22.888392" lon="109.213103">
        <ele>90.789812</ele>
        <time>2026-08-15T02:22:49.000Z</time>
      </trkpt>
      <trkpt lat="22.888372" lon="109.213139">
        <ele>90.750761</ele>
        <time>2026-08-15T02:22:50.000Z</time>
      </trkpt>
      <trkpt lat="22.888352" lon="109.213176">
        <ele>90.710913</ele>
        <time>2026-08-15T02:22:51.000Z</time>
      </trkpt>
      <trkpt lat="22.888331" lon="109.213211">
        <ele>90.680567</ele>
        <time>2026-08-15T02:22:52.000Z</time>
      </trkpt>
      <trkpt lat="22.888310" lon="109.213248">
        <ele>90.727784</ele>
        <time>2026-08-15T02:22:53.000Z</time>
      </trkpt>
      <trkpt lat="22.888292" lon="109.213285">
        <ele>90.773244</ele>
        <time>2026-08-15T02:22:54.000Z</time>
      </trkpt>
      <trkpt lat="22.888273" lon="109.213320">
        <ele>90.817382</ele>
        <time>2026-08-15T02:22:55.000Z</time>
      </trkpt>
      <trkpt lat="22.888253" lon="109.213359">
        <ele>90.865878</ele>
        <time>2026-08-15T02:22:56.000Z</time>
      </trkpt>
      <trkpt lat="22.888233" lon="109.213398">
        <ele>90.914374</ele>
        <time>2026-08-15T02:22:57.000Z</time>
      </trkpt>
      <trkpt lat="22.888212" lon="109.213437">
        <ele>90.963454</ele>
        <time>2026-08-15T02:22:58.000Z</time>
      </trkpt>
      <trkpt lat="22.888190" lon="109.213476">
        <ele>91.013139</ele>
        <time>2026-08-15T02:22:59.000Z</time>
      </trkpt>
      <trkpt lat="22.888177" lon="109.213509">
        <ele>91.052134</ele>
        <time>2026-08-15T02:23:00.000Z</time>
      </trkpt>
      <trkpt lat="22.888162" lon="109.213543">
        <ele>91.093092</ele>
        <time>2026-08-15T02:23:01.000Z</time>
      </trkpt>
      <trkpt lat="22.888141" lon="109.213582">
        <ele>91.142172</ele>
        <time>2026-08-15T02:23:02.000Z</time>
      </trkpt>
      <trkpt lat="22.888120" lon="109.213623">
        <ele>91.193139</ele>
        <time>2026-08-15T02:23:03.000Z</time>
      </trkpt>
      <trkpt lat="22.888098" lon="109.213663">
        <ele>91.243755</ele>
        <time>2026-08-15T02:23:04.000Z</time>
      </trkpt>
      <trkpt lat="22.888075" lon="109.213702">
        <ele>91.294066</ele>
        <time>2026-08-15T02:23:05.000Z</time>
      </trkpt>
      <trkpt lat="22.888056" lon="109.213740">
        <ele>91.341042</ele>
        <time>2026-08-15T02:23:06.000Z</time>
      </trkpt>
      <trkpt lat="22.888032" lon="109.213778">
        <ele>91.391099</ele>
        <time>2026-08-15T02:23:07.000Z</time>
      </trkpt>
      <trkpt lat="22.888012" lon="109.213815">
        <ele>91.437708</ele>
        <time>2026-08-15T02:23:08.000Z</time>
      </trkpt>
      <trkpt lat="22.887993" lon="109.213853">
        <ele>91.484683</ele>
        <time>2026-08-15T02:23:09.000Z</time>
      </trkpt>
      <trkpt lat="22.887974" lon="109.213890">
        <ele>91.530707</ele>
        <time>2026-08-15T02:23:10.000Z</time>
      </trkpt>
      <trkpt lat="22.887956" lon="109.213929">
        <ele>91.578100</ele>
        <time>2026-08-15T02:23:11.000Z</time>
      </trkpt>
      <trkpt lat="22.887935" lon="109.213966">
        <ele>91.625317</ele>
        <time>2026-08-15T02:23:12.000Z</time>
      </trkpt>
      <trkpt lat="22.887916" lon="109.214002">
        <ele>91.670394</ele>
        <time>2026-08-15T02:23:13.000Z</time>
      </trkpt>
      <trkpt lat="22.887897" lon="109.214040">
        <ele>91.717370</ele>
        <time>2026-08-15T02:23:14.000Z</time>
      </trkpt>
      <trkpt lat="22.887879" lon="109.214075">
        <ele>91.760921</ele>
        <time>2026-08-15T02:23:15.000Z</time>
      </trkpt>
      <trkpt lat="22.887859" lon="109.214106">
        <ele>91.802040</ele>
        <time>2026-08-15T02:23:16.000Z</time>
      </trkpt>
      <trkpt lat="22.887838" lon="109.214139">
        <ele>91.845616</ele>
        <time>2026-08-15T02:23:17.000Z</time>
      </trkpt>
      <trkpt lat="22.887820" lon="109.214174">
        <ele>91.889167</ele>
        <time>2026-08-15T02:23:18.000Z</time>
      </trkpt>
      <trkpt lat="22.887800" lon="109.214211">
        <ele>91.935776</ele>
        <time>2026-08-15T02:23:19.000Z</time>
      </trkpt>
      <trkpt lat="22.887777" lon="109.214245">
        <ele>91.981606</ele>
        <time>2026-08-15T02:23:20.000Z</time>
      </trkpt>
      <trkpt lat="22.887755" lon="109.214281">
        <ele>92.028543</ele>
        <time>2026-08-15T02:23:21.000Z</time>
      </trkpt>
      <trkpt lat="22.887733" lon="109.214317">
        <ele>92.075480</ele>
        <time>2026-08-15T02:23:22.000Z</time>
      </trkpt>
      <trkpt lat="22.887713" lon="109.214354">
        <ele>92.122089</ele>
        <time>2026-08-15T02:23:23.000Z</time>
      </trkpt>
      <trkpt lat="22.887693" lon="109.214384">
        <ele>92.162323</ele>
        <time>2026-08-15T02:23:24.000Z</time>
      </trkpt>
      <trkpt lat="22.887671" lon="109.214417">
        <ele>92.206580</ele>
        <time>2026-08-15T02:23:25.000Z</time>
      </trkpt>
      <trkpt lat="22.887650" lon="109.214450">
        <ele>92.250156</ele>
        <time>2026-08-15T02:23:26.000Z</time>
      </trkpt>
      <trkpt lat="22.887629" lon="109.214486">
        <ele>92.296452</ele>
        <time>2026-08-15T02:23:27.000Z</time>
      </trkpt>
      <trkpt lat="22.887608" lon="109.214525">
        <ele>92.345532</ele>
        <time>2026-08-15T02:23:28.000Z</time>
      </trkpt>
      <trkpt lat="22.887588" lon="109.214565">
        <ele>92.394980</ele>
        <time>2026-08-15T02:23:29.000Z</time>
      </trkpt>
      <trkpt lat="22.887567" lon="109.214601">
        <ele>92.441275</ele>
        <time>2026-08-15T02:23:30.000Z</time>
      </trkpt>
      <trkpt lat="22.887546" lon="109.214636">
        <ele>92.486656</ele>
        <time>2026-08-15T02:23:31.000Z</time>
      </trkpt>
      <trkpt lat="22.887525" lon="109.214672">
        <ele>92.532951</ele>
        <time>2026-08-15T02:23:32.000Z</time>
      </trkpt>
      <trkpt lat="22.887504" lon="109.214710">
        <ele>92.581097</ele>
        <time>2026-08-15T02:23:33.000Z</time>
      </trkpt>
      <trkpt lat="22.887483" lon="109.214747">
        <ele>92.628314</ele>
        <time>2026-08-15T02:23:34.000Z</time>
      </trkpt>
      <trkpt lat="22.887462" lon="109.214785">
        <ele>92.676459</ele>
        <time>2026-08-15T02:23:35.000Z</time>
      </trkpt>
      <trkpt lat="22.887441" lon="109.214824">
        <ele>92.725539</ele>
        <time>2026-08-15T02:23:36.000Z</time>
      </trkpt>
      <trkpt lat="22.887420" lon="109.214860">
        <ele>92.771835</ele>
        <time>2026-08-15T02:23:37.000Z</time>
      </trkpt>
      <trkpt lat="22.887399" lon="109.214898">
        <ele>92.771073</ele>
        <time>2026-08-15T02:23:38.000Z</time>
      </trkpt>
      <trkpt lat="22.887378" lon="109.214936">
        <ele>92.715714</ele>
        <time>2026-08-15T02:23:39.000Z</time>
      </trkpt>
      <trkpt lat="22.887357" lon="109.214973">
        <ele>92.661422</ele>
        <time>2026-08-15T02:23:40.000Z</time>
      </trkpt>
      <trkpt lat="22.887335" lon="109.215009">
        <ele>92.607453</ele>
        <time>2026-08-15T02:23:41.000Z</time>
      </trkpt>
      <trkpt lat="22.887315" lon="109.215046">
        <ele>92.553860</ele>
        <time>2026-08-15T02:23:42.000Z</time>
      </trkpt>
      <trkpt lat="22.887295" lon="109.215084">
        <ele>92.499186</ele>
        <time>2026-08-15T02:23:43.000Z</time>
      </trkpt>
      <trkpt lat="22.887277" lon="109.215121">
        <ele>92.446913</ele>
        <time>2026-08-15T02:23:44.000Z</time>
      </trkpt>
      <trkpt lat="22.887257" lon="109.215158">
        <ele>92.393320</ele>
        <time>2026-08-15T02:23:45.000Z</time>
      </trkpt>
      <trkpt lat="22.887236" lon="109.215196">
        <ele>92.337961</ele>
        <time>2026-08-15T02:23:46.000Z</time>
      </trkpt>
      <trkpt lat="22.887216" lon="109.215233">
        <ele>92.284368</ele>
        <time>2026-08-15T02:23:47.000Z</time>
      </trkpt>
      <trkpt lat="22.887196" lon="109.215269">
        <ele>92.231849</ele>
        <time>2026-08-15T02:23:48.000Z</time>
      </trkpt>
      <trkpt lat="22.887175" lon="109.215306">
        <ele>92.177557</ele>
        <time>2026-08-15T02:23:49.000Z</time>
      </trkpt>
      <trkpt lat="22.887154" lon="109.215343">
        <ele>92.123266</ele>
        <time>2026-08-15T02:23:50.000Z</time>
      </trkpt>
      <trkpt lat="22.887133" lon="109.215380">
        <ele>92.068974</ele>
        <time>2026-08-15T02:23:51.000Z</time>
      </trkpt>
      <trkpt lat="22.887113" lon="109.215417">
        <ele>92.015381</ele>
        <time>2026-08-15T02:23:52.000Z</time>
      </trkpt>
      <trkpt lat="22.887093" lon="109.215454">
        <ele>91.961788</ele>
        <time>2026-08-15T02:23:53.000Z</time>
      </trkpt>
      <trkpt lat="22.887073" lon="109.215490">
        <ele>91.909269</ele>
        <time>2026-08-15T02:23:54.000Z</time>
      </trkpt>
      <trkpt lat="22.887054" lon="109.215527">
        <ele>91.856349</ele>
        <time>2026-08-15T02:23:55.000Z</time>
      </trkpt>
      <trkpt lat="22.887034" lon="109.215563">
        <ele>91.803830</ele>
        <time>2026-08-15T02:23:56.000Z</time>
      </trkpt>
      <trkpt lat="22.887014" lon="109.215600">
        <ele>91.750237</ele>
        <time>2026-08-15T02:23:57.000Z</time>
      </trkpt>
      <trkpt lat="22.886994" lon="109.215637">
        <ele>91.696644</ele>
        <time>2026-08-15T02:23:58.000Z</time>
      </trkpt>
      <trkpt lat="22.886974" lon="109.215675">
        <ele>91.641970</ele>
        <time>2026-08-15T02:23:59.000Z</time>
      </trkpt>
      <trkpt lat="22.886954" lon="109.215716">
        <ele>91.584012</ele>
        <time>2026-08-15T02:24:00.000Z</time>
      </trkpt>
      <trkpt lat="22.886934" lon="109.215758">
        <ele>91.524947</ele>
        <time>2026-08-15T02:24:01.000Z</time>
      </trkpt>
      <trkpt lat="22.886912" lon="109.215801">
        <ele>91.463499</ele>
        <time>2026-08-15T02:24:02.000Z</time>
      </trkpt>
      <trkpt lat="22.886890" lon="109.215846">
        <ele>91.399855</ele>
        <time>2026-08-15T02:24:03.000Z</time>
      </trkpt>
      <trkpt lat="22.886866" lon="109.215894">
        <ele>91.331627</ele>
        <time>2026-08-15T02:24:04.000Z</time>
      </trkpt>
      <trkpt lat="22.886839" lon="109.215946">
        <ele>91.257056</ele>
        <time>2026-08-15T02:24:05.000Z</time>
      </trkpt>
      <trkpt lat="22.886811" lon="109.215999">
        <ele>91.180729</ele>
        <time>2026-08-15T02:24:06.000Z</time>
      </trkpt>
      <trkpt lat="22.886782" lon="109.216052">
        <ele>91.103719</ele>
        <time>2026-08-15T02:24:07.000Z</time>
      </trkpt>
      <trkpt lat="22.886753" lon="109.216109">
        <ele>91.022372</ele>
        <time>2026-08-15T02:24:08.000Z</time>
      </trkpt>
      <trkpt lat="22.886724" lon="109.216166">
        <ele>90.941025</ele>
        <time>2026-08-15T02:24:09.000Z</time>
      </trkpt>
      <trkpt lat="22.886696" lon="109.216228">
        <ele>90.854762</ele>
        <time>2026-08-15T02:24:10.000Z</time>
      </trkpt>
      <trkpt lat="22.886665" lon="109.216292">
        <ele>90.764430</ele>
        <time>2026-08-15T02:24:11.000Z</time>
      </trkpt>
      <trkpt lat="22.886634" lon="109.216356">
        <ele>90.674097</ele>
        <time>2026-08-15T02:24:12.000Z</time>
      </trkpt>
      <trkpt lat="22.886602" lon="109.216425">
        <ele>90.577589</ele>
        <time>2026-08-15T02:24:13.000Z</time>
      </trkpt>
      <trkpt lat="22.886571" lon="109.216497">
        <ele>90.478302</ele>
        <time>2026-08-15T02:24:14.000Z</time>
      </trkpt>
      <trkpt lat="22.886535" lon="109.216569">
        <ele>90.375958</ele>
        <time>2026-08-15T02:24:15.000Z</time>
      </trkpt>
      <trkpt lat="22.886499" lon="109.216642">
        <ele>90.140224</ele>
        <time>2026-08-15T02:24:16.000Z</time>
      </trkpt>
      <trkpt lat="22.886464" lon="109.216719">
        <ele>89.867298</ele>
        <time>2026-08-15T02:24:17.000Z</time>
      </trkpt>
      <trkpt lat="22.886430" lon="109.216795">
        <ele>89.598744</ele>
        <time>2026-08-15T02:24:18.000Z</time>
      </trkpt>
      <trkpt lat="22.886392" lon="109.216872">
        <ele>89.321083</ele>
        <time>2026-08-15T02:24:19.000Z</time>
      </trkpt>
      <trkpt lat="22.886353" lon="109.216948">
        <ele>89.044557</ele>
        <time>2026-08-15T02:24:20.000Z</time>
      </trkpt>
      <trkpt lat="22.886315" lon="109.217025">
        <ele>88.766895</ele>
        <time>2026-08-15T02:24:21.000Z</time>
      </trkpt>
      <trkpt lat="22.886277" lon="109.217104">
        <ele>88.483614</ele>
        <time>2026-08-15T02:24:22.000Z</time>
      </trkpt>
      <trkpt lat="22.886238" lon="109.217182">
        <ele>88.201517</ele>
        <time>2026-08-15T02:24:23.000Z</time>
      </trkpt>
      <trkpt lat="22.886202" lon="109.217262">
        <ele>87.918510</ele>
        <time>2026-08-15T02:24:24.000Z</time>
      </trkpt>
      <trkpt lat="22.886164" lon="109.217342">
        <ele>87.632407</ele>
        <time>2026-08-15T02:24:25.000Z</time>
      </trkpt>
      <trkpt lat="22.886127" lon="109.217423">
        <ele>87.345024</ele>
        <time>2026-08-15T02:24:26.000Z</time>
      </trkpt>
      <trkpt lat="22.886090" lon="109.217504">
        <ele>87.057641</ele>
        <time>2026-08-15T02:24:27.000Z</time>
      </trkpt>
      <trkpt lat="22.886054" lon="109.217585">
        <ele>86.771774</ele>
        <time>2026-08-15T02:24:28.000Z</time>
      </trkpt>
      <trkpt lat="22.886018" lon="109.217666">
        <ele>86.485907</ele>
        <time>2026-08-15T02:24:29.000Z</time>
      </trkpt>
      <trkpt lat="22.885979" lon="109.217746">
        <ele>86.198207</ele>
        <time>2026-08-15T02:24:30.000Z</time>
      </trkpt>
      <trkpt lat="22.885941" lon="109.217823">
        <ele>85.920545</ele>
        <time>2026-08-15T02:24:31.000Z</time>
      </trkpt>
      <trkpt lat="22.885904" lon="109.217899">
        <ele>85.647309</ele>
        <time>2026-08-15T02:24:32.000Z</time>
      </trkpt>
      <trkpt lat="22.885867" lon="109.217975">
        <ele>85.374074</ele>
        <time>2026-08-15T02:24:33.000Z</time>
      </trkpt>
      <trkpt lat="22.885833" lon="109.218051">
        <ele>85.105519</ele>
        <time>2026-08-15T02:24:34.000Z</time>
      </trkpt>
      <trkpt lat="22.885799" lon="109.218126">
        <ele>84.839819</ele>
        <time>2026-08-15T02:24:35.000Z</time>
      </trkpt>
      <trkpt lat="22.885765" lon="109.218199">
        <ele>84.579809</ele>
        <time>2026-08-15T02:24:36.000Z</time>
      </trkpt>
      <trkpt lat="22.885730" lon="109.218271">
        <ele>84.321039</ele>
        <time>2026-08-15T02:24:37.000Z</time>
      </trkpt>
      <trkpt lat="22.885696" lon="109.218345">
        <ele>84.090908</ele>
        <time>2026-08-15T02:24:38.000Z</time>
      </trkpt>
      <trkpt lat="22.885660" lon="109.218419">
        <ele>83.917321</ele>
        <time>2026-08-15T02:24:39.000Z</time>
      </trkpt>
      <trkpt lat="22.885624" lon="109.218494">
        <ele>83.741897</ele>
        <time>2026-08-15T02:24:40.000Z</time>
      </trkpt>
      <trkpt lat="22.885590" lon="109.218569">
        <ele>83.568507</ele>
        <time>2026-08-15T02:24:41.000Z</time>
      </trkpt>
      <trkpt lat="22.885555" lon="109.218647">
        <ele>83.388538</ele>
        <time>2026-08-15T02:24:42.000Z</time>
      </trkpt>
      <trkpt lat="22.885517" lon="109.218726">
        <ele>83.203675</ele>
        <time>2026-08-15T02:24:43.000Z</time>
      </trkpt>
      <trkpt lat="22.885479" lon="109.218806">
        <ele>83.016970</ele>
        <time>2026-08-15T02:24:44.000Z</time>
      </trkpt>
      <trkpt lat="22.885440" lon="109.218888">
        <ele>82.825546</ele>
        <time>2026-08-15T02:24:45.000Z</time>
      </trkpt>
      <trkpt lat="22.885398" lon="109.218973">
        <ele>82.625469</ele>
        <time>2026-08-15T02:24:46.000Z</time>
      </trkpt>
      <trkpt lat="22.885357" lon="109.219059">
        <ele>82.424606</ele>
        <time>2026-08-15T02:24:47.000Z</time>
      </trkpt>
      <trkpt lat="22.885316" lon="109.219145">
        <ele>82.223743</ele>
        <time>2026-08-15T02:24:48.000Z</time>
      </trkpt>
      <trkpt lat="22.885274" lon="109.219232">
        <ele>82.020000</ele>
        <time>2026-08-15T02:24:49.000Z</time>
      </trkpt>
      <trkpt lat="22.885233" lon="109.219318">
        <ele>81.819137</ele>
        <time>2026-08-15T02:24:50.000Z</time>
      </trkpt>
      <trkpt lat="22.885193" lon="109.219405">
        <ele>81.617445</ele>
        <time>2026-08-15T02:24:51.000Z</time>
      </trkpt>
      <trkpt lat="22.885152" lon="109.219490">
        <ele>81.418422</ele>
        <time>2026-08-15T02:24:52.000Z</time>
      </trkpt>
      <trkpt lat="22.885112" lon="109.219573">
        <ele>81.224119</ele>
        <time>2026-08-15T02:24:53.000Z</time>
      </trkpt>
      <trkpt lat="22.885074" lon="109.219652">
        <ele>81.039254</ele>
        <time>2026-08-15T02:24:54.000Z</time>
      </trkpt>
      <trkpt lat="22.885036" lon="109.219730">
        <ele>80.856227</ele>
        <time>2026-08-15T02:24:55.000Z</time>
      </trkpt>
      <trkpt lat="22.885000" lon="109.219807">
        <ele>80.677112</ele>
        <time>2026-08-15T02:24:56.000Z</time>
      </trkpt>
      <trkpt lat="22.884964" lon="109.219882">
        <ele>80.501688</ele>
        <time>2026-08-15T02:24:57.000Z</time>
      </trkpt>
      <trkpt lat="22.884930" lon="109.219955">
        <ele>80.332010</ele>
        <time>2026-08-15T02:24:58.000Z</time>
      </trkpt>
      <trkpt lat="22.884895" lon="109.220028">
        <ele>80.161305</ele>
        <time>2026-08-15T02:24:59.000Z</time>
      </trkpt>
      <trkpt lat="22.884862" lon="109.220099">
        <ele>80.165783</ele>
        <time>2026-08-15T02:25:00.000Z</time>
      </trkpt>
      <trkpt lat="22.884829" lon="109.220168">
        <ele>80.261674</ele>
        <time>2026-08-15T02:25:01.000Z</time>
      </trkpt>
      <trkpt lat="22.884798" lon="109.220236">
        <ele>80.355253</ele>
        <time>2026-08-15T02:25:02.000Z</time>
      </trkpt>
      <trkpt lat="22.884767" lon="109.220302">
        <ele>80.446628</ele>
        <time>2026-08-15T02:25:03.000Z</time>
      </trkpt>
      <trkpt lat="22.884737" lon="109.220366">
        <ele>80.535198</ele>
        <time>2026-08-15T02:25:04.000Z</time>
      </trkpt>
      <trkpt lat="22.884709" lon="109.220427">
        <ele>80.619258</ele>
        <time>2026-08-15T02:25:05.000Z</time>
      </trkpt>
      <trkpt lat="22.884682" lon="109.220484">
        <ele>80.698311</ele>
        <time>2026-08-15T02:25:06.000Z</time>
      </trkpt>
      <trkpt lat="22.884656" lon="109.220539">
        <ele>80.774559</ele>
        <time>2026-08-15T02:25:07.000Z</time>
      </trkpt>
      <trkpt lat="22.884629" lon="109.220591">
        <ele>80.848182</ele>
        <time>2026-08-15T02:25:08.000Z</time>
      </trkpt>
      <trkpt lat="22.884604" lon="109.220643">
        <ele>80.920528</ele>
        <time>2026-08-15T02:25:09.000Z</time>
      </trkpt>
      <trkpt lat="22.884582" lon="109.220693">
        <ele>80.988871</ele>
        <time>2026-08-15T02:25:10.000Z</time>
      </trkpt>
      <trkpt lat="22.884560" lon="109.220741">
        <ele>81.054997</ele>
        <time>2026-08-15T02:25:11.000Z</time>
      </trkpt>
      <trkpt lat="22.884539" lon="109.220785">
        <ele>81.116118</ele>
        <time>2026-08-15T02:25:12.000Z</time>
      </trkpt>
      <trkpt lat="22.884520" lon="109.220825">
        <ele>81.171627</ele>
        <time>2026-08-15T02:25:13.000Z</time>
      </trkpt>
      <trkpt lat="22.884502" lon="109.220865">
        <ele>81.226534</ele>
        <time>2026-08-15T02:25:14.000Z</time>
      </trkpt>
      <trkpt lat="22.884484" lon="109.220903">
        <ele>81.279237</ele>
        <time>2026-08-15T02:25:15.000Z</time>
      </trkpt>
      <trkpt lat="22.884469" lon="109.220939">
        <ele>81.327970</ele>
        <time>2026-08-15T02:25:16.000Z</time>
      </trkpt>
      <trkpt lat="22.884454" lon="109.220976">
        <ele>81.377830</ele>
        <time>2026-08-15T02:25:17.000Z</time>
      </trkpt>
      <trkpt lat="22.884440" lon="109.221011">
        <ele>81.424893</ele>
        <time>2026-08-15T02:25:18.000Z</time>
      </trkpt>
      <trkpt lat="22.884427" lon="109.221046">
        <ele>81.471439</ele>
        <time>2026-08-15T02:25:19.000Z</time>
      </trkpt>
      <trkpt lat="22.884414" lon="109.221079">
        <ele>81.515707</ele>
        <time>2026-08-15T02:25:20.000Z</time>
      </trkpt>
      <trkpt lat="22.884403" lon="109.221111">
        <ele>81.557835</ele>
        <time>2026-08-15T02:25:21.000Z</time>
      </trkpt>
      <trkpt lat="22.884392" lon="109.221143">
        <ele>81.599962</ele>
        <time>2026-08-15T02:25:22.000Z</time>
      </trkpt>
      <trkpt lat="22.884382" lon="109.221175">
        <ele>81.641641</ele>
        <time>2026-08-15T02:25:23.000Z</time>
      </trkpt>
      <trkpt lat="22.884372" lon="109.221206">
        <ele>81.682153</ele>
        <time>2026-08-15T02:25:24.000Z</time>
      </trkpt>
      <trkpt lat="22.884365" lon="109.221238">
        <ele>81.722720</ele>
        <time>2026-08-15T02:25:25.000Z</time>
      </trkpt>
      <trkpt lat="22.884357" lon="109.221271">
        <ele>81.764809</ele>
        <time>2026-08-15T02:25:26.000Z</time>
      </trkpt>
      <trkpt lat="22.884354" lon="109.221304">
        <ele>81.805709</ele>
        <time>2026-08-15T02:25:27.000Z</time>
      </trkpt>
      <trkpt lat="22.884351" lon="109.221337">
        <ele>81.846610</ele>
        <time>2026-08-15T02:25:28.000Z</time>
      </trkpt>
      <trkpt lat="22.884347" lon="109.221371">
        <ele>81.888887</ele>
        <time>2026-08-15T02:25:29.000Z</time>
      </trkpt>
      <trkpt lat="22.884346" lon="109.221405">
        <ele>81.930845</ele>
        <time>2026-08-15T02:25:30.000Z</time>
      </trkpt>
      <trkpt lat="22.884346" lon="109.221439">
        <ele>81.972782</ele>
        <time>2026-08-15T02:25:31.000Z</time>
      </trkpt>
      <trkpt lat="22.884346" lon="109.221475">
        <ele>82.017185</ele>
        <time>2026-08-15T02:25:32.000Z</time>
      </trkpt>
      <trkpt lat="22.884343" lon="109.221513">
        <ele>82.064227</ele>
        <time>2026-08-15T02:25:33.000Z</time>
      </trkpt>
      <trkpt lat="22.884341" lon="109.221555">
        <ele>82.116100</ele>
        <time>2026-08-15T02:25:34.000Z</time>
      </trkpt>
      <trkpt lat="22.884340" lon="109.221598">
        <ele>82.169154</ele>
        <time>2026-08-15T02:25:35.000Z</time>
      </trkpt>
      <trkpt lat="22.884341" lon="109.221643">
        <ele>82.224674</ele>
        <time>2026-08-15T02:25:36.000Z</time>
      </trkpt>
      <trkpt lat="22.884346" lon="109.221690">
        <ele>82.283031</ele>
        <time>2026-08-15T02:25:37.000Z</time>
      </trkpt>
      <trkpt lat="22.884350" lon="109.221739">
        <ele>82.343705</ele>
        <time>2026-08-15T02:25:38.000Z</time>
      </trkpt>
      <trkpt lat="22.884354" lon="109.221790">
        <ele>82.406838</ele>
        <time>2026-08-15T02:25:39.000Z</time>
      </trkpt>
      <trkpt lat="22.884357" lon="109.221845">
        <ele>82.474795</ele>
        <time>2026-08-15T02:25:40.000Z</time>
      </trkpt>
      <trkpt lat="22.884361" lon="109.221901">
        <ele>82.491398</ele>
        <time>2026-08-15T02:25:41.000Z</time>
      </trkpt>
      <trkpt lat="22.884365" lon="109.221957">
        <ele>82.451569</ele>
        <time>2026-08-15T02:25:42.000Z</time>
      </trkpt>
      <trkpt lat="22.884368" lon="109.222013">
        <ele>82.411793</ele>
        <time>2026-08-15T02:25:43.000Z</time>
      </trkpt>
      <trkpt lat="22.884372" lon="109.222072">
        <ele>82.369842</ele>
        <time>2026-08-15T02:25:44.000Z</time>
      </trkpt>
      <trkpt lat="22.884377" lon="109.222130">
        <ele>82.328535</ele>
        <time>2026-08-15T02:25:45.000Z</time>
      </trkpt>
      <trkpt lat="22.884382" lon="109.222187">
        <ele>82.287933</ele>
        <time>2026-08-15T02:25:46.000Z</time>
      </trkpt>
      <trkpt lat="22.884387" lon="109.222243">
        <ele>82.248037</ele>
        <time>2026-08-15T02:25:47.000Z</time>
      </trkpt>
      <trkpt lat="22.884391" lon="109.222298">
        <ele>82.208916</ele>
        <time>2026-08-15T02:25:48.000Z</time>
      </trkpt>
      <trkpt lat="22.884393" lon="109.222350">
        <ele>82.172010</ele>
        <time>2026-08-15T02:25:49.000Z</time>
      </trkpt>
      <trkpt lat="22.884397" lon="109.222400">
        <ele>82.136422</ele>
        <time>2026-08-15T02:25:50.000Z</time>
      </trkpt>
      <trkpt lat="22.884401" lon="109.222450">
        <ele>82.100833</ele>
        <time>2026-08-15T02:25:51.000Z</time>
      </trkpt>
      <trkpt lat="22.884404" lon="109.222500">
        <ele>82.065303</ele>
        <time>2026-08-15T02:25:52.000Z</time>
      </trkpt>
      <trkpt lat="22.884407" lon="109.222551">
        <ele>82.029065</ele>
        <time>2026-08-15T02:25:53.000Z</time>
      </trkpt>
      <trkpt lat="22.884410" lon="109.222602">
        <ele>81.992827</ele>
        <time>2026-08-15T02:25:54.000Z</time>
      </trkpt>
      <trkpt lat="22.884412" lon="109.222654">
        <ele>81.955922</ele>
        <time>2026-08-15T02:25:55.000Z</time>
      </trkpt>
      <trkpt lat="22.884414" lon="109.222708">
        <ele>81.917599</ele>
        <time>2026-08-15T02:25:56.000Z</time>
      </trkpt>
      <trkpt lat="22.884416" lon="109.222762">
        <ele>81.879277</ele>
        <time>2026-08-15T02:25:57.000Z</time>
      </trkpt>
      <trkpt lat="22.884418" lon="109.222817">
        <ele>81.840246</ele>
        <time>2026-08-15T02:25:58.000Z</time>
      </trkpt>
      <trkpt lat="22.884419" lon="109.222874">
        <ele>81.799820</ele>
        <time>2026-08-15T02:25:59.000Z</time>
      </trkpt>
      <trkpt lat="22.884418" lon="109.222932">
        <ele>81.758685</ele>
        <time>2026-08-15T02:26:00.000Z</time>
      </trkpt>
      <trkpt lat="22.884417" lon="109.222990">
        <ele>81.717550</ele>
        <time>2026-08-15T02:26:01.000Z</time>
      </trkpt>
      <trkpt lat="22.884414" lon="109.223050">
        <ele>81.674941</ele>
        <time>2026-08-15T02:26:02.000Z</time>
      </trkpt>
      <trkpt lat="22.884410" lon="109.223111">
        <ele>81.631576</ele>
        <time>2026-08-15T02:26:03.000Z</time>
      </trkpt>
      <trkpt lat="22.884401" lon="109.223173">
        <ele>81.587069</ele>
        <time>2026-08-15T02:26:04.000Z</time>
      </trkpt>
      <trkpt lat="22.884391" lon="109.223234">
        <ele>81.543135</ele>
        <time>2026-08-15T02:26:05.000Z</time>
      </trkpt>
      <trkpt lat="22.884378" lon="109.223295">
        <ele>81.498737</ele>
        <time>2026-08-15T02:26:06.000Z</time>
      </trkpt>
      <trkpt lat="22.884363" lon="109.223356">
        <ele>81.453968</ele>
        <time>2026-08-15T02:26:07.000Z</time>
      </trkpt>
      <trkpt lat="22.884346" lon="109.223416">
        <ele>81.409455</ele>
        <time>2026-08-15T02:26:08.000Z</time>
      </trkpt>
      <trkpt lat="22.884325" lon="109.223474">
        <ele>81.365265</ele>
        <time>2026-08-15T02:26:09.000Z</time>
      </trkpt>
      <trkpt lat="22.884303" lon="109.223531">
        <ele>81.321443</ele>
        <time>2026-08-15T02:26:10.000Z</time>
      </trkpt>
      <trkpt lat="22.884279" lon="109.223588">
        <ele>81.277003</ele>
        <time>2026-08-15T02:26:11.000Z</time>
      </trkpt>
      <trkpt lat="22.884256" lon="109.223646">
        <ele>81.232227</ele>
        <time>2026-08-15T02:26:12.000Z</time>
      </trkpt>
      <trkpt lat="22.884233" lon="109.223703">
        <ele>81.188101</ele>
        <time>2026-08-15T02:26:13.000Z</time>
      </trkpt>
      <trkpt lat="22.884210" lon="109.223758">
        <ele>81.145271</ele>
        <time>2026-08-15T02:26:14.000Z</time>
      </trkpt>
      <trkpt lat="22.884188" lon="109.223814">
        <ele>81.158575</ele>
        <time>2026-08-15T02:26:15.000Z</time>
      </trkpt>
      <trkpt lat="22.884165" lon="109.223869">
        <ele>81.215939</ele>
        <time>2026-08-15T02:26:16.000Z</time>
      </trkpt>
      <trkpt lat="22.884143" lon="109.223922">
        <ele>81.271148</ele>
        <time>2026-08-15T02:26:17.000Z</time>
      </trkpt>
      <trkpt lat="22.884121" lon="109.223975">
        <ele>81.326356</ele>
        <time>2026-08-15T02:26:18.000Z</time>
      </trkpt>
      <trkpt lat="22.884100" lon="109.224027">
        <ele>81.380278</ele>
        <time>2026-08-15T02:26:19.000Z</time>
      </trkpt>
      <trkpt lat="22.884079" lon="109.224077">
        <ele>81.432465</ele>
        <time>2026-08-15T02:26:20.000Z</time>
      </trkpt>
      <trkpt lat="22.884058" lon="109.224126">
        <ele>81.483791</ele>
        <time>2026-08-15T02:26:21.000Z</time>
      </trkpt>
      <trkpt lat="22.884038" lon="109.224175">
        <ele>81.534690</ele>
        <time>2026-08-15T02:26:22.000Z</time>
      </trkpt>
      <trkpt lat="22.884019" lon="109.224222">
        <ele>81.583435</ele>
        <time>2026-08-15T02:26:23.000Z</time>
      </trkpt>
      <trkpt lat="22.883999" lon="109.224268">
        <ele>81.631742</ele>
        <time>2026-08-15T02:26:24.000Z</time>
      </trkpt>
      <trkpt lat="22.883979" lon="109.224315">
        <ele>81.680911</ele>
        <time>2026-08-15T02:26:25.000Z</time>
      </trkpt>
      <trkpt lat="22.883959" lon="109.224361">
        <ele>81.729218</ele>
        <time>2026-08-15T02:26:26.000Z</time>
      </trkpt>
      <trkpt lat="22.883940" lon="109.224404">
        <ele>81.774510</ele>
        <time>2026-08-15T02:26:27.000Z</time>
      </trkpt>
      <trkpt lat="22.883922" lon="109.224446">
        <ele>81.818503</ele>
        <time>2026-08-15T02:26:28.000Z</time>
      </trkpt>
      <trkpt lat="22.883907" lon="109.224489">
        <ele>81.862171</ele>
        <time>2026-08-15T02:26:29.000Z</time>
      </trkpt>
      <trkpt lat="22.883889" lon="109.224531">
        <ele>81.906164</ele>
        <time>2026-08-15T02:26:30.000Z</time>
      </trkpt>
      <trkpt lat="22.883873" lon="109.224574">
        <ele>81.950207</ele>
        <time>2026-08-15T02:26:31.000Z</time>
      </trkpt>
      <trkpt lat="22.883855" lon="109.224615">
        <ele>81.993341</ele>
        <time>2026-08-15T02:26:32.000Z</time>
      </trkpt>
      <trkpt lat="22.883838" lon="109.224657">
        <ele>82.036909</ele>
        <time>2026-08-15T02:26:33.000Z</time>
      </trkpt>
      <trkpt lat="22.883818" lon="109.224700">
        <ele>82.082656</ele>
        <time>2026-08-15T02:26:34.000Z</time>
      </trkpt>
      <trkpt lat="22.883800" lon="109.224742">
        <ele>82.126649</ele>
        <time>2026-08-15T02:26:35.000Z</time>
      </trkpt>
      <trkpt lat="22.883782" lon="109.224785">
        <ele>82.171505</ele>
        <time>2026-08-15T02:26:36.000Z</time>
      </trkpt>
      <trkpt lat="22.883765" lon="109.224826">
        <ele>82.214206</ele>
        <time>2026-08-15T02:26:37.000Z</time>
      </trkpt>
      <trkpt lat="22.883747" lon="109.224867">
        <ele>82.257340</ele>
        <time>2026-08-15T02:26:38.000Z</time>
      </trkpt>
      <trkpt lat="22.883727" lon="109.224908">
        <ele>82.301400</ele>
        <time>2026-08-15T02:26:39.000Z</time>
      </trkpt>
      <trkpt lat="22.883710" lon="109.224953">
        <ele>82.347591</ele>
        <time>2026-08-15T02:26:40.000Z</time>
      </trkpt>
      <trkpt lat="22.883692" lon="109.224996">
        <ele>82.392447</ele>
        <time>2026-08-15T02:26:41.000Z</time>
      </trkpt>
      <trkpt lat="22.883673" lon="109.225039">
        <ele>82.437739</ele>
        <time>2026-08-15T02:26:42.000Z</time>
      </trkpt>
      <trkpt lat="22.883653" lon="109.225081">
        <ele>82.482640</ele>
        <time>2026-08-15T02:26:43.000Z</time>
      </trkpt>
      <trkpt lat="22.883635" lon="109.225125">
        <ele>82.528363</ele>
        <time>2026-08-15T02:26:44.000Z</time>
      </trkpt>
      <trkpt lat="22.883621" lon="109.225173">
        <ele>82.576179</ele>
        <time>2026-08-15T02:26:45.000Z</time>
      </trkpt>
      <trkpt lat="22.883602" lon="109.225219">
        <ele>82.624056</ele>
        <time>2026-08-15T02:26:46.000Z</time>
      </trkpt>
      <trkpt lat="22.883583" lon="109.225264">
        <ele>82.671068</ele>
        <time>2026-08-15T02:26:47.000Z</time>
      </trkpt>
      <trkpt lat="22.883566" lon="109.225309">
        <ele>82.717259</ele>
        <time>2026-08-15T02:26:48.000Z</time>
      </trkpt>
      <trkpt lat="22.883547" lon="109.225353">
        <ele>82.763410</ele>
        <time>2026-08-15T02:26:49.000Z</time>
      </trkpt>
      <trkpt lat="22.883529" lon="109.225398">
        <ele>82.810002</ele>
        <time>2026-08-15T02:26:50.000Z</time>
      </trkpt>
      <trkpt lat="22.883510" lon="109.225442">
        <ele>82.856152</ele>
        <time>2026-08-15T02:26:51.000Z</time>
      </trkpt>
      <trkpt lat="22.883490" lon="109.225487">
        <ele>82.903603</ele>
        <time>2026-08-15T02:26:52.000Z</time>
      </trkpt>
      <trkpt lat="22.883472" lon="109.225534">
        <ele>82.951943</ele>
        <time>2026-08-15T02:26:53.000Z</time>
      </trkpt>
      <trkpt lat="22.883452" lon="109.225579">
        <ele>82.977319</ele>
        <time>2026-08-15T02:26:54.000Z</time>
      </trkpt>
      <trkpt lat="22.883432" lon="109.225626">
        <ele>82.969387</ele>
        <time>2026-08-15T02:26:55.000Z</time>
      </trkpt>
      <trkpt lat="22.883412" lon="109.225674">
        <ele>82.961315</ele>
        <time>2026-08-15T02:26:56.000Z</time>
      </trkpt>
      <trkpt lat="22.883393" lon="109.225722">
        <ele>82.953311</ele>
        <time>2026-08-15T02:26:57.000Z</time>
      </trkpt>
      <trkpt lat="22.883372" lon="109.225770">
        <ele>82.945169</ele>
        <time>2026-08-15T02:26:58.000Z</time>
      </trkpt>
      <trkpt lat="22.883352" lon="109.225819">
        <ele>82.936957</ele>
        <time>2026-08-15T02:26:59.000Z</time>
      </trkpt>
      <trkpt lat="22.883330" lon="109.225869">
        <ele>82.928468</ele>
        <time>2026-08-15T02:27:00.000Z</time>
      </trkpt>
      <trkpt lat="22.883311" lon="109.225922">
        <ele>82.919754</ele>
        <time>2026-08-15T02:27:01.000Z</time>
      </trkpt>
      <trkpt lat="22.883291" lon="109.225974">
        <ele>82.911120</ele>
        <time>2026-08-15T02:27:02.000Z</time>
      </trkpt>
      <trkpt lat="22.883270" lon="109.226026">
        <ele>82.902421</ele>
        <time>2026-08-15T02:27:03.000Z</time>
      </trkpt>
      <trkpt lat="22.883248" lon="109.226078">
        <ele>82.893653</ele>
        <time>2026-08-15T02:27:04.000Z</time>
      </trkpt>
      <trkpt lat="22.883227" lon="109.226129">
        <ele>82.885094</ele>
        <time>2026-08-15T02:27:05.000Z</time>
      </trkpt>
      <trkpt lat="22.883206" lon="109.226182">
        <ele>82.876255</ele>
        <time>2026-08-15T02:27:06.000Z</time>
      </trkpt>
      <trkpt lat="22.883184" lon="109.226235">
        <ele>82.867348</ele>
        <time>2026-08-15T02:27:07.000Z</time>
      </trkpt>
      <trkpt lat="22.883162" lon="109.226287">
        <ele>82.858580</ele>
        <time>2026-08-15T02:27:08.000Z</time>
      </trkpt>
      <trkpt lat="22.883140" lon="109.226337">
        <ele>82.850091</ele>
        <time>2026-08-15T02:27:09.000Z</time>
      </trkpt>
      <trkpt lat="22.883118" lon="109.226388">
        <ele>82.841462</ele>
        <time>2026-08-15T02:27:10.000Z</time>
      </trkpt>
      <trkpt lat="22.883096" lon="109.226440">
        <ele>82.832695</ele>
        <time>2026-08-15T02:27:11.000Z</time>
      </trkpt>
      <trkpt lat="22.883072" lon="109.226491">
        <ele>82.823920</ele>
        <time>2026-08-15T02:27:12.000Z</time>
      </trkpt>
      <trkpt lat="22.883046" lon="109.226543">
        <ele>82.814855</ele>
        <time>2026-08-15T02:27:13.000Z</time>
      </trkpt>
      <trkpt lat="22.883022" lon="109.226595">
        <ele>82.805944</ele>
        <time>2026-08-15T02:27:14.000Z</time>
      </trkpt>
      <trkpt lat="22.882996" lon="109.226647">
        <ele>82.796879</ele>
        <time>2026-08-15T02:27:15.000Z</time>
      </trkpt>
      <trkpt lat="22.882973" lon="109.226702">
        <ele>82.787624</ele>
        <time>2026-08-15T02:27:16.000Z</time>
      </trkpt>
      <trkpt lat="22.882951" lon="109.226756">
        <ele>82.778577</ele>
        <time>2026-08-15T02:27:17.000Z</time>
      </trkpt>
      <trkpt lat="22.882928" lon="109.226809">
        <ele>82.769601</ele>
        <time>2026-08-15T02:27:18.000Z</time>
      </trkpt>
      <trkpt lat="22.882901" lon="109.226863">
        <ele>82.760187</ele>
        <time>2026-08-15T02:27:19.000Z</time>
      </trkpt>
      <trkpt lat="22.882882" lon="109.226920">
        <ele>82.750900</ele>
        <time>2026-08-15T02:27:20.000Z</time>
      </trkpt>
      <trkpt lat="22.882859" lon="109.226971">
        <ele>82.742199</ele>
        <time>2026-08-15T02:27:21.000Z</time>
      </trkpt>
      <trkpt lat="22.882836" lon="109.227023">
        <ele>82.733361</ele>
        <time>2026-08-15T02:27:22.000Z</time>
      </trkpt>
      <trkpt lat="22.882810" lon="109.227076">
        <ele>82.724161</ele>
        <time>2026-08-15T02:27:23.000Z</time>
      </trkpt>
      <trkpt lat="22.882783" lon="109.227130">
        <ele>82.714747</ele>
        <time>2026-08-15T02:27:24.000Z</time>
      </trkpt>
      <trkpt lat="22.882756" lon="109.227184">
        <ele>82.705334</ele>
        <time>2026-08-15T02:27:25.000Z</time>
      </trkpt>
      <trkpt lat="22.882730" lon="109.227239">
        <ele>82.695862</ele>
        <time>2026-08-15T02:27:26.000Z</time>
      </trkpt>
      <trkpt lat="22.882707" lon="109.227295">
        <ele>82.686468</ele>
        <time>2026-08-15T02:27:27.000Z</time>
      </trkpt>
      <trkpt lat="22.882682" lon="109.227347">
        <ele>82.699583</ele>
        <time>2026-08-15T02:27:28.000Z</time>
      </trkpt>
      <trkpt lat="22.882661" lon="109.227401">
        <ele>82.743165</ele>
        <time>2026-08-15T02:27:29.000Z</time>
      </trkpt>
      <trkpt lat="22.882641" lon="109.227456">
        <ele>82.787129</ele>
        <time>2026-08-15T02:27:30.000Z</time>
      </trkpt>
      <trkpt lat="22.882621" lon="109.227512">
        <ele>82.831786</ele>
        <time>2026-08-15T02:27:31.000Z</time>
      </trkpt>
      <trkpt lat="22.882596" lon="109.227566">
        <ele>82.876721</ele>
        <time>2026-08-15T02:27:32.000Z</time>
      </trkpt>
      <trkpt lat="22.882574" lon="109.227621">
        <ele>82.921303</ele>
        <time>2026-08-15T02:27:33.000Z</time>
      </trkpt>
      <trkpt lat="22.882553" lon="109.227676">
        <ele>82.965571</ele>
        <time>2026-08-15T02:27:34.000Z</time>
      </trkpt>
      <trkpt lat="22.882532" lon="109.227730">
        <ele>83.009152</ele>
        <time>2026-08-15T02:27:35.000Z</time>
      </trkpt>
      <trkpt lat="22.882509" lon="109.227787">
        <ele>83.055420</ele>
        <time>2026-08-15T02:27:36.000Z</time>
      </trkpt>
      <trkpt lat="22.882488" lon="109.227842">
        <ele>83.099687</ele>
        <time>2026-08-15T02:27:37.000Z</time>
      </trkpt>
      <trkpt lat="22.882468" lon="109.227895">
        <ele>83.142272</ele>
        <time>2026-08-15T02:27:38.000Z</time>
      </trkpt>
      <trkpt lat="22.882446" lon="109.227949">
        <ele>83.186173</ele>
        <time>2026-08-15T02:27:39.000Z</time>
      </trkpt>
      <trkpt lat="22.882427" lon="109.228003">
        <ele>83.229153</ele>
        <time>2026-08-15T02:27:40.000Z</time>
      </trkpt>
      <trkpt lat="22.882408" lon="109.228057">
        <ele>83.272132</ele>
        <time>2026-08-15T02:27:41.000Z</time>
      </trkpt>
      <trkpt lat="22.882388" lon="109.228112">
        <ele>83.316097</ele>
        <time>2026-08-15T02:27:42.000Z</time>
      </trkpt>
      <trkpt lat="22.882369" lon="109.228166">
        <ele>83.359076</ele>
        <time>2026-08-15T02:27:43.000Z</time>
      </trkpt>
      <trkpt lat="22.882346" lon="109.228216">
        <ele>83.400629</ele>
        <time>2026-08-15T02:27:44.000Z</time>
      </trkpt>
      <trkpt lat="22.882321" lon="109.228268">
        <ele>83.444241</ele>
        <time>2026-08-15T02:27:45.000Z</time>
      </trkpt>
      <trkpt lat="22.882299" lon="109.228319">
        <ele>83.486112</ele>
        <time>2026-08-15T02:27:46.000Z</time>
      </trkpt>
      <trkpt lat="22.882277" lon="109.228369">
        <ele>83.527311</ele>
        <time>2026-08-15T02:27:47.000Z</time>
      </trkpt>
      <trkpt lat="22.882258" lon="109.228422">
        <ele>83.569596</ele>
        <time>2026-08-15T02:27:48.000Z</time>
      </trkpt>
      <trkpt lat="22.882238" lon="109.228478">
        <ele>83.614253</ele>
        <time>2026-08-15T02:27:49.000Z</time>
      </trkpt>
      <trkpt lat="22.882221" lon="109.228533">
        <ele>83.657388</ele>
        <time>2026-08-15T02:27:50.000Z</time>
      </trkpt>
      <trkpt lat="22.882202" lon="109.228583">
        <ele>83.697603</ele>
        <time>2026-08-15T02:27:51.000Z</time>
      </trkpt>
      <trkpt lat="22.882181" lon="109.228635">
        <ele>83.739818</ele>
        <time>2026-08-15T02:27:52.000Z</time>
      </trkpt>
      <trkpt lat="22.882161" lon="109.228687">
        <ele>83.781716</ele>
        <time>2026-08-15T02:27:53.000Z</time>
      </trkpt>
      <trkpt lat="22.882140" lon="109.228736">
        <ele>83.821898</ele>
        <time>2026-08-15T02:27:54.000Z</time>
      </trkpt>
      <trkpt lat="22.882121" lon="109.228783">
        <ele>83.860061</ele>
        <time>2026-08-15T02:27:55.000Z</time>
      </trkpt>
      <trkpt lat="22.882102" lon="109.228831">
        <ele>83.898905</ele>
        <time>2026-08-15T02:27:56.000Z</time>
      </trkpt>
      <trkpt lat="22.882082" lon="109.228880">
        <ele>83.938754</ele>
        <time>2026-08-15T02:27:57.000Z</time>
      </trkpt>
      <trkpt lat="22.882058" lon="109.228922">
        <ele>83.975501</ele>
        <time>2026-08-15T02:27:58.000Z</time>
      </trkpt>
      <trkpt lat="22.882034" lon="109.228967">
        <ele>84.014162</ele>
        <time>2026-08-15T02:27:59.000Z</time>
      </trkpt>
      <trkpt lat="22.882012" lon="109.229014">
        <ele>84.053360</ele>
        <time>2026-08-15T02:28:00.000Z</time>
      </trkpt>
      <trkpt lat="22.881991" lon="109.229060">
        <ele>84.091532</ele>
        <time>2026-08-15T02:28:01.000Z</time>
      </trkpt>
      <trkpt lat="22.881971" lon="109.229105">
        <ele>84.128681</ele>
        <time>2026-08-15T02:28:02.000Z</time>
      </trkpt>
      <trkpt lat="22.881946" lon="109.229147">
        <ele>84.238625</ele>
        <time>2026-08-15T02:28:03.000Z</time>
      </trkpt>
      <trkpt lat="22.881920" lon="109.229189">
        <ele>84.359169</ele>
        <time>2026-08-15T02:28:04.000Z</time>
      </trkpt>
      <trkpt lat="22.881893" lon="109.229227">
        <ele>84.473489</ele>
        <time>2026-08-15T02:28:05.000Z</time>
      </trkpt>
      <trkpt lat="22.881865" lon="109.229265">
        <ele>84.589407</ele>
        <time>2026-08-15T02:28:06.000Z</time>
      </trkpt>
      <trkpt lat="22.881838" lon="109.229302">
        <ele>84.701850</ele>
        <time>2026-08-15T02:28:07.000Z</time>
      </trkpt>
      <trkpt lat="22.881811" lon="109.229338">
        <ele>84.812436</ele>
        <time>2026-08-15T02:28:08.000Z</time>
      </trkpt>
      <trkpt lat="22.881785" lon="109.229374">
        <ele>84.921407</ele>
        <time>2026-08-15T02:28:09.000Z</time>
      </trkpt>
      <trkpt lat="22.881755" lon="109.229408">
        <ele>85.033559</ele>
        <time>2026-08-15T02:28:10.000Z</time>
      </trkpt>
      <trkpt lat="22.881725" lon="109.229441">
        <ele>85.144002</ele>
        <time>2026-08-15T02:28:11.000Z</time>
      </trkpt>
      <trkpt lat="22.881695" lon="109.229474">
        <ele>85.254446</ele>
        <time>2026-08-15T02:28:12.000Z</time>
      </trkpt>
      <trkpt lat="22.881664" lon="109.229507">
        <ele>85.366720</ele>
        <time>2026-08-15T02:28:13.000Z</time>
      </trkpt>
      <trkpt lat="22.881634" lon="109.229540">
        <ele>85.477164</ele>
        <time>2026-08-15T02:28:14.000Z</time>
      </trkpt>
      <trkpt lat="22.881603" lon="109.229573">
        <ele>85.589439</ele>
        <time>2026-08-15T02:28:15.000Z</time>
      </trkpt>
      <trkpt lat="22.881574" lon="109.229607">
        <ele>85.699818</ele>
        <time>2026-08-15T02:28:16.000Z</time>
      </trkpt>
      <trkpt lat="22.881545" lon="109.229639">
        <ele>85.806749</ele>
        <time>2026-08-15T02:28:17.000Z</time>
      </trkpt>
      <trkpt lat="22.881516" lon="109.229671">
        <ele>85.913681</ele>
        <time>2026-08-15T02:28:18.000Z</time>
      </trkpt>
      <trkpt lat="22.881488" lon="109.229704">
        <ele>86.020556</ele>
        <time>2026-08-15T02:28:19.000Z</time>
      </trkpt>
      <trkpt lat="22.881458" lon="109.229738">
        <ele>86.132707</ele>
        <time>2026-08-15T02:28:20.000Z</time>
      </trkpt>
      <trkpt lat="22.881428" lon="109.229770">
        <ele>86.241468</ele>
        <time>2026-08-15T02:28:21.000Z</time>
      </trkpt>
      <trkpt lat="22.881400" lon="109.229805">
        <ele>86.351895</ele>
        <time>2026-08-15T02:28:22.000Z</time>
      </trkpt>
      <trkpt lat="22.881369" lon="109.229840">
        <ele>86.467556</ele>
        <time>2026-08-15T02:28:23.000Z</time>
      </trkpt>
      <trkpt lat="22.881337" lon="109.229875">
        <ele>86.585023</ele>
        <time>2026-08-15T02:28:24.000Z</time>
      </trkpt>
      <trkpt lat="22.881305" lon="109.229910">
        <ele>86.702491</ele>
        <time>2026-08-15T02:28:25.000Z</time>
      </trkpt>
      <trkpt lat="22.881272" lon="109.229944">
        <ele>86.820142</ele>
        <time>2026-08-15T02:28:26.000Z</time>
      </trkpt>
      <trkpt lat="22.881238" lon="109.229980">
        <ele>86.942960</ele>
        <time>2026-08-15T02:28:27.000Z</time>
      </trkpt>
      <trkpt lat="22.881205" lon="109.230016">
        <ele>87.063940</ele>
        <time>2026-08-15T02:28:28.000Z</time>
      </trkpt>
      <trkpt lat="22.881173" lon="109.230052">
        <ele>87.183111</ele>
        <time>2026-08-15T02:28:29.000Z</time>
      </trkpt>
      <trkpt lat="22.881143" lon="109.230088">
        <ele>87.298751</ele>
        <time>2026-08-15T02:28:30.000Z</time>
      </trkpt>
      <trkpt lat="22.881113" lon="109.230125">
        <ele>87.416168</ele>
        <time>2026-08-15T02:28:31.000Z</time>
      </trkpt>
      <trkpt lat="22.881083" lon="109.230161">
        <ele>87.531808</ele>
        <time>2026-08-15T02:28:32.000Z</time>
      </trkpt>
      <trkpt lat="22.881053" lon="109.230196">
        <ele>87.645692</ele>
        <time>2026-08-15T02:28:33.000Z</time>
      </trkpt>
      <trkpt lat="22.881023" lon="109.230230">
        <ele>87.757844</ele>
        <time>2026-08-15T02:28:34.000Z</time>
      </trkpt>
      <trkpt lat="22.880992" lon="109.230261">
        <ele>87.866836</ele>
        <time>2026-08-15T02:28:35.000Z</time>
      </trkpt>
      <trkpt lat="22.880961" lon="109.230290">
        <ele>87.972658</ele>
        <time>2026-08-15T02:28:36.000Z</time>
      </trkpt>
      <trkpt lat="22.880931" lon="109.230319">
        <ele>88.076534</ele>
        <time>2026-08-15T02:28:37.000Z</time>
      </trkpt>
      <trkpt lat="22.880905" lon="109.230347">
        <ele>88.171240</ele>
        <time>2026-08-15T02:28:38.000Z</time>
      </trkpt>
      <trkpt lat="22.880880" lon="109.230375">
        <ele>88.264128</ele>
        <time>2026-08-15T02:28:39.000Z</time>
      </trkpt>
      <trkpt lat="22.880852" lon="109.230402">
        <ele>88.360974</ele>
        <time>2026-08-15T02:28:40.000Z</time>
      </trkpt>
      <trkpt lat="22.880826" lon="109.230426">
        <ele>88.449228</ele>
        <time>2026-08-15T02:28:41.000Z</time>
      </trkpt>
      <trkpt lat="22.880800" lon="109.230443">
        <ele>88.527713</ele>
        <time>2026-08-15T02:28:42.000Z</time>
      </trkpt>
      <trkpt lat="22.880778" lon="109.230463">
        <ele>88.601917</ele>
        <time>2026-08-15T02:28:43.000Z</time>
      </trkpt>
      <trkpt lat="22.880756" lon="109.230481">
        <ele>88.673155</ele>
        <time>2026-08-15T02:28:44.000Z</time>
      </trkpt>
      <trkpt lat="22.880734" lon="109.230501">
        <ele>88.747358</ele>
        <time>2026-08-15T02:28:45.000Z</time>
      </trkpt>
      <trkpt lat="22.880713" lon="109.230516">
        <ele>88.811922</ele>
        <time>2026-08-15T02:28:46.000Z</time>
      </trkpt>
      <trkpt lat="22.880691" lon="109.230531">
        <ele>88.878071</ele>
        <time>2026-08-15T02:28:47.000Z</time>
      </trkpt>
      <trkpt lat="22.880671" lon="109.230550">
        <ele>88.945743</ele>
        <time>2026-08-15T02:28:48.000Z</time>
      </trkpt>
      <trkpt lat="22.880653" lon="109.230569">
        <ele>89.009671</ele>
        <time>2026-08-15T02:28:49.000Z</time>
      </trkpt>
      <trkpt lat="22.880634" lon="109.230588">
        <ele>89.075449</ele>
        <time>2026-08-15T02:28:50.000Z</time>
      </trkpt>
      <trkpt lat="22.880617" lon="109.230611">
        <ele>89.144618</ele>
        <time>2026-08-15T02:28:51.000Z</time>
      </trkpt>
      <trkpt lat="22.880601" lon="109.230636">
        <ele>89.216023</ele>
        <time>2026-08-15T02:28:52.000Z</time>
      </trkpt>
      <trkpt lat="22.880582" lon="109.230655">
        <ele>89.281800</ele>
        <time>2026-08-15T02:28:53.000Z</time>
      </trkpt>
      <trkpt lat="22.880564" lon="109.230677">
        <ele>89.350819</ele>
        <time>2026-08-15T02:28:54.000Z</time>
      </trkpt>
      <trkpt lat="22.880547" lon="109.230698">
        <ele>89.416395</ele>
        <time>2026-08-15T02:28:55.000Z</time>
      </trkpt>
      <trkpt lat="22.880532" lon="109.230720">
        <ele>89.480596</ele>
        <time>2026-08-15T02:28:56.000Z</time>
      </trkpt>
      <trkpt lat="22.880516" lon="109.230742">
        <ele>89.546345</ele>
        <time>2026-08-15T02:28:57.000Z</time>
      </trkpt>
      <trkpt lat="22.880498" lon="109.230764">
        <ele>89.615364</ele>
        <time>2026-08-15T02:28:58.000Z</time>
      </trkpt>
      <trkpt lat="22.880482" lon="109.230787">
        <ele>89.682969</ele>
        <time>2026-08-15T02:28:59.000Z</time>
      </trkpt>
      <trkpt lat="22.880465" lon="109.230808">
        <ele>89.748544</ele>
        <time>2026-08-15T02:29:00.000Z</time>
      </trkpt>
      <trkpt lat="22.880447" lon="109.230827">
        <ele>89.812472</ele>
        <time>2026-08-15T02:29:01.000Z</time>
      </trkpt>
      <trkpt lat="22.880427" lon="109.230847">
        <ele>89.881712</ele>
        <time>2026-08-15T02:29:02.000Z</time>
      </trkpt>
      <trkpt lat="22.880409" lon="109.230869">
        <ele>89.950731</ele>
        <time>2026-08-15T02:29:03.000Z</time>
      </trkpt>
      <trkpt lat="22.880392" lon="109.230889">
        <ele>90.014563</ele>
        <time>2026-08-15T02:29:04.000Z</time>
      </trkpt>
      <trkpt lat="22.880374" lon="109.230909">
        <ele>90.080148</ele>
        <time>2026-08-15T02:29:05.000Z</time>
      </trkpt>
      <trkpt lat="22.880358" lon="109.230930">
        <ele>90.144072</ele>
        <time>2026-08-15T02:29:06.000Z</time>
      </trkpt>
      <trkpt lat="22.880335" lon="109.230948">
        <ele>90.216267</ele>
        <time>2026-08-15T02:29:07.000Z</time>
      </trkpt>
      <trkpt lat="22.880312" lon="109.230966">
        <ele>90.288462</ele>
        <time>2026-08-15T02:29:08.000Z</time>
      </trkpt>
      <trkpt lat="22.880291" lon="109.230986">
        <ele>90.359595</ele>
        <time>2026-08-15T02:29:09.000Z</time>
      </trkpt>
      <trkpt lat="22.880271" lon="109.231004">
        <ele>90.425746</ele>
        <time>2026-08-15T02:29:10.000Z</time>
      </trkpt>
      <trkpt lat="22.880253" lon="109.231022">
        <ele>90.488061</ele>
        <time>2026-08-15T02:29:11.000Z</time>
      </trkpt>
      <trkpt lat="22.880237" lon="109.231041">
        <ele>90.548444</ele>
        <time>2026-08-15T02:29:12.000Z</time>
      </trkpt>
      <trkpt lat="22.880222" lon="109.231052">
        <ele>90.594535</ele>
        <time>2026-08-15T02:29:13.000Z</time>
      </trkpt>
      <trkpt lat="22.880208" lon="109.231063">
        <ele>90.638540</ele>
        <time>2026-08-15T02:29:14.000Z</time>
      </trkpt>
      <trkpt lat="22.880191" lon="109.231078">
        <ele>90.694321</ele>
        <time>2026-08-15T02:29:15.000Z</time>
      </trkpt>
      <trkpt lat="22.880170" lon="109.231092">
        <ele>90.757069</ele>
        <time>2026-08-15T02:29:16.000Z</time>
      </trkpt>
      <trkpt lat="22.880148" lon="109.231107">
        <ele>90.823218</ele>
        <time>2026-08-15T02:29:17.000Z</time>
      </trkpt>
      <trkpt lat="22.880128" lon="109.231122">
        <ele>90.885115</ele>
        <time>2026-08-15T02:29:18.000Z</time>
      </trkpt>
      <trkpt lat="22.880107" lon="109.231134">
        <ele>90.945540</ele>
        <time>2026-08-15T02:29:19.000Z</time>
      </trkpt>
      <trkpt lat="22.880087" lon="109.231149">
        <ele>91.007436</ele>
        <time>2026-08-15T02:29:20.000Z</time>
      </trkpt>
      <trkpt lat="22.880068" lon="109.231161">
        <ele>91.063406</ele>
        <time>2026-08-15T02:29:21.000Z</time>
      </trkpt>
      <trkpt lat="22.880051" lon="109.231175">
        <ele>91.117738</ele>
        <time>2026-08-15T02:29:22.000Z</time>
      </trkpt>
      <trkpt lat="22.880032" lon="109.231186">
        <ele>91.172566</ele>
        <time>2026-08-15T02:29:23.000Z</time>
      </trkpt>
      <trkpt lat="22.880015" lon="109.231199">
        <ele>91.225513</ele>
        <time>2026-08-15T02:29:24.000Z</time>
      </trkpt>
      <trkpt lat="22.879998" lon="109.231207">
        <ele>91.272690</ele>
        <time>2026-08-15T02:29:25.000Z</time>
      </trkpt>
      <trkpt lat="22.879984" lon="109.231216">
        <ele>91.314118</ele>
        <time>2026-08-15T02:29:26.000Z</time>
      </trkpt>
      <trkpt lat="22.879970" lon="109.231221">
        <ele>91.351644</ele>
        <time>2026-08-15T02:29:27.000Z</time>
      </trkpt>
      <trkpt lat="22.879955" lon="109.231225">
        <ele>91.390971</ele>
        <time>2026-08-15T02:29:28.000Z</time>
      </trkpt>
      <trkpt lat="22.879939" lon="109.231223">
        <ele>91.431978</ele>
        <time>2026-08-15T02:29:29.000Z</time>
      </trkpt>
      <trkpt lat="22.879924" lon="109.231223">
        <ele>91.470169</ele>
        <time>2026-08-15T02:29:30.000Z</time>
      </trkpt>
      <trkpt lat="22.879909" lon="109.231226">
        <ele>91.509004</ele>
        <time>2026-08-15T02:29:31.000Z</time>
      </trkpt>
      <trkpt lat="22.879897" lon="109.231229">
        <ele>91.540357</ele>
        <time>2026-08-15T02:29:32.000Z</time>
      </trkpt>
      <trkpt lat="22.879882" lon="109.231232">
        <ele>91.579192</ele>
        <time>2026-08-15T02:29:33.000Z</time>
      </trkpt>
      <trkpt lat="22.879865" lon="109.231238">
        <ele>91.624706</ele>
        <time>2026-08-15T02:29:34.000Z</time>
      </trkpt>
      <trkpt lat="22.879848" lon="109.231246">
        <ele>91.671883</ele>
        <time>2026-08-15T02:29:35.000Z</time>
      </trkpt>
      <trkpt lat="22.879833" lon="109.231255">
        <ele>91.715521</ele>
        <time>2026-08-15T02:29:36.000Z</time>
      </trkpt>
      <trkpt lat="22.879819" lon="109.231266">
        <ele>91.759526</ele>
        <time>2026-08-15T02:29:37.000Z</time>
      </trkpt>
      <trkpt lat="22.879811" lon="109.231287">
        <ele>91.812832</ele>
        <time>2026-08-15T02:29:38.000Z</time>
      </trkpt>
      <trkpt lat="22.879812" lon="109.231312">
        <ele>91.871532</ele>
        <time>2026-08-15T02:29:39.000Z</time>
      </trkpt>
      <trkpt lat="22.879821" lon="109.231334">
        <ele>91.927998</ele>
        <time>2026-08-15T02:29:40.000Z</time>
      </trkpt>
      <trkpt lat="22.879838" lon="109.231353">
        <ele>91.990126</ele>
        <time>2026-08-15T02:29:41.000Z</time>
      </trkpt>
      <trkpt lat="22.879852" lon="109.231364">
        <ele>92.034131</ele>
        <time>2026-08-15T02:29:42.000Z</time>
      </trkpt>
      <trkpt lat="22.879860" lon="109.231364">
        <ele>92.054500</ele>
        <time>2026-08-15T02:29:43.000Z</time>
      </trkpt>
      <trkpt lat="22.879862" lon="109.231365">
        <ele>92.060106</ele>
        <time>2026-08-15T02:29:44.000Z</time>
      </trkpt>
      <trkpt lat="22.879893" lon="109.231363">
        <ele>92.139175</ele>
        <time>2026-08-15T02:30:17.000Z</time>
      </trkpt>
      <trkpt lat="22.879911" lon="109.231360">
        <ele>92.185542</ele>
        <time>2026-08-15T02:30:18.000Z</time>
      </trkpt>
      <trkpt lat="22.879935" lon="109.231356">
        <ele>92.247364</ele>
        <time>2026-08-15T02:30:19.000Z</time>
      </trkpt>
      <trkpt lat="22.879956" lon="109.231354">
        <ele>92.301038</ele>
        <time>2026-08-15T02:30:20.000Z</time>
      </trkpt>
      <trkpt lat="22.879983" lon="109.231350">
        <ele>92.370420</ele>
        <time>2026-08-15T02:30:21.000Z</time>
      </trkpt>
      <trkpt lat="22.880007" lon="109.231348">
        <ele>92.431706</ele>
        <time>2026-08-15T02:30:22.000Z</time>
      </trkpt>
      <trkpt lat="22.880036" lon="109.231350">
        <ele>92.505692</ele>
        <time>2026-08-15T02:30:23.000Z</time>
      </trkpt>
      <trkpt lat="22.880067" lon="109.231359">
        <ele>92.587396</ele>
        <time>2026-08-15T02:30:24.000Z</time>
      </trkpt>
      <trkpt lat="22.880102" lon="109.231368">
        <ele>92.678976</ele>
        <time>2026-08-15T02:30:25.000Z</time>
      </trkpt>
      <trkpt lat="22.880134" lon="109.231381">
        <ele>92.765971</ele>
        <time>2026-08-15T02:30:26.000Z</time>
      </trkpt>
      <trkpt lat="22.880165" lon="109.231398">
        <ele>92.854402</ele>
        <time>2026-08-15T02:30:27.000Z</time>
      </trkpt>
      <trkpt lat="22.880195" lon="109.231418">
        <ele>92.944043</ele>
        <time>2026-08-15T02:30:28.000Z</time>
      </trkpt>
      <trkpt lat="22.880227" lon="109.231441">
        <ele>93.041762</ele>
        <time>2026-08-15T02:30:29.000Z</time>
      </trkpt>
      <trkpt lat="22.880261" lon="109.231465">
        <ele>93.145026</ele>
        <time>2026-08-15T02:30:30.000Z</time>
      </trkpt>
      <trkpt lat="22.880293" lon="109.231490">
        <ele>93.245412</ele>
        <time>2026-08-15T02:30:31.000Z</time>
      </trkpt>
      <trkpt lat="22.880326" lon="109.231517">
        <ele>93.350631</ele>
        <time>2026-08-15T02:30:32.000Z</time>
      </trkpt>
      <trkpt lat="22.880361" lon="109.231544">
        <ele>93.239437</ele>
        <time>2026-08-15T02:30:33.000Z</time>
      </trkpt>
      <trkpt lat="22.880395" lon="109.231569">
        <ele>93.105706</ele>
        <time>2026-08-15T02:30:34.000Z</time>
      </trkpt>
      <trkpt lat="22.880428" lon="109.231595">
        <ele>92.972918</ele>
        <time>2026-08-15T02:30:35.000Z</time>
      </trkpt>
      <trkpt lat="22.880461" lon="109.231621">
        <ele>92.840129</ele>
        <time>2026-08-15T02:30:36.000Z</time>
      </trkpt>
      <trkpt lat="22.880492" lon="109.231645">
        <ele>92.716132</ele>
        <time>2026-08-15T02:30:37.000Z</time>
      </trkpt>
      <trkpt lat="22.880527" lon="109.231667">
        <ele>92.584426</ele>
        <time>2026-08-15T02:30:38.000Z</time>
      </trkpt>
      <trkpt lat="22.880564" lon="109.231690">
        <ele>92.445578</ele>
        <time>2026-08-15T02:30:39.000Z</time>
      </trkpt>
      <trkpt lat="22.880600" lon="109.231712">
        <ele>92.311043</ele>
        <time>2026-08-15T02:30:40.000Z</time>
      </trkpt>
      <trkpt lat="22.880636" lon="109.231736">
        <ele>92.173465</ele>
        <time>2026-08-15T02:30:41.000Z</time>
      </trkpt>
      <trkpt lat="22.880675" lon="109.231761">
        <ele>92.025971</ele>
        <time>2026-08-15T02:30:42.000Z</time>
      </trkpt>
      <trkpt lat="22.880716" lon="109.231784">
        <ele>91.875681</ele>
        <time>2026-08-15T02:30:43.000Z</time>
      </trkpt>
      <trkpt lat="22.880759" lon="109.231805">
        <ele>91.722134</ele>
        <time>2026-08-15T02:30:44.000Z</time>
      </trkpt>
      <trkpt lat="22.880806" lon="109.231827">
        <ele>91.555457</ele>
        <time>2026-08-15T02:30:45.000Z</time>
      </trkpt>
      <trkpt lat="22.880856" lon="109.231848">
        <ele>91.380872</ele>
        <time>2026-08-15T02:30:46.000Z</time>
      </trkpt>
      <trkpt lat="22.880907" lon="109.231868">
        <ele>91.204288</ele>
        <time>2026-08-15T02:30:47.000Z</time>
      </trkpt>
      <trkpt lat="22.880960" lon="109.231887">
        <ele>91.022528</ele>
        <time>2026-08-15T02:30:48.000Z</time>
      </trkpt>
      <trkpt lat="22.881016" lon="109.231906">
        <ele>90.831468</ele>
        <time>2026-08-15T02:30:49.000Z</time>
      </trkpt>
      <trkpt lat="22.881073" lon="109.231925">
        <ele>90.637297</ele>
        <time>2026-08-15T02:30:50.000Z</time>
      </trkpt>
      <trkpt lat="22.881131" lon="109.231944">
        <ele>90.440011</ele>
        <time>2026-08-15T02:30:51.000Z</time>
      </trkpt>
      <trkpt lat="22.881190" lon="109.231965">
        <ele>90.237816</ele>
        <time>2026-08-15T02:30:52.000Z</time>
      </trkpt>
      <trkpt lat="22.881252" lon="109.231985">
        <ele>90.027191</ele>
        <time>2026-08-15T02:30:53.000Z</time>
      </trkpt>
      <trkpt lat="22.881316" lon="109.232007">
        <ele>89.808579</ele>
        <time>2026-08-15T02:30:54.000Z</time>
      </trkpt>
      <trkpt lat="22.881384" lon="109.232030">
        <ele>89.576641</ele>
        <time>2026-08-15T02:30:55.000Z</time>
      </trkpt>
      <trkpt lat="22.881452" lon="109.232053">
        <ele>89.344703</ele>
        <time>2026-08-15T02:30:56.000Z</time>
      </trkpt>
      <trkpt lat="22.881520" lon="109.232076">
        <ele>89.112765</ele>
        <time>2026-08-15T02:30:57.000Z</time>
      </trkpt>
      <trkpt lat="22.881589" lon="109.232099">
        <ele>88.877716</ele>
        <time>2026-08-15T02:30:58.000Z</time>
      </trkpt>
      <trkpt lat="22.881660" lon="109.232122">
        <ele>88.636434</ele>
        <time>2026-08-15T02:30:59.000Z</time>
      </trkpt>
      <trkpt lat="22.881735" lon="109.232146">
        <ele>88.381810</ele>
        <time>2026-08-15T02:31:00.000Z</time>
      </trkpt>
      <trkpt lat="22.881813" lon="109.232172">
        <ele>88.116103</ele>
        <time>2026-08-15T02:31:01.000Z</time>
      </trkpt>
      <trkpt lat="22.881895" lon="109.232200">
        <ele>87.836176</ele>
        <time>2026-08-15T02:31:02.000Z</time>
      </trkpt>
      <trkpt lat="22.881981" lon="109.232228">
        <ele>87.543797</ele>
        <time>2026-08-15T02:31:03.000Z</time>
      </trkpt>
      <trkpt lat="22.882067" lon="109.232256">
        <ele>87.332592</ele>
        <time>2026-08-15T02:31:04.000Z</time>
      </trkpt>
      <trkpt lat="22.882156" lon="109.232284">
        <ele>87.127024</ele>
        <time>2026-08-15T02:31:05.000Z</time>
      </trkpt>
      <trkpt lat="22.882244" lon="109.232312">
        <ele>86.923586</ele>
        <time>2026-08-15T02:31:06.000Z</time>
      </trkpt>
      <trkpt lat="22.882332" lon="109.232340">
        <ele>86.720148</ele>
        <time>2026-08-15T02:31:07.000Z</time>
      </trkpt>
      <trkpt lat="22.882420" lon="109.232368">
        <ele>86.516710</ele>
        <time>2026-08-15T02:31:08.000Z</time>
      </trkpt>
      <trkpt lat="22.882508" lon="109.232395">
        <ele>86.313838</ele>
        <time>2026-08-15T02:31:09.000Z</time>
      </trkpt>
      <trkpt lat="22.882595" lon="109.232422">
        <ele>86.113100</ele>
        <time>2026-08-15T02:31:10.000Z</time>
      </trkpt>
      <trkpt lat="22.882680" lon="109.232449">
        <ele>85.916623</ele>
        <time>2026-08-15T02:31:11.000Z</time>
      </trkpt>
      <trkpt lat="22.882764" lon="109.232476">
        <ele>85.722275</ele>
        <time>2026-08-15T02:31:12.000Z</time>
      </trkpt>
      <trkpt lat="22.882846" lon="109.232503">
        <ele>85.532177</ele>
        <time>2026-08-15T02:31:13.000Z</time>
      </trkpt>
      <trkpt lat="22.882926" lon="109.232529">
        <ele>85.346917</ele>
        <time>2026-08-15T02:31:14.000Z</time>
      </trkpt>
      <trkpt lat="22.883003" lon="109.232556">
        <ele>85.167405</ele>
        <time>2026-08-15T02:31:15.000Z</time>
      </trkpt>
      <trkpt lat="22.883078" lon="109.232580">
        <ele>84.993942</ele>
        <time>2026-08-15T02:31:16.000Z</time>
      </trkpt>
      <trkpt lat="22.883153" lon="109.232604">
        <ele>84.820479</ele>
        <time>2026-08-15T02:31:17.000Z</time>
      </trkpt>
      <trkpt lat="22.883226" lon="109.232629">
        <ele>84.650663</ele>
        <time>2026-08-15T02:31:18.000Z</time>
      </trkpt>
      <trkpt lat="22.883296" lon="109.232654">
        <ele>84.487182</ele>
        <time>2026-08-15T02:31:19.000Z</time>
      </trkpt>
      <trkpt lat="22.883360" lon="109.232681">
        <ele>84.334855</ele>
        <time>2026-08-15T02:31:20.000Z</time>
      </trkpt>
      <trkpt lat="22.883424" lon="109.232709">
        <ele>84.181775</ele>
        <time>2026-08-15T02:31:21.000Z</time>
      </trkpt>
      <trkpt lat="22.883487" lon="109.232739">
        <ele>84.029155</ele>
        <time>2026-08-15T02:31:22.000Z</time>
      </trkpt>
      <trkpt lat="22.883548" lon="109.232771">
        <ele>83.878854</ele>
        <time>2026-08-15T02:31:23.000Z</time>
      </trkpt>
      <trkpt lat="22.883608" lon="109.232804">
        <ele>83.729635</ele>
        <time>2026-08-15T02:31:24.000Z</time>
      </trkpt>
      <trkpt lat="22.883667" lon="109.232840">
        <ele>83.579484</ele>
        <time>2026-08-15T02:31:25.000Z</time>
      </trkpt>
      <trkpt lat="22.883724" lon="109.232876">
        <ele>83.485800</ele>
        <time>2026-08-15T02:31:26.000Z</time>
      </trkpt>
      <trkpt lat="22.883776" lon="109.232917">
        <ele>83.433915</ele>
        <time>2026-08-15T02:31:27.000Z</time>
      </trkpt>
      <trkpt lat="22.883824" lon="109.232962">
        <ele>83.382712</ele>
        <time>2026-08-15T02:31:28.000Z</time>
      </trkpt>
      <trkpt lat="22.883868" lon="109.233010">
        <ele>83.332351</ele>
        <time>2026-08-15T02:31:29.000Z</time>
      </trkpt>
      <trkpt lat="22.883913" lon="109.233059">
        <ele>83.280894</ele>
        <time>2026-08-15T02:31:30.000Z</time>
      </trkpt>
      <trkpt lat="22.883956" lon="109.233111">
        <ele>83.228924</ele>
        <time>2026-08-15T02:31:31.000Z</time>
      </trkpt>
      <trkpt lat="22.883997" lon="109.233164">
        <ele>83.177452</ele>
        <time>2026-08-15T02:31:32.000Z</time>
      </trkpt>
      <trkpt lat="22.884037" lon="109.233218">
        <ele>83.125918</ele>
        <time>2026-08-15T02:31:33.000Z</time>
      </trkpt>
      <trkpt lat="22.884074" lon="109.233274">
        <ele>83.074664</ele>
        <time>2026-08-15T02:31:34.000Z</time>
      </trkpt>
      <trkpt lat="22.884109" lon="109.233330">
        <ele>83.024335</ele>
        <time>2026-08-15T02:31:35.000Z</time>
      </trkpt>
      <trkpt lat="22.884142" lon="109.233387">
        <ele>82.974265</ele>
        <time>2026-08-15T02:31:36.000Z</time>
      </trkpt>
      <trkpt lat="22.884173" lon="109.233445">
        <ele>82.924394</ele>
        <time>2026-08-15T02:31:37.000Z</time>
      </trkpt>
      <trkpt lat="22.884206" lon="109.233503">
        <ele>82.873693</ele>
        <time>2026-08-15T02:31:38.000Z</time>
      </trkpt>
      <trkpt lat="22.884239" lon="109.233559">
        <ele>82.824252</ele>
        <time>2026-08-15T02:31:39.000Z</time>
      </trkpt>
      <trkpt lat="22.884271" lon="109.233615">
        <ele>82.775241</ele>
        <time>2026-08-15T02:31:40.000Z</time>
      </trkpt>
      <trkpt lat="22.884302" lon="109.233671">
        <ele>82.726650</ele>
        <time>2026-08-15T02:31:41.000Z</time>
      </trkpt>
      <trkpt lat="22.884332" lon="109.233727">
        <ele>82.678471</ele>
        <time>2026-08-15T02:31:42.000Z</time>
      </trkpt>
      <trkpt lat="22.884363" lon="109.233782">
        <ele>82.630516</ele>
        <time>2026-08-15T02:31:43.000Z</time>
      </trkpt>
      <trkpt lat="22.884393" lon="109.233837">
        <ele>82.582978</ele>
        <time>2026-08-15T02:31:44.000Z</time>
      </trkpt>
      <trkpt lat="22.884424" lon="109.233891">
        <ele>82.535657</ele>
        <time>2026-08-15T02:31:45.000Z</time>
      </trkpt>
      <trkpt lat="22.884454" lon="109.233944">
        <ele>82.489393</ele>
        <time>2026-08-15T02:31:46.000Z</time>
      </trkpt>
      <trkpt lat="22.884484" lon="109.233996">
        <ele>82.443760</ele>
        <time>2026-08-15T02:31:47.000Z</time>
      </trkpt>
      <trkpt lat="22.884515" lon="109.234048">
        <ele>82.397695</ele>
        <time>2026-08-15T02:31:48.000Z</time>
      </trkpt>
      <trkpt lat="22.884546" lon="109.234101">
        <ele>82.351003</ele>
        <time>2026-08-15T02:31:49.000Z</time>
      </trkpt>
      <trkpt lat="22.884577" lon="109.234153">
        <ele>82.304937</ele>
        <time>2026-08-15T02:31:50.000Z</time>
      </trkpt>
      <trkpt lat="22.884610" lon="109.234204">
        <ele>82.258585</ele>
        <time>2026-08-15T02:31:51.000Z</time>
      </trkpt>
      <trkpt lat="22.884643" lon="109.234256">
        <ele>82.211623</ele>
        <time>2026-08-15T02:31:52.000Z</time>
      </trkpt>
      <trkpt lat="22.884675" lon="109.234309">
        <ele>82.164493</ele>
        <time>2026-08-15T02:31:53.000Z</time>
      </trkpt>
      <trkpt lat="22.884709" lon="109.234364">
        <ele>82.115232</ele>
        <time>2026-08-15T02:31:54.000Z</time>
      </trkpt>
      <trkpt lat="22.884741" lon="109.234418">
        <ele>82.067479</ele>
        <time>2026-08-15T02:31:55.000Z</time>
      </trkpt>
      <trkpt lat="22.884773" lon="109.234472">
        <ele>82.036499</ele>
        <time>2026-08-15T02:31:56.000Z</time>
      </trkpt>
      <trkpt lat="22.884805" lon="109.234527">
        <ele>82.006500</ele>
        <time>2026-08-15T02:31:57.000Z</time>
      </trkpt>
      <trkpt lat="22.884837" lon="109.234583">
        <ele>81.976110</ele>
        <time>2026-08-15T02:31:58.000Z</time>
      </trkpt>
      <trkpt lat="22.884868" lon="109.234642">
        <ele>81.944787</ele>
        <time>2026-08-15T02:31:59.000Z</time>
      </trkpt>
      <trkpt lat="22.884899" lon="109.234703">
        <ele>81.912660</ele>
        <time>2026-08-15T02:32:00.000Z</time>
      </trkpt>
      <trkpt lat="22.884929" lon="109.234765">
        <ele>81.880363</ele>
        <time>2026-08-15T02:32:01.000Z</time>
      </trkpt>
      <trkpt lat="22.884959" lon="109.234827">
        <ele>81.848067</ele>
        <time>2026-08-15T02:32:02.000Z</time>
      </trkpt>
      <trkpt lat="22.884986" lon="109.234891">
        <ele>81.815605</ele>
        <time>2026-08-15T02:32:03.000Z</time>
      </trkpt>
      <trkpt lat="22.885012" lon="109.234957">
        <ele>81.782502</ele>
        <time>2026-08-15T02:32:04.000Z</time>
      </trkpt>
      <trkpt lat="22.885035" lon="109.235021">
        <ele>81.750821</ele>
        <time>2026-08-15T02:32:05.000Z</time>
      </trkpt>
      <trkpt lat="22.885056" lon="109.235087">
        <ele>81.718620</ele>
        <time>2026-08-15T02:32:06.000Z</time>
      </trkpt>
      <trkpt lat="22.885074" lon="109.235151">
        <ele>81.687760</ele>
        <time>2026-08-15T02:32:07.000Z</time>
      </trkpt>
      <trkpt lat="22.885089" lon="109.235217">
        <ele>81.656410</ele>
        <time>2026-08-15T02:32:08.000Z</time>
      </trkpt>
      <trkpt lat="22.885102" lon="109.235282">
        <ele>81.625736</ele>
        <time>2026-08-15T02:32:09.000Z</time>
      </trkpt>
      <trkpt lat="22.885111" lon="109.235347">
        <ele>81.595423</ele>
        <time>2026-08-15T02:32:10.000Z</time>
      </trkpt>
      <trkpt lat="22.885116" lon="109.235413">
        <ele>81.564884</ele>
        <time>2026-08-15T02:32:11.000Z</time>
      </trkpt>
      <trkpt lat="22.885120" lon="109.235479">
        <ele>81.534381</ele>
        <time>2026-08-15T02:32:12.000Z</time>
      </trkpt>
      <trkpt lat="22.885123" lon="109.235543">
        <ele>81.504828</ele>
        <time>2026-08-15T02:32:13.000Z</time>
      </trkpt>
      <trkpt lat="22.885127" lon="109.235606">
        <ele>81.475705</ele>
        <time>2026-08-15T02:32:14.000Z</time>
      </trkpt>
      <trkpt lat="22.885128" lon="109.235668">
        <ele>81.447108</ele>
        <time>2026-08-15T02:32:15.000Z</time>
      </trkpt>
      <trkpt lat="22.885128" lon="109.235731">
        <ele>81.418054</ele>
        <time>2026-08-15T02:32:16.000Z</time>
      </trkpt>
      <trkpt lat="22.885127" lon="109.235793">
        <ele>81.389457</ele>
        <time>2026-08-15T02:32:17.000Z</time>
      </trkpt>
      <trkpt lat="22.885126" lon="109.235855">
        <ele>81.360861</ele>
        <time>2026-08-15T02:32:18.000Z</time>
      </trkpt>
      <trkpt lat="22.885127" lon="109.235916">
        <ele>81.332725</ele>
        <time>2026-08-15T02:32:19.000Z</time>
      </trkpt>
      <trkpt lat="22.885128" lon="109.235977">
        <ele>81.304589</ele>
        <time>2026-08-15T02:32:20.000Z</time>
      </trkpt>
      <trkpt lat="22.885129" lon="109.236037">
        <ele>81.276914</ele>
        <time>2026-08-15T02:32:21.000Z</time>
      </trkpt>
      <trkpt lat="22.885131" lon="109.236097">
        <ele>81.249226</ele>
        <time>2026-08-15T02:32:22.000Z</time>
      </trkpt>
      <trkpt lat="22.885132" lon="109.236158">
        <ele>81.221090</ele>
        <time>2026-08-15T02:32:23.000Z</time>
      </trkpt>
      <trkpt lat="22.885132" lon="109.236218">
        <ele>81.193420</ele>
        <time>2026-08-15T02:32:24.000Z</time>
      </trkpt>
      <trkpt lat="22.885129" lon="109.236277">
        <ele>81.166170</ele>
        <time>2026-08-15T02:32:25.000Z</time>
      </trkpt>
      <trkpt lat="22.885124" lon="109.236335">
        <ele>81.135658</ele>
        <time>2026-08-15T02:32:26.000Z</time>
      </trkpt>
      <trkpt lat="22.885121" lon="109.236391">
        <ele>81.105894</ele>
        <time>2026-08-15T02:32:27.000Z</time>
      </trkpt>
      <trkpt lat="22.885120" lon="109.236449">
        <ele>81.075113</ele>
        <time>2026-08-15T02:32:28.000Z</time>
      </trkpt>
      <trkpt lat="22.885119" lon="109.236504">
        <ele>81.045924</ele>
        <time>2026-08-15T02:32:29.000Z</time>
      </trkpt>
      <trkpt lat="22.885119" lon="109.236560">
        <ele>81.016210</ele>
        <time>2026-08-15T02:32:30.000Z</time>
      </trkpt>
      <trkpt lat="22.885118" lon="109.236614">
        <ele>80.987551</ele>
        <time>2026-08-15T02:32:31.000Z</time>
      </trkpt>
      <trkpt lat="22.885119" lon="109.236665">
        <ele>80.960484</ele>
        <time>2026-08-15T02:32:32.000Z</time>
      </trkpt>
      <trkpt lat="22.885120" lon="109.236718">
        <ele>80.932356</ele>
        <time>2026-08-15T02:32:33.000Z</time>
      </trkpt>
      <trkpt lat="22.885119" lon="109.236772">
        <ele>80.903697</ele>
        <time>2026-08-15T02:32:34.000Z</time>
      </trkpt>
      <trkpt lat="22.885118" lon="109.236824">
        <ele>80.876100</ele>
        <time>2026-08-15T02:32:35.000Z</time>
      </trkpt>
      <trkpt lat="22.885116" lon="109.236875">
        <ele>80.849014</ele>
        <time>2026-08-15T02:32:36.000Z</time>
      </trkpt>
      <trkpt lat="22.885115" lon="109.236925">
        <ele>80.822478</ele>
        <time>2026-08-15T02:32:37.000Z</time>
      </trkpt>
      <trkpt lat="22.885116" lon="109.236975">
        <ele>80.795941</ele>
        <time>2026-08-15T02:32:38.000Z</time>
      </trkpt>
      <trkpt lat="22.885118" lon="109.237025">
        <ele>80.769386</ele>
        <time>2026-08-15T02:32:39.000Z</time>
      </trkpt>
      <trkpt lat="22.885120" lon="109.237078">
        <ele>80.741240</ele>
        <time>2026-08-15T02:32:40.000Z</time>
      </trkpt>
      <trkpt lat="22.885123" lon="109.237131">
        <ele>80.713065</ele>
        <time>2026-08-15T02:32:41.000Z</time>
      </trkpt>
      <trkpt lat="22.885129" lon="109.237185">
        <ele>80.684204</ele>
        <time>2026-08-15T02:32:42.000Z</time>
      </trkpt>
      <trkpt lat="22.885136" lon="109.237241">
        <ele>80.654218</ele>
        <time>2026-08-15T02:32:43.000Z</time>
      </trkpt>
      <trkpt lat="22.885146" lon="109.237296">
        <ele>80.624471</ele>
        <time>2026-08-15T02:32:44.000Z</time>
      </trkpt>
      <trkpt lat="22.885157" lon="109.237354">
        <ele>80.593051</ele>
        <time>2026-08-15T02:32:45.000Z</time>
      </trkpt>
      <trkpt lat="22.885170" lon="109.237412">
        <ele>80.561378</ele>
        <time>2026-08-15T02:32:46.000Z</time>
      </trkpt>
      <trkpt lat="22.885183" lon="109.237469">
        <ele>80.530220</ele>
        <time>2026-08-15T02:32:47.000Z</time>
      </trkpt>
      <trkpt lat="22.885198" lon="109.237527">
        <ele>80.498256</ele>
        <time>2026-08-15T02:32:48.000Z</time>
      </trkpt>
      <trkpt lat="22.885216" lon="109.237586">
        <ele>80.465278</ele>
        <time>2026-08-15T02:32:49.000Z</time>
      </trkpt>
      <trkpt lat="22.885234" lon="109.237646">
        <ele>80.431796</ele>
        <time>2026-08-15T02:32:50.000Z</time>
      </trkpt>
      <trkpt lat="22.885253" lon="109.237706">
        <ele>80.398131</ele>
        <time>2026-08-15T02:32:51.000Z</time>
      </trkpt>
      <trkpt lat="22.885272" lon="109.237767">
        <ele>80.363964</ele>
        <time>2026-08-15T02:32:52.000Z</time>
      </trkpt>
      <trkpt lat="22.885293" lon="109.237829">
        <ele>80.328914</ele>
        <time>2026-08-15T02:32:53.000Z</time>
      </trkpt>
      <trkpt lat="22.885313" lon="109.237890">
        <ele>80.294558</ele>
        <time>2026-08-15T02:32:54.000Z</time>
      </trkpt>
      <trkpt lat="22.885335" lon="109.237952">
        <ele>80.259305</ele>
        <time>2026-08-15T02:32:55.000Z</time>
      </trkpt>
      <trkpt lat="22.885356" lon="109.238014">
        <ele>80.224254</ele>
        <time>2026-08-15T02:32:56.000Z</time>
      </trkpt>
      <trkpt lat="22.885377" lon="109.238077">
        <ele>80.188705</ele>
        <time>2026-08-15T02:32:57.000Z</time>
      </trkpt>
      <trkpt lat="22.885398" lon="109.238139">
        <ele>80.153655</ele>
        <time>2026-08-15T02:32:58.000Z</time>
      </trkpt>
      <trkpt lat="22.885420" lon="109.238201">
        <ele>80.113098</ele>
        <time>2026-08-15T02:32:59.000Z</time>
      </trkpt>
      <trkpt lat="22.885443" lon="109.238263">
        <ele>80.057208</ele>
        <time>2026-08-15T02:33:00.000Z</time>
      </trkpt>
      <trkpt lat="22.885466" lon="109.238327">
        <ele>79.999764</ele>
        <time>2026-08-15T02:33:01.000Z</time>
      </trkpt>
      <trkpt lat="22.885489" lon="109.238390">
        <ele>79.943098</ele>
        <time>2026-08-15T02:33:02.000Z</time>
      </trkpt>
      <trkpt lat="22.885513" lon="109.238452">
        <ele>79.886863</ele>
        <time>2026-08-15T02:33:03.000Z</time>
      </trkpt>
      <trkpt lat="22.885536" lon="109.238516">
        <ele>79.829419</ele>
        <time>2026-08-15T02:33:04.000Z</time>
      </trkpt>
      <trkpt lat="22.885557" lon="109.238580">
        <ele>79.772609</ele>
        <time>2026-08-15T02:33:05.000Z</time>
      </trkpt>
      <trkpt lat="22.885578" lon="109.238643">
        <ele>79.716586</ele>
        <time>2026-08-15T02:33:06.000Z</time>
      </trkpt>
      <trkpt lat="22.885600" lon="109.238707">
        <ele>79.659465</ele>
        <time>2026-08-15T02:33:07.000Z</time>
      </trkpt>
      <trkpt lat="22.885622" lon="109.238773">
        <ele>79.600775</ele>
        <time>2026-08-15T02:33:08.000Z</time>
      </trkpt>
      <trkpt lat="22.885645" lon="109.238838">
        <ele>79.542551</ele>
        <time>2026-08-15T02:33:09.000Z</time>
      </trkpt>
      <trkpt lat="22.885665" lon="109.238904">
        <ele>79.484453</ele>
        <time>2026-08-15T02:33:10.000Z</time>
      </trkpt>
      <trkpt lat="22.885684" lon="109.238971">
        <ele>79.425833</ele>
        <time>2026-08-15T02:33:11.000Z</time>
      </trkpt>
      <trkpt lat="22.885700" lon="109.239036">
        <ele>79.369574</ele>
        <time>2026-08-15T02:33:12.000Z</time>
      </trkpt>
      <trkpt lat="22.885716" lon="109.239100">
        <ele>79.314122</ele>
        <time>2026-08-15T02:33:13.000Z</time>
      </trkpt>
      <trkpt lat="22.885731" lon="109.239163">
        <ele>79.259710</ele>
        <time>2026-08-15T02:33:14.000Z</time>
      </trkpt>
      <trkpt lat="22.885746" lon="109.239226">
        <ele>79.205299</ele>
        <time>2026-08-15T02:33:15.000Z</time>
      </trkpt>
      <trkpt lat="22.885762" lon="109.239289">
        <ele>79.150653</ele>
        <time>2026-08-15T02:33:16.000Z</time>
      </trkpt>
      <trkpt lat="22.885777" lon="109.239352">
        <ele>79.096242</ele>
        <time>2026-08-15T02:33:17.000Z</time>
      </trkpt>
      <trkpt lat="22.885792" lon="109.239416">
        <ele>79.041021</ele>
        <time>2026-08-15T02:33:18.000Z</time>
      </trkpt>
      <trkpt lat="22.885806" lon="109.239479">
        <ele>78.986829</ele>
        <time>2026-08-15T02:33:19.000Z</time>
      </trkpt>
      <trkpt lat="22.885817" lon="109.239541">
        <ele>78.934032</ele>
        <time>2026-08-15T02:33:20.000Z</time>
      </trkpt>
      <trkpt lat="22.885829" lon="109.239603">
        <ele>78.881056</ele>
        <time>2026-08-15T02:33:21.000Z</time>
      </trkpt>
      <trkpt lat="22.885843" lon="109.239665">
        <ele>78.827677</ele>
        <time>2026-08-15T02:33:22.000Z</time>
      </trkpt>
      <trkpt lat="22.885857" lon="109.239725">
        <ele>78.775921</ele>
        <time>2026-08-15T02:33:23.000Z</time>
      </trkpt>
      <trkpt lat="22.885870" lon="109.239786">
        <ele>78.723566</ele>
        <time>2026-08-15T02:33:24.000Z</time>
      </trkpt>
      <trkpt lat="22.885882" lon="109.239845">
        <ele>78.673043</ele>
        <time>2026-08-15T02:33:25.000Z</time>
      </trkpt>
      <trkpt lat="22.885894" lon="109.239905">
        <ele>78.621702</ele>
        <time>2026-08-15T02:33:26.000Z</time>
      </trkpt>
      <trkpt lat="22.885907" lon="109.239966">
        <ele>78.569347</ele>
        <time>2026-08-15T02:33:27.000Z</time>
      </trkpt>
      <trkpt lat="22.885919" lon="109.240028">
        <ele>78.516371</ele>
        <time>2026-08-15T02:33:28.000Z</time>
      </trkpt>
      <trkpt lat="22.885932" lon="109.240091">
        <ele>78.437088</ele>
        <time>2026-08-15T02:33:29.000Z</time>
      </trkpt>
      <trkpt lat="22.885945" lon="109.240155">
        <ele>78.339879</ele>
        <time>2026-08-15T02:33:30.000Z</time>
      </trkpt>
      <trkpt lat="22.885957" lon="109.240217">
        <ele>78.245909</ele>
        <time>2026-08-15T02:33:31.000Z</time>
      </trkpt>
      <trkpt lat="22.885971" lon="109.240281">
        <ele>78.148341</ele>
        <time>2026-08-15T02:33:32.000Z</time>
      </trkpt>
      <trkpt lat="22.885984" lon="109.240344">
        <ele>78.052580</ele>
        <time>2026-08-15T02:33:33.000Z</time>
      </trkpt>
      <trkpt lat="22.885997" lon="109.240409">
        <ele>77.953922</ele>
        <time>2026-08-15T02:33:34.000Z</time>
      </trkpt>
      <trkpt lat="22.886010" lon="109.240474">
        <ele>77.855265</ele>
        <time>2026-08-15T02:33:35.000Z</time>
      </trkpt>
      <trkpt lat="22.886025" lon="109.240539">
        <ele>77.755874</ele>
        <time>2026-08-15T02:33:36.000Z</time>
      </trkpt>
      <trkpt lat="22.886041" lon="109.240605">
        <ele>77.654646</ele>
        <time>2026-08-15T02:33:37.000Z</time>
      </trkpt>
      <trkpt lat="22.886057" lon="109.240670">
        <ele>77.554852</ele>
        <time>2026-08-15T02:33:38.000Z</time>
      </trkpt>
      <trkpt lat="22.886077" lon="109.240737">
        <ele>77.450387</ele>
        <time>2026-08-15T02:33:39.000Z</time>
      </trkpt>
      <trkpt lat="22.886100" lon="109.240805">
        <ele>77.342942</ele>
        <time>2026-08-15T02:33:40.000Z</time>
      </trkpt>
      <trkpt lat="22.886124" lon="109.240873">
        <ele>77.234933</ele>
        <time>2026-08-15T02:33:41.000Z</time>
      </trkpt>
      <trkpt lat="22.886151" lon="109.240941">
        <ele>77.125102</ele>
        <time>2026-08-15T02:33:42.000Z</time>
      </trkpt>
      <trkpt lat="22.886182" lon="109.241011">
        <ele>77.009901</ele>
        <time>2026-08-15T02:33:43.000Z</time>
      </trkpt>
      <trkpt lat="22.886214" lon="109.241079">
        <ele>76.896643</ele>
        <time>2026-08-15T02:33:44.000Z</time>
      </trkpt>
      <trkpt lat="22.886246" lon="109.241148">
        <ele>76.782062</ele>
        <time>2026-08-15T02:33:45.000Z</time>
      </trkpt>
      <trkpt lat="22.886280" lon="109.241216">
        <ele>76.667303</ele>
        <time>2026-08-15T02:33:46.000Z</time>
      </trkpt>
      <trkpt lat="22.886314" lon="109.241285">
        <ele>76.551238</ele>
        <time>2026-08-15T02:33:47.000Z</time>
      </trkpt>
      <trkpt lat="22.886348" lon="109.241353">
        <ele>76.436480</ele>
        <time>2026-08-15T02:33:48.000Z</time>
      </trkpt>
      <trkpt lat="22.886383" lon="109.241421">
        <ele>76.320945</ele>
        <time>2026-08-15T02:33:49.000Z</time>
      </trkpt>
      <trkpt lat="22.886416" lon="109.241491">
        <ele>76.204312</ele>
        <time>2026-08-15T02:33:50.000Z</time>
      </trkpt>
      <trkpt lat="22.886451" lon="109.241560">
        <ele>76.087480</ele>
        <time>2026-08-15T02:33:51.000Z</time>
      </trkpt>
      <trkpt lat="22.886486" lon="109.241629">
        <ele>75.970648</ele>
        <time>2026-08-15T02:33:52.000Z</time>
      </trkpt>
      <trkpt lat="22.886518" lon="109.241697">
        <ele>75.857390</ele>
        <time>2026-08-15T02:33:53.000Z</time>
      </trkpt>
      <trkpt lat="22.886548" lon="109.241764">
        <ele>75.746896</ele>
        <time>2026-08-15T02:33:54.000Z</time>
      </trkpt>
      <trkpt lat="22.886576" lon="109.241831">
        <ele>75.637771</ele>
        <time>2026-08-15T02:33:55.000Z</time>
      </trkpt>
      <trkpt lat="22.886603" lon="109.241898">
        <ele>75.585858</ele>
        <time>2026-08-15T02:33:56.000Z</time>
      </trkpt>
      <trkpt lat="22.886629" lon="109.241965">
        <ele>75.565203</ele>
        <time>2026-08-15T02:33:57.000Z</time>
      </trkpt>
      <trkpt lat="22.886653" lon="109.242032">
        <ele>75.544778</ele>
        <time>2026-08-15T02:33:58.000Z</time>
      </trkpt>
      <trkpt lat="22.886675" lon="109.242099">
        <ele>75.524570</ele>
        <time>2026-08-15T02:33:59.000Z</time>
      </trkpt>
      <trkpt lat="22.886693" lon="109.242165">
        <ele>75.505014</ele>
        <time>2026-08-15T02:34:00.000Z</time>
      </trkpt>
      <trkpt lat="22.886710" lon="109.242230">
        <ele>75.485816</ele>
        <time>2026-08-15T02:34:01.000Z</time>
      </trkpt>
      <trkpt lat="22.886728" lon="109.242294">
        <ele>75.466804</ele>
        <time>2026-08-15T02:34:02.000Z</time>
      </trkpt>
      <trkpt lat="22.886745" lon="109.242356">
        <ele>75.448425</ele>
        <time>2026-08-15T02:34:03.000Z</time>
      </trkpt>
      <trkpt lat="22.886763" lon="109.242419">
        <ele>75.429685</ele>
        <time>2026-08-15T02:34:04.000Z</time>
      </trkpt>
      <trkpt lat="22.886781" lon="109.242482">
        <ele>75.410945</ele>
        <time>2026-08-15T02:34:05.000Z</time>
      </trkpt>
      <trkpt lat="22.886800" lon="109.242543">
        <ele>75.392650</ele>
        <time>2026-08-15T02:34:06.000Z</time>
      </trkpt>
      <trkpt lat="22.886817" lon="109.242604">
        <ele>75.374543</ele>
        <time>2026-08-15T02:34:07.000Z</time>
      </trkpt>
      <trkpt lat="22.886833" lon="109.242665">
        <ele>75.356523</ele>
        <time>2026-08-15T02:34:08.000Z</time>
      </trkpt>
      <trkpt lat="22.886850" lon="109.242725">
        <ele>75.338688</ele>
        <time>2026-08-15T02:34:09.000Z</time>
      </trkpt>
      <trkpt lat="22.886866" lon="109.242785">
        <ele>75.320941</ele>
        <time>2026-08-15T02:34:10.000Z</time>
      </trkpt>
      <trkpt lat="22.886884" lon="109.242846">
        <ele>75.302743</ele>
        <time>2026-08-15T02:34:11.000Z</time>
      </trkpt>
      <trkpt lat="22.886902" lon="109.242905">
        <ele>75.285085</ele>
        <time>2026-08-15T02:34:12.000Z</time>
      </trkpt>
      <trkpt lat="22.886918" lon="109.242964">
        <ele>75.267611</ele>
        <time>2026-08-15T02:34:13.000Z</time>
      </trkpt>
      <trkpt lat="22.886934" lon="109.243022">
        <ele>75.250409</ele>
        <time>2026-08-15T02:34:14.000Z</time>
      </trkpt>
      <trkpt lat="22.886949" lon="109.243078">
        <ele>75.233840</ele>
        <time>2026-08-15T02:34:15.000Z</time>
      </trkpt>
      <trkpt lat="22.886965" lon="109.243134">
        <ele>75.217182</ele>
        <time>2026-08-15T02:34:16.000Z</time>
      </trkpt>
      <trkpt lat="22.886979" lon="109.243189">
        <ele>75.200970</ele>
        <time>2026-08-15T02:34:17.000Z</time>
      </trkpt>
      <trkpt lat="22.886993" lon="109.243244">
        <ele>75.184758</ele>
        <time>2026-08-15T02:34:18.000Z</time>
      </trkpt>
      <trkpt lat="22.887008" lon="109.243298">
        <ele>75.168733</ele>
        <time>2026-08-15T02:34:19.000Z</time>
      </trkpt>
      <trkpt lat="22.887023" lon="109.243354">
        <ele>75.152164</ele>
        <time>2026-08-15T02:34:20.000Z</time>
      </trkpt>
      <trkpt lat="22.887039" lon="109.243410">
        <ele>75.135506</ele>
        <time>2026-08-15T02:34:21.000Z</time>
      </trkpt>
      <trkpt lat="22.887054" lon="109.243466">
        <ele>75.118937</ele>
        <time>2026-08-15T02:34:22.000Z</time>
      </trkpt>
      <trkpt lat="22.887070" lon="109.243521">
        <ele>75.102550</ele>
        <time>2026-08-15T02:34:23.000Z</time>
      </trkpt>
      <trkpt lat="22.887083" lon="109.243577">
        <ele>75.086142</ele>
        <time>2026-08-15T02:34:24.000Z</time>
      </trkpt>
      <trkpt lat="22.887096" lon="109.243632">
        <ele>75.070009</ele>
        <time>2026-08-15T02:34:25.000Z</time>
      </trkpt>
      <trkpt lat="22.887110" lon="109.243689">
        <ele>75.053249</ele>
        <time>2026-08-15T02:34:26.000Z</time>
      </trkpt>
      <trkpt lat="22.887121" lon="109.243746">
        <ele>75.048932</ele>
        <time>2026-08-15T02:34:27.000Z</time>
      </trkpt>
      <trkpt lat="22.887132" lon="109.243803">
        <ele>75.058119</ele>
        <time>2026-08-15T02:34:28.000Z</time>
      </trkpt>
      <trkpt lat="22.887144" lon="109.243860">
        <ele>75.067344</ele>
        <time>2026-08-15T02:34:29.000Z</time>
      </trkpt>
      <trkpt lat="22.887157" lon="109.243918">
        <ele>75.076761</ele>
        <time>2026-08-15T02:34:30.000Z</time>
      </trkpt>
      <trkpt lat="22.887170" lon="109.243976">
        <ele>75.086178</ele>
        <time>2026-08-15T02:34:31.000Z</time>
      </trkpt>
      <trkpt lat="22.887180" lon="109.244033">
        <ele>75.095332</ele>
        <time>2026-08-15T02:34:32.000Z</time>
      </trkpt>
      <trkpt lat="22.887191" lon="109.244092">
        <ele>75.104829</ele>
        <time>2026-08-15T02:34:33.000Z</time>
      </trkpt>
      <trkpt lat="22.887201" lon="109.244148">
        <ele>75.113828</ele>
        <time>2026-08-15T02:34:34.000Z</time>
      </trkpt>
      <trkpt lat="22.887210" lon="109.244202">
        <ele>75.122486</ele>
        <time>2026-08-15T02:34:35.000Z</time>
      </trkpt>
      <trkpt lat="22.887222" lon="109.244256">
        <ele>75.131249</ele>
        <time>2026-08-15T02:34:36.000Z</time>
      </trkpt>
      <trkpt lat="22.887233" lon="109.244311">
        <ele>75.140128</ele>
        <time>2026-08-15T02:34:37.000Z</time>
      </trkpt>
      <trkpt lat="22.887243" lon="109.244364">
        <ele>75.148663</ele>
        <time>2026-08-15T02:34:38.000Z</time>
      </trkpt>
      <trkpt lat="22.887255" lon="109.244419">
        <ele>75.157580</ele>
        <time>2026-08-15T02:34:39.000Z</time>
      </trkpt>
      <trkpt lat="22.887265" lon="109.244476">
        <ele>75.166735</ele>
        <time>2026-08-15T02:34:40.000Z</time>
      </trkpt>
      <trkpt lat="22.887278" lon="109.244533">
        <ele>75.175998</ele>
        <time>2026-08-15T02:34:41.000Z</time>
      </trkpt>
      <trkpt lat="22.887292" lon="109.244591">
        <ele>75.185458</ele>
        <time>2026-08-15T02:34:42.000Z</time>
      </trkpt>
      <trkpt lat="22.887307" lon="109.244649">
        <ele>75.194962</ele>
        <time>2026-08-15T02:34:43.000Z</time>
      </trkpt>
      <trkpt lat="22.887325" lon="109.244707">
        <ele>75.204617</ele>
        <time>2026-08-15T02:34:44.000Z</time>
      </trkpt>
      <trkpt lat="22.887343" lon="109.244764">
        <ele>75.214123</ele>
        <time>2026-08-15T02:34:45.000Z</time>
      </trkpt>
      <trkpt lat="22.887363" lon="109.244821">
        <ele>75.223746</ele>
        <time>2026-08-15T02:34:46.000Z</time>
      </trkpt>
      <trkpt lat="22.887384" lon="109.244878">
        <ele>75.233431</ele>
        <time>2026-08-15T02:34:47.000Z</time>
      </trkpt>
      <trkpt lat="22.887406" lon="109.244935">
        <ele>75.243181</ele>
        <time>2026-08-15T02:34:48.000Z</time>
      </trkpt>
      <trkpt lat="22.887429" lon="109.244992">
        <ele>75.252998</ele>
        <time>2026-08-15T02:34:49.000Z</time>
      </trkpt>
      <trkpt lat="22.887453" lon="109.245046">
        <ele>75.262457</ele>
        <time>2026-08-15T02:34:50.000Z</time>
      </trkpt>
      <trkpt lat="22.887480" lon="109.245100">
        <ele>75.272150</ele>
        <time>2026-08-15T02:34:51.000Z</time>
      </trkpt>
      <trkpt lat="22.887509" lon="109.245154">
        <ele>75.282011</ele>
        <time>2026-08-15T02:34:52.000Z</time>
      </trkpt>
      <trkpt lat="22.887540" lon="109.245207">
        <ele>75.291915</ele>
        <time>2026-08-15T02:34:53.000Z</time>
      </trkpt>
      <trkpt lat="22.887571" lon="109.245261">
        <ele>75.301953</ele>
        <time>2026-08-15T02:34:54.000Z</time>
      </trkpt>
      <trkpt lat="22.887604" lon="109.245311">
        <ele>75.311656</ele>
        <time>2026-08-15T02:34:55.000Z</time>
      </trkpt>
      <trkpt lat="22.887639" lon="109.245360">
        <ele>75.321438</ele>
        <time>2026-08-15T02:34:56.000Z</time>
      </trkpt>
      <trkpt lat="22.887673" lon="109.245407">
        <ele>75.330866</ele>
        <time>2026-08-15T02:34:57.000Z</time>
      </trkpt>
      <trkpt lat="22.887709" lon="109.245455">
        <ele>75.340630</ele>
        <time>2026-08-15T02:34:58.000Z</time>
      </trkpt>
      <trkpt lat="22.887745" lon="109.245502">
        <ele>75.350273</ele>
        <time>2026-08-15T02:34:59.000Z</time>
      </trkpt>
      <trkpt lat="22.887782" lon="109.245548">
        <ele>75.340197</ele>
        <time>2026-08-15T02:35:00.000Z</time>
      </trkpt>
      <trkpt lat="22.887818" lon="109.245593">
        <ele>75.324325</ele>
        <time>2026-08-15T02:35:01.000Z</time>
      </trkpt>
      <trkpt lat="22.887856" lon="109.245636">
        <ele>75.308457</ele>
        <time>2026-08-15T02:35:02.000Z</time>
      </trkpt>
      <trkpt lat="22.887896" lon="109.245681">
        <ele>75.291804</ele>
        <time>2026-08-15T02:35:03.000Z</time>
      </trkpt>
      <trkpt lat="22.887938" lon="109.245724">
        <ele>75.275114</ele>
        <time>2026-08-15T02:35:04.000Z</time>
      </trkpt>
      <trkpt lat="22.887979" lon="109.245767">
        <ele>75.258633</ele>
        <time>2026-08-15T02:35:05.000Z</time>
      </trkpt>
      <trkpt lat="22.888020" lon="109.245810">
        <ele>75.242153</ele>
        <time>2026-08-15T02:35:06.000Z</time>
      </trkpt>
      <trkpt lat="22.888062" lon="109.245854">
        <ele>75.225279</ele>
        <time>2026-08-15T02:35:07.000Z</time>
      </trkpt>
      <trkpt lat="22.888104" lon="109.245897">
        <ele>75.208589</ele>
        <time>2026-08-15T02:35:08.000Z</time>
      </trkpt>
      <trkpt lat="22.888148" lon="109.245942">
        <ele>75.191113</ele>
        <time>2026-08-15T02:35:09.000Z</time>
      </trkpt>
      <trkpt lat="22.888191" lon="109.245987">
        <ele>75.173847</ele>
        <time>2026-08-15T02:35:10.000Z</time>
      </trkpt>
      <trkpt lat="22.888234" lon="109.246032">
        <ele>75.156580</ele>
        <time>2026-08-15T02:35:11.000Z</time>
      </trkpt>
      <trkpt lat="22.888278" lon="109.246078">
        <ele>75.138921</ele>
        <time>2026-08-15T02:35:12.000Z</time>
      </trkpt>
      <trkpt lat="22.888322" lon="109.246123">
        <ele>75.121445</ele>
        <time>2026-08-15T02:35:13.000Z</time>
      </trkpt>
      <trkpt lat="22.888366" lon="109.246169">
        <ele>75.103785</ele>
        <time>2026-08-15T02:35:14.000Z</time>
      </trkpt>
      <trkpt lat="22.888411" lon="109.246214">
        <ele>75.086098</ele>
        <time>2026-08-15T02:35:15.000Z</time>
      </trkpt>
      <trkpt lat="22.888456" lon="109.246259">
        <ele>75.068411</ele>
        <time>2026-08-15T02:35:16.000Z</time>
      </trkpt>
      <trkpt lat="22.888501" lon="109.246304">
        <ele>75.050723</ele>
        <time>2026-08-15T02:35:17.000Z</time>
      </trkpt>
      <trkpt lat="22.888546" lon="109.246350">
        <ele>75.032855</ele>
        <time>2026-08-15T02:35:18.000Z</time>
      </trkpt>
      <trkpt lat="22.888592" lon="109.246397">
        <ele>75.014593</ele>
        <time>2026-08-15T02:35:19.000Z</time>
      </trkpt>
      <trkpt lat="22.888636" lon="109.246444">
        <ele>74.996747</ele>
        <time>2026-08-15T02:35:20.000Z</time>
      </trkpt>
      <trkpt lat="22.888681" lon="109.246491">
        <ele>74.978695</ele>
        <time>2026-08-15T02:35:21.000Z</time>
      </trkpt>
      <trkpt lat="22.888725" lon="109.246537">
        <ele>74.961036</ele>
        <time>2026-08-15T02:35:22.000Z</time>
      </trkpt>
      <trkpt lat="22.888768" lon="109.246583">
        <ele>74.943583</ele>
        <time>2026-08-15T02:35:23.000Z</time>
      </trkpt>
      <trkpt lat="22.888813" lon="109.246629">
        <ele>74.925714</ele>
        <time>2026-08-15T02:35:24.000Z</time>
      </trkpt>
      <trkpt lat="22.888857" lon="109.246677">
        <ele>74.907681</ele>
        <time>2026-08-15T02:35:25.000Z</time>
      </trkpt>
      <trkpt lat="22.888902" lon="109.246724">
        <ele>74.889629</ele>
        <time>2026-08-15T02:35:26.000Z</time>
      </trkpt>
      <trkpt lat="22.888947" lon="109.246772">
        <ele>74.871391</ele>
        <time>2026-08-15T02:35:27.000Z</time>
      </trkpt>
      <trkpt lat="22.888993" lon="109.246819">
        <ele>74.853129</ele>
        <time>2026-08-15T02:35:28.000Z</time>
      </trkpt>
      <trkpt lat="22.889038" lon="109.246867">
        <ele>74.834891</ele>
        <time>2026-08-15T02:35:29.000Z</time>
      </trkpt>
      <trkpt lat="22.889083" lon="109.246913">
        <ele>74.832653</ele>
        <time>2026-08-15T02:35:30.000Z</time>
      </trkpt>
      <trkpt lat="22.889130" lon="109.246958">
        <ele>74.832681</ele>
        <time>2026-08-15T02:35:31.000Z</time>
      </trkpt>
      <trkpt lat="22.889179" lon="109.247004">
        <ele>74.832709</ele>
        <time>2026-08-15T02:35:32.000Z</time>
      </trkpt>
      <trkpt lat="22.889226" lon="109.247051">
        <ele>74.832738</ele>
        <time>2026-08-15T02:35:33.000Z</time>
      </trkpt>
      <trkpt lat="22.889271" lon="109.247098">
        <ele>74.832765</ele>
        <time>2026-08-15T02:35:34.000Z</time>
      </trkpt>
      <trkpt lat="22.889319" lon="109.247146">
        <ele>74.832794</ele>
        <time>2026-08-15T02:35:35.000Z</time>
      </trkpt>
      <trkpt lat="22.889366" lon="109.247195">
        <ele>74.832823</ele>
        <time>2026-08-15T02:35:36.000Z</time>
      </trkpt>
      <trkpt lat="22.889412" lon="109.247242">
        <ele>74.832851</ele>
        <time>2026-08-15T02:35:37.000Z</time>
      </trkpt>
      <trkpt lat="22.889458" lon="109.247288">
        <ele>74.832879</ele>
        <time>2026-08-15T02:35:38.000Z</time>
      </trkpt>
      <trkpt lat="22.889503" lon="109.247334">
        <ele>74.832906</ele>
        <time>2026-08-15T02:35:39.000Z</time>
      </trkpt>
      <trkpt lat="22.889547" lon="109.247380">
        <ele>74.832933</ele>
        <time>2026-08-15T02:35:40.000Z</time>
      </trkpt>
      <trkpt lat="22.889592" lon="109.247427">
        <ele>74.832961</ele>
        <time>2026-08-15T02:35:41.000Z</time>
      </trkpt>
      <trkpt lat="22.889637" lon="109.247473">
        <ele>74.832988</ele>
        <time>2026-08-15T02:35:42.000Z</time>
      </trkpt>
      <trkpt lat="22.889681" lon="109.247519">
        <ele>74.833015</ele>
        <time>2026-08-15T02:35:43.000Z</time>
      </trkpt>
      <trkpt lat="22.889724" lon="109.247565">
        <ele>74.833042</ele>
        <time>2026-08-15T02:35:44.000Z</time>
      </trkpt>
      <trkpt lat="22.889767" lon="109.247609">
        <ele>74.833068</ele>
        <time>2026-08-15T02:35:45.000Z</time>
      </trkpt>
      <trkpt lat="22.889810" lon="109.247652">
        <ele>74.833094</ele>
        <time>2026-08-15T02:35:46.000Z</time>
      </trkpt>
      <trkpt lat="22.889853" lon="109.247697">
        <ele>74.833120</ele>
        <time>2026-08-15T02:35:47.000Z</time>
      </trkpt>
      <trkpt lat="22.889895" lon="109.247742">
        <ele>74.833147</ele>
        <time>2026-08-15T02:35:48.000Z</time>
      </trkpt>
      <trkpt lat="22.889939" lon="109.247787">
        <ele>74.833173</ele>
        <time>2026-08-15T02:35:49.000Z</time>
      </trkpt>
      <trkpt lat="22.889981" lon="109.247830">
        <ele>74.833199</ele>
        <time>2026-08-15T02:35:50.000Z</time>
      </trkpt>
      <trkpt lat="22.890023" lon="109.247873">
        <ele>74.833224</ele>
        <time>2026-08-15T02:35:51.000Z</time>
      </trkpt>
      <trkpt lat="22.890062" lon="109.247915">
        <ele>74.833249</ele>
        <time>2026-08-15T02:35:52.000Z</time>
      </trkpt>
      <trkpt lat="22.890103" lon="109.247959">
        <ele>74.833274</ele>
        <time>2026-08-15T02:35:53.000Z</time>
      </trkpt>
      <trkpt lat="22.890143" lon="109.248004">
        <ele>74.833300</ele>
        <time>2026-08-15T02:35:54.000Z</time>
      </trkpt>
      <trkpt lat="22.890184" lon="109.248049">
        <ele>74.833326</ele>
        <time>2026-08-15T02:35:55.000Z</time>
      </trkpt>
      <trkpt lat="22.890225" lon="109.248096">
        <ele>74.833352</ele>
        <time>2026-08-15T02:35:56.000Z</time>
      </trkpt>
      <trkpt lat="22.890266" lon="109.248142">
        <ele>74.833378</ele>
        <time>2026-08-15T02:35:57.000Z</time>
      </trkpt>
      <trkpt lat="22.890306" lon="109.248188">
        <ele>74.833404</ele>
        <time>2026-08-15T02:35:58.000Z</time>
      </trkpt>
      <trkpt lat="22.890347" lon="109.248233">
        <ele>74.824105</ele>
        <time>2026-08-15T02:35:59.000Z</time>
      </trkpt>
      <trkpt lat="22.890389" lon="109.248279">
        <ele>74.767572</ele>
        <time>2026-08-15T02:36:00.000Z</time>
      </trkpt>
      <trkpt lat="22.890428" lon="109.248327">
        <ele>74.711706</ele>
        <time>2026-08-15T02:36:01.000Z</time>
      </trkpt>
      <trkpt lat="22.890465" lon="109.248376">
        <ele>74.656402</ele>
        <time>2026-08-15T02:36:02.000Z</time>
      </trkpt>
      <trkpt lat="22.890501" lon="109.248424">
        <ele>74.602374</ele>
        <time>2026-08-15T02:36:03.000Z</time>
      </trkpt>
      <trkpt lat="22.890535" lon="109.248473">
        <ele>74.548828</ele>
        <time>2026-08-15T02:36:04.000Z</time>
      </trkpt>
      <trkpt lat="22.890570" lon="109.248523">
        <ele>74.494013</ele>
        <time>2026-08-15T02:36:05.000Z</time>
      </trkpt>
      <trkpt lat="22.890606" lon="109.248572">
        <ele>74.439305</ele>
        <time>2026-08-15T02:36:06.000Z</time>
      </trkpt>
      <trkpt lat="22.890643" lon="109.248619">
        <ele>74.385340</ele>
        <time>2026-08-15T02:36:07.000Z</time>
      </trkpt>
      <trkpt lat="22.890679" lon="109.248668">
        <ele>74.330633</ele>
        <time>2026-08-15T02:36:08.000Z</time>
      </trkpt>
      <trkpt lat="22.890717" lon="109.248716">
        <ele>74.275389</ele>
        <time>2026-08-15T02:36:09.000Z</time>
      </trkpt>
      <trkpt lat="22.890757" lon="109.248764">
        <ele>74.218891</ele>
        <time>2026-08-15T02:36:10.000Z</time>
      </trkpt>
      <trkpt lat="22.890798" lon="109.248813">
        <ele>74.161111</ele>
        <time>2026-08-15T02:36:11.000Z</time>
      </trkpt>
      <trkpt lat="22.890840" lon="109.248862">
        <ele>74.102689</ele>
        <time>2026-08-15T02:36:12.000Z</time>
      </trkpt>
      <trkpt lat="22.890883" lon="109.248913">
        <ele>74.042342</ele>
        <time>2026-08-15T02:36:13.000Z</time>
      </trkpt>
      <trkpt lat="22.890927" lon="109.248965">
        <ele>73.980711</ele>
        <time>2026-08-15T02:36:14.000Z</time>
      </trkpt>
      <trkpt lat="22.890972" lon="109.249018">
        <ele>73.917796</ele>
        <time>2026-08-15T02:36:15.000Z</time>
      </trkpt>
      <trkpt lat="22.891016" lon="109.249073">
        <ele>73.854212</ele>
        <time>2026-08-15T02:36:16.000Z</time>
      </trkpt>
      <trkpt lat="22.891065" lon="109.249128">
        <ele>73.787425</ele>
        <time>2026-08-15T02:36:17.000Z</time>
      </trkpt>
      <trkpt lat="22.891116" lon="109.249185">
        <ele>73.718066</ele>
        <time>2026-08-15T02:36:18.000Z</time>
      </trkpt>
      <trkpt lat="22.891167" lon="109.249242">
        <ele>73.648708</ele>
        <time>2026-08-15T02:36:19.000Z</time>
      </trkpt>
      <trkpt lat="22.891217" lon="109.249298">
        <ele>73.580635</ele>
        <time>2026-08-15T02:36:20.000Z</time>
      </trkpt>
      <trkpt lat="22.891264" lon="109.249353">
        <ele>73.515152</ele>
        <time>2026-08-15T02:36:21.000Z</time>
      </trkpt>
      <trkpt lat="22.891309" lon="109.249409">
        <ele>73.450287</ele>
        <time>2026-08-15T02:36:22.000Z</time>
      </trkpt>
      <trkpt lat="22.891354" lon="109.249465">
        <ele>73.385422</ele>
        <time>2026-08-15T02:36:23.000Z</time>
      </trkpt>
      <trkpt lat="22.891399" lon="109.249521">
        <ele>73.320558</ele>
        <time>2026-08-15T02:36:24.000Z</time>
      </trkpt>
      <trkpt lat="22.891445" lon="109.249577">
        <ele>73.255066</ele>
        <time>2026-08-15T02:36:25.000Z</time>
      </trkpt>
      <trkpt lat="22.891491" lon="109.249631">
        <ele>73.190868</ele>
        <time>2026-08-15T02:36:26.000Z</time>
      </trkpt>
      <trkpt lat="22.891536" lon="109.249687">
        <ele>73.128842</ele>
        <time>2026-08-15T02:36:27.000Z</time>
      </trkpt>
      <trkpt lat="22.891582" lon="109.249744">
        <ele>73.121593</ele>
        <time>2026-08-15T02:36:28.000Z</time>
      </trkpt>
      <trkpt lat="22.891626" lon="109.249799">
        <ele>73.114624</ele>
        <time>2026-08-15T02:36:29.000Z</time>
      </trkpt>
      <trkpt lat="22.891670" lon="109.249855">
        <ele>73.107583</ele>
        <time>2026-08-15T02:36:30.000Z</time>
      </trkpt>
      <trkpt lat="22.891713" lon="109.249908">
        <ele>73.100827</ele>
        <time>2026-08-15T02:36:31.000Z</time>
      </trkpt>
      <trkpt lat="22.891756" lon="109.249960">
        <ele>73.094142</ele>
        <time>2026-08-15T02:36:32.000Z</time>
      </trkpt>
      <trkpt lat="22.891798" lon="109.250011">
        <ele>73.087598</ele>
        <time>2026-08-15T02:36:33.000Z</time>
      </trkpt>
      <trkpt lat="22.891838" lon="109.250062">
        <ele>73.081190</ele>
        <time>2026-08-15T02:36:34.000Z</time>
      </trkpt>
      <trkpt lat="22.891878" lon="109.250113">
        <ele>73.074783</ele>
        <time>2026-08-15T02:36:35.000Z</time>
      </trkpt>
      <trkpt lat="22.891922" lon="109.250158">
        <ele>73.068505</ele>
        <time>2026-08-15T02:36:36.000Z</time>
      </trkpt>
      <trkpt lat="22.891963" lon="109.250202">
        <ele>73.062518</ele>
        <time>2026-08-15T02:36:37.000Z</time>
      </trkpt>
      <trkpt lat="22.892001" lon="109.250250">
        <ele>73.056463</ele>
        <time>2026-08-15T02:36:38.000Z</time>
      </trkpt>
      <trkpt lat="22.892039" lon="109.250297">
        <ele>73.050481</ele>
        <time>2026-08-15T02:36:39.000Z</time>
      </trkpt>
      <trkpt lat="22.892077" lon="109.250342">
        <ele>73.044641</ele>
        <time>2026-08-15T02:36:40.000Z</time>
      </trkpt>
      <trkpt lat="22.892117" lon="109.250387">
        <ele>73.038659</ele>
        <time>2026-08-15T02:36:41.000Z</time>
      </trkpt>
      <trkpt lat="22.892156" lon="109.250432">
        <ele>73.032748</ele>
        <time>2026-08-15T02:36:42.000Z</time>
      </trkpt>
      <trkpt lat="22.892194" lon="109.250473">
        <ele>73.027185</ele>
        <time>2026-08-15T02:36:43.000Z</time>
      </trkpt>
      <trkpt lat="22.892233" lon="109.250516">
        <ele>73.021412</ele>
        <time>2026-08-15T02:36:44.000Z</time>
      </trkpt>
      <trkpt lat="22.892276" lon="109.250559">
        <ele>73.015341</ele>
        <time>2026-08-15T02:36:45.000Z</time>
      </trkpt>
      <trkpt lat="22.892321" lon="109.250601">
        <ele>73.009178</ele>
        <time>2026-08-15T02:36:46.000Z</time>
      </trkpt>
      <trkpt lat="22.892365" lon="109.250645">
        <ele>73.002965</ele>
        <time>2026-08-15T02:36:47.000Z</time>
      </trkpt>
      <trkpt lat="22.892403" lon="109.250697">
        <ele>72.996616</ele>
        <time>2026-08-15T02:36:48.000Z</time>
      </trkpt>
      <trkpt lat="22.892448" lon="109.250739">
        <ele>72.990453</ele>
        <time>2026-08-15T02:36:49.000Z</time>
      </trkpt>
      <trkpt lat="22.892489" lon="109.250787">
        <ele>72.984191</ele>
        <time>2026-08-15T02:36:50.000Z</time>
      </trkpt>
      <trkpt lat="22.892533" lon="109.250833">
        <ele>72.977847</ele>
        <time>2026-08-15T02:36:51.000Z</time>
      </trkpt>
      <trkpt lat="22.892581" lon="109.250873">
        <ele>72.971563</ele>
        <time>2026-08-15T02:36:52.000Z</time>
      </trkpt>
      <trkpt lat="22.892631" lon="109.250912">
        <ele>72.965169</ele>
        <time>2026-08-15T02:36:53.000Z</time>
      </trkpt>
      <trkpt lat="22.892681" lon="109.250950">
        <ele>72.958831</ele>
        <time>2026-08-15T02:36:54.000Z</time>
      </trkpt>
      <trkpt lat="22.892729" lon="109.250994">
        <ele>72.952307</ele>
        <time>2026-08-15T02:36:55.000Z</time>
      </trkpt>
      <trkpt lat="22.892777" lon="109.251038">
        <ele>72.945783</ele>
        <time>2026-08-15T02:36:56.000Z</time>
      </trkpt>
      <trkpt lat="22.892828" lon="109.251079">
        <ele>72.940708</ele>
        <time>2026-08-15T02:36:57.000Z</time>
      </trkpt>
      <trkpt lat="22.892877" lon="109.251118">
        <ele>72.937369</ele>
        <time>2026-08-15T02:36:58.000Z</time>
      </trkpt>
      <trkpt lat="22.892925" lon="109.251154">
        <ele>72.934162</ele>
        <time>2026-08-15T02:36:59.000Z</time>
      </trkpt>
      <trkpt lat="22.892974" lon="109.251193">
        <ele>72.930823</ele>
        <time>2026-08-15T02:37:00.000Z</time>
      </trkpt>
      <trkpt lat="22.893025" lon="109.251232">
        <ele>72.927394</ele>
        <time>2026-08-15T02:37:01.000Z</time>
      </trkpt>
      <trkpt lat="22.893073" lon="109.251270">
        <ele>72.924129</ele>
        <time>2026-08-15T02:37:02.000Z</time>
      </trkpt>
      <trkpt lat="22.893119" lon="109.251307">
        <ele>72.920982</ele>
        <time>2026-08-15T02:37:03.000Z</time>
      </trkpt>
      <trkpt lat="22.893168" lon="109.251344">
        <ele>72.917701</ele>
        <time>2026-08-15T02:37:04.000Z</time>
      </trkpt>
      <trkpt lat="22.893211" lon="109.251380">
        <ele>72.914717</ele>
        <time>2026-08-15T02:37:05.000Z</time>
      </trkpt>
      <trkpt lat="22.893259" lon="109.251415">
        <ele>72.911539</ele>
        <time>2026-08-15T02:37:06.000Z</time>
      </trkpt>
      <trkpt lat="22.893308" lon="109.251449">
        <ele>72.908342</ele>
        <time>2026-08-15T02:37:07.000Z</time>
      </trkpt>
      <trkpt lat="22.893356" lon="109.251485">
        <ele>72.905136</ele>
        <time>2026-08-15T02:37:08.000Z</time>
      </trkpt>
      <trkpt lat="22.893405" lon="109.251518">
        <ele>72.901966</ele>
        <time>2026-08-15T02:37:09.000Z</time>
      </trkpt>
      <trkpt lat="22.893457" lon="109.251547">
        <ele>72.898753</ele>
        <time>2026-08-15T02:37:10.000Z</time>
      </trkpt>
      <trkpt lat="22.893508" lon="109.251578">
        <ele>72.895541</ele>
        <time>2026-08-15T02:37:11.000Z</time>
      </trkpt>
      <trkpt lat="22.893558" lon="109.251612">
        <ele>72.892298</ele>
        <time>2026-08-15T02:37:12.000Z</time>
      </trkpt>
      <trkpt lat="22.893612" lon="109.251641">
        <ele>72.888987</ele>
        <time>2026-08-15T02:37:13.000Z</time>
      </trkpt>
      <trkpt lat="22.893664" lon="109.251668">
        <ele>72.885819</ele>
        <time>2026-08-15T02:37:14.000Z</time>
      </trkpt>
      <trkpt lat="22.893713" lon="109.251701">
        <ele>72.882649</ele>
        <time>2026-08-15T02:37:15.000Z</time>
      </trkpt>
      <trkpt lat="22.893762" lon="109.251739">
        <ele>72.879339</ele>
        <time>2026-08-15T02:37:16.000Z</time>
      </trkpt>
      <trkpt lat="22.893810" lon="109.251773">
        <ele>72.876189</ele>
        <time>2026-08-15T02:37:17.000Z</time>
      </trkpt>
      <trkpt lat="22.893855" lon="109.251805">
        <ele>72.873233</ele>
        <time>2026-08-15T02:37:18.000Z</time>
      </trkpt>
      <trkpt lat="22.893905" lon="109.251837">
        <ele>72.870042</ele>
        <time>2026-08-15T02:37:19.000Z</time>
      </trkpt>
      <trkpt lat="22.893957" lon="109.251867">
        <ele>72.866806</ele>
        <time>2026-08-15T02:37:20.000Z</time>
      </trkpt>
      <trkpt lat="22.894008" lon="109.251898">
        <ele>72.863593</ele>
        <time>2026-08-15T02:37:21.000Z</time>
      </trkpt>
      <trkpt lat="22.894056" lon="109.251929">
        <ele>72.860523</ele>
        <time>2026-08-15T02:37:22.000Z</time>
      </trkpt>
      <trkpt lat="22.894105" lon="109.251959">
        <ele>72.857431</ele>
        <time>2026-08-15T02:37:23.000Z</time>
      </trkpt>
      <trkpt lat="22.894153" lon="109.251993">
        <ele>72.854281</ele>
        <time>2026-08-15T02:37:24.000Z</time>
      </trkpt>
      <trkpt lat="22.894205" lon="109.252023">
        <ele>72.851045</ele>
        <time>2026-08-15T02:37:25.000Z</time>
      </trkpt>
      <trkpt lat="22.894255" lon="109.252051">
        <ele>72.847953</ele>
        <time>2026-08-15T02:37:26.000Z</time>
      </trkpt>
      <trkpt lat="22.894305" lon="109.252081">
        <ele>72.844813</ele>
        <time>2026-08-15T02:37:27.000Z</time>
      </trkpt>
      <trkpt lat="22.894355" lon="109.252113">
        <ele>72.840943</ele>
        <time>2026-08-15T02:37:28.000Z</time>
      </trkpt>
      <trkpt lat="22.894408" lon="109.252145">
        <ele>72.836440</ele>
        <time>2026-08-15T02:37:29.000Z</time>
      </trkpt>
      <trkpt lat="22.894456" lon="109.252181">
        <ele>72.832107</ele>
        <time>2026-08-15T02:37:30.000Z</time>
      </trkpt>
      <trkpt lat="22.894503" lon="109.252214">
        <ele>72.827950</ele>
        <time>2026-08-15T02:37:31.000Z</time>
      </trkpt>
      <trkpt lat="22.894550" lon="109.252245">
        <ele>72.823866</ele>
        <time>2026-08-15T02:37:32.000Z</time>
      </trkpt>
      <trkpt lat="22.894598" lon="109.252276">
        <ele>72.819718</ele>
        <time>2026-08-15T02:37:33.000Z</time>
      </trkpt>
      <trkpt lat="22.894646" lon="109.252307">
        <ele>72.815571</ele>
        <time>2026-08-15T02:37:34.000Z</time>
      </trkpt>
      <trkpt lat="22.894697" lon="109.252339">
        <ele>72.811196</ele>
        <time>2026-08-15T02:37:35.000Z</time>
      </trkpt>
      <trkpt lat="22.894749" lon="109.252373">
        <ele>72.806688</ele>
        <time>2026-08-15T02:37:36.000Z</time>
      </trkpt>
      <trkpt lat="22.894800" lon="109.252402">
        <ele>72.802413</ele>
        <time>2026-08-15T02:37:37.000Z</time>
      </trkpt>
      <trkpt lat="22.894854" lon="109.252431">
        <ele>72.797938</ele>
        <time>2026-08-15T02:37:38.000Z</time>
      </trkpt>
      <trkpt lat="22.894905" lon="109.252462">
        <ele>72.793598</ele>
        <time>2026-08-15T02:37:39.000Z</time>
      </trkpt>
      <trkpt lat="22.894956" lon="109.252492">
        <ele>72.789290</ele>
        <time>2026-08-15T02:37:40.000Z</time>
      </trkpt>
      <trkpt lat="22.895005" lon="109.252525">
        <ele>72.785008</ele>
        <time>2026-08-15T02:37:41.000Z</time>
      </trkpt>
      <trkpt lat="22.895056" lon="109.252558">
        <ele>72.780599</ele>
        <time>2026-08-15T02:37:42.000Z</time>
      </trkpt>
      <trkpt lat="22.895106" lon="109.252585">
        <ele>72.776452</ele>
        <time>2026-08-15T02:37:43.000Z</time>
      </trkpt>
      <trkpt lat="22.895156" lon="109.252614">
        <ele>72.772242</ele>
        <time>2026-08-15T02:37:44.000Z</time>
      </trkpt>
      <trkpt lat="22.895205" lon="109.252644">
        <ele>72.768064</ele>
        <time>2026-08-15T02:37:45.000Z</time>
      </trkpt>
      <trkpt lat="22.895254" lon="109.252672">
        <ele>72.763952</ele>
        <time>2026-08-15T02:37:46.000Z</time>
      </trkpt>
      <trkpt lat="22.895300" lon="109.252704">
        <ele>72.759894</ele>
        <time>2026-08-15T02:37:47.000Z</time>
      </trkpt>
      <trkpt lat="22.895347" lon="109.252732">
        <ele>72.755913</ele>
        <time>2026-08-15T02:37:48.000Z</time>
      </trkpt>
      <trkpt lat="22.895395" lon="109.252761">
        <ele>72.751834</ele>
        <time>2026-08-15T02:37:49.000Z</time>
      </trkpt>
      <trkpt lat="22.895441" lon="109.252789">
        <ele>72.747917</ele>
        <time>2026-08-15T02:37:50.000Z</time>
      </trkpt>
      <trkpt lat="22.895486" lon="109.252816">
        <ele>72.744099</ele>
        <time>2026-08-15T02:37:51.000Z</time>
      </trkpt>
      <trkpt lat="22.895535" lon="109.252843">
        <ele>72.740018</ele>
        <time>2026-08-15T02:37:52.000Z</time>
      </trkpt>
      <trkpt lat="22.895583" lon="109.252873">
        <ele>72.735905</ele>
        <time>2026-08-15T02:37:53.000Z</time>
      </trkpt>
      <trkpt lat="22.895630" lon="109.252903">
        <ele>72.731856</ele>
        <time>2026-08-15T02:37:54.000Z</time>
      </trkpt>
      <trkpt lat="22.895677" lon="109.252935">
        <ele>72.727736</ele>
        <time>2026-08-15T02:37:55.000Z</time>
      </trkpt>
      <trkpt lat="22.895725" lon="109.252965">
        <ele>72.723623</ele>
        <time>2026-08-15T02:37:56.000Z</time>
      </trkpt>
      <trkpt lat="22.895774" lon="109.252994">
        <ele>72.719478</ele>
        <time>2026-08-15T02:37:57.000Z</time>
      </trkpt>
      <trkpt lat="22.895821" lon="109.253024">
        <ele>72.715429</ele>
        <time>2026-08-15T02:37:58.000Z</time>
      </trkpt>
      <trkpt lat="22.895868" lon="109.253053">
        <ele>72.711414</ele>
        <time>2026-08-15T02:37:59.000Z</time>
      </trkpt>
      <trkpt lat="22.895918" lon="109.253078">
        <ele>72.714568</ele>
        <time>2026-08-15T02:38:00.000Z</time>
      </trkpt>
      <trkpt lat="22.895968" lon="109.253097">
        <ele>72.721347</ele>
        <time>2026-08-15T02:38:01.000Z</time>
      </trkpt>
      <trkpt lat="22.896021" lon="109.253111">
        <ele>72.728327</ele>
        <time>2026-08-15T02:38:02.000Z</time>
      </trkpt>
      <trkpt lat="22.896075" lon="109.253120">
        <ele>72.735319</ele>
        <time>2026-08-15T02:38:03.000Z</time>
      </trkpt>
      <trkpt lat="22.896129" lon="109.253123">
        <ele>72.742238</ele>
        <time>2026-08-15T02:38:04.000Z</time>
      </trkpt>
      <trkpt lat="22.896181" lon="109.253124">
        <ele>72.748893</ele>
        <time>2026-08-15T02:38:05.000Z</time>
      </trkpt>
      <trkpt lat="22.896234" lon="109.253117">
        <ele>72.755725</ele>
        <time>2026-08-15T02:38:06.000Z</time>
      </trkpt>
      <trkpt lat="22.896287" lon="109.253106">
        <ele>72.762630</ele>
        <time>2026-08-15T02:38:07.000Z</time>
      </trkpt>
      <trkpt lat="22.896340" lon="109.253094">
        <ele>72.769559</ele>
        <time>2026-08-15T02:38:08.000Z</time>
      </trkpt>
      <trkpt lat="22.896391" lon="109.253082">
        <ele>72.776236</ele>
        <time>2026-08-15T02:38:09.000Z</time>
      </trkpt>
      <trkpt lat="22.896442" lon="109.253069">
        <ele>72.782940</ele>
        <time>2026-08-15T02:38:10.000Z</time>
      </trkpt>
      <trkpt lat="22.896496" lon="109.253057">
        <ele>72.789994</ele>
        <time>2026-08-15T02:38:11.000Z</time>
      </trkpt>
      <trkpt lat="22.896551" lon="109.253045">
        <ele>72.797173</ele>
        <time>2026-08-15T02:38:12.000Z</time>
      </trkpt>
      <trkpt lat="22.896604" lon="109.253033">
        <ele>72.804101</ele>
        <time>2026-08-15T02:38:13.000Z</time>
      </trkpt>
      <trkpt lat="22.896655" lon="109.253022">
        <ele>72.810755</ele>
        <time>2026-08-15T02:38:14.000Z</time>
      </trkpt>
      <trkpt lat="22.896705" lon="109.253010">
        <ele>72.817308</ele>
        <time>2026-08-15T02:38:15.000Z</time>
      </trkpt>
      <trkpt lat="22.896756" lon="109.253006">
        <ele>72.823851</ele>
        <time>2026-08-15T02:38:16.000Z</time>
      </trkpt>
      <trkpt lat="22.896812" lon="109.253002">
        <ele>72.831032</ele>
        <time>2026-08-15T02:38:17.000Z</time>
      </trkpt>
      <trkpt lat="22.896864" lon="109.253004">
        <ele>72.837691</ele>
        <time>2026-08-15T02:38:18.000Z</time>
      </trkpt>
      <trkpt lat="22.896913" lon="109.253014">
        <ele>72.844071</ele>
        <time>2026-08-15T02:38:19.000Z</time>
      </trkpt>
      <trkpt lat="22.896964" lon="109.253030">
        <ele>72.850864</ele>
        <time>2026-08-15T02:38:20.000Z</time>
      </trkpt>
      <trkpt lat="22.897014" lon="109.253050">
        <ele>72.857683</ele>
        <time>2026-08-15T02:38:21.000Z</time>
      </trkpt>
      <trkpt lat="22.897064" lon="109.253074">
        <ele>72.864679</ele>
        <time>2026-08-15T02:38:22.000Z</time>
      </trkpt>
      <trkpt lat="22.897113" lon="109.253098">
        <ele>72.871558</ele>
        <time>2026-08-15T02:38:23.000Z</time>
      </trkpt>
      <trkpt lat="22.897161" lon="109.253125">
        <ele>72.878476</ele>
        <time>2026-08-15T02:38:24.000Z</time>
      </trkpt>
      <trkpt lat="22.897207" lon="109.253151">
        <ele>72.885113</ele>
        <time>2026-08-15T02:38:25.000Z</time>
      </trkpt>
      <trkpt lat="22.897253" lon="109.253177">
        <ele>72.891750</ele>
        <time>2026-08-15T02:38:26.000Z</time>
      </trkpt>
      <trkpt lat="22.897296" lon="109.253203">
        <ele>72.898048</ele>
        <time>2026-08-15T02:38:27.000Z</time>
      </trkpt>
      <trkpt lat="22.897343" lon="109.253225">
        <ele>72.904598</ele>
        <time>2026-08-15T02:38:28.000Z</time>
      </trkpt>
      <trkpt lat="22.897387" lon="109.253250">
        <ele>72.910953</ele>
        <time>2026-08-15T02:38:29.000Z</time>
      </trkpt>
      <trkpt lat="22.897431" lon="109.253275">
        <ele>72.917308</ele>
        <time>2026-08-15T02:38:30.000Z</time>
      </trkpt>
      <trkpt lat="22.897472" lon="109.253304">
        <ele>72.923570</ele>
        <time>2026-08-15T02:38:31.000Z</time>
      </trkpt>
      <trkpt lat="22.897514" lon="109.253329">
        <ele>72.929700</ele>
        <time>2026-08-15T02:38:32.000Z</time>
      </trkpt>
      <trkpt lat="22.897557" lon="109.253354">
        <ele>72.935942</ele>
        <time>2026-08-15T02:38:33.000Z</time>
      </trkpt>
      <trkpt lat="22.897601" lon="109.253379">
        <ele>72.944220</ele>
        <time>2026-08-15T02:38:34.000Z</time>
      </trkpt>
      <trkpt lat="22.897644" lon="109.253411">
        <ele>72.956870</ele>
        <time>2026-08-15T02:38:35.000Z</time>
      </trkpt>
      <trkpt lat="22.897694" lon="109.253430">
        <ele>72.969725</ele>
        <time>2026-08-15T02:38:36.000Z</time>
      </trkpt>
      <trkpt lat="22.897739" lon="109.253454">
        <ele>72.981891</ele>
        <time>2026-08-15T02:38:37.000Z</time>
      </trkpt>
      <trkpt lat="22.897787" lon="109.253474">
        <ele>72.994366</ele>
        <time>2026-08-15T02:38:38.000Z</time>
      </trkpt>
      <trkpt lat="22.897834" lon="109.253495">
        <ele>73.006699</ele>
        <time>2026-08-15T02:38:39.000Z</time>
      </trkpt>
      <trkpt lat="22.897882" lon="109.253513">
        <ele>73.019022</ele>
        <time>2026-08-15T02:38:40.000Z</time>
      </trkpt>
      <trkpt lat="22.897932" lon="109.253529">
        <ele>73.031670</ele>
        <time>2026-08-15T02:38:41.000Z</time>
      </trkpt>
      <trkpt lat="22.897977" lon="109.253547">
        <ele>73.043307</ele>
        <time>2026-08-15T02:38:42.000Z</time>
      </trkpt>
      <trkpt lat="22.898016" lon="109.253566">
        <ele>73.053680</ele>
        <time>2026-08-15T02:38:43.000Z</time>
      </trkpt>
      <trkpt lat="22.898060" lon="109.253583">
        <ele>73.065013</ele>
        <time>2026-08-15T02:38:44.000Z</time>
      </trkpt>
      <trkpt lat="22.898104" lon="109.253605">
        <ele>73.076767</ele>
        <time>2026-08-15T02:38:45.000Z</time>
      </trkpt>
      <trkpt lat="22.898146" lon="109.253628">
        <ele>73.088182</ele>
        <time>2026-08-15T02:38:46.000Z</time>
      </trkpt>
      <trkpt lat="22.898183" lon="109.253654">
        <ele>73.098877</ele>
        <time>2026-08-15T02:38:47.000Z</time>
      </trkpt>
      <trkpt lat="22.898223" lon="109.253678">
        <ele>73.109967</ele>
        <time>2026-08-15T02:38:48.000Z</time>
      </trkpt>
      <trkpt lat="22.898266" lon="109.253701">
        <ele>73.121599</ele>
        <time>2026-08-15T02:38:49.000Z</time>
      </trkpt>
      <trkpt lat="22.898314" lon="109.253720">
        <ele>73.133996</ele>
        <time>2026-08-15T02:38:50.000Z</time>
      </trkpt>
      <trkpt lat="22.898359" lon="109.253737">
        <ele>73.145558</ele>
        <time>2026-08-15T02:38:51.000Z</time>
      </trkpt>
      <trkpt lat="22.898393" lon="109.253753">
        <ele>73.154549</ele>
        <time>2026-08-15T02:38:52.000Z</time>
      </trkpt>
      <trkpt lat="22.898425" lon="109.253777">
        <ele>73.163987</ele>
        <time>2026-08-15T02:38:53.000Z</time>
      </trkpt>
      <trkpt lat="22.898460" lon="109.253795">
        <ele>73.173385</ele>
        <time>2026-08-15T02:38:54.000Z</time>
      </trkpt>
      <trkpt lat="22.898495" lon="109.253823">
        <ele>73.183935</ele>
        <time>2026-08-15T02:38:55.000Z</time>
      </trkpt>
      <trkpt lat="22.898526" lon="109.253856">
        <ele>73.194470</ele>
        <time>2026-08-15T02:38:56.000Z</time>
      </trkpt>
      <trkpt lat="22.898559" lon="109.253888">
        <ele>73.205207</ele>
        <time>2026-08-15T02:38:57.000Z</time>
      </trkpt>
      <trkpt lat="22.898581" lon="109.253924">
        <ele>73.214864</ele>
        <time>2026-08-15T02:38:58.000Z</time>
      </trkpt>
      <trkpt lat="22.898592" lon="109.253952">
        <ele>73.221668</ele>
        <time>2026-08-15T02:38:59.000Z</time>
      </trkpt>
      <trkpt lat="22.898600" lon="109.253973">
        <ele>73.226748</ele>
        <time>2026-08-15T02:39:00.000Z</time>
      </trkpt>
      <trkpt lat="22.898601" lon="109.253997">
        <ele>73.232118</ele>
        <time>2026-08-15T02:39:01.000Z</time>
      </trkpt>
      <trkpt lat="22.898607" lon="109.254014">
        <ele>73.236187</ele>
        <time>2026-08-15T02:39:02.000Z</time>
      </trkpt>
      <trkpt lat="22.898607" lon="109.254028">
        <ele>73.239316</ele>
        <time>2026-08-15T02:39:03.000Z</time>
      </trkpt>
      <trkpt lat="22.898609" lon="109.254048">
        <ele>73.243813</ele>
        <time>2026-08-15T02:39:04.000Z</time>
      </trkpt>
      <trkpt lat="22.898613" lon="109.254068">
        <ele>73.248388</ele>
        <time>2026-08-15T02:39:05.000Z</time>
      </trkpt>
      <trkpt lat="22.898617" lon="109.254101">
        <ele>73.255828</ele>
        <time>2026-08-15T02:39:06.000Z</time>
      </trkpt>
      <trkpt lat="22.898607" lon="109.254125">
        <ele>73.261716</ele>
        <time>2026-08-15T02:39:07.000Z</time>
      </trkpt>
      <trkpt lat="22.898599" lon="109.254153">
        <ele>73.268269</ele>
        <time>2026-08-15T02:39:08.000Z</time>
      </trkpt>
      <trkpt lat="22.898586" lon="109.254177">
        <ele>73.274492</ele>
        <time>2026-08-15T02:39:09.000Z</time>
      </trkpt>
      <trkpt lat="22.898564" lon="109.254184">
        <ele>73.280055</ele>
        <time>2026-08-15T02:39:10.000Z</time>
      </trkpt>
      <trkpt lat="22.898545" lon="109.254201">
        <ele>73.286030</ele>
        <time>2026-08-15T02:39:11.000Z</time>
      </trkpt>
      <trkpt lat="22.898540" lon="109.254236">
        <ele>73.293947</ele>
        <time>2026-08-15T02:39:12.000Z</time>
      </trkpt>
      <trkpt lat="22.898536" lon="109.254265">
        <ele>73.300501</ele>
        <time>2026-08-15T02:39:13.000Z</time>
      </trkpt>
      <trkpt lat="22.898528" lon="109.254293">
        <ele>73.307054</ele>
        <time>2026-08-15T02:39:14.000Z</time>
      </trkpt>
      <trkpt lat="22.898525" lon="109.254328">
        <ele>73.314911</ele>
        <time>2026-08-15T02:39:15.000Z</time>
      </trkpt>
      <trkpt lat="22.898521" lon="109.254362">
        <ele>73.322573</ele>
        <time>2026-08-15T02:39:16.000Z</time>
      </trkpt>
      <trkpt lat="22.898513" lon="109.254394">
        <ele>73.329985</ele>
        <time>2026-08-15T02:39:17.000Z</time>
      </trkpt>
      <trkpt lat="22.898507" lon="109.254433">
        <ele>73.338823</ele>
        <time>2026-08-15T02:39:18.000Z</time>
      </trkpt>
      <trkpt lat="22.898501" lon="109.254470">
        <ele>73.347221</ele>
        <time>2026-08-15T02:39:19.000Z</time>
      </trkpt>
      <trkpt lat="22.898494" lon="109.254508">
        <ele>73.355883</ele>
        <time>2026-08-15T02:39:20.000Z</time>
      </trkpt>
      <trkpt lat="22.898484" lon="109.254546">
        <ele>73.364717</ele>
        <time>2026-08-15T02:39:21.000Z</time>
      </trkpt>
      <trkpt lat="22.898478" lon="109.254590">
        <ele>73.374659</ele>
        <time>2026-08-15T02:39:22.000Z</time>
      </trkpt>
      <trkpt lat="22.898466" lon="109.254620">
        <ele>73.379017</ele>
        <time>2026-08-15T02:39:23.000Z</time>
      </trkpt>
      <trkpt lat="22.898462" lon="109.254662">
        <ele>73.383271</ele>
        <time>2026-08-15T02:39:24.000Z</time>
      </trkpt>
      <trkpt lat="22.898456" lon="109.254703">
        <ele>73.387455</ele>
        <time>2026-08-15T02:39:25.000Z</time>
      </trkpt>
      <trkpt lat="22.898448" lon="109.254747">
        <ele>73.391974</ele>
        <time>2026-08-15T02:39:26.000Z</time>
      </trkpt>
      <trkpt lat="22.898440" lon="109.254791">
        <ele>73.396493</ele>
        <time>2026-08-15T02:39:27.000Z</time>
      </trkpt>
      <trkpt lat="22.898422" lon="109.254818">
        <ele>73.399852</ele>
        <time>2026-08-15T02:39:28.000Z</time>
      </trkpt>
      <trkpt lat="22.898415" lon="109.254863">
        <ele>73.404451</ele>
        <time>2026-08-15T02:39:29.000Z</time>
      </trkpt>
      <trkpt lat="22.898409" lon="109.254905">
        <ele>73.408734</ele>
        <time>2026-08-15T02:39:30.000Z</time>
      </trkpt>
      <trkpt lat="22.898404" lon="109.254951">
        <ele>73.413401</ele>
        <time>2026-08-15T02:39:31.000Z</time>
      </trkpt>
      <trkpt lat="22.898404" lon="109.254997">
        <ele>73.418036</ele>
        <time>2026-08-15T02:39:32.000Z</time>
      </trkpt>
      <trkpt lat="22.898401" lon="109.255038">
        <ele>73.422181</ele>
        <time>2026-08-15T02:39:33.000Z</time>
      </trkpt>
      <trkpt lat="22.898408" lon="109.255081">
        <ele>73.426581</ele>
        <time>2026-08-15T02:39:34.000Z</time>
      </trkpt>
      <trkpt lat="22.898413" lon="109.255135">
        <ele>73.432050</ele>
        <time>2026-08-15T02:39:35.000Z</time>
      </trkpt>
      <trkpt lat="22.898414" lon="109.255190">
        <ele>73.437593</ele>
        <time>2026-08-15T02:39:36.000Z</time>
      </trkpt>
      <trkpt lat="22.898411" lon="109.255246">
        <ele>73.443246</ele>
        <time>2026-08-15T02:39:37.000Z</time>
      </trkpt>
      <trkpt lat="22.898403" lon="109.255305">
        <ele>73.449255</ele>
        <time>2026-08-15T02:39:38.000Z</time>
      </trkpt>
      <trkpt lat="22.898405" lon="109.255370">
        <ele>73.455809</ele>
        <time>2026-08-15T02:39:39.000Z</time>
      </trkpt>
      <trkpt lat="22.898405" lon="109.255434">
        <ele>73.462258</ele>
        <time>2026-08-15T02:39:40.000Z</time>
      </trkpt>
      <trkpt lat="22.898409" lon="109.255500">
        <ele>73.468923</ele>
        <time>2026-08-15T02:39:41.000Z</time>
      </trkpt>
      <trkpt lat="22.898413" lon="109.255563">
        <ele>73.475287</ele>
        <time>2026-08-15T02:39:42.000Z</time>
      </trkpt>
      <trkpt lat="22.898411" lon="109.255628">
        <ele>73.481840</ele>
        <time>2026-08-15T02:39:43.000Z</time>
      </trkpt>
      <trkpt lat="22.898411" lon="109.255691">
        <ele>73.488189</ele>
        <time>2026-08-15T02:39:44.000Z</time>
      </trkpt>
      <trkpt lat="22.898414" lon="109.255750">
        <ele>73.494143</ele>
        <time>2026-08-15T02:39:45.000Z</time>
      </trkpt>
      <trkpt lat="22.898422" lon="109.255812">
        <ele>73.500452</ele>
        <time>2026-08-15T02:39:46.000Z</time>
      </trkpt>
      <trkpt lat="22.898428" lon="109.255869">
        <ele>73.506233</ele>
        <time>2026-08-15T02:39:47.000Z</time>
      </trkpt>
      <trkpt lat="22.898437" lon="109.255926">
        <ele>73.512060</ele>
        <time>2026-08-15T02:39:48.000Z</time>
      </trkpt>
      <trkpt lat="22.898445" lon="109.255987">
        <ele>73.518269</ele>
        <time>2026-08-15T02:39:49.000Z</time>
      </trkpt>
      <trkpt lat="22.898457" lon="109.256045">
        <ele>73.524259</ele>
        <time>2026-08-15T02:39:50.000Z</time>
      </trkpt>
      <trkpt lat="22.898469" lon="109.256104">
        <ele>73.530348</ele>
        <time>2026-08-15T02:39:51.000Z</time>
      </trkpt>
      <trkpt lat="22.898482" lon="109.256163">
        <ele>73.536461</ele>
        <time>2026-08-15T02:39:52.000Z</time>
      </trkpt>
      <trkpt lat="22.898496" lon="109.256225">
        <ele>73.542894</ele>
        <time>2026-08-15T02:39:53.000Z</time>
      </trkpt>
      <trkpt lat="22.898505" lon="109.256284">
        <ele>73.548920</ele>
        <time>2026-08-15T02:39:54.000Z</time>
      </trkpt>
      <trkpt lat="22.898513" lon="109.256343">
        <ele>73.554929</ele>
        <time>2026-08-15T02:39:55.000Z</time>
      </trkpt>
      <trkpt lat="22.898523" lon="109.256402">
        <ele>73.560974</ele>
        <time>2026-08-15T02:39:56.000Z</time>
      </trkpt>
      <trkpt lat="22.898535" lon="109.256460">
        <ele>73.566964</ele>
        <time>2026-08-15T02:39:57.000Z</time>
      </trkpt>
      <trkpt lat="22.898547" lon="109.256519">
        <ele>73.573053</ele>
        <time>2026-08-15T02:39:58.000Z</time>
      </trkpt>
      <trkpt lat="22.898558" lon="109.256580">
        <ele>73.572165</ele>
        <time>2026-08-15T02:39:59.000Z</time>
      </trkpt>
      <trkpt lat="22.898565" lon="109.256636">
        <ele>73.571042</ele>
        <time>2026-08-15T02:40:00.000Z</time>
      </trkpt>
      <trkpt lat="22.898572" lon="109.256693">
        <ele>73.569899</ele>
        <time>2026-08-15T02:40:01.000Z</time>
      </trkpt>
      <trkpt lat="22.898580" lon="109.256752">
        <ele>73.568714</ele>
        <time>2026-08-15T02:40:02.000Z</time>
      </trkpt>
      <trkpt lat="22.898588" lon="109.256810">
        <ele>73.567548</ele>
        <time>2026-08-15T02:40:03.000Z</time>
      </trkpt>
      <trkpt lat="22.898598" lon="109.256870">
        <ele>73.566336</ele>
        <time>2026-08-15T02:40:04.000Z</time>
      </trkpt>
      <trkpt lat="22.898609" lon="109.256927">
        <ele>73.565179</ele>
        <time>2026-08-15T02:40:05.000Z</time>
      </trkpt>
      <trkpt lat="22.898619" lon="109.256987">
        <ele>73.563967</ele>
        <time>2026-08-15T02:40:06.000Z</time>
      </trkpt>
      <trkpt lat="22.898631" lon="109.257045">
        <ele>73.562786</ele>
        <time>2026-08-15T02:40:07.000Z</time>
      </trkpt>
      <trkpt lat="22.898640" lon="109.257103">
        <ele>73.561617</ele>
        <time>2026-08-15T02:40:08.000Z</time>
      </trkpt>
      <trkpt lat="22.898649" lon="109.257158">
        <ele>73.560506</ele>
        <time>2026-08-15T02:40:09.000Z</time>
      </trkpt>
      <trkpt lat="22.898658" lon="109.257209">
        <ele>73.559474</ele>
        <time>2026-08-15T02:40:10.000Z</time>
      </trkpt>
      <trkpt lat="22.898669" lon="109.257264">
        <ele>73.558356</ele>
        <time>2026-08-15T02:40:11.000Z</time>
      </trkpt>
      <trkpt lat="22.898676" lon="109.257309">
        <ele>73.557449</ele>
        <time>2026-08-15T02:40:12.000Z</time>
      </trkpt>
      <trkpt lat="22.898683" lon="109.257359">
        <ele>73.556444</ele>
        <time>2026-08-15T02:40:13.000Z</time>
      </trkpt>
      <trkpt lat="22.898689" lon="109.257409">
        <ele>73.555441</ele>
        <time>2026-08-15T02:40:14.000Z</time>
      </trkpt>
      <trkpt lat="22.898699" lon="109.257463">
        <ele>73.554347</ele>
        <time>2026-08-15T02:40:15.000Z</time>
      </trkpt>
      <trkpt lat="22.898708" lon="109.257515">
        <ele>73.553295</ele>
        <time>2026-08-15T02:40:16.000Z</time>
      </trkpt>
      <trkpt lat="22.898716" lon="109.257569">
        <ele>73.552208</ele>
        <time>2026-08-15T02:40:17.000Z</time>
      </trkpt>
      <trkpt lat="22.898724" lon="109.257623">
        <ele>73.551121</ele>
        <time>2026-08-15T02:40:18.000Z</time>
      </trkpt>
      <trkpt lat="22.898733" lon="109.257678">
        <ele>73.550011</ele>
        <time>2026-08-15T02:40:19.000Z</time>
      </trkpt>
      <trkpt lat="22.898742" lon="109.257732">
        <ele>73.548920</ele>
        <time>2026-08-15T02:40:20.000Z</time>
      </trkpt>
      <trkpt lat="22.898751" lon="109.257790">
        <ele>73.547751</ele>
        <time>2026-08-15T02:40:21.000Z</time>
      </trkpt>
      <trkpt lat="22.898763" lon="109.257845">
        <ele>73.546628</ele>
        <time>2026-08-15T02:40:22.000Z</time>
      </trkpt>
      <trkpt lat="22.898773" lon="109.257903">
        <ele>73.545455</ele>
        <time>2026-08-15T02:40:23.000Z</time>
      </trkpt>
      <trkpt lat="22.898783" lon="109.257964">
        <ele>73.544224</ele>
        <time>2026-08-15T02:40:24.000Z</time>
      </trkpt>
      <trkpt lat="22.898791" lon="109.258022">
        <ele>73.543058</ele>
        <time>2026-08-15T02:40:25.000Z</time>
      </trkpt>
      <trkpt lat="22.898799" lon="109.258079">
        <ele>73.541912</ele>
        <time>2026-08-15T02:40:26.000Z</time>
      </trkpt>
      <trkpt lat="22.898808" lon="109.258137">
        <ele>73.540743</ele>
        <time>2026-08-15T02:40:27.000Z</time>
      </trkpt>
      <trkpt lat="22.898817" lon="109.258192">
        <ele>73.539633</ele>
        <time>2026-08-15T02:40:28.000Z</time>
      </trkpt>
      <trkpt lat="22.898824" lon="109.258248">
        <ele>73.538510</ele>
        <time>2026-08-15T02:40:29.000Z</time>
      </trkpt>
      <trkpt lat="22.898828" lon="109.258302">
        <ele>73.537433</ele>
        <time>2026-08-15T02:40:30.000Z</time>
      </trkpt>
      <trkpt lat="22.898837" lon="109.258357">
        <ele>73.536323</ele>
        <time>2026-08-15T02:40:31.000Z</time>
      </trkpt>
      <trkpt lat="22.898848" lon="109.258409">
        <ele>73.535262</ele>
        <time>2026-08-15T02:40:32.000Z</time>
      </trkpt>
      <trkpt lat="22.898852" lon="109.258462">
        <ele>73.539085</ele>
        <time>2026-08-15T02:40:33.000Z</time>
      </trkpt>
      <trkpt lat="22.898859" lon="109.258519">
        <ele>73.554750</ele>
        <time>2026-08-15T02:40:34.000Z</time>
      </trkpt>
      <trkpt lat="22.898868" lon="109.258577">
        <ele>73.570773</ele>
        <time>2026-08-15T02:40:35.000Z</time>
      </trkpt>
      <trkpt lat="22.898874" lon="109.258634">
        <ele>73.586401</ele>
        <time>2026-08-15T02:40:36.000Z</time>
      </trkpt>
      <trkpt lat="22.898883" lon="109.258691">
        <ele>73.602155</ele>
        <time>2026-08-15T02:40:37.000Z</time>
      </trkpt>
      <trkpt lat="22.898890" lon="109.258749">
        <ele>73.618090</ele>
        <time>2026-08-15T02:40:38.000Z</time>
      </trkpt>
      <trkpt lat="22.898898" lon="109.258810">
        <ele>73.634875</ele>
        <time>2026-08-15T02:40:39.000Z</time>
      </trkpt>
      <trkpt lat="22.898907" lon="109.258868">
        <ele>73.650898</ele>
        <time>2026-08-15T02:40:40.000Z</time>
      </trkpt>
      <trkpt lat="22.898916" lon="109.258926">
        <ele>73.666920</ele>
        <time>2026-08-15T02:40:41.000Z</time>
      </trkpt>
      <trkpt lat="22.898925" lon="109.258983">
        <ele>73.682674</ele>
        <time>2026-08-15T02:40:42.000Z</time>
      </trkpt>
      <trkpt lat="22.898936" lon="109.259041">
        <ele>73.698806</ele>
        <time>2026-08-15T02:40:43.000Z</time>
      </trkpt>
      <trkpt lat="22.898947" lon="109.259098">
        <ele>73.714670</ele>
        <time>2026-08-15T02:40:44.000Z</time>
      </trkpt>
      <trkpt lat="22.898957" lon="109.259154">
        <ele>73.730209</ele>
        <time>2026-08-15T02:40:45.000Z</time>
      </trkpt>
      <trkpt lat="22.898966" lon="109.259211">
        <ele>73.745963</ele>
        <time>2026-08-15T02:40:46.000Z</time>
      </trkpt>
      <trkpt lat="22.898974" lon="109.259266">
        <ele>73.761132</ele>
        <time>2026-08-15T02:40:47.000Z</time>
      </trkpt>
      <trkpt lat="22.898982" lon="109.259322">
        <ele>73.776569</ele>
        <time>2026-08-15T02:40:48.000Z</time>
      </trkpt>
      <trkpt lat="22.898986" lon="109.259375">
        <ele>73.791055</ele>
        <time>2026-08-15T02:40:49.000Z</time>
      </trkpt>
      <trkpt lat="22.898991" lon="109.259427">
        <ele>73.805298</ele>
        <time>2026-08-15T02:40:50.000Z</time>
      </trkpt>
      <trkpt lat="22.898996" lon="109.259477">
        <ele>73.818999</ele>
        <time>2026-08-15T02:40:51.000Z</time>
      </trkpt>
      <trkpt lat="22.899001" lon="109.259524">
        <ele>73.831887</ele>
        <time>2026-08-15T02:40:52.000Z</time>
      </trkpt>
      <trkpt lat="22.899007" lon="109.259572">
        <ele>73.845083</ele>
        <time>2026-08-15T02:40:53.000Z</time>
      </trkpt>
      <trkpt lat="22.899015" lon="109.259622">
        <ele>73.858907</ele>
        <time>2026-08-15T02:40:54.000Z</time>
      </trkpt>
      <trkpt lat="22.899019" lon="109.259670">
        <ele>73.872037</ele>
        <time>2026-08-15T02:40:55.000Z</time>
      </trkpt>
      <trkpt lat="22.899024" lon="109.259720">
        <ele>73.885737</ele>
        <time>2026-08-15T02:40:56.000Z</time>
      </trkpt>
      <trkpt lat="22.899031" lon="109.259765">
        <ele>73.898169</ele>
        <time>2026-08-15T02:40:57.000Z</time>
      </trkpt>
      <trkpt lat="22.899039" lon="109.259813">
        <ele>73.911458</ele>
        <time>2026-08-15T02:40:58.000Z</time>
      </trkpt>
      <trkpt lat="22.899045" lon="109.259863">
        <ele>73.925193</ele>
        <time>2026-08-15T02:40:59.000Z</time>
      </trkpt>
      <trkpt lat="22.899050" lon="109.259914">
        <ele>73.939165</ele>
        <time>2026-08-15T02:41:00.000Z</time>
      </trkpt>
      <trkpt lat="22.899056" lon="109.259967">
        <ele>73.953711</ele>
        <time>2026-08-15T02:41:01.000Z</time>
      </trkpt>
      <trkpt lat="22.899062" lon="109.260018">
        <ele>73.967717</ele>
        <time>2026-08-15T02:41:02.000Z</time>
      </trkpt>
      <trkpt lat="22.899070" lon="109.260068">
        <ele>73.981542</ele>
        <time>2026-08-15T02:41:03.000Z</time>
      </trkpt>
      <trkpt lat="22.899077" lon="109.260116">
        <ele>73.994780</ele>
        <time>2026-08-15T02:41:04.000Z</time>
      </trkpt>
      <trkpt lat="22.899083" lon="109.260163">
        <ele>74.007706</ele>
        <time>2026-08-15T02:41:05.000Z</time>
      </trkpt>
      <trkpt lat="22.899090" lon="109.260209">
        <ele>74.020407</ele>
        <time>2026-08-15T02:41:06.000Z</time>
      </trkpt>
      <trkpt lat="22.899098" lon="109.260251">
        <ele>74.032090</ele>
        <time>2026-08-15T02:41:07.000Z</time>
      </trkpt>
      <trkpt lat="22.899103" lon="109.260292">
        <ele>74.043357</ele>
        <time>2026-08-15T02:41:08.000Z</time>
      </trkpt>
      <trkpt lat="22.899110" lon="109.260338">
        <ele>74.056058</ele>
        <time>2026-08-15T02:41:09.000Z</time>
      </trkpt>
      <trkpt lat="22.899116" lon="109.260385">
        <ele>74.067221</ele>
        <time>2026-08-15T02:41:10.000Z</time>
      </trkpt>
      <trkpt lat="22.899123" lon="109.260437">
        <ele>74.071662</ele>
        <time>2026-08-15T02:41:11.000Z</time>
      </trkpt>
      <trkpt lat="22.899133" lon="109.260492">
        <ele>74.076399</ele>
        <time>2026-08-15T02:41:12.000Z</time>
      </trkpt>
      <trkpt lat="22.899139" lon="109.260545">
        <ele>74.080912</ele>
        <time>2026-08-15T02:41:13.000Z</time>
      </trkpt>
      <trkpt lat="22.899145" lon="109.260598">
        <ele>74.085424</ele>
        <time>2026-08-15T02:41:14.000Z</time>
      </trkpt>
      <trkpt lat="22.899148" lon="109.260652">
        <ele>74.089996</ele>
        <time>2026-08-15T02:41:15.000Z</time>
      </trkpt>
      <trkpt lat="22.899152" lon="109.260710">
        <ele>74.094910</ele>
        <time>2026-08-15T02:41:16.000Z</time>
      </trkpt>
      <trkpt lat="22.899155" lon="109.260769">
        <ele>74.099904</ele>
        <time>2026-08-15T02:41:17.000Z</time>
      </trkpt>
      <trkpt lat="22.899161" lon="109.260827">
        <ele>74.104836</ele>
        <time>2026-08-15T02:41:18.000Z</time>
      </trkpt>
      <trkpt lat="22.899165" lon="109.260884">
        <ele>74.109666</ele>
        <time>2026-08-15T02:41:19.000Z</time>
      </trkpt>
      <trkpt lat="22.899171" lon="109.260940">
        <ele>74.114431</ele>
        <time>2026-08-15T02:41:20.000Z</time>
      </trkpt>
      <trkpt lat="22.899176" lon="109.260996">
        <ele>74.119185</ele>
        <time>2026-08-15T02:41:21.000Z</time>
      </trkpt>
      <trkpt lat="22.899184" lon="109.261048">
        <ele>74.123640</ele>
        <time>2026-08-15T02:41:22.000Z</time>
      </trkpt>
      <trkpt lat="22.899190" lon="109.261103">
        <ele>74.128320</ele>
        <time>2026-08-15T02:41:23.000Z</time>
      </trkpt>
      <trkpt lat="22.899194" lon="109.261155">
        <ele>74.132730</ele>
        <time>2026-08-15T02:41:24.000Z</time>
      </trkpt>
      <trkpt lat="22.899198" lon="109.261208">
        <ele>74.137223</ele>
        <time>2026-08-15T02:41:25.000Z</time>
      </trkpt>
      <trkpt lat="22.899203" lon="109.261261">
        <ele>74.141725</ele>
        <time>2026-08-15T02:41:26.000Z</time>
      </trkpt>
      <trkpt lat="22.899208" lon="109.261321">
        <ele>74.146816</ele>
        <time>2026-08-15T02:41:27.000Z</time>
      </trkpt>
      <trkpt lat="22.899219" lon="109.261380">
        <ele>74.151903</ele>
        <time>2026-08-15T02:41:28.000Z</time>
      </trkpt>
      <trkpt lat="22.899229" lon="109.261436">
        <ele>74.156723</ele>
        <time>2026-08-15T02:41:29.000Z</time>
      </trkpt>
      <trkpt lat="22.899237" lon="109.261498">
        <ele>74.162014</ele>
        <time>2026-08-15T02:41:30.000Z</time>
      </trkpt>
      <trkpt lat="22.899243" lon="109.261558">
        <ele>74.167114</ele>
        <time>2026-08-15T02:41:31.000Z</time>
      </trkpt>
      <trkpt lat="22.899249" lon="109.261618">
        <ele>74.172214</ele>
        <time>2026-08-15T02:41:32.000Z</time>
      </trkpt>
      <trkpt lat="22.899256" lon="109.261676">
        <ele>74.177157</ele>
        <time>2026-08-15T02:41:33.000Z</time>
      </trkpt>
      <trkpt lat="22.899266" lon="109.261737">
        <ele>74.182393</ele>
        <time>2026-08-15T02:41:34.000Z</time>
      </trkpt>
      <trkpt lat="22.899273" lon="109.261798">
        <ele>74.187587</ele>
        <time>2026-08-15T02:41:35.000Z</time>
      </trkpt>
      <trkpt lat="22.899280" lon="109.261857">
        <ele>74.192614</ele>
        <time>2026-08-15T02:41:36.000Z</time>
      </trkpt>
      <trkpt lat="22.899290" lon="109.261914">
        <ele>74.197517</ele>
        <time>2026-08-15T02:41:37.000Z</time>
      </trkpt>
      <trkpt lat="22.899301" lon="109.261966">
        <ele>74.202026</ele>
        <time>2026-08-15T02:41:38.000Z</time>
      </trkpt>
      <trkpt lat="22.899307" lon="109.262021">
        <ele>74.206706</ele>
        <time>2026-08-15T02:41:39.000Z</time>
      </trkpt>
      <trkpt lat="22.899318" lon="109.262080">
        <ele>74.211793</ele>
        <time>2026-08-15T02:41:40.000Z</time>
      </trkpt>
      <trkpt lat="22.899324" lon="109.262137">
        <ele>74.216641</ele>
        <time>2026-08-15T02:41:41.000Z</time>
      </trkpt>
      <trkpt lat="22.899328" lon="109.262195">
        <ele>74.221556</ele>
        <time>2026-08-15T02:41:42.000Z</time>
      </trkpt>
      <trkpt lat="22.899332" lon="109.262253">
        <ele>74.226471</ele>
        <time>2026-08-15T02:41:43.000Z</time>
      </trkpt>
      <trkpt lat="22.899338" lon="109.262311">
        <ele>74.231403</ele>
        <time>2026-08-15T02:41:44.000Z</time>
      </trkpt>
      <trkpt lat="22.899342" lon="109.262371">
        <ele>74.204097</ele>
        <time>2026-08-15T02:41:45.000Z</time>
      </trkpt>
      <trkpt lat="22.899346" lon="109.262428">
        <ele>74.178023</ele>
        <time>2026-08-15T02:41:46.000Z</time>
      </trkpt>
      <trkpt lat="22.899350" lon="109.262486">
        <ele>74.151494</ele>
        <time>2026-08-15T02:41:47.000Z</time>
      </trkpt>
      <trkpt lat="22.899354" lon="109.262545">
        <ele>74.124511</ele>
        <time>2026-08-15T02:41:48.000Z</time>
      </trkpt>
      <trkpt lat="22.899357" lon="109.262604">
        <ele>74.097559</ele>
        <time>2026-08-15T02:41:49.000Z</time>
      </trkpt>
      <trkpt lat="22.899362" lon="109.262663">
        <ele>74.070535</ele>
        <time>2026-08-15T02:41:50.000Z</time>
      </trkpt>
      <trkpt lat="22.899365" lon="109.262723">
        <ele>74.043128</ele>
        <time>2026-08-15T02:41:51.000Z</time>
      </trkpt>
      <trkpt lat="22.899369" lon="109.262781">
        <ele>74.016599</ele>
        <time>2026-08-15T02:41:52.000Z</time>
      </trkpt>
      <trkpt lat="22.899372" lon="109.262840">
        <ele>73.989648</ele>
        <time>2026-08-15T02:41:53.000Z</time>
      </trkpt>
      <trkpt lat="22.899375" lon="109.262897">
        <ele>73.963607</ele>
        <time>2026-08-15T02:41:54.000Z</time>
      </trkpt>
      <trkpt lat="22.899375" lon="109.262952">
        <ele>73.938521</ele>
        <time>2026-08-15T02:41:55.000Z</time>
      </trkpt>
      <trkpt lat="22.899377" lon="109.263006">
        <ele>73.913871</ele>
        <time>2026-08-15T02:41:56.000Z</time>
      </trkpt>
      <trkpt lat="22.899380" lon="109.263061">
        <ele>73.888741</ele>
        <time>2026-08-15T02:41:57.000Z</time>
      </trkpt>
      <trkpt lat="22.899382" lon="109.263116">
        <ele>73.863635</ele>
        <time>2026-08-15T02:41:58.000Z</time>
      </trkpt>
      <trkpt lat="22.899386" lon="109.263166">
        <ele>73.840743</ele>
        <time>2026-08-15T02:41:59.000Z</time>
      </trkpt>
      <trkpt lat="22.899386" lon="109.263217">
        <ele>73.817482</ele>
        <time>2026-08-15T02:42:00.000Z</time>
      </trkpt>
      <trkpt lat="22.899387" lon="109.263272">
        <ele>73.792391</ele>
        <time>2026-08-15T02:42:01.000Z</time>
      </trkpt>
      <trkpt lat="22.899384" lon="109.263324">
        <ele>73.768626</ele>
        <time>2026-08-15T02:42:02.000Z</time>
      </trkpt>
      <trkpt lat="22.899383" lon="109.263375">
        <ele>73.745359</ele>
        <time>2026-08-15T02:42:03.000Z</time>
      </trkpt>
      <trkpt lat="22.899385" lon="109.263422">
        <ele>73.723899</ele>
        <time>2026-08-15T02:42:04.000Z</time>
      </trkpt>
      <trkpt lat="22.899388" lon="109.263468">
        <ele>73.702865</ele>
        <time>2026-08-15T02:42:05.000Z</time>
      </trkpt>
      <trkpt lat="22.899388" lon="109.263517">
        <ele>73.680516</ele>
        <time>2026-08-15T02:42:06.000Z</time>
      </trkpt>
      <trkpt lat="22.899384" lon="109.263565">
        <ele>73.658533</ele>
        <time>2026-08-15T02:42:07.000Z</time>
      </trkpt>
      <trkpt lat="22.899377" lon="109.263615">
        <ele>73.635466</ele>
        <time>2026-08-15T02:42:08.000Z</time>
      </trkpt>
      <trkpt lat="22.899370" lon="109.263667">
        <ele>73.611496</ele>
        <time>2026-08-15T02:42:09.000Z</time>
      </trkpt>
      <trkpt lat="22.899363" lon="109.263721">
        <ele>73.586623</ele>
        <time>2026-08-15T02:42:10.000Z</time>
      </trkpt>
      <trkpt lat="22.899353" lon="109.263772">
        <ele>73.562840</ele>
        <time>2026-08-15T02:42:11.000Z</time>
      </trkpt>
      <trkpt lat="22.899344" lon="109.263821">
        <ele>73.540051</ele>
        <time>2026-08-15T02:42:12.000Z</time>
      </trkpt>
      <trkpt lat="22.899335" lon="109.263875">
        <ele>73.515021</ele>
        <time>2026-08-15T02:42:13.000Z</time>
      </trkpt>
      <trkpt lat="22.899326" lon="109.263928">
        <ele>73.490440</ele>
        <time>2026-08-15T02:42:14.000Z</time>
      </trkpt>
      <trkpt lat="22.899317" lon="109.263984">
        <ele>73.464511</ele>
        <time>2026-08-15T02:42:15.000Z</time>
      </trkpt>
      <trkpt lat="22.899307" lon="109.264038">
        <ele>73.439389</ele>
        <time>2026-08-15T02:42:16.000Z</time>
      </trkpt>
      <trkpt lat="22.899297" lon="109.264095">
        <ele>73.412923</ele>
        <time>2026-08-15T02:42:17.000Z</time>
      </trkpt>
      <trkpt lat="22.899286" lon="109.264152">
        <ele>73.386360</ele>
        <time>2026-08-15T02:42:18.000Z</time>
      </trkpt>
      <trkpt lat="22.899276" lon="109.264211">
        <ele>73.358998</ele>
        <time>2026-08-15T02:42:19.000Z</time>
      </trkpt>
      <trkpt lat="22.899263" lon="109.264271">
        <ele>73.345151</ele>
        <time>2026-08-15T02:42:20.000Z</time>
      </trkpt>
      <trkpt lat="22.899251" lon="109.264331">
        <ele>73.357222</ele>
        <time>2026-08-15T02:42:21.000Z</time>
      </trkpt>
      <trkpt lat="22.899240" lon="109.264390">
        <ele>73.369057</ele>
        <time>2026-08-15T02:42:22.000Z</time>
      </trkpt>
      <trkpt lat="22.899227" lon="109.264449">
        <ele>73.380984</ele>
        <time>2026-08-15T02:42:23.000Z</time>
      </trkpt>
      <trkpt lat="22.899214" lon="109.264508">
        <ele>73.392911</ele>
        <time>2026-08-15T02:42:24.000Z</time>
      </trkpt>
      <trkpt lat="22.899200" lon="109.264568">
        <ele>73.405080</ele>
        <time>2026-08-15T02:42:25.000Z</time>
      </trkpt>
      <trkpt lat="22.899185" lon="109.264628">
        <ele>73.417303</ele>
        <time>2026-08-15T02:42:26.000Z</time>
      </trkpt>
      <trkpt lat="22.899172" lon="109.264689">
        <ele>73.429613</ele>
        <time>2026-08-15T02:42:27.000Z</time>
      </trkpt>
      <trkpt lat="22.899159" lon="109.264749">
        <ele>73.441731</ele>
        <time>2026-08-15T02:42:28.000Z</time>
      </trkpt>
      <trkpt lat="22.899147" lon="109.264809">
        <ele>73.453802</ele>
        <time>2026-08-15T02:42:29.000Z</time>
      </trkpt>
      <trkpt lat="22.899137" lon="109.264869">
        <ele>73.465790</ele>
        <time>2026-08-15T02:42:30.000Z</time>
      </trkpt>
      <trkpt lat="22.899129" lon="109.264930">
        <ele>73.477904</ele>
        <time>2026-08-15T02:42:31.000Z</time>
      </trkpt>
      <trkpt lat="22.899120" lon="109.264990">
        <ele>73.489856</ele>
        <time>2026-08-15T02:42:32.000Z</time>
      </trkpt>
      <trkpt lat="22.899112" lon="109.265049">
        <ele>73.501581</ele>
        <time>2026-08-15T02:42:33.000Z</time>
      </trkpt>
      <trkpt lat="22.899106" lon="109.265108">
        <ele>73.513251</ele>
        <time>2026-08-15T02:42:34.000Z</time>
      </trkpt>
      <trkpt lat="22.899101" lon="109.265164">
        <ele>73.524313</ele>
        <time>2026-08-15T02:42:35.000Z</time>
      </trkpt>
      <trkpt lat="22.899099" lon="109.265218">
        <ele>73.534938</ele>
        <time>2026-08-15T02:42:36.000Z</time>
      </trkpt>
      <trkpt lat="22.899098" lon="109.265270">
        <ele>73.545164</ele>
        <time>2026-08-15T02:42:37.000Z</time>
      </trkpt>
      <trkpt lat="22.899097" lon="109.265322">
        <ele>73.555390</ele>
        <time>2026-08-15T02:42:38.000Z</time>
      </trkpt>
      <trkpt lat="22.899096" lon="109.265363">
        <ele>73.563454</ele>
        <time>2026-08-15T02:42:39.000Z</time>
      </trkpt>
      <trkpt lat="22.899097" lon="109.265407">
        <ele>73.572107</ele>
        <time>2026-08-15T02:42:40.000Z</time>
      </trkpt>
      <trkpt lat="22.899098" lon="109.265448">
        <ele>73.580171</ele>
        <time>2026-08-15T02:42:41.000Z</time>
      </trkpt>
      <trkpt lat="22.899100" lon="109.265489">
        <ele>73.588243</ele>
        <time>2026-08-15T02:42:42.000Z</time>
      </trkpt>
      <trkpt lat="22.899103" lon="109.265527">
        <ele>73.595741</ele>
        <time>2026-08-15T02:42:43.000Z</time>
      </trkpt>
      <trkpt lat="22.899103" lon="109.265567">
        <ele>73.603606</ele>
        <time>2026-08-15T02:42:44.000Z</time>
      </trkpt>
      <trkpt lat="22.899102" lon="109.265606">
        <ele>73.611276</ele>
        <time>2026-08-15T02:42:45.000Z</time>
      </trkpt>
      <trkpt lat="22.899101" lon="109.265647">
        <ele>73.619340</ele>
        <time>2026-08-15T02:42:46.000Z</time>
      </trkpt>
      <trkpt lat="22.899102" lon="109.265689">
        <ele>73.627600</ele>
        <time>2026-08-15T02:42:47.000Z</time>
      </trkpt>
      <trkpt lat="22.899103" lon="109.265731">
        <ele>73.635861</ele>
        <time>2026-08-15T02:42:48.000Z</time>
      </trkpt>
      <trkpt lat="22.899106" lon="109.265774">
        <ele>73.644339</ele>
        <time>2026-08-15T02:42:49.000Z</time>
      </trkpt>
      <trkpt lat="22.899108" lon="109.265817">
        <ele>73.652804</ele>
        <time>2026-08-15T02:42:50.000Z</time>
      </trkpt>
      <trkpt lat="22.899109" lon="109.265862">
        <ele>73.661654</ele>
        <time>2026-08-15T02:42:51.000Z</time>
      </trkpt>
      <trkpt lat="22.899111" lon="109.265909">
        <ele>73.670904</ele>
        <time>2026-08-15T02:42:52.000Z</time>
      </trkpt>
      <trkpt lat="22.899114" lon="109.265956">
        <ele>73.680167</ele>
        <time>2026-08-15T02:42:53.000Z</time>
      </trkpt>
      <trkpt lat="22.899116" lon="109.266001">
        <ele>73.689024</ele>
        <time>2026-08-15T02:42:54.000Z</time>
      </trkpt>
      <trkpt lat="22.899117" lon="109.266050">
        <ele>73.698661</ele>
        <time>2026-08-15T02:42:55.000Z</time>
      </trkpt>
      <trkpt lat="22.899120" lon="109.266101">
        <ele>73.708708</ele>
        <time>2026-08-15T02:42:56.000Z</time>
      </trkpt>
      <trkpt lat="22.899126" lon="109.266153">
        <ele>73.719011</ele>
        <time>2026-08-15T02:42:57.000Z</time>
      </trkpt>
      <trkpt lat="22.899129" lon="109.266206">
        <ele>73.711791</ele>
        <time>2026-08-15T02:42:58.000Z</time>
      </trkpt>
      <trkpt lat="22.899134" lon="109.266260">
        <ele>73.682525</ele>
        <time>2026-08-15T02:42:59.000Z</time>
      </trkpt>
      <trkpt lat="22.899136" lon="109.266314">
        <ele>73.653383</ele>
        <time>2026-08-15T02:43:00.000Z</time>
      </trkpt>
      <trkpt lat="22.899134" lon="109.266368">
        <ele>73.624240</ele>
        <time>2026-08-15T02:43:01.000Z</time>
      </trkpt>
      <trkpt lat="22.899135" lon="109.266421">
        <ele>73.595654</ele>
        <time>2026-08-15T02:43:02.000Z</time>
      </trkpt>
      <trkpt lat="22.899136" lon="109.266474">
        <ele>73.567068</ele>
        <time>2026-08-15T02:43:03.000Z</time>
      </trkpt>
      <trkpt lat="22.899137" lon="109.266526">
        <ele>73.539021</ele>
        <time>2026-08-15T02:43:04.000Z</time>
      </trkpt>
      <trkpt lat="22.899141" lon="109.266579">
        <ele>73.510345</ele>
        <time>2026-08-15T02:43:05.000Z</time>
      </trkpt>
      <trkpt lat="22.899144" lon="109.266633">
        <ele>73.481173</ele>
        <time>2026-08-15T02:43:06.000Z</time>
      </trkpt>
      <trkpt lat="22.899151" lon="109.266691">
        <ele>73.449629</ele>
        <time>2026-08-15T02:43:07.000Z</time>
      </trkpt>
      <trkpt lat="22.899152" lon="109.266741">
        <ele>73.422661</ele>
        <time>2026-08-15T02:43:08.000Z</time>
      </trkpt>
      <trkpt lat="22.899154" lon="109.266792">
        <ele>73.395134</ele>
        <time>2026-08-15T02:43:09.000Z</time>
      </trkpt>
      <trkpt lat="22.899153" lon="109.266847">
        <ele>73.365470</ele>
        <time>2026-08-15T02:43:10.000Z</time>
      </trkpt>
      <trkpt lat="22.899153" lon="109.266903">
        <ele>73.335272</ele>
        <time>2026-08-15T02:43:11.000Z</time>
      </trkpt>
      <trkpt lat="22.899154" lon="109.266958">
        <ele>73.305608</ele>
        <time>2026-08-15T02:43:12.000Z</time>
      </trkpt>
      <trkpt lat="22.899157" lon="109.267016">
        <ele>73.274282</ele>
        <time>2026-08-15T02:43:13.000Z</time>
      </trkpt>
      <trkpt lat="22.899159" lon="109.267071">
        <ele>73.244601</ele>
        <time>2026-08-15T02:43:14.000Z</time>
      </trkpt>
      <trkpt lat="22.899160" lon="109.267129">
        <ele>73.213319</ele>
        <time>2026-08-15T02:43:15.000Z</time>
      </trkpt>
      <trkpt lat="22.899161" lon="109.267188">
        <ele>73.181498</ele>
        <time>2026-08-15T02:43:16.000Z</time>
      </trkpt>
      <trkpt lat="22.899162" lon="109.267247">
        <ele>73.149677</ele>
        <time>2026-08-15T02:43:17.000Z</time>
      </trkpt>
      <trkpt lat="22.899160" lon="109.267304">
        <ele>73.118918</ele>
        <time>2026-08-15T02:43:18.000Z</time>
      </trkpt>
      <trkpt lat="22.899159" lon="109.267361">
        <ele>73.088175</ele>
        <time>2026-08-15T02:43:19.000Z</time>
      </trkpt>
      <trkpt lat="22.899156" lon="109.267418">
        <ele>73.057388</ele>
        <time>2026-08-15T02:43:20.000Z</time>
      </trkpt>
      <trkpt lat="22.899154" lon="109.267475">
        <ele>73.026629</ele>
        <time>2026-08-15T02:43:21.000Z</time>
      </trkpt>
      <trkpt lat="22.899151" lon="109.267532">
        <ele>72.995842</ele>
        <time>2026-08-15T02:43:22.000Z</time>
      </trkpt>
      <trkpt lat="22.899147" lon="109.267586">
        <ele>72.966628</ele>
        <time>2026-08-15T02:43:23.000Z</time>
      </trkpt>
      <trkpt lat="22.899141" lon="109.267639">
        <ele>72.937833</ele>
        <time>2026-08-15T02:43:24.000Z</time>
      </trkpt>
      <trkpt lat="22.899136" lon="109.267694">
        <ele>72.908031</ele>
        <time>2026-08-15T02:43:25.000Z</time>
      </trkpt>
      <trkpt lat="22.899127" lon="109.267748">
        <ele>72.878439</ele>
        <time>2026-08-15T02:43:26.000Z</time>
      </trkpt>
      <trkpt lat="22.899116" lon="109.267802">
        <ele>72.848616</ele>
        <time>2026-08-15T02:43:27.000Z</time>
      </trkpt>
      <trkpt lat="22.899106" lon="109.267857">
        <ele>72.818385</ele>
        <time>2026-08-15T02:43:28.000Z</time>
      </trkpt>
      <trkpt lat="22.899093" lon="109.267914">
        <ele>72.786720</ele>
        <time>2026-08-15T02:43:29.000Z</time>
      </trkpt>
      <trkpt lat="22.899079" lon="109.267970">
        <ele>72.755430</ele>
        <time>2026-08-15T02:43:30.000Z</time>
      </trkpt>
      <trkpt lat="22.899064" lon="109.268027">
        <ele>72.723463</ele>
        <time>2026-08-15T02:43:31.000Z</time>
      </trkpt>
      <trkpt lat="22.899049" lon="109.268085">
        <ele>72.690978</ele>
        <time>2026-08-15T02:43:32.000Z</time>
      </trkpt>
      <trkpt lat="22.899034" lon="109.268143">
        <ele>72.641858</ele>
        <time>2026-08-15T02:43:33.000Z</time>
      </trkpt>
      <trkpt lat="22.899021" lon="109.268200">
        <ele>72.570746</ele>
        <time>2026-08-15T02:43:34.000Z</time>
      </trkpt>
      <trkpt lat="22.899004" lon="109.268257">
        <ele>72.498190</ele>
        <time>2026-08-15T02:43:35.000Z</time>
      </trkpt>
      <trkpt lat="22.898988" lon="109.268312">
        <ele>72.428341</ele>
        <time>2026-08-15T02:43:36.000Z</time>
      </trkpt>
      <trkpt lat="22.898974" lon="109.268368">
        <ele>72.358071</ele>
        <time>2026-08-15T02:43:37.000Z</time>
      </trkpt>
      <trkpt lat="22.898968" lon="109.268424">
        <ele>72.289796</ele>
        <time>2026-08-15T02:43:38.000Z</time>
      </trkpt>
      <trkpt lat="22.898966" lon="109.268477">
        <ele>72.225558</ele>
        <time>2026-08-15T02:43:39.000Z</time>
      </trkpt>
      <trkpt lat="22.898963" lon="109.268529">
        <ele>72.162461</ele>
        <time>2026-08-15T02:43:40.000Z</time>
      </trkpt>
      <trkpt lat="22.898958" lon="109.268581">
        <ele>72.099146</ele>
        <time>2026-08-15T02:43:41.000Z</time>
      </trkpt>
      <trkpt lat="22.898955" lon="109.268633">
        <ele>72.036049</ele>
        <time>2026-08-15T02:43:42.000Z</time>
      </trkpt>
      <trkpt lat="22.898952" lon="109.268685">
        <ele>71.972952</ele>
        <time>2026-08-15T02:43:43.000Z</time>
      </trkpt>
      <trkpt lat="22.898948" lon="109.268737">
        <ele>71.909760</ele>
        <time>2026-08-15T02:43:44.000Z</time>
      </trkpt>
      <trkpt lat="22.898946" lon="109.268793">
        <ele>71.841892</ele>
        <time>2026-08-15T02:43:45.000Z</time>
      </trkpt>
      <trkpt lat="22.898947" lon="109.268847">
        <ele>71.776483</ele>
        <time>2026-08-15T02:43:46.000Z</time>
      </trkpt>
      <trkpt lat="22.898944" lon="109.268900">
        <ele>71.712178</ele>
        <time>2026-08-15T02:43:47.000Z</time>
      </trkpt>
      <trkpt lat="22.898945" lon="109.268953">
        <ele>71.647980</ele>
        <time>2026-08-15T02:43:48.000Z</time>
      </trkpt>
      <trkpt lat="22.898946" lon="109.269006">
        <ele>71.583782</ele>
        <time>2026-08-15T02:43:49.000Z</time>
      </trkpt>
      <trkpt lat="22.898953" lon="109.269061">
        <ele>71.516543</ele>
        <time>2026-08-15T02:43:50.000Z</time>
      </trkpt>
      <trkpt lat="22.898961" lon="109.269116">
        <ele>71.449111</ele>
        <time>2026-08-15T02:43:51.000Z</time>
      </trkpt>
      <trkpt lat="22.898970" lon="109.269171">
        <ele>71.381462</ele>
        <time>2026-08-15T02:43:52.000Z</time>
      </trkpt>
      <trkpt lat="22.898984" lon="109.269221">
        <ele>71.318176</ele>
        <time>2026-08-15T02:43:53.000Z</time>
      </trkpt>
      <trkpt lat="22.899000" lon="109.269273">
        <ele>71.251782</ele>
        <time>2026-08-15T02:43:54.000Z</time>
      </trkpt>
      <trkpt lat="22.899019" lon="109.269325">
        <ele>71.184036</ele>
        <time>2026-08-15T02:43:55.000Z</time>
      </trkpt>
      <trkpt lat="22.899040" lon="109.269377">
        <ele>71.115277</ele>
        <time>2026-08-15T02:43:56.000Z</time>
      </trkpt>
      <trkpt lat="22.899063" lon="109.269433">
        <ele>71.041025</ele>
        <time>2026-08-15T02:43:57.000Z</time>
      </trkpt>
      <trkpt lat="22.899087" lon="109.269493">
        <ele>70.961809</ele>
        <time>2026-08-15T02:43:58.000Z</time>
      </trkpt>
      <trkpt lat="22.899113" lon="109.269554">
        <ele>70.880412</ele>
        <time>2026-08-15T02:43:59.000Z</time>
      </trkpt>
      <trkpt lat="22.899138" lon="109.269614">
        <ele>70.800663</ele>
        <time>2026-08-15T02:44:00.000Z</time>
      </trkpt>
      <trkpt lat="22.899161" lon="109.269669">
        <ele>70.727515</ele>
        <time>2026-08-15T02:44:01.000Z</time>
      </trkpt>
      <trkpt lat="22.899178" lon="109.269708">
        <ele>70.675265</ele>
        <time>2026-08-15T02:44:02.000Z</time>
      </trkpt>
      <trkpt lat="22.899191" lon="109.269744">
        <ele>70.628438</ele>
        <time>2026-08-15T02:44:03.000Z</time>
      </trkpt>
      <trkpt lat="22.899205" lon="109.269781">
        <ele>70.579997</ele>
        <time>2026-08-15T02:44:04.000Z</time>
      </trkpt>
      <trkpt lat="22.899219" lon="109.269815">
        <ele>70.534896</ele>
        <time>2026-08-15T02:44:05.000Z</time>
      </trkpt>
      <trkpt lat="22.899231" lon="109.269849">
        <ele>70.490803</ele>
        <time>2026-08-15T02:44:06.000Z</time>
      </trkpt>
      <trkpt lat="22.899244" lon="109.269884">
        <ele>70.445101</ele>
        <time>2026-08-15T02:44:07.000Z</time>
      </trkpt>
      <trkpt lat="22.899258" lon="109.269922">
        <ele>70.395539</ele>
        <time>2026-08-15T02:44:08.000Z</time>
      </trkpt>
      <trkpt lat="22.899273" lon="109.269960">
        <ele>70.345473</ele>
        <time>2026-08-15T02:44:09.000Z</time>
      </trkpt>
      <trkpt lat="22.899286" lon="109.270001">
        <ele>70.312725</ele>
        <time>2026-08-15T02:44:10.000Z</time>
      </trkpt>
      <trkpt lat="22.899302" lon="109.270042">
        <ele>70.333134</ele>
        <time>2026-08-15T02:44:11.000Z</time>
      </trkpt>
      <trkpt lat="22.899319" lon="109.270084">
        <ele>70.354162</ele>
        <time>2026-08-15T02:44:12.000Z</time>
      </trkpt>
      <trkpt lat="22.899336" lon="109.270124">
        <ele>70.374354</ele>
        <time>2026-08-15T02:44:13.000Z</time>
      </trkpt>
      <trkpt lat="22.899355" lon="109.270167">
        <ele>70.396213</ele>
        <time>2026-08-15T02:44:14.000Z</time>
      </trkpt>
      <trkpt lat="22.899373" lon="109.270211">
        <ele>70.418280</ele>
        <time>2026-08-15T02:44:15.000Z</time>
      </trkpt>
      <trkpt lat="22.899391" lon="109.270255">
        <ele>70.440348</ele>
        <time>2026-08-15T02:44:16.000Z</time>
      </trkpt>
      <trkpt lat="22.899414" lon="109.270295">
        <ele>70.461961</ele>
        <time>2026-08-15T02:44:17.000Z</time>
      </trkpt>
      <trkpt lat="22.899436" lon="109.270334">
        <ele>70.482922</ele>
        <time>2026-08-15T02:44:18.000Z</time>
      </trkpt>
      <trkpt lat="22.899456" lon="109.270372">
        <ele>70.502982</ele>
        <time>2026-08-15T02:44:19.000Z</time>
      </trkpt>
      <trkpt lat="22.899476" lon="109.270410">
        <ele>70.523043</ele>
        <time>2026-08-15T02:44:20.000Z</time>
      </trkpt>
      <trkpt lat="22.899493" lon="109.270445">
        <ele>70.541179</ele>
        <time>2026-08-15T02:44:21.000Z</time>
      </trkpt>
      <trkpt lat="22.899511" lon="109.270479">
        <ele>70.559153</ele>
        <time>2026-08-15T02:44:22.000Z</time>
      </trkpt>
      <trkpt lat="22.899526" lon="109.270517">
        <ele>70.578103</ele>
        <time>2026-08-15T02:44:23.000Z</time>
      </trkpt>
      <trkpt lat="22.899542" lon="109.270559">
        <ele>70.598935</ele>
        <time>2026-08-15T02:44:24.000Z</time>
      </trkpt>
      <trkpt lat="22.899557" lon="109.270600">
        <ele>70.619156</ele>
        <time>2026-08-15T02:44:25.000Z</time>
      </trkpt>
      <trkpt lat="22.899573" lon="109.270645">
        <ele>70.641265</ele>
        <time>2026-08-15T02:44:26.000Z</time>
      </trkpt>
      <trkpt lat="22.899590" lon="109.270689">
        <ele>70.663135</ele>
        <time>2026-08-15T02:44:27.000Z</time>
      </trkpt>
      <trkpt lat="22.899605" lon="109.270734">
        <ele>70.685070</ele>
        <time>2026-08-15T02:44:28.000Z</time>
      </trkpt>
      <trkpt lat="22.899617" lon="109.270778">
        <ele>70.706104</ele>
        <time>2026-08-15T02:44:29.000Z</time>
      </trkpt>
      <trkpt lat="22.899628" lon="109.270822">
        <ele>70.727001</ele>
        <time>2026-08-15T02:44:30.000Z</time>
      </trkpt>
      <trkpt lat="22.899640" lon="109.270867">
        <ele>70.748474</ele>
        <time>2026-08-15T02:44:31.000Z</time>
      </trkpt>
      <trkpt lat="22.899651" lon="109.270916">
        <ele>70.771591</ele>
        <time>2026-08-15T02:44:32.000Z</time>
      </trkpt>
      <trkpt lat="22.899659" lon="109.270965">
        <ele>70.794401</ele>
        <time>2026-08-15T02:44:33.000Z</time>
      </trkpt>
      <trkpt lat="22.899669" lon="109.271015">
        <ele>70.817853</ele>
        <time>2026-08-15T02:44:34.000Z</time>
      </trkpt>
      <trkpt lat="22.899678" lon="109.271066">
        <ele>70.841654</ele>
        <time>2026-08-15T02:44:35.000Z</time>
      </trkpt>
      <trkpt lat="22.899688" lon="109.271119">
        <ele>70.866452</ele>
        <time>2026-08-15T02:44:36.000Z</time>
      </trkpt>
      <trkpt lat="22.899700" lon="109.271170">
        <ele>70.890579</ele>
        <time>2026-08-15T02:44:37.000Z</time>
      </trkpt>
      <trkpt lat="22.899712" lon="109.271221">
        <ele>70.914706</ele>
        <time>2026-08-15T02:44:38.000Z</time>
      </trkpt>
      <trkpt lat="22.899725" lon="109.271271">
        <ele>70.938519</ele>
        <time>2026-08-15T02:44:39.000Z</time>
      </trkpt>
      <trkpt lat="22.899740" lon="109.271323">
        <ele>70.963495</ele>
        <time>2026-08-15T02:44:40.000Z</time>
      </trkpt>
      <trkpt lat="22.899756" lon="109.271370">
        <ele>70.986462</ele>
        <time>2026-08-15T02:44:41.000Z</time>
      </trkpt>
      <trkpt lat="22.899771" lon="109.271420">
        <ele>71.010565</ele>
        <time>2026-08-15T02:44:42.000Z</time>
      </trkpt>
      <trkpt lat="22.899784" lon="109.271469">
        <ele>71.033938</ele>
        <time>2026-08-15T02:44:43.000Z</time>
      </trkpt>
      <trkpt lat="22.899798" lon="109.271521">
        <ele>71.058769</ele>
        <time>2026-08-15T02:44:44.000Z</time>
      </trkpt>
      <trkpt lat="22.899812" lon="109.271569">
        <ele>71.081847</ele>
        <time>2026-08-15T02:44:45.000Z</time>
      </trkpt>
      <trkpt lat="22.899828" lon="109.271616">
        <ele>71.104814</ele>
        <time>2026-08-15T02:44:46.000Z</time>
      </trkpt>
      <trkpt lat="22.899843" lon="109.271666">
        <ele>71.128917</ele>
        <time>2026-08-15T02:44:47.000Z</time>
      </trkpt>
      <trkpt lat="22.899859" lon="109.271715">
        <ele>71.152746</ele>
        <time>2026-08-15T02:44:48.000Z</time>
      </trkpt>
      <trkpt lat="22.899878" lon="109.271764">
        <ele>71.177114</ele>
        <time>2026-08-15T02:44:49.000Z</time>
      </trkpt>
      <trkpt lat="22.899895" lon="109.271814">
        <ele>71.201543</ele>
        <time>2026-08-15T02:44:50.000Z</time>
      </trkpt>
      <trkpt lat="22.899913" lon="109.271865">
        <ele>71.219750</ele>
        <time>2026-08-15T02:44:51.000Z</time>
      </trkpt>
      <trkpt lat="22.899935" lon="109.271915">
        <ele>71.238017</ele>
        <time>2026-08-15T02:44:52.000Z</time>
      </trkpt>
      <trkpt lat="22.899956" lon="109.271965">
        <ele>71.256133</ele>
        <time>2026-08-15T02:44:53.000Z</time>
      </trkpt>
      <trkpt lat="22.899977" lon="109.272017">
        <ele>71.274851</ele>
        <time>2026-08-15T02:44:54.000Z</time>
      </trkpt>
      <trkpt lat="22.900000" lon="109.272066">
        <ele>71.292981</ele>
        <time>2026-08-15T02:44:55.000Z</time>
      </trkpt>
      <trkpt lat="22.900022" lon="109.272134">
        <ele>71.316741</ele>
        <time>2026-08-15T02:44:56.000Z</time>
      </trkpt>
      <trkpt lat="22.900041" lon="109.272190">
        <ele>71.336414</ele>
        <time>2026-08-15T02:44:57.000Z</time>
      </trkpt>
      <trkpt lat="22.900063" lon="109.272242">
        <ele>71.355279</ele>
        <time>2026-08-15T02:44:58.000Z</time>
      </trkpt>
      <trkpt lat="22.900087" lon="109.272292">
        <ele>71.373866</ele>
        <time>2026-08-15T02:44:59.000Z</time>
      </trkpt>
      <trkpt lat="22.900116" lon="109.272337">
        <ele>71.391971</ele>
        <time>2026-08-15T02:45:00.000Z</time>
      </trkpt>
      <trkpt lat="22.900144" lon="109.272385">
        <ele>71.410701</ele>
        <time>2026-08-15T02:45:01.000Z</time>
      </trkpt>
      <trkpt lat="22.900170" lon="109.272431">
        <ele>71.428493</ele>
        <time>2026-08-15T02:45:02.000Z</time>
      </trkpt>
      <trkpt lat="22.900192" lon="109.272473">
        <ele>71.444421</ele>
        <time>2026-08-15T02:45:03.000Z</time>
      </trkpt>
      <trkpt lat="22.900215" lon="109.272511">
        <ele>71.459410</ele>
        <time>2026-08-15T02:45:04.000Z</time>
      </trkpt>
      <trkpt lat="22.900238" lon="109.272548">
        <ele>71.474125</ele>
        <time>2026-08-15T02:45:05.000Z</time>
      </trkpt>
      <trkpt lat="22.900259" lon="109.272587">
        <ele>71.489018</ele>
        <time>2026-08-15T02:45:06.000Z</time>
      </trkpt>
      <trkpt lat="22.900281" lon="109.272626">
        <ele>71.504094</ele>
        <time>2026-08-15T02:45:07.000Z</time>
      </trkpt>
      <trkpt lat="22.900302" lon="109.272663">
        <ele>71.518421</ele>
        <time>2026-08-15T02:45:08.000Z</time>
      </trkpt>
      <trkpt lat="22.900324" lon="109.272699">
        <ele>71.532663</ele>
        <time>2026-08-15T02:45:09.000Z</time>
      </trkpt>
      <trkpt lat="22.900346" lon="109.272735">
        <ele>71.546905</ele>
        <time>2026-08-15T02:45:10.000Z</time>
      </trkpt>
      <trkpt lat="22.900367" lon="109.272776">
        <ele>71.562371</ele>
        <time>2026-08-15T02:45:11.000Z</time>
      </trkpt>
      <trkpt lat="22.900392" lon="109.272823">
        <ele>71.580263</ele>
        <time>2026-08-15T02:45:12.000Z</time>
      </trkpt>
      <trkpt lat="22.900416" lon="109.272864">
        <ele>71.596277</ele>
        <time>2026-08-15T02:45:13.000Z</time>
      </trkpt>
      <trkpt lat="22.900441" lon="109.272909">
        <ele>71.613601</ele>
        <time>2026-08-15T02:45:14.000Z</time>
      </trkpt>
      <trkpt lat="22.900467" lon="109.272954">
        <ele>71.631113</ele>
        <time>2026-08-15T02:45:15.000Z</time>
      </trkpt>
      <trkpt lat="22.900493" lon="109.273002">
        <ele>71.649470</ele>
        <time>2026-08-15T02:45:16.000Z</time>
      </trkpt>
      <trkpt lat="22.900520" lon="109.273048">
        <ele>71.667451</ele>
        <time>2026-08-15T02:45:17.000Z</time>
      </trkpt>
      <trkpt lat="22.900545" lon="109.273095">
        <ele>71.685343</ele>
        <time>2026-08-15T02:45:18.000Z</time>
      </trkpt>
      <trkpt lat="22.900571" lon="109.273143">
        <ele>71.703700</ele>
        <time>2026-08-15T02:45:19.000Z</time>
      </trkpt>
      <trkpt lat="22.900595" lon="109.273191">
        <ele>71.721705</ele>
        <time>2026-08-15T02:45:20.000Z</time>
      </trkpt>
      <trkpt lat="22.900619" lon="109.273237">
        <ele>71.739133</ele>
        <time>2026-08-15T02:45:21.000Z</time>
      </trkpt>
      <trkpt lat="22.900641" lon="109.273282">
        <ele>71.755928</ele>
        <time>2026-08-15T02:45:22.000Z</time>
      </trkpt>
      <trkpt lat="22.900666" lon="109.273327">
        <ele>71.773252</ele>
        <time>2026-08-15T02:45:23.000Z</time>
      </trkpt>
      <trkpt lat="22.900693" lon="109.273370">
        <ele>71.790408</ele>
        <time>2026-08-15T02:45:24.000Z</time>
      </trkpt>
      <trkpt lat="22.900717" lon="109.273415">
        <ele>71.807550</ele>
        <time>2026-08-15T02:45:25.000Z</time>
      </trkpt>
      <trkpt lat="22.900738" lon="109.273462">
        <ele>71.824771</ele>
        <time>2026-08-15T02:45:26.000Z</time>
      </trkpt>
      <trkpt lat="22.900759" lon="109.273511">
        <ele>71.842587</ele>
        <time>2026-08-15T02:45:27.000Z</time>
      </trkpt>
      <trkpt lat="22.900783" lon="109.273560">
        <ele>71.843000</ele>
        <time>2026-08-15T02:45:28.000Z</time>
      </trkpt>
      <trkpt lat="22.900808" lon="109.273609">
        <ele>71.839351</ele>
        <time>2026-08-15T02:45:29.000Z</time>
      </trkpt>
      <trkpt lat="22.900833" lon="109.273657">
        <ele>71.835760</ele>
        <time>2026-08-15T02:45:30.000Z</time>
      </trkpt>
      <trkpt lat="22.900857" lon="109.273705">
        <ele>71.832202</ele>
        <time>2026-08-15T02:45:31.000Z</time>
      </trkpt>
      <trkpt lat="22.900881" lon="109.273756">
        <ele>71.828472</ele>
        <time>2026-08-15T02:45:32.000Z</time>
      </trkpt>
      <trkpt lat="22.900905" lon="109.273805">
        <ele>71.824857</ele>
        <time>2026-08-15T02:45:33.000Z</time>
      </trkpt>
      <trkpt lat="22.900931" lon="109.273853">
        <ele>71.821230</ele>
        <time>2026-08-15T02:45:34.000Z</time>
      </trkpt>
      <trkpt lat="22.900956" lon="109.273903">
        <ele>71.817525</ele>
        <time>2026-08-15T02:45:35.000Z</time>
      </trkpt>
      <trkpt lat="22.900982" lon="109.273950">
        <ele>71.813954</ele>
        <time>2026-08-15T02:45:36.000Z</time>
      </trkpt>
      <trkpt lat="22.901009" lon="109.273996">
        <ele>71.810401</ele>
        <time>2026-08-15T02:45:37.000Z</time>
      </trkpt>
      <trkpt lat="22.901034" lon="109.274045">
        <ele>71.806753</ele>
        <time>2026-08-15T02:45:38.000Z</time>
      </trkpt>
      <trkpt lat="22.901057" lon="109.274089">
        <ele>71.803458</ele>
        <time>2026-08-15T02:45:39.000Z</time>
      </trkpt>
      <trkpt lat="22.901081" lon="109.274136">
        <ele>71.799957</ele>
        <time>2026-08-15T02:45:40.000Z</time>
      </trkpt>
      <trkpt lat="22.901106" lon="109.274181">
        <ele>71.796534</ele>
        <time>2026-08-15T02:45:41.000Z</time>
      </trkpt>
      <trkpt lat="22.901129" lon="109.274227">
        <ele>71.793125</ele>
        <time>2026-08-15T02:45:42.000Z</time>
      </trkpt>
      <trkpt lat="22.901152" lon="109.274272">
        <ele>71.789773</ele>
        <time>2026-08-15T02:45:43.000Z</time>
      </trkpt>
      <trkpt lat="22.901175" lon="109.274319">
        <ele>71.786307</ele>
        <time>2026-08-15T02:45:44.000Z</time>
      </trkpt>
      <trkpt lat="22.901199" lon="109.274364">
        <ele>71.782920</ele>
        <time>2026-08-15T02:45:45.000Z</time>
      </trkpt>
      <trkpt lat="22.901224" lon="109.274407">
        <ele>71.779608</ele>
        <time>2026-08-15T02:45:46.000Z</time>
      </trkpt>
      <trkpt lat="22.901249" lon="109.274449">
        <ele>71.776351</ele>
        <time>2026-08-15T02:45:47.000Z</time>
      </trkpt>
      <trkpt lat="22.901273" lon="109.274492">
        <ele>71.773076</ele>
        <time>2026-08-15T02:45:48.000Z</time>
      </trkpt>
      <trkpt lat="22.901301" lon="109.274536">
        <ele>71.769593</ele>
        <time>2026-08-15T02:45:49.000Z</time>
      </trkpt>
      <trkpt lat="22.901332" lon="109.274582">
        <ele>71.765880</ele>
        <time>2026-08-15T02:45:50.000Z</time>
      </trkpt>
      <trkpt lat="22.901362" lon="109.274628">
        <ele>71.762209</ele>
        <time>2026-08-15T02:45:51.000Z</time>
      </trkpt>
      <trkpt lat="22.901394" lon="109.274674">
        <ele>71.758455</ele>
        <time>2026-08-15T02:45:52.000Z</time>
      </trkpt>
      <trkpt lat="22.901426" lon="109.274720">
        <ele>71.754700</ele>
        <time>2026-08-15T02:45:53.000Z</time>
      </trkpt>
      <trkpt lat="22.901457" lon="109.274768">
        <ele>71.750882</ele>
        <time>2026-08-15T02:45:54.000Z</time>
      </trkpt>
      <trkpt lat="22.901489" lon="109.274816">
        <ele>71.747022</ele>
        <time>2026-08-15T02:45:55.000Z</time>
      </trkpt>
      <trkpt lat="22.901523" lon="109.274861">
        <ele>71.743231</ele>
        <time>2026-08-15T02:45:56.000Z</time>
      </trkpt>
      <trkpt lat="22.901556" lon="109.274907">
        <ele>71.739434</ele>
        <time>2026-08-15T02:45:57.000Z</time>
      </trkpt>
      <trkpt lat="22.901590" lon="109.274954">
        <ele>71.735541</ele>
        <time>2026-08-15T02:45:58.000Z</time>
      </trkpt>
      <trkpt lat="22.901624" lon="109.275009">
        <ele>71.731227</ele>
        <time>2026-08-15T02:45:59.000Z</time>
      </trkpt>
      <trkpt lat="22.901660" lon="109.275060">
        <ele>71.727042</ele>
        <time>2026-08-15T02:46:00.000Z</time>
      </trkpt>
      <trkpt lat="22.901694" lon="109.275111">
        <ele>71.722941</ele>
        <time>2026-08-15T02:46:01.000Z</time>
      </trkpt>
      <trkpt lat="22.901727" lon="109.275160">
        <ele>71.718988</ele>
        <time>2026-08-15T02:46:02.000Z</time>
      </trkpt>
      <trkpt lat="22.901762" lon="109.275210">
        <ele>71.706862</ele>
        <time>2026-08-15T02:46:03.000Z</time>
      </trkpt>
      <trkpt lat="22.901796" lon="109.275258">
        <ele>71.694735</ele>
        <time>2026-08-15T02:46:04.000Z</time>
      </trkpt>
      <trkpt lat="22.901832" lon="109.275306">
        <ele>71.682339</ele>
        <time>2026-08-15T02:46:05.000Z</time>
      </trkpt>
      <trkpt lat="22.901869" lon="109.275355">
        <ele>71.669651</ele>
        <time>2026-08-15T02:46:06.000Z</time>
      </trkpt>
      <trkpt lat="22.901905" lon="109.275406">
        <ele>71.656783</ele>
        <time>2026-08-15T02:46:07.000Z</time>
      </trkpt>
      <trkpt lat="22.901940" lon="109.275457">
        <ele>71.644047</ele>
        <time>2026-08-15T02:46:08.000Z</time>
      </trkpt>
      <trkpt lat="22.901976" lon="109.275509">
        <ele>71.631020</ele>
        <time>2026-08-15T02:46:09.000Z</time>
      </trkpt>
      <trkpt lat="22.902012" lon="109.275557">
        <ele>71.618624</ele>
        <time>2026-08-15T02:46:10.000Z</time>
      </trkpt>
      <trkpt lat="22.902047" lon="109.275608">
        <ele>71.605887</ele>
        <time>2026-08-15T02:46:11.000Z</time>
      </trkpt>
      <trkpt lat="22.902084" lon="109.275661">
        <ele>71.592569</ele>
        <time>2026-08-15T02:46:12.000Z</time>
      </trkpt>
      <trkpt lat="22.902123" lon="109.275710">
        <ele>71.579601</ele>
        <time>2026-08-15T02:46:13.000Z</time>
      </trkpt>
      <trkpt lat="22.902162" lon="109.275755">
        <ele>71.567227</ele>
        <time>2026-08-15T02:46:14.000Z</time>
      </trkpt>
      <trkpt lat="22.902199" lon="109.275802">
        <ele>71.554846</ele>
        <time>2026-08-15T02:46:15.000Z</time>
      </trkpt>
      <trkpt lat="22.902232" lon="109.275848">
        <ele>71.543169</ele>
        <time>2026-08-15T02:46:16.000Z</time>
      </trkpt>
      <trkpt lat="22.902264" lon="109.275897">
        <ele>71.531140</ele>
        <time>2026-08-15T02:46:17.000Z</time>
      </trkpt>
      <trkpt lat="22.902290" lon="109.275947">
        <ele>71.519642</ele>
        <time>2026-08-15T02:46:18.000Z</time>
      </trkpt>
      <trkpt lat="22.902316" lon="109.275998">
        <ele>71.507968</ele>
        <time>2026-08-15T02:46:19.000Z</time>
      </trkpt>
      <trkpt lat="22.902342" lon="109.276048">
        <ele>71.496470</ele>
        <time>2026-08-15T02:46:20.000Z</time>
      </trkpt>
      <trkpt lat="22.902364" lon="109.276091">
        <ele>71.486619</ele>
        <time>2026-08-15T02:46:21.000Z</time>
      </trkpt>
      <trkpt lat="22.902389" lon="109.276131">
        <ele>71.476939</ele>
        <time>2026-08-15T02:46:22.000Z</time>
      </trkpt>
      <trkpt lat="22.902416" lon="109.276169">
        <ele>71.467328</ele>
        <time>2026-08-15T02:46:23.000Z</time>
      </trkpt>
      <trkpt lat="22.902435" lon="109.276206">
        <ele>71.458844</ele>
        <time>2026-08-15T02:46:24.000Z</time>
      </trkpt>
      <trkpt lat="22.902450" lon="109.276244">
        <ele>71.450565</ele>
        <time>2026-08-15T02:46:25.000Z</time>
      </trkpt>
      <trkpt lat="22.902466" lon="109.276285">
        <ele>71.441647</ele>
        <time>2026-08-15T02:46:26.000Z</time>
      </trkpt>
      <trkpt lat="22.902482" lon="109.276325">
        <ele>71.432914</ele>
        <time>2026-08-15T02:46:27.000Z</time>
      </trkpt>
      <trkpt lat="22.902498" lon="109.276367">
        <ele>71.423812</ele>
        <time>2026-08-15T02:46:28.000Z</time>
      </trkpt>
      <trkpt lat="22.902514" lon="109.276411">
        <ele>71.414339</ele>
        <time>2026-08-15T02:46:29.000Z</time>
      </trkpt>
      <trkpt lat="22.902530" lon="109.276458">
        <ele>71.404304</ele>
        <time>2026-08-15T02:46:30.000Z</time>
      </trkpt>
      <trkpt lat="22.902544" lon="109.276506">
        <ele>71.394221</ele>
        <time>2026-08-15T02:46:31.000Z</time>
      </trkpt>
      <trkpt lat="22.902557" lon="109.276555">
        <ele>71.384009</ele>
        <time>2026-08-15T02:46:32.000Z</time>
      </trkpt>
      <trkpt lat="22.902570" lon="109.276605">
        <ele>71.373604</ele>
        <time>2026-08-15T02:46:33.000Z</time>
      </trkpt>
      <trkpt lat="22.902583" lon="109.276653">
        <ele>71.363585</ele>
        <time>2026-08-15T02:46:34.000Z</time>
      </trkpt>
      <trkpt lat="22.902593" lon="109.276704">
        <ele>71.353142</ele>
        <time>2026-08-15T02:46:35.000Z</time>
      </trkpt>
      <trkpt lat="22.902605" lon="109.276753">
        <ele>71.342988</ele>
        <time>2026-08-15T02:46:36.000Z</time>
      </trkpt>
      <trkpt lat="22.902614" lon="109.276802">
        <ele>71.332982</ele>
        <time>2026-08-15T02:46:37.000Z</time>
      </trkpt>
      <trkpt lat="22.902623" lon="109.276850">
        <ele>71.332800</ele>
        <time>2026-08-15T02:46:38.000Z</time>
      </trkpt>
      <trkpt lat="22.902633" lon="109.276900">
        <ele>71.344165</ele>
        <time>2026-08-15T02:46:39.000Z</time>
      </trkpt>
      <trkpt lat="22.902641" lon="109.276950">
        <ele>71.355438</ele>
        <time>2026-08-15T02:46:40.000Z</time>
      </trkpt>
      <trkpt lat="22.902651" lon="109.276999">
        <ele>71.366586</ele>
        <time>2026-08-15T02:46:41.000Z</time>
      </trkpt>
      <trkpt lat="22.902661" lon="109.277049">
        <ele>71.377951</ele>
        <time>2026-08-15T02:46:42.000Z</time>
      </trkpt>
      <trkpt lat="22.902670" lon="109.277101">
        <ele>71.389703</ele>
        <time>2026-08-15T02:46:43.000Z</time>
      </trkpt>
      <trkpt lat="22.902678" lon="109.277154">
        <ele>71.401633</ele>
        <time>2026-08-15T02:46:44.000Z</time>
      </trkpt>
      <trkpt lat="22.902686" lon="109.277207">
        <ele>71.413563</ele>
        <time>2026-08-15T02:46:45.000Z</time>
      </trkpt>
      <trkpt lat="22.902695" lon="109.277261">
        <ele>71.425752</ele>
        <time>2026-08-15T02:46:46.000Z</time>
      </trkpt>
      <trkpt lat="22.902701" lon="109.277316">
        <ele>71.438054</ele>
        <time>2026-08-15T02:46:47.000Z</time>
      </trkpt>
      <trkpt lat="22.902709" lon="109.277373">
        <ele>71.450861</ele>
        <time>2026-08-15T02:46:48.000Z</time>
      </trkpt>
      <trkpt lat="22.902715" lon="109.277428">
        <ele>71.463164</ele>
        <time>2026-08-15T02:46:49.000Z</time>
      </trkpt>
      <trkpt lat="22.902720" lon="109.277485">
        <ele>71.475882</ele>
        <time>2026-08-15T02:46:50.000Z</time>
      </trkpt>
      <trkpt lat="22.902724" lon="109.277544">
        <ele>71.489023</ele>
        <time>2026-08-15T02:46:51.000Z</time>
      </trkpt>
      <trkpt lat="22.902730" lon="109.277602">
        <ele>71.501987</ele>
        <time>2026-08-15T02:46:52.000Z</time>
      </trkpt>
      <trkpt lat="22.902736" lon="109.277660">
        <ele>71.514951</ele>
        <time>2026-08-15T02:46:53.000Z</time>
      </trkpt>
      <trkpt lat="22.902742" lon="109.277717">
        <ele>71.527695</ele>
        <time>2026-08-15T02:46:54.000Z</time>
      </trkpt>
      <trkpt lat="22.902749" lon="109.277774">
        <ele>71.540468</ele>
        <time>2026-08-15T02:46:55.000Z</time>
      </trkpt>
      <trkpt lat="22.902756" lon="109.277831">
        <ele>71.553241</ele>
        <time>2026-08-15T02:46:56.000Z</time>
      </trkpt>
      <trkpt lat="22.902762" lon="109.277888">
        <ele>71.565984</ele>
        <time>2026-08-15T02:46:57.000Z</time>
      </trkpt>
      <trkpt lat="22.902768" lon="109.277945">
        <ele>71.578728</ele>
        <time>2026-08-15T02:46:58.000Z</time>
      </trkpt>
      <trkpt lat="22.902774" lon="109.278001">
        <ele>71.591250</ele>
        <time>2026-08-15T02:46:59.000Z</time>
      </trkpt>
      <trkpt lat="22.902781" lon="109.278057">
        <ele>71.603803</ele>
        <time>2026-08-15T02:47:00.000Z</time>
      </trkpt>
      <trkpt lat="22.902787" lon="109.278112">
        <ele>71.616106</ele>
        <time>2026-08-15T02:47:01.000Z</time>
      </trkpt>
      <trkpt lat="22.902795" lon="109.278168">
        <ele>71.628693</ele>
        <time>2026-08-15T02:47:02.000Z</time>
      </trkpt>
      <trkpt lat="22.902803" lon="109.278224">
        <ele>71.641281</ele>
        <time>2026-08-15T02:47:03.000Z</time>
      </trkpt>
      <trkpt lat="22.902811" lon="109.278280">
        <ele>71.653868</ele>
        <time>2026-08-15T02:47:04.000Z</time>
      </trkpt>
      <trkpt lat="22.902819" lon="109.278336">
        <ele>71.666456</ele>
        <time>2026-08-15T02:47:05.000Z</time>
      </trkpt>
      <trkpt lat="22.902825" lon="109.278393">
        <ele>71.679200</ele>
        <time>2026-08-15T02:47:06.000Z</time>
      </trkpt>
      <trkpt lat="22.902829" lon="109.278449">
        <ele>71.691676</ele>
        <time>2026-08-15T02:47:07.000Z</time>
      </trkpt>
      <trkpt lat="22.902832" lon="109.278504">
        <ele>71.703914</ele>
        <time>2026-08-15T02:47:08.000Z</time>
      </trkpt>
      <trkpt lat="22.902837" lon="109.278563">
        <ele>71.717075</ele>
        <time>2026-08-15T02:47:09.000Z</time>
      </trkpt>
      <trkpt lat="22.902843" lon="109.278620">
        <ele>71.729818</ele>
        <time>2026-08-15T02:47:10.000Z</time>
      </trkpt>
      <trkpt lat="22.902852" lon="109.278677">
        <ele>71.742664</ele>
        <time>2026-08-15T02:47:11.000Z</time>
      </trkpt>
      <trkpt lat="22.902861" lon="109.278734">
        <ele>71.755510</ele>
        <time>2026-08-15T02:47:12.000Z</time>
      </trkpt>
      <trkpt lat="22.902869" lon="109.278792">
        <ele>71.758233</ele>
        <time>2026-08-15T02:47:13.000Z</time>
      </trkpt>
      <trkpt lat="22.902877" lon="109.278850">
        <ele>71.752320</ele>
        <time>2026-08-15T02:47:14.000Z</time>
      </trkpt>
      <trkpt lat="22.902886" lon="109.278907">
        <ele>71.746488</ele>
        <time>2026-08-15T02:47:15.000Z</time>
      </trkpt>
      <trkpt lat="22.902895" lon="109.278964">
        <ele>71.740657</ele>
        <time>2026-08-15T02:47:16.000Z</time>
      </trkpt>
      <trkpt lat="22.902905" lon="109.279020">
        <ele>71.734905</ele>
        <time>2026-08-15T02:47:17.000Z</time>
      </trkpt>
      <trkpt lat="22.902914" lon="109.279075">
        <ele>71.729272</ele>
        <time>2026-08-15T02:47:18.000Z</time>
      </trkpt>
      <trkpt lat="22.902923" lon="109.279128">
        <ele>71.723838</ele>
        <time>2026-08-15T02:47:19.000Z</time>
      </trkpt>
      <trkpt lat="22.902930" lon="109.279181">
        <ele>71.718439</ele>
        <time>2026-08-15T02:47:20.000Z</time>
      </trkpt>
      <trkpt lat="22.902938" lon="109.279233">
        <ele>71.713123</ele>
        <time>2026-08-15T02:47:21.000Z</time>
      </trkpt>
      <trkpt lat="22.902945" lon="109.279288">
        <ele>71.707525</ele>
        <time>2026-08-15T02:47:22.000Z</time>
      </trkpt>
      <trkpt lat="22.902955" lon="109.279343">
        <ele>71.701872</ele>
        <time>2026-08-15T02:47:23.000Z</time>
      </trkpt>
      <trkpt lat="22.902964" lon="109.279399">
        <ele>71.696140</ele>
        <time>2026-08-15T02:47:24.000Z</time>
      </trkpt>
      <trkpt lat="22.902971" lon="109.279457">
        <ele>71.690241</ele>
        <time>2026-08-15T02:47:25.000Z</time>
      </trkpt>
      <trkpt lat="22.902976" lon="109.279515">
        <ele>71.684367</ele>
        <time>2026-08-15T02:47:26.000Z</time>
      </trkpt>
      <trkpt lat="22.902982" lon="109.279572">
        <ele>71.678583</ele>
        <time>2026-08-15T02:47:27.000Z</time>
      </trkpt>
      <trkpt lat="22.902986" lon="109.279628">
        <ele>71.672919</ele>
        <time>2026-08-15T02:47:28.000Z</time>
      </trkpt>
      <trkpt lat="22.902992" lon="109.279683">
        <ele>71.667334</ele>
        <time>2026-08-15T02:47:29.000Z</time>
      </trkpt>
      <trkpt lat="22.902997" lon="109.279738">
        <ele>71.661761</ele>
        <time>2026-08-15T02:47:30.000Z</time>
      </trkpt>
      <trkpt lat="22.903003" lon="109.279794">
        <ele>71.656077</ele>
        <time>2026-08-15T02:47:31.000Z</time>
      </trkpt>
      <trkpt lat="22.903006" lon="109.279850">
        <ele>71.650420</ele>
        <time>2026-08-15T02:47:32.000Z</time>
      </trkpt>
      <trkpt lat="22.903008" lon="109.279904">
        <ele>71.644971</ele>
        <time>2026-08-15T02:47:33.000Z</time>
      </trkpt>
      <trkpt lat="22.903010" lon="109.279960">
        <ele>71.639320</ele>
        <time>2026-08-15T02:47:34.000Z</time>
      </trkpt>
      <trkpt lat="22.903012" lon="109.280017">
        <ele>71.633568</ele>
        <time>2026-08-15T02:47:35.000Z</time>
      </trkpt>
      <trkpt lat="22.903014" lon="109.280073">
        <ele>71.627917</ele>
        <time>2026-08-15T02:47:36.000Z</time>
      </trkpt>
      <trkpt lat="22.903017" lon="109.280130">
        <ele>71.622160</ele>
        <time>2026-08-15T02:47:37.000Z</time>
      </trkpt>
      <trkpt lat="22.903020" lon="109.280186">
        <ele>71.616504</ele>
        <time>2026-08-15T02:47:38.000Z</time>
      </trkpt>
      <trkpt lat="22.903022" lon="109.280243">
        <ele>71.610752</ele>
        <time>2026-08-15T02:47:39.000Z</time>
      </trkpt>
      <trkpt lat="22.903026" lon="109.280299">
        <ele>71.605089</ele>
        <time>2026-08-15T02:47:40.000Z</time>
      </trkpt>
      <trkpt lat="22.903036" lon="109.280352">
        <ele>71.599634</ele>
        <time>2026-08-15T02:47:41.000Z</time>
      </trkpt>
      <trkpt lat="22.903045" lon="109.280407">
        <ele>71.594001</ele>
        <time>2026-08-15T02:47:42.000Z</time>
      </trkpt>
      <trkpt lat="22.903053" lon="109.280465">
        <ele>71.588087</ele>
        <time>2026-08-15T02:47:43.000Z</time>
      </trkpt>
      <trkpt lat="22.903060" lon="109.280522">
        <ele>71.582289</ele>
        <time>2026-08-15T02:47:44.000Z</time>
      </trkpt>
      <trkpt lat="22.903071" lon="109.280579">
        <ele>71.576417</ele>
        <time>2026-08-15T02:47:45.000Z</time>
      </trkpt>
      <trkpt lat="22.903088" lon="109.280631">
        <ele>71.570853</ele>
        <time>2026-08-15T02:47:46.000Z</time>
      </trkpt>
      <trkpt lat="22.903101" lon="109.280688">
        <ele>71.564932</ele>
        <time>2026-08-15T02:47:47.000Z</time>
      </trkpt>
      <trkpt lat="22.903110" lon="109.280746">
        <ele>71.556303</ele>
        <time>2026-08-15T02:47:48.000Z</time>
      </trkpt>
      <trkpt lat="22.903118" lon="109.280804">
        <ele>71.547522</ele>
        <time>2026-08-15T02:47:49.000Z</time>
      </trkpt>
      <trkpt lat="22.903125" lon="109.280862">
        <ele>71.538763</ele>
        <time>2026-08-15T02:47:50.000Z</time>
      </trkpt>
      <trkpt lat="22.903133" lon="109.280919">
        <ele>71.530129</ele>
        <time>2026-08-15T02:47:51.000Z</time>
      </trkpt>
      <trkpt lat="22.903141" lon="109.280976">
        <ele>71.521496</ele>
        <time>2026-08-15T02:47:52.000Z</time>
      </trkpt>
      <trkpt lat="22.903150" lon="109.281033">
        <ele>71.512836</ele>
        <time>2026-08-15T02:47:53.000Z</time>
      </trkpt>
      <trkpt lat="22.903157" lon="109.281087">
        <ele>71.504671</ele>
        <time>2026-08-15T02:47:54.000Z</time>
      </trkpt>
      <trkpt lat="22.903168" lon="109.281142">
        <ele>71.496244</ele>
        <time>2026-08-15T02:47:55.000Z</time>
      </trkpt>
      <trkpt lat="22.903181" lon="109.281199">
        <ele>71.487451</ele>
        <time>2026-08-15T02:47:56.000Z</time>
      </trkpt>
      <trkpt lat="22.903195" lon="109.281255">
        <ele>71.478762</ele>
        <time>2026-08-15T02:47:57.000Z</time>
      </trkpt>
      <trkpt lat="22.903205" lon="109.281311">
        <ele>71.470221</ele>
        <time>2026-08-15T02:47:58.000Z</time>
      </trkpt>
      <trkpt lat="22.903216" lon="109.281370">
        <ele>71.461208</ele>
        <time>2026-08-15T02:47:59.000Z</time>
      </trkpt>
      <trkpt lat="22.903222" lon="109.281432">
        <ele>71.451873</ele>
        <time>2026-08-15T02:48:00.000Z</time>
      </trkpt>
      <trkpt lat="22.903224" lon="109.281493">
        <ele>71.442733</ele>
        <time>2026-08-15T02:48:01.000Z</time>
      </trkpt>
      <trkpt lat="22.903227" lon="109.281551">
        <ele>71.434035</ele>
        <time>2026-08-15T02:48:02.000Z</time>
      </trkpt>
      <trkpt lat="22.903231" lon="109.281613">
        <ele>71.424729</ele>
        <time>2026-08-15T02:48:03.000Z</time>
      </trkpt>
      <trkpt lat="22.903239" lon="109.281674">
        <ele>71.415503</ele>
        <time>2026-08-15T02:48:04.000Z</time>
      </trkpt>
      <trkpt lat="22.903245" lon="109.281737">
        <ele>71.406019</ele>
        <time>2026-08-15T02:48:05.000Z</time>
      </trkpt>
      <trkpt lat="22.903254" lon="109.281800">
        <ele>71.396473</ele>
        <time>2026-08-15T02:48:06.000Z</time>
      </trkpt>
      <trkpt lat="22.903262" lon="109.281861">
        <ele>71.387247</ele>
        <time>2026-08-15T02:48:07.000Z</time>
      </trkpt>
      <trkpt lat="22.903271" lon="109.281922">
        <ele>71.377997</ele>
        <time>2026-08-15T02:48:08.000Z</time>
      </trkpt>
      <trkpt lat="22.903281" lon="109.281980">
        <ele>71.369161</ele>
        <time>2026-08-15T02:48:09.000Z</time>
      </trkpt>
      <trkpt lat="22.903291" lon="109.282038">
        <ele>71.360326</ele>
        <time>2026-08-15T02:48:10.000Z</time>
      </trkpt>
      <trkpt lat="22.903299" lon="109.282097">
        <ele>71.351396</ele>
        <time>2026-08-15T02:48:11.000Z</time>
      </trkpt>
      <trkpt lat="22.903305" lon="109.282156">
        <ele>71.342508</ele>
        <time>2026-08-15T02:48:12.000Z</time>
      </trkpt>
      <trkpt lat="22.903308" lon="109.282215">
        <ele>71.333660</ele>
        <time>2026-08-15T02:48:13.000Z</time>
      </trkpt>
      <trkpt lat="22.903312" lon="109.282276">
        <ele>71.324503</ele>
        <time>2026-08-15T02:48:14.000Z</time>
      </trkpt>
      <trkpt lat="22.903318" lon="109.282339">
        <ele>71.315020</ele>
        <time>2026-08-15T02:48:15.000Z</time>
      </trkpt>
      <trkpt lat="22.903326" lon="109.282401">
        <ele>71.305645</ele>
        <time>2026-08-15T02:48:16.000Z</time>
      </trkpt>
      <trkpt lat="22.903332" lon="109.282462">
        <ele>71.296459</ele>
        <time>2026-08-15T02:48:17.000Z</time>
      </trkpt>
      <trkpt lat="22.903338" lon="109.282524">
        <ele>71.287125</ele>
        <time>2026-08-15T02:48:18.000Z</time>
      </trkpt>
      <trkpt lat="22.903347" lon="109.282585">
        <ele>71.277875</ele>
        <time>2026-08-15T02:48:19.000Z</time>
      </trkpt>
      <trkpt lat="22.903352" lon="109.282649">
        <ele>71.266953</ele>
        <time>2026-08-15T02:48:20.000Z</time>
      </trkpt>
      <trkpt lat="22.903356" lon="109.282710">
        <ele>71.254764</ele>
        <time>2026-08-15T02:48:21.000Z</time>
      </trkpt>
      <trkpt lat="22.903356" lon="109.282774">
        <ele>71.242007</ele>
        <time>2026-08-15T02:48:22.000Z</time>
      </trkpt>
      <trkpt lat="22.903359" lon="109.282836">
        <ele>71.229632</ele>
        <time>2026-08-15T02:48:23.000Z</time>
      </trkpt>
      <trkpt lat="22.903366" lon="109.282897">
        <ele>71.217379</ele>
        <time>2026-08-15T02:48:24.000Z</time>
      </trkpt>
      <trkpt lat="22.903372" lon="109.282956">
        <ele>71.205548</ele>
        <time>2026-08-15T02:48:25.000Z</time>
      </trkpt>
      <trkpt lat="22.903378" lon="109.283018">
        <ele>71.193121</ele>
        <time>2026-08-15T02:48:26.000Z</time>
      </trkpt>
      <trkpt lat="22.903383" lon="109.283080">
        <ele>71.180716</ele>
        <time>2026-08-15T02:48:27.000Z</time>
      </trkpt>
      <trkpt lat="22.903388" lon="109.283144">
        <ele>71.167913</ele>
        <time>2026-08-15T02:48:28.000Z</time>
      </trkpt>
      <trkpt lat="22.903392" lon="109.283205">
        <ele>71.155724</ele>
        <time>2026-08-15T02:48:29.000Z</time>
      </trkpt>
      <trkpt lat="22.903395" lon="109.283267">
        <ele>71.143349</ele>
        <time>2026-08-15T02:48:30.000Z</time>
      </trkpt>
      <trkpt lat="22.903400" lon="109.283330">
        <ele>71.130745</ele>
        <time>2026-08-15T02:48:31.000Z</time>
      </trkpt>
      <trkpt lat="22.903404" lon="109.283395">
        <ele>71.117760</ele>
        <time>2026-08-15T02:48:32.000Z</time>
      </trkpt>
      <trkpt lat="22.903410" lon="109.283459">
        <ele>71.104937</ele>
        <time>2026-08-15T02:48:33.000Z</time>
      </trkpt>
      <trkpt lat="22.903417" lon="109.283522">
        <ele>71.092289</ele>
        <time>2026-08-15T02:48:34.000Z</time>
      </trkpt>
      <trkpt lat="22.903424" lon="109.283586">
        <ele>71.079442</ele>
        <time>2026-08-15T02:48:35.000Z</time>
      </trkpt>
      <trkpt lat="22.903430" lon="109.283651">
        <ele>71.066421</ele>
        <time>2026-08-15T02:48:36.000Z</time>
      </trkpt>
      <trkpt lat="22.903436" lon="109.283715">
        <ele>71.053599</ele>
        <time>2026-08-15T02:48:37.000Z</time>
      </trkpt>
      <trkpt lat="22.903443" lon="109.283779">
        <ele>71.040752</ele>
        <time>2026-08-15T02:48:38.000Z</time>
      </trkpt>
      <trkpt lat="22.903449" lon="109.283843">
        <ele>71.027930</ele>
        <time>2026-08-15T02:48:39.000Z</time>
      </trkpt>
      <trkpt lat="22.903457" lon="109.283906">
        <ele>71.015254</ele>
        <time>2026-08-15T02:48:40.000Z</time>
      </trkpt>
      <trkpt lat="22.903464" lon="109.283967">
        <ele>71.003001</ele>
        <time>2026-08-15T02:48:41.000Z</time>
      </trkpt>
      <trkpt lat="22.903471" lon="109.284029">
        <ele>70.990550</ele>
        <time>2026-08-15T02:48:42.000Z</time>
      </trkpt>
      <trkpt lat="22.903477" lon="109.284091">
        <ele>70.978124</ele>
        <time>2026-08-15T02:48:43.000Z</time>
      </trkpt>
      <trkpt lat="22.903481" lon="109.284154">
        <ele>70.965537</ele>
        <time>2026-08-15T02:48:44.000Z</time>
      </trkpt>
      <trkpt lat="22.903486" lon="109.284220">
        <ele>70.952337</ele>
        <time>2026-08-15T02:48:45.000Z</time>
      </trkpt>
      <trkpt lat="22.903490" lon="109.284289">
        <ele>70.938556</ele>
        <time>2026-08-15T02:48:46.000Z</time>
      </trkpt>
      <trkpt lat="22.903496" lon="109.284359">
        <ele>70.924543</ele>
        <time>2026-08-15T02:48:47.000Z</time>
      </trkpt>
      <trkpt lat="22.903504" lon="109.284426">
        <ele>70.911077</ele>
        <time>2026-08-15T02:48:48.000Z</time>
      </trkpt>
      <trkpt lat="22.903512" lon="109.284492">
        <ele>70.897808</ele>
        <time>2026-08-15T02:48:49.000Z</time>
      </trkpt>
      <trkpt lat="22.903519" lon="109.284558">
        <ele>70.884566</ele>
        <time>2026-08-15T02:48:50.000Z</time>
      </trkpt>
      <trkpt lat="22.903524" lon="109.284625">
        <ele>70.877223</ele>
        <time>2026-08-15T02:48:51.000Z</time>
      </trkpt>
      <trkpt lat="22.903530" lon="109.284691">
        <ele>70.870772</ele>
        <time>2026-08-15T02:48:52.000Z</time>
      </trkpt>
      <trkpt lat="22.903536" lon="109.284757">
        <ele>70.864320</ele>
        <time>2026-08-15T02:48:53.000Z</time>
      </trkpt>
      <trkpt lat="22.903540" lon="109.284823">
        <ele>70.857885</ele>
        <time>2026-08-15T02:48:54.000Z</time>
      </trkpt>
      <trkpt lat="22.903548" lon="109.284889">
        <ele>70.851410</ele>
        <time>2026-08-15T02:48:55.000Z</time>
      </trkpt>
      <trkpt lat="22.903554" lon="109.284956">
        <ele>70.844861</ele>
        <time>2026-08-15T02:48:56.000Z</time>
      </trkpt>
      <trkpt lat="22.903561" lon="109.285022">
        <ele>70.838398</ele>
        <time>2026-08-15T02:48:57.000Z</time>
      </trkpt>
      <trkpt lat="22.903569" lon="109.285087">
        <ele>70.832019</ele>
        <time>2026-08-15T02:48:58.000Z</time>
      </trkpt>
      <trkpt lat="22.903575" lon="109.285154">
        <ele>70.825470</ele>
        <time>2026-08-15T02:48:59.000Z</time>
      </trkpt>
      <trkpt lat="22.903582" lon="109.285220">
        <ele>70.819007</ele>
        <time>2026-08-15T02:49:00.000Z</time>
      </trkpt>
      <trkpt lat="22.903589" lon="109.285288">
        <ele>70.812351</ele>
        <time>2026-08-15T02:49:01.000Z</time>
      </trkpt>
      <trkpt lat="22.903594" lon="109.285357">
        <ele>70.805618</ele>
        <time>2026-08-15T02:49:02.000Z</time>
      </trkpt>
      <trkpt lat="22.903603" lon="109.285425">
        <ele>70.798935</ele>
        <time>2026-08-15T02:49:03.000Z</time>
      </trkpt>
      <trkpt lat="22.903610" lon="109.285493">
        <ele>70.792279</ele>
        <time>2026-08-15T02:49:04.000Z</time>
      </trkpt>
      <trkpt lat="22.903618" lon="109.285561">
        <ele>70.785610</ele>
        <time>2026-08-15T02:49:05.000Z</time>
      </trkpt>
      <trkpt lat="22.903624" lon="109.285629">
        <ele>70.778964</ele>
        <time>2026-08-15T02:49:06.000Z</time>
      </trkpt>
      <trkpt lat="22.903631" lon="109.285699">
        <ele>70.772115</ele>
        <time>2026-08-15T02:49:07.000Z</time>
      </trkpt>
      <trkpt lat="22.903640" lon="109.285768">
        <ele>70.765335</ele>
        <time>2026-08-15T02:49:08.000Z</time>
      </trkpt>
      <trkpt lat="22.903648" lon="109.285835">
        <ele>70.758763</ele>
        <time>2026-08-15T02:49:09.000Z</time>
      </trkpt>
      <trkpt lat="22.903652" lon="109.285904">
        <ele>70.752037</ele>
        <time>2026-08-15T02:49:10.000Z</time>
      </trkpt>
      <trkpt lat="22.903656" lon="109.285973">
        <ele>70.745312</ele>
        <time>2026-08-15T02:49:11.000Z</time>
      </trkpt>
      <trkpt lat="22.903660" lon="109.286041">
        <ele>70.738683</ele>
        <time>2026-08-15T02:49:12.000Z</time>
      </trkpt>
      <trkpt lat="22.903666" lon="109.286109">
        <ele>70.732038</ele>
        <time>2026-08-15T02:49:13.000Z</time>
      </trkpt>
      <trkpt lat="22.903673" lon="109.286172">
        <ele>70.725865</ele>
        <time>2026-08-15T02:49:14.000Z</time>
      </trkpt>
      <trkpt lat="22.903680" lon="109.286236">
        <ele>70.719595</ele>
        <time>2026-08-15T02:49:15.000Z</time>
      </trkpt>
      <trkpt lat="22.903685" lon="109.286302">
        <ele>70.713153</ele>
        <time>2026-08-15T02:49:16.000Z</time>
      </trkpt>
      <trkpt lat="22.903689" lon="109.286365">
        <ele>70.707010</ele>
        <time>2026-08-15T02:49:17.000Z</time>
      </trkpt>
      <trkpt lat="22.903693" lon="109.286430">
        <ele>70.700672</ele>
        <time>2026-08-15T02:49:18.000Z</time>
      </trkpt>
      <trkpt lat="22.903697" lon="109.286495">
        <ele>70.694335</ele>
        <time>2026-08-15T02:49:19.000Z</time>
      </trkpt>
      <trkpt lat="22.903701" lon="109.286560">
        <ele>70.687393</ele>
        <time>2026-08-15T02:49:20.000Z</time>
      </trkpt>
      <trkpt lat="22.903708" lon="109.286626">
        <ele>70.680155</ele>
        <time>2026-08-15T02:49:21.000Z</time>
      </trkpt>
      <trkpt lat="22.903712" lon="109.286691">
        <ele>70.673059</ele>
        <time>2026-08-15T02:49:22.000Z</time>
      </trkpt>
      <trkpt lat="22.903715" lon="109.286750">
        <ele>70.666622</ele>
        <time>2026-08-15T02:49:23.000Z</time>
      </trkpt>
      <trkpt lat="22.903717" lon="109.286809">
        <ele>70.660190</ele>
        <time>2026-08-15T02:49:24.000Z</time>
      </trkpt>
      <trkpt lat="22.903719" lon="109.286865">
        <ele>70.654085</ele>
        <time>2026-08-15T02:49:25.000Z</time>
      </trkpt>
      <trkpt lat="22.903718" lon="109.286923">
        <ele>70.647765</ele>
        <time>2026-08-15T02:49:26.000Z</time>
      </trkpt>
      <trkpt lat="22.903715" lon="109.286981">
        <ele>70.641437</ele>
        <time>2026-08-15T02:49:27.000Z</time>
      </trkpt>
      <trkpt lat="22.903713" lon="109.287038">
        <ele>70.635223</ele>
        <time>2026-08-15T02:49:28.000Z</time>
      </trkpt>
      <trkpt lat="22.903706" lon="109.287093">
        <ele>70.629175</ele>
        <time>2026-08-15T02:49:29.000Z</time>
      </trkpt>
      <trkpt lat="22.903696" lon="109.287149">
        <ele>70.622961</ele>
        <time>2026-08-15T02:49:30.000Z</time>
      </trkpt>
      <trkpt lat="22.903685" lon="109.287203">
        <ele>70.616936</ele>
        <time>2026-08-15T02:49:31.000Z</time>
      </trkpt>
      <trkpt lat="22.903674" lon="109.287257">
        <ele>70.610911</ele>
        <time>2026-08-15T02:49:32.000Z</time>
      </trkpt>
      <trkpt lat="22.903665" lon="109.287310">
        <ele>70.605040</ele>
        <time>2026-08-15T02:49:33.000Z</time>
      </trkpt>
      <trkpt lat="22.903663" lon="109.287357">
        <ele>70.599915</ele>
        <time>2026-08-15T02:49:34.000Z</time>
      </trkpt>
      <trkpt lat="22.903661" lon="109.287404">
        <ele>70.594789</ele>
        <time>2026-08-15T02:49:35.000Z</time>
      </trkpt>
      <trkpt lat="22.903652" lon="109.287453">
        <ele>70.589347</ele>
        <time>2026-08-15T02:49:36.000Z</time>
      </trkpt>
      <trkpt lat="22.903635" lon="109.287502">
        <ele>70.583643</ele>
        <time>2026-08-15T02:49:37.000Z</time>
      </trkpt>
      <trkpt lat="22.903616" lon="109.287554">
        <ele>70.577548</ele>
        <time>2026-08-15T02:49:38.000Z</time>
      </trkpt>
      <trkpt lat="22.903597" lon="109.287604">
        <ele>70.571656</ele>
        <time>2026-08-15T02:49:39.000Z</time>
      </trkpt>
      <trkpt lat="22.903578" lon="109.287649">
        <ele>70.566264</ele>
        <time>2026-08-15T02:49:40.000Z</time>
      </trkpt>
      <trkpt lat="22.903563" lon="109.287688">
        <ele>70.561660</ele>
        <time>2026-08-15T02:49:41.000Z</time>
      </trkpt>
      <trkpt lat="22.903548" lon="109.287725">
        <ele>70.557256</ele>
        <time>2026-08-15T02:49:42.000Z</time>
      </trkpt>
      <trkpt lat="22.903534" lon="109.287764">
        <ele>70.552696</ele>
        <time>2026-08-15T02:49:43.000Z</time>
      </trkpt>
      <trkpt lat="22.903523" lon="109.287803">
        <ele>70.548253</ele>
        <time>2026-08-15T02:49:44.000Z</time>
      </trkpt>
      <trkpt lat="22.903510" lon="109.287847">
        <ele>70.543219</ele>
        <time>2026-08-15T02:49:45.000Z</time>
      </trkpt>
      <trkpt lat="22.903493" lon="109.287893">
        <ele>70.537820</ele>
        <time>2026-08-15T02:49:46.000Z</time>
      </trkpt>
      <trkpt lat="22.903476" lon="109.287941">
        <ele>70.532218</ele>
        <time>2026-08-15T02:49:47.000Z</time>
      </trkpt>
      <trkpt lat="22.903459" lon="109.287989">
        <ele>70.526616</ele>
        <time>2026-08-15T02:49:48.000Z</time>
      </trkpt>
      <trkpt lat="22.903444" lon="109.288037">
        <ele>70.521094</ele>
        <time>2026-08-15T02:49:49.000Z</time>
      </trkpt>
      <trkpt lat="22.903430" lon="109.288088">
        <ele>70.515297</ele>
        <time>2026-08-15T02:49:50.000Z</time>
      </trkpt>
      <trkpt lat="22.903418" lon="109.288138">
        <ele>70.509668</ele>
        <time>2026-08-15T02:49:51.000Z</time>
      </trkpt>
      <trkpt lat="22.903405" lon="109.288190">
        <ele>70.503798</ele>
        <time>2026-08-15T02:49:52.000Z</time>
      </trkpt>
      <trkpt lat="22.903394" lon="109.288243">
        <ele>70.497880</ele>
        <time>2026-08-15T02:49:53.000Z</time>
      </trkpt>
      <trkpt lat="22.903387" lon="109.288298">
        <ele>70.491832</ele>
        <time>2026-08-15T02:49:54.000Z</time>
      </trkpt>
      <trkpt lat="22.903382" lon="109.288353">
        <ele>70.485811</ele>
        <time>2026-08-15T02:49:55.000Z</time>
      </trkpt>
      <trkpt lat="22.903380" lon="109.288409">
        <ele>70.481417</ele>
        <time>2026-08-15T02:49:56.000Z</time>
      </trkpt>
      <trkpt lat="22.903380" lon="109.288466">
        <ele>70.491964</ele>
        <time>2026-08-15T02:49:57.000Z</time>
      </trkpt>
      <trkpt lat="22.903383" lon="109.288522">
        <ele>70.502343</ele>
        <time>2026-08-15T02:49:58.000Z</time>
      </trkpt>
      <trkpt lat="22.903388" lon="109.288580">
        <ele>70.513122</ele>
        <time>2026-08-15T02:49:59.000Z</time>
      </trkpt>
      <trkpt lat="22.903395" lon="109.288638">
        <ele>70.523946</ele>
        <time>2026-08-15T02:50:00.000Z</time>
      </trkpt>
      <trkpt lat="22.903404" lon="109.288694">
        <ele>70.534464</ele>
        <time>2026-08-15T02:50:01.000Z</time>
      </trkpt>
      <trkpt lat="22.903415" lon="109.288750">
        <ele>70.545059</ele>
        <time>2026-08-15T02:50:02.000Z</time>
      </trkpt>
      <trkpt lat="22.903427" lon="109.288805">
        <ele>70.555518</ele>
        <time>2026-08-15T02:50:03.000Z</time>
      </trkpt>
      <trkpt lat="22.903440" lon="109.288861">
        <ele>70.566204</ele>
        <time>2026-08-15T02:50:04.000Z</time>
      </trkpt>
      <trkpt lat="22.903452" lon="109.288918">
        <ele>70.577023</ele>
        <time>2026-08-15T02:50:05.000Z</time>
      </trkpt>
      <trkpt lat="22.903466" lon="109.288976">
        <ele>70.588117</ele>
        <time>2026-08-15T02:50:06.000Z</time>
      </trkpt>
      <trkpt lat="22.903479" lon="109.289034">
        <ele>70.599163</ele>
        <time>2026-08-15T02:50:07.000Z</time>
      </trkpt>
      <trkpt lat="22.903491" lon="109.289091">
        <ele>70.609982</ele>
        <time>2026-08-15T02:50:08.000Z</time>
      </trkpt>
      <trkpt lat="22.903505" lon="109.289147">
        <ele>70.620718</ele>
        <time>2026-08-15T02:50:09.000Z</time>
      </trkpt>
      <trkpt lat="22.903518" lon="109.289202">
        <ele>70.631225</ele>
        <time>2026-08-15T02:50:10.000Z</time>
      </trkpt>
      <trkpt lat="22.903532" lon="109.289257">
        <ele>70.641783</ele>
        <time>2026-08-15T02:50:11.000Z</time>
      </trkpt>
      <trkpt lat="22.903545" lon="109.289315">
        <ele>70.652829</ele>
        <time>2026-08-15T02:50:12.000Z</time>
      </trkpt>
      <trkpt lat="22.903557" lon="109.289372">
        <ele>70.663648</ele>
        <time>2026-08-15T02:50:13.000Z</time>
      </trkpt>
      <trkpt lat="22.903570" lon="109.289428">
        <ele>70.674334</ele>
        <time>2026-08-15T02:50:14.000Z</time>
      </trkpt>
      <trkpt lat="22.903584" lon="109.289485">
        <ele>70.685249</ele>
        <time>2026-08-15T02:50:15.000Z</time>
      </trkpt>
      <trkpt lat="22.903598" lon="109.289541">
        <ele>70.695986</ele>
        <time>2026-08-15T02:50:16.000Z</time>
      </trkpt>
      <trkpt lat="22.903612" lon="109.289598">
        <ele>70.706901</ele>
        <time>2026-08-15T02:50:17.000Z</time>
      </trkpt>
      <trkpt lat="22.903626" lon="109.289655">
        <ele>70.717817</ele>
        <time>2026-08-15T02:50:18.000Z</time>
      </trkpt>
      <trkpt lat="22.903637" lon="109.289713">
        <ele>70.728774</ele>
        <time>2026-08-15T02:50:19.000Z</time>
      </trkpt>
      <trkpt lat="22.903649" lon="109.289769">
        <ele>70.739413</ele>
        <time>2026-08-15T02:50:20.000Z</time>
      </trkpt>
      <trkpt lat="22.903662" lon="109.289826">
        <ele>70.750278</ele>
        <time>2026-08-15T02:50:21.000Z</time>
      </trkpt>
      <trkpt lat="22.903676" lon="109.289883">
        <ele>70.761194</ele>
        <time>2026-08-15T02:50:22.000Z</time>
      </trkpt>
      <trkpt lat="22.903689" lon="109.289942">
        <ele>70.772419</ele>
        <time>2026-08-15T02:50:23.000Z</time>
      </trkpt>
      <trkpt lat="22.903700" lon="109.289998">
        <ele>70.783014</ele>
        <time>2026-08-15T02:50:24.000Z</time>
      </trkpt>
      <trkpt lat="22.903713" lon="109.290055">
        <ele>70.793879</ele>
        <time>2026-08-15T02:50:25.000Z</time>
      </trkpt>
      <trkpt lat="22.903726" lon="109.290112">
        <ele>70.804745</ele>
        <time>2026-08-15T02:50:26.000Z</time>
      </trkpt>
      <trkpt lat="22.903738" lon="109.290170">
        <ele>70.815744</ele>
        <time>2026-08-15T02:50:27.000Z</time>
      </trkpt>
      <trkpt lat="22.903750" lon="109.290228">
        <ele>70.826744</ele>
        <time>2026-08-15T02:50:28.000Z</time>
      </trkpt>
      <trkpt lat="22.903762" lon="109.290287">
        <ele>70.837924</ele>
        <time>2026-08-15T02:50:29.000Z</time>
      </trkpt>
      <trkpt lat="22.903775" lon="109.290347">
        <ele>70.829266</ele>
        <time>2026-08-15T02:50:30.000Z</time>
      </trkpt>
      <trkpt lat="22.903790" lon="109.290406">
        <ele>70.811050</ele>
        <time>2026-08-15T02:50:31.000Z</time>
      </trkpt>
      <trkpt lat="22.903804" lon="109.290466">
        <ele>70.792629</ele>
        <time>2026-08-15T02:50:32.000Z</time>
      </trkpt>
      <trkpt lat="22.903818" lon="109.290527">
        <ele>70.773919</ele>
        <time>2026-08-15T02:50:33.000Z</time>
      </trkpt>
      <trkpt lat="22.903831" lon="109.290590">
        <ele>70.754705</ele>
        <time>2026-08-15T02:50:34.000Z</time>
      </trkpt>
      <trkpt lat="22.903843" lon="109.290651">
        <ele>70.736141</ele>
        <time>2026-08-15T02:50:35.000Z</time>
      </trkpt>
      <trkpt lat="22.903855" lon="109.290713">
        <ele>70.717285</ele>
        <time>2026-08-15T02:50:36.000Z</time>
      </trkpt>
      <trkpt lat="22.903868" lon="109.290776">
        <ele>70.698071</ele>
        <time>2026-08-15T02:50:37.000Z</time>
      </trkpt>
      <trkpt lat="22.903879" lon="109.290838">
        <ele>70.679279</ele>
        <time>2026-08-15T02:50:38.000Z</time>
      </trkpt>
      <trkpt lat="22.903890" lon="109.290898">
        <ele>70.661072</ele>
        <time>2026-08-15T02:50:39.000Z</time>
      </trkpt>
      <trkpt lat="22.903899" lon="109.290958">
        <ele>70.642979</ele>
        <time>2026-08-15T02:50:40.000Z</time>
      </trkpt>
      <trkpt lat="22.903910" lon="109.291018">
        <ele>70.624772</ele>
        <time>2026-08-15T02:50:41.000Z</time>
      </trkpt>
      <trkpt lat="22.903922" lon="109.291077">
        <ele>70.606790</ele>
        <time>2026-08-15T02:50:42.000Z</time>
      </trkpt>
      <trkpt lat="22.903934" lon="109.291137">
        <ele>70.588516</ele>
        <time>2026-08-15T02:50:43.000Z</time>
      </trkpt>
      <trkpt lat="22.903945" lon="109.291195">
        <ele>70.570892</ele>
        <time>2026-08-15T02:50:44.000Z</time>
      </trkpt>
      <trkpt lat="22.903955" lon="109.291256">
        <ele>70.552452</ele>
        <time>2026-08-15T02:50:45.000Z</time>
      </trkpt>
      <trkpt lat="22.903964" lon="109.291316">
        <ele>70.534360</ele>
        <time>2026-08-15T02:50:46.000Z</time>
      </trkpt>
      <trkpt lat="22.903973" lon="109.291377">
        <ele>70.515974</ele>
        <time>2026-08-15T02:50:47.000Z</time>
      </trkpt>
      <trkpt lat="22.903985" lon="109.291435">
        <ele>70.498282</ele>
        <time>2026-08-15T02:50:48.000Z</time>
      </trkpt>
      <trkpt lat="22.904000" lon="109.291495">
        <ele>70.479779</ele>
        <time>2026-08-15T02:50:49.000Z</time>
      </trkpt>
      <trkpt lat="22.904013" lon="109.291553">
        <ele>70.462013</ele>
        <time>2026-08-15T02:50:50.000Z</time>
      </trkpt>
      <trkpt lat="22.904026" lon="109.291612">
        <ele>70.443959</ele>
        <time>2026-08-15T02:50:51.000Z</time>
      </trkpt>
      <trkpt lat="22.904038" lon="109.291672">
        <ele>70.425685</ele>
        <time>2026-08-15T02:50:52.000Z</time>
      </trkpt>
      <trkpt lat="22.904049" lon="109.291734">
        <ele>70.406894</ele>
        <time>2026-08-15T02:50:53.000Z</time>
      </trkpt>
      <trkpt lat="22.904057" lon="109.291798">
        <ele>70.387672</ele>
        <time>2026-08-15T02:50:54.000Z</time>
      </trkpt>
      <trkpt lat="22.904065" lon="109.291861">
        <ele>70.368745</ele>
        <time>2026-08-15T02:50:55.000Z</time>
      </trkpt>
      <trkpt lat="22.904072" lon="109.291922">
        <ele>70.350449</ele>
        <time>2026-08-15T02:50:56.000Z</time>
      </trkpt>
      <trkpt lat="22.904081" lon="109.291982">
        <ele>70.332357</ele>
        <time>2026-08-15T02:50:57.000Z</time>
      </trkpt>
      <trkpt lat="22.904094" lon="109.292042">
        <ele>70.314013</ele>
        <time>2026-08-15T02:50:58.000Z</time>
      </trkpt>
      <trkpt lat="22.904111" lon="109.292101">
        <ele>70.295614</ele>
        <time>2026-08-15T02:50:59.000Z</time>
      </trkpt>
      <trkpt lat="22.904129" lon="109.292159">
        <ele>70.277399</ele>
        <time>2026-08-15T02:51:00.000Z</time>
      </trkpt>
      <trkpt lat="22.904149" lon="109.292217">
        <ele>70.260323</ele>
        <time>2026-08-15T02:51:01.000Z</time>
      </trkpt>
      <trkpt lat="22.904169" lon="109.292274">
        <ele>70.258113</ele>
        <time>2026-08-15T02:51:02.000Z</time>
      </trkpt>
      <trkpt lat="22.904191" lon="109.292331">
        <ele>70.255875</ele>
        <time>2026-08-15T02:51:03.000Z</time>
      </trkpt>
      <trkpt lat="22.904213" lon="109.292387">
        <ele>70.253669</ele>
        <time>2026-08-15T02:51:04.000Z</time>
      </trkpt>
      <trkpt lat="22.904237" lon="109.292442">
        <ele>70.251465</ele>
        <time>2026-08-15T02:51:05.000Z</time>
      </trkpt>
      <trkpt lat="22.904262" lon="109.292500">
        <ele>70.249145</ele>
        <time>2026-08-15T02:51:06.000Z</time>
      </trkpt>
      <trkpt lat="22.904287" lon="109.292560">
        <ele>70.246759</ele>
        <time>2026-08-15T02:51:07.000Z</time>
      </trkpt>
      <trkpt lat="22.904313" lon="109.292617">
        <ele>70.244455</ele>
        <time>2026-08-15T02:51:08.000Z</time>
      </trkpt>
      <trkpt lat="22.904338" lon="109.292673">
        <ele>70.242201</ele>
        <time>2026-08-15T02:51:09.000Z</time>
      </trkpt>
      <trkpt lat="22.904362" lon="109.292730">
        <ele>70.239931</ele>
        <time>2026-08-15T02:51:10.000Z</time>
      </trkpt>
      <trkpt lat="22.904387" lon="109.292787">
        <ele>70.237644</ele>
        <time>2026-08-15T02:51:11.000Z</time>
      </trkpt>
      <trkpt lat="22.904414" lon="109.292842">
        <ele>70.235386</ele>
        <time>2026-08-15T02:51:12.000Z</time>
      </trkpt>
      <trkpt lat="22.904442" lon="109.292899">
        <ele>70.233046</ele>
        <time>2026-08-15T02:51:13.000Z</time>
      </trkpt>
      <trkpt lat="22.904467" lon="109.292957">
        <ele>70.230726</ele>
        <time>2026-08-15T02:51:14.000Z</time>
      </trkpt>
      <trkpt lat="22.904490" lon="109.293015">
        <ele>70.228439</ele>
        <time>2026-08-15T02:51:15.000Z</time>
      </trkpt>
      <trkpt lat="22.904513" lon="109.293072">
        <ele>70.226184</ele>
        <time>2026-08-15T02:51:16.000Z</time>
      </trkpt>
      <trkpt lat="22.904536" lon="109.293130">
        <ele>70.223897</ele>
        <time>2026-08-15T02:51:17.000Z</time>
      </trkpt>
      <trkpt lat="22.904559" lon="109.293188">
        <ele>70.221609</ele>
        <time>2026-08-15T02:51:18.000Z</time>
      </trkpt>
      <trkpt lat="22.904581" lon="109.293246">
        <ele>70.219337</ele>
        <time>2026-08-15T02:51:19.000Z</time>
      </trkpt>
      <trkpt lat="22.904604" lon="109.293304">
        <ele>70.217050</ele>
        <time>2026-08-15T02:51:20.000Z</time>
      </trkpt>
      <trkpt lat="22.904625" lon="109.293363">
        <ele>70.214758</ele>
        <time>2026-08-15T02:51:21.000Z</time>
      </trkpt>
      <trkpt lat="22.904643" lon="109.293422">
        <ele>70.212507</ele>
        <time>2026-08-15T02:51:22.000Z</time>
      </trkpt>
      <trkpt lat="22.904660" lon="109.293482">
        <ele>70.210233</ele>
        <time>2026-08-15T02:51:23.000Z</time>
      </trkpt>
      <trkpt lat="22.904674" lon="109.293541">
        <ele>70.208026</ele>
        <time>2026-08-15T02:51:24.000Z</time>
      </trkpt>
      <trkpt lat="22.904690" lon="109.293598">
        <ele>70.205867</ele>
        <time>2026-08-15T02:51:25.000Z</time>
      </trkpt>
      <trkpt lat="22.904704" lon="109.293655">
        <ele>70.203730</ele>
        <time>2026-08-15T02:51:26.000Z</time>
      </trkpt>
      <trkpt lat="22.904717" lon="109.293711">
        <ele>70.201638</ele>
        <time>2026-08-15T02:51:27.000Z</time>
      </trkpt>
      <trkpt lat="22.904728" lon="109.293768">
        <ele>70.199529</ele>
        <time>2026-08-15T02:51:28.000Z</time>
      </trkpt>
      <trkpt lat="22.904737" lon="109.293824">
        <ele>70.197469</ele>
        <time>2026-08-15T02:51:29.000Z</time>
      </trkpt>
      <trkpt lat="22.904747" lon="109.293880">
        <ele>70.195403</ele>
        <time>2026-08-15T02:51:30.000Z</time>
      </trkpt>
      <trkpt lat="22.904755" lon="109.293934">
        <ele>70.193422</ele>
        <time>2026-08-15T02:51:31.000Z</time>
      </trkpt>
      <trkpt lat="22.904762" lon="109.293984">
        <ele>70.191590</ele>
        <time>2026-08-15T02:51:32.000Z</time>
      </trkpt>
      <trkpt lat="22.904769" lon="109.294036">
        <ele>70.190714</ele>
        <time>2026-08-15T02:51:33.000Z</time>
      </trkpt>
      <trkpt lat="22.904775" lon="109.294089">
        <ele>70.210488</ele>
        <time>2026-08-15T02:51:34.000Z</time>
      </trkpt>
      <trkpt lat="22.904780" lon="109.294141">
        <ele>70.229849</ele>
        <time>2026-08-15T02:51:35.000Z</time>
      </trkpt>
      <trkpt lat="22.904785" lon="109.294195">
        <ele>70.249946</ele>
        <time>2026-08-15T02:51:36.000Z</time>
      </trkpt>
      <trkpt lat="22.904790" lon="109.294247">
        <ele>70.269307</ele>
        <time>2026-08-15T02:51:37.000Z</time>
      </trkpt>
      <trkpt lat="22.904795" lon="109.294302">
        <ele>70.289773</ele>
        <time>2026-08-15T02:51:38.000Z</time>
      </trkpt>
      <trkpt lat="22.904799" lon="109.294356">
        <ele>70.309835</ele>
        <time>2026-08-15T02:51:39.000Z</time>
      </trkpt>
      <trkpt lat="22.904802" lon="109.294410">
        <ele>70.329868</ele>
        <time>2026-08-15T02:51:40.000Z</time>
      </trkpt>
      <trkpt lat="22.904805" lon="109.294463">
        <ele>70.349532</ele>
        <time>2026-08-15T02:51:41.000Z</time>
      </trkpt>
      <trkpt lat="22.904809" lon="109.294515">
        <ele>70.368855</ele>
        <time>2026-08-15T02:51:42.000Z</time>
      </trkpt>
      <trkpt lat="22.904809" lon="109.294569">
        <ele>70.388852</ele>
        <time>2026-08-15T02:51:43.000Z</time>
      </trkpt>
      <trkpt lat="22.904813" lon="109.294626">
        <ele>70.410021</ele>
        <time>2026-08-15T02:51:44.000Z</time>
      </trkpt>
      <trkpt lat="22.904819" lon="109.294682">
        <ele>70.430898</ele>
        <time>2026-08-15T02:51:45.000Z</time>
      </trkpt>
      <trkpt lat="22.904823" lon="109.294737">
        <ele>70.451329</ele>
        <time>2026-08-15T02:51:46.000Z</time>
      </trkpt>
      <trkpt lat="22.904826" lon="109.294792">
        <ele>70.471731</ele>
        <time>2026-08-15T02:51:47.000Z</time>
      </trkpt>
      <trkpt lat="22.904826" lon="109.294849">
        <ele>70.492839</ele>
        <time>2026-08-15T02:51:48.000Z</time>
      </trkpt>
      <trkpt lat="22.904827" lon="109.294905">
        <ele>70.513581</ele>
        <time>2026-08-15T02:51:49.000Z</time>
      </trkpt>
      <trkpt lat="22.904828" lon="109.294961">
        <ele>70.534322</ele>
        <time>2026-08-15T02:51:50.000Z</time>
      </trkpt>
      <trkpt lat="22.904831" lon="109.295017">
        <ele>70.555095</ele>
        <time>2026-08-15T02:51:51.000Z</time>
      </trkpt>
      <trkpt lat="22.904836" lon="109.295072">
        <ele>70.575561</ele>
        <time>2026-08-15T02:51:52.000Z</time>
      </trkpt>
      <trkpt lat="22.904838" lon="109.295128">
        <ele>70.596314</ele>
        <time>2026-08-15T02:51:53.000Z</time>
      </trkpt>
      <trkpt lat="22.904840" lon="109.295182">
        <ele>70.616327</ele>
        <time>2026-08-15T02:51:54.000Z</time>
      </trkpt>
      <trkpt lat="22.904840" lon="109.295235">
        <ele>70.635953</ele>
        <time>2026-08-15T02:51:55.000Z</time>
      </trkpt>
      <trkpt lat="22.904840" lon="109.295290">
        <ele>70.656320</ele>
        <time>2026-08-15T02:51:56.000Z</time>
      </trkpt>
      <trkpt lat="22.904838" lon="109.295346">
        <ele>70.677074</ele>
        <time>2026-08-15T02:51:57.000Z</time>
      </trkpt>
      <trkpt lat="22.904835" lon="109.295403">
        <ele>70.698216</ele>
        <time>2026-08-15T02:51:58.000Z</time>
      </trkpt>
      <trkpt lat="22.904833" lon="109.295460">
        <ele>70.719339</ele>
        <time>2026-08-15T02:51:59.000Z</time>
      </trkpt>
      <trkpt lat="22.904831" lon="109.295515">
        <ele>70.739722</ele>
        <time>2026-08-15T02:52:00.000Z</time>
      </trkpt>
      <trkpt lat="22.904829" lon="109.295573">
        <ele>70.761215</ele>
        <time>2026-08-15T02:52:01.000Z</time>
      </trkpt>
      <trkpt lat="22.904826" lon="109.295630">
        <ele>70.782357</ele>
        <time>2026-08-15T02:52:02.000Z</time>
      </trkpt>
      <trkpt lat="22.904823" lon="109.295688">
        <ele>70.803869</ele>
        <time>2026-08-15T02:52:03.000Z</time>
      </trkpt>
      <trkpt lat="22.904819" lon="109.295744">
        <ele>70.824669</ele>
        <time>2026-08-15T02:52:04.000Z</time>
      </trkpt>
      <trkpt lat="22.904815" lon="109.295802">
        <ele>70.846207</ele>
        <time>2026-08-15T02:52:05.000Z</time>
      </trkpt>
      <trkpt lat="22.904810" lon="109.295857">
        <ele>70.866673</ele>
        <time>2026-08-15T02:52:06.000Z</time>
      </trkpt>
      <trkpt lat="22.904804" lon="109.295912">
        <ele>70.887183</ele>
        <time>2026-08-15T02:52:07.000Z</time>
      </trkpt>
      <trkpt lat="22.904798" lon="109.295968">
        <ele>70.908060</ele>
        <time>2026-08-15T02:52:08.000Z</time>
      </trkpt>
      <trkpt lat="22.904790" lon="109.296024">
        <ele>70.878286</ele>
        <time>2026-08-15T02:52:09.000Z</time>
      </trkpt>
      <trkpt lat="22.904781" lon="109.296083">
        <ele>70.831026</ele>
        <time>2026-08-15T02:52:10.000Z</time>
      </trkpt>
      <trkpt lat="22.904769" lon="109.296140">
        <ele>70.784819</ele>
        <time>2026-08-15T02:52:11.000Z</time>
      </trkpt>
      <trkpt lat="22.904755" lon="109.296197">
        <ele>70.738200</ele>
        <time>2026-08-15T02:52:12.000Z</time>
      </trkpt>
      <trkpt lat="22.904740" lon="109.296256">
        <ele>70.689830</ele>
        <time>2026-08-15T02:52:13.000Z</time>
      </trkpt>
      <trkpt lat="22.904724" lon="109.296314">
        <ele>70.641984</ele>
        <time>2026-08-15T02:52:14.000Z</time>
      </trkpt>
      <trkpt lat="22.904706" lon="109.296370">
        <ele>70.595112</ele>
        <time>2026-08-15T02:52:15.000Z</time>
      </trkpt>
      <trkpt lat="22.904686" lon="109.296426">
        <ele>70.547647</ele>
        <time>2026-08-15T02:52:16.000Z</time>
      </trkpt>
      <trkpt lat="22.904667" lon="109.296483">
        <ele>70.499743</ele>
        <time>2026-08-15T02:52:17.000Z</time>
      </trkpt>
      <trkpt lat="22.904645" lon="109.296539">
        <ele>70.451631</ele>
        <time>2026-08-15T02:52:18.000Z</time>
      </trkpt>
      <trkpt lat="22.904625" lon="109.296595">
        <ele>70.404166</ele>
        <time>2026-08-15T02:52:19.000Z</time>
      </trkpt>
      <trkpt lat="22.904604" lon="109.296648">
        <ele>70.358571</ele>
        <time>2026-08-15T02:52:20.000Z</time>
      </trkpt>
      <trkpt lat="22.904582" lon="109.296703">
        <ele>70.311185</ele>
        <time>2026-08-15T02:52:21.000Z</time>
      </trkpt>
      <trkpt lat="22.904560" lon="109.296759">
        <ele>70.263074</ele>
        <time>2026-08-15T02:52:22.000Z</time>
      </trkpt>
      <trkpt lat="22.904538" lon="109.296815">
        <ele>70.214962</ele>
        <time>2026-08-15T02:52:23.000Z</time>
      </trkpt>
      <trkpt lat="22.904516" lon="109.296869">
        <ele>70.168300</ele>
        <time>2026-08-15T02:52:24.000Z</time>
      </trkpt>
      <trkpt lat="22.904494" lon="109.296924">
        <ele>70.120914</ele>
        <time>2026-08-15T02:52:25.000Z</time>
      </trkpt>
      <trkpt lat="22.904471" lon="109.296980">
        <ele>70.072459</ele>
        <time>2026-08-15T02:52:26.000Z</time>
      </trkpt>
      <trkpt lat="22.904445" lon="109.297035">
        <ele>70.023605</ele>
        <time>2026-08-15T02:52:27.000Z</time>
      </trkpt>
      <trkpt lat="22.904418" lon="109.297088">
        <ele>69.975742</ele>
        <time>2026-08-15T02:52:28.000Z</time>
      </trkpt>
      <trkpt lat="22.904391" lon="109.297142">
        <ele>69.927186</ele>
        <time>2026-08-15T02:52:29.000Z</time>
      </trkpt>
      <trkpt lat="22.904362" lon="109.297196">
        <ele>69.877788</ele>
        <time>2026-08-15T02:52:30.000Z</time>
      </trkpt>
      <trkpt lat="22.904333" lon="109.297248">
        <ele>69.829750</ele>
        <time>2026-08-15T02:52:31.000Z</time>
      </trkpt>
      <trkpt lat="22.904306" lon="109.297301">
        <ele>69.781887</ele>
        <time>2026-08-15T02:52:32.000Z</time>
      </trkpt>
      <trkpt lat="22.904277" lon="109.297356">
        <ele>69.731805</ele>
        <time>2026-08-15T02:52:33.000Z</time>
      </trkpt>
      <trkpt lat="22.904247" lon="109.297412">
        <ele>69.680610</ele>
        <time>2026-08-15T02:52:34.000Z</time>
      </trkpt>
      <trkpt lat="22.904215" lon="109.297469">
        <ele>69.627858</ele>
        <time>2026-08-15T02:52:35.000Z</time>
      </trkpt>
      <trkpt lat="22.904183" lon="109.297527">
        <ele>69.574429</ele>
        <time>2026-08-15T02:52:36.000Z</time>
      </trkpt>
      <trkpt lat="22.904149" lon="109.297583">
        <ele>69.521426</ele>
        <time>2026-08-15T02:52:37.000Z</time>
      </trkpt>
      <trkpt lat="22.904115" lon="109.297641">
        <ele>69.467096</ele>
        <time>2026-08-15T02:52:38.000Z</time>
      </trkpt>
      <trkpt lat="22.904080" lon="109.297700">
        <ele>69.411638</ele>
        <time>2026-08-15T02:52:39.000Z</time>
      </trkpt>
      <trkpt lat="22.904045" lon="109.297756">
        <ele>69.357230</ele>
        <time>2026-08-15T02:52:40.000Z</time>
      </trkpt>
      <trkpt lat="22.904013" lon="109.297813">
        <ele>69.300267</ele>
        <time>2026-08-15T02:52:41.000Z</time>
      </trkpt>
      <trkpt lat="22.903981" lon="109.297871">
        <ele>69.242573</ele>
        <time>2026-08-15T02:52:42.000Z</time>
      </trkpt>
      <trkpt lat="22.903951" lon="109.297929">
        <ele>69.185810</ele>
        <time>2026-08-15T02:52:43.000Z</time>
      </trkpt>
      <trkpt lat="22.903923" lon="109.297987">
        <ele>69.129929</ele>
        <time>2026-08-15T02:52:44.000Z</time>
      </trkpt>
      <trkpt lat="22.903893" lon="109.298045">
        <ele>69.073166</ele>
        <time>2026-08-15T02:52:45.000Z</time>
      </trkpt>
      <trkpt lat="22.903864" lon="109.298106">
        <ele>69.014587</ele>
        <time>2026-08-15T02:52:46.000Z</time>
      </trkpt>
      <trkpt lat="22.903836" lon="109.298166">
        <ele>68.957189</ele>
        <time>2026-08-15T02:52:47.000Z</time>
      </trkpt>
      <trkpt lat="22.903809" lon="109.298225">
        <ele>68.900970</ele>
        <time>2026-08-15T02:52:48.000Z</time>
      </trkpt>
      <trkpt lat="22.903783" lon="109.298286">
        <ele>68.843613</ele>
        <time>2026-08-15T02:52:49.000Z</time>
      </trkpt>
      <trkpt lat="22.903757" lon="109.298348">
        <ele>68.785480</ele>
        <time>2026-08-15T02:52:50.000Z</time>
      </trkpt>
      <trkpt lat="22.903731" lon="109.298409">
        <ele>68.728122</ele>
        <time>2026-08-15T02:52:51.000Z</time>
      </trkpt>
      <trkpt lat="22.903704" lon="109.298471">
        <ele>68.669599</ele>
        <time>2026-08-15T02:52:52.000Z</time>
      </trkpt>
      <trkpt lat="22.903677" lon="109.298532">
        <ele>68.611847</ele>
        <time>2026-08-15T02:52:53.000Z</time>
      </trkpt>
      <trkpt lat="22.903647" lon="109.298591">
        <ele>68.554337</ele>
        <time>2026-08-15T02:52:54.000Z</time>
      </trkpt>
      <trkpt lat="22.903615" lon="109.298652">
        <ele>68.494432</ele>
        <time>2026-08-15T02:52:55.000Z</time>
      </trkpt>
      <trkpt lat="22.903584" lon="109.298714">
        <ele>68.434232</ele>
        <time>2026-08-15T02:52:56.000Z</time>
      </trkpt>
      <trkpt lat="22.903553" lon="109.298775">
        <ele>68.374781</ele>
        <time>2026-08-15T02:52:57.000Z</time>
      </trkpt>
      <trkpt lat="22.903524" lon="109.298839">
        <ele>68.313916</ele>
        <time>2026-08-15T02:52:58.000Z</time>
      </trkpt>
      <trkpt lat="22.903497" lon="109.298903">
        <ele>68.253845</ele>
        <time>2026-08-15T02:52:59.000Z</time>
      </trkpt>
      <trkpt lat="22.903471" lon="109.298968">
        <ele>68.193373</ele>
        <time>2026-08-15T02:53:00.000Z</time>
      </trkpt>
      <trkpt lat="22.903445" lon="109.299033">
        <ele>68.132900</ele>
        <time>2026-08-15T02:53:01.000Z</time>
      </trkpt>
      <trkpt lat="22.903420" lon="109.299099">
        <ele>68.072002</ele>
        <time>2026-08-15T02:53:02.000Z</time>
      </trkpt>
      <trkpt lat="22.903398" lon="109.299167">
        <ele>68.010499</ele>
        <time>2026-08-15T02:53:03.000Z</time>
      </trkpt>
      <trkpt lat="22.903377" lon="109.299235">
        <ele>67.949296</ele>
        <time>2026-08-15T02:53:04.000Z</time>
      </trkpt>
      <trkpt lat="22.903358" lon="109.299304">
        <ele>67.887839</ele>
        <time>2026-08-15T02:53:05.000Z</time>
      </trkpt>
      <trkpt lat="22.903340" lon="109.299372">
        <ele>67.827462</ele>
        <time>2026-08-15T02:53:06.000Z</time>
      </trkpt>
      <trkpt lat="22.903320" lon="109.299440">
        <ele>67.766547</ele>
        <time>2026-08-15T02:53:07.000Z</time>
      </trkpt>
      <trkpt lat="22.903302" lon="109.299507">
        <ele>67.706989</ele>
        <time>2026-08-15T02:53:08.000Z</time>
      </trkpt>
      <trkpt lat="22.903286" lon="109.299571">
        <ele>67.777820</ele>
        <time>2026-08-15T02:53:09.000Z</time>
      </trkpt>
      <trkpt lat="22.903273" lon="109.299635">
        <ele>67.856072</ele>
        <time>2026-08-15T02:53:10.000Z</time>
      </trkpt>
      <trkpt lat="22.903259" lon="109.299698">
        <ele>67.933451</ele>
        <time>2026-08-15T02:53:11.000Z</time>
      </trkpt>
      <trkpt lat="22.903246" lon="109.299758">
        <ele>68.007046</ele>
        <time>2026-08-15T02:53:12.000Z</time>
      </trkpt>
      <trkpt lat="22.903233" lon="109.299817">
        <ele>68.079479</ele>
        <time>2026-08-15T02:53:13.000Z</time>
      </trkpt>
      <trkpt lat="22.903223" lon="109.299873">
        <ele>68.147588</ele>
        <time>2026-08-15T02:53:14.000Z</time>
      </trkpt>
      <trkpt lat="22.903212" lon="109.299928">
        <ele>68.214788</ele>
        <time>2026-08-15T02:53:15.000Z</time>
      </trkpt>
      <trkpt lat="22.903203" lon="109.299982">
        <ele>68.280310</ele>
        <time>2026-08-15T02:53:16.000Z</time>
      </trkpt>
      <trkpt lat="22.903194" lon="109.300033">
        <ele>68.342312</ele>
        <time>2026-08-15T02:53:17.000Z</time>
      </trkpt>
      <trkpt lat="22.903185" lon="109.300083">
        <ele>68.403141</ele>
        <time>2026-08-15T02:53:18.000Z</time>
      </trkpt>
      <trkpt lat="22.903175" lon="109.300130">
        <ele>68.460736</ele>
        <time>2026-08-15T02:53:19.000Z</time>
      </trkpt>
      <trkpt lat="22.903167" lon="109.300176">
        <ele>68.516630</ele>
        <time>2026-08-15T02:53:20.000Z</time>
      </trkpt>
      <trkpt lat="22.903160" lon="109.300218">
        <ele>68.567592</ele>
        <time>2026-08-15T02:53:21.000Z</time>
      </trkpt>
      <trkpt lat="22.903153" lon="109.300258">
        <ele>68.616206</ele>
        <time>2026-08-15T02:53:22.000Z</time>
      </trkpt>
      <trkpt lat="22.903148" lon="109.300297">
        <ele>68.663221</ele>
        <time>2026-08-15T02:53:23.000Z</time>
      </trkpt>
      <trkpt lat="22.903143" lon="109.300336">
        <ele>68.710236</ele>
        <time>2026-08-15T02:53:24.000Z</time>
      </trkpt>
      <trkpt lat="22.903137" lon="109.300375">
        <ele>68.757447</ele>
        <time>2026-08-15T02:53:25.000Z</time>
      </trkpt>
      <trkpt lat="22.903130" lon="109.300414">
        <ele>68.804888</ele>
        <time>2026-08-15T02:53:26.000Z</time>
      </trkpt>
      <trkpt lat="22.903122" lon="109.300455">
        <ele>68.854928</ele>
        <time>2026-08-15T02:53:27.000Z</time>
      </trkpt>
      <trkpt lat="22.903116" lon="109.300496">
        <ele>68.904496</ele>
        <time>2026-08-15T02:53:28.000Z</time>
      </trkpt>
      <trkpt lat="22.903109" lon="109.300538">
        <ele>68.955458</ele>
        <time>2026-08-15T02:53:29.000Z</time>
      </trkpt>
      <trkpt lat="22.903101" lon="109.300582">
        <ele>69.009008</ele>
        <time>2026-08-15T02:53:30.000Z</time>
      </trkpt>
      <trkpt lat="22.903093" lon="109.300626">
        <ele>69.062557</ele>
        <time>2026-08-15T02:53:31.000Z</time>
      </trkpt>
      <trkpt lat="22.903085" lon="109.300671">
        <ele>69.117279</ele>
        <time>2026-08-15T02:53:32.000Z</time>
      </trkpt>
      <trkpt lat="22.903077" lon="109.300716">
        <ele>69.172000</ele>
        <time>2026-08-15T02:53:33.000Z</time>
      </trkpt>
      <trkpt lat="22.903069" lon="109.300760">
        <ele>69.225550</ele>
        <time>2026-08-15T02:53:34.000Z</time>
      </trkpt>
      <trkpt lat="22.903065" lon="109.300799">
        <ele>69.272403</ele>
        <time>2026-08-15T02:53:35.000Z</time>
      </trkpt>
      <trkpt lat="22.903062" lon="109.300840">
        <ele>69.321511</ele>
        <time>2026-08-15T02:53:36.000Z</time>
      </trkpt>
      <trkpt lat="22.903057" lon="109.300880">
        <ele>69.369709</ele>
        <time>2026-08-15T02:53:37.000Z</time>
      </trkpt>
      <trkpt lat="22.903052" lon="109.300920">
        <ele>69.417907</ele>
        <time>2026-08-15T02:53:38.000Z</time>
      </trkpt>
      <trkpt lat="22.903044" lon="109.300958">
        <ele>69.464449</ele>
        <time>2026-08-15T02:53:39.000Z</time>
      </trkpt>
      <trkpt lat="22.903035" lon="109.300998">
        <ele>69.513613</ele>
        <time>2026-08-15T02:53:40.000Z</time>
      </trkpt>
      <trkpt lat="22.903032" lon="109.301040">
        <ele>69.563911</ele>
        <time>2026-08-15T02:53:41.000Z</time>
      </trkpt>
      <trkpt lat="22.903026" lon="109.301077">
        <ele>69.608768</ele>
        <time>2026-08-15T02:53:42.000Z</time>
      </trkpt>
      <trkpt lat="22.903018" lon="109.301114">
        <ele>69.654147</ele>
        <time>2026-08-15T02:53:43.000Z</time>
      </trkpt>
      <trkpt lat="22.903011" lon="109.301154">
        <ele>69.702761</ele>
        <time>2026-08-15T02:53:44.000Z</time>
      </trkpt>
      <trkpt lat="22.903005" lon="109.301196">
        <ele>69.753509</ele>
        <time>2026-08-15T02:53:45.000Z</time>
      </trkpt>
      <trkpt lat="22.903001" lon="109.301239">
        <ele>69.805112</ele>
        <time>2026-08-15T02:53:46.000Z</time>
      </trkpt>
      <trkpt lat="22.902996" lon="109.301285">
        <ele>69.860417</ele>
        <time>2026-08-15T02:53:47.000Z</time>
      </trkpt>
      <trkpt lat="22.902988" lon="109.301333">
        <ele>69.918659</ele>
        <time>2026-08-15T02:53:48.000Z</time>
      </trkpt>
      <trkpt lat="22.902981" lon="109.301380">
        <ele>69.975506</ele>
        <time>2026-08-15T02:53:49.000Z</time>
      </trkpt>
      <trkpt lat="22.902977" lon="109.301427">
        <ele>70.031863</ele>
        <time>2026-08-15T02:53:50.000Z</time>
      </trkpt>
      <trkpt lat="22.902971" lon="109.301476">
        <ele>70.034153</ele>
        <time>2026-08-15T02:53:51.000Z</time>
      </trkpt>
      <trkpt lat="22.902963" lon="109.301524">
        <ele>70.033396</ele>
        <time>2026-08-15T02:53:52.000Z</time>
      </trkpt>
      <trkpt lat="22.902955" lon="109.301573">
        <ele>70.032624</ele>
        <time>2026-08-15T02:53:53.000Z</time>
      </trkpt>
      <trkpt lat="22.902948" lon="109.301624">
        <ele>70.031824</ele>
        <time>2026-08-15T02:53:54.000Z</time>
      </trkpt>
      <trkpt lat="22.902942" lon="109.301676">
        <ele>70.031011</ele>
        <time>2026-08-15T02:53:55.000Z</time>
      </trkpt>
      <trkpt lat="22.902937" lon="109.301726">
        <ele>70.030231</ele>
        <time>2026-08-15T02:53:56.000Z</time>
      </trkpt>
      <trkpt lat="22.902932" lon="109.301777">
        <ele>70.029435</ele>
        <time>2026-08-15T02:53:57.000Z</time>
      </trkpt>
      <trkpt lat="22.902924" lon="109.301828">
        <ele>70.028632</ele>
        <time>2026-08-15T02:53:58.000Z</time>
      </trkpt>
      <trkpt lat="22.902917" lon="109.301880">
        <ele>70.027817</ele>
        <time>2026-08-15T02:53:59.000Z</time>
      </trkpt>
      <trkpt lat="22.902910" lon="109.301934">
        <ele>70.026970</ele>
        <time>2026-08-15T02:54:00.000Z</time>
      </trkpt>
      <trkpt lat="22.902905" lon="109.301987">
        <ele>70.026144</ele>
        <time>2026-08-15T02:54:01.000Z</time>
      </trkpt>
      <trkpt lat="22.902900" lon="109.302042">
        <ele>70.025286</ele>
        <time>2026-08-15T02:54:02.000Z</time>
      </trkpt>
      <trkpt lat="22.902894" lon="109.302097">
        <ele>70.024427</ele>
        <time>2026-08-15T02:54:03.000Z</time>
      </trkpt>
      <trkpt lat="22.902891" lon="109.302152">
        <ele>70.023572</ele>
        <time>2026-08-15T02:54:04.000Z</time>
      </trkpt>
      <trkpt lat="22.902888" lon="109.302207">
        <ele>70.022717</ele>
        <time>2026-08-15T02:54:05.000Z</time>
      </trkpt>
      <trkpt lat="22.902885" lon="109.302263">
        <ele>70.021846</ele>
        <time>2026-08-15T02:54:06.000Z</time>
      </trkpt>
      <trkpt lat="22.902882" lon="109.302319">
        <ele>70.020976</ele>
        <time>2026-08-15T02:54:07.000Z</time>
      </trkpt>
      <trkpt lat="22.902878" lon="109.302377">
        <ele>70.020074</ele>
        <time>2026-08-15T02:54:08.000Z</time>
      </trkpt>
      <trkpt lat="22.902874" lon="109.302432">
        <ele>70.019217</ele>
        <time>2026-08-15T02:54:09.000Z</time>
      </trkpt>
      <trkpt lat="22.902873" lon="109.302487">
        <ele>70.018364</ele>
        <time>2026-08-15T02:54:10.000Z</time>
      </trkpt>
      <trkpt lat="22.902871" lon="109.302544">
        <ele>70.017479</ele>
        <time>2026-08-15T02:54:11.000Z</time>
      </trkpt>
      <trkpt lat="22.902870" lon="109.302598">
        <ele>70.016641</ele>
        <time>2026-08-15T02:54:12.000Z</time>
      </trkpt>
      <trkpt lat="22.902871" lon="109.302653">
        <ele>70.015787</ele>
        <time>2026-08-15T02:54:13.000Z</time>
      </trkpt>
      <trkpt lat="22.902871" lon="109.302709">
        <ele>70.014918</ele>
        <time>2026-08-15T02:54:14.000Z</time>
      </trkpt>
      <trkpt lat="22.902875" lon="109.302766">
        <ele>70.014031</ele>
        <time>2026-08-15T02:54:15.000Z</time>
      </trkpt>
      <trkpt lat="22.902883" lon="109.302822">
        <ele>70.013152</ele>
        <time>2026-08-15T02:54:16.000Z</time>
      </trkpt>
      <trkpt lat="22.902893" lon="109.302879">
        <ele>70.012251</ele>
        <time>2026-08-15T02:54:17.000Z</time>
      </trkpt>
      <trkpt lat="22.902904" lon="109.302936">
        <ele>70.011348</ele>
        <time>2026-08-15T02:54:18.000Z</time>
      </trkpt>
      <trkpt lat="22.902918" lon="109.302992">
        <ele>70.010447</ele>
        <time>2026-08-15T02:54:19.000Z</time>
      </trkpt>
      <trkpt lat="22.902931" lon="109.303049">
        <ele>70.009536</ele>
        <time>2026-08-15T02:54:20.000Z</time>
      </trkpt>
      <trkpt lat="22.902948" lon="109.303103">
        <ele>70.008651</ele>
        <time>2026-08-15T02:54:21.000Z</time>
      </trkpt>
      <trkpt lat="22.902966" lon="109.303155">
        <ele>70.007789</ele>
        <time>2026-08-15T02:54:22.000Z</time>
      </trkpt>
      <trkpt lat="22.902987" lon="109.303206">
        <ele>70.006922</ele>
        <time>2026-08-15T02:54:23.000Z</time>
      </trkpt>
      <trkpt lat="22.903008" lon="109.303258">
        <ele>70.006041</ele>
        <time>2026-08-15T02:54:24.000Z</time>
      </trkpt>
      <trkpt lat="22.903027" lon="109.303310">
        <ele>70.005173</ele>
        <time>2026-08-15T02:54:25.000Z</time>
      </trkpt>
      <trkpt lat="22.903045" lon="109.303362">
        <ele>70.003911</ele>
        <time>2026-08-15T02:54:26.000Z</time>
      </trkpt>
      <trkpt lat="22.903061" lon="109.303414">
        <ele>70.001811</ele>
        <time>2026-08-15T02:54:27.000Z</time>
      </trkpt>
      <trkpt lat="22.903075" lon="109.303466">
        <ele>69.999736</ele>
        <time>2026-08-15T02:54:28.000Z</time>
      </trkpt>
      <trkpt lat="22.903089" lon="109.303513">
        <ele>69.997843</ele>
        <time>2026-08-15T02:54:29.000Z</time>
      </trkpt>
      <trkpt lat="22.903103" lon="109.303556">
        <ele>69.996096</ele>
        <time>2026-08-15T02:54:30.000Z</time>
      </trkpt>
      <trkpt lat="22.903115" lon="109.303598">
        <ele>69.994412</ele>
        <time>2026-08-15T02:54:31.000Z</time>
      </trkpt>
      <trkpt lat="22.903127" lon="109.303637">
        <ele>69.992837</ele>
        <time>2026-08-15T02:54:32.000Z</time>
      </trkpt>
      <trkpt lat="22.903142" lon="109.303674">
        <ele>69.991288</ele>
        <time>2026-08-15T02:54:33.000Z</time>
      </trkpt>
      <trkpt lat="22.903158" lon="109.303713">
        <ele>69.989653</ele>
        <time>2026-08-15T02:54:34.000Z</time>
      </trkpt>
      <trkpt lat="22.903174" lon="109.303755">
        <ele>69.987912</ele>
        <time>2026-08-15T02:54:35.000Z</time>
      </trkpt>
      <trkpt lat="22.903189" lon="109.303798">
        <ele>69.986151</ele>
        <time>2026-08-15T02:54:36.000Z</time>
      </trkpt>
      <trkpt lat="22.903206" lon="109.303843">
        <ele>69.984288</ele>
        <time>2026-08-15T02:54:37.000Z</time>
      </trkpt>
      <trkpt lat="22.903222" lon="109.303889">
        <ele>69.982404</ele>
        <time>2026-08-15T02:54:38.000Z</time>
      </trkpt>
      <trkpt lat="22.903241" lon="109.303937">
        <ele>69.980403</ele>
        <time>2026-08-15T02:54:39.000Z</time>
      </trkpt>
      <trkpt lat="22.903260" lon="109.303985">
        <ele>69.978402</ele>
        <time>2026-08-15T02:54:40.000Z</time>
      </trkpt>
      <trkpt lat="22.903278" lon="109.304035">
        <ele>69.976345</ele>
        <time>2026-08-15T02:54:41.000Z</time>
      </trkpt>
      <trkpt lat="22.903294" lon="109.304086">
        <ele>69.974282</ele>
        <time>2026-08-15T02:54:42.000Z</time>
      </trkpt>
      <trkpt lat="22.903308" lon="109.304138">
        <ele>69.972206</ele>
        <time>2026-08-15T02:54:43.000Z</time>
      </trkpt>
      <trkpt lat="22.903323" lon="109.304190">
        <ele>69.970119</ele>
        <time>2026-08-15T02:54:44.000Z</time>
      </trkpt>
      <trkpt lat="22.903340" lon="109.304242">
        <ele>69.968005</ele>
        <time>2026-08-15T02:54:45.000Z</time>
      </trkpt>
      <trkpt lat="22.903359" lon="109.304291">
        <ele>69.965969</ele>
        <time>2026-08-15T02:54:46.000Z</time>
      </trkpt>
      <trkpt lat="22.903376" lon="109.304340">
        <ele>69.963963</ele>
        <time>2026-08-15T02:54:47.000Z</time>
      </trkpt>
      <trkpt lat="22.903393" lon="109.304390">
        <ele>69.961922</ele>
        <time>2026-08-15T02:54:48.000Z</time>
      </trkpt>
      <trkpt lat="22.903410" lon="109.304440">
        <ele>69.959880</ele>
        <time>2026-08-15T02:54:49.000Z</time>
      </trkpt>
      <trkpt lat="22.903427" lon="109.304490">
        <ele>69.957839</ele>
        <time>2026-08-15T02:54:50.000Z</time>
      </trkpt>
      <trkpt lat="22.903444" lon="109.304540">
        <ele>69.955797</ele>
        <time>2026-08-15T02:54:51.000Z</time>
      </trkpt>
      <trkpt lat="22.903459" lon="109.304590">
        <ele>69.953783</ele>
        <time>2026-08-15T02:54:52.000Z</time>
      </trkpt>
      <trkpt lat="22.903475" lon="109.304641">
        <ele>69.951719</ele>
        <time>2026-08-15T02:54:53.000Z</time>
      </trkpt>
      <trkpt lat="22.903485" lon="109.304694">
        <ele>69.949647</ele>
        <time>2026-08-15T02:54:54.000Z</time>
      </trkpt>
      <trkpt lat="22.903491" lon="109.304750">
        <ele>69.947487</ele>
        <time>2026-08-15T02:54:55.000Z</time>
      </trkpt>
      <trkpt lat="22.903494" lon="109.304807">
        <ele>69.945300</ele>
        <time>2026-08-15T02:54:56.000Z</time>
      </trkpt>
      <trkpt lat="22.903492" lon="109.304865">
        <ele>69.943077</ele>
        <time>2026-08-15T02:54:57.000Z</time>
      </trkpt>
      <trkpt lat="22.903485" lon="109.304923">
        <ele>69.940836</ele>
        <time>2026-08-15T02:54:58.000Z</time>
      </trkpt>
      <trkpt lat="22.903475" lon="109.304982">
        <ele>69.938538</ele>
        <time>2026-08-15T02:54:59.000Z</time>
      </trkpt>
      <trkpt lat="22.903459" lon="109.305041">
        <ele>69.936182</ele>
        <time>2026-08-15T02:55:00.000Z</time>
      </trkpt>
      <trkpt lat="22.903440" lon="109.305100">
        <ele>69.933788</ele>
        <time>2026-08-15T02:55:01.000Z</time>
      </trkpt>
      <trkpt lat="22.903423" lon="109.305158">
        <ele>69.931456</ele>
        <time>2026-08-15T02:55:02.000Z</time>
      </trkpt>
      <trkpt lat="22.903402" lon="109.305215">
        <ele>69.927257</ele>
        <time>2026-08-15T02:55:03.000Z</time>
      </trkpt>
      <trkpt lat="22.903381" lon="109.305270">
        <ele>69.918810</ele>
        <time>2026-08-15T02:55:04.000Z</time>
      </trkpt>
      <trkpt lat="22.903359" lon="109.305327">
        <ele>69.910042</ele>
        <time>2026-08-15T02:55:05.000Z</time>
      </trkpt>
      <trkpt lat="22.903335" lon="109.305381">
        <ele>69.901536</ele>
        <time>2026-08-15T02:55:06.000Z</time>
      </trkpt>
      <trkpt lat="22.903311" lon="109.305433">
        <ele>69.893285</ele>
        <time>2026-08-15T02:55:07.000Z</time>
      </trkpt>
      <trkpt lat="22.903288" lon="109.305486">
        <ele>69.884973</ele>
        <time>2026-08-15T02:55:08.000Z</time>
      </trkpt>
      <trkpt lat="22.903266" lon="109.305539">
        <ele>69.876726</ele>
        <time>2026-08-15T02:55:09.000Z</time>
      </trkpt>
      <trkpt lat="22.903244" lon="109.305591">
        <ele>69.868607</ele>
        <time>2026-08-15T02:55:10.000Z</time>
      </trkpt>
      <trkpt lat="22.903222" lon="109.305642">
        <ele>69.860618</ele>
        <time>2026-08-15T02:55:11.000Z</time>
      </trkpt>
      <trkpt lat="22.903200" lon="109.305693">
        <ele>69.852628</ele>
        <time>2026-08-15T02:55:12.000Z</time>
      </trkpt>
      <trkpt lat="22.903180" lon="109.305742">
        <ele>69.845025</ele>
        <time>2026-08-15T02:55:13.000Z</time>
      </trkpt>
      <trkpt lat="22.903161" lon="109.305791">
        <ele>69.837482</ele>
        <time>2026-08-15T02:55:14.000Z</time>
      </trkpt>
      <trkpt lat="22.903141" lon="109.305841">
        <ele>69.829749</ele>
        <time>2026-08-15T02:55:15.000Z</time>
      </trkpt>
      <trkpt lat="22.903120" lon="109.305891">
        <ele>69.821953</ele>
        <time>2026-08-15T02:55:16.000Z</time>
      </trkpt>
      <trkpt lat="22.903099" lon="109.305939">
        <ele>69.814414</ele>
        <time>2026-08-15T02:55:17.000Z</time>
      </trkpt>
      <trkpt lat="22.903078" lon="109.305984">
        <ele>69.807257</ele>
        <time>2026-08-15T02:55:18.000Z</time>
      </trkpt>
      <trkpt lat="22.903057" lon="109.306027">
        <ele>69.800353</ele>
        <time>2026-08-15T02:55:19.000Z</time>
      </trkpt>
      <trkpt lat="22.903037" lon="109.306069">
        <ele>69.793645</ele>
        <time>2026-08-15T02:55:20.000Z</time>
      </trkpt>
      <trkpt lat="22.903018" lon="109.306107">
        <ele>69.787511</ele>
        <time>2026-08-15T02:55:21.000Z</time>
      </trkpt>
      <trkpt lat="22.903001" lon="109.306144">
        <ele>69.781645</ele>
        <time>2026-08-15T02:55:22.000Z</time>
      </trkpt>
      <trkpt lat="22.902983" lon="109.306181">
        <ele>69.775709</ele>
        <time>2026-08-15T02:55:23.000Z</time>
      </trkpt>
      <trkpt lat="22.902966" lon="109.306218">
        <ele>69.769843</ele>
        <time>2026-08-15T02:55:24.000Z</time>
      </trkpt>
      <trkpt lat="22.902947" lon="109.306256">
        <ele>69.763709</ele>
        <time>2026-08-15T02:55:25.000Z</time>
      </trkpt>
      <trkpt lat="22.902930" lon="109.306297">
        <ele>69.757330</ele>
        <time>2026-08-15T02:55:26.000Z</time>
      </trkpt>
      <trkpt lat="22.902912" lon="109.306339">
        <ele>69.750758</ele>
        <time>2026-08-15T02:55:27.000Z</time>
      </trkpt>
      <trkpt lat="22.902894" lon="109.306382">
        <ele>69.744057</ele>
        <time>2026-08-15T02:55:28.000Z</time>
      </trkpt>
      <trkpt lat="22.902876" lon="109.306424">
        <ele>69.737485</ele>
        <time>2026-08-15T02:55:29.000Z</time>
      </trkpt>
      <trkpt lat="22.902858" lon="109.306467">
        <ele>69.730784</ele>
        <time>2026-08-15T02:55:30.000Z</time>
      </trkpt>
      <trkpt lat="22.902840" lon="109.306511">
        <ele>69.723954</ele>
        <time>2026-08-15T02:55:31.000Z</time>
      </trkpt>
      <trkpt lat="22.902823" lon="109.306554">
        <ele>69.717316</ele>
        <time>2026-08-15T02:55:32.000Z</time>
      </trkpt>
      <trkpt lat="22.902807" lon="109.306596">
        <ele>69.710867</ele>
        <time>2026-08-15T02:55:33.000Z</time>
      </trkpt>
      <trkpt lat="22.902789" lon="109.306635">
        <ele>69.704679</ele>
        <time>2026-08-15T02:55:34.000Z</time>
      </trkpt>
      <trkpt lat="22.902772" lon="109.306673">
        <ele>69.698686</ele>
        <time>2026-08-15T02:55:35.000Z</time>
      </trkpt>
      <trkpt lat="22.902754" lon="109.306713">
        <ele>69.692370</ele>
        <time>2026-08-15T02:55:36.000Z</time>
      </trkpt>
      <trkpt lat="22.902737" lon="109.306753">
        <ele>69.686120</ele>
        <time>2026-08-15T02:55:37.000Z</time>
      </trkpt>
      <trkpt lat="22.902722" lon="109.306799">
        <ele>69.679197</ele>
        <time>2026-08-15T02:55:38.000Z</time>
      </trkpt>
      <trkpt lat="22.902708" lon="109.306846">
        <ele>69.672189</ele>
        <time>2026-08-15T02:55:39.000Z</time>
      </trkpt>
      <trkpt lat="22.902695" lon="109.306894">
        <ele>69.665091</ele>
        <time>2026-08-15T02:55:40.000Z</time>
      </trkpt>
      <trkpt lat="22.902679" lon="109.306941">
        <ele>69.657982</ele>
        <time>2026-08-15T02:55:41.000Z</time>
      </trkpt>
      <trkpt lat="22.902663" lon="109.306987">
        <ele>69.656733</ele>
        <time>2026-08-15T02:55:42.000Z</time>
      </trkpt>
      <trkpt lat="22.902645" lon="109.307031">
        <ele>69.672024</ele>
        <time>2026-08-15T02:55:43.000Z</time>
      </trkpt>
      <trkpt lat="22.902628" lon="109.307068">
        <ele>69.685156</ele>
        <time>2026-08-15T02:55:44.000Z</time>
      </trkpt>
      <trkpt lat="22.902612" lon="109.307098">
        <ele>69.696166</ele>
        <time>2026-08-15T02:55:45.000Z</time>
      </trkpt>
      <trkpt lat="22.902598" lon="109.307127">
        <ele>69.706565</ele>
        <time>2026-08-15T02:55:46.000Z</time>
      </trkpt>
      <trkpt lat="22.902584" lon="109.307157">
        <ele>69.717246</ele>
        <time>2026-08-15T02:55:47.000Z</time>
      </trkpt>
      <trkpt lat="22.902570" lon="109.307190">
        <ele>69.728786</ele>
        <time>2026-08-15T02:55:48.000Z</time>
      </trkpt>
      <trkpt lat="22.902555" lon="109.307222">
        <ele>69.740189</ele>
        <time>2026-08-15T02:55:49.000Z</time>
      </trkpt>
      <trkpt lat="22.902538" lon="109.307256">
        <ele>69.752476</ele>
        <time>2026-08-15T02:55:50.000Z</time>
      </trkpt>
      <trkpt lat="22.902521" lon="109.307290">
        <ele>69.764763</ele>
        <time>2026-08-15T02:55:51.000Z</time>
      </trkpt>
      <trkpt lat="22.902506" lon="109.307325">
        <ele>69.777024</ele>
        <time>2026-08-15T02:55:52.000Z</time>
      </trkpt>
      <trkpt lat="22.902493" lon="109.307360">
        <ele>69.789010</ele>
        <time>2026-08-15T02:55:53.000Z</time>
      </trkpt>
      <trkpt lat="22.902481" lon="109.307397">
        <ele>69.801468</ele>
        <time>2026-08-15T02:55:54.000Z</time>
      </trkpt>
      <trkpt lat="22.902468" lon="109.307433">
        <ele>69.813750</ele>
        <time>2026-08-15T02:55:55.000Z</time>
      </trkpt>
      <trkpt lat="22.902450" lon="109.307468">
        <ele>69.826481</ele>
        <time>2026-08-15T02:55:56.000Z</time>
      </trkpt>
      <trkpt lat="22.902431" lon="109.307504">
        <ele>69.839659</ele>
        <time>2026-08-15T02:55:57.000Z</time>
      </trkpt>
      <trkpt lat="22.902413" lon="109.307539">
        <ele>69.852390</ele>
        <time>2026-08-15T02:55:58.000Z</time>
      </trkpt>
      <trkpt lat="22.902394" lon="109.307574">
        <ele>69.865293</ele>
        <time>2026-08-15T02:55:59.000Z</time>
      </trkpt>
      <trkpt lat="22.902375" lon="109.307607">
        <ele>69.877653</ele>
        <time>2026-08-15T02:56:00.000Z</time>
      </trkpt>
      <trkpt lat="22.902355" lon="109.307640">
        <ele>69.890199</ele>
        <time>2026-08-15T02:56:01.000Z</time>
      </trkpt>
      <trkpt lat="22.902335" lon="109.307672">
        <ele>69.902482</ele>
        <time>2026-08-15T02:56:02.000Z</time>
      </trkpt>
      <trkpt lat="22.902314" lon="109.307704">
        <ele>69.914960</ele>
        <time>2026-08-15T02:56:03.000Z</time>
      </trkpt>
      <trkpt lat="22.902292" lon="109.307733">
        <ele>69.926893</ele>
        <time>2026-08-15T02:56:04.000Z</time>
      </trkpt>
      <trkpt lat="22.902268" lon="109.307765">
        <ele>69.939999</ele>
        <time>2026-08-15T02:56:05.000Z</time>
      </trkpt>
      <trkpt lat="22.902246" lon="109.307797">
        <ele>69.952681</ele>
        <time>2026-08-15T02:56:06.000Z</time>
      </trkpt>
      <trkpt lat="22.902222" lon="109.307829">
        <ele>69.965787</ele>
        <time>2026-08-15T02:56:07.000Z</time>
      </trkpt>
      <trkpt lat="22.902198" lon="109.307860">
        <ele>69.978649</ele>
        <time>2026-08-15T02:56:08.000Z</time>
      </trkpt>
      <trkpt lat="22.902171" lon="109.307887">
        <ele>69.991306</ele>
        <time>2026-08-15T02:56:09.000Z</time>
      </trkpt>
      <trkpt lat="22.902146" lon="109.307917">
        <ele>70.004154</ele>
        <time>2026-08-15T02:56:10.000Z</time>
      </trkpt>
      <trkpt lat="22.902122" lon="109.307951">
        <ele>70.017759</ele>
        <time>2026-08-15T02:56:11.000Z</time>
      </trkpt>
      <trkpt lat="22.902100" lon="109.307983">
        <ele>70.030441</ele>
        <time>2026-08-15T02:56:12.000Z</time>
      </trkpt>
      <trkpt lat="22.902074" lon="109.308014">
        <ele>70.043757</ele>
        <time>2026-08-15T02:56:13.000Z</time>
      </trkpt>
      <trkpt lat="22.902049" lon="109.308046">
        <ele>70.057083</ele>
        <time>2026-08-15T02:56:14.000Z</time>
      </trkpt>
      <trkpt lat="22.902023" lon="109.308078">
        <ele>70.070636</ele>
        <time>2026-08-15T02:56:15.000Z</time>
      </trkpt>
      <trkpt lat="22.901999" lon="109.308113">
        <ele>70.084494</ele>
        <time>2026-08-15T02:56:16.000Z</time>
      </trkpt>
      <trkpt lat="22.901975" lon="109.308147">
        <ele>70.098098</ele>
        <time>2026-08-15T02:56:17.000Z</time>
      </trkpt>
      <trkpt lat="22.901949" lon="109.308181">
        <ele>70.112133</ele>
        <time>2026-08-15T02:56:18.000Z</time>
      </trkpt>
      <trkpt lat="22.901921" lon="109.308216">
        <ele>70.126857</ele>
        <time>2026-08-15T02:56:19.000Z</time>
      </trkpt>
      <trkpt lat="22.901895" lon="109.308250">
        <ele>70.140891</ele>
        <time>2026-08-15T02:56:20.000Z</time>
      </trkpt>
      <trkpt lat="22.901869" lon="109.308285">
        <ele>70.155172</ele>
        <time>2026-08-15T02:56:21.000Z</time>
      </trkpt>
      <trkpt lat="22.901844" lon="109.308321">
        <ele>70.169491</ele>
        <time>2026-08-15T02:56:22.000Z</time>
      </trkpt>
      <trkpt lat="22.901818" lon="109.308360">
        <ele>70.184782</ele>
        <time>2026-08-15T02:56:23.000Z</time>
      </trkpt>
      <trkpt lat="22.901793" lon="109.308399">
        <ele>70.199872</ele>
        <time>2026-08-15T02:56:24.000Z</time>
      </trkpt>
      <trkpt lat="22.901770" lon="109.308439">
        <ele>70.214849</ele>
        <time>2026-08-15T02:56:25.000Z</time>
      </trkpt>
      <trkpt lat="22.901748" lon="109.308480">
        <ele>70.229919</ele>
        <time>2026-08-15T02:56:26.000Z</time>
      </trkpt>
      <trkpt lat="22.901727" lon="109.308523">
        <ele>70.245377</ele>
        <time>2026-08-15T02:56:27.000Z</time>
      </trkpt>
      <trkpt lat="22.901707" lon="109.308566">
        <ele>70.260677</ele>
        <time>2026-08-15T02:56:28.000Z</time>
      </trkpt>
      <trkpt lat="22.901691" lon="109.308611">
        <ele>70.269587</ele>
        <time>2026-08-15T02:56:29.000Z</time>
      </trkpt>
      <trkpt lat="22.901676" lon="109.308656">
        <ele>70.253024</ele>
        <time>2026-08-15T02:56:30.000Z</time>
      </trkpt>
      <trkpt lat="22.901665" lon="109.308702">
        <ele>70.236576</ele>
        <time>2026-08-15T02:56:31.000Z</time>
      </trkpt>
      <trkpt lat="22.901657" lon="109.308747">
        <ele>70.220714</ele>
        <time>2026-08-15T02:56:32.000Z</time>
      </trkpt>
      <trkpt lat="22.901653" lon="109.308795">
        <ele>70.204033</ele>
        <time>2026-08-15T02:56:33.000Z</time>
      </trkpt>
      <trkpt lat="22.901650" lon="109.308844">
        <ele>70.187036</ele>
        <time>2026-08-15T02:56:34.000Z</time>
      </trkpt>
      <trkpt lat="22.901648" lon="109.308896">
        <ele>70.169023</ele>
        <time>2026-08-15T02:56:35.000Z</time>
      </trkpt>
      <trkpt lat="22.901649" lon="109.308944">
        <ele>70.152406</ele>
        <time>2026-08-15T02:56:36.000Z</time>
      </trkpt>
      <trkpt lat="22.901653" lon="109.308992">
        <ele>70.135725</ele>
        <time>2026-08-15T02:56:37.000Z</time>
      </trkpt>
      <trkpt lat="22.901661" lon="109.309041">
        <ele>70.118502</ele>
        <time>2026-08-15T02:56:38.000Z</time>
      </trkpt>
      <trkpt lat="22.901672" lon="109.309089">
        <ele>70.101383</ele>
        <time>2026-08-15T02:56:39.000Z</time>
      </trkpt>
      <trkpt lat="22.901683" lon="109.309137">
        <ele>70.084263</ele>
        <time>2026-08-15T02:56:40.000Z</time>
      </trkpt>
      <trkpt lat="22.901695" lon="109.309185">
        <ele>70.067050</ele>
        <time>2026-08-15T02:56:41.000Z</time>
      </trkpt>
      <trkpt lat="22.901708" lon="109.309231">
        <ele>70.050396</ele>
        <time>2026-08-15T02:56:42.000Z</time>
      </trkpt>
      <trkpt lat="22.901724" lon="109.309280">
        <ele>70.032403</ele>
        <time>2026-08-15T02:56:43.000Z</time>
      </trkpt>
      <trkpt lat="22.901739" lon="109.309328">
        <ele>70.014861</ele>
        <time>2026-08-15T02:56:44.000Z</time>
      </trkpt>
      <trkpt lat="22.901753" lon="109.309377">
        <ele>69.997105</ele>
        <time>2026-08-15T02:56:45.000Z</time>
      </trkpt>
      <trkpt lat="22.901768" lon="109.309426">
        <ele>69.979234</ele>
        <time>2026-08-15T02:56:46.000Z</time>
      </trkpt>
      <trkpt lat="22.901782" lon="109.309475">
        <ele>69.961478</ele>
        <time>2026-08-15T02:56:47.000Z</time>
      </trkpt>
      <trkpt lat="22.901797" lon="109.309525">
        <ele>69.943278</ele>
        <time>2026-08-15T02:56:48.000Z</time>
      </trkpt>
      <trkpt lat="22.901812" lon="109.309576">
        <ele>69.924749</ele>
        <time>2026-08-15T02:56:49.000Z</time>
      </trkpt>
      <trkpt lat="22.901828" lon="109.309629">
        <ele>69.905445</ele>
        <time>2026-08-15T02:56:50.000Z</time>
      </trkpt>
      <trkpt lat="22.901845" lon="109.309682">
        <ele>69.886022</ele>
        <time>2026-08-15T02:56:51.000Z</time>
      </trkpt>
      <trkpt lat="22.901863" lon="109.309737">
        <ele>69.865821</ele>
        <time>2026-08-15T02:56:52.000Z</time>
      </trkpt>
      <trkpt lat="22.901882" lon="109.309790">
        <ele>69.846137</ele>
        <time>2026-08-15T02:56:53.000Z</time>
      </trkpt>
      <trkpt lat="22.901898" lon="109.309843">
        <ele>69.826834</ele>
        <time>2026-08-15T02:56:54.000Z</time>
      </trkpt>
      <trkpt lat="22.901914" lon="109.309895">
        <ele>69.807859</ele>
        <time>2026-08-15T02:56:55.000Z</time>
      </trkpt>
      <trkpt lat="22.901931" lon="109.309945">
        <ele>69.789413</ele>
        <time>2026-08-15T02:56:56.000Z</time>
      </trkpt>
      <trkpt lat="22.901941" lon="109.309991">
        <ele>69.773055</ele>
        <time>2026-08-15T02:56:57.000Z</time>
      </trkpt>
      <trkpt lat="22.901958" lon="109.310038">
        <ele>69.755579</ele>
        <time>2026-08-15T02:56:58.000Z</time>
      </trkpt>
      <trkpt lat="22.901972" lon="109.310082">
        <ele>69.739468</ele>
        <time>2026-08-15T02:56:59.000Z</time>
      </trkpt>
      <trkpt lat="22.901988" lon="109.310128">
        <ele>69.722450</ele>
        <time>2026-08-15T02:57:00.000Z</time>
      </trkpt>
      <trkpt lat="22.902001" lon="109.310173">
        <ele>69.706127</ele>
        <time>2026-08-15T02:57:01.000Z</time>
      </trkpt>
      <trkpt lat="22.902017" lon="109.310215">
        <ele>69.690397</ele>
        <time>2026-08-15T02:57:02.000Z</time>
      </trkpt>
      <trkpt lat="22.902033" lon="109.310255">
        <ele>69.675304</ele>
        <time>2026-08-15T02:57:03.000Z</time>
      </trkpt>
      <trkpt lat="22.902046" lon="109.310297">
        <ele>69.659969</ele>
        <time>2026-08-15T02:57:04.000Z</time>
      </trkpt>
      <trkpt lat="22.902060" lon="109.310338">
        <ele>69.644835</ele>
        <time>2026-08-15T02:57:05.000Z</time>
      </trkpt>
      <trkpt lat="22.902073" lon="109.310381">
        <ele>69.629172</ele>
        <time>2026-08-15T02:57:06.000Z</time>
      </trkpt>
      <trkpt lat="22.902087" lon="109.310425">
        <ele>69.613061</ele>
        <time>2026-08-15T02:57:07.000Z</time>
      </trkpt>
      <trkpt lat="22.902096" lon="109.310471">
        <ele>69.596978</ele>
        <time>2026-08-15T02:57:08.000Z</time>
      </trkpt>
      <trkpt lat="22.902105" lon="109.310516">
        <ele>69.589598</ele>
        <time>2026-08-15T02:57:09.000Z</time>
      </trkpt>
      <trkpt lat="22.902117" lon="109.310560">
        <ele>69.582243</ele>
        <time>2026-08-15T02:57:10.000Z</time>
      </trkpt>
      <trkpt lat="22.902129" lon="109.310603">
        <ele>69.575043</ele>
        <time>2026-08-15T02:57:11.000Z</time>
      </trkpt>
      <trkpt lat="22.902144" lon="109.310647">
        <ele>69.567523</ele>
        <time>2026-08-15T02:57:12.000Z</time>
      </trkpt>
      <trkpt lat="22.902155" lon="109.310688">
        <ele>69.560679</ele>
        <time>2026-08-15T02:57:13.000Z</time>
      </trkpt>
      <trkpt lat="22.902168" lon="109.310729">
        <ele>69.553730</ele>
        <time>2026-08-15T02:57:14.000Z</time>
      </trkpt>
      <trkpt lat="22.902181" lon="109.310772">
        <ele>69.546476</ele>
        <time>2026-08-15T02:57:15.000Z</time>
      </trkpt>
      <trkpt lat="22.902195" lon="109.310813">
        <ele>69.539468</ele>
        <time>2026-08-15T02:57:16.000Z</time>
      </trkpt>
      <trkpt lat="22.902212" lon="109.310854">
        <ele>69.532262</ele>
        <time>2026-08-15T02:57:17.000Z</time>
      </trkpt>
      <trkpt lat="22.902226" lon="109.310895">
        <ele>69.525254</ele>
        <time>2026-08-15T02:57:18.000Z</time>
      </trkpt>
      <trkpt lat="22.902239" lon="109.310936">
        <ele>69.518305</ele>
        <time>2026-08-15T02:57:19.000Z</time>
      </trkpt>
      <trkpt lat="22.902249" lon="109.310978">
        <ele>69.511352</ele>
        <time>2026-08-15T02:57:20.000Z</time>
      </trkpt>
      <trkpt lat="22.902261" lon="109.311016">
        <ele>69.504914</ele>
        <time>2026-08-15T02:57:21.000Z</time>
      </trkpt>
      <trkpt lat="22.902274" lon="109.311054">
        <ele>69.498418</ele>
        <time>2026-08-15T02:57:22.000Z</time>
      </trkpt>
      <trkpt lat="22.902286" lon="109.311093">
        <ele>69.491828</ele>
        <time>2026-08-15T02:57:23.000Z</time>
      </trkpt>
      <trkpt lat="22.902299" lon="109.311134">
        <ele>69.484878</ele>
        <time>2026-08-15T02:57:24.000Z</time>
      </trkpt>
      <trkpt lat="22.902309" lon="109.311176">
        <ele>69.477926</ele>
        <time>2026-08-15T02:57:25.000Z</time>
      </trkpt>
      <trkpt lat="22.902321" lon="109.311220">
        <ele>69.470571</ele>
        <time>2026-08-15T02:57:26.000Z</time>
      </trkpt>
      <trkpt lat="22.902333" lon="109.311264">
        <ele>69.463217</ele>
        <time>2026-08-15T02:57:27.000Z</time>
      </trkpt>
      <trkpt lat="22.902347" lon="109.311310">
        <ele>69.455452</ele>
        <time>2026-08-15T02:57:28.000Z</time>
      </trkpt>
      <trkpt lat="22.902363" lon="109.311357">
        <ele>69.447422</ele>
        <time>2026-08-15T02:57:29.000Z</time>
      </trkpt>
      <trkpt lat="22.902379" lon="109.311405">
        <ele>69.439241</ele>
        <time>2026-08-15T02:57:30.000Z</time>
      </trkpt>
      <trkpt lat="22.902394" lon="109.311453">
        <ele>69.431117</ele>
        <time>2026-08-15T02:57:31.000Z</time>
      </trkpt>
      <trkpt lat="22.902410" lon="109.311501">
        <ele>69.422936</ele>
        <time>2026-08-15T02:57:32.000Z</time>
      </trkpt>
      <trkpt lat="22.902426" lon="109.311550">
        <ele>69.414604</ele>
        <time>2026-08-15T02:57:33.000Z</time>
      </trkpt>
      <trkpt lat="22.902442" lon="109.311599">
        <ele>69.406272</ele>
        <time>2026-08-15T02:57:34.000Z</time>
      </trkpt>
      <trkpt lat="22.902457" lon="109.311649">
        <ele>69.397844</ele>
        <time>2026-08-15T02:57:35.000Z</time>
      </trkpt>
      <trkpt lat="22.902471" lon="109.311699">
        <ele>69.389469</ele>
        <time>2026-08-15T02:57:36.000Z</time>
      </trkpt>
      <trkpt lat="22.902483" lon="109.311747">
        <ele>69.381497</ele>
        <time>2026-08-15T02:57:37.000Z</time>
      </trkpt>
      <trkpt lat="22.902494" lon="109.311794">
        <ele>69.373725</ele>
        <time>2026-08-15T02:57:38.000Z</time>
      </trkpt>
      <trkpt lat="22.902507" lon="109.311840">
        <ele>69.366014</ele>
        <time>2026-08-15T02:57:39.000Z</time>
      </trkpt>
      <trkpt lat="22.902521" lon="109.311885">
        <ele>69.358401</ele>
        <time>2026-08-15T02:57:40.000Z</time>
      </trkpt>
      <trkpt lat="22.902534" lon="109.311927">
        <ele>69.351300</ele>
        <time>2026-08-15T02:57:41.000Z</time>
      </trkpt>
      <trkpt lat="22.902547" lon="109.311968">
        <ele>69.344351</ele>
        <time>2026-08-15T02:57:42.000Z</time>
      </trkpt>
      <trkpt lat="22.902562" lon="109.312009">
        <ele>69.337281</ele>
        <time>2026-08-15T02:57:43.000Z</time>
      </trkpt>
      <trkpt lat="22.902576" lon="109.312051">
        <ele>69.330122</ele>
        <time>2026-08-15T02:57:44.000Z</time>
      </trkpt>
      <trkpt lat="22.902591" lon="109.312089">
        <ele>69.323496</ele>
        <time>2026-08-15T02:57:45.000Z</time>
      </trkpt>
      <trkpt lat="22.902604" lon="109.312121">
        <ele>69.317891</ele>
        <time>2026-08-15T02:57:46.000Z</time>
      </trkpt>
      <trkpt lat="22.902615" lon="109.312151">
        <ele>69.312716</ele>
        <time>2026-08-15T02:57:47.000Z</time>
      </trkpt>
      <trkpt lat="22.902625" lon="109.312181">
        <ele>69.307603</ele>
        <time>2026-08-15T02:57:48.000Z</time>
      </trkpt>
      <trkpt lat="22.902638" lon="109.312210">
        <ele>69.302434</ele>
        <time>2026-08-15T02:57:49.000Z</time>
      </trkpt>
      <trkpt lat="22.902655" lon="109.312238">
        <ele>69.297059</ele>
        <time>2026-08-15T02:57:50.000Z</time>
      </trkpt>
      <trkpt lat="22.902670" lon="109.312267">
        <ele>69.291729</ele>
        <time>2026-08-15T02:57:51.000Z</time>
      </trkpt>
      <trkpt lat="22.902678" lon="109.312298">
        <ele>69.286569</ele>
        <time>2026-08-15T02:57:52.000Z</time>
      </trkpt>
      <trkpt lat="22.902684" lon="109.312331">
        <ele>69.288189</ele>
        <time>2026-08-15T02:57:53.000Z</time>
      </trkpt>
      <trkpt lat="22.902688" lon="109.312363">
        <ele>69.294992</ele>
        <time>2026-08-15T02:57:54.000Z</time>
      </trkpt>
      <trkpt lat="22.902692" lon="109.312394">
        <ele>69.301585</ele>
        <time>2026-08-15T02:57:55.000Z</time>
      </trkpt>
      <trkpt lat="22.902698" lon="109.312425">
        <ele>69.308258</ele>
        <time>2026-08-15T02:57:56.000Z</time>
      </trkpt>
      <trkpt lat="22.902706" lon="109.312455">
        <ele>69.314837</ele>
        <time>2026-08-15T02:57:57.000Z</time>
      </trkpt>
      <trkpt lat="22.902715" lon="109.312485">
        <ele>69.321483</ele>
        <time>2026-08-15T02:57:58.000Z</time>
      </trkpt>
      <trkpt lat="22.902726" lon="109.312516">
        <ele>69.328480</ele>
        <time>2026-08-15T02:57:59.000Z</time>
      </trkpt>
      <trkpt lat="22.902739" lon="109.312549">
        <ele>69.336041</ele>
        <time>2026-08-15T02:58:00.000Z</time>
      </trkpt>
      <trkpt lat="22.902750" lon="109.312582">
        <ele>69.343433</ele>
        <time>2026-08-15T02:58:01.000Z</time>
      </trkpt>
      <trkpt lat="22.902759" lon="109.312618">
        <ele>69.351291</ele>
        <time>2026-08-15T02:58:02.000Z</time>
      </trkpt>
      <trkpt lat="22.902767" lon="109.312655">
        <ele>69.359296</ele>
        <time>2026-08-15T02:58:03.000Z</time>
      </trkpt>
      <trkpt lat="22.902776" lon="109.312692">
        <ele>69.367357</ele>
        <time>2026-08-15T02:58:04.000Z</time>
      </trkpt>
      <trkpt lat="22.902787" lon="109.312732">
        <ele>69.376150</ele>
        <time>2026-08-15T02:58:05.000Z</time>
      </trkpt>
      <trkpt lat="22.902797" lon="109.312772">
        <ele>69.384881</ele>
        <time>2026-08-15T02:58:06.000Z</time>
      </trkpt>
      <trkpt lat="22.902811" lon="109.312813">
        <ele>69.394092</ele>
        <time>2026-08-15T02:58:07.000Z</time>
      </trkpt>
      <trkpt lat="22.902826" lon="109.312853">
        <ele>69.403189</ele>
        <time>2026-08-15T02:58:08.000Z</time>
      </trkpt>
      <trkpt lat="22.902838" lon="109.312892">
        <ele>69.411850</ele>
        <time>2026-08-15T02:58:09.000Z</time>
      </trkpt>
      <trkpt lat="22.902850" lon="109.312932">
        <ele>69.420712</ele>
        <time>2026-08-15T02:58:10.000Z</time>
      </trkpt>
      <trkpt lat="22.902863" lon="109.312971">
        <ele>69.429448</ele>
        <time>2026-08-15T02:58:11.000Z</time>
      </trkpt>
      <trkpt lat="22.902876" lon="109.313012">
        <ele>69.438582</ele>
        <time>2026-08-15T02:58:12.000Z</time>
      </trkpt>
      <trkpt lat="22.902889" lon="109.313052">
        <ele>69.447517</ele>
        <time>2026-08-15T02:58:13.000Z</time>
      </trkpt>
      <trkpt lat="22.902903" lon="109.313094">
        <ele>69.456925</ele>
        <time>2026-08-15T02:58:14.000Z</time>
      </trkpt>
      <trkpt lat="22.902916" lon="109.313138">
        <ele>69.466659</ele>
        <time>2026-08-15T02:58:15.000Z</time>
      </trkpt>
      <trkpt lat="22.902929" lon="109.313181">
        <ele>69.476192</ele>
        <time>2026-08-15T02:58:16.000Z</time>
      </trkpt>
      <trkpt lat="22.902941" lon="109.313224">
        <ele>69.485656</ele>
        <time>2026-08-15T02:58:17.000Z</time>
      </trkpt>
      <trkpt lat="22.902951" lon="109.313267">
        <ele>69.494998</ele>
        <time>2026-08-15T02:58:18.000Z</time>
      </trkpt>
      <trkpt lat="22.902964" lon="109.313309">
        <ele>69.504331</ele>
        <time>2026-08-15T02:58:19.000Z</time>
      </trkpt>
      <trkpt lat="22.902976" lon="109.313350">
        <ele>69.513393</ele>
        <time>2026-08-15T02:58:20.000Z</time>
      </trkpt>
      <trkpt lat="22.902991" lon="109.313393">
        <ele>69.523078</ele>
        <time>2026-08-15T02:58:21.000Z</time>
      </trkpt>
      <trkpt lat="22.903004" lon="109.313440">
        <ele>69.533415</ele>
        <time>2026-08-15T02:58:22.000Z</time>
      </trkpt>
      <trkpt lat="22.903018" lon="109.313486">
        <ele>69.543620</ele>
        <time>2026-08-15T02:58:23.000Z</time>
      </trkpt>
      <trkpt lat="22.903032" lon="109.313533">
        <ele>69.554025</ele>
        <time>2026-08-15T02:58:24.000Z</time>
      </trkpt>
      <trkpt lat="22.903046" lon="109.313580">
        <ele>69.564430</ele>
        <time>2026-08-15T02:58:25.000Z</time>
      </trkpt>
      <trkpt lat="22.903061" lon="109.313628">
        <ele>69.575107</ele>
        <time>2026-08-15T02:58:26.000Z</time>
      </trkpt>
      <trkpt lat="22.903077" lon="109.313677">
        <ele>69.586058</ele>
        <time>2026-08-15T02:58:27.000Z</time>
      </trkpt>
      <trkpt lat="22.903094" lon="109.313726">
        <ele>69.597087</ele>
        <time>2026-08-15T02:58:28.000Z</time>
      </trkpt>
      <trkpt lat="22.903112" lon="109.313775">
        <ele>69.608199</ele>
        <time>2026-08-15T02:58:29.000Z</time>
      </trkpt>
      <trkpt lat="22.903128" lon="109.313823">
        <ele>69.618952</ele>
        <time>2026-08-15T02:58:30.000Z</time>
      </trkpt>
      <trkpt lat="22.903144" lon="109.313872">
        <ele>69.629902</ele>
        <time>2026-08-15T02:58:31.000Z</time>
      </trkpt>
      <trkpt lat="22.903158" lon="109.313921">
        <ele>69.640709</ele>
        <time>2026-08-15T02:58:32.000Z</time>
      </trkpt>
      <trkpt lat="22.903172" lon="109.313972">
        <ele>69.651919</ele>
        <time>2026-08-15T02:58:33.000Z</time>
      </trkpt>
      <trkpt lat="22.903187" lon="109.314023">
        <ele>69.663196</ele>
        <time>2026-08-15T02:58:34.000Z</time>
      </trkpt>
      <trkpt lat="22.903200" lon="109.314074">
        <ele>69.674342</ele>
        <time>2026-08-15T02:58:35.000Z</time>
      </trkpt>
      <trkpt lat="22.903213" lon="109.314124">
        <ele>69.685286</ele>
        <time>2026-08-15T02:58:36.000Z</time>
      </trkpt>
      <trkpt lat="22.903228" lon="109.314176">
        <ele>69.694125</ele>
        <time>2026-08-15T02:58:37.000Z</time>
      </trkpt>
      <trkpt lat="22.903245" lon="109.314226">
        <ele>69.681801</ele>
        <time>2026-08-15T02:58:38.000Z</time>
      </trkpt>
      <trkpt lat="22.903262" lon="109.314276">
        <ele>69.669477</ele>
        <time>2026-08-15T02:58:39.000Z</time>
      </trkpt>
      <trkpt lat="22.903280" lon="109.314324">
        <ele>69.657494</ele>
        <time>2026-08-15T02:58:40.000Z</time>
      </trkpt>
      <trkpt lat="22.903295" lon="109.314378">
        <ele>69.644452</ele>
        <time>2026-08-15T02:58:41.000Z</time>
      </trkpt>
      <trkpt lat="22.903305" lon="109.314431">
        <ele>69.631942</ele>
        <time>2026-08-15T02:58:42.000Z</time>
      </trkpt>
      <trkpt lat="22.903318" lon="109.314483">
        <ele>69.619483</ele>
        <time>2026-08-15T02:58:43.000Z</time>
      </trkpt>
      <trkpt lat="22.903339" lon="109.314529">
        <ele>69.607612</ele>
        <time>2026-08-15T02:58:44.000Z</time>
      </trkpt>
      <trkpt lat="22.903351" lon="109.314578">
        <ele>69.595888</ele>
        <time>2026-08-15T02:58:45.000Z</time>
      </trkpt>
      <trkpt lat="22.903367" lon="109.314627">
        <ele>69.583867</ele>
        <time>2026-08-15T02:58:46.000Z</time>
      </trkpt>
      <trkpt lat="22.903384" lon="109.314678">
        <ele>69.571326</ele>
        <time>2026-08-15T02:58:47.000Z</time>
      </trkpt>
      <trkpt lat="22.903398" lon="109.314729">
        <ele>69.559021</ele>
        <time>2026-08-15T02:58:48.000Z</time>
      </trkpt>
      <trkpt lat="22.903413" lon="109.314782">
        <ele>69.546200</ele>
        <time>2026-08-15T02:58:49.000Z</time>
      </trkpt>
      <trkpt lat="22.903429" lon="109.314837">
        <ele>69.532863</ele>
        <time>2026-08-15T02:58:50.000Z</time>
      </trkpt>
      <trkpt lat="22.903448" lon="109.314888">
        <ele>69.520142</ele>
        <time>2026-08-15T02:58:51.000Z</time>
      </trkpt>
      <trkpt lat="22.903463" lon="109.314942">
        <ele>69.507100</ele>
        <time>2026-08-15T02:58:52.000Z</time>
      </trkpt>
      <trkpt lat="22.903483" lon="109.314996">
        <ele>69.493643</ele>
        <time>2026-08-15T02:58:53.000Z</time>
      </trkpt>
      <trkpt lat="22.903502" lon="109.315051">
        <ele>69.480060</ele>
        <time>2026-08-15T02:58:54.000Z</time>
      </trkpt>
      <trkpt lat="22.903519" lon="109.315105">
        <ele>69.466864</ele>
        <time>2026-08-15T02:58:55.000Z</time>
      </trkpt>
      <trkpt lat="22.903533" lon="109.315159">
        <ele>69.453893</ele>
        <time>2026-08-15T02:58:56.000Z</time>
      </trkpt>
      <trkpt lat="22.903552" lon="109.315212">
        <ele>69.440742</ele>
        <time>2026-08-15T02:58:57.000Z</time>
      </trkpt>
      <trkpt lat="22.903572" lon="109.315263">
        <ele>69.427925</ele>
        <time>2026-08-15T02:58:58.000Z</time>
      </trkpt>
      <trkpt lat="22.903589" lon="109.315314">
        <ele>69.415384</ele>
        <time>2026-08-15T02:58:59.000Z</time>
      </trkpt>
      <trkpt lat="22.903607" lon="109.315362">
        <ele>69.403401</ele>
        <time>2026-08-15T02:59:00.000Z</time>
      </trkpt>
      <trkpt lat="22.903625" lon="109.315406">
        <ele>69.392268</ele>
        <time>2026-08-15T02:59:01.000Z</time>
      </trkpt>
      <trkpt lat="22.903636" lon="109.315442">
        <ele>69.383498</ele>
        <time>2026-08-15T02:59:02.000Z</time>
      </trkpt>
      <trkpt lat="22.903640" lon="109.315472">
        <ele>69.376489</ele>
        <time>2026-08-15T02:59:03.000Z</time>
      </trkpt>
      <trkpt lat="22.903631" lon="109.315490">
        <ele>69.371753</ele>
        <time>2026-08-15T02:59:04.000Z</time>
      </trkpt>
      <trkpt lat="22.903621" lon="109.315498">
        <ele>69.368635</ele>
        <time>2026-08-15T02:59:05.000Z</time>
      </trkpt>
      <trkpt lat="22.903613" lon="109.315504">
        <ele>69.366194</ele>
        <time>2026-08-15T02:59:06.000Z</time>
      </trkpt>
      <trkpt lat="22.903611" lon="109.315503">
        <ele>69.365641</ele>
        <time>2026-08-15T02:59:07.000Z</time>
      </trkpt>
      <trkpt lat="22.903763" lon="109.315532">
        <ele>69.326901</ele>
        <time>2026-08-15T03:08:30.000Z</time>
      </trkpt>
      <trkpt lat="22.903774" lon="109.315549">
        <ele>69.322097</ele>
        <time>2026-08-15T03:08:31.000Z</time>
      </trkpt>
      <trkpt lat="22.903779" lon="109.315575">
        <ele>69.315956</ele>
        <time>2026-08-15T03:08:32.000Z</time>
      </trkpt>
      <trkpt lat="22.903783" lon="109.315601">
        <ele>69.309861</ele>
        <time>2026-08-15T03:08:33.000Z</time>
      </trkpt>
      <trkpt lat="22.903786" lon="109.315631">
        <ele>69.302883</ele>
        <time>2026-08-15T03:08:34.000Z</time>
      </trkpt>
      <trkpt lat="22.903792" lon="109.315663">
        <ele>69.295332</ele>
        <time>2026-08-15T03:08:35.000Z</time>
      </trkpt>
      <trkpt lat="22.903798" lon="109.315696">
        <ele>69.287554</ele>
        <time>2026-08-15T03:08:36.000Z</time>
      </trkpt>
      <trkpt lat="22.903800" lon="109.315731">
        <ele>69.279445</ele>
        <time>2026-08-15T03:08:37.000Z</time>
      </trkpt>
      <trkpt lat="22.903807" lon="109.315765">
        <ele>69.271390</ele>
        <time>2026-08-15T03:08:38.000Z</time>
      </trkpt>
      <trkpt lat="22.903815" lon="109.315801">
        <ele>69.262826</ele>
        <time>2026-08-15T03:08:39.000Z</time>
      </trkpt>
      <trkpt lat="22.903824" lon="109.315838">
        <ele>69.253978</ele>
        <time>2026-08-15T03:08:40.000Z</time>
      </trkpt>
      <trkpt lat="22.903833" lon="109.315876">
        <ele>69.244905</ele>
        <time>2026-08-15T03:08:41.000Z</time>
      </trkpt>
      <trkpt lat="22.903843" lon="109.315914">
        <ele>69.244086</ele>
        <time>2026-08-15T03:08:42.000Z</time>
      </trkpt>
      <trkpt lat="22.903852" lon="109.315952">
        <ele>69.244171</ele>
        <time>2026-08-15T03:08:43.000Z</time>
      </trkpt>
      <trkpt lat="22.903862" lon="109.315990">
        <ele>69.244256</ele>
        <time>2026-08-15T03:08:44.000Z</time>
      </trkpt>
      <trkpt lat="22.903872" lon="109.316029">
        <ele>69.244344</ele>
        <time>2026-08-15T03:08:45.000Z</time>
      </trkpt>
      <trkpt lat="22.903881" lon="109.316070">
        <ele>69.244435</ele>
        <time>2026-08-15T03:08:46.000Z</time>
      </trkpt>
      <trkpt lat="22.903891" lon="109.316110">
        <ele>69.244525</ele>
        <time>2026-08-15T03:08:47.000Z</time>
      </trkpt>
      <trkpt lat="22.903902" lon="109.316153">
        <ele>69.244621</ele>
        <time>2026-08-15T03:08:48.000Z</time>
      </trkpt>
      <trkpt lat="22.903914" lon="109.316195">
        <ele>69.244716</ele>
        <time>2026-08-15T03:08:49.000Z</time>
      </trkpt>
      <trkpt lat="22.903926" lon="109.316237">
        <ele>69.244811</ele>
        <time>2026-08-15T03:08:50.000Z</time>
      </trkpt>
      <trkpt lat="22.903938" lon="109.316278">
        <ele>69.244904</ele>
        <time>2026-08-15T03:08:51.000Z</time>
      </trkpt>
      <trkpt lat="22.903949" lon="109.316321">
        <ele>69.245001</ele>
        <time>2026-08-15T03:08:52.000Z</time>
      </trkpt>
      <trkpt lat="22.903960" lon="109.316366">
        <ele>69.245101</ele>
        <time>2026-08-15T03:08:53.000Z</time>
      </trkpt>
      <trkpt lat="22.903971" lon="109.316409">
        <ele>69.245198</ele>
        <time>2026-08-15T03:08:54.000Z</time>
      </trkpt>
      <trkpt lat="22.903983" lon="109.316452">
        <ele>69.245295</ele>
        <time>2026-08-15T03:08:55.000Z</time>
      </trkpt>
      <trkpt lat="22.903997" lon="109.316498">
        <ele>69.245400</ele>
        <time>2026-08-15T03:08:56.000Z</time>
      </trkpt>
      <trkpt lat="22.904012" lon="109.316544">
        <ele>69.245505</ele>
        <time>2026-08-15T03:08:57.000Z</time>
      </trkpt>
      <trkpt lat="22.904022" lon="109.316588">
        <ele>69.245603</ele>
        <time>2026-08-15T03:08:58.000Z</time>
      </trkpt>
      <trkpt lat="22.904030" lon="109.316634">
        <ele>69.245705</ele>
        <time>2026-08-15T03:08:59.000Z</time>
      </trkpt>
      <trkpt lat="22.904041" lon="109.316680">
        <ele>69.245807</ele>
        <time>2026-08-15T03:09:00.000Z</time>
      </trkpt>
      <trkpt lat="22.904054" lon="109.316725">
        <ele>69.245909</ele>
        <time>2026-08-15T03:09:01.000Z</time>
      </trkpt>
      <trkpt lat="22.904065" lon="109.316770">
        <ele>69.246010</ele>
        <time>2026-08-15T03:09:02.000Z</time>
      </trkpt>
      <trkpt lat="22.904077" lon="109.316815">
        <ele>69.246111</ele>
        <time>2026-08-15T03:09:03.000Z</time>
      </trkpt>
      <trkpt lat="22.904090" lon="109.316859">
        <ele>69.246211</ele>
        <time>2026-08-15T03:09:04.000Z</time>
      </trkpt>
      <trkpt lat="22.904103" lon="109.316902">
        <ele>69.246309</ele>
        <time>2026-08-15T03:09:05.000Z</time>
      </trkpt>
      <trkpt lat="22.904116" lon="109.316943">
        <ele>69.246403</ele>
        <time>2026-08-15T03:09:06.000Z</time>
      </trkpt>
      <trkpt lat="22.904127" lon="109.316985">
        <ele>69.246497</ele>
        <time>2026-08-15T03:09:07.000Z</time>
      </trkpt>
      <trkpt lat="22.904140" lon="109.317028">
        <ele>69.246595</ele>
        <time>2026-08-15T03:09:08.000Z</time>
      </trkpt>
      <trkpt lat="22.904154" lon="109.317070">
        <ele>69.246692</ele>
        <time>2026-08-15T03:09:09.000Z</time>
      </trkpt>
      <trkpt lat="22.904167" lon="109.317115">
        <ele>69.246794</ele>
        <time>2026-08-15T03:09:10.000Z</time>
      </trkpt>
      <trkpt lat="22.904178" lon="109.317158">
        <ele>69.246890</ele>
        <time>2026-08-15T03:09:11.000Z</time>
      </trkpt>
      <trkpt lat="22.904188" lon="109.317203">
        <ele>69.246990</ele>
        <time>2026-08-15T03:09:12.000Z</time>
      </trkpt>
      <trkpt lat="22.904200" lon="109.317250">
        <ele>69.247096</ele>
        <time>2026-08-15T03:09:13.000Z</time>
      </trkpt>
      <trkpt lat="22.904213" lon="109.317295">
        <ele>69.247198</ele>
        <time>2026-08-15T03:09:14.000Z</time>
      </trkpt>
      <trkpt lat="22.904225" lon="109.317341">
        <ele>69.247301</ele>
        <time>2026-08-15T03:09:15.000Z</time>
      </trkpt>
      <trkpt lat="22.904236" lon="109.317389">
        <ele>69.247408</ele>
        <time>2026-08-15T03:09:16.000Z</time>
      </trkpt>
      <trkpt lat="22.904251" lon="109.317437">
        <ele>69.247517</ele>
        <time>2026-08-15T03:09:17.000Z</time>
      </trkpt>
      <trkpt lat="22.904265" lon="109.317485">
        <ele>69.247626</ele>
        <time>2026-08-15T03:09:18.000Z</time>
      </trkpt>
      <trkpt lat="22.904280" lon="109.317530">
        <ele>69.247730</ele>
        <time>2026-08-15T03:09:19.000Z</time>
      </trkpt>
      <trkpt lat="22.904291" lon="109.317579">
        <ele>69.247839</ele>
        <time>2026-08-15T03:09:20.000Z</time>
      </trkpt>
      <trkpt lat="22.904304" lon="109.317627">
        <ele>69.247947</ele>
        <time>2026-08-15T03:09:21.000Z</time>
      </trkpt>
      <trkpt lat="22.904316" lon="109.317675">
        <ele>69.248055</ele>
        <time>2026-08-15T03:09:22.000Z</time>
      </trkpt>
      <trkpt lat="22.904327" lon="109.317721">
        <ele>69.248157</ele>
        <time>2026-08-15T03:09:23.000Z</time>
      </trkpt>
      <trkpt lat="22.904336" lon="109.317770">
        <ele>69.239702</ele>
        <time>2026-08-15T03:09:24.000Z</time>
      </trkpt>
      <trkpt lat="22.904347" lon="109.317814">
        <ele>69.215353</ele>
        <time>2026-08-15T03:09:25.000Z</time>
      </trkpt>
      <trkpt lat="22.904361" lon="109.317861">
        <ele>69.188973</ele>
        <time>2026-08-15T03:09:26.000Z</time>
      </trkpt>
      <trkpt lat="22.904376" lon="109.317911">
        <ele>69.160890</ele>
        <time>2026-08-15T03:09:27.000Z</time>
      </trkpt>
      <trkpt lat="22.904388" lon="109.317961">
        <ele>69.133296</ele>
        <time>2026-08-15T03:09:28.000Z</time>
      </trkpt>
      <trkpt lat="22.904399" lon="109.318012">
        <ele>69.105323</ele>
        <time>2026-08-15T03:09:29.000Z</time>
      </trkpt>
      <trkpt lat="22.904413" lon="109.318065">
        <ele>69.075878</ele>
        <time>2026-08-15T03:09:30.000Z</time>
      </trkpt>
      <trkpt lat="22.904424" lon="109.318118">
        <ele>69.046864</ele>
        <time>2026-08-15T03:09:31.000Z</time>
      </trkpt>
      <trkpt lat="22.904432" lon="109.318172">
        <ele>69.017654</ele>
        <time>2026-08-15T03:09:32.000Z</time>
      </trkpt>
      <trkpt lat="22.904439" lon="109.318224">
        <ele>68.989589</ele>
        <time>2026-08-15T03:09:33.000Z</time>
      </trkpt>
      <trkpt lat="22.904445" lon="109.318276">
        <ele>68.961601</ele>
        <time>2026-08-15T03:09:34.000Z</time>
      </trkpt>
      <trkpt lat="22.904452" lon="109.318328">
        <ele>68.933536</ele>
        <time>2026-08-15T03:09:35.000Z</time>
      </trkpt>
      <trkpt lat="22.904457" lon="109.318380">
        <ele>68.905614</ele>
        <time>2026-08-15T03:09:36.000Z</time>
      </trkpt>
      <trkpt lat="22.904462" lon="109.318431">
        <ele>68.878224</ele>
        <time>2026-08-15T03:09:37.000Z</time>
      </trkpt>
      <trkpt lat="22.904466" lon="109.318481">
        <ele>68.851421</ele>
        <time>2026-08-15T03:09:38.000Z</time>
      </trkpt>
      <trkpt lat="22.904472" lon="109.318531">
        <ele>68.824493</ele>
        <time>2026-08-15T03:09:39.000Z</time>
      </trkpt>
      <trkpt lat="22.904477" lon="109.318582">
        <ele>68.797102</ele>
        <time>2026-08-15T03:09:40.000Z</time>
      </trkpt>
      <trkpt lat="22.904485" lon="109.318633">
        <ele>68.769474</ele>
        <time>2026-08-15T03:09:41.000Z</time>
      </trkpt>
      <trkpt lat="22.904493" lon="109.318684">
        <ele>68.741845</ele>
        <time>2026-08-15T03:09:42.000Z</time>
      </trkpt>
      <trkpt lat="22.904501" lon="109.318733">
        <ele>68.715269</ele>
        <time>2026-08-15T03:09:43.000Z</time>
      </trkpt>
      <trkpt lat="22.904505" lon="109.318784">
        <ele>68.687934</ele>
        <time>2026-08-15T03:09:44.000Z</time>
      </trkpt>
      <trkpt lat="22.904511" lon="109.318835">
        <ele>68.660476</ele>
        <time>2026-08-15T03:09:45.000Z</time>
      </trkpt>
      <trkpt lat="22.904519" lon="109.318886">
        <ele>68.632847</ele>
        <time>2026-08-15T03:09:46.000Z</time>
      </trkpt>
      <trkpt lat="22.904525" lon="109.318938">
        <ele>68.604860</ele>
        <time>2026-08-15T03:09:47.000Z</time>
      </trkpt>
      <trkpt lat="22.904531" lon="109.318989">
        <ele>68.577402</ele>
        <time>2026-08-15T03:09:48.000Z</time>
      </trkpt>
      <trkpt lat="22.904539" lon="109.319040">
        <ele>68.549773</ele>
        <time>2026-08-15T03:09:49.000Z</time>
      </trkpt>
      <trkpt lat="22.904545" lon="109.319090">
        <ele>68.522845</ele>
        <time>2026-08-15T03:09:50.000Z</time>
      </trkpt>
      <trkpt lat="22.904555" lon="109.319142">
        <ele>68.494476</ele>
        <time>2026-08-15T03:09:51.000Z</time>
      </trkpt>
      <trkpt lat="22.904562" lon="109.319194">
        <ele>68.466410</ele>
        <time>2026-08-15T03:09:52.000Z</time>
      </trkpt>
      <trkpt lat="22.904568" lon="109.319247">
        <ele>68.437893</ele>
        <time>2026-08-15T03:09:53.000Z</time>
      </trkpt>
      <trkpt lat="22.904574" lon="109.319299">
        <ele>68.409905</ele>
        <time>2026-08-15T03:09:54.000Z</time>
      </trkpt>
      <trkpt lat="22.904581" lon="109.319354">
        <ele>68.380253</ele>
        <time>2026-08-15T03:09:55.000Z</time>
      </trkpt>
      <trkpt lat="22.904585" lon="109.319408">
        <ele>68.351321</ele>
        <time>2026-08-15T03:09:56.000Z</time>
      </trkpt>
      <trkpt lat="22.904591" lon="109.319462">
        <ele>68.322274</ele>
        <time>2026-08-15T03:09:57.000Z</time>
      </trkpt>
      <trkpt lat="22.904597" lon="109.319516">
        <ele>68.293226</ele>
        <time>2026-08-15T03:09:58.000Z</time>
      </trkpt>
      <trkpt lat="22.904603" lon="109.319572">
        <ele>68.263118</ele>
        <time>2026-08-15T03:09:59.000Z</time>
      </trkpt>
      <trkpt lat="22.904608" lon="109.319629">
        <ele>68.232539</ele>
        <time>2026-08-15T03:10:00.000Z</time>
      </trkpt>
      <trkpt lat="22.904614" lon="109.319686">
        <ele>68.201984</ele>
        <time>2026-08-15T03:10:01.000Z</time>
      </trkpt>
      <trkpt lat="22.904619" lon="109.319744">
        <ele>68.171607</ele>
        <time>2026-08-15T03:10:02.000Z</time>
      </trkpt>
      <trkpt lat="22.904627" lon="109.319802">
        <ele>68.141025</ele>
        <time>2026-08-15T03:10:03.000Z</time>
      </trkpt>
      <trkpt lat="22.904635" lon="109.319862">
        <ele>68.109411</ele>
        <time>2026-08-15T03:10:04.000Z</time>
      </trkpt>
      <trkpt lat="22.904641" lon="109.319923">
        <ele>68.077421</ele>
        <time>2026-08-15T03:10:05.000Z</time>
      </trkpt>
      <trkpt lat="22.904647" lon="109.319984">
        <ele>68.045431</ele>
        <time>2026-08-15T03:10:06.000Z</time>
      </trkpt>
      <trkpt lat="22.904654" lon="109.320044">
        <ele>68.013894</ele>
        <time>2026-08-15T03:10:07.000Z</time>
      </trkpt>
      <trkpt lat="22.904662" lon="109.320102">
        <ele>67.983312</ele>
        <time>2026-08-15T03:10:08.000Z</time>
      </trkpt>
      <trkpt lat="22.904671" lon="109.320159">
        <ele>67.953155</ele>
        <time>2026-08-15T03:10:09.000Z</time>
      </trkpt>
      <trkpt lat="22.904680" lon="109.320214">
        <ele>67.924026</ele>
        <time>2026-08-15T03:10:10.000Z</time>
      </trkpt>
      <trkpt lat="22.904687" lon="109.320268">
        <ele>67.895589</ele>
        <time>2026-08-15T03:10:11.000Z</time>
      </trkpt>
      <trkpt lat="22.904693" lon="109.320320">
        <ele>67.868261</ele>
        <time>2026-08-15T03:10:12.000Z</time>
      </trkpt>
      <trkpt lat="22.904700" lon="109.320372">
        <ele>67.840857</ele>
        <time>2026-08-15T03:10:13.000Z</time>
      </trkpt>
      <trkpt lat="22.904707" lon="109.320423">
        <ele>67.813969</ele>
        <time>2026-08-15T03:10:14.000Z</time>
      </trkpt>
      <trkpt lat="22.904716" lon="109.320478">
        <ele>67.784840</ele>
        <time>2026-08-15T03:10:15.000Z</time>
      </trkpt>
      <trkpt lat="22.904722" lon="109.320531">
        <ele>67.756994</ele>
        <time>2026-08-15T03:10:16.000Z</time>
      </trkpt>
      <trkpt lat="22.904729" lon="109.320584">
        <ele>67.729074</ele>
        <time>2026-08-15T03:10:17.000Z</time>
      </trkpt>
      <trkpt lat="22.904736" lon="109.320636">
        <ele>67.701670</ele>
        <time>2026-08-15T03:10:18.000Z</time>
      </trkpt>
      <trkpt lat="22.904743" lon="109.320688">
        <ele>67.674266</ele>
        <time>2026-08-15T03:10:19.000Z</time>
      </trkpt>
      <trkpt lat="22.904748" lon="109.320739">
        <ele>67.647522</ele>
        <time>2026-08-15T03:10:20.000Z</time>
      </trkpt>
      <trkpt lat="22.904754" lon="109.320791">
        <ele>67.620194</ele>
        <time>2026-08-15T03:10:21.000Z</time>
      </trkpt>
      <trkpt lat="22.904761" lon="109.320842">
        <ele>67.593306</ele>
        <time>2026-08-15T03:10:22.000Z</time>
      </trkpt>
      <trkpt lat="22.904767" lon="109.320891">
        <ele>67.567529</ele>
        <time>2026-08-15T03:10:23.000Z</time>
      </trkpt>
      <trkpt lat="22.904773" lon="109.320940">
        <ele>67.541753</ele>
        <time>2026-08-15T03:10:24.000Z</time>
      </trkpt>
      <trkpt lat="22.904780" lon="109.320988">
        <ele>67.516411</ele>
        <time>2026-08-15T03:10:25.000Z</time>
      </trkpt>
      <trkpt lat="22.904786" lon="109.321036">
        <ele>67.491152</ele>
        <time>2026-08-15T03:10:26.000Z</time>
      </trkpt>
      <trkpt lat="22.904791" lon="109.321083">
        <ele>67.466480</ele>
        <time>2026-08-15T03:10:27.000Z</time>
      </trkpt>
      <trkpt lat="22.904796" lon="109.321129">
        <ele>67.442327</ele>
        <time>2026-08-15T03:10:28.000Z</time>
      </trkpt>
      <trkpt lat="22.904801" lon="109.321176">
        <ele>67.417655</ele>
        <time>2026-08-15T03:10:29.000Z</time>
      </trkpt>
      <trkpt lat="22.904807" lon="109.321223">
        <ele>67.392912</ele>
        <time>2026-08-15T03:10:30.000Z</time>
      </trkpt>
      <trkpt lat="22.904811" lon="109.321269">
        <ele>67.368818</ele>
        <time>2026-08-15T03:10:31.000Z</time>
      </trkpt>
      <trkpt lat="22.904815" lon="109.321318">
        <ele>67.343167</ele>
        <time>2026-08-15T03:10:32.000Z</time>
      </trkpt>
      <trkpt lat="22.904818" lon="109.321368">
        <ele>67.317038</ele>
        <time>2026-08-15T03:10:33.000Z</time>
      </trkpt>
      <trkpt lat="22.904822" lon="109.321418">
        <ele>67.290867</ele>
        <time>2026-08-15T03:10:34.000Z</time>
      </trkpt>
      <trkpt lat="22.904827" lon="109.321469">
        <ele>67.264122</ele>
        <time>2026-08-15T03:10:35.000Z</time>
      </trkpt>
      <trkpt lat="22.904830" lon="109.321519">
        <ele>67.237994</ele>
        <time>2026-08-15T03:10:36.000Z</time>
      </trkpt>
      <trkpt lat="22.904831" lon="109.321570">
        <ele>67.211394</ele>
        <time>2026-08-15T03:10:37.000Z</time>
      </trkpt>
      <trkpt lat="22.904831" lon="109.321621">
        <ele>67.187665</ele>
        <time>2026-08-15T03:10:38.000Z</time>
      </trkpt>
      <trkpt lat="22.904832" lon="109.321673">
        <ele>67.192348</ele>
        <time>2026-08-15T03:10:39.000Z</time>
      </trkpt>
      <trkpt lat="22.904831" lon="109.321725">
        <ele>67.197031</ele>
        <time>2026-08-15T03:10:40.000Z</time>
      </trkpt>
      <trkpt lat="22.904830" lon="109.321775">
        <ele>67.201534</ele>
        <time>2026-08-15T03:10:41.000Z</time>
      </trkpt>
      <trkpt lat="22.904829" lon="109.321826">
        <ele>67.206127</ele>
        <time>2026-08-15T03:10:42.000Z</time>
      </trkpt>
      <trkpt lat="22.904829" lon="109.321876">
        <ele>67.210629</ele>
        <time>2026-08-15T03:10:43.000Z</time>
      </trkpt>
      <trkpt lat="22.904829" lon="109.321926">
        <ele>67.215131</ele>
        <time>2026-08-15T03:10:44.000Z</time>
      </trkpt>
      <trkpt lat="22.904830" lon="109.321975">
        <ele>67.219543</ele>
        <time>2026-08-15T03:10:45.000Z</time>
      </trkpt>
      <trkpt lat="22.904832" lon="109.322025">
        <ele>67.224050</ele>
        <time>2026-08-15T03:10:46.000Z</time>
      </trkpt>
      <trkpt lat="22.904830" lon="109.322072">
        <ele>67.228286</ele>
        <time>2026-08-15T03:10:47.000Z</time>
      </trkpt>
      <trkpt lat="22.904829" lon="109.322118">
        <ele>67.232429</ele>
        <time>2026-08-15T03:10:48.000Z</time>
      </trkpt>
      <trkpt lat="22.904828" lon="109.322163">
        <ele>67.236482</ele>
        <time>2026-08-15T03:10:49.000Z</time>
      </trkpt>
      <trkpt lat="22.904828" lon="109.322209">
        <ele>67.240623</ele>
        <time>2026-08-15T03:10:50.000Z</time>
      </trkpt>
      <trkpt lat="22.904829" lon="109.322252">
        <ele>67.244496</ele>
        <time>2026-08-15T03:10:51.000Z</time>
      </trkpt>
      <trkpt lat="22.904834" lon="109.322297">
        <ele>67.248577</ele>
        <time>2026-08-15T03:10:52.000Z</time>
      </trkpt>
      <trkpt lat="22.904837" lon="109.322342">
        <ele>67.252639</ele>
        <time>2026-08-15T03:10:53.000Z</time>
      </trkpt>
      <trkpt lat="22.904839" lon="109.322386">
        <ele>67.256606</ele>
        <time>2026-08-15T03:10:54.000Z</time>
      </trkpt>
      <trkpt lat="22.904839" lon="109.322429">
        <ele>67.260477</ele>
        <time>2026-08-15T03:10:55.000Z</time>
      </trkpt>
      <trkpt lat="22.904839" lon="109.322472">
        <ele>67.264349</ele>
        <time>2026-08-15T03:10:56.000Z</time>
      </trkpt>
      <trkpt lat="22.904839" lon="109.322515">
        <ele>67.268221</ele>
        <time>2026-08-15T03:10:57.000Z</time>
      </trkpt>
      <trkpt lat="22.904838" lon="109.322559">
        <ele>67.272183</ele>
        <time>2026-08-15T03:10:58.000Z</time>
      </trkpt>
      <trkpt lat="22.904837" lon="109.322605">
        <ele>67.276326</ele>
        <time>2026-08-15T03:10:59.000Z</time>
      </trkpt>
      <trkpt lat="22.904836" lon="109.322649">
        <ele>67.280289</ele>
        <time>2026-08-15T03:11:00.000Z</time>
      </trkpt>
      <trkpt lat="22.904835" lon="109.322694">
        <ele>67.284342</ele>
        <time>2026-08-15T03:11:01.000Z</time>
      </trkpt>
      <trkpt lat="22.904835" lon="109.322740">
        <ele>67.288484</ele>
        <time>2026-08-15T03:11:02.000Z</time>
      </trkpt>
      <trkpt lat="22.904835" lon="109.322785">
        <ele>67.292535</ele>
        <time>2026-08-15T03:11:03.000Z</time>
      </trkpt>
      <trkpt lat="22.904835" lon="109.322829">
        <ele>67.296497</ele>
        <time>2026-08-15T03:11:04.000Z</time>
      </trkpt>
      <trkpt lat="22.904835" lon="109.322874">
        <ele>67.300549</ele>
        <time>2026-08-15T03:11:05.000Z</time>
      </trkpt>
      <trkpt lat="22.904835" lon="109.322918">
        <ele>67.304510</ele>
        <time>2026-08-15T03:11:06.000Z</time>
      </trkpt>
      <trkpt lat="22.904837" lon="109.322963">
        <ele>67.308567</ele>
        <time>2026-08-15T03:11:07.000Z</time>
      </trkpt>
      <trkpt lat="22.904835" lon="109.323008">
        <ele>67.312623</ele>
        <time>2026-08-15T03:11:08.000Z</time>
      </trkpt>
      <trkpt lat="22.904833" lon="109.323052">
        <ele>67.316590</ele>
        <time>2026-08-15T03:11:09.000Z</time>
      </trkpt>
      <trkpt lat="22.904834" lon="109.323097">
        <ele>67.320642</ele>
        <time>2026-08-15T03:11:10.000Z</time>
      </trkpt>
      <trkpt lat="22.904835" lon="109.323142">
        <ele>67.324695</ele>
        <time>2026-08-15T03:11:11.000Z</time>
      </trkpt>
      <trkpt lat="22.904837" lon="109.323188">
        <ele>67.328842</ele>
        <time>2026-08-15T03:11:12.000Z</time>
      </trkpt>
      <trkpt lat="22.904838" lon="109.323235">
        <ele>67.333074</ele>
        <time>2026-08-15T03:11:13.000Z</time>
      </trkpt>
      <trkpt lat="22.904840" lon="109.323282">
        <ele>67.337311</ele>
        <time>2026-08-15T03:11:14.000Z</time>
      </trkpt>
      <trkpt lat="22.904842" lon="109.323329">
        <ele>67.341547</ele>
        <time>2026-08-15T03:11:15.000Z</time>
      </trkpt>
      <trkpt lat="22.904844" lon="109.323375">
        <ele>67.345693</ele>
        <time>2026-08-15T03:11:16.000Z</time>
      </trkpt>
      <trkpt lat="22.904846" lon="109.323422">
        <ele>67.349930</ele>
        <time>2026-08-15T03:11:17.000Z</time>
      </trkpt>
      <trkpt lat="22.904848" lon="109.323469">
        <ele>67.354166</ele>
        <time>2026-08-15T03:11:18.000Z</time>
      </trkpt>
      <trkpt lat="22.904851" lon="109.323514">
        <ele>67.358228</ele>
        <time>2026-08-15T03:11:19.000Z</time>
      </trkpt>
      <trkpt lat="22.904854" lon="109.323561">
        <ele>67.362470</ele>
        <time>2026-08-15T03:11:20.000Z</time>
      </trkpt>
      <trkpt lat="22.904855" lon="109.323608">
        <ele>67.367727</ele>
        <time>2026-08-15T03:11:21.000Z</time>
      </trkpt>
      <trkpt lat="22.904852" lon="109.323654">
        <ele>67.373044</ele>
        <time>2026-08-15T03:11:22.000Z</time>
      </trkpt>
      <trkpt lat="22.904849" lon="109.323701">
        <ele>67.378476</ele>
        <time>2026-08-15T03:11:23.000Z</time>
      </trkpt>
      <trkpt lat="22.904847" lon="109.323748">
        <ele>67.383900</ele>
        <time>2026-08-15T03:11:24.000Z</time>
      </trkpt>
      <trkpt lat="22.904845" lon="109.323795">
        <ele>67.389325</ele>
        <time>2026-08-15T03:11:25.000Z</time>
      </trkpt>
      <trkpt lat="22.904844" lon="109.323841">
        <ele>67.394630</ele>
        <time>2026-08-15T03:11:26.000Z</time>
      </trkpt>
      <trkpt lat="22.904844" lon="109.323887">
        <ele>67.399933</ele>
        <time>2026-08-15T03:11:27.000Z</time>
      </trkpt>
      <trkpt lat="22.904843" lon="109.323933">
        <ele>67.405238</ele>
        <time>2026-08-15T03:11:28.000Z</time>
      </trkpt>
      <trkpt lat="22.904841" lon="109.323979">
        <ele>67.410547</ele>
        <time>2026-08-15T03:11:29.000Z</time>
      </trkpt>
      <trkpt lat="22.904839" lon="109.324025">
        <ele>67.415857</ele>
        <time>2026-08-15T03:11:30.000Z</time>
      </trkpt>
      <trkpt lat="22.904839" lon="109.324070">
        <ele>67.421045</ele>
        <time>2026-08-15T03:11:31.000Z</time>
      </trkpt>
      <trkpt lat="22.904841" lon="109.324116">
        <ele>67.426354</ele>
        <time>2026-08-15T03:11:32.000Z</time>
      </trkpt>
      <trkpt lat="22.904842" lon="109.324162">
        <ele>67.431659</ele>
        <time>2026-08-15T03:11:33.000Z</time>
      </trkpt>
      <trkpt lat="22.904843" lon="109.324207">
        <ele>67.436849</ele>
        <time>2026-08-15T03:11:34.000Z</time>
      </trkpt>
      <trkpt lat="22.904844" lon="109.324252">
        <ele>67.442038</ele>
        <time>2026-08-15T03:11:35.000Z</time>
      </trkpt>
      <trkpt lat="22.904845" lon="109.324297">
        <ele>67.447228</ele>
        <time>2026-08-15T03:11:36.000Z</time>
      </trkpt>
      <trkpt lat="22.904845" lon="109.324342">
        <ele>67.452416</ele>
        <time>2026-08-15T03:11:37.000Z</time>
      </trkpt>
      <trkpt lat="22.904847" lon="109.324388">
        <ele>67.457725</ele>
        <time>2026-08-15T03:11:38.000Z</time>
      </trkpt>
      <trkpt lat="22.904850" lon="109.324434">
        <ele>67.463042</ele>
        <time>2026-08-15T03:11:39.000Z</time>
      </trkpt>
      <trkpt lat="22.904853" lon="109.324478">
        <ele>67.468129</ele>
        <time>2026-08-15T03:11:40.000Z</time>
      </trkpt>
      <trkpt lat="22.904858" lon="109.324525">
        <ele>67.473583</ele>
        <time>2026-08-15T03:11:41.000Z</time>
      </trkpt>
      <trkpt lat="22.904863" lon="109.324573">
        <ele>67.479153</ele>
        <time>2026-08-15T03:11:42.000Z</time>
      </trkpt>
      <trkpt lat="22.904868" lon="109.324622">
        <ele>67.484837</ele>
        <time>2026-08-15T03:11:43.000Z</time>
      </trkpt>
      <trkpt lat="22.904874" lon="109.324673">
        <ele>67.490764</ele>
        <time>2026-08-15T03:11:44.000Z</time>
      </trkpt>
      <trkpt lat="22.904881" lon="109.324724">
        <ele>67.496709</ele>
        <time>2026-08-15T03:11:45.000Z</time>
      </trkpt>
      <trkpt lat="22.904890" lon="109.324774">
        <ele>67.502583</ele>
        <time>2026-08-15T03:11:46.000Z</time>
      </trkpt>
      <trkpt lat="22.904901" lon="109.324824">
        <ele>67.508509</ele>
        <time>2026-08-15T03:11:47.000Z</time>
      </trkpt>
      <trkpt lat="22.904915" lon="109.324873">
        <ele>67.514424</ele>
        <time>2026-08-15T03:11:48.000Z</time>
      </trkpt>
      <trkpt lat="22.904929" lon="109.324919">
        <ele>67.520010</ele>
        <time>2026-08-15T03:11:49.000Z</time>
      </trkpt>
      <trkpt lat="22.904940" lon="109.324965">
        <ele>67.525489</ele>
        <time>2026-08-15T03:11:50.000Z</time>
      </trkpt>
      <trkpt lat="22.904949" lon="109.325011">
        <ele>67.530910</ele>
        <time>2026-08-15T03:11:51.000Z</time>
      </trkpt>
      <trkpt lat="22.904959" lon="109.325059">
        <ele>67.536584</ele>
        <time>2026-08-15T03:11:52.000Z</time>
      </trkpt>
      <trkpt lat="22.904968" lon="109.325107">
        <ele>67.542232</ele>
        <time>2026-08-15T03:11:53.000Z</time>
      </trkpt>
      <trkpt lat="22.904981" lon="109.325156">
        <ele>67.548111</ele>
        <time>2026-08-15T03:11:54.000Z</time>
      </trkpt>
      <trkpt lat="22.904993" lon="109.325204">
        <ele>67.553845</ele>
        <time>2026-08-15T03:11:55.000Z</time>
      </trkpt>
      <trkpt lat="22.905006" lon="109.325252">
        <ele>67.559613</ele>
        <time>2026-08-15T03:11:56.000Z</time>
      </trkpt>
      <trkpt lat="22.905018" lon="109.325301">
        <ele>67.565459</ele>
        <time>2026-08-15T03:11:57.000Z</time>
      </trkpt>
      <trkpt lat="22.905030" lon="109.325348">
        <ele>67.571082</ele>
        <time>2026-08-15T03:11:58.000Z</time>
      </trkpt>
      <trkpt lat="22.905040" lon="109.325394">
        <ele>67.576531</ele>
        <time>2026-08-15T03:11:59.000Z</time>
      </trkpt>
      <trkpt lat="22.905051" lon="109.325441">
        <ele>67.582121</ele>
        <time>2026-08-15T03:12:00.000Z</time>
      </trkpt>
      <trkpt lat="22.905063" lon="109.325486">
        <ele>67.587523</ele>
        <time>2026-08-15T03:12:01.000Z</time>
      </trkpt>
      <trkpt lat="22.905077" lon="109.325531">
        <ele>67.593807</ele>
        <time>2026-08-15T03:12:02.000Z</time>
      </trkpt>
      <trkpt lat="22.905090" lon="109.325576">
        <ele>67.600154</ele>
        <time>2026-08-15T03:12:03.000Z</time>
      </trkpt>
      <trkpt lat="22.905102" lon="109.325621">
        <ele>67.606459</ele>
        <time>2026-08-15T03:12:04.000Z</time>
      </trkpt>
      <trkpt lat="22.905113" lon="109.325668">
        <ele>67.612986</ele>
        <time>2026-08-15T03:12:05.000Z</time>
      </trkpt>
      <trkpt lat="22.905122" lon="109.325715">
        <ele>67.619446</ele>
        <time>2026-08-15T03:12:06.000Z</time>
      </trkpt>
      <trkpt lat="22.905135" lon="109.325762">
        <ele>67.626051</ele>
        <time>2026-08-15T03:12:07.000Z</time>
      </trkpt>
      <trkpt lat="22.905147" lon="109.325811">
        <ele>67.632875</ele>
        <time>2026-08-15T03:12:08.000Z</time>
      </trkpt>
      <trkpt lat="22.905160" lon="109.325861">
        <ele>67.639867</ele>
        <time>2026-08-15T03:12:09.000Z</time>
      </trkpt>
      <trkpt lat="22.905175" lon="109.325908">
        <ele>67.646561</ele>
        <time>2026-08-15T03:12:10.000Z</time>
      </trkpt>
      <trkpt lat="22.905189" lon="109.325954">
        <ele>67.653081</ele>
        <time>2026-08-15T03:12:11.000Z</time>
      </trkpt>
      <trkpt lat="22.905202" lon="109.326002">
        <ele>67.659815</ele>
        <time>2026-08-15T03:12:12.000Z</time>
      </trkpt>
      <trkpt lat="22.905217" lon="109.326048">
        <ele>67.666382</ele>
        <time>2026-08-15T03:12:13.000Z</time>
      </trkpt>
      <trkpt lat="22.905232" lon="109.326095">
        <ele>67.673077</ele>
        <time>2026-08-15T03:12:14.000Z</time>
      </trkpt>
      <trkpt lat="22.905247" lon="109.326141">
        <ele>67.679644</ele>
        <time>2026-08-15T03:12:15.000Z</time>
      </trkpt>
      <trkpt lat="22.905262" lon="109.326188">
        <ele>67.686339</ele>
        <time>2026-08-15T03:12:16.000Z</time>
      </trkpt>
      <trkpt lat="22.905278" lon="109.326233">
        <ele>67.692830</ele>
        <time>2026-08-15T03:12:17.000Z</time>
      </trkpt>
      <trkpt lat="22.905300" lon="109.326275">
        <ele>67.699333</ele>
        <time>2026-08-15T03:12:18.000Z</time>
      </trkpt>
      <trkpt lat="22.905319" lon="109.326316">
        <ele>67.705510</ele>
        <time>2026-08-15T03:12:19.000Z</time>
      </trkpt>
      <trkpt lat="22.905335" lon="109.326360">
        <ele>67.711876</ele>
        <time>2026-08-15T03:12:20.000Z</time>
      </trkpt>
      <trkpt lat="22.905354" lon="109.326402">
        <ele>67.718174</ele>
        <time>2026-08-15T03:12:21.000Z</time>
      </trkpt>
      <trkpt lat="22.905368" lon="109.326446">
        <ele>67.724439</ele>
        <time>2026-08-15T03:12:22.000Z</time>
      </trkpt>
      <trkpt lat="22.905385" lon="109.326489">
        <ele>67.730737</ele>
        <time>2026-08-15T03:12:23.000Z</time>
      </trkpt>
      <trkpt lat="22.905400" lon="109.326532">
        <ele>67.736925</ele>
        <time>2026-08-15T03:12:24.000Z</time>
      </trkpt>
      <trkpt lat="22.905418" lon="109.326569">
        <ele>67.742556</ele>
        <time>2026-08-15T03:12:25.000Z</time>
      </trkpt>
      <trkpt lat="22.905440" lon="109.326605">
        <ele>67.748371</ele>
        <time>2026-08-15T03:12:26.000Z</time>
      </trkpt>
      <trkpt lat="22.905457" lon="109.326642">
        <ele>67.753935</ele>
        <time>2026-08-15T03:12:27.000Z</time>
      </trkpt>
      <trkpt lat="22.905470" lon="109.326678">
        <ele>67.759139</ele>
        <time>2026-08-15T03:12:28.000Z</time>
      </trkpt>
      <trkpt lat="22.905485" lon="109.326716">
        <ele>67.764703</ele>
        <time>2026-08-15T03:12:29.000Z</time>
      </trkpt>
      <trkpt lat="22.905499" lon="109.326760">
        <ele>67.770969</ele>
        <time>2026-08-15T03:12:30.000Z</time>
      </trkpt>
      <trkpt lat="22.905516" lon="109.326801">
        <ele>67.777020</ele>
        <time>2026-08-15T03:12:31.000Z</time>
      </trkpt>
      <trkpt lat="22.905534" lon="109.326842">
        <ele>67.783132</ele>
        <time>2026-08-15T03:12:32.000Z</time>
      </trkpt>
      <trkpt lat="22.905554" lon="109.326880">
        <ele>67.789023</ele>
        <time>2026-08-15T03:12:33.000Z</time>
      </trkpt>
      <trkpt lat="22.905575" lon="109.326925">
        <ele>67.795812</ele>
        <time>2026-08-15T03:12:34.000Z</time>
      </trkpt>
      <trkpt lat="22.905593" lon="109.326966">
        <ele>67.801924</ele>
        <time>2026-08-15T03:12:35.000Z</time>
      </trkpt>
      <trkpt lat="22.905615" lon="109.327006">
        <ele>67.808194</ele>
        <time>2026-08-15T03:12:36.000Z</time>
      </trkpt>
      <trkpt lat="22.905633" lon="109.327048">
        <ele>67.814429</ele>
        <time>2026-08-15T03:12:37.000Z</time>
      </trkpt>
      <trkpt lat="22.905652" lon="109.327092">
        <ele>67.820969</ele>
        <time>2026-08-15T03:12:38.000Z</time>
      </trkpt>
      <trkpt lat="22.905670" lon="109.327137">
        <ele>67.827572</ele>
        <time>2026-08-15T03:12:39.000Z</time>
      </trkpt>
      <trkpt lat="22.905687" lon="109.327184">
        <ele>67.834367</ele>
        <time>2026-08-15T03:12:40.000Z</time>
      </trkpt>
      <trkpt lat="22.905704" lon="109.327228">
        <ele>67.840789</ele>
        <time>2026-08-15T03:12:41.000Z</time>
      </trkpt>
      <trkpt lat="22.905719" lon="109.327271">
        <ele>67.846977</ele>
        <time>2026-08-15T03:12:42.000Z</time>
      </trkpt>
      <trkpt lat="22.905739" lon="109.327315">
        <ele>67.841400</ele>
        <time>2026-08-15T03:12:43.000Z</time>
      </trkpt>
      <trkpt lat="22.905759" lon="109.327358">
        <ele>67.817744</ele>
        <time>2026-08-15T03:12:44.000Z</time>
      </trkpt>
      <trkpt lat="22.905778" lon="109.327403">
        <ele>67.793435</ele>
        <time>2026-08-15T03:12:45.000Z</time>
      </trkpt>
      <trkpt lat="22.905797" lon="109.327449">
        <ele>67.768678</ele>
        <time>2026-08-15T03:12:46.000Z</time>
      </trkpt>
      <trkpt lat="22.905813" lon="109.327495">
        <ele>67.744532</ele>
        <time>2026-08-15T03:12:47.000Z</time>
      </trkpt>
      <trkpt lat="22.905833" lon="109.327542">
        <ele>67.719108</ele>
        <time>2026-08-15T03:12:48.000Z</time>
      </trkpt>
      <trkpt lat="22.905854" lon="109.327591">
        <ele>67.692568</ele>
        <time>2026-08-15T03:12:49.000Z</time>
      </trkpt>
      <trkpt lat="22.905877" lon="109.327642">
        <ele>67.664682</ele>
        <time>2026-08-15T03:12:50.000Z</time>
      </trkpt>
      <trkpt lat="22.905901" lon="109.327693">
        <ele>67.636558</ele>
        <time>2026-08-15T03:12:51.000Z</time>
      </trkpt>
      <trkpt lat="22.905927" lon="109.327743">
        <ele>67.608362</ele>
        <time>2026-08-15T03:12:52.000Z</time>
      </trkpt>
      <trkpt lat="22.905954" lon="109.327794">
        <ele>67.579476</ele>
        <time>2026-08-15T03:12:53.000Z</time>
      </trkpt>
      <trkpt lat="22.905978" lon="109.327843">
        <ele>67.552223</ele>
        <time>2026-08-15T03:12:54.000Z</time>
      </trkpt>
      <trkpt lat="22.906002" lon="109.327894">
        <ele>67.524099</ele>
        <time>2026-08-15T03:12:55.000Z</time>
      </trkpt>
      <trkpt lat="22.906025" lon="109.327942">
        <ele>67.497529</ele>
        <time>2026-08-15T03:12:56.000Z</time>
      </trkpt>
      <trkpt lat="22.906045" lon="109.327988">
        <ele>67.472549</ele>
        <time>2026-08-15T03:12:57.000Z</time>
      </trkpt>
      <trkpt lat="22.906063" lon="109.328037">
        <ele>67.446644</ele>
        <time>2026-08-15T03:12:58.000Z</time>
      </trkpt>
      <trkpt lat="22.906084" lon="109.328087">
        <ele>67.419658</ele>
        <time>2026-08-15T03:12:59.000Z</time>
      </trkpt>
      <trkpt lat="22.906105" lon="109.328132">
        <ele>67.394885</ele>
        <time>2026-08-15T03:13:00.000Z</time>
      </trkpt>
      <trkpt lat="22.906130" lon="109.328180">
        <ele>67.367807</ele>
        <time>2026-08-15T03:13:01.000Z</time>
      </trkpt>
      <trkpt lat="22.906155" lon="109.328227">
        <ele>67.341154</ele>
        <time>2026-08-15T03:13:02.000Z</time>
      </trkpt>
      <trkpt lat="22.906179" lon="109.328274">
        <ele>67.314765</ele>
        <time>2026-08-15T03:13:03.000Z</time>
      </trkpt>
      <trkpt lat="22.906201" lon="109.328323">
        <ele>67.287996</ele>
        <time>2026-08-15T03:13:04.000Z</time>
      </trkpt>
      <trkpt lat="22.906224" lon="109.328373">
        <ele>67.260550</ele>
        <time>2026-08-15T03:13:05.000Z</time>
      </trkpt>
      <trkpt lat="22.906248" lon="109.328422">
        <ele>67.233298</ele>
        <time>2026-08-15T03:13:06.000Z</time>
      </trkpt>
      <trkpt lat="22.906272" lon="109.328471">
        <ele>67.206045</ele>
        <time>2026-08-15T03:13:07.000Z</time>
      </trkpt>
      <trkpt lat="22.906296" lon="109.328520">
        <ele>67.178792</ele>
        <time>2026-08-15T03:13:08.000Z</time>
      </trkpt>
      <trkpt lat="22.906319" lon="109.328569">
        <ele>67.151785</ele>
        <time>2026-08-15T03:13:09.000Z</time>
      </trkpt>
      <trkpt lat="22.906340" lon="109.328618">
        <ele>67.125245</ele>
        <time>2026-08-15T03:13:10.000Z</time>
      </trkpt>
      <trkpt lat="22.906359" lon="109.328668">
        <ele>67.098684</ele>
        <time>2026-08-15T03:13:11.000Z</time>
      </trkpt>
      <trkpt lat="22.906377" lon="109.328717">
        <ele>67.072779</ele>
        <time>2026-08-15T03:13:12.000Z</time>
      </trkpt>
      <trkpt lat="22.906399" lon="109.328762">
        <ele>67.047761</ele>
        <time>2026-08-15T03:13:13.000Z</time>
      </trkpt>
      <trkpt lat="22.906422" lon="109.328801">
        <ele>67.025020</ele>
        <time>2026-08-15T03:13:14.000Z</time>
      </trkpt>
      <trkpt lat="22.906446" lon="109.328836">
        <ele>67.003593</ele>
        <time>2026-08-15T03:13:15.000Z</time>
      </trkpt>
      <trkpt lat="22.906464" lon="109.328873">
        <ele>66.983045</ele>
        <time>2026-08-15T03:13:16.000Z</time>
      </trkpt>
      <trkpt lat="22.906482" lon="109.328910">
        <ele>66.962497</ele>
        <time>2026-08-15T03:13:17.000Z</time>
      </trkpt>
      <trkpt lat="22.906501" lon="109.328947">
        <ele>66.941694</ele>
        <time>2026-08-15T03:13:18.000Z</time>
      </trkpt>
      <trkpt lat="22.906521" lon="109.328983">
        <ele>66.921049</ele>
        <time>2026-08-15T03:13:19.000Z</time>
      </trkpt>
      <trkpt lat="22.906540" lon="109.329023">
        <ele>66.898948</ele>
        <time>2026-08-15T03:13:20.000Z</time>
      </trkpt>
      <trkpt lat="22.906558" lon="109.329062">
        <ele>66.882694</ele>
        <time>2026-08-15T03:13:21.000Z</time>
      </trkpt>
      <trkpt lat="22.906571" lon="109.329104">
        <ele>66.868665</ele>
        <time>2026-08-15T03:13:22.000Z</time>
      </trkpt>
      <trkpt lat="22.906584" lon="109.329146">
        <ele>66.854635</ele>
        <time>2026-08-15T03:13:23.000Z</time>
      </trkpt>
      <trkpt lat="22.906599" lon="109.329189">
        <ele>66.840076</ele>
        <time>2026-08-15T03:13:24.000Z</time>
      </trkpt>
      <trkpt lat="22.906616" lon="109.329235">
        <ele>66.824382</ele>
        <time>2026-08-15T03:13:25.000Z</time>
      </trkpt>
      <trkpt lat="22.906637" lon="109.329280">
        <ele>66.808409</ele>
        <time>2026-08-15T03:13:26.000Z</time>
      </trkpt>
      <trkpt lat="22.906657" lon="109.329329">
        <ele>66.791439</ele>
        <time>2026-08-15T03:13:27.000Z</time>
      </trkpt>
      <trkpt lat="22.906672" lon="109.329377">
        <ele>66.775389</ele>
        <time>2026-08-15T03:13:28.000Z</time>
      </trkpt>
      <trkpt lat="22.906684" lon="109.329425">
        <ele>66.759641</ele>
        <time>2026-08-15T03:13:29.000Z</time>
      </trkpt>
      <trkpt lat="22.906694" lon="109.329473">
        <ele>66.744058</ele>
        <time>2026-08-15T03:13:30.000Z</time>
      </trkpt>
      <trkpt lat="22.906704" lon="109.329521">
        <ele>66.728475</ele>
        <time>2026-08-15T03:13:31.000Z</time>
      </trkpt>
      <trkpt lat="22.906716" lon="109.329571">
        <ele>66.712115</ele>
        <time>2026-08-15T03:13:32.000Z</time>
      </trkpt>
      <trkpt lat="22.906724" lon="109.329623">
        <ele>66.695422</ele>
        <time>2026-08-15T03:13:33.000Z</time>
      </trkpt>
      <trkpt lat="22.906735" lon="109.329674">
        <ele>66.678836</ele>
        <time>2026-08-15T03:13:34.000Z</time>
      </trkpt>
      <trkpt lat="22.906742" lon="109.329726">
        <ele>66.662196</ele>
        <time>2026-08-15T03:13:35.000Z</time>
      </trkpt>
      <trkpt lat="22.906744" lon="109.329779">
        <ele>66.645400</ele>
        <time>2026-08-15T03:13:36.000Z</time>
      </trkpt>
      <trkpt lat="22.906744" lon="109.329831">
        <ele>66.628935</ele>
        <time>2026-08-15T03:13:37.000Z</time>
      </trkpt>
      <trkpt lat="22.906743" lon="109.329884">
        <ele>66.612149</ele>
        <time>2026-08-15T03:13:38.000Z</time>
      </trkpt>
      <trkpt lat="22.906742" lon="109.329938">
        <ele>66.595047</ele>
        <time>2026-08-15T03:13:39.000Z</time>
      </trkpt>
      <trkpt lat="22.906739" lon="109.329993">
        <ele>66.577602</ele>
        <time>2026-08-15T03:13:40.000Z</time>
      </trkpt>
      <trkpt lat="22.906736" lon="109.330048">
        <ele>66.560156</ele>
        <time>2026-08-15T03:13:41.000Z</time>
      </trkpt>
      <trkpt lat="22.906734" lon="109.330102">
        <ele>66.543043</ele>
        <time>2026-08-15T03:13:42.000Z</time>
      </trkpt>
      <trkpt lat="22.906732" lon="109.330156">
        <ele>66.525931</ele>
        <time>2026-08-15T03:13:43.000Z</time>
      </trkpt>
      <trkpt lat="22.906729" lon="109.330206">
        <ele>66.510066</ele>
        <time>2026-08-15T03:13:44.000Z</time>
      </trkpt>
      <trkpt lat="22.906721" lon="109.330258">
        <ele>66.493372</ele>
        <time>2026-08-15T03:13:45.000Z</time>
      </trkpt>
      <trkpt lat="22.906715" lon="109.330306">
        <ele>66.478034</ele>
        <time>2026-08-15T03:13:46.000Z</time>
      </trkpt>
      <trkpt lat="22.906711" lon="109.330354">
        <ele>66.462773</ele>
        <time>2026-08-15T03:13:47.000Z</time>
      </trkpt>
      <trkpt lat="22.906704" lon="109.330404">
        <ele>66.446760</ele>
        <time>2026-08-15T03:13:48.000Z</time>
      </trkpt>
      <trkpt lat="22.906697" lon="109.330452">
        <ele>66.431372</ele>
        <time>2026-08-15T03:13:49.000Z</time>
      </trkpt>
      <trkpt lat="22.906690" lon="109.330501">
        <ele>66.415671</ele>
        <time>2026-08-15T03:13:50.000Z</time>
      </trkpt>
      <trkpt lat="22.906684" lon="109.330549">
        <ele>66.400333</ele>
        <time>2026-08-15T03:13:51.000Z</time>
      </trkpt>
      <trkpt lat="22.906679" lon="109.330598">
        <ele>66.384723</ele>
        <time>2026-08-15T03:13:52.000Z</time>
      </trkpt>
      <trkpt lat="22.906676" lon="109.330647">
        <ele>66.369173</ele>
        <time>2026-08-15T03:13:53.000Z</time>
      </trkpt>
      <trkpt lat="22.906675" lon="109.330696">
        <ele>66.353654</ele>
        <time>2026-08-15T03:13:54.000Z</time>
      </trkpt>
      <trkpt lat="22.906673" lon="109.330747">
        <ele>66.337490</ele>
        <time>2026-08-15T03:13:55.000Z</time>
      </trkpt>
      <trkpt lat="22.906669" lon="109.330794">
        <ele>66.322545</ele>
        <time>2026-08-15T03:13:56.000Z</time>
      </trkpt>
      <trkpt lat="22.906664" lon="109.330840">
        <ele>66.307879</ele>
        <time>2026-08-15T03:13:57.000Z</time>
      </trkpt>
      <trkpt lat="22.906658" lon="109.330888">
        <ele>66.292541</ele>
        <time>2026-08-15T03:13:58.000Z</time>
      </trkpt>
      <trkpt lat="22.906654" lon="109.330934">
        <ele>66.277910</ele>
        <time>2026-08-15T03:13:59.000Z</time>
      </trkpt>
      <trkpt lat="22.906649" lon="109.330982">
        <ele>66.266292</ele>
        <time>2026-08-15T03:14:00.000Z</time>
      </trkpt>
      <trkpt lat="22.906642" lon="109.331032">
        <ele>66.255546</ele>
        <time>2026-08-15T03:14:01.000Z</time>
      </trkpt>
      <trkpt lat="22.906636" lon="109.331083">
        <ele>66.244621</ele>
        <time>2026-08-15T03:14:02.000Z</time>
      </trkpt>
      <trkpt lat="22.906631" lon="109.331134">
        <ele>66.233723</ele>
        <time>2026-08-15T03:14:03.000Z</time>
      </trkpt>
      <trkpt lat="22.906627" lon="109.331186">
        <ele>66.222635</ele>
        <time>2026-08-15T03:14:04.000Z</time>
      </trkpt>
      <trkpt lat="22.906624" lon="109.331238">
        <ele>66.211564</ele>
        <time>2026-08-15T03:14:05.000Z</time>
      </trkpt>
      <trkpt lat="22.906620" lon="109.331293">
        <ele>66.199841</ele>
        <time>2026-08-15T03:14:06.000Z</time>
      </trkpt>
      <trkpt lat="22.906616" lon="109.331348">
        <ele>66.188118</ele>
        <time>2026-08-15T03:14:07.000Z</time>
      </trkpt>
      <trkpt lat="22.906615" lon="109.331401">
        <ele>66.176854</ele>
        <time>2026-08-15T03:14:08.000Z</time>
      </trkpt>
      <trkpt lat="22.906613" lon="109.331454">
        <ele>66.165583</ele>
        <time>2026-08-15T03:14:09.000Z</time>
      </trkpt>
      <trkpt lat="22.906609" lon="109.331508">
        <ele>66.154071</ele>
        <time>2026-08-15T03:14:10.000Z</time>
      </trkpt>
      <trkpt lat="22.906606" lon="109.331559">
        <ele>66.143213</ele>
        <time>2026-08-15T03:14:11.000Z</time>
      </trkpt>
      <trkpt lat="22.906604" lon="109.331611">
        <ele>66.132154</ele>
        <time>2026-08-15T03:14:12.000Z</time>
      </trkpt>
      <trkpt lat="22.906604" lon="109.331662">
        <ele>66.121317</ele>
        <time>2026-08-15T03:14:13.000Z</time>
      </trkpt>
      <trkpt lat="22.906606" lon="109.331715">
        <ele>66.110046</ele>
        <time>2026-08-15T03:14:14.000Z</time>
      </trkpt>
      <trkpt lat="22.906607" lon="109.331770">
        <ele>66.098357</ele>
        <time>2026-08-15T03:14:15.000Z</time>
      </trkpt>
      <trkpt lat="22.906609" lon="109.331824">
        <ele>66.086873</ele>
        <time>2026-08-15T03:14:16.000Z</time>
      </trkpt>
      <trkpt lat="22.906614" lon="109.331878">
        <ele>66.075341</ele>
        <time>2026-08-15T03:14:17.000Z</time>
      </trkpt>
      <trkpt lat="22.906620" lon="109.331932">
        <ele>66.063783</ele>
        <time>2026-08-15T03:14:18.000Z</time>
      </trkpt>
      <trkpt lat="22.906625" lon="109.331985">
        <ele>66.052463</ele>
        <time>2026-08-15T03:14:19.000Z</time>
      </trkpt>
      <trkpt lat="22.906632" lon="109.332039">
        <ele>66.040875</ele>
        <time>2026-08-15T03:14:20.000Z</time>
      </trkpt>
      <trkpt lat="22.906642" lon="109.332092">
        <ele>66.029380</ele>
        <time>2026-08-15T03:14:21.000Z</time>
      </trkpt>
      <trkpt lat="22.906652" lon="109.332145">
        <ele>66.017884</ele>
        <time>2026-08-15T03:14:22.000Z</time>
      </trkpt>
      <trkpt lat="22.906663" lon="109.332199">
        <ele>66.006133</ele>
        <time>2026-08-15T03:14:23.000Z</time>
      </trkpt>
      <trkpt lat="22.906673" lon="109.332254">
        <ele>65.994220</ele>
        <time>2026-08-15T03:14:24.000Z</time>
      </trkpt>
      <trkpt lat="22.906684" lon="109.332307">
        <ele>65.982676</ele>
        <time>2026-08-15T03:14:25.000Z</time>
      </trkpt>
      <trkpt lat="22.906694" lon="109.332359">
        <ele>65.971389</ele>
        <time>2026-08-15T03:14:26.000Z</time>
      </trkpt>
      <trkpt lat="22.906706" lon="109.332411">
        <ele>65.959998</ele>
        <time>2026-08-15T03:14:27.000Z</time>
      </trkpt>
      <trkpt lat="22.906719" lon="109.332462">
        <ele>65.948754</ele>
        <time>2026-08-15T03:14:28.000Z</time>
      </trkpt>
      <trkpt lat="22.906731" lon="109.332514">
        <ele>65.937363</ele>
        <time>2026-08-15T03:14:29.000Z</time>
      </trkpt>
      <trkpt lat="22.906746" lon="109.332564">
        <ele>65.926190</ele>
        <time>2026-08-15T03:14:30.000Z</time>
      </trkpt>
      <trkpt lat="22.906761" lon="109.332613">
        <ele>65.915218</ele>
        <time>2026-08-15T03:14:31.000Z</time>
      </trkpt>
      <trkpt lat="22.906773" lon="109.332664">
        <ele>65.904033</ele>
        <time>2026-08-15T03:14:32.000Z</time>
      </trkpt>
      <trkpt lat="22.906784" lon="109.332715">
        <ele>65.892903</ele>
        <time>2026-08-15T03:14:33.000Z</time>
      </trkpt>
      <trkpt lat="22.906793" lon="109.332765">
        <ele>65.882078</ele>
        <time>2026-08-15T03:14:34.000Z</time>
      </trkpt>
      <trkpt lat="22.906803" lon="109.332816">
        <ele>65.870998</ele>
        <time>2026-08-15T03:14:35.000Z</time>
      </trkpt>
      <trkpt lat="22.906811" lon="109.332867">
        <ele>65.860006</ele>
        <time>2026-08-15T03:14:36.000Z</time>
      </trkpt>
      <trkpt lat="22.906819" lon="109.332918">
        <ele>65.860358</ele>
        <time>2026-08-15T03:14:37.000Z</time>
      </trkpt>
      <trkpt lat="22.906829" lon="109.332968">
        <ele>65.861976</ele>
        <time>2026-08-15T03:14:38.000Z</time>
      </trkpt>
      <trkpt lat="22.906835" lon="109.333019">
        <ele>65.863602</ele>
        <time>2026-08-15T03:14:39.000Z</time>
      </trkpt>
      <trkpt lat="22.906844" lon="109.333069">
        <ele>65.865213</ele>
        <time>2026-08-15T03:14:40.000Z</time>
      </trkpt>
      <trkpt lat="22.906853" lon="109.333120">
        <ele>65.866855</ele>
        <time>2026-08-15T03:14:41.000Z</time>
      </trkpt>
      <trkpt lat="22.906863" lon="109.333168">
        <ele>65.868411</ele>
        <time>2026-08-15T03:14:42.000Z</time>
      </trkpt>
      <trkpt lat="22.906873" lon="109.333218">
        <ele>65.870029</ele>
        <time>2026-08-15T03:14:43.000Z</time>
      </trkpt>
      <trkpt lat="22.906884" lon="109.333266">
        <ele>65.871593</ele>
        <time>2026-08-15T03:14:44.000Z</time>
      </trkpt>
      <trkpt lat="22.906896" lon="109.333313">
        <ele>65.873135</ele>
        <time>2026-08-15T03:14:45.000Z</time>
      </trkpt>
      <trkpt lat="22.906908" lon="109.333361">
        <ele>65.874708</ele>
        <time>2026-08-15T03:14:46.000Z</time>
      </trkpt>
      <trkpt lat="22.906921" lon="109.333409">
        <ele>65.876290</ele>
        <time>2026-08-15T03:14:47.000Z</time>
      </trkpt>
      <trkpt lat="22.906933" lon="109.333457">
        <ele>65.877862</ele>
        <time>2026-08-15T03:14:48.000Z</time>
      </trkpt>
      <trkpt lat="22.906942" lon="109.333507">
        <ele>65.879473</ele>
        <time>2026-08-15T03:14:49.000Z</time>
      </trkpt>
      <trkpt lat="22.906951" lon="109.333556">
        <ele>65.881053</ele>
        <time>2026-08-15T03:14:50.000Z</time>
      </trkpt>
      <trkpt lat="22.906962" lon="109.333606">
        <ele>65.882679</ele>
        <time>2026-08-15T03:14:51.000Z</time>
      </trkpt>
      <trkpt lat="22.906973" lon="109.333656">
        <ele>65.884304</ele>
        <time>2026-08-15T03:14:52.000Z</time>
      </trkpt>
      <trkpt lat="22.906984" lon="109.333706">
        <ele>65.885930</ele>
        <time>2026-08-15T03:14:53.000Z</time>
      </trkpt>
      <trkpt lat="22.906996" lon="109.333756">
        <ele>65.887564</ele>
        <time>2026-08-15T03:14:54.000Z</time>
      </trkpt>
      <trkpt lat="22.907006" lon="109.333807">
        <ele>65.889213</ele>
        <time>2026-08-15T03:14:55.000Z</time>
      </trkpt>
      <trkpt lat="22.907015" lon="109.333856">
        <ele>65.890793</ele>
        <time>2026-08-15T03:14:56.000Z</time>
      </trkpt>
      <trkpt lat="22.907025" lon="109.333908">
        <ele>65.892472</ele>
        <time>2026-08-15T03:14:57.000Z</time>
      </trkpt>
      <trkpt lat="22.907036" lon="109.333958">
        <ele>65.894098</ele>
        <time>2026-08-15T03:14:58.000Z</time>
      </trkpt>
      <trkpt lat="22.907049" lon="109.334008">
        <ele>65.895741</ele>
        <time>2026-08-15T03:14:59.000Z</time>
      </trkpt>
      <trkpt lat="22.907059" lon="109.334060">
        <ele>65.897421</ele>
        <time>2026-08-15T03:15:00.000Z</time>
      </trkpt>
      <trkpt lat="22.907071" lon="109.334111">
        <ele>65.899085</ele>
        <time>2026-08-15T03:15:01.000Z</time>
      </trkpt>
      <trkpt lat="22.907081" lon="109.334163">
        <ele>65.900765</ele>
        <time>2026-08-15T03:15:02.000Z</time>
      </trkpt>
      <trkpt lat="22.907089" lon="109.334215">
        <ele>65.902432</ele>
        <time>2026-08-15T03:15:03.000Z</time>
      </trkpt>
      <trkpt lat="22.907095" lon="109.334268">
        <ele>65.904120</ele>
        <time>2026-08-15T03:15:04.000Z</time>
      </trkpt>
      <trkpt lat="22.907101" lon="109.334323">
        <ele>65.905872</ele>
        <time>2026-08-15T03:15:05.000Z</time>
      </trkpt>
      <trkpt lat="22.907103" lon="109.334380">
        <ele>65.907675</ele>
        <time>2026-08-15T03:15:06.000Z</time>
      </trkpt>
      <trkpt lat="22.907106" lon="109.334434">
        <ele>65.909386</ele>
        <time>2026-08-15T03:15:07.000Z</time>
      </trkpt>
      <trkpt lat="22.907110" lon="109.334489">
        <ele>65.911131</ele>
        <time>2026-08-15T03:15:08.000Z</time>
      </trkpt>
      <trkpt lat="22.907118" lon="109.334542">
        <ele>65.912829</ele>
        <time>2026-08-15T03:15:09.000Z</time>
      </trkpt>
      <trkpt lat="22.907119" lon="109.334593">
        <ele>65.914442</ele>
        <time>2026-08-15T03:15:10.000Z</time>
      </trkpt>
      <trkpt lat="22.907113" lon="109.334643">
        <ele>65.916036</ele>
        <time>2026-08-15T03:15:11.000Z</time>
      </trkpt>
      <trkpt lat="22.907102" lon="109.334693">
        <ele>65.917662</ele>
        <time>2026-08-15T03:15:12.000Z</time>
      </trkpt>
      <trkpt lat="22.907091" lon="109.334742">
        <ele>65.919257</ele>
        <time>2026-08-15T03:15:13.000Z</time>
      </trkpt>
      <trkpt lat="22.907082" lon="109.334793">
        <ele>65.922072</ele>
        <time>2026-08-15T03:15:14.000Z</time>
      </trkpt>
      <trkpt lat="22.907076" lon="109.334846">
        <ele>65.931213</ele>
        <time>2026-08-15T03:15:15.000Z</time>
      </trkpt>
      <trkpt lat="22.907068" lon="109.334899">
        <ele>65.940407</ele>
        <time>2026-08-15T03:15:16.000Z</time>
      </trkpt>
      <trkpt lat="22.907060" lon="109.334951">
        <ele>65.949432</ele>
        <time>2026-08-15T03:15:17.000Z</time>
      </trkpt>
      <trkpt lat="22.907050" lon="109.335004">
        <ele>65.958694</ele>
        <time>2026-08-15T03:15:18.000Z</time>
      </trkpt>
      <trkpt lat="22.907042" lon="109.335054">
        <ele>65.967382</ele>
        <time>2026-08-15T03:15:19.000Z</time>
      </trkpt>
      <trkpt lat="22.907036" lon="109.335106">
        <ele>65.976353</ele>
        <time>2026-08-15T03:15:20.000Z</time>
      </trkpt>
      <trkpt lat="22.907031" lon="109.335157">
        <ele>65.985133</ele>
        <time>2026-08-15T03:15:21.000Z</time>
      </trkpt>
      <trkpt lat="22.907024" lon="109.335206">
        <ele>65.993622</ele>
        <time>2026-08-15T03:15:22.000Z</time>
      </trkpt>
      <trkpt lat="22.907019" lon="109.335256">
        <ele>66.002232</ele>
        <time>2026-08-15T03:15:23.000Z</time>
      </trkpt>
      <trkpt lat="22.907012" lon="109.335306">
        <ele>66.010890</ele>
        <time>2026-08-15T03:15:24.000Z</time>
      </trkpt>
      <trkpt lat="22.907003" lon="109.335358">
        <ele>66.019948</ele>
        <time>2026-08-15T03:15:25.000Z</time>
      </trkpt>
      <trkpt lat="22.906992" lon="109.335408">
        <ele>66.028748</ele>
        <time>2026-08-15T03:15:26.000Z</time>
      </trkpt>
      <trkpt lat="22.906981" lon="109.335457">
        <ele>66.037382</ele>
        <time>2026-08-15T03:15:27.000Z</time>
      </trkpt>
      <trkpt lat="22.906971" lon="109.335507">
        <ele>66.046141</ele>
        <time>2026-08-15T03:15:28.000Z</time>
      </trkpt>
      <trkpt lat="22.906960" lon="109.335559">
        <ele>66.055275</ele>
        <time>2026-08-15T03:15:29.000Z</time>
      </trkpt>
      <trkpt lat="22.906949" lon="109.335609">
        <ele>66.064075</ele>
        <time>2026-08-15T03:15:30.000Z</time>
      </trkpt>
      <trkpt lat="22.906937" lon="109.335660">
        <ele>66.073086</ele>
        <time>2026-08-15T03:15:31.000Z</time>
      </trkpt>
      <trkpt lat="22.906924" lon="109.335711">
        <ele>66.082145</ele>
        <time>2026-08-15T03:15:32.000Z</time>
      </trkpt>
      <trkpt lat="22.906913" lon="109.335762">
        <ele>66.091112</ele>
        <time>2026-08-15T03:15:33.000Z</time>
      </trkpt>
      <trkpt lat="22.906901" lon="109.335813">
        <ele>66.100123</ele>
        <time>2026-08-15T03:15:34.000Z</time>
      </trkpt>
      <trkpt lat="22.906888" lon="109.335866">
        <ele>66.109512</ele>
        <time>2026-08-15T03:15:35.000Z</time>
      </trkpt>
      <trkpt lat="22.906876" lon="109.335917">
        <ele>66.118524</ele>
        <time>2026-08-15T03:15:36.000Z</time>
      </trkpt>
      <trkpt lat="22.906863" lon="109.335967">
        <ele>66.127418</ele>
        <time>2026-08-15T03:15:37.000Z</time>
      </trkpt>
      <trkpt lat="22.906847" lon="109.336017">
        <ele>66.136479</ele>
        <time>2026-08-15T03:15:38.000Z</time>
      </trkpt>
      <trkpt lat="22.906830" lon="109.336069">
        <ele>66.145925</ele>
        <time>2026-08-15T03:15:39.000Z</time>
      </trkpt>
      <trkpt lat="22.906812" lon="109.336120">
        <ele>66.155275</ele>
        <time>2026-08-15T03:15:40.000Z</time>
      </trkpt>
      <trkpt lat="22.906793" lon="109.336171">
        <ele>66.164693</ele>
        <time>2026-08-15T03:15:41.000Z</time>
      </trkpt>
      <trkpt lat="22.906772" lon="109.336221">
        <ele>66.174100</ele>
        <time>2026-08-15T03:15:42.000Z</time>
      </trkpt>
      <trkpt lat="22.906747" lon="109.336269">
        <ele>66.183540</ele>
        <time>2026-08-15T03:15:43.000Z</time>
      </trkpt>
      <trkpt lat="22.906724" lon="109.336316">
        <ele>66.192651</ele>
        <time>2026-08-15T03:15:44.000Z</time>
      </trkpt>
      <trkpt lat="22.906699" lon="109.336362">
        <ele>66.201794</ele>
        <time>2026-08-15T03:15:45.000Z</time>
      </trkpt>
      <trkpt lat="22.906674" lon="109.336408">
        <ele>66.210937</ele>
        <time>2026-08-15T03:15:46.000Z</time>
      </trkpt>
      <trkpt lat="22.906650" lon="109.336454">
        <ele>66.219988</ele>
        <time>2026-08-15T03:15:47.000Z</time>
      </trkpt>
      <trkpt lat="22.906627" lon="109.336500">
        <ele>66.228948</ele>
        <time>2026-08-15T03:15:48.000Z</time>
      </trkpt>
      <trkpt lat="22.906603" lon="109.336545">
        <ele>66.237850</ele>
        <time>2026-08-15T03:15:49.000Z</time>
      </trkpt>
      <trkpt lat="22.906575" lon="109.336588">
        <ele>66.246865</ele>
        <time>2026-08-15T03:15:50.000Z</time>
      </trkpt>
      <trkpt lat="22.906547" lon="109.336630">
        <ele>66.256941</ele>
        <time>2026-08-15T03:15:51.000Z</time>
      </trkpt>
      <trkpt lat="22.906520" lon="109.336674">
        <ele>66.279051</ele>
        <time>2026-08-15T03:15:52.000Z</time>
      </trkpt>
      <trkpt lat="22.906493" lon="109.336717">
        <ele>66.300813</ele>
        <time>2026-08-15T03:15:53.000Z</time>
      </trkpt>
      <trkpt lat="22.906466" lon="109.336760">
        <ele>66.322576</ele>
        <time>2026-08-15T03:15:54.000Z</time>
      </trkpt>
      <trkpt lat="22.906440" lon="109.336801">
        <ele>66.343392</ele>
        <time>2026-08-15T03:15:55.000Z</time>
      </trkpt>
      <trkpt lat="22.906413" lon="109.336842">
        <ele>66.364469</ele>
        <time>2026-08-15T03:15:56.000Z</time>
      </trkpt>
      <trkpt lat="22.906386" lon="109.336885">
        <ele>66.386232</ele>
        <time>2026-08-15T03:15:57.000Z</time>
      </trkpt>
      <trkpt lat="22.906357" lon="109.336926">
        <ele>66.407850</ele>
        <time>2026-08-15T03:15:58.000Z</time>
      </trkpt>
      <trkpt lat="22.906326" lon="109.336966">
        <ele>66.429710</ele>
        <time>2026-08-15T03:15:59.000Z</time>
      </trkpt>
      <trkpt lat="22.906298" lon="109.337007">
        <ele>66.451055</ele>
        <time>2026-08-15T03:16:00.000Z</time>
      </trkpt>
      <trkpt lat="22.906268" lon="109.337047">
        <ele>66.472626</ele>
        <time>2026-08-15T03:16:01.000Z</time>
      </trkpt>
      <trkpt lat="22.906237" lon="109.337088">
        <ele>66.494808</ele>
        <time>2026-08-15T03:16:02.000Z</time>
      </trkpt>
      <trkpt lat="22.906206" lon="109.337130">
        <ele>66.517315</ele>
        <time>2026-08-15T03:16:03.000Z</time>
      </trkpt>
      <trkpt lat="22.906176" lon="109.337171">
        <ele>66.539212</ele>
        <time>2026-08-15T03:16:04.000Z</time>
      </trkpt>
      <trkpt lat="22.906147" lon="109.337212">
        <ele>66.560830</ele>
        <time>2026-08-15T03:16:05.000Z</time>
      </trkpt>
      <trkpt lat="22.906116" lon="109.337253">
        <ele>66.583012</ele>
        <time>2026-08-15T03:16:06.000Z</time>
      </trkpt>
      <trkpt lat="22.906086" lon="109.337294">
        <ele>66.604910</ele>
        <time>2026-08-15T03:16:07.000Z</time>
      </trkpt>
      <trkpt lat="22.906056" lon="109.337336">
        <ele>66.627136</ele>
        <time>2026-08-15T03:16:08.000Z</time>
      </trkpt>
      <trkpt lat="22.906027" lon="109.337378">
        <ele>66.649086</ele>
        <time>2026-08-15T03:16:09.000Z</time>
      </trkpt>
      <trkpt lat="22.905997" lon="109.337420">
        <ele>66.671313</ele>
        <time>2026-08-15T03:16:10.000Z</time>
      </trkpt>
      <trkpt lat="22.905965" lon="109.337462">
        <ele>66.694106</ele>
        <time>2026-08-15T03:16:11.000Z</time>
      </trkpt>
      <trkpt lat="22.905936" lon="109.337506">
        <ele>66.716732</ele>
        <time>2026-08-15T03:16:12.000Z</time>
      </trkpt>
      <trkpt lat="22.905907" lon="109.337550">
        <ele>66.739358</ele>
        <time>2026-08-15T03:16:13.000Z</time>
      </trkpt>
      <trkpt lat="22.905879" lon="109.337595">
        <ele>66.762068</ele>
        <time>2026-08-15T03:16:14.000Z</time>
      </trkpt>
      <trkpt lat="22.905848" lon="109.337637">
        <ele>66.784575</ele>
        <time>2026-08-15T03:16:15.000Z</time>
      </trkpt>
      <trkpt lat="22.905818" lon="109.337678">
        <ele>66.806472</ele>
        <time>2026-08-15T03:16:16.000Z</time>
      </trkpt>
      <trkpt lat="22.905787" lon="109.337720">
        <ele>66.828979</ele>
        <time>2026-08-15T03:16:17.000Z</time>
      </trkpt>
      <trkpt lat="22.905757" lon="109.337763">
        <ele>66.851537</ele>
        <time>2026-08-15T03:16:18.000Z</time>
      </trkpt>
      <trkpt lat="22.905727" lon="109.337805">
        <ele>66.873763</ele>
        <time>2026-08-15T03:16:19.000Z</time>
      </trkpt>
      <trkpt lat="22.905697" lon="109.337845">
        <ele>66.895335</ele>
        <time>2026-08-15T03:16:20.000Z</time>
      </trkpt>
      <trkpt lat="22.905667" lon="109.337885">
        <ele>66.916906</ele>
        <time>2026-08-15T03:16:21.000Z</time>
      </trkpt>
      <trkpt lat="22.905638" lon="109.337926">
        <ele>66.938524</ele>
        <time>2026-08-15T03:16:22.000Z</time>
      </trkpt>
      <trkpt lat="22.905609" lon="109.337966">
        <ele>66.959811</ele>
        <time>2026-08-15T03:16:23.000Z</time>
      </trkpt>
      <trkpt lat="22.905579" lon="109.338008">
        <ele>66.982037</ele>
        <time>2026-08-15T03:16:24.000Z</time>
      </trkpt>
      <trkpt lat="22.905550" lon="109.338049">
        <ele>67.003655</ele>
        <time>2026-08-15T03:16:25.000Z</time>
      </trkpt>
      <trkpt lat="22.905521" lon="109.338088">
        <ele>67.024615</ele>
        <time>2026-08-15T03:16:26.000Z</time>
      </trkpt>
      <trkpt lat="22.905494" lon="109.338128">
        <ele>67.045354</ele>
        <time>2026-08-15T03:16:27.000Z</time>
      </trkpt>
      <trkpt lat="22.905466" lon="109.338167">
        <ele>67.066032</ele>
        <time>2026-08-15T03:16:28.000Z</time>
      </trkpt>
      <trkpt lat="22.905438" lon="109.338207">
        <ele>67.072522</ele>
        <time>2026-08-15T03:16:29.000Z</time>
      </trkpt>
      <trkpt lat="22.905408" lon="109.338247">
        <ele>67.073963</ele>
        <time>2026-08-15T03:16:30.000Z</time>
      </trkpt>
      <trkpt lat="22.905379" lon="109.338287">
        <ele>67.075385</ele>
        <time>2026-08-15T03:16:31.000Z</time>
      </trkpt>
      <trkpt lat="22.905350" lon="109.338328">
        <ele>67.076829</ele>
        <time>2026-08-15T03:16:32.000Z</time>
      </trkpt>
      <trkpt lat="22.905322" lon="109.338369">
        <ele>67.078255</ele>
        <time>2026-08-15T03:16:33.000Z</time>
      </trkpt>
      <trkpt lat="22.905292" lon="109.338412">
        <ele>67.079762</ele>
        <time>2026-08-15T03:16:34.000Z</time>
      </trkpt>
      <trkpt lat="22.905262" lon="109.338455">
        <ele>67.081269</ele>
        <time>2026-08-15T03:16:35.000Z</time>
      </trkpt>
      <trkpt lat="22.905230" lon="109.338498">
        <ele>67.082814</ele>
        <time>2026-08-15T03:16:36.000Z</time>
      </trkpt>
      <trkpt lat="22.905198" lon="109.338540">
        <ele>67.084336</ele>
        <time>2026-08-15T03:16:37.000Z</time>
      </trkpt>
      <trkpt lat="22.905167" lon="109.338583">
        <ele>67.085862</ele>
        <time>2026-08-15T03:16:38.000Z</time>
      </trkpt>
      <trkpt lat="22.905135" lon="109.338627">
        <ele>67.087428</ele>
        <time>2026-08-15T03:16:39.000Z</time>
      </trkpt>
      <trkpt lat="22.905103" lon="109.338671">
        <ele>67.088994</ele>
        <time>2026-08-15T03:16:40.000Z</time>
      </trkpt>
      <trkpt lat="22.905074" lon="109.338713">
        <ele>67.090461</ele>
        <time>2026-08-15T03:16:41.000Z</time>
      </trkpt>
      <trkpt lat="22.905046" lon="109.338758">
        <ele>67.091978</ele>
        <time>2026-08-15T03:16:42.000Z</time>
      </trkpt>
      <trkpt lat="22.905020" lon="109.338802">
        <ele>67.093439</ele>
        <time>2026-08-15T03:16:43.000Z</time>
      </trkpt>
      <trkpt lat="22.904992" lon="109.338845">
        <ele>67.094910</ele>
        <time>2026-08-15T03:16:44.000Z</time>
      </trkpt>
      <trkpt lat="22.904964" lon="109.338888">
        <ele>67.096381</ele>
        <time>2026-08-15T03:16:45.000Z</time>
      </trkpt>
      <trkpt lat="22.904938" lon="109.338930">
        <ele>67.097795</ele>
        <time>2026-08-15T03:16:46.000Z</time>
      </trkpt>
      <trkpt lat="22.904910" lon="109.338972">
        <ele>67.099243</ele>
        <time>2026-08-15T03:16:47.000Z</time>
      </trkpt>
      <trkpt lat="22.904882" lon="109.339015">
        <ele>67.100715</ele>
        <time>2026-08-15T03:16:48.000Z</time>
      </trkpt>
      <trkpt lat="22.904852" lon="109.339059">
        <ele>67.102244</ele>
        <time>2026-08-15T03:16:49.000Z</time>
      </trkpt>
      <trkpt lat="22.904821" lon="109.339102">
        <ele>67.103770</ele>
        <time>2026-08-15T03:16:50.000Z</time>
      </trkpt>
      <trkpt lat="22.904791" lon="109.339147">
        <ele>67.105321</ele>
        <time>2026-08-15T03:16:51.000Z</time>
      </trkpt>
      <trkpt lat="22.904759" lon="109.339190">
        <ele>67.106866</ele>
        <time>2026-08-15T03:16:52.000Z</time>
      </trkpt>
      <trkpt lat="22.904727" lon="109.339234">
        <ele>67.108432</ele>
        <time>2026-08-15T03:16:53.000Z</time>
      </trkpt>
      <trkpt lat="22.904696" lon="109.339279">
        <ele>67.110002</ele>
        <time>2026-08-15T03:16:54.000Z</time>
      </trkpt>
      <trkpt lat="22.904665" lon="109.339321">
        <ele>67.111506</ele>
        <time>2026-08-15T03:16:55.000Z</time>
      </trkpt>
      <trkpt lat="22.904636" lon="109.339362">
        <ele>67.112950</ele>
        <time>2026-08-15T03:16:56.000Z</time>
      </trkpt>
      <trkpt lat="22.904610" lon="109.339400">
        <ele>67.114273</ele>
        <time>2026-08-15T03:16:57.000Z</time>
      </trkpt>
      <trkpt lat="22.904588" lon="109.339435">
        <ele>67.115456</ele>
        <time>2026-08-15T03:16:58.000Z</time>
      </trkpt>
      <trkpt lat="22.904568" lon="109.339467">
        <ele>67.116537</ele>
        <time>2026-08-15T03:16:59.000Z</time>
      </trkpt>
      <trkpt lat="22.904550" lon="109.339498">
        <ele>67.117561</ele>
        <time>2026-08-15T03:17:00.000Z</time>
      </trkpt>
      <trkpt lat="22.904531" lon="109.339530">
        <ele>67.118624</ele>
        <time>2026-08-15T03:17:01.000Z</time>
      </trkpt>
      <trkpt lat="22.904513" lon="109.339561">
        <ele>67.119648</ele>
        <time>2026-08-15T03:17:02.000Z</time>
      </trkpt>
      <trkpt lat="22.904495" lon="109.339592">
        <ele>67.120672</ele>
        <time>2026-08-15T03:17:03.000Z</time>
      </trkpt>
      <trkpt lat="22.904478" lon="109.339623">
        <ele>67.121680</ele>
        <time>2026-08-15T03:17:04.000Z</time>
      </trkpt>
      <trkpt lat="22.904459" lon="109.339653">
        <ele>67.122697</ele>
        <time>2026-08-15T03:17:05.000Z</time>
      </trkpt>
      <trkpt lat="22.904441" lon="109.339686">
        <ele>67.123768</ele>
        <time>2026-08-15T03:17:06.000Z</time>
      </trkpt>
      <trkpt lat="22.904424" lon="109.339722">
        <ele>67.124899</ele>
        <time>2026-08-15T03:17:07.000Z</time>
      </trkpt>
      <trkpt lat="22.904404" lon="109.339757">
        <ele>67.125838</ele>
        <time>2026-08-15T03:17:08.000Z</time>
      </trkpt>
      <trkpt lat="22.904382" lon="109.339790">
        <ele>67.110073</ele>
        <time>2026-08-15T03:17:09.000Z</time>
      </trkpt>
      <trkpt lat="22.904362" lon="109.339826">
        <ele>67.093802</ele>
        <time>2026-08-15T03:17:10.000Z</time>
      </trkpt>
      <trkpt lat="22.904340" lon="109.339862">
        <ele>67.077083</ele>
        <time>2026-08-15T03:17:11.000Z</time>
      </trkpt>
      <trkpt lat="22.904313" lon="109.339894">
        <ele>67.060288</ele>
        <time>2026-08-15T03:17:12.000Z</time>
      </trkpt>
      <trkpt lat="22.904288" lon="109.339927">
        <ele>67.043753</ele>
        <time>2026-08-15T03:17:13.000Z</time>
      </trkpt>
      <trkpt lat="22.904261" lon="109.339962">
        <ele>67.026084</ele>
        <time>2026-08-15T03:17:14.000Z</time>
      </trkpt>
      <trkpt lat="22.904235" lon="109.339997">
        <ele>67.008683</ele>
        <time>2026-08-15T03:17:15.000Z</time>
      </trkpt>
      <trkpt lat="22.904211" lon="109.340032">
        <ele>66.991797</ele>
        <time>2026-08-15T03:17:16.000Z</time>
      </trkpt>
      <trkpt lat="22.904189" lon="109.340070">
        <ele>66.974427</ele>
        <time>2026-08-15T03:17:17.000Z</time>
      </trkpt>
      <trkpt lat="22.904166" lon="109.340109">
        <ele>66.956505</ele>
        <time>2026-08-15T03:17:18.000Z</time>
      </trkpt>
      <trkpt lat="22.904136" lon="109.340147">
        <ele>66.937136</ele>
        <time>2026-08-15T03:17:19.000Z</time>
      </trkpt>
      <trkpt lat="22.904104" lon="109.340186">
        <ele>66.916923</ele>
        <time>2026-08-15T03:17:20.000Z</time>
      </trkpt>
      <trkpt lat="22.904073" lon="109.340225">
        <ele>66.896987</ele>
        <time>2026-08-15T03:17:21.000Z</time>
      </trkpt>
      <trkpt lat="22.904043" lon="109.340267">
        <ele>66.876418</ele>
        <time>2026-08-15T03:17:22.000Z</time>
      </trkpt>
      <trkpt lat="22.904013" lon="109.340310">
        <ele>66.855542</ele>
        <time>2026-08-15T03:17:23.000Z</time>
      </trkpt>
      <trkpt lat="22.903983" lon="109.340353">
        <ele>66.834666</ele>
        <time>2026-08-15T03:17:24.000Z</time>
      </trkpt>
      <trkpt lat="22.903951" lon="109.340396">
        <ele>66.813272</ele>
        <time>2026-08-15T03:17:25.000Z</time>
      </trkpt>
      <trkpt lat="22.903918" lon="109.340442">
        <ele>66.790708</ele>
        <time>2026-08-15T03:17:26.000Z</time>
      </trkpt>
      <trkpt lat="22.903886" lon="109.340487">
        <ele>66.768707</ele>
        <time>2026-08-15T03:17:27.000Z</time>
      </trkpt>
      <trkpt lat="22.903854" lon="109.340533">
        <ele>66.746398</ele>
        <time>2026-08-15T03:17:28.000Z</time>
      </trkpt>
      <trkpt lat="22.903823" lon="109.340580">
        <ele>66.724026</ele>
        <time>2026-08-15T03:17:29.000Z</time>
      </trkpt>
      <trkpt lat="22.903792" lon="109.340627">
        <ele>66.701654</ele>
        <time>2026-08-15T03:17:30.000Z</time>
      </trkpt>
      <trkpt lat="22.903762" lon="109.340675">
        <ele>66.679205</ele>
        <time>2026-08-15T03:17:31.000Z</time>
      </trkpt>
      <trkpt lat="22.903730" lon="109.340721">
        <ele>66.656896</ele>
        <time>2026-08-15T03:17:32.000Z</time>
      </trkpt>
      <trkpt lat="22.903697" lon="109.340765">
        <ele>66.634937</ele>
        <time>2026-08-15T03:17:33.000Z</time>
      </trkpt>
      <trkpt lat="22.903664" lon="109.340810">
        <ele>66.612677</ele>
        <time>2026-08-15T03:17:34.000Z</time>
      </trkpt>
      <trkpt lat="22.903632" lon="109.340856">
        <ele>66.590368</ele>
        <time>2026-08-15T03:17:35.000Z</time>
      </trkpt>
      <trkpt lat="22.903600" lon="109.340903">
        <ele>66.567749</ele>
        <time>2026-08-15T03:17:36.000Z</time>
      </trkpt>
      <trkpt lat="22.903565" lon="109.340952">
        <ele>66.543752</ele>
        <time>2026-08-15T03:17:37.000Z</time>
      </trkpt>
      <trkpt lat="22.903530" lon="109.341000">
        <ele>66.520059</ele>
        <time>2026-08-15T03:17:38.000Z</time>
      </trkpt>
      <trkpt lat="22.903496" lon="109.341049">
        <ele>66.496317</ele>
        <time>2026-08-15T03:17:39.000Z</time>
      </trkpt>
      <trkpt lat="22.903461" lon="109.341096">
        <ele>66.472927</ele>
        <time>2026-08-15T03:17:40.000Z</time>
      </trkpt>
      <trkpt lat="22.903426" lon="109.341142">
        <ele>66.449837</ele>
        <time>2026-08-15T03:17:41.000Z</time>
      </trkpt>
      <trkpt lat="22.903392" lon="109.341188">
        <ele>66.427012</ele>
        <time>2026-08-15T03:17:42.000Z</time>
      </trkpt>
      <trkpt lat="22.903359" lon="109.341234">
        <ele>66.404447</ele>
        <time>2026-08-15T03:17:43.000Z</time>
      </trkpt>
      <trkpt lat="22.903326" lon="109.341281">
        <ele>66.381576</ele>
        <time>2026-08-15T03:17:44.000Z</time>
      </trkpt>
      <trkpt lat="22.903294" lon="109.341327">
        <ele>66.380396</ele>
        <time>2026-08-15T03:17:45.000Z</time>
      </trkpt>
      <trkpt lat="22.903262" lon="109.341372">
        <ele>66.400314</ele>
        <time>2026-08-15T03:17:46.000Z</time>
      </trkpt>
      <trkpt lat="22.903232" lon="109.341417">
        <ele>66.419777</ele>
        <time>2026-08-15T03:17:47.000Z</time>
      </trkpt>
      <trkpt lat="22.903201" lon="109.341460">
        <ele>66.438908</ele>
        <time>2026-08-15T03:17:48.000Z</time>
      </trkpt>
      <trkpt lat="22.903171" lon="109.341503">
        <ele>66.457808</ele>
        <time>2026-08-15T03:17:49.000Z</time>
      </trkpt>
      <trkpt lat="22.903140" lon="109.341546">
        <ele>66.476940</ele>
        <time>2026-08-15T03:17:50.000Z</time>
      </trkpt>
      <trkpt lat="22.903110" lon="109.341588">
        <ele>66.495561</ele>
        <time>2026-08-15T03:17:51.000Z</time>
      </trkpt>
      <trkpt lat="22.903079" lon="109.341630">
        <ele>66.514418</ele>
        <time>2026-08-15T03:17:52.000Z</time>
      </trkpt>
      <trkpt lat="22.903050" lon="109.341673">
        <ele>66.533091</ele>
        <time>2026-08-15T03:17:53.000Z</time>
      </trkpt>
      <trkpt lat="22.903020" lon="109.341715">
        <ele>66.551712</ele>
        <time>2026-08-15T03:17:54.000Z</time>
      </trkpt>
      <trkpt lat="22.902990" lon="109.341757">
        <ele>66.570334</ele>
        <time>2026-08-15T03:17:55.000Z</time>
      </trkpt>
      <trkpt lat="22.902959" lon="109.341799">
        <ele>66.589191</ele>
        <time>2026-08-15T03:17:56.000Z</time>
      </trkpt>
      <trkpt lat="22.902926" lon="109.341842">
        <ele>66.608800</ele>
        <time>2026-08-15T03:17:57.000Z</time>
      </trkpt>
      <trkpt lat="22.902894" lon="109.341884">
        <ele>66.627897</ele>
        <time>2026-08-15T03:17:58.000Z</time>
      </trkpt>
      <trkpt lat="22.902864" lon="109.341928">
        <ele>66.647077</ele>
        <time>2026-08-15T03:17:59.000Z</time>
      </trkpt>
      <trkpt lat="22.902836" lon="109.341973">
        <ele>66.666104</ele>
        <time>2026-08-15T03:18:00.000Z</time>
      </trkpt>
      <trkpt lat="22.902806" lon="109.342016">
        <ele>66.685004</ele>
        <time>2026-08-15T03:18:01.000Z</time>
      </trkpt>
      <trkpt lat="22.902778" lon="109.342061">
        <ele>66.704031</ele>
        <time>2026-08-15T03:18:02.000Z</time>
      </trkpt>
      <trkpt lat="22.902749" lon="109.342105">
        <ele>66.722987</ele>
        <time>2026-08-15T03:18:03.000Z</time>
      </trkpt>
      <trkpt lat="22.902722" lon="109.342149">
        <ele>66.741511</ele>
        <time>2026-08-15T03:18:04.000Z</time>
      </trkpt>
      <trkpt lat="22.902696" lon="109.342193">
        <ele>66.759827</ele>
        <time>2026-08-15T03:18:05.000Z</time>
      </trkpt>
      <trkpt lat="22.902671" lon="109.342239">
        <ele>66.778540</ele>
        <time>2026-08-15T03:18:06.000Z</time>
      </trkpt>
      <trkpt lat="22.902649" lon="109.342286">
        <ele>66.797012</ele>
        <time>2026-08-15T03:18:07.000Z</time>
      </trkpt>
      <trkpt lat="22.902630" lon="109.342332">
        <ele>66.814675</ele>
        <time>2026-08-15T03:18:08.000Z</time>
      </trkpt>
      <trkpt lat="22.902614" lon="109.342380">
        <ele>66.832561</ele>
        <time>2026-08-15T03:18:09.000Z</time>
      </trkpt>
      <trkpt lat="22.902599" lon="109.342427">
        <ele>66.849989</ele>
        <time>2026-08-15T03:18:10.000Z</time>
      </trkpt>
      <trkpt lat="22.902587" lon="109.342474">
        <ele>66.867077</ele>
        <time>2026-08-15T03:18:11.000Z</time>
      </trkpt>
      <trkpt lat="22.902574" lon="109.342520">
        <ele>66.883936</ele>
        <time>2026-08-15T03:18:12.000Z</time>
      </trkpt>
      <trkpt lat="22.902561" lon="109.342565">
        <ele>66.900460</ele>
        <time>2026-08-15T03:18:13.000Z</time>
      </trkpt>
      <trkpt lat="22.902549" lon="109.342610">
        <ele>66.916875</ele>
        <time>2026-08-15T03:18:14.000Z</time>
      </trkpt>
      <trkpt lat="22.902535" lon="109.342655">
        <ele>66.933516</ele>
        <time>2026-08-15T03:18:15.000Z</time>
      </trkpt>
      <trkpt lat="22.902521" lon="109.342699">
        <ele>66.949827</ele>
        <time>2026-08-15T03:18:16.000Z</time>
      </trkpt>
      <trkpt lat="22.902509" lon="109.342744">
        <ele>66.966241</ele>
        <time>2026-08-15T03:18:17.000Z</time>
      </trkpt>
      <trkpt lat="22.902498" lon="109.342789">
        <ele>66.982554</ele>
        <time>2026-08-15T03:18:18.000Z</time>
      </trkpt>
      <trkpt lat="22.902488" lon="109.342834">
        <ele>66.998773</ele>
        <time>2026-08-15T03:18:19.000Z</time>
      </trkpt>
      <trkpt lat="22.902479" lon="109.342878">
        <ele>67.014565</ele>
        <time>2026-08-15T03:18:20.000Z</time>
      </trkpt>
      <trkpt lat="22.902468" lon="109.342923">
        <ele>67.030878</ele>
        <time>2026-08-15T03:18:21.000Z</time>
      </trkpt>
      <trkpt lat="22.902458" lon="109.342968">
        <ele>67.047097</ele>
        <time>2026-08-15T03:18:22.000Z</time>
      </trkpt>
      <trkpt lat="22.902449" lon="109.343014">
        <ele>67.056309</ele>
        <time>2026-08-15T03:18:23.000Z</time>
      </trkpt>
      <trkpt lat="22.902440" lon="109.343061">
        <ele>67.059676</ele>
        <time>2026-08-15T03:18:24.000Z</time>
      </trkpt>
      <trkpt lat="22.902432" lon="109.343108">
        <ele>67.063029</ele>
        <time>2026-08-15T03:18:25.000Z</time>
      </trkpt>
      <trkpt lat="22.902423" lon="109.343156">
        <ele>67.066466</ele>
        <time>2026-08-15T03:18:26.000Z</time>
      </trkpt>
      <trkpt lat="22.902414" lon="109.343204">
        <ele>67.069902</ele>
        <time>2026-08-15T03:18:27.000Z</time>
      </trkpt>
      <trkpt lat="22.902403" lon="109.343251">
        <ele>67.073304</ele>
        <time>2026-08-15T03:18:28.000Z</time>
      </trkpt>
      <trkpt lat="22.902395" lon="109.343299">
        <ele>67.076726</ele>
        <time>2026-08-15T03:18:29.000Z</time>
      </trkpt>
      <trkpt lat="22.902386" lon="109.343349">
        <ele>67.080300</ele>
        <time>2026-08-15T03:18:30.000Z</time>
      </trkpt>
      <trkpt lat="22.902378" lon="109.343399">
        <ele>67.083860</ele>
        <time>2026-08-15T03:18:31.000Z</time>
      </trkpt>
      <trkpt lat="22.902369" lon="109.343448">
        <ele>67.087365</ele>
        <time>2026-08-15T03:18:32.000Z</time>
      </trkpt>
      <trkpt lat="22.902360" lon="109.343498">
        <ele>67.090939</ele>
        <time>2026-08-15T03:18:33.000Z</time>
      </trkpt>
      <trkpt lat="22.902352" lon="109.343550">
        <ele>67.094637</ele>
        <time>2026-08-15T03:18:34.000Z</time>
      </trkpt>
      <trkpt lat="22.902343" lon="109.343602">
        <ele>67.098349</ele>
        <time>2026-08-15T03:18:35.000Z</time>
      </trkpt>
      <trkpt lat="22.902335" lon="109.343654">
        <ele>67.102048</ele>
        <time>2026-08-15T03:18:36.000Z</time>
      </trkpt>
      <trkpt lat="22.902325" lon="109.343706">
        <ele>67.105774</ele>
        <time>2026-08-15T03:18:37.000Z</time>
      </trkpt>
      <trkpt lat="22.902315" lon="109.343759">
        <ele>67.109569</ele>
        <time>2026-08-15T03:18:38.000Z</time>
      </trkpt>
      <trkpt lat="22.902304" lon="109.343811">
        <ele>67.113312</ele>
        <time>2026-08-15T03:18:39.000Z</time>
      </trkpt>
      <trkpt lat="22.902294" lon="109.343863">
        <ele>67.117039</ele>
        <time>2026-08-15T03:18:40.000Z</time>
      </trkpt>
      <trkpt lat="22.902284" lon="109.343913">
        <ele>67.120628</ele>
        <time>2026-08-15T03:18:41.000Z</time>
      </trkpt>
      <trkpt lat="22.902276" lon="109.343964">
        <ele>67.124257</ele>
        <time>2026-08-15T03:18:42.000Z</time>
      </trkpt>
      <trkpt lat="22.902267" lon="109.344015">
        <ele>67.127900</ele>
        <time>2026-08-15T03:18:43.000Z</time>
      </trkpt>
      <trkpt lat="22.902258" lon="109.344066">
        <ele>67.131543</ele>
        <time>2026-08-15T03:18:44.000Z</time>
      </trkpt>
      <trkpt lat="22.902249" lon="109.344119">
        <ele>67.135324</ele>
        <time>2026-08-15T03:18:45.000Z</time>
      </trkpt>
      <trkpt lat="22.902240" lon="109.344172">
        <ele>67.139104</ele>
        <time>2026-08-15T03:18:46.000Z</time>
      </trkpt>
      <trkpt lat="22.902232" lon="109.344224">
        <ele>67.142803</ele>
        <time>2026-08-15T03:18:47.000Z</time>
      </trkpt>
      <trkpt lat="22.902225" lon="109.344276">
        <ele>67.146489</ele>
        <time>2026-08-15T03:18:48.000Z</time>
      </trkpt>
      <trkpt lat="22.902218" lon="109.344328">
        <ele>67.150176</ele>
        <time>2026-08-15T03:18:49.000Z</time>
      </trkpt>
      <trkpt lat="22.902209" lon="109.344378">
        <ele>67.153750</ele>
        <time>2026-08-15T03:18:50.000Z</time>
      </trkpt>
      <trkpt lat="22.902200" lon="109.344426">
        <ele>67.157186</ele>
        <time>2026-08-15T03:18:51.000Z</time>
      </trkpt>
      <trkpt lat="22.902190" lon="109.344475">
        <ele>67.160707</ele>
        <time>2026-08-15T03:18:52.000Z</time>
      </trkpt>
      <trkpt lat="22.902181" lon="109.344522">
        <ele>67.164075</ele>
        <time>2026-08-15T03:18:53.000Z</time>
      </trkpt>
      <trkpt lat="22.902171" lon="109.344568">
        <ele>67.167390</ele>
        <time>2026-08-15T03:18:54.000Z</time>
      </trkpt>
      <trkpt lat="22.902164" lon="109.344613">
        <ele>67.170592</ele>
        <time>2026-08-15T03:18:55.000Z</time>
      </trkpt>
      <trkpt lat="22.902156" lon="109.344657">
        <ele>67.173738</ele>
        <time>2026-08-15T03:18:56.000Z</time>
      </trkpt>
      <trkpt lat="22.902148" lon="109.344701">
        <ele>67.176884</ele>
        <time>2026-08-15T03:18:57.000Z</time>
      </trkpt>
      <trkpt lat="22.902142" lon="109.344744">
        <ele>67.179935</ele>
        <time>2026-08-15T03:18:58.000Z</time>
      </trkpt>
      <trkpt lat="22.902134" lon="109.344787">
        <ele>67.183013</ele>
        <time>2026-08-15T03:18:59.000Z</time>
      </trkpt>
      <trkpt lat="22.902126" lon="109.344831">
        <ele>67.186159</ele>
        <time>2026-08-15T03:19:00.000Z</time>
      </trkpt>
      <trkpt lat="22.902119" lon="109.344876">
        <ele>67.189361</ele>
        <time>2026-08-15T03:19:01.000Z</time>
      </trkpt>
      <trkpt lat="22.902110" lon="109.344920">
        <ele>67.182210</ele>
        <time>2026-08-15T03:19:02.000Z</time>
      </trkpt>
      <trkpt lat="22.902102" lon="109.344966">
        <ele>67.153429</ele>
        <time>2026-08-15T03:19:03.000Z</time>
      </trkpt>
      <trkpt lat="22.902096" lon="109.345011">
        <ele>67.125474</ele>
        <time>2026-08-15T03:19:04.000Z</time>
      </trkpt>
      <trkpt lat="22.902088" lon="109.345056">
        <ele>67.097298</ele>
        <time>2026-08-15T03:19:05.000Z</time>
      </trkpt>
      <trkpt lat="22.902079" lon="109.345100">
        <ele>67.069587</ele>
        <time>2026-08-15T03:19:06.000Z</time>
      </trkpt>
      <trkpt lat="22.902071" lon="109.345145">
        <ele>67.041410</ele>
        <time>2026-08-15T03:19:07.000Z</time>
      </trkpt>
      <trkpt lat="22.902064" lon="109.345190">
        <ele>67.013352</ele>
        <time>2026-08-15T03:19:08.000Z</time>
      </trkpt>
      <trkpt lat="22.902057" lon="109.345237">
        <ele>66.984081</ele>
        <time>2026-08-15T03:19:09.000Z</time>
      </trkpt>
      <trkpt lat="22.902049" lon="109.345283">
        <ele>66.955301</ele>
        <time>2026-08-15T03:19:10.000Z</time>
      </trkpt>
      <trkpt lat="22.902042" lon="109.345328">
        <ele>66.927243</ele>
        <time>2026-08-15T03:19:11.000Z</time>
      </trkpt>
      <trkpt lat="22.902034" lon="109.345375">
        <ele>66.897857</ele>
        <time>2026-08-15T03:19:12.000Z</time>
      </trkpt>
      <trkpt lat="22.902025" lon="109.345422">
        <ele>66.868344</ele>
        <time>2026-08-15T03:19:13.000Z</time>
      </trkpt>
      <trkpt lat="22.902016" lon="109.345472">
        <ele>66.837022</ele>
        <time>2026-08-15T03:19:14.000Z</time>
      </trkpt>
      <trkpt lat="22.902008" lon="109.345521">
        <ele>66.806427</ele>
        <time>2026-08-15T03:19:15.000Z</time>
      </trkpt>
      <trkpt lat="22.902000" lon="109.345573">
        <ele>66.774014</ele>
        <time>2026-08-15T03:19:16.000Z</time>
      </trkpt>
      <trkpt lat="22.901992" lon="109.345626">
        <ele>66.740995</ele>
        <time>2026-08-15T03:19:17.000Z</time>
      </trkpt>
      <trkpt lat="22.901984" lon="109.345680">
        <ele>66.707369</ele>
        <time>2026-08-15T03:19:18.000Z</time>
      </trkpt>
      <trkpt lat="22.901975" lon="109.345736">
        <ele>66.672420</ele>
        <time>2026-08-15T03:19:19.000Z</time>
      </trkpt>
      <trkpt lat="22.901966" lon="109.345793">
        <ele>66.636864</ele>
        <time>2026-08-15T03:19:20.000Z</time>
      </trkpt>
      <trkpt lat="22.901957" lon="109.345847">
        <ele>66.603126</ele>
        <time>2026-08-15T03:19:21.000Z</time>
      </trkpt>
      <trkpt lat="22.901948" lon="109.345902">
        <ele>66.568782</ele>
        <time>2026-08-15T03:19:22.000Z</time>
      </trkpt>
      <trkpt lat="22.901939" lon="109.345955">
        <ele>66.535648</ele>
        <time>2026-08-15T03:19:23.000Z</time>
      </trkpt>
      <trkpt lat="22.901933" lon="109.346009">
        <ele>66.502208</ele>
        <time>2026-08-15T03:19:24.000Z</time>
      </trkpt>
      <trkpt lat="22.901928" lon="109.346064">
        <ele>66.468229</ele>
        <time>2026-08-15T03:19:25.000Z</time>
      </trkpt>
      <trkpt lat="22.901925" lon="109.346117">
        <ele>66.435583</ele>
        <time>2026-08-15T03:19:26.000Z</time>
      </trkpt>
      <trkpt lat="22.901921" lon="109.346171">
        <ele>66.402276</ele>
        <time>2026-08-15T03:19:27.000Z</time>
      </trkpt>
      <trkpt lat="22.901909" lon="109.346223">
        <ele>66.369319</ele>
        <time>2026-08-15T03:19:28.000Z</time>
      </trkpt>
      <trkpt lat="22.901893" lon="109.346274">
        <ele>66.336195</ele>
        <time>2026-08-15T03:19:29.000Z</time>
      </trkpt>
      <trkpt lat="22.901876" lon="109.346323">
        <ele>66.304003</ele>
        <time>2026-08-15T03:19:30.000Z</time>
      </trkpt>
      <trkpt lat="22.901861" lon="109.346375">
        <ele>66.270503</ele>
        <time>2026-08-15T03:19:31.000Z</time>
      </trkpt>
      <trkpt lat="22.901849" lon="109.346428">
        <ele>66.236948</ele>
        <time>2026-08-15T03:19:32.000Z</time>
      </trkpt>
      <trkpt lat="22.901838" lon="109.346481">
        <ele>66.203546</ele>
        <time>2026-08-15T03:19:33.000Z</time>
      </trkpt>
      <trkpt lat="22.901827" lon="109.346537">
        <ele>66.168343</ele>
        <time>2026-08-15T03:19:34.000Z</time>
      </trkpt>
      <trkpt lat="22.901817" lon="109.346591">
        <ele>66.134479</ele>
        <time>2026-08-15T03:19:35.000Z</time>
      </trkpt>
      <trkpt lat="22.901807" lon="109.346647">
        <ele>66.099409</ele>
        <time>2026-08-15T03:19:36.000Z</time>
      </trkpt>
      <trkpt lat="22.901796" lon="109.346704">
        <ele>66.063604</ele>
        <time>2026-08-15T03:19:37.000Z</time>
      </trkpt>
      <trkpt lat="22.901786" lon="109.346758">
        <ele>66.029740</ele>
        <time>2026-08-15T03:19:38.000Z</time>
      </trkpt>
      <trkpt lat="22.901777" lon="109.346812">
        <ele>65.996002</ele>
        <time>2026-08-15T03:19:39.000Z</time>
      </trkpt>
      <trkpt lat="22.901769" lon="109.346860">
        <ele>65.995124</ele>
        <time>2026-08-15T03:19:40.000Z</time>
      </trkpt>
      <trkpt lat="22.901763" lon="109.346908">
        <ele>66.000012</ele>
        <time>2026-08-15T03:19:41.000Z</time>
      </trkpt>
      <trkpt lat="22.901757" lon="109.346957">
        <ele>66.005000</ele>
        <time>2026-08-15T03:19:42.000Z</time>
      </trkpt>
      <trkpt lat="22.901746" lon="109.347005">
        <ele>66.009992</ele>
        <time>2026-08-15T03:19:43.000Z</time>
      </trkpt>
      <trkpt lat="22.901739" lon="109.347050">
        <ele>66.014597</ele>
        <time>2026-08-15T03:19:44.000Z</time>
      </trkpt>
      <trkpt lat="22.901735" lon="109.347097">
        <ele>66.019361</ele>
        <time>2026-08-15T03:19:45.000Z</time>
      </trkpt>
      <trkpt lat="22.901727" lon="109.347143">
        <ele>66.024085</ele>
        <time>2026-08-15T03:19:46.000Z</time>
      </trkpt>
      <trkpt lat="22.901718" lon="109.347189">
        <ele>66.028830</ele>
        <time>2026-08-15T03:19:47.000Z</time>
      </trkpt>
      <trkpt lat="22.901712" lon="109.347237">
        <ele>66.033719</ele>
        <time>2026-08-15T03:19:48.000Z</time>
      </trkpt>
      <trkpt lat="22.901705" lon="109.347285">
        <ele>66.038623</ele>
        <time>2026-08-15T03:19:49.000Z</time>
      </trkpt>
      <trkpt lat="22.901700" lon="109.347336">
        <ele>66.043799</ele>
        <time>2026-08-15T03:19:50.000Z</time>
      </trkpt>
      <trkpt lat="22.901692" lon="109.347385">
        <ele>66.048821</ele>
        <time>2026-08-15T03:19:51.000Z</time>
      </trkpt>
      <trkpt lat="22.901686" lon="109.347434">
        <ele>66.053809</ele>
        <time>2026-08-15T03:19:52.000Z</time>
      </trkpt>
      <trkpt lat="22.901679" lon="109.347484">
        <ele>66.058913</ele>
        <time>2026-08-15T03:19:53.000Z</time>
      </trkpt>
      <trkpt lat="22.901670" lon="109.347535">
        <ele>66.064153</ele>
        <time>2026-08-15T03:19:54.000Z</time>
      </trkpt>
      <trkpt lat="22.901662" lon="109.347585">
        <ele>66.069274</ele>
        <time>2026-08-15T03:19:55.000Z</time>
      </trkpt>
      <trkpt lat="22.901656" lon="109.347635">
        <ele>66.074363</ele>
        <time>2026-08-15T03:19:56.000Z</time>
      </trkpt>
      <trkpt lat="22.901649" lon="109.347684">
        <ele>66.079367</ele>
        <time>2026-08-15T03:19:57.000Z</time>
      </trkpt>
      <trkpt lat="22.901642" lon="109.347735">
        <ele>66.084570</ele>
        <time>2026-08-15T03:19:58.000Z</time>
      </trkpt>
      <trkpt lat="22.901637" lon="109.347786">
        <ele>66.089746</ele>
        <time>2026-08-15T03:19:59.000Z</time>
      </trkpt>
      <trkpt lat="22.901631" lon="109.347839">
        <ele>66.095135</ele>
        <time>2026-08-15T03:20:00.000Z</time>
      </trkpt>
      <trkpt lat="22.901625" lon="109.347892">
        <ele>66.100523</ele>
        <time>2026-08-15T03:20:01.000Z</time>
      </trkpt>
      <trkpt lat="22.901617" lon="109.347946">
        <ele>66.106043</ele>
        <time>2026-08-15T03:20:02.000Z</time>
      </trkpt>
      <trkpt lat="22.901609" lon="109.347998">
        <ele>66.111363</ele>
        <time>2026-08-15T03:20:03.000Z</time>
      </trkpt>
      <trkpt lat="22.901603" lon="109.348049">
        <ele>66.116552</ele>
        <time>2026-08-15T03:20:04.000Z</time>
      </trkpt>
      <trkpt lat="22.901594" lon="109.348102">
        <ele>66.121990</ele>
        <time>2026-08-15T03:20:05.000Z</time>
      </trkpt>
      <trkpt lat="22.901584" lon="109.348155">
        <ele>66.127450</ele>
        <time>2026-08-15T03:20:06.000Z</time>
      </trkpt>
      <trkpt lat="22.901573" lon="109.348207">
        <ele>66.132834</ele>
        <time>2026-08-15T03:20:07.000Z</time>
      </trkpt>
      <trkpt lat="22.901562" lon="109.348259">
        <ele>66.138218</ele>
        <time>2026-08-15T03:20:08.000Z</time>
      </trkpt>
      <trkpt lat="22.901553" lon="109.348310">
        <ele>66.143458</ele>
        <time>2026-08-15T03:20:09.000Z</time>
      </trkpt>
      <trkpt lat="22.901543" lon="109.348361">
        <ele>66.148720</ele>
        <time>2026-08-15T03:20:10.000Z</time>
      </trkpt>
      <trkpt lat="22.901533" lon="109.348411">
        <ele>66.153884</ele>
        <time>2026-08-15T03:20:11.000Z</time>
      </trkpt>
      <trkpt lat="22.901525" lon="109.348462">
        <ele>66.159104</ele>
        <time>2026-08-15T03:20:12.000Z</time>
      </trkpt>
      <trkpt lat="22.901517" lon="109.348513">
        <ele>66.164325</ele>
        <time>2026-08-15T03:20:13.000Z</time>
      </trkpt>
      <trkpt lat="22.901510" lon="109.348563">
        <ele>66.169429</ele>
        <time>2026-08-15T03:20:14.000Z</time>
      </trkpt>
      <trkpt lat="22.901501" lon="109.348615">
        <ele>66.174768</ele>
        <time>2026-08-15T03:20:15.000Z</time>
      </trkpt>
      <trkpt lat="22.901492" lon="109.348667">
        <ele>66.180108</ele>
        <time>2026-08-15T03:20:16.000Z</time>
      </trkpt>
      <trkpt lat="22.901484" lon="109.348718">
        <ele>66.185329</ele>
        <time>2026-08-15T03:20:17.000Z</time>
      </trkpt>
      <trkpt lat="22.901478" lon="109.348767">
        <ele>66.191007</ele>
        <time>2026-08-15T03:20:18.000Z</time>
      </trkpt>
      <trkpt lat="22.901472" lon="109.348818">
        <ele>66.197782</ele>
        <time>2026-08-15T03:20:19.000Z</time>
      </trkpt>
      <trkpt lat="22.901464" lon="109.348867">
        <ele>66.204339</ele>
        <time>2026-08-15T03:20:20.000Z</time>
      </trkpt>
      <trkpt lat="22.901454" lon="109.348914">
        <ele>66.210696</ele>
        <time>2026-08-15T03:20:21.000Z</time>
      </trkpt>
      <trkpt lat="22.901446" lon="109.348961">
        <ele>66.216994</ele>
        <time>2026-08-15T03:20:22.000Z</time>
      </trkpt>
      <trkpt lat="22.901438" lon="109.349009">
        <ele>66.223422</ele>
        <time>2026-08-15T03:20:23.000Z</time>
      </trkpt>
      <trkpt lat="22.901430" lon="109.349057">
        <ele>66.229850</ele>
        <time>2026-08-15T03:20:24.000Z</time>
      </trkpt>
      <trkpt lat="22.901421" lon="109.349106">
        <ele>66.236434</ele>
        <time>2026-08-15T03:20:25.000Z</time>
      </trkpt>
      <trkpt lat="22.901413" lon="109.349153">
        <ele>66.242732</ele>
        <time>2026-08-15T03:20:26.000Z</time>
      </trkpt>
      <trkpt lat="22.901403" lon="109.349203">
        <ele>66.249474</ele>
        <time>2026-08-15T03:20:27.000Z</time>
      </trkpt>
      <trkpt lat="22.901392" lon="109.349254">
        <ele>66.256377</ele>
        <time>2026-08-15T03:20:28.000Z</time>
      </trkpt>
      <trkpt lat="22.901384" lon="109.349303">
        <ele>66.262934</ele>
        <time>2026-08-15T03:20:29.000Z</time>
      </trkpt>
      <trkpt lat="22.901376" lon="109.349351">
        <ele>66.269362</ele>
        <time>2026-08-15T03:20:30.000Z</time>
      </trkpt>
      <trkpt lat="22.901366" lon="109.349402">
        <ele>66.276233</ele>
        <time>2026-08-15T03:20:31.000Z</time>
      </trkpt>
      <trkpt lat="22.901357" lon="109.349454">
        <ele>66.283205</ele>
        <time>2026-08-15T03:20:32.000Z</time>
      </trkpt>
      <trkpt lat="22.901347" lon="109.349505">
        <ele>66.290077</ele>
        <time>2026-08-15T03:20:33.000Z</time>
      </trkpt>
      <trkpt lat="22.901336" lon="109.349557">
        <ele>66.297107</ele>
        <time>2026-08-15T03:20:34.000Z</time>
      </trkpt>
      <trkpt lat="22.901324" lon="109.349609">
        <ele>66.304171</ele>
        <time>2026-08-15T03:20:35.000Z</time>
      </trkpt>
      <trkpt lat="22.901313" lon="109.349661">
        <ele>66.311202</ele>
        <time>2026-08-15T03:20:36.000Z</time>
      </trkpt>
      <trkpt lat="22.901302" lon="109.349711">
        <ele>66.317976</ele>
        <time>2026-08-15T03:20:37.000Z</time>
      </trkpt>
      <trkpt lat="22.901289" lon="109.349761">
        <ele>66.324822</ele>
        <time>2026-08-15T03:20:38.000Z</time>
      </trkpt>
      <trkpt lat="22.901279" lon="109.349811">
        <ele>66.331564</ele>
        <time>2026-08-15T03:20:39.000Z</time>
      </trkpt>
      <trkpt lat="22.901269" lon="109.349861">
        <ele>66.338307</ele>
        <time>2026-08-15T03:20:40.000Z</time>
      </trkpt>
      <trkpt lat="22.901260" lon="109.349912">
        <ele>66.345149</ele>
        <time>2026-08-15T03:20:41.000Z</time>
      </trkpt>
      <trkpt lat="22.901256" lon="109.349962">
        <ele>66.351763</ele>
        <time>2026-08-15T03:20:42.000Z</time>
      </trkpt>
      <trkpt lat="22.901253" lon="109.350013">
        <ele>66.358497</ele>
        <time>2026-08-15T03:20:43.000Z</time>
      </trkpt>
      <trkpt lat="22.901248" lon="109.350065">
        <ele>66.365387</ele>
        <time>2026-08-15T03:20:44.000Z</time>
      </trkpt>
      <trkpt lat="22.901239" lon="109.350109">
        <ele>66.371326</ele>
        <time>2026-08-15T03:20:45.000Z</time>
      </trkpt>
      <trkpt lat="22.901223" lon="109.350151">
        <ele>66.377315</ele>
        <time>2026-08-15T03:20:46.000Z</time>
      </trkpt>
      <trkpt lat="22.901212" lon="109.350196">
        <ele>66.383450</ele>
        <time>2026-08-15T03:20:47.000Z</time>
      </trkpt>
      <trkpt lat="22.901204" lon="109.350243">
        <ele>66.389749</ele>
        <time>2026-08-15T03:20:48.000Z</time>
      </trkpt>
      <trkpt lat="22.901193" lon="109.350290">
        <ele>66.396139</ele>
        <time>2026-08-15T03:20:49.000Z</time>
      </trkpt>
      <trkpt lat="22.901181" lon="109.350337">
        <ele>66.402566</ele>
        <time>2026-08-15T03:20:50.000Z</time>
      </trkpt>
      <trkpt lat="22.901167" lon="109.350384">
        <ele>66.409075</ele>
        <time>2026-08-15T03:20:51.000Z</time>
      </trkpt>
      <trkpt lat="22.901155" lon="109.350433">
        <ele>66.415756</ele>
        <time>2026-08-15T03:20:52.000Z</time>
      </trkpt>
      <trkpt lat="22.901143" lon="109.350482">
        <ele>66.422437</ele>
        <time>2026-08-15T03:20:53.000Z</time>
      </trkpt>
      <trkpt lat="22.901132" lon="109.350530">
        <ele>66.428955</ele>
        <time>2026-08-15T03:20:54.000Z</time>
      </trkpt>
      <trkpt lat="22.901123" lon="109.350577">
        <ele>66.435281</ele>
        <time>2026-08-15T03:20:55.000Z</time>
      </trkpt>
      <trkpt lat="22.901115" lon="109.350624">
        <ele>66.441580</ele>
        <time>2026-08-15T03:20:56.000Z</time>
      </trkpt>
      <trkpt lat="22.901107" lon="109.350672">
        <ele>66.441905</ele>
        <time>2026-08-15T03:20:57.000Z</time>
      </trkpt>
      <trkpt lat="22.901100" lon="109.350721">
        <ele>66.433383</ele>
        <time>2026-08-15T03:20:58.000Z</time>
      </trkpt>
      <trkpt lat="22.901091" lon="109.350772">
        <ele>66.424458</ele>
        <time>2026-08-15T03:20:59.000Z</time>
      </trkpt>
      <trkpt lat="22.901081" lon="109.350821">
        <ele>66.415833</ele>
        <time>2026-08-15T03:21:00.000Z</time>
      </trkpt>
      <trkpt lat="22.901071" lon="109.350869">
        <ele>66.407375</ele>
        <time>2026-08-15T03:21:01.000Z</time>
      </trkpt>
      <trkpt lat="22.901060" lon="109.350915">
        <ele>66.399207</ele>
        <time>2026-08-15T03:21:02.000Z</time>
      </trkpt>
      <trkpt lat="22.901048" lon="109.350963">
        <ele>66.390659</ele>
        <time>2026-08-15T03:21:03.000Z</time>
      </trkpt>
      <trkpt lat="22.901036" lon="109.351011">
        <ele>66.382111</ele>
        <time>2026-08-15T03:21:04.000Z</time>
      </trkpt>
      <trkpt lat="22.901022" lon="109.351061">
        <ele>66.373130</ele>
        <time>2026-08-15T03:21:05.000Z</time>
      </trkpt>
      <trkpt lat="22.901012" lon="109.351113">
        <ele>66.364000</ele>
        <time>2026-08-15T03:21:06.000Z</time>
      </trkpt>
      <trkpt lat="22.901003" lon="109.351165">
        <ele>66.354907</ele>
        <time>2026-08-15T03:21:07.000Z</time>
      </trkpt>
      <trkpt lat="22.900991" lon="109.351215">
        <ele>66.346027</ele>
        <time>2026-08-15T03:21:08.000Z</time>
      </trkpt>
      <trkpt lat="22.900979" lon="109.351267">
        <ele>66.336814</ele>
        <time>2026-08-15T03:21:09.000Z</time>
      </trkpt>
      <trkpt lat="22.900967" lon="109.351320">
        <ele>66.327434</ele>
        <time>2026-08-15T03:21:10.000Z</time>
      </trkpt>
      <trkpt lat="22.900954" lon="109.351371">
        <ele>66.318339</ele>
        <time>2026-08-15T03:21:11.000Z</time>
      </trkpt>
      <trkpt lat="22.900950" lon="109.351424">
        <ele>66.309200</ele>
        <time>2026-08-15T03:21:12.000Z</time>
      </trkpt>
      <trkpt lat="22.900943" lon="109.351475">
        <ele>66.300338</ele>
        <time>2026-08-15T03:21:13.000Z</time>
      </trkpt>
      <trkpt lat="22.900929" lon="109.351525">
        <ele>66.291357</ele>
        <time>2026-08-15T03:21:14.000Z</time>
      </trkpt>
      <trkpt lat="22.900913" lon="109.351573">
        <ele>66.282584</ele>
        <time>2026-08-15T03:21:15.000Z</time>
      </trkpt>
      <trkpt lat="22.900899" lon="109.351621">
        <ele>66.273930</ele>
        <time>2026-08-15T03:21:16.000Z</time>
      </trkpt>
      <trkpt lat="22.900888" lon="109.351672">
        <ele>66.264928</ele>
        <time>2026-08-15T03:21:17.000Z</time>
      </trkpt>
      <trkpt lat="22.900876" lon="109.351723">
        <ele>66.255882</ele>
        <time>2026-08-15T03:21:18.000Z</time>
      </trkpt>
      <trkpt lat="22.900868" lon="109.351775">
        <ele>66.246821</ele>
        <time>2026-08-15T03:21:19.000Z</time>
      </trkpt>
      <trkpt lat="22.900859" lon="109.351827">
        <ele>66.237728</ele>
        <time>2026-08-15T03:21:20.000Z</time>
      </trkpt>
      <trkpt lat="22.900848" lon="109.351877">
        <ele>66.228893</ele>
        <time>2026-08-15T03:21:21.000Z</time>
      </trkpt>
      <trkpt lat="22.900836" lon="109.351926">
        <ele>66.220179</ele>
        <time>2026-08-15T03:21:22.000Z</time>
      </trkpt>
      <trkpt lat="22.900824" lon="109.351976">
        <ele>66.211299</ele>
        <time>2026-08-15T03:21:23.000Z</time>
      </trkpt>
      <trkpt lat="22.900813" lon="109.352028">
        <ele>66.202129</ele>
        <time>2026-08-15T03:21:24.000Z</time>
      </trkpt>
      <trkpt lat="22.900803" lon="109.352079">
        <ele>66.193168</ele>
        <time>2026-08-15T03:21:25.000Z</time>
      </trkpt>
      <trkpt lat="22.900792" lon="109.352131">
        <ele>66.183998</ele>
        <time>2026-08-15T03:21:26.000Z</time>
      </trkpt>
      <trkpt lat="22.900780" lon="109.352180">
        <ele>66.175284</ele>
        <time>2026-08-15T03:21:27.000Z</time>
      </trkpt>
      <trkpt lat="22.900768" lon="109.352228">
        <ele>66.166736</ele>
        <time>2026-08-15T03:21:28.000Z</time>
      </trkpt>
      <trkpt lat="22.900756" lon="109.352276">
        <ele>66.158188</ele>
        <time>2026-08-15T03:21:29.000Z</time>
      </trkpt>
      <trkpt lat="22.900744" lon="109.352326">
        <ele>66.149308</ele>
        <time>2026-08-15T03:21:30.000Z</time>
      </trkpt>
      <trkpt lat="22.900732" lon="109.352378">
        <ele>66.140095</ele>
        <time>2026-08-15T03:21:31.000Z</time>
      </trkpt>
      <trkpt lat="22.900723" lon="109.352431">
        <ele>66.130833</ele>
        <time>2026-08-15T03:21:32.000Z</time>
      </trkpt>
      <trkpt lat="22.900712" lon="109.352484">
        <ele>66.121495</ele>
        <time>2026-08-15T03:21:33.000Z</time>
      </trkpt>
      <trkpt lat="22.900700" lon="109.352536">
        <ele>66.112282</ele>
        <time>2026-08-15T03:21:34.000Z</time>
      </trkpt>
      <trkpt lat="22.900689" lon="109.352589">
        <ele>66.084695</ele>
        <time>2026-08-15T03:21:35.000Z</time>
      </trkpt>
      <trkpt lat="22.900677" lon="109.352641">
        <ele>66.050900</ele>
        <time>2026-08-15T03:21:36.000Z</time>
      </trkpt>
      <trkpt lat="22.900667" lon="109.352692">
        <ele>66.018027</ele>
        <time>2026-08-15T03:21:37.000Z</time>
      </trkpt>
      <trkpt lat="22.900657" lon="109.352741">
        <ele>65.986387</ele>
        <time>2026-08-15T03:21:38.000Z</time>
      </trkpt>
      <trkpt lat="22.900644" lon="109.352789">
        <ele>65.954846</ele>
        <time>2026-08-15T03:21:39.000Z</time>
      </trkpt>
      <trkpt lat="22.900632" lon="109.352836">
        <ele>65.924099</ele>
        <time>2026-08-15T03:21:40.000Z</time>
      </trkpt>
      <trkpt lat="22.900620" lon="109.352884">
        <ele>65.892744</ele>
        <time>2026-08-15T03:21:41.000Z</time>
      </trkpt>
      <trkpt lat="22.900607" lon="109.352930">
        <ele>65.862410</ele>
        <time>2026-08-15T03:21:42.000Z</time>
      </trkpt>
      <trkpt lat="22.900594" lon="109.352974">
        <ele>65.833279</ele>
        <time>2026-08-15T03:21:43.000Z</time>
      </trkpt>
      <trkpt lat="22.900584" lon="109.353023">
        <ele>65.801639</ele>
        <time>2026-08-15T03:21:44.000Z</time>
      </trkpt>
      <trkpt lat="22.900573" lon="109.353072">
        <ele>65.769844</ele>
        <time>2026-08-15T03:21:45.000Z</time>
      </trkpt>
      <trkpt lat="22.900560" lon="109.353120">
        <ele>65.738303</ele>
        <time>2026-08-15T03:21:46.000Z</time>
      </trkpt>
      <trkpt lat="22.900548" lon="109.353170">
        <ele>65.705729</ele>
        <time>2026-08-15T03:21:47.000Z</time>
      </trkpt>
      <trkpt lat="22.900537" lon="109.353221">
        <ele>65.672708</ele>
        <time>2026-08-15T03:21:48.000Z</time>
      </trkpt>
      <trkpt lat="22.900527" lon="109.353274">
        <ele>65.638602</ele>
        <time>2026-08-15T03:21:49.000Z</time>
      </trkpt>
      <trkpt lat="22.900517" lon="109.353328">
        <ele>65.603877</ele>
        <time>2026-08-15T03:21:50.000Z</time>
      </trkpt>
      <trkpt lat="22.900506" lon="109.353379">
        <ele>65.570856</ele>
        <time>2026-08-15T03:21:51.000Z</time>
      </trkpt>
      <trkpt lat="22.900495" lon="109.353432">
        <ele>65.536606</ele>
        <time>2026-08-15T03:21:52.000Z</time>
      </trkpt>
      <trkpt lat="22.900485" lon="109.353485">
        <ele>65.502499</ele>
        <time>2026-08-15T03:21:53.000Z</time>
      </trkpt>
      <trkpt lat="22.900475" lon="109.353538">
        <ele>65.468393</ele>
        <time>2026-08-15T03:21:54.000Z</time>
      </trkpt>
      <trkpt lat="22.900464" lon="109.353592">
        <ele>65.433527</ele>
        <time>2026-08-15T03:21:55.000Z</time>
      </trkpt>
      <trkpt lat="22.900451" lon="109.353645">
        <ele>65.398951</ele>
        <time>2026-08-15T03:21:56.000Z</time>
      </trkpt>
      <trkpt lat="22.900441" lon="109.353699">
        <ele>65.364226</ele>
        <time>2026-08-15T03:21:57.000Z</time>
      </trkpt>
      <trkpt lat="22.900429" lon="109.353753">
        <ele>65.329207</ele>
        <time>2026-08-15T03:21:58.000Z</time>
      </trkpt>
      <trkpt lat="22.900418" lon="109.353806">
        <ele>65.294956</ele>
        <time>2026-08-15T03:21:59.000Z</time>
      </trkpt>
      <trkpt lat="22.900407" lon="109.353858">
        <ele>65.261321</ele>
        <time>2026-08-15T03:22:00.000Z</time>
      </trkpt>
      <trkpt lat="22.900395" lon="109.353910">
        <ele>65.227525</ele>
        <time>2026-08-15T03:22:01.000Z</time>
      </trkpt>
      <trkpt lat="22.900383" lon="109.353963">
        <ele>65.193118</ele>
        <time>2026-08-15T03:22:02.000Z</time>
      </trkpt>
      <trkpt lat="22.900371" lon="109.354016">
        <ele>65.158711</ele>
        <time>2026-08-15T03:22:03.000Z</time>
      </trkpt>
      <trkpt lat="22.900360" lon="109.354069">
        <ele>65.124461</ele>
        <time>2026-08-15T03:22:04.000Z</time>
      </trkpt>
      <trkpt lat="22.900350" lon="109.354122">
        <ele>65.090354</ele>
        <time>2026-08-15T03:22:05.000Z</time>
      </trkpt>
      <trkpt lat="22.900340" lon="109.354175">
        <ele>65.056248</ele>
        <time>2026-08-15T03:22:06.000Z</time>
      </trkpt>
      <trkpt lat="22.900331" lon="109.354229">
        <ele>65.021652</ele>
        <time>2026-08-15T03:22:07.000Z</time>
      </trkpt>
      <trkpt lat="22.900322" lon="109.354283">
        <ele>64.987056</ele>
        <time>2026-08-15T03:22:08.000Z</time>
      </trkpt>
      <trkpt lat="22.900312" lon="109.354337">
        <ele>64.952332</ele>
        <time>2026-08-15T03:22:09.000Z</time>
      </trkpt>
      <trkpt lat="22.900303" lon="109.354391">
        <ele>64.917736</ele>
        <time>2026-08-15T03:22:10.000Z</time>
      </trkpt>
      <trkpt lat="22.900295" lon="109.354445">
        <ele>64.883255</ele>
        <time>2026-08-15T03:22:11.000Z</time>
      </trkpt>
      <trkpt lat="22.900286" lon="109.354499">
        <ele>64.896117</ele>
        <time>2026-08-15T03:22:12.000Z</time>
      </trkpt>
      <trkpt lat="22.900275" lon="109.354553">
        <ele>64.916060</ele>
        <time>2026-08-15T03:22:13.000Z</time>
      </trkpt>
      <trkpt lat="22.900262" lon="109.354607">
        <ele>64.936187</ele>
        <time>2026-08-15T03:22:14.000Z</time>
      </trkpt>
      <trkpt lat="22.900250" lon="109.354659">
        <ele>64.955518</ele>
        <time>2026-08-15T03:22:15.000Z</time>
      </trkpt>
      <trkpt lat="22.900239" lon="109.354713">
        <ele>64.975461</ele>
        <time>2026-08-15T03:22:16.000Z</time>
      </trkpt>
      <trkpt lat="22.900229" lon="109.354767">
        <ele>64.995323</ele>
        <time>2026-08-15T03:22:17.000Z</time>
      </trkpt>
      <trkpt lat="22.900220" lon="109.354821">
        <ele>65.015112</ele>
        <time>2026-08-15T03:22:18.000Z</time>
      </trkpt>
      <trkpt lat="22.900212" lon="109.354874">
        <ele>65.034479</ele>
        <time>2026-08-15T03:22:19.000Z</time>
      </trkpt>
      <trkpt lat="22.900204" lon="109.354927">
        <ele>65.053845</ele>
        <time>2026-08-15T03:22:20.000Z</time>
      </trkpt>
      <trkpt lat="22.900197" lon="109.354979">
        <ele>65.072796</ele>
        <time>2026-08-15T03:22:21.000Z</time>
      </trkpt>
      <trkpt lat="22.900190" lon="109.355032">
        <ele>65.092103</ele>
        <time>2026-08-15T03:22:22.000Z</time>
      </trkpt>
      <trkpt lat="22.900183" lon="109.355085">
        <ele>65.111411</ele>
        <time>2026-08-15T03:22:23.000Z</time>
      </trkpt>
      <trkpt lat="22.900179" lon="109.355139">
        <ele>65.130946</ele>
        <time>2026-08-15T03:22:24.000Z</time>
      </trkpt>
      <trkpt lat="22.900174" lon="109.355191">
        <ele>65.149799</ele>
        <time>2026-08-15T03:22:25.000Z</time>
      </trkpt>
      <trkpt lat="22.900170" lon="109.355244">
        <ele>65.168975</ele>
        <time>2026-08-15T03:22:26.000Z</time>
      </trkpt>
      <trkpt lat="22.900169" lon="109.355298">
        <ele>65.188452</ele>
        <time>2026-08-15T03:22:27.000Z</time>
      </trkpt>
      <trkpt lat="22.900168" lon="109.355350">
        <ele>65.207207</ele>
        <time>2026-08-15T03:22:28.000Z</time>
      </trkpt>
      <trkpt lat="22.900167" lon="109.355402">
        <ele>65.225963</ele>
        <time>2026-08-15T03:22:29.000Z</time>
      </trkpt>
      <trkpt lat="22.900167" lon="109.355454">
        <ele>65.244714</ele>
        <time>2026-08-15T03:22:30.000Z</time>
      </trkpt>
      <trkpt lat="22.900169" lon="109.355504">
        <ele>65.262762</ele>
        <time>2026-08-15T03:22:31.000Z</time>
      </trkpt>
      <trkpt lat="22.900171" lon="109.355555">
        <ele>65.281169</ele>
        <time>2026-08-15T03:22:32.000Z</time>
      </trkpt>
      <trkpt lat="22.900174" lon="109.355605">
        <ele>65.299237</ele>
        <time>2026-08-15T03:22:33.000Z</time>
      </trkpt>
      <trkpt lat="22.900177" lon="109.355655">
        <ele>65.317306</ele>
        <time>2026-08-15T03:22:34.000Z</time>
      </trkpt>
      <trkpt lat="22.900181" lon="109.355703">
        <ele>65.334685</ele>
        <time>2026-08-15T03:22:35.000Z</time>
      </trkpt>
      <trkpt lat="22.900183" lon="109.355749">
        <ele>65.351292</ele>
        <time>2026-08-15T03:22:36.000Z</time>
      </trkpt>
      <trkpt lat="22.900185" lon="109.355792">
        <ele>65.366817</ele>
        <time>2026-08-15T03:22:37.000Z</time>
      </trkpt>
      <trkpt lat="22.900187" lon="109.355833">
        <ele>65.381623</ele>
        <time>2026-08-15T03:22:38.000Z</time>
      </trkpt>
      <trkpt lat="22.900192" lon="109.355872">
        <ele>65.395822</ele>
        <time>2026-08-15T03:22:39.000Z</time>
      </trkpt>
      <trkpt lat="22.900199" lon="109.355910">
        <ele>65.409796</ele>
        <time>2026-08-15T03:22:40.000Z</time>
      </trkpt>
      <trkpt lat="22.900202" lon="109.355949">
        <ele>65.423909</ele>
        <time>2026-08-15T03:22:41.000Z</time>
      </trkpt>
      <trkpt lat="22.900206" lon="109.355988">
        <ele>65.438059</ele>
        <time>2026-08-15T03:22:42.000Z</time>
      </trkpt>
      <trkpt lat="22.900209" lon="109.356026">
        <ele>65.451812</ele>
        <time>2026-08-15T03:22:43.000Z</time>
      </trkpt>
      <trkpt lat="22.900211" lon="109.356065">
        <ele>65.465897</ele>
        <time>2026-08-15T03:22:44.000Z</time>
      </trkpt>
      <trkpt lat="22.900211" lon="109.356105">
        <ele>65.480322</ele>
        <time>2026-08-15T03:22:45.000Z</time>
      </trkpt>
      <trkpt lat="22.900210" lon="109.356144">
        <ele>65.494391</ele>
        <time>2026-08-15T03:22:46.000Z</time>
      </trkpt>
      <trkpt lat="22.900209" lon="109.356183">
        <ele>65.508460</ele>
        <time>2026-08-15T03:22:47.000Z</time>
      </trkpt>
      <trkpt lat="22.900210" lon="109.356225">
        <ele>65.523610</ele>
        <time>2026-08-15T03:22:48.000Z</time>
      </trkpt>
      <trkpt lat="22.900213" lon="109.356268">
        <ele>65.539160</ele>
        <time>2026-08-15T03:22:49.000Z</time>
      </trkpt>
      <trkpt lat="22.900215" lon="109.356310">
        <ele>65.554326</ele>
        <time>2026-08-15T03:22:50.000Z</time>
      </trkpt>
      <trkpt lat="22.900215" lon="109.356351">
        <ele>65.569111</ele>
        <time>2026-08-15T03:22:51.000Z</time>
      </trkpt>
      <trkpt lat="22.900219" lon="109.356392">
        <ele>65.584941</ele>
        <time>2026-08-15T03:22:52.000Z</time>
      </trkpt>
      <trkpt lat="22.900221" lon="109.356431">
        <ele>65.612091</ele>
        <time>2026-08-15T03:22:53.000Z</time>
      </trkpt>
      <trkpt lat="22.900221" lon="109.356472">
        <ele>65.640588</ele>
        <time>2026-08-15T03:22:54.000Z</time>
      </trkpt>
      <trkpt lat="22.900222" lon="109.356513">
        <ele>65.669095</ele>
        <time>2026-08-15T03:22:55.000Z</time>
      </trkpt>
      <trkpt lat="22.900225" lon="109.356552">
        <ele>65.696297</ele>
        <time>2026-08-15T03:22:56.000Z</time>
      </trkpt>
      <trkpt lat="22.900228" lon="109.356593">
        <ele>65.724884</ele>
        <time>2026-08-15T03:22:57.000Z</time>
      </trkpt>
      <trkpt lat="22.900234" lon="109.356631">
        <ele>65.751682</ele>
        <time>2026-08-15T03:22:58.000Z</time>
      </trkpt>
      <trkpt lat="22.900238" lon="109.356672">
        <ele>65.780339</ele>
        <time>2026-08-15T03:22:59.000Z</time>
      </trkpt>
      <trkpt lat="22.900242" lon="109.356712">
        <ele>65.808304</ele>
        <time>2026-08-15T03:23:00.000Z</time>
      </trkpt>
      <trkpt lat="22.900245" lon="109.356751">
        <ele>65.835506</ele>
        <time>2026-08-15T03:23:01.000Z</time>
      </trkpt>
      <trkpt lat="22.900249" lon="109.356795">
        <ele>65.866237</ele>
        <time>2026-08-15T03:23:02.000Z</time>
      </trkpt>
      <trkpt lat="22.900254" lon="109.356839">
        <ele>65.897052</ele>
        <time>2026-08-15T03:23:03.000Z</time>
      </trkpt>
      <trkpt lat="22.900260" lon="109.356882">
        <ele>65.927280</ele>
        <time>2026-08-15T03:23:04.000Z</time>
      </trkpt>
      <trkpt lat="22.900265" lon="109.356925">
        <ele>65.957405</ele>
        <time>2026-08-15T03:23:05.000Z</time>
      </trkpt>
      <trkpt lat="22.900269" lon="109.356969">
        <ele>65.988136</ele>
        <time>2026-08-15T03:23:06.000Z</time>
      </trkpt>
      <trkpt lat="22.900272" lon="109.357014">
        <ele>66.019496</ele>
        <time>2026-08-15T03:23:07.000Z</time>
      </trkpt>
      <trkpt lat="22.900273" lon="109.357060">
        <ele>66.051478</ele>
        <time>2026-08-15T03:23:08.000Z</time>
      </trkpt>
      <trkpt lat="22.900274" lon="109.357106">
        <ele>66.083459</ele>
        <time>2026-08-15T03:23:09.000Z</time>
      </trkpt>
      <trkpt lat="22.900277" lon="109.357151">
        <ele>66.114819</ele>
        <time>2026-08-15T03:23:10.000Z</time>
      </trkpt>
      <trkpt lat="22.900279" lon="109.357195">
        <ele>66.145439</ele>
        <time>2026-08-15T03:23:11.000Z</time>
      </trkpt>
      <trkpt lat="22.900281" lon="109.357239">
        <ele>66.176058</ele>
        <time>2026-08-15T03:23:12.000Z</time>
      </trkpt>
      <trkpt lat="22.900284" lon="109.357284">
        <ele>66.207418</ele>
        <time>2026-08-15T03:23:13.000Z</time>
      </trkpt>
      <trkpt lat="22.900286" lon="109.357330">
        <ele>66.239426</ele>
        <time>2026-08-15T03:23:14.000Z</time>
      </trkpt>
      <trkpt lat="22.900289" lon="109.357375">
        <ele>66.270786</ele>
        <time>2026-08-15T03:23:15.000Z</time>
      </trkpt>
      <trkpt lat="22.900293" lon="109.357420">
        <ele>66.302209</ele>
        <time>2026-08-15T03:23:16.000Z</time>
      </trkpt>
      <trkpt lat="22.900299" lon="109.357466">
        <ele>66.334500</ele>
        <time>2026-08-15T03:23:17.000Z</time>
      </trkpt>
      <trkpt lat="22.900302" lon="109.357511">
        <ele>66.365860</ele>
        <time>2026-08-15T03:23:18.000Z</time>
      </trkpt>
      <trkpt lat="22.900306" lon="109.357555">
        <ele>66.396591</ele>
        <time>2026-08-15T03:23:19.000Z</time>
      </trkpt>
      <trkpt lat="22.900308" lon="109.357598">
        <ele>66.426517</ele>
        <time>2026-08-15T03:23:20.000Z</time>
      </trkpt>
      <trkpt lat="22.900312" lon="109.357642">
        <ele>66.457248</ele>
        <time>2026-08-15T03:23:21.000Z</time>
      </trkpt>
      <trkpt lat="22.900316" lon="109.357686">
        <ele>66.487979</ele>
        <time>2026-08-15T03:23:22.000Z</time>
      </trkpt>
      <trkpt lat="22.900320" lon="109.357729">
        <ele>66.518019</ele>
        <time>2026-08-15T03:23:23.000Z</time>
      </trkpt>
      <trkpt lat="22.900324" lon="109.357772">
        <ele>66.548058</ele>
        <time>2026-08-15T03:23:24.000Z</time>
      </trkpt>
      <trkpt lat="22.900330" lon="109.357813">
        <ele>66.576913</ele>
        <time>2026-08-15T03:23:25.000Z</time>
      </trkpt>
      <trkpt lat="22.900336" lon="109.357856">
        <ele>66.607142</ele>
        <time>2026-08-15T03:23:26.000Z</time>
      </trkpt>
      <trkpt lat="22.900340" lon="109.357900">
        <ele>66.637873</ele>
        <time>2026-08-15T03:23:27.000Z</time>
      </trkpt>
      <trkpt lat="22.900341" lon="109.357942">
        <ele>66.667075</ele>
        <time>2026-08-15T03:23:28.000Z</time>
      </trkpt>
      <trkpt lat="22.900341" lon="109.357984">
        <ele>66.696268</ele>
        <time>2026-08-15T03:23:29.000Z</time>
      </trkpt>
      <trkpt lat="22.900344" lon="109.358025">
        <ele>66.724855</ele>
        <time>2026-08-15T03:23:30.000Z</time>
      </trkpt>
      <trkpt lat="22.900344" lon="109.358066">
        <ele>66.753352</ele>
        <time>2026-08-15T03:23:31.000Z</time>
      </trkpt>
      <trkpt lat="22.900344" lon="109.358108">
        <ele>66.782545</ele>
        <time>2026-08-15T03:23:32.000Z</time>
      </trkpt>
      <trkpt lat="22.900344" lon="109.358150">
        <ele>66.811737</ele>
        <time>2026-08-15T03:23:33.000Z</time>
      </trkpt>
      <trkpt lat="22.900346" lon="109.358191">
        <ele>66.840275</ele>
        <time>2026-08-15T03:23:34.000Z</time>
      </trkpt>
      <trkpt lat="22.900349" lon="109.358231">
        <ele>66.868169</ele>
        <time>2026-08-15T03:23:35.000Z</time>
      </trkpt>
      <trkpt lat="22.900352" lon="109.358269">
        <ele>66.894678</ele>
        <time>2026-08-15T03:23:36.000Z</time>
      </trkpt>
      <trkpt lat="22.900354" lon="109.358307">
        <ele>66.921133</ele>
        <time>2026-08-15T03:23:37.000Z</time>
      </trkpt>
      <trkpt lat="22.900357" lon="109.358343">
        <ele>66.937197</ele>
        <time>2026-08-15T03:23:38.000Z</time>
      </trkpt>
      <trkpt lat="22.900360" lon="109.358375">
        <ele>66.926823</ele>
        <time>2026-08-15T03:23:39.000Z</time>
      </trkpt>
      <trkpt lat="22.900364" lon="109.358406">
        <ele>66.916728</ele>
        <time>2026-08-15T03:23:40.000Z</time>
      </trkpt>
      <trkpt lat="22.900367" lon="109.358436">
        <ele>66.906996</ele>
        <time>2026-08-15T03:23:41.000Z</time>
      </trkpt>
      <trkpt lat="22.900371" lon="109.358464">
        <ele>66.897857</ele>
        <time>2026-08-15T03:23:42.000Z</time>
      </trkpt>
      <trkpt lat="22.900375" lon="109.358494">
        <ele>66.888081</ele>
        <time>2026-08-15T03:23:43.000Z</time>
      </trkpt>
      <trkpt lat="22.900376" lon="109.358527">
        <ele>66.877433</ele>
        <time>2026-08-15T03:23:44.000Z</time>
      </trkpt>
      <trkpt lat="22.900378" lon="109.358557">
        <ele>66.867732</ele>
        <time>2026-08-15T03:23:45.000Z</time>
      </trkpt>
      <trkpt lat="22.900382" lon="109.358585">
        <ele>66.858594</ele>
        <time>2026-08-15T03:23:46.000Z</time>
      </trkpt>
      <trkpt lat="22.900386" lon="109.358614">
        <ele>66.849137</ele>
        <time>2026-08-15T03:23:47.000Z</time>
      </trkpt>
      <trkpt lat="22.900390" lon="109.358644">
        <ele>66.839360</ele>
        <time>2026-08-15T03:23:48.000Z</time>
      </trkpt>
      <trkpt lat="22.900394" lon="109.358673">
        <ele>66.829903</ele>
        <time>2026-08-15T03:23:49.000Z</time>
      </trkpt>
      <trkpt lat="22.900398" lon="109.358705">
        <ele>66.819488</ele>
        <time>2026-08-15T03:23:50.000Z</time>
      </trkpt>
      <trkpt lat="22.900403" lon="109.358738">
        <ele>66.808702</ele>
        <time>2026-08-15T03:23:51.000Z</time>
      </trkpt>
      <trkpt lat="22.900407" lon="109.358767">
        <ele>66.799245</ele>
        <time>2026-08-15T03:23:52.000Z</time>
      </trkpt>
      <trkpt lat="22.900409" lon="109.358798">
        <ele>66.789223</ele>
        <time>2026-08-15T03:23:53.000Z</time>
      </trkpt>
      <trkpt lat="22.900409" lon="109.358832">
        <ele>66.778257</ele>
        <time>2026-08-15T03:23:54.000Z</time>
      </trkpt>
      <trkpt lat="22.900413" lon="109.358860">
        <ele>66.769119</ele>
        <time>2026-08-15T03:23:55.000Z</time>
      </trkpt>
      <trkpt lat="22.900416" lon="109.358888">
        <ele>66.760028</ele>
        <time>2026-08-15T03:23:56.000Z</time>
      </trkpt>
      <trkpt lat="22.900420" lon="109.358914">
        <ele>66.751527</ele>
        <time>2026-08-15T03:23:57.000Z</time>
      </trkpt>
      <trkpt lat="22.900422" lon="109.358946">
        <ele>66.741182</ele>
        <time>2026-08-15T03:23:58.000Z</time>
      </trkpt>
      <trkpt lat="22.900424" lon="109.358974">
        <ele>66.732125</ele>
        <time>2026-08-15T03:23:59.000Z</time>
      </trkpt>
      <trkpt lat="22.900425" lon="109.359002">
        <ele>66.723088</ele>
        <time>2026-08-15T03:24:00.000Z</time>
      </trkpt>
      <trkpt lat="22.900429" lon="109.359035">
        <ele>66.712353</ele>
        <time>2026-08-15T03:24:01.000Z</time>
      </trkpt>
      <trkpt lat="22.900434" lon="109.359066">
        <ele>66.702203</ele>
        <time>2026-08-15T03:24:02.000Z</time>
      </trkpt>
      <trkpt lat="22.900439" lon="109.359096">
        <ele>66.692371</ele>
        <time>2026-08-15T03:24:03.000Z</time>
      </trkpt>
      <trkpt lat="22.900447" lon="109.359124">
        <ele>66.682916</ele>
        <time>2026-08-15T03:24:04.000Z</time>
      </trkpt>
      <trkpt lat="22.900448" lon="109.359152">
        <ele>66.673879</ele>
        <time>2026-08-15T03:24:05.000Z</time>
      </trkpt>
      <trkpt lat="22.900449" lon="109.359182">
        <ele>66.664197</ele>
        <time>2026-08-15T03:24:06.000Z</time>
      </trkpt>
      <trkpt lat="22.900453" lon="109.359214">
        <ele>66.653782</ele>
        <time>2026-08-15T03:24:07.000Z</time>
      </trkpt>
      <trkpt lat="22.900459" lon="109.359248">
        <ele>66.642618</ele>
        <time>2026-08-15T03:24:08.000Z</time>
      </trkpt>
      <trkpt lat="22.900469" lon="109.359283">
        <ele>66.630799</ele>
        <time>2026-08-15T03:24:09.000Z</time>
      </trkpt>
      <trkpt lat="22.900477" lon="109.359320">
        <ele>66.618542</ele>
        <time>2026-08-15T03:24:10.000Z</time>
      </trkpt>
      <trkpt lat="22.900486" lon="109.359358">
        <ele>66.605888</ele>
        <time>2026-08-15T03:24:11.000Z</time>
      </trkpt>
      <trkpt lat="22.900499" lon="109.359396">
        <ele>66.592815</ele>
        <time>2026-08-15T03:24:12.000Z</time>
      </trkpt>
      <trkpt lat="22.900509" lon="109.359440">
        <ele>66.578199</ele>
        <time>2026-08-15T03:24:13.000Z</time>
      </trkpt>
      <trkpt lat="22.900521" lon="109.359484">
        <ele>66.563399</ele>
        <time>2026-08-15T03:24:14.000Z</time>
      </trkpt>
      <trkpt lat="22.900539" lon="109.359531">
        <ele>66.546983</ele>
        <time>2026-08-15T03:24:15.000Z</time>
      </trkpt>
      <trkpt lat="22.900558" lon="109.359578">
        <ele>66.530430</ele>
        <time>2026-08-15T03:24:16.000Z</time>
      </trkpt>
      <trkpt lat="22.900576" lon="109.359629">
        <ele>66.512816</ele>
        <time>2026-08-15T03:24:17.000Z</time>
      </trkpt>
      <trkpt lat="22.900595" lon="109.359682">
        <ele>66.494474</ele>
        <time>2026-08-15T03:24:18.000Z</time>
      </trkpt>
      <trkpt lat="22.900612" lon="109.359735">
        <ele>66.476374</ele>
        <time>2026-08-15T03:24:19.000Z</time>
      </trkpt>
      <trkpt lat="22.900630" lon="109.359785">
        <ele>66.459061</ele>
        <time>2026-08-15T03:24:20.000Z</time>
      </trkpt>
      <trkpt lat="22.900652" lon="109.359836">
        <ele>66.440899</ele>
        <time>2026-08-15T03:24:21.000Z</time>
      </trkpt>
      <trkpt lat="22.900673" lon="109.359890">
        <ele>66.421995</ele>
        <time>2026-08-15T03:24:22.000Z</time>
      </trkpt>
      <trkpt lat="22.900688" lon="109.359942">
        <ele>66.404421</ele>
        <time>2026-08-15T03:24:23.000Z</time>
      </trkpt>
      <trkpt lat="22.900703" lon="109.359993">
        <ele>66.387155</ele>
        <time>2026-08-15T03:24:24.000Z</time>
      </trkpt>
      <trkpt lat="22.900719" lon="109.360043">
        <ele>66.370084</ele>
        <time>2026-08-15T03:24:25.000Z</time>
      </trkpt>
      <trkpt lat="22.900733" lon="109.360095">
        <ele>66.352612</ele>
        <time>2026-08-15T03:24:26.000Z</time>
      </trkpt>
      <trkpt lat="22.900749" lon="109.360147">
        <ele>66.334931</ele>
        <time>2026-08-15T03:24:27.000Z</time>
      </trkpt>
      <trkpt lat="22.900767" lon="109.360201">
        <ele>66.316410</ele>
        <time>2026-08-15T03:24:28.000Z</time>
      </trkpt>
      <trkpt lat="22.900781" lon="109.360254">
        <ele>66.291453</ele>
        <time>2026-08-15T03:24:29.000Z</time>
      </trkpt>
      <trkpt lat="22.900797" lon="109.360306">
        <ele>66.262951</ele>
        <time>2026-08-15T03:24:30.000Z</time>
      </trkpt>
      <trkpt lat="22.900812" lon="109.360356">
        <ele>66.235613</ele>
        <time>2026-08-15T03:24:31.000Z</time>
      </trkpt>
      <trkpt lat="22.900828" lon="109.360409">
        <ele>66.206617</ele>
        <time>2026-08-15T03:24:32.000Z</time>
      </trkpt>
      <trkpt lat="22.900844" lon="109.360463">
        <ele>66.177126</ele>
        <time>2026-08-15T03:24:33.000Z</time>
      </trkpt>
      <trkpt lat="22.900862" lon="109.360514">
        <ele>66.148733</ele>
        <time>2026-08-15T03:24:34.000Z</time>
      </trkpt>
      <trkpt lat="22.900880" lon="109.360567">
        <ele>66.119366</ele>
        <time>2026-08-15T03:24:35.000Z</time>
      </trkpt>
      <trkpt lat="22.900898" lon="109.360619">
        <ele>66.090486</ele>
        <time>2026-08-15T03:24:36.000Z</time>
      </trkpt>
      <trkpt lat="22.900916" lon="109.360672">
        <ele>66.061119</ele>
        <time>2026-08-15T03:24:37.000Z</time>
      </trkpt>
      <trkpt lat="22.900930" lon="109.360726">
        <ele>66.031954</ele>
        <time>2026-08-15T03:24:38.000Z</time>
      </trkpt>
      <trkpt lat="22.900946" lon="109.360780">
        <ele>66.002464</ele>
        <time>2026-08-15T03:24:39.000Z</time>
      </trkpt>
      <trkpt lat="22.900965" lon="109.360833">
        <ele>65.972897</ele>
        <time>2026-08-15T03:24:40.000Z</time>
      </trkpt>
      <trkpt lat="22.900982" lon="109.360885">
        <ele>65.944211</ele>
        <time>2026-08-15T03:24:41.000Z</time>
      </trkpt>
      <trkpt lat="22.900998" lon="109.360938">
        <ele>65.915215</ele>
        <time>2026-08-15T03:24:42.000Z</time>
      </trkpt>
      <trkpt lat="22.901013" lon="109.360989">
        <ele>65.887382</ele>
        <time>2026-08-15T03:24:43.000Z</time>
      </trkpt>
      <trkpt lat="22.901030" lon="109.361040">
        <ele>65.859185</ele>
        <time>2026-08-15T03:24:44.000Z</time>
      </trkpt>
      <trkpt lat="22.901045" lon="109.361092">
        <ele>65.830857</ele>
        <time>2026-08-15T03:24:45.000Z</time>
      </trkpt>
      <trkpt lat="22.901061" lon="109.361144">
        <ele>65.802354</ele>
        <time>2026-08-15T03:24:46.000Z</time>
      </trkpt>
      <trkpt lat="22.901076" lon="109.361195">
        <ele>65.774522</ele>
        <time>2026-08-15T03:24:47.000Z</time>
      </trkpt>
      <trkpt lat="22.901092" lon="109.361246">
        <ele>65.746512</ele>
        <time>2026-08-15T03:24:48.000Z</time>
      </trkpt>
      <trkpt lat="22.901107" lon="109.361297">
        <ele>65.718679</ele>
        <time>2026-08-15T03:24:49.000Z</time>
      </trkpt>
      <trkpt lat="22.901122" lon="109.361348">
        <ele>65.690846</ele>
        <time>2026-08-15T03:24:50.000Z</time>
      </trkpt>
      <trkpt lat="22.901140" lon="109.361398">
        <ele>65.662937</ele>
        <time>2026-08-15T03:24:51.000Z</time>
      </trkpt>
      <trkpt lat="22.901157" lon="109.361447">
        <ele>65.635716</ele>
        <time>2026-08-15T03:24:52.000Z</time>
      </trkpt>
      <trkpt lat="22.901174" lon="109.361496">
        <ele>65.608495</ele>
        <time>2026-08-15T03:24:53.000Z</time>
      </trkpt>
      <trkpt lat="22.901191" lon="109.361545">
        <ele>65.581274</ele>
        <time>2026-08-15T03:24:54.000Z</time>
      </trkpt>
      <trkpt lat="22.901205" lon="109.361595">
        <ele>65.554105</ele>
        <time>2026-08-15T03:24:55.000Z</time>
      </trkpt>
      <trkpt lat="22.901221" lon="109.361643">
        <ele>65.527567</ele>
        <time>2026-08-15T03:24:56.000Z</time>
      </trkpt>
      <trkpt lat="22.901238" lon="109.361691">
        <ele>65.500832</ele>
        <time>2026-08-15T03:24:57.000Z</time>
      </trkpt>
      <trkpt lat="22.901255" lon="109.361739">
        <ele>65.474097</ele>
        <time>2026-08-15T03:24:58.000Z</time>
      </trkpt>
      <trkpt lat="22.901271" lon="109.361787">
        <ele>65.447559</ele>
        <time>2026-08-15T03:24:59.000Z</time>
      </trkpt>
      <trkpt lat="22.901288" lon="109.361836">
        <ele>65.420337</ele>
        <time>2026-08-15T03:25:00.000Z</time>
      </trkpt>
      <trkpt lat="22.901304" lon="109.361884">
        <ele>65.393799</ele>
        <time>2026-08-15T03:25:01.000Z</time>
      </trkpt>
      <trkpt lat="22.901320" lon="109.361933">
        <ele>65.366772</ele>
        <time>2026-08-15T03:25:02.000Z</time>
      </trkpt>
      <trkpt lat="22.901336" lon="109.361981">
        <ele>65.340234</ele>
        <time>2026-08-15T03:25:03.000Z</time>
      </trkpt>
      <trkpt lat="22.901351" lon="109.362027">
        <ele>65.314865</ele>
        <time>2026-08-15T03:25:04.000Z</time>
      </trkpt>
      <trkpt lat="22.901365" lon="109.362070">
        <ele>65.295940</ele>
        <time>2026-08-15T03:25:05.000Z</time>
      </trkpt>
      <trkpt lat="22.901383" lon="109.362113">
        <ele>65.300076</ele>
        <time>2026-08-15T03:25:06.000Z</time>
      </trkpt>
      <trkpt lat="22.901398" lon="109.362155">
        <ele>65.304019</ele>
        <time>2026-08-15T03:25:07.000Z</time>
      </trkpt>
      <trkpt lat="22.901414" lon="109.362196">
        <ele>65.307918</ele>
        <time>2026-08-15T03:25:08.000Z</time>
      </trkpt>
      <trkpt lat="22.901431" lon="109.362239">
        <ele>65.312014</ele>
        <time>2026-08-15T03:25:09.000Z</time>
      </trkpt>
      <trkpt lat="22.901450" lon="109.362281">
        <ele>65.316111</ele>
        <time>2026-08-15T03:25:10.000Z</time>
      </trkpt>
      <trkpt lat="22.901465" lon="109.362322">
        <ele>65.319973</ele>
        <time>2026-08-15T03:25:11.000Z</time>
      </trkpt>
      <trkpt lat="22.901481" lon="109.362362">
        <ele>65.323791</ele>
        <time>2026-08-15T03:25:12.000Z</time>
      </trkpt>
      <trkpt lat="22.901499" lon="109.362401">
        <ele>65.327610</ele>
        <time>2026-08-15T03:25:13.000Z</time>
      </trkpt>
      <trkpt lat="22.901517" lon="109.362435">
        <ele>65.331043</ele>
        <time>2026-08-15T03:25:14.000Z</time>
      </trkpt>
      <trkpt lat="22.901528" lon="109.362470">
        <ele>65.334281</ele>
        <time>2026-08-15T03:25:15.000Z</time>
      </trkpt>
      <trkpt lat="22.901531" lon="109.362504">
        <ele>65.337271</ele>
        <time>2026-08-15T03:25:16.000Z</time>
      </trkpt>
      <trkpt lat="22.901541" lon="109.362538">
        <ele>65.340396</ele>
        <time>2026-08-15T03:25:17.000Z</time>
      </trkpt>
      <trkpt lat="22.901551" lon="109.362574">
        <ele>65.343688</ele>
        <time>2026-08-15T03:25:18.000Z</time>
      </trkpt>
      <trkpt lat="22.901564" lon="109.362614">
        <ele>65.347401</ele>
        <time>2026-08-15T03:25:19.000Z</time>
      </trkpt>
      <trkpt lat="22.901577" lon="109.362658">
        <ele>65.351447</ele>
        <time>2026-08-15T03:25:20.000Z</time>
      </trkpt>
      <trkpt lat="22.901591" lon="109.362703">
        <ele>65.355605</ele>
        <time>2026-08-15T03:25:21.000Z</time>
      </trkpt>
      <trkpt lat="22.901605" lon="109.362749">
        <ele>65.359846</ele>
        <time>2026-08-15T03:25:22.000Z</time>
      </trkpt>
      <trkpt lat="22.901618" lon="109.362795">
        <ele>65.364059</ele>
        <time>2026-08-15T03:25:23.000Z</time>
      </trkpt>
      <trkpt lat="22.901631" lon="109.362841">
        <ele>65.368271</ele>
        <time>2026-08-15T03:25:24.000Z</time>
      </trkpt>
      <trkpt lat="22.901642" lon="109.362887">
        <ele>65.372432</ele>
        <time>2026-08-15T03:25:25.000Z</time>
      </trkpt>
      <trkpt lat="22.901653" lon="109.362931">
        <ele>65.376423</ele>
        <time>2026-08-15T03:25:26.000Z</time>
      </trkpt>
      <trkpt lat="22.901665" lon="109.362978">
        <ele>65.380693</ele>
        <time>2026-08-15T03:25:27.000Z</time>
      </trkpt>
      <trkpt lat="22.901677" lon="109.363025">
        <ele>65.384963</ele>
        <time>2026-08-15T03:25:28.000Z</time>
      </trkpt>
      <trkpt lat="22.901689" lon="109.363071">
        <ele>65.389149</ele>
        <time>2026-08-15T03:25:29.000Z</time>
      </trkpt>
      <trkpt lat="22.901702" lon="109.363118">
        <ele>65.393445</ele>
        <time>2026-08-15T03:25:30.000Z</time>
      </trkpt>
      <trkpt lat="22.901718" lon="109.363161">
        <ele>65.397505</ele>
        <time>2026-08-15T03:25:31.000Z</time>
      </trkpt>
      <trkpt lat="22.901737" lon="109.363199">
        <ele>65.401291</ele>
        <time>2026-08-15T03:25:32.000Z</time>
      </trkpt>
      <trkpt lat="22.901750" lon="109.363234">
        <ele>65.404595</ele>
        <time>2026-08-15T03:25:33.000Z</time>
      </trkpt>
      <trkpt lat="22.901756" lon="109.363268">
        <ele>65.407625</ele>
        <time>2026-08-15T03:25:34.000Z</time>
      </trkpt>
      <trkpt lat="22.901764" lon="109.363307">
        <ele>65.411123</ele>
        <time>2026-08-15T03:25:35.000Z</time>
      </trkpt>
      <trkpt lat="22.901777" lon="109.363348">
        <ele>65.414920</ele>
        <time>2026-08-15T03:25:36.000Z</time>
      </trkpt>
      <trkpt lat="22.901791" lon="109.363391">
        <ele>65.418912</ele>
        <time>2026-08-15T03:25:37.000Z</time>
      </trkpt>
      <trkpt lat="22.901803" lon="109.363436">
        <ele>65.423014</ele>
        <time>2026-08-15T03:25:38.000Z</time>
      </trkpt>
      <trkpt lat="22.901814" lon="109.363482">
        <ele>65.427175</ele>
        <time>2026-08-15T03:25:39.000Z</time>
      </trkpt>
      <trkpt lat="22.901824" lon="109.363529">
        <ele>65.431398</ele>
        <time>2026-08-15T03:25:40.000Z</time>
      </trkpt>
      <trkpt lat="22.901835" lon="109.363576">
        <ele>65.435643</ele>
        <time>2026-08-15T03:25:41.000Z</time>
      </trkpt>
      <trkpt lat="22.901848" lon="109.363622">
        <ele>65.439856</ele>
        <time>2026-08-15T03:25:42.000Z</time>
      </trkpt>
      <trkpt lat="22.901862" lon="109.363667">
        <ele>65.444014</ele>
        <time>2026-08-15T03:25:43.000Z</time>
      </trkpt>
      <trkpt lat="22.901876" lon="109.363710">
        <ele>65.448007</ele>
        <time>2026-08-15T03:25:44.000Z</time>
      </trkpt>
      <trkpt lat="22.901891" lon="109.363754">
        <ele>65.452114</ele>
        <time>2026-08-15T03:25:45.000Z</time>
      </trkpt>
      <trkpt lat="22.901910" lon="109.363797">
        <ele>65.456290</ele>
        <time>2026-08-15T03:25:46.000Z</time>
      </trkpt>
      <trkpt lat="22.901928" lon="109.363841">
        <ele>65.460504</ele>
        <time>2026-08-15T03:25:47.000Z</time>
      </trkpt>
      <trkpt lat="22.901944" lon="109.363887">
        <ele>65.464809</ele>
        <time>2026-08-15T03:25:48.000Z</time>
      </trkpt>
      <trkpt lat="22.901959" lon="109.363935">
        <ele>65.472074</ele>
        <time>2026-08-15T03:25:49.000Z</time>
      </trkpt>
      <trkpt lat="22.901974" lon="109.363984">
        <ele>65.480782</ele>
        <time>2026-08-15T03:25:50.000Z</time>
      </trkpt>
      <trkpt lat="22.901990" lon="109.364033">
        <ele>65.489550</ele>
        <time>2026-08-15T03:25:51.000Z</time>
      </trkpt>
      <trkpt lat="22.902002" lon="109.364084">
        <ele>65.498427</ele>
        <time>2026-08-15T03:25:52.000Z</time>
      </trkpt>
      <trkpt lat="22.902008" lon="109.364135">
        <ele>65.507097</ele>
        <time>2026-08-15T03:25:53.000Z</time>
      </trkpt>
      <trkpt lat="22.902013" lon="109.364187">
        <ele>65.515915</ele>
        <time>2026-08-15T03:25:54.000Z</time>
      </trkpt>
      <trkpt lat="22.902016" lon="109.364241">
        <ele>65.525038</ele>
        <time>2026-08-15T03:25:55.000Z</time>
      </trkpt>
      <trkpt lat="22.902019" lon="109.364295">
        <ele>65.534161</ele>
        <time>2026-08-15T03:25:56.000Z</time>
      </trkpt>
      <trkpt lat="22.902024" lon="109.364348">
        <ele>65.543146</ele>
        <time>2026-08-15T03:25:57.000Z</time>
      </trkpt>
      <trkpt lat="22.902030" lon="109.364401">
        <ele>65.552152</ele>
        <time>2026-08-15T03:25:58.000Z</time>
      </trkpt>
      <trkpt lat="22.902035" lon="109.364455">
        <ele>65.561304</ele>
        <time>2026-08-15T03:25:59.000Z</time>
      </trkpt>
      <trkpt lat="22.902038" lon="109.364508">
        <ele>65.570260</ele>
        <time>2026-08-15T03:26:00.000Z</time>
      </trkpt>
      <trkpt lat="22.902040" lon="109.364562">
        <ele>65.579374</ele>
        <time>2026-08-15T03:26:01.000Z</time>
      </trkpt>
      <trkpt lat="22.902040" lon="109.364614">
        <ele>65.588143</ele>
        <time>2026-08-15T03:26:02.000Z</time>
      </trkpt>
      <trkpt lat="22.902040" lon="109.364665">
        <ele>65.596744</ele>
        <time>2026-08-15T03:26:03.000Z</time>
      </trkpt>
      <trkpt lat="22.902043" lon="109.364717">
        <ele>65.605531</ele>
        <time>2026-08-15T03:26:04.000Z</time>
      </trkpt>
      <trkpt lat="22.902047" lon="109.364769">
        <ele>65.614331</ele>
        <time>2026-08-15T03:26:05.000Z</time>
      </trkpt>
      <trkpt lat="22.902048" lon="109.364821">
        <ele>65.623102</ele>
        <time>2026-08-15T03:26:06.000Z</time>
      </trkpt>
      <trkpt lat="22.902045" lon="109.364873">
        <ele>65.631889</ele>
        <time>2026-08-15T03:26:07.000Z</time>
      </trkpt>
      <trkpt lat="22.902043" lon="109.364923">
        <ele>65.640329</ele>
        <time>2026-08-15T03:26:08.000Z</time>
      </trkpt>
      <trkpt lat="22.902041" lon="109.364973">
        <ele>65.648770</ele>
        <time>2026-08-15T03:26:09.000Z</time>
      </trkpt>
      <trkpt lat="22.902042" lon="109.365024">
        <ele>65.657372</ele>
        <time>2026-08-15T03:26:10.000Z</time>
      </trkpt>
      <trkpt lat="22.902044" lon="109.365073">
        <ele>65.665644</ele>
        <time>2026-08-15T03:26:11.000Z</time>
      </trkpt>
      <trkpt lat="22.902045" lon="109.365123">
        <ele>65.674078</ele>
        <time>2026-08-15T03:26:12.000Z</time>
      </trkpt>
      <trkpt lat="22.902040" lon="109.365171">
        <ele>65.682225</ele>
        <time>2026-08-15T03:26:13.000Z</time>
      </trkpt>
      <trkpt lat="22.902032" lon="109.365219">
        <ele>65.690451</ele>
        <time>2026-08-15T03:26:14.000Z</time>
      </trkpt>
      <trkpt lat="22.902028" lon="109.365266">
        <ele>65.698411</ele>
        <time>2026-08-15T03:26:15.000Z</time>
      </trkpt>
      <trkpt lat="22.902022" lon="109.365313">
        <ele>65.706413</ele>
        <time>2026-08-15T03:26:16.000Z</time>
      </trkpt>
      <trkpt lat="22.902016" lon="109.365359">
        <ele>65.714249</ele>
        <time>2026-08-15T03:26:17.000Z</time>
      </trkpt>
      <trkpt lat="22.902013" lon="109.365403">
        <ele>65.721689</ele>
        <time>2026-08-15T03:26:18.000Z</time>
      </trkpt>
      <trkpt lat="22.902010" lon="109.365447">
        <ele>65.729130</ele>
        <time>2026-08-15T03:26:19.000Z</time>
      </trkpt>
      <trkpt lat="22.902009" lon="109.365493">
        <ele>65.736890</ele>
        <time>2026-08-15T03:26:20.000Z</time>
      </trkpt>
      <trkpt lat="22.902006" lon="109.365537">
        <ele>65.744330</ele>
        <time>2026-08-15T03:26:21.000Z</time>
      </trkpt>
      <trkpt lat="22.902001" lon="109.365581">
        <ele>65.751807</ele>
        <time>2026-08-15T03:26:22.000Z</time>
      </trkpt>
      <trkpt lat="22.901997" lon="109.365624">
        <ele>65.759096</ele>
        <time>2026-08-15T03:26:23.000Z</time>
      </trkpt>
      <trkpt lat="22.901991" lon="109.365667">
        <ele>65.766430</ele>
        <time>2026-08-15T03:26:24.000Z</time>
      </trkpt>
      <trkpt lat="22.901985" lon="109.365711">
        <ele>65.773931</ele>
        <time>2026-08-15T03:26:25.000Z</time>
      </trkpt>
      <trkpt lat="22.901977" lon="109.365755">
        <ele>65.781495</ele>
        <time>2026-08-15T03:26:26.000Z</time>
      </trkpt>
      <trkpt lat="22.901971" lon="109.365800">
        <ele>65.789163</ele>
        <time>2026-08-15T03:26:27.000Z</time>
      </trkpt>
      <trkpt lat="22.901967" lon="109.365843">
        <ele>65.795656</ele>
        <time>2026-08-15T03:26:28.000Z</time>
      </trkpt>
      <trkpt lat="22.901965" lon="109.365883">
        <ele>65.796853</ele>
        <time>2026-08-15T03:26:29.000Z</time>
      </trkpt>
      <trkpt lat="22.901961" lon="109.365920">
        <ele>65.797966</ele>
        <time>2026-08-15T03:26:30.000Z</time>
      </trkpt>
      <trkpt lat="22.901959" lon="109.365954">
        <ele>65.798984</ele>
        <time>2026-08-15T03:26:31.000Z</time>
      </trkpt>
      <trkpt lat="22.901959" lon="109.365986">
        <ele>65.799941</ele>
        <time>2026-08-15T03:26:32.000Z</time>
      </trkpt>
      <trkpt lat="22.901958" lon="109.366020">
        <ele>65.800957</ele>
        <time>2026-08-15T03:26:33.000Z</time>
      </trkpt>
      <trkpt lat="22.901954" lon="109.366052">
        <ele>65.801922</ele>
        <time>2026-08-15T03:26:34.000Z</time>
      </trkpt>
      <trkpt lat="22.901950" lon="109.366083">
        <ele>65.802858</ele>
        <time>2026-08-15T03:26:35.000Z</time>
      </trkpt>
      <trkpt lat="22.901946" lon="109.366114">
        <ele>65.803793</ele>
        <time>2026-08-15T03:26:36.000Z</time>
      </trkpt>
      <trkpt lat="22.901943" lon="109.366145">
        <ele>65.804725</ele>
        <time>2026-08-15T03:26:37.000Z</time>
      </trkpt>
      <trkpt lat="22.901942" lon="109.366177">
        <ele>65.805682</ele>
        <time>2026-08-15T03:26:38.000Z</time>
      </trkpt>
      <trkpt lat="22.901943" lon="109.366212">
        <ele>65.806728</ele>
        <time>2026-08-15T03:26:39.000Z</time>
      </trkpt>
      <trkpt lat="22.901944" lon="109.366249">
        <ele>65.807834</ele>
        <time>2026-08-15T03:26:40.000Z</time>
      </trkpt>
      <trkpt lat="22.901947" lon="109.366287">
        <ele>65.808974</ele>
        <time>2026-08-15T03:26:41.000Z</time>
      </trkpt>
      <trkpt lat="22.901943" lon="109.366324">
        <ele>65.810087</ele>
        <time>2026-08-15T03:26:42.000Z</time>
      </trkpt>
      <trkpt lat="22.901939" lon="109.366363">
        <ele>65.811260</ele>
        <time>2026-08-15T03:26:43.000Z</time>
      </trkpt>
      <trkpt lat="22.901933" lon="109.366403">
        <ele>65.812471</ele>
        <time>2026-08-15T03:26:44.000Z</time>
      </trkpt>
      <trkpt lat="22.901931" lon="109.366446">
        <ele>65.813758</ele>
        <time>2026-08-15T03:26:45.000Z</time>
      </trkpt>
      <trkpt lat="22.901929" lon="109.366489">
        <ele>65.815045</ele>
        <time>2026-08-15T03:26:46.000Z</time>
      </trkpt>
      <trkpt lat="22.901925" lon="109.366532">
        <ele>65.816336</ele>
        <time>2026-08-15T03:26:47.000Z</time>
      </trkpt>
      <trkpt lat="22.901919" lon="109.366575">
        <ele>65.817636</ele>
        <time>2026-08-15T03:26:48.000Z</time>
      </trkpt>
      <trkpt lat="22.901912" lon="109.366617">
        <ele>65.818912</ele>
        <time>2026-08-15T03:26:49.000Z</time>
      </trkpt>
      <trkpt lat="22.901905" lon="109.366660">
        <ele>65.820217</ele>
        <time>2026-08-15T03:26:50.000Z</time>
      </trkpt>
      <trkpt lat="22.901898" lon="109.366702">
        <ele>65.821492</ele>
        <time>2026-08-15T03:26:51.000Z</time>
      </trkpt>
      <trkpt lat="22.901895" lon="109.366744">
        <ele>65.822751</ele>
        <time>2026-08-15T03:26:52.000Z</time>
      </trkpt>
      <trkpt lat="22.901891" lon="109.366788">
        <ele>65.824072</ele>
        <time>2026-08-15T03:26:53.000Z</time>
      </trkpt>
      <trkpt lat="22.901886" lon="109.366832">
        <ele>65.825397</ele>
        <time>2026-08-15T03:26:54.000Z</time>
      </trkpt>
      <trkpt lat="22.901880" lon="109.366877">
        <ele>65.826756</ele>
        <time>2026-08-15T03:26:55.000Z</time>
      </trkpt>
      <trkpt lat="22.901874" lon="109.366919">
        <ele>65.828026</ele>
        <time>2026-08-15T03:26:56.000Z</time>
      </trkpt>
      <trkpt lat="22.901868" lon="109.366960">
        <ele>65.829267</ele>
        <time>2026-08-15T03:26:57.000Z</time>
      </trkpt>
      <trkpt lat="22.901864" lon="109.367001">
        <ele>65.830499</ele>
        <time>2026-08-15T03:26:58.000Z</time>
      </trkpt>
      <trkpt lat="22.901859" lon="109.367043">
        <ele>65.831765</ele>
        <time>2026-08-15T03:26:59.000Z</time>
      </trkpt>
      <trkpt lat="22.901854" lon="109.367084">
        <ele>65.833001</ele>
        <time>2026-08-15T03:27:00.000Z</time>
      </trkpt>
      <trkpt lat="22.901849" lon="109.367123">
        <ele>65.834177</ele>
        <time>2026-08-15T03:27:01.000Z</time>
      </trkpt>
      <trkpt lat="22.901844" lon="109.367161">
        <ele>65.835325</ele>
        <time>2026-08-15T03:27:02.000Z</time>
      </trkpt>
      <trkpt lat="22.901839" lon="109.367198">
        <ele>65.836442</ele>
        <time>2026-08-15T03:27:03.000Z</time>
      </trkpt>
      <trkpt lat="22.901837" lon="109.367236">
        <ele>65.837580</ele>
        <time>2026-08-15T03:27:04.000Z</time>
      </trkpt>
      <trkpt lat="22.901834" lon="109.367273">
        <ele>65.838690</ele>
        <time>2026-08-15T03:27:05.000Z</time>
      </trkpt>
      <trkpt lat="22.901829" lon="109.367310">
        <ele>65.839807</ele>
        <time>2026-08-15T03:27:06.000Z</time>
      </trkpt>
      <trkpt lat="22.901823" lon="109.367346">
        <ele>65.840901</ele>
        <time>2026-08-15T03:27:07.000Z</time>
      </trkpt>
      <trkpt lat="22.901816" lon="109.367383">
        <ele>65.842029</ele>
        <time>2026-08-15T03:27:08.000Z</time>
      </trkpt>
      <trkpt lat="22.901812" lon="109.367420">
        <ele>65.843143</ele>
        <time>2026-08-15T03:27:09.000Z</time>
      </trkpt>
      <trkpt lat="22.901809" lon="109.367456">
        <ele>65.844223</ele>
        <time>2026-08-15T03:27:10.000Z</time>
      </trkpt>
      <trkpt lat="22.901805" lon="109.367493">
        <ele>65.845336</ele>
        <time>2026-08-15T03:27:11.000Z</time>
      </trkpt>
      <trkpt lat="22.901801" lon="109.367532">
        <ele>65.846509</ele>
        <time>2026-08-15T03:27:12.000Z</time>
      </trkpt>
      <trkpt lat="22.901796" lon="109.367571">
        <ele>65.847686</ele>
        <time>2026-08-15T03:27:13.000Z</time>
      </trkpt>
      <trkpt lat="22.901792" lon="109.367609">
        <ele>65.848829</ele>
        <time>2026-08-15T03:27:14.000Z</time>
      </trkpt>
      <trkpt lat="22.901787" lon="109.367645">
        <ele>65.849917</ele>
        <time>2026-08-15T03:27:15.000Z</time>
      </trkpt>
      <trkpt lat="22.901787" lon="109.367683">
        <ele>65.851052</ele>
        <time>2026-08-15T03:27:16.000Z</time>
      </trkpt>
      <trkpt lat="22.901788" lon="109.367720">
        <ele>65.852159</ele>
        <time>2026-08-15T03:27:17.000Z</time>
      </trkpt>
      <trkpt lat="22.901790" lon="109.367758">
        <ele>65.853296</ele>
        <time>2026-08-15T03:27:18.000Z</time>
      </trkpt>
      <trkpt lat="22.901793" lon="109.367799">
        <ele>65.839196</ele>
        <time>2026-08-15T03:27:19.000Z</time>
      </trkpt>
      <trkpt lat="22.901792" lon="109.367839">
        <ele>65.813783</ele>
        <time>2026-08-15T03:27:20.000Z</time>
      </trkpt>
      <trkpt lat="22.901787" lon="109.367879">
        <ele>65.788147</ele>
        <time>2026-08-15T03:27:21.000Z</time>
      </trkpt>
      <trkpt lat="22.901784" lon="109.367920">
        <ele>65.762026</ele>
        <time>2026-08-15T03:27:22.000Z</time>
      </trkpt>
      <trkpt lat="22.901781" lon="109.367962">
        <ele>65.735272</ele>
        <time>2026-08-15T03:27:23.000Z</time>
      </trkpt>
      <trkpt lat="22.901778" lon="109.368005">
        <ele>65.707885</ele>
        <time>2026-08-15T03:27:24.000Z</time>
      </trkpt>
      <trkpt lat="22.901772" lon="109.368049">
        <ele>65.679636</ele>
        <time>2026-08-15T03:27:25.000Z</time>
      </trkpt>
      <trkpt lat="22.901766" lon="109.368093">
        <ele>65.651387</ele>
        <time>2026-08-15T03:27:26.000Z</time>
      </trkpt>
      <trkpt lat="22.901760" lon="109.368137">
        <ele>65.623139</ele>
        <time>2026-08-15T03:27:27.000Z</time>
      </trkpt>
      <trkpt lat="22.901753" lon="109.368181">
        <ele>65.594781</ele>
        <time>2026-08-15T03:27:28.000Z</time>
      </trkpt>
      <trkpt lat="22.901745" lon="109.368226">
        <ele>65.565674</ele>
        <time>2026-08-15T03:27:29.000Z</time>
      </trkpt>
      <trkpt lat="22.901737" lon="109.368269">
        <ele>65.537814</ele>
        <time>2026-08-15T03:27:30.000Z</time>
      </trkpt>
      <trkpt lat="22.901730" lon="109.368314">
        <ele>65.508830</ele>
        <time>2026-08-15T03:27:31.000Z</time>
      </trkpt>
      <trkpt lat="22.901725" lon="109.368360">
        <ele>65.479413</ele>
        <time>2026-08-15T03:27:32.000Z</time>
      </trkpt>
      <trkpt lat="22.901719" lon="109.368406">
        <ele>65.449907</ele>
        <time>2026-08-15T03:27:33.000Z</time>
      </trkpt>
      <trkpt lat="22.901714" lon="109.368450">
        <ele>65.421751</ele>
        <time>2026-08-15T03:27:34.000Z</time>
      </trkpt>
      <trkpt lat="22.901711" lon="109.368494">
        <ele>65.393731</ele>
        <time>2026-08-15T03:27:35.000Z</time>
      </trkpt>
      <trkpt lat="22.901708" lon="109.368536">
        <ele>65.366977</ele>
        <time>2026-08-15T03:27:36.000Z</time>
      </trkpt>
      <trkpt lat="22.901706" lon="109.368576">
        <ele>65.341536</ele>
        <time>2026-08-15T03:27:37.000Z</time>
      </trkpt>
      <trkpt lat="22.901703" lon="109.368614">
        <ele>65.317314</ele>
        <time>2026-08-15T03:27:38.000Z</time>
      </trkpt>
      <trkpt lat="22.901700" lon="109.368654">
        <ele>65.291826</ele>
        <time>2026-08-15T03:27:39.000Z</time>
      </trkpt>
      <trkpt lat="22.901696" lon="109.368696">
        <ele>65.265010</ele>
        <time>2026-08-15T03:27:40.000Z</time>
      </trkpt>
      <trkpt lat="22.901692" lon="109.368739">
        <ele>65.237562</ele>
        <time>2026-08-15T03:27:41.000Z</time>
      </trkpt>
      <trkpt lat="22.901688" lon="109.368783">
        <ele>65.209482</ele>
        <time>2026-08-15T03:27:42.000Z</time>
      </trkpt>
      <trkpt lat="22.901684" lon="109.368826">
        <ele>65.182034</ele>
        <time>2026-08-15T03:27:43.000Z</time>
      </trkpt>
      <trkpt lat="22.901679" lon="109.368871">
        <ele>65.153248</ele>
        <time>2026-08-15T03:27:44.000Z</time>
      </trkpt>
      <trkpt lat="22.901672" lon="109.368915">
        <ele>65.124890</ele>
        <time>2026-08-15T03:27:45.000Z</time>
      </trkpt>
      <trkpt lat="22.901663" lon="109.368958">
        <ele>65.096885</ele>
        <time>2026-08-15T03:27:46.000Z</time>
      </trkpt>
      <trkpt lat="22.901656" lon="109.369000">
        <ele>65.069778</ele>
        <time>2026-08-15T03:27:47.000Z</time>
      </trkpt>
      <trkpt lat="22.901651" lon="109.369044">
        <ele>65.041622</ele>
        <time>2026-08-15T03:27:48.000Z</time>
      </trkpt>
      <trkpt lat="22.901647" lon="109.369089">
        <ele>65.012910</ele>
        <time>2026-08-15T03:27:49.000Z</time>
      </trkpt>
      <trkpt lat="22.901643" lon="109.369136">
        <ele>64.982933</ele>
        <time>2026-08-15T03:27:50.000Z</time>
      </trkpt>
      <trkpt lat="22.901638" lon="109.369186">
        <ele>64.950992</ele>
        <time>2026-08-15T03:27:51.000Z</time>
      </trkpt>
      <trkpt lat="22.901632" lon="109.369239">
        <ele>64.917079</ele>
        <time>2026-08-15T03:27:52.000Z</time>
      </trkpt>
      <trkpt lat="22.901627" lon="109.369294">
        <ele>64.881979</ele>
        <time>2026-08-15T03:27:53.000Z</time>
      </trkpt>
      <trkpt lat="22.901622" lon="109.369350">
        <ele>64.846247</ele>
        <time>2026-08-15T03:27:54.000Z</time>
      </trkpt>
      <trkpt lat="22.901617" lon="109.369405">
        <ele>64.811147</ele>
        <time>2026-08-15T03:27:55.000Z</time>
      </trkpt>
      <trkpt lat="22.901611" lon="109.369460">
        <ele>64.775973</ele>
        <time>2026-08-15T03:27:56.000Z</time>
      </trkpt>
      <trkpt lat="22.901604" lon="109.369516">
        <ele>64.740082</ele>
        <time>2026-08-15T03:27:57.000Z</time>
      </trkpt>
      <trkpt lat="22.901599" lon="109.369571">
        <ele>64.704982</ele>
        <time>2026-08-15T03:27:58.000Z</time>
      </trkpt>
      <trkpt lat="22.901593" lon="109.369626">
        <ele>64.669808</ele>
        <time>2026-08-15T03:27:59.000Z</time>
      </trkpt>
      <trkpt lat="22.901586" lon="109.369680">
        <ele>64.635175</ele>
        <time>2026-08-15T03:28:00.000Z</time>
      </trkpt>
      <trkpt lat="22.901581" lon="109.369734">
        <ele>64.609139</ele>
        <time>2026-08-15T03:28:01.000Z</time>
      </trkpt>
      <trkpt lat="22.901575" lon="109.369788">
        <ele>64.596876</ele>
        <time>2026-08-15T03:28:02.000Z</time>
      </trkpt>
      <trkpt lat="22.901569" lon="109.369842">
        <ele>64.584612</ele>
        <time>2026-08-15T03:28:03.000Z</time>
      </trkpt>
      <trkpt lat="22.901565" lon="109.369895">
        <ele>64.572622</ele>
        <time>2026-08-15T03:28:04.000Z</time>
      </trkpt>
      <trkpt lat="22.901560" lon="109.369947">
        <ele>64.560835</ele>
        <time>2026-08-15T03:28:05.000Z</time>
      </trkpt>
      <trkpt lat="22.901554" lon="109.370000">
        <ele>64.548795</ele>
        <time>2026-08-15T03:28:06.000Z</time>
      </trkpt>
      <trkpt lat="22.901547" lon="109.370052">
        <ele>64.536946</ele>
        <time>2026-08-15T03:28:07.000Z</time>
      </trkpt>
      <trkpt lat="22.901542" lon="109.370105">
        <ele>64.524934</ele>
        <time>2026-08-15T03:28:08.000Z</time>
      </trkpt>
      <trkpt lat="22.901536" lon="109.370157">
        <ele>64.513118</ele>
        <time>2026-08-15T03:28:09.000Z</time>
      </trkpt>
      <trkpt lat="22.901529" lon="109.370210">
        <ele>64.501046</ele>
        <time>2026-08-15T03:28:10.000Z</time>
      </trkpt>
      <trkpt lat="22.901524" lon="109.370262">
        <ele>64.489258</ele>
        <time>2026-08-15T03:28:11.000Z</time>
      </trkpt>
      <trkpt lat="22.901520" lon="109.370313">
        <ele>64.477718</ele>
        <time>2026-08-15T03:28:12.000Z</time>
      </trkpt>
      <trkpt lat="22.901516" lon="109.370363">
        <ele>64.466402</ele>
        <time>2026-08-15T03:28:13.000Z</time>
      </trkpt>
      <trkpt lat="22.901513" lon="109.370411">
        <ele>64.455555</ele>
        <time>2026-08-15T03:28:14.000Z</time>
      </trkpt>
      <trkpt lat="22.901509" lon="109.370458">
        <ele>64.444912</ele>
        <time>2026-08-15T03:28:15.000Z</time>
      </trkpt>
      <trkpt lat="22.901504" lon="109.370503">
        <ele>64.434693</ele>
        <time>2026-08-15T03:28:16.000Z</time>
      </trkpt>
      <trkpt lat="22.901499" lon="109.370547">
        <ele>64.424697</ele>
        <time>2026-08-15T03:28:17.000Z</time>
      </trkpt>
      <trkpt lat="22.901495" lon="109.370588">
        <ele>64.415401</ele>
        <time>2026-08-15T03:28:18.000Z</time>
      </trkpt>
      <trkpt lat="22.901487" lon="109.370628">
        <ele>64.406172</ele>
        <time>2026-08-15T03:28:19.000Z</time>
      </trkpt>
      <trkpt lat="22.901478" lon="109.370669">
        <ele>64.396669</ele>
        <time>2026-08-15T03:28:20.000Z</time>
      </trkpt>
      <trkpt lat="22.901470" lon="109.370713">
        <ele>64.386558</ele>
        <time>2026-08-15T03:28:21.000Z</time>
      </trkpt>
      <trkpt lat="22.901465" lon="109.370757">
        <ele>64.376562</ele>
        <time>2026-08-15T03:28:22.000Z</time>
      </trkpt>
      <trkpt lat="22.901460" lon="109.370803">
        <ele>64.366118</ele>
        <time>2026-08-15T03:28:23.000Z</time>
      </trkpt>
      <trkpt lat="22.901456" lon="109.370847">
        <ele>64.356150</ele>
        <time>2026-08-15T03:28:24.000Z</time>
      </trkpt>
      <trkpt lat="22.901454" lon="109.370892">
        <ele>64.345992</ele>
        <time>2026-08-15T03:28:25.000Z</time>
      </trkpt>
      <trkpt lat="22.901450" lon="109.370936">
        <ele>64.336023</ele>
        <time>2026-08-15T03:28:26.000Z</time>
      </trkpt>
      <trkpt lat="22.901447" lon="109.370980">
        <ele>64.326075</ele>
        <time>2026-08-15T03:28:27.000Z</time>
      </trkpt>
      <trkpt lat="22.901445" lon="109.371025">
        <ele>64.315918</ele>
        <time>2026-08-15T03:28:28.000Z</time>
      </trkpt>
      <trkpt lat="22.901443" lon="109.371070">
        <ele>64.305760</ele>
        <time>2026-08-15T03:28:29.000Z</time>
      </trkpt>
      <trkpt lat="22.901441" lon="109.371117">
        <ele>64.295151</ele>
        <time>2026-08-15T03:28:30.000Z</time>
      </trkpt>
      <trkpt lat="22.901440" lon="109.371165">
        <ele>64.284326</ele>
        <time>2026-08-15T03:28:31.000Z</time>
      </trkpt>
      <trkpt lat="22.901438" lon="109.371213">
        <ele>64.273493</ele>
        <time>2026-08-15T03:28:32.000Z</time>
      </trkpt>
      <trkpt lat="22.901436" lon="109.371263">
        <ele>64.262209</ele>
        <time>2026-08-15T03:28:33.000Z</time>
      </trkpt>
      <trkpt lat="22.901432" lon="109.371312">
        <ele>64.251118</ele>
        <time>2026-08-15T03:28:34.000Z</time>
      </trkpt>
      <trkpt lat="22.901427" lon="109.371361">
        <ele>64.240002</ele>
        <time>2026-08-15T03:28:35.000Z</time>
      </trkpt>
      <trkpt lat="22.901420" lon="109.371410">
        <ele>64.228822</ele>
        <time>2026-08-15T03:28:36.000Z</time>
      </trkpt>
      <trkpt lat="22.901407" lon="109.371456">
        <ele>64.217974</ele>
        <time>2026-08-15T03:28:37.000Z</time>
      </trkpt>
      <trkpt lat="22.901400" lon="109.371499">
        <ele>64.208128</ele>
        <time>2026-08-15T03:28:38.000Z</time>
      </trkpt>
      <trkpt lat="22.901395" lon="109.371540">
        <ele>64.198804</ele>
        <time>2026-08-15T03:28:39.000Z</time>
      </trkpt>
      <trkpt lat="22.901389" lon="109.371583">
        <ele>64.188998</ele>
        <time>2026-08-15T03:28:40.000Z</time>
      </trkpt>
      <trkpt lat="22.901383" lon="109.371628">
        <ele>64.178746</ele>
        <time>2026-08-15T03:28:41.000Z</time>
      </trkpt>
      <trkpt lat="22.901380" lon="109.371673">
        <ele>64.168060</ele>
        <time>2026-08-15T03:28:42.000Z</time>
      </trkpt>
      <trkpt lat="22.901376" lon="109.371718">
        <ele>64.156814</ele>
        <time>2026-08-15T03:28:43.000Z</time>
      </trkpt>
      <trkpt lat="22.901371" lon="109.371765">
        <ele>64.145044</ele>
        <time>2026-08-15T03:28:44.000Z</time>
      </trkpt>
      <trkpt lat="22.901366" lon="109.371812">
        <ele>64.133275</ele>
        <time>2026-08-15T03:28:45.000Z</time>
      </trkpt>
      <trkpt lat="22.901361" lon="109.371860">
        <ele>64.121258</ele>
        <time>2026-08-15T03:28:46.000Z</time>
      </trkpt>
      <trkpt lat="22.901360" lon="109.371911">
        <ele>64.108568</ele>
        <time>2026-08-15T03:28:47.000Z</time>
      </trkpt>
      <trkpt lat="22.901358" lon="109.371961">
        <ele>64.096118</ele>
        <time>2026-08-15T03:28:48.000Z</time>
      </trkpt>
      <trkpt lat="22.901355" lon="109.372014">
        <ele>64.082909</ele>
        <time>2026-08-15T03:28:49.000Z</time>
      </trkpt>
      <trkpt lat="22.901352" lon="109.372067">
        <ele>64.069700</ele>
        <time>2026-08-15T03:28:50.000Z</time>
      </trkpt>
      <trkpt lat="22.901348" lon="109.372121">
        <ele>64.056223</ele>
        <time>2026-08-15T03:28:51.000Z</time>
      </trkpt>
      <trkpt lat="22.901344" lon="109.372176">
        <ele>64.042498</ele>
        <time>2026-08-15T03:28:52.000Z</time>
      </trkpt>
      <trkpt lat="22.901341" lon="109.372231">
        <ele>64.028793</ele>
        <time>2026-08-15T03:28:53.000Z</time>
      </trkpt>
      <trkpt lat="22.901338" lon="109.372286">
        <ele>64.015087</ele>
        <time>2026-08-15T03:28:54.000Z</time>
      </trkpt>
      <trkpt lat="22.901338" lon="109.372341">
        <ele>64.001405</ele>
        <time>2026-08-15T03:28:55.000Z</time>
      </trkpt>
      <trkpt lat="22.901341" lon="109.372396">
        <ele>63.987699</ele>
        <time>2026-08-15T03:28:56.000Z</time>
      </trkpt>
      <trkpt lat="22.901341" lon="109.372453">
        <ele>63.973519</ele>
        <time>2026-08-15T03:28:57.000Z</time>
      </trkpt>
      <trkpt lat="22.901334" lon="109.372510">
        <ele>63.959214</ele>
        <time>2026-08-15T03:28:58.000Z</time>
      </trkpt>
      <trkpt lat="22.901318" lon="109.372563">
        <ele>63.945340</ele>
        <time>2026-08-15T03:28:59.000Z</time>
      </trkpt>
      <trkpt lat="22.901302" lon="109.372617">
        <ele>63.931229</ele>
        <time>2026-08-15T03:29:00.000Z</time>
      </trkpt>
      <trkpt lat="22.901291" lon="109.372670">
        <ele>63.917714</ele>
        <time>2026-08-15T03:29:01.000Z</time>
      </trkpt>
      <trkpt lat="22.901284" lon="109.372724">
        <ele>63.904148</ele>
        <time>2026-08-15T03:29:02.000Z</time>
      </trkpt>
      <trkpt lat="22.901276" lon="109.372778">
        <ele>63.890543</ele>
        <time>2026-08-15T03:29:03.000Z</time>
      </trkpt>
      <trkpt lat="22.901268" lon="109.372832">
        <ele>63.876937</ele>
        <time>2026-08-15T03:29:04.000Z</time>
      </trkpt>
      <trkpt lat="22.901264" lon="109.372885">
        <ele>63.863708</ele>
        <time>2026-08-15T03:29:05.000Z</time>
      </trkpt>
      <trkpt lat="22.901263" lon="109.372940">
        <ele>63.850024</ele>
        <time>2026-08-15T03:29:06.000Z</time>
      </trkpt>
      <trkpt lat="22.901258" lon="109.372996">
        <ele>63.836028</ele>
        <time>2026-08-15T03:29:07.000Z</time>
      </trkpt>
      <trkpt lat="22.901252" lon="109.373052">
        <ele>63.822003</ele>
        <time>2026-08-15T03:29:08.000Z</time>
      </trkpt>
      <trkpt lat="22.901247" lon="109.373109">
        <ele>63.807759</ele>
        <time>2026-08-15T03:29:09.000Z</time>
      </trkpt>
      <trkpt lat="22.901242" lon="109.373166">
        <ele>63.793516</ele>
        <time>2026-08-15T03:29:10.000Z</time>
      </trkpt>
      <trkpt lat="22.901233" lon="109.373223">
        <ele>63.779129</ele>
        <time>2026-08-15T03:29:11.000Z</time>
      </trkpt>
      <trkpt lat="22.901226" lon="109.373281">
        <ele>63.764578</ele>
        <time>2026-08-15T03:29:12.000Z</time>
      </trkpt>
      <trkpt lat="22.901219" lon="109.373338">
        <ele>63.750273</ele>
        <time>2026-08-15T03:29:13.000Z</time>
      </trkpt>
      <trkpt lat="22.901212" lon="109.373396">
        <ele>63.735721</ele>
        <time>2026-08-15T03:29:14.000Z</time>
      </trkpt>
      <trkpt lat="22.901203" lon="109.373452">
        <ele>63.721580</ele>
        <time>2026-08-15T03:29:15.000Z</time>
      </trkpt>
      <trkpt lat="22.901197" lon="109.373507">
        <ele>63.707803</ele>
        <time>2026-08-15T03:29:16.000Z</time>
      </trkpt>
      <trkpt lat="22.901195" lon="109.373561">
        <ele>63.694359</ele>
        <time>2026-08-15T03:29:17.000Z</time>
      </trkpt>
      <trkpt lat="22.901193" lon="109.373617">
        <ele>63.691966</ele>
        <time>2026-08-15T03:29:18.000Z</time>
      </trkpt>
      <trkpt lat="22.901188" lon="109.373671">
        <ele>63.699521</ele>
        <time>2026-08-15T03:29:19.000Z</time>
      </trkpt>
      <trkpt lat="22.901181" lon="109.373726">
        <ele>63.707250</ele>
        <time>2026-08-15T03:29:20.000Z</time>
      </trkpt>
      <trkpt lat="22.901174" lon="109.373781">
        <ele>63.714978</ele>
        <time>2026-08-15T03:29:21.000Z</time>
      </trkpt>
      <trkpt lat="22.901169" lon="109.373837">
        <ele>63.722810</ele>
        <time>2026-08-15T03:29:22.000Z</time>
      </trkpt>
      <trkpt lat="22.901164" lon="109.373893">
        <ele>63.730642</ele>
        <time>2026-08-15T03:29:23.000Z</time>
      </trkpt>
      <trkpt lat="22.901157" lon="109.373945">
        <ele>63.737957</ele>
        <time>2026-08-15T03:29:24.000Z</time>
      </trkpt>
      <trkpt lat="22.901151" lon="109.373996">
        <ele>63.745114</ele>
        <time>2026-08-15T03:29:25.000Z</time>
      </trkpt>
      <trkpt lat="22.901146" lon="109.374045">
        <ele>63.751976</ele>
        <time>2026-08-15T03:29:26.000Z</time>
      </trkpt>
      <trkpt lat="22.901145" lon="109.374094">
        <ele>63.758799</ele>
        <time>2026-08-15T03:29:27.000Z</time>
      </trkpt>
      <trkpt lat="22.901143" lon="109.374143">
        <ele>63.765626</ele>
        <time>2026-08-15T03:29:28.000Z</time>
      </trkpt>
      <trkpt lat="22.901137" lon="109.374191">
        <ele>63.772369</ele>
        <time>2026-08-15T03:29:29.000Z</time>
      </trkpt>
      <trkpt lat="22.901134" lon="109.374235">
        <ele>63.778511</ele>
        <time>2026-08-15T03:29:30.000Z</time>
      </trkpt>
      <trkpt lat="22.901132" lon="109.374276">
        <ele>63.784226</ele>
        <time>2026-08-15T03:29:31.000Z</time>
      </trkpt>
      <trkpt lat="22.901131" lon="109.374319">
        <ele>63.790213</ele>
        <time>2026-08-15T03:29:32.000Z</time>
      </trkpt>
      <trkpt lat="22.901130" lon="109.374365">
        <ele>63.796618</ele>
        <time>2026-08-15T03:29:33.000Z</time>
      </trkpt>
      <trkpt lat="22.901130" lon="109.374411">
        <ele>63.803022</ele>
        <time>2026-08-15T03:29:34.000Z</time>
      </trkpt>
      <trkpt lat="22.901130" lon="109.374457">
        <ele>63.809425</ele>
        <time>2026-08-15T03:29:35.000Z</time>
      </trkpt>
      <trkpt lat="22.901130" lon="109.374501">
        <ele>63.815550</ele>
        <time>2026-08-15T03:29:36.000Z</time>
      </trkpt>
      <trkpt lat="22.901129" lon="109.374546">
        <ele>63.821815</ele>
        <time>2026-08-15T03:29:37.000Z</time>
      </trkpt>
      <trkpt lat="22.901129" lon="109.374592">
        <ele>63.828219</ele>
        <time>2026-08-15T03:29:38.000Z</time>
      </trkpt>
      <trkpt lat="22.901130" lon="109.374639">
        <ele>63.834763</ele>
        <time>2026-08-15T03:29:39.000Z</time>
      </trkpt>
      <trkpt lat="22.901130" lon="109.374685">
        <ele>63.841166</ele>
        <time>2026-08-15T03:29:40.000Z</time>
      </trkpt>
      <trkpt lat="22.901128" lon="109.374731">
        <ele>63.847576</ele>
        <time>2026-08-15T03:29:41.000Z</time>
      </trkpt>
      <trkpt lat="22.901123" lon="109.374779">
        <ele>63.854301</ele>
        <time>2026-08-15T03:29:42.000Z</time>
      </trkpt>
      <trkpt lat="22.901117" lon="109.374827">
        <ele>63.861043</ele>
        <time>2026-08-15T03:29:43.000Z</time>
      </trkpt>
      <trkpt lat="22.901107" lon="109.374874">
        <ele>63.867758</ele>
        <time>2026-08-15T03:29:44.000Z</time>
      </trkpt>
      <trkpt lat="22.901099" lon="109.374921">
        <ele>63.874411</ele>
        <time>2026-08-15T03:29:45.000Z</time>
      </trkpt>
      <trkpt lat="22.901098" lon="109.374969">
        <ele>63.881095</ele>
        <time>2026-08-15T03:29:46.000Z</time>
      </trkpt>
      <trkpt lat="22.901097" lon="109.375019">
        <ele>63.888056</ele>
        <time>2026-08-15T03:29:47.000Z</time>
      </trkpt>
      <trkpt lat="22.901095" lon="109.375069">
        <ele>63.895023</ele>
        <time>2026-08-15T03:29:48.000Z</time>
      </trkpt>
      <trkpt lat="22.901092" lon="109.375118">
        <ele>63.901859</ele>
        <time>2026-08-15T03:29:49.000Z</time>
      </trkpt>
      <trkpt lat="22.901090" lon="109.375167">
        <ele>63.908686</ele>
        <time>2026-08-15T03:29:50.000Z</time>
      </trkpt>
      <trkpt lat="22.901090" lon="109.375216">
        <ele>63.915507</ele>
        <time>2026-08-15T03:29:51.000Z</time>
      </trkpt>
      <trkpt lat="22.901088" lon="109.375263">
        <ele>63.922056</ele>
        <time>2026-08-15T03:29:52.000Z</time>
      </trkpt>
      <trkpt lat="22.901085" lon="109.375310">
        <ele>63.928614</ele>
        <time>2026-08-15T03:29:53.000Z</time>
      </trkpt>
      <trkpt lat="22.901083" lon="109.375357">
        <ele>63.935164</ele>
        <time>2026-08-15T03:29:54.000Z</time>
      </trkpt>
      <trkpt lat="22.901082" lon="109.375404">
        <ele>63.941708</ele>
        <time>2026-08-15T03:29:55.000Z</time>
      </trkpt>
      <trkpt lat="22.901083" lon="109.375450">
        <ele>63.948113</ele>
        <time>2026-08-15T03:29:56.000Z</time>
      </trkpt>
      <trkpt lat="22.901086" lon="109.375496">
        <ele>63.954532</ele>
        <time>2026-08-15T03:29:57.000Z</time>
      </trkpt>
      <trkpt lat="22.901090" lon="109.375542">
        <ele>63.963916</ele>
        <time>2026-08-15T03:29:58.000Z</time>
      </trkpt>
      <trkpt lat="22.901097" lon="109.375589">
        <ele>63.985076</ele>
        <time>2026-08-15T03:29:59.000Z</time>
      </trkpt>
      <trkpt lat="22.901105" lon="109.375635">
        <ele>64.005881</ele>
        <time>2026-08-15T03:30:00.000Z</time>
      </trkpt>
      <trkpt lat="22.901115" lon="109.375681">
        <ele>64.026886</ele>
        <time>2026-08-15T03:30:01.000Z</time>
      </trkpt>
      <trkpt lat="22.901122" lon="109.375729">
        <ele>64.048484</ele>
        <time>2026-08-15T03:30:02.000Z</time>
      </trkpt>
      <trkpt lat="22.901131" lon="109.375776">
        <ele>64.069818</ele>
        <time>2026-08-15T03:30:03.000Z</time>
      </trkpt>
      <trkpt lat="22.901141" lon="109.375824">
        <ele>64.091690</ele>
        <time>2026-08-15T03:30:04.000Z</time>
      </trkpt>
      <trkpt lat="22.901150" lon="109.375871">
        <ele>64.113024</ele>
        <time>2026-08-15T03:30:05.000Z</time>
      </trkpt>
      <trkpt lat="22.901156" lon="109.375920">
        <ele>64.134993</ele>
        <time>2026-08-15T03:30:06.000Z</time>
      </trkpt>
      <trkpt lat="22.901161" lon="109.375972">
        <ele>64.158228</ele>
        <time>2026-08-15T03:30:07.000Z</time>
      </trkpt>
      <trkpt lat="22.901166" lon="109.376024">
        <ele>64.181464</ele>
        <time>2026-08-15T03:30:08.000Z</time>
      </trkpt>
      <trkpt lat="22.901173" lon="109.376077">
        <ele>64.205260</ele>
        <time>2026-08-15T03:30:09.000Z</time>
      </trkpt>
      <trkpt lat="22.901180" lon="109.376128">
        <ele>64.228176</ele>
        <time>2026-08-15T03:30:10.000Z</time>
      </trkpt>
      <trkpt lat="22.901188" lon="109.376180">
        <ele>64.251606</ele>
        <time>2026-08-15T03:30:11.000Z</time>
      </trkpt>
      <trkpt lat="22.901200" lon="109.376230">
        <ele>64.274569</ele>
        <time>2026-08-15T03:30:12.000Z</time>
      </trkpt>
      <trkpt lat="22.901213" lon="109.376279">
        <ele>64.297231</ele>
        <time>2026-08-15T03:30:13.000Z</time>
      </trkpt>
      <trkpt lat="22.901225" lon="109.376326">
        <ele>64.318907</ele>
        <time>2026-08-15T03:30:14.000Z</time>
      </trkpt>
      <trkpt lat="22.901234" lon="109.376371">
        <ele>64.339372</ele>
        <time>2026-08-15T03:30:15.000Z</time>
      </trkpt>
      <trkpt lat="22.901240" lon="109.376415">
        <ele>64.359140</ele>
        <time>2026-08-15T03:30:16.000Z</time>
      </trkpt>
      <trkpt lat="22.901249" lon="109.376460">
        <ele>64.379605</ele>
        <time>2026-08-15T03:30:17.000Z</time>
      </trkpt>
      <trkpt lat="22.901256" lon="109.376501">
        <ele>64.398136</ele>
        <time>2026-08-15T03:30:18.000Z</time>
      </trkpt>
      <trkpt lat="22.901266" lon="109.376544">
        <ele>64.417846</ele>
        <time>2026-08-15T03:30:19.000Z</time>
      </trkpt>
      <trkpt lat="22.901272" lon="109.376589">
        <ele>64.438054</ele>
        <time>2026-08-15T03:30:20.000Z</time>
      </trkpt>
      <trkpt lat="22.901278" lon="109.376634">
        <ele>64.458262</ele>
        <time>2026-08-15T03:30:21.000Z</time>
      </trkpt>
      <trkpt lat="22.901286" lon="109.376679">
        <ele>64.478630</ele>
        <time>2026-08-15T03:30:22.000Z</time>
      </trkpt>
      <trkpt lat="22.901298" lon="109.376724">
        <ele>64.499450</ele>
        <time>2026-08-15T03:30:23.000Z</time>
      </trkpt>
      <trkpt lat="22.901310" lon="109.376770">
        <ele>64.520698</ele>
        <time>2026-08-15T03:30:24.000Z</time>
      </trkpt>
      <trkpt lat="22.901322" lon="109.376818">
        <ele>64.542802</ele>
        <time>2026-08-15T03:30:25.000Z</time>
      </trkpt>
      <trkpt lat="22.901333" lon="109.376866">
        <ele>64.564784</ele>
        <time>2026-08-15T03:30:26.000Z</time>
      </trkpt>
      <trkpt lat="22.901346" lon="109.376914">
        <ele>64.587020</ele>
        <time>2026-08-15T03:30:27.000Z</time>
      </trkpt>
      <trkpt lat="22.901358" lon="109.376963">
        <ele>64.609553</ele>
        <time>2026-08-15T03:30:28.000Z</time>
      </trkpt>
      <trkpt lat="22.901371" lon="109.377013">
        <ele>64.632642</ele>
        <time>2026-08-15T03:30:29.000Z</time>
      </trkpt>
      <trkpt lat="22.901380" lon="109.377061">
        <ele>64.654412</ele>
        <time>2026-08-15T03:30:30.000Z</time>
      </trkpt>
      <trkpt lat="22.901392" lon="109.377112">
        <ele>64.677806</ele>
        <time>2026-08-15T03:30:31.000Z</time>
      </trkpt>
      <trkpt lat="22.901402" lon="109.377162">
        <ele>64.700545</ele>
        <time>2026-08-15T03:30:32.000Z</time>
      </trkpt>
      <trkpt lat="22.901410" lon="109.377211">
        <ele>64.722661</ele>
        <time>2026-08-15T03:30:33.000Z</time>
      </trkpt>
      <trkpt lat="22.901419" lon="109.377261">
        <ele>64.745303</ele>
        <time>2026-08-15T03:30:34.000Z</time>
      </trkpt>
      <trkpt lat="22.901428" lon="109.377312">
        <ele>64.768380</ele>
        <time>2026-08-15T03:30:35.000Z</time>
      </trkpt>
      <trkpt lat="22.901432" lon="109.377362">
        <ele>64.790685</ele>
        <time>2026-08-15T03:30:36.000Z</time>
      </trkpt>
      <trkpt lat="22.901440" lon="109.377411">
        <ele>64.812802</ele>
        <time>2026-08-15T03:30:37.000Z</time>
      </trkpt>
      <trkpt lat="22.901454" lon="109.377458">
        <ele>64.821742</ele>
        <time>2026-08-15T03:30:38.000Z</time>
      </trkpt>
      <trkpt lat="22.901466" lon="109.377507">
        <ele>64.804506</ele>
        <time>2026-08-15T03:30:39.000Z</time>
      </trkpt>
      <trkpt lat="22.901480" lon="109.377556">
        <ele>64.787067</ele>
        <time>2026-08-15T03:30:40.000Z</time>
      </trkpt>
      <trkpt lat="22.901492" lon="109.377606">
        <ele>64.769503</ele>
        <time>2026-08-15T03:30:41.000Z</time>
      </trkpt>
      <trkpt lat="22.901504" lon="109.377656">
        <ele>64.751939</ele>
        <time>2026-08-15T03:30:42.000Z</time>
      </trkpt>
      <trkpt lat="22.901517" lon="109.377706">
        <ele>64.734279</ele>
        <time>2026-08-15T03:30:43.000Z</time>
      </trkpt>
      <trkpt lat="22.901528" lon="109.377754">
        <ele>64.717465</ele>
        <time>2026-08-15T03:30:44.000Z</time>
      </trkpt>
      <trkpt lat="22.901541" lon="109.377804">
        <ele>64.699804</ele>
        <time>2026-08-15T03:30:45.000Z</time>
      </trkpt>
      <trkpt lat="22.901554" lon="109.377853">
        <ele>64.682471</ele>
        <time>2026-08-15T03:30:46.000Z</time>
      </trkpt>
      <trkpt lat="22.901566" lon="109.377903">
        <ele>64.664907</ele>
        <time>2026-08-15T03:30:47.000Z</time>
      </trkpt>
      <trkpt lat="22.901580" lon="109.377953">
        <ele>64.647142</ele>
        <time>2026-08-15T03:30:48.000Z</time>
      </trkpt>
      <trkpt lat="22.901592" lon="109.378000">
        <ele>64.630563</ele>
        <time>2026-08-15T03:30:49.000Z</time>
      </trkpt>
      <trkpt lat="22.901602" lon="109.378049">
        <ele>64.613503</ele>
        <time>2026-08-15T03:30:50.000Z</time>
      </trkpt>
      <trkpt lat="22.901612" lon="109.378101">
        <ele>64.595446</ele>
        <time>2026-08-15T03:30:51.000Z</time>
      </trkpt>
      <trkpt lat="22.901624" lon="109.378151">
        <ele>64.577882</ele>
        <time>2026-08-15T03:30:52.000Z</time>
      </trkpt>
      <trkpt lat="22.901633" lon="109.378202">
        <ele>64.560230</ele>
        <time>2026-08-15T03:30:53.000Z</time>
      </trkpt>
      <trkpt lat="22.901640" lon="109.378253">
        <ele>64.542702</ele>
        <time>2026-08-15T03:30:54.000Z</time>
      </trkpt>
      <trkpt lat="22.901645" lon="109.378303">
        <ele>64.525606</ele>
        <time>2026-08-15T03:30:55.000Z</time>
      </trkpt>
      <trkpt lat="22.901656" lon="109.378355">
        <ele>64.507469</ele>
        <time>2026-08-15T03:30:56.000Z</time>
      </trkpt>
      <trkpt lat="22.901669" lon="109.378407">
        <ele>64.489154</ele>
        <time>2026-08-15T03:30:57.000Z</time>
      </trkpt>
      <trkpt lat="22.901680" lon="109.378461">
        <ele>64.470354</ele>
        <time>2026-08-15T03:30:58.000Z</time>
      </trkpt>
      <trkpt lat="22.901693" lon="109.378513">
        <ele>64.452038</ele>
        <time>2026-08-15T03:30:59.000Z</time>
      </trkpt>
      <trkpt lat="22.901708" lon="109.378566">
        <ele>64.433191</ele>
        <time>2026-08-15T03:31:00.000Z</time>
      </trkpt>
      <trkpt lat="22.901719" lon="109.378622">
        <ele>64.413727</ele>
        <time>2026-08-15T03:31:01.000Z</time>
      </trkpt>
      <trkpt lat="22.901728" lon="109.378678">
        <ele>64.394403</ele>
        <time>2026-08-15T03:31:02.000Z</time>
      </trkpt>
      <trkpt lat="22.901742" lon="109.378733">
        <ele>64.375006</ele>
        <time>2026-08-15T03:31:03.000Z</time>
      </trkpt>
      <trkpt lat="22.901760" lon="109.378788">
        <ele>64.355165</ele>
        <time>2026-08-15T03:31:04.000Z</time>
      </trkpt>
      <trkpt lat="22.901774" lon="109.378842">
        <ele>64.336096</ele>
        <time>2026-08-15T03:31:05.000Z</time>
      </trkpt>
      <trkpt lat="22.901789" lon="109.378895">
        <ele>64.317249</ele>
        <time>2026-08-15T03:31:06.000Z</time>
      </trkpt>
      <trkpt lat="22.901802" lon="109.378952">
        <ele>64.297288</ele>
        <time>2026-08-15T03:31:07.000Z</time>
      </trkpt>
      <trkpt lat="22.901817" lon="109.379006">
        <ele>64.278115</ele>
        <time>2026-08-15T03:31:08.000Z</time>
      </trkpt>
      <trkpt lat="22.901833" lon="109.379060">
        <ele>64.258833</ele>
        <time>2026-08-15T03:31:09.000Z</time>
      </trkpt>
      <trkpt lat="22.901845" lon="109.379113">
        <ele>64.240280</ele>
        <time>2026-08-15T03:31:10.000Z</time>
      </trkpt>
      <trkpt lat="22.901860" lon="109.379167">
        <ele>64.221108</ele>
        <time>2026-08-15T03:31:11.000Z</time>
      </trkpt>
      <trkpt lat="22.901877" lon="109.379221">
        <ele>64.201709</ele>
        <time>2026-08-15T03:31:12.000Z</time>
      </trkpt>
      <trkpt lat="22.901897" lon="109.379276">
        <ele>64.181609</ele>
        <time>2026-08-15T03:31:13.000Z</time>
      </trkpt>
      <trkpt lat="22.901922" lon="109.379331">
        <ele>64.162474</ele>
        <time>2026-08-15T03:31:14.000Z</time>
      </trkpt>
      <trkpt lat="22.901945" lon="109.379386">
        <ele>64.154117</ele>
        <time>2026-08-15T03:31:15.000Z</time>
      </trkpt>
      <trkpt lat="22.901966" lon="109.379440">
        <ele>64.146007</ele>
        <time>2026-08-15T03:31:16.000Z</time>
      </trkpt>
      <trkpt lat="22.901987" lon="109.379494">
        <ele>64.137897</ele>
        <time>2026-08-15T03:31:17.000Z</time>
      </trkpt>
      <trkpt lat="22.902005" lon="109.379551">
        <ele>64.129560</ele>
        <time>2026-08-15T03:31:18.000Z</time>
      </trkpt>
      <trkpt lat="22.902021" lon="109.379606">
        <ele>64.121580</ele>
        <time>2026-08-15T03:31:19.000Z</time>
      </trkpt>
      <trkpt lat="22.902041" lon="109.379655">
        <ele>64.114164</ele>
        <time>2026-08-15T03:31:20.000Z</time>
      </trkpt>
      <trkpt lat="22.902060" lon="109.379705">
        <ele>64.106681</ele>
        <time>2026-08-15T03:31:21.000Z</time>
      </trkpt>
      <trkpt lat="22.902078" lon="109.379756">
        <ele>64.099124</ele>
        <time>2026-08-15T03:31:22.000Z</time>
      </trkpt>
      <trkpt lat="22.902099" lon="109.379806">
        <ele>64.091521</ele>
        <time>2026-08-15T03:31:23.000Z</time>
      </trkpt>
      <trkpt lat="22.902122" lon="109.379854">
        <ele>64.084035</ele>
        <time>2026-08-15T03:31:24.000Z</time>
      </trkpt>
      <trkpt lat="22.902146" lon="109.379902">
        <ele>64.076479</ele>
        <time>2026-08-15T03:31:25.000Z</time>
      </trkpt>
      <trkpt lat="22.902167" lon="109.379952">
        <ele>64.068876</ele>
        <time>2026-08-15T03:31:26.000Z</time>
      </trkpt>
      <trkpt lat="22.902192" lon="109.380002">
        <ele>64.061004</ele>
        <time>2026-08-15T03:31:27.000Z</time>
      </trkpt>
      <trkpt lat="22.902212" lon="109.380052">
        <ele>64.053462</ele>
        <time>2026-08-15T03:31:28.000Z</time>
      </trkpt>
      <trkpt lat="22.902229" lon="109.380099">
        <ele>64.046476</ele>
        <time>2026-08-15T03:31:29.000Z</time>
      </trkpt>
      <trkpt lat="22.902250" lon="109.380147">
        <ele>64.039124</ele>
        <time>2026-08-15T03:31:30.000Z</time>
      </trkpt>
      <trkpt lat="22.902271" lon="109.380192">
        <ele>64.032144</ele>
        <time>2026-08-15T03:31:31.000Z</time>
      </trkpt>
      <trkpt lat="22.902290" lon="109.380240">
        <ele>64.024916</ele>
        <time>2026-08-15T03:31:32.000Z</time>
      </trkpt>
      <trkpt lat="22.902306" lon="109.380287">
        <ele>64.017983</ele>
        <time>2026-08-15T03:31:33.000Z</time>
      </trkpt>
      <trkpt lat="22.902326" lon="109.380333">
        <ele>64.010945</ele>
        <time>2026-08-15T03:31:34.000Z</time>
      </trkpt>
      <trkpt lat="22.902340" lon="109.380381">
        <ele>64.003979</ele>
        <time>2026-08-15T03:31:35.000Z</time>
      </trkpt>
      <trkpt lat="22.902352" lon="109.380430">
        <ele>63.996964</ele>
        <time>2026-08-15T03:31:36.000Z</time>
      </trkpt>
      <trkpt lat="22.902373" lon="109.380476">
        <ele>63.989861</ele>
        <time>2026-08-15T03:31:37.000Z</time>
      </trkpt>
      <trkpt lat="22.902392" lon="109.380524">
        <ele>63.982632</ele>
        <time>2026-08-15T03:31:38.000Z</time>
      </trkpt>
      <trkpt lat="22.902408" lon="109.380574">
        <ele>63.975309</ele>
        <time>2026-08-15T03:31:39.000Z</time>
      </trkpt>
      <trkpt lat="22.902423" lon="109.380620">
        <ele>63.968557</ele>
        <time>2026-08-15T03:31:40.000Z</time>
      </trkpt>
      <trkpt lat="22.902443" lon="109.380665">
        <ele>63.961644</ele>
        <time>2026-08-15T03:31:41.000Z</time>
      </trkpt>
      <trkpt lat="22.902458" lon="109.380713">
        <ele>63.954631</ele>
        <time>2026-08-15T03:31:42.000Z</time>
      </trkpt>
      <trkpt lat="22.902473" lon="109.380758">
        <ele>63.948010</ele>
        <time>2026-08-15T03:31:43.000Z</time>
      </trkpt>
      <trkpt lat="22.902488" lon="109.380801">
        <ele>63.941648</ele>
        <time>2026-08-15T03:31:44.000Z</time>
      </trkpt>
      <trkpt lat="22.902502" lon="109.380842">
        <ele>63.935599</ele>
        <time>2026-08-15T03:31:45.000Z</time>
      </trkpt>
      <trkpt lat="22.902513" lon="109.380885">
        <ele>63.929424</ele>
        <time>2026-08-15T03:31:46.000Z</time>
      </trkpt>
      <trkpt lat="22.902527" lon="109.380927">
        <ele>63.923244</ele>
        <time>2026-08-15T03:31:47.000Z</time>
      </trkpt>
      <trkpt lat="22.902541" lon="109.380968">
        <ele>63.917194</ele>
        <time>2026-08-15T03:31:48.000Z</time>
      </trkpt>
      <trkpt lat="22.902553" lon="109.381011">
        <ele>63.910978</ele>
        <time>2026-08-15T03:31:49.000Z</time>
      </trkpt>
      <trkpt lat="22.902567" lon="109.381056">
        <ele>63.904406</ele>
        <time>2026-08-15T03:31:50.000Z</time>
      </trkpt>
      <trkpt lat="22.902582" lon="109.381105">
        <ele>63.897262</ele>
        <time>2026-08-15T03:31:51.000Z</time>
      </trkpt>
      <trkpt lat="22.902596" lon="109.381151">
        <ele>63.905352</ele>
        <time>2026-08-15T03:31:52.000Z</time>
      </trkpt>
      <trkpt lat="22.902620" lon="109.381195">
        <ele>63.933925</ele>
        <time>2026-08-15T03:31:53.000Z</time>
      </trkpt>
      <trkpt lat="22.902636" lon="109.381239">
        <ele>63.960358</ele>
        <time>2026-08-15T03:31:54.000Z</time>
      </trkpt>
      <trkpt lat="22.902647" lon="109.381297">
        <ele>63.993448</ele>
        <time>2026-08-15T03:31:55.000Z</time>
      </trkpt>
      <trkpt lat="22.902665" lon="109.381354">
        <ele>64.027118</ele>
        <time>2026-08-15T03:31:56.000Z</time>
      </trkpt>
      <trkpt lat="22.902687" lon="109.381408">
        <ele>64.060112</ele>
        <time>2026-08-15T03:31:57.000Z</time>
      </trkpt>
      <trkpt lat="22.902703" lon="109.381460">
        <ele>64.090748</ele>
        <time>2026-08-15T03:31:58.000Z</time>
      </trkpt>
      <trkpt lat="22.902717" lon="109.381509">
        <ele>64.119415</ele>
        <time>2026-08-15T03:31:59.000Z</time>
      </trkpt>
      <trkpt lat="22.902729" lon="109.381560">
        <ele>64.148828</ele>
        <time>2026-08-15T03:32:00.000Z</time>
      </trkpt>
      <trkpt lat="22.902744" lon="109.381609">
        <ele>64.177681</ele>
        <time>2026-08-15T03:32:01.000Z</time>
      </trkpt>
      <trkpt lat="22.902757" lon="109.381654">
        <ele>64.204034</ele>
        <time>2026-08-15T03:32:02.000Z</time>
      </trkpt>
      <trkpt lat="22.902773" lon="109.381699">
        <ele>64.230988</ele>
        <time>2026-08-15T03:32:03.000Z</time>
      </trkpt>
      <trkpt lat="22.902804" lon="109.381738">
        <ele>64.259772</ele>
        <time>2026-08-15T03:32:04.000Z</time>
      </trkpt>
      <trkpt lat="22.902820" lon="109.381778">
        <ele>64.284140</ele>
        <time>2026-08-15T03:32:05.000Z</time>
      </trkpt>
      <trkpt lat="22.902837" lon="109.381820">
        <ele>64.309775</ele>
        <time>2026-08-15T03:32:06.000Z</time>
      </trkpt>
      <trkpt lat="22.902850" lon="109.381861">
        <ele>64.334004</ele>
        <time>2026-08-15T03:32:07.000Z</time>
      </trkpt>
      <trkpt lat="22.902866" lon="109.381901">
        <ele>64.358372</ele>
        <time>2026-08-15T03:32:08.000Z</time>
      </trkpt>
      <trkpt lat="22.902884" lon="109.381949">
        <ele>64.387331</ele>
        <time>2026-08-15T03:32:09.000Z</time>
      </trkpt>
      <trkpt lat="22.902908" lon="109.381991">
        <ele>64.414949</ele>
        <time>2026-08-15T03:32:10.000Z</time>
      </trkpt>
      <trkpt lat="22.902924" lon="109.382032">
        <ele>64.439831</ele>
        <time>2026-08-15T03:32:11.000Z</time>
      </trkpt>
      <trkpt lat="22.902938" lon="109.382074">
        <ele>64.464789</ele>
        <time>2026-08-15T03:32:12.000Z</time>
      </trkpt>
      <trkpt lat="22.902948" lon="109.382110">
        <ele>64.485800</ele>
        <time>2026-08-15T03:32:13.000Z</time>
      </trkpt>
      <trkpt lat="22.902960" lon="109.382144">
        <ele>64.506146</ele>
        <time>2026-08-15T03:32:14.000Z</time>
      </trkpt>
      <trkpt lat="22.902974" lon="109.382176">
        <ele>64.525941</ele>
        <time>2026-08-15T03:32:15.000Z</time>
      </trkpt>
      <trkpt lat="22.902994" lon="109.382213">
        <ele>64.549913</ele>
        <time>2026-08-15T03:32:16.000Z</time>
      </trkpt>
      <trkpt lat="22.903016" lon="109.382253">
        <ele>64.575945</ele>
        <time>2026-08-15T03:32:17.000Z</time>
      </trkpt>
      <trkpt lat="22.903039" lon="109.382293">
        <ele>64.602294</ele>
        <time>2026-08-15T03:32:18.000Z</time>
      </trkpt>
      <trkpt lat="22.903057" lon="109.382332">
        <ele>64.626669</ele>
        <time>2026-08-15T03:32:19.000Z</time>
      </trkpt>
      <trkpt lat="22.903074" lon="109.382371">
        <ele>64.650778</ele>
        <time>2026-08-15T03:32:20.000Z</time>
      </trkpt>
      <trkpt lat="22.903085" lon="109.382411">
        <ele>64.674105</ele>
        <time>2026-08-15T03:32:21.000Z</time>
      </trkpt>
      <trkpt lat="22.903090" lon="109.382440">
        <ele>64.690591</ele>
        <time>2026-08-15T03:32:22.000Z</time>
      </trkpt>
      <trkpt lat="22.903091" lon="109.382463">
        <ele>64.703457</ele>
        <time>2026-08-15T03:32:23.000Z</time>
      </trkpt>
      <trkpt lat="22.903103" lon="109.382492">
        <ele>64.721222</ele>
        <time>2026-08-15T03:32:24.000Z</time>
      </trkpt>
      <trkpt lat="22.903107" lon="109.382525">
        <ele>64.739821</ele>
        <time>2026-08-15T03:32:25.000Z</time>
      </trkpt>
      <trkpt lat="22.903115" lon="109.382563">
        <ele>64.761602</ele>
        <time>2026-08-15T03:32:26.000Z</time>
      </trkpt>
      <trkpt lat="22.903119" lon="109.382599">
        <ele>64.781864</ele>
        <time>2026-08-15T03:32:27.000Z</time>
      </trkpt>
      <trkpt lat="22.903128" lon="109.382638">
        <ele>64.804331</ele>
        <time>2026-08-15T03:32:28.000Z</time>
      </trkpt>
      <trkpt lat="22.903144" lon="109.382677">
        <ele>64.828187</ele>
        <time>2026-08-15T03:32:29.000Z</time>
      </trkpt>
      <trkpt lat="22.903172" lon="109.382717">
        <ele>64.856260</ele>
        <time>2026-08-15T03:32:30.000Z</time>
      </trkpt>
      <trkpt lat="22.903201" lon="109.382755">
        <ele>64.883834</ele>
        <time>2026-08-15T03:32:31.000Z</time>
      </trkpt>
      <trkpt lat="22.903221" lon="109.382793">
        <ele>64.908289</ele>
        <time>2026-08-15T03:32:32.000Z</time>
      </trkpt>
      <trkpt lat="22.903242" lon="109.382832">
        <ele>64.933532</ele>
        <time>2026-08-15T03:32:33.000Z</time>
      </trkpt>
      <trkpt lat="22.903262" lon="109.382868">
        <ele>64.957024</ele>
        <time>2026-08-15T03:32:34.000Z</time>
      </trkpt>
      <trkpt lat="22.903287" lon="109.382910">
        <ele>64.984630</ele>
        <time>2026-08-15T03:32:35.000Z</time>
      </trkpt>
      <trkpt lat="22.903311" lon="109.382946">
        <ele>64.988509</ele>
        <time>2026-08-15T03:32:36.000Z</time>
      </trkpt>
      <trkpt lat="22.903336" lon="109.382981">
        <ele>64.992375</ele>
        <time>2026-08-15T03:32:37.000Z</time>
      </trkpt>
      <trkpt lat="22.903367" lon="109.383015">
        <ele>64.996550</ele>
        <time>2026-08-15T03:32:38.000Z</time>
      </trkpt>
      <trkpt lat="22.903401" lon="109.383059">
        <ele>65.001563</ele>
        <time>2026-08-15T03:32:39.000Z</time>
      </trkpt>
      <trkpt lat="22.903435" lon="109.383108">
        <ele>65.006918</ele>
        <time>2026-08-15T03:32:40.000Z</time>
      </trkpt>
      <trkpt lat="22.903467" lon="109.383144">
        <ele>65.011284</ele>
        <time>2026-08-15T03:32:41.000Z</time>
      </trkpt>
      <trkpt lat="22.903498" lon="109.383185">
        <ele>65.015914</ele>
        <time>2026-08-15T03:32:42.000Z</time>
      </trkpt>
      <trkpt lat="22.903525" lon="109.383225">
        <ele>65.020243</ele>
        <time>2026-08-15T03:32:43.000Z</time>
      </trkpt>
      <trkpt lat="22.903562" lon="109.383267">
        <ele>65.025315</ele>
        <time>2026-08-15T03:32:44.000Z</time>
      </trkpt>
      <trkpt lat="22.903593" lon="109.383305">
        <ele>65.029746</ele>
        <time>2026-08-15T03:32:45.000Z</time>
      </trkpt>
      <trkpt lat="22.903625" lon="109.383341">
        <ele>65.034112</ele>
        <time>2026-08-15T03:32:46.000Z</time>
      </trkpt>
      <trkpt lat="22.903654" lon="109.383374">
        <ele>65.038093</ele>
        <time>2026-08-15T03:32:47.000Z</time>
      </trkpt>
      <trkpt lat="22.903677" lon="109.383408">
        <ele>65.041775</ele>
        <time>2026-08-15T03:32:48.000Z</time>
      </trkpt>
      <trkpt lat="22.903697" lon="109.383442">
        <ele>65.045296</ele>
        <time>2026-08-15T03:32:49.000Z</time>
      </trkpt>
      <trkpt lat="22.903722" lon="109.383481">
        <ele>65.049444</ele>
        <time>2026-08-15T03:32:50.000Z</time>
      </trkpt>
      <trkpt lat="22.903757" lon="109.383515">
        <ele>65.053894</ele>
        <time>2026-08-15T03:32:51.000Z</time>
      </trkpt>
      <trkpt lat="22.903796" lon="109.383544">
        <ele>65.058373</ele>
        <time>2026-08-15T03:32:52.000Z</time>
      </trkpt>
      <trkpt lat="22.903836" lon="109.383568">
        <ele>65.062704</ele>
        <time>2026-08-15T03:32:53.000Z</time>
      </trkpt>
      <trkpt lat="22.903878" lon="109.383591">
        <ele>65.067161</ele>
        <time>2026-08-15T03:32:54.000Z</time>
      </trkpt>
      <trkpt lat="22.903921" lon="109.383616">
        <ele>65.071783</ele>
        <time>2026-08-15T03:32:55.000Z</time>
      </trkpt>
      <trkpt lat="22.903965" lon="109.383639">
        <ele>65.076411</ele>
        <time>2026-08-15T03:32:56.000Z</time>
      </trkpt>
      <trkpt lat="22.904009" lon="109.383664">
        <ele>65.081116</ele>
        <time>2026-08-15T03:32:57.000Z</time>
      </trkpt>
      <trkpt lat="22.904053" lon="109.383686">
        <ele>65.085706</ele>
        <time>2026-08-15T03:32:58.000Z</time>
      </trkpt>
      <trkpt lat="22.904098" lon="109.383710">
        <ele>65.090457</ele>
        <time>2026-08-15T03:32:59.000Z</time>
      </trkpt>
      <trkpt lat="22.904145" lon="109.383734">
        <ele>65.095379</ele>
        <time>2026-08-15T03:33:00.000Z</time>
      </trkpt>
      <trkpt lat="22.904193" lon="109.383758">
        <ele>65.100386</ele>
        <time>2026-08-15T03:33:01.000Z</time>
      </trkpt>
      <trkpt lat="22.904239" lon="109.383781">
        <ele>65.105185</ele>
        <time>2026-08-15T03:33:02.000Z</time>
      </trkpt>
      <trkpt lat="22.904284" lon="109.383802">
        <ele>65.109826</ele>
        <time>2026-08-15T03:33:03.000Z</time>
      </trkpt>
      <trkpt lat="22.904332" lon="109.383821">
        <ele>65.114667</ele>
        <time>2026-08-15T03:33:04.000Z</time>
      </trkpt>
      <trkpt lat="22.904380" lon="109.383841">
        <ele>65.119539</ele>
        <time>2026-08-15T03:33:05.000Z</time>
      </trkpt>
      <trkpt lat="22.904430" lon="109.383865">
        <ele>65.124719</ele>
        <time>2026-08-15T03:33:06.000Z</time>
      </trkpt>
      <trkpt lat="22.904481" lon="109.383883">
        <ele>65.129801</ele>
        <time>2026-08-15T03:33:07.000Z</time>
      </trkpt>
      <trkpt lat="22.904534" lon="109.383901">
        <ele>65.135063</ele>
        <time>2026-08-15T03:33:08.000Z</time>
      </trkpt>
      <trkpt lat="22.904586" lon="109.383922">
        <ele>65.140320</ele>
        <time>2026-08-15T03:33:09.000Z</time>
      </trkpt>
      <trkpt lat="22.904638" lon="109.383939">
        <ele>65.145466</ele>
        <time>2026-08-15T03:33:10.000Z</time>
      </trkpt>
      <trkpt lat="22.904691" lon="109.383955">
        <ele>65.150678</ele>
        <time>2026-08-15T03:33:11.000Z</time>
      </trkpt>
      <trkpt lat="22.904743" lon="109.383973">
        <ele>65.151027</ele>
        <time>2026-08-15T03:33:12.000Z</time>
      </trkpt>
      <trkpt lat="22.904796" lon="109.383990">
        <ele>65.126615</ele>
        <time>2026-08-15T03:33:13.000Z</time>
      </trkpt>
      <trkpt lat="22.904850" lon="109.384007">
        <ele>65.101778</ele>
        <time>2026-08-15T03:33:14.000Z</time>
      </trkpt>
      <trkpt lat="22.904903" lon="109.384022">
        <ele>65.077584</ele>
        <time>2026-08-15T03:33:15.000Z</time>
      </trkpt>
      <trkpt lat="22.904956" lon="109.384038">
        <ele>65.053283</ele>
        <time>2026-08-15T03:33:16.000Z</time>
      </trkpt>
      <trkpt lat="22.905007" lon="109.384055">
        <ele>65.029717</ele>
        <time>2026-08-15T03:33:17.000Z</time>
      </trkpt>
      <trkpt lat="22.905058" lon="109.384072">
        <ele>65.006150</ele>
        <time>2026-08-15T03:33:18.000Z</time>
      </trkpt>
      <trkpt lat="22.905110" lon="109.384089">
        <ele>64.982161</ele>
        <time>2026-08-15T03:33:19.000Z</time>
      </trkpt>
      <trkpt lat="22.905162" lon="109.384106">
        <ele>64.958172</ele>
        <time>2026-08-15T03:33:20.000Z</time>
      </trkpt>
      <trkpt lat="22.905214" lon="109.384126">
        <ele>64.933803</ele>
        <time>2026-08-15T03:33:21.000Z</time>
      </trkpt>
      <trkpt lat="22.905263" lon="109.384147">
        <ele>64.910532</ele>
        <time>2026-08-15T03:33:22.000Z</time>
      </trkpt>
      <trkpt lat="22.905313" lon="109.384165">
        <ele>64.887263</ele>
        <time>2026-08-15T03:33:23.000Z</time>
      </trkpt>
      <trkpt lat="22.905362" lon="109.384181">
        <ele>64.864660</ele>
        <time>2026-08-15T03:33:24.000Z</time>
      </trkpt>
      <trkpt lat="22.905412" lon="109.384200">
        <ele>64.841259</ele>
        <time>2026-08-15T03:33:25.000Z</time>
      </trkpt>
      <trkpt lat="22.905463" lon="109.384217">
        <ele>64.817693</ele>
        <time>2026-08-15T03:33:26.000Z</time>
      </trkpt>
      <trkpt lat="22.905514" lon="109.384233">
        <ele>64.794243</ele>
        <time>2026-08-15T03:33:27.000Z</time>
      </trkpt>
      <trkpt lat="22.905563" lon="109.384251">
        <ele>64.771392</ele>
        <time>2026-08-15T03:33:28.000Z</time>
      </trkpt>
      <trkpt lat="22.905614" lon="109.384269">
        <ele>64.747703</ele>
        <time>2026-08-15T03:33:29.000Z</time>
      </trkpt>
      <trkpt lat="22.905664" lon="109.384287">
        <ele>64.724433</ele>
        <time>2026-08-15T03:33:30.000Z</time>
      </trkpt>
      <trkpt lat="22.905713" lon="109.384307">
        <ele>64.701309</ele>
        <time>2026-08-15T03:33:31.000Z</time>
      </trkpt>
      <trkpt lat="22.905761" lon="109.384325">
        <ele>64.678877</ele>
        <time>2026-08-15T03:33:32.000Z</time>
      </trkpt>
      <trkpt lat="22.905808" lon="109.384340">
        <ele>64.657237</ele>
        <time>2026-08-15T03:33:33.000Z</time>
      </trkpt>
      <trkpt lat="22.905852" lon="109.384355">
        <ele>64.636864</ele>
        <time>2026-08-15T03:33:34.000Z</time>
      </trkpt>
      <trkpt lat="22.905894" lon="109.384371">
        <ele>64.617202</ele>
        <time>2026-08-15T03:33:35.000Z</time>
      </trkpt>
      <trkpt lat="22.905934" lon="109.384385">
        <ele>64.598638</ele>
        <time>2026-08-15T03:33:36.000Z</time>
      </trkpt>
      <trkpt lat="22.905975" lon="109.384399">
        <ele>64.579652</ele>
        <time>2026-08-15T03:33:37.000Z</time>
      </trkpt>
      <trkpt lat="22.906014" lon="109.384414">
        <ele>64.561375</ele>
        <time>2026-08-15T03:33:38.000Z</time>
      </trkpt>
      <trkpt lat="22.906057" lon="109.384428">
        <ele>64.541544</ele>
        <time>2026-08-15T03:33:39.000Z</time>
      </trkpt>
      <trkpt lat="22.906100" lon="109.384445">
        <ele>64.521329</ele>
        <time>2026-08-15T03:33:40.000Z</time>
      </trkpt>
      <trkpt lat="22.906144" lon="109.384461">
        <ele>64.500832</ele>
        <time>2026-08-15T03:33:41.000Z</time>
      </trkpt>
      <trkpt lat="22.906188" lon="109.384479">
        <ele>64.480061</ele>
        <time>2026-08-15T03:33:42.000Z</time>
      </trkpt>
      <trkpt lat="22.906234" lon="109.384495">
        <ele>64.458724</ele>
        <time>2026-08-15T03:33:43.000Z</time>
      </trkpt>
      <trkpt lat="22.906280" lon="109.384510">
        <ele>64.437507</ele>
        <time>2026-08-15T03:33:44.000Z</time>
      </trkpt>
      <trkpt lat="22.906323" lon="109.384528">
        <ele>64.417150</ele>
        <time>2026-08-15T03:33:45.000Z</time>
      </trkpt>
      <trkpt lat="22.906369" lon="109.384547">
        <ele>64.395409</ele>
        <time>2026-08-15T03:33:46.000Z</time>
      </trkpt>
      <trkpt lat="22.906416" lon="109.384564">
        <ele>64.373525</ele>
        <time>2026-08-15T03:33:47.000Z</time>
      </trkpt>
      <trkpt lat="22.906463" lon="109.384581">
        <ele>64.360272</ele>
        <time>2026-08-15T03:33:48.000Z</time>
      </trkpt>
      <trkpt lat="22.906509" lon="109.384598">
        <ele>64.359775</ele>
        <time>2026-08-15T03:33:49.000Z</time>
      </trkpt>
      <trkpt lat="22.906555" lon="109.384613">
        <ele>64.359284</ele>
        <time>2026-08-15T03:33:50.000Z</time>
      </trkpt>
      <trkpt lat="22.906601" lon="109.384632">
        <ele>64.358781</ele>
        <time>2026-08-15T03:33:51.000Z</time>
      </trkpt>
      <trkpt lat="22.906648" lon="109.384650">
        <ele>64.358271</ele>
        <time>2026-08-15T03:33:52.000Z</time>
      </trkpt>
      <trkpt lat="22.906694" lon="109.384666">
        <ele>64.357777</ele>
        <time>2026-08-15T03:33:53.000Z</time>
      </trkpt>
      <trkpt lat="22.906741" lon="109.384683">
        <ele>64.357271</ele>
        <time>2026-08-15T03:33:54.000Z</time>
      </trkpt>
      <trkpt lat="22.906789" lon="109.384699">
        <ele>64.356757</ele>
        <time>2026-08-15T03:33:55.000Z</time>
      </trkpt>
      <trkpt lat="22.906837" lon="109.384713">
        <ele>64.356249</ele>
        <time>2026-08-15T03:33:56.000Z</time>
      </trkpt>
      <trkpt lat="22.906885" lon="109.384728">
        <ele>64.355738</ele>
        <time>2026-08-15T03:33:57.000Z</time>
      </trkpt>
      <trkpt lat="22.906931" lon="109.384741">
        <ele>64.355252</ele>
        <time>2026-08-15T03:33:58.000Z</time>
      </trkpt>
      <trkpt lat="22.906977" lon="109.384757">
        <ele>64.354758</ele>
        <time>2026-08-15T03:33:59.000Z</time>
      </trkpt>
      <trkpt lat="22.907024" lon="109.384771">
        <ele>64.354260</ele>
        <time>2026-08-15T03:34:00.000Z</time>
      </trkpt>
      <trkpt lat="22.907070" lon="109.384787">
        <ele>64.353766</ele>
        <time>2026-08-15T03:34:01.000Z</time>
      </trkpt>
      <trkpt lat="22.907118" lon="109.384805">
        <ele>64.353247</ele>
        <time>2026-08-15T03:34:02.000Z</time>
      </trkpt>
      <trkpt lat="22.907164" lon="109.384824">
        <ele>64.352743</ele>
        <time>2026-08-15T03:34:03.000Z</time>
      </trkpt>
      <trkpt lat="22.907209" lon="109.384845">
        <ele>64.352243</ele>
        <time>2026-08-15T03:34:04.000Z</time>
      </trkpt>
      <trkpt lat="22.907255" lon="109.384866">
        <ele>64.351732</ele>
        <time>2026-08-15T03:34:05.000Z</time>
      </trkpt>
      <trkpt lat="22.907303" lon="109.384887">
        <ele>64.351203</ele>
        <time>2026-08-15T03:34:06.000Z</time>
      </trkpt>
      <trkpt lat="22.907350" lon="109.384902">
        <ele>64.350702</ele>
        <time>2026-08-15T03:34:07.000Z</time>
      </trkpt>
      <trkpt lat="22.907401" lon="109.384917">
        <ele>64.350162</ele>
        <time>2026-08-15T03:34:08.000Z</time>
      </trkpt>
      <trkpt lat="22.907450" lon="109.384946">
        <ele>64.349591</ele>
        <time>2026-08-15T03:34:09.000Z</time>
      </trkpt>
      <trkpt lat="22.907499" lon="109.384967">
        <ele>64.349052</ele>
        <time>2026-08-15T03:34:10.000Z</time>
      </trkpt>
      <trkpt lat="22.907549" lon="109.384986">
        <ele>64.348511</ele>
        <time>2026-08-15T03:34:11.000Z</time>
      </trkpt>
      <trkpt lat="22.907602" lon="109.385003">
        <ele>64.347946</ele>
        <time>2026-08-15T03:34:12.000Z</time>
      </trkpt>
      <trkpt lat="22.907655" lon="109.385018">
        <ele>64.347386</ele>
        <time>2026-08-15T03:34:13.000Z</time>
      </trkpt>
      <trkpt lat="22.907707" lon="109.385033">
        <ele>64.346835</ele>
        <time>2026-08-15T03:34:14.000Z</time>
      </trkpt>
      <trkpt lat="22.907758" lon="109.385048">
        <ele>64.346295</ele>
        <time>2026-08-15T03:34:15.000Z</time>
      </trkpt>
      <trkpt lat="22.907810" lon="109.385061">
        <ele>64.345749</ele>
        <time>2026-08-15T03:34:16.000Z</time>
      </trkpt>
      <trkpt lat="22.907859" lon="109.385075">
        <ele>64.345231</ele>
        <time>2026-08-15T03:34:17.000Z</time>
      </trkpt>
      <trkpt lat="22.907910" lon="109.385089">
        <ele>64.344693</ele>
        <time>2026-08-15T03:34:18.000Z</time>
      </trkpt>
      <trkpt lat="22.907960" lon="109.385100">
        <ele>64.344172</ele>
        <time>2026-08-15T03:34:19.000Z</time>
      </trkpt>
      <trkpt lat="22.908009" lon="109.385114">
        <ele>64.343654</ele>
        <time>2026-08-15T03:34:20.000Z</time>
      </trkpt>
      <trkpt lat="22.908057" lon="109.385127">
        <ele>64.343148</ele>
        <time>2026-08-15T03:34:21.000Z</time>
      </trkpt>
      <trkpt lat="22.908105" lon="109.385139">
        <ele>64.342644</ele>
        <time>2026-08-15T03:34:22.000Z</time>
      </trkpt>
      <trkpt lat="22.908151" lon="109.385150">
        <ele>64.342162</ele>
        <time>2026-08-15T03:34:23.000Z</time>
      </trkpt>
      <trkpt lat="22.908199" lon="109.385160">
        <ele>64.348621</ele>
        <time>2026-08-15T03:34:24.000Z</time>
      </trkpt>
      <trkpt lat="22.908247" lon="109.385173">
        <ele>64.356461</ele>
        <time>2026-08-15T03:34:25.000Z</time>
      </trkpt>
      <trkpt lat="22.908296" lon="109.385187">
        <ele>64.364490</ele>
        <time>2026-08-15T03:34:26.000Z</time>
      </trkpt>
      <trkpt lat="22.908346" lon="109.385199">
        <ele>64.372605</ele>
        <time>2026-08-15T03:34:27.000Z</time>
      </trkpt>
      <trkpt lat="22.908395" lon="109.385213">
        <ele>64.380634</ele>
        <time>2026-08-15T03:34:28.000Z</time>
      </trkpt>
      <trkpt lat="22.908444" lon="109.385226">
        <ele>64.388627</ele>
        <time>2026-08-15T03:34:29.000Z</time>
      </trkpt>
      <trkpt lat="22.908492" lon="109.385239">
        <ele>64.396467</ele>
        <time>2026-08-15T03:34:30.000Z</time>
      </trkpt>
      <trkpt lat="22.908542" lon="109.385247">
        <ele>64.404476</ele>
        <time>2026-08-15T03:34:31.000Z</time>
      </trkpt>
      <trkpt lat="22.908591" lon="109.385255">
        <ele>64.412328</ele>
        <time>2026-08-15T03:34:32.000Z</time>
      </trkpt>
      <trkpt lat="22.908639" lon="109.385264">
        <ele>64.420047</ele>
        <time>2026-08-15T03:34:33.000Z</time>
      </trkpt>
      <trkpt lat="22.908691" lon="109.385272">
        <ele>64.428370</ele>
        <time>2026-08-15T03:34:34.000Z</time>
      </trkpt>
      <trkpt lat="22.908740" lon="109.385283">
        <ele>64.436299</ele>
        <time>2026-08-15T03:34:35.000Z</time>
      </trkpt>
      <trkpt lat="22.908788" lon="109.385292">
        <ele>64.444018</ele>
        <time>2026-08-15T03:34:36.000Z</time>
      </trkpt>
      <trkpt lat="22.908835" lon="109.385302">
        <ele>64.451608</ele>
        <time>2026-08-15T03:34:37.000Z</time>
      </trkpt>
      <trkpt lat="22.908882" lon="109.385313">
        <ele>64.459227</ele>
        <time>2026-08-15T03:34:38.000Z</time>
      </trkpt>
      <trkpt lat="22.908930" lon="109.385324">
        <ele>64.467001</ele>
        <time>2026-08-15T03:34:39.000Z</time>
      </trkpt>
      <trkpt lat="22.908976" lon="109.385337">
        <ele>64.474534</ele>
        <time>2026-08-15T03:34:40.000Z</time>
      </trkpt>
      <trkpt lat="22.909024" lon="109.385349">
        <ele>64.482339</ele>
        <time>2026-08-15T03:34:41.000Z</time>
      </trkpt>
      <trkpt lat="22.909072" lon="109.385362">
        <ele>64.490179</ele>
        <time>2026-08-15T03:34:42.000Z</time>
      </trkpt>
      <trkpt lat="22.909122" lon="109.385376">
        <ele>64.498362</ele>
        <time>2026-08-15T03:34:43.000Z</time>
      </trkpt>
      <trkpt lat="22.909173" lon="109.385387">
        <ele>64.506601</ele>
        <time>2026-08-15T03:34:44.000Z</time>
      </trkpt>
      <trkpt lat="22.909224" lon="109.385399">
        <ele>64.514871</ele>
        <time>2026-08-15T03:34:45.000Z</time>
      </trkpt>
      <trkpt lat="22.909273" lon="109.385411">
        <ele>64.522831</ele>
        <time>2026-08-15T03:34:46.000Z</time>
      </trkpt>
      <trkpt lat="22.909323" lon="109.385424">
        <ele>64.530979</ele>
        <time>2026-08-15T03:34:47.000Z</time>
      </trkpt>
      <trkpt lat="22.909373" lon="109.385437">
        <ele>64.539126</ele>
        <time>2026-08-15T03:34:48.000Z</time>
      </trkpt>
      <trkpt lat="22.909423" lon="109.385449">
        <ele>64.547241</ele>
        <time>2026-08-15T03:34:49.000Z</time>
      </trkpt>
      <trkpt lat="22.909473" lon="109.385463">
        <ele>64.555423</ele>
        <time>2026-08-15T03:34:50.000Z</time>
      </trkpt>
      <trkpt lat="22.909523" lon="109.385476">
        <ele>64.563571</ele>
        <time>2026-08-15T03:34:51.000Z</time>
      </trkpt>
      <trkpt lat="22.909572" lon="109.385488">
        <ele>64.571531</ele>
        <time>2026-08-15T03:34:52.000Z</time>
      </trkpt>
      <trkpt lat="22.909622" lon="109.385501">
        <ele>64.579678</ele>
        <time>2026-08-15T03:34:53.000Z</time>
      </trkpt>
      <trkpt lat="22.909672" lon="109.385514">
        <ele>64.587826</ele>
        <time>2026-08-15T03:34:54.000Z</time>
      </trkpt>
      <trkpt lat="22.909723" lon="109.385527">
        <ele>64.596128</ele>
        <time>2026-08-15T03:34:55.000Z</time>
      </trkpt>
      <trkpt lat="22.909772" lon="109.385541">
        <ele>64.604157</ele>
        <time>2026-08-15T03:34:56.000Z</time>
      </trkpt>
      <trkpt lat="22.909819" lon="109.385554">
        <ele>64.611843</ele>
        <time>2026-08-15T03:34:57.000Z</time>
      </trkpt>
      <trkpt lat="22.909866" lon="109.385568">
        <ele>64.619566</ele>
        <time>2026-08-15T03:34:58.000Z</time>
      </trkpt>
      <trkpt lat="22.909912" lon="109.385583">
        <ele>64.627162</ele>
        <time>2026-08-15T03:34:59.000Z</time>
      </trkpt>
      <trkpt lat="22.909958" lon="109.385598">
        <ele>64.633024</ele>
        <time>2026-08-15T03:35:00.000Z</time>
      </trkpt>
      <trkpt lat="22.910006" lon="109.385611">
        <ele>64.639062</ele>
        <time>2026-08-15T03:35:01.000Z</time>
      </trkpt>
      <trkpt lat="22.910054" lon="109.385624">
        <ele>64.645100</ele>
        <time>2026-08-15T03:35:02.000Z</time>
      </trkpt>
      <trkpt lat="22.910103" lon="109.385637">
        <ele>64.651256</ele>
        <time>2026-08-15T03:35:03.000Z</time>
      </trkpt>
      <trkpt lat="22.910151" lon="109.385650">
        <ele>64.657294</ele>
        <time>2026-08-15T03:35:04.000Z</time>
      </trkpt>
      <trkpt lat="22.910199" lon="109.385664">
        <ele>64.663359</ele>
        <time>2026-08-15T03:35:05.000Z</time>
      </trkpt>
      <trkpt lat="22.910248" lon="109.385676">
        <ele>64.669490</ele>
        <time>2026-08-15T03:35:06.000Z</time>
      </trkpt>
      <trkpt lat="22.910297" lon="109.385688">
        <ele>64.675620</ele>
        <time>2026-08-15T03:35:07.000Z</time>
      </trkpt>
      <trkpt lat="22.910344" lon="109.385702">
        <ele>64.681568</ele>
        <time>2026-08-15T03:35:08.000Z</time>
      </trkpt>
      <trkpt lat="22.910390" lon="109.385715">
        <ele>64.687370</ele>
        <time>2026-08-15T03:35:09.000Z</time>
      </trkpt>
      <trkpt lat="22.910437" lon="109.385728">
        <ele>64.693289</ele>
        <time>2026-08-15T03:35:10.000Z</time>
      </trkpt>
      <trkpt lat="22.910483" lon="109.385741">
        <ele>64.699090</ele>
        <time>2026-08-15T03:35:11.000Z</time>
      </trkpt>
      <trkpt lat="22.910531" lon="109.385755">
        <ele>64.705156</ele>
        <time>2026-08-15T03:35:12.000Z</time>
      </trkpt>
      <trkpt lat="22.910580" lon="109.385770">
        <ele>64.711369</ele>
        <time>2026-08-15T03:35:13.000Z</time>
      </trkpt>
      <trkpt lat="22.910629" lon="109.385784">
        <ele>64.717553</ele>
        <time>2026-08-15T03:35:14.000Z</time>
      </trkpt>
      <trkpt lat="22.910677" lon="109.385797">
        <ele>64.723591</ele>
        <time>2026-08-15T03:35:15.000Z</time>
      </trkpt>
      <trkpt lat="22.910725" lon="109.385810">
        <ele>64.729629</ele>
        <time>2026-08-15T03:35:16.000Z</time>
      </trkpt>
      <trkpt lat="22.910773" lon="109.385822">
        <ele>64.735640</ele>
        <time>2026-08-15T03:35:17.000Z</time>
      </trkpt>
      <trkpt lat="22.910823" lon="109.385836">
        <ele>64.741942</ele>
        <time>2026-08-15T03:35:18.000Z</time>
      </trkpt>
      <trkpt lat="22.910872" lon="109.385851">
        <ele>64.748155</ele>
        <time>2026-08-15T03:35:19.000Z</time>
      </trkpt>
      <trkpt lat="22.910921" lon="109.385866">
        <ele>64.754369</ele>
        <time>2026-08-15T03:35:20.000Z</time>
      </trkpt>
      <trkpt lat="22.910970" lon="109.385879">
        <ele>64.760525</ele>
        <time>2026-08-15T03:35:21.000Z</time>
      </trkpt>
      <trkpt lat="22.911019" lon="109.385893">
        <ele>64.766709</ele>
        <time>2026-08-15T03:35:22.000Z</time>
      </trkpt>
      <trkpt lat="22.911068" lon="109.385906">
        <ele>64.772865</ele>
        <time>2026-08-15T03:35:23.000Z</time>
      </trkpt>
      <trkpt lat="22.911117" lon="109.385921">
        <ele>64.779078</ele>
        <time>2026-08-15T03:35:24.000Z</time>
      </trkpt>
      <trkpt lat="22.911165" lon="109.385935">
        <ele>64.785144</ele>
        <time>2026-08-15T03:35:25.000Z</time>
      </trkpt>
      <trkpt lat="22.911214" lon="109.385951">
        <ele>64.791389</ele>
        <time>2026-08-15T03:35:26.000Z</time>
      </trkpt>
      <trkpt lat="22.911264" lon="109.385967">
        <ele>64.797751</ele>
        <time>2026-08-15T03:35:27.000Z</time>
      </trkpt>
      <trkpt lat="22.911314" lon="109.385982">
        <ele>64.804082</ele>
        <time>2026-08-15T03:35:28.000Z</time>
      </trkpt>
      <trkpt lat="22.911365" lon="109.385998">
        <ele>64.810561</ele>
        <time>2026-08-15T03:35:29.000Z</time>
      </trkpt>
      <trkpt lat="22.911417" lon="109.386013">
        <ele>64.817127</ele>
        <time>2026-08-15T03:35:30.000Z</time>
      </trkpt>
      <trkpt lat="22.911471" lon="109.386027">
        <ele>64.823903</ele>
        <time>2026-08-15T03:35:31.000Z</time>
      </trkpt>
      <trkpt lat="22.911524" lon="109.386041">
        <ele>64.830560</ele>
        <time>2026-08-15T03:35:32.000Z</time>
      </trkpt>
      <trkpt lat="22.911577" lon="109.386054">
        <ele>64.837192</ele>
        <time>2026-08-15T03:35:33.000Z</time>
      </trkpt>
      <trkpt lat="22.911631" lon="109.386068">
        <ele>64.843967</ele>
        <time>2026-08-15T03:35:34.000Z</time>
      </trkpt>
      <trkpt lat="22.911683" lon="109.386082">
        <ele>64.851493</ele>
        <time>2026-08-15T03:35:35.000Z</time>
      </trkpt>
      <trkpt lat="22.911736" lon="109.386097">
        <ele>64.859880</ele>
        <time>2026-08-15T03:35:36.000Z</time>
      </trkpt>
      <trkpt lat="22.911790" lon="109.386112">
        <ele>64.868414</ele>
        <time>2026-08-15T03:35:37.000Z</time>
      </trkpt>
      <trkpt lat="22.911845" lon="109.386126">
        <ele>64.877064</ele>
        <time>2026-08-15T03:35:38.000Z</time>
      </trkpt>
      <trkpt lat="22.911900" lon="109.386139">
        <ele>64.885682</ele>
        <time>2026-08-15T03:35:39.000Z</time>
      </trkpt>
      <trkpt lat="22.911954" lon="109.386153">
        <ele>64.894183</ele>
        <time>2026-08-15T03:35:40.000Z</time>
      </trkpt>
      <trkpt lat="22.912008" lon="109.386170">
        <ele>64.902792</ele>
        <time>2026-08-15T03:35:41.000Z</time>
      </trkpt>
      <trkpt lat="22.912062" lon="109.386186">
        <ele>64.911362</ele>
        <time>2026-08-15T03:35:42.000Z</time>
      </trkpt>
      <trkpt lat="22.912115" lon="109.386200">
        <ele>64.919714</ele>
        <time>2026-08-15T03:35:43.000Z</time>
      </trkpt>
      <trkpt lat="22.912169" lon="109.386215">
        <ele>64.928249</ele>
        <time>2026-08-15T03:35:44.000Z</time>
      </trkpt>
      <trkpt lat="22.912223" lon="109.386231">
        <ele>64.936819</ele>
        <time>2026-08-15T03:35:45.000Z</time>
      </trkpt>
      <trkpt lat="22.912277" lon="109.386245">
        <ele>64.945320</ele>
        <time>2026-08-15T03:35:46.000Z</time>
      </trkpt>
      <trkpt lat="22.912331" lon="109.386258">
        <ele>64.953789</ele>
        <time>2026-08-15T03:35:47.000Z</time>
      </trkpt>
      <trkpt lat="22.912384" lon="109.386273">
        <ele>64.962175</ele>
        <time>2026-08-15T03:35:48.000Z</time>
      </trkpt>
      <trkpt lat="22.912438" lon="109.386290">
        <ele>64.970784</ele>
        <time>2026-08-15T03:35:49.000Z</time>
      </trkpt>
      <trkpt lat="22.912491" lon="109.386306">
        <ele>64.979207</ele>
        <time>2026-08-15T03:35:50.000Z</time>
      </trkpt>
      <trkpt lat="22.912545" lon="109.386322">
        <ele>64.987778</ele>
        <time>2026-08-15T03:35:51.000Z</time>
      </trkpt>
      <trkpt lat="22.912598" lon="109.386338">
        <ele>64.996200</ele>
        <time>2026-08-15T03:35:52.000Z</time>
      </trkpt>
      <trkpt lat="22.912652" lon="109.386354">
        <ele>65.004771</ele>
        <time>2026-08-15T03:35:53.000Z</time>
      </trkpt>
      <trkpt lat="22.912706" lon="109.386369">
        <ele>65.013306</ele>
        <time>2026-08-15T03:35:54.000Z</time>
      </trkpt>
      <trkpt lat="22.912761" lon="109.386385">
        <ele>65.022024</ele>
        <time>2026-08-15T03:35:55.000Z</time>
      </trkpt>
      <trkpt lat="22.912817" lon="109.386398">
        <ele>65.030792</ele>
        <time>2026-08-15T03:35:56.000Z</time>
      </trkpt>
      <trkpt lat="22.912874" lon="109.386411">
        <ele>65.039710</ele>
        <time>2026-08-15T03:35:57.000Z</time>
      </trkpt>
      <trkpt lat="22.912929" lon="109.386425">
        <ele>65.048360</ele>
        <time>2026-08-15T03:35:58.000Z</time>
      </trkpt>
      <trkpt lat="22.912983" lon="109.386440">
        <ele>65.056894</ele>
        <time>2026-08-15T03:35:59.000Z</time>
      </trkpt>
      <trkpt lat="22.913036" lon="109.386456">
        <ele>65.065317</ele>
        <time>2026-08-15T03:36:00.000Z</time>
      </trkpt>
      <trkpt lat="22.913091" lon="109.386470">
        <ele>65.073967</ele>
        <time>2026-08-15T03:36:01.000Z</time>
      </trkpt>
      <trkpt lat="22.913144" lon="109.386486">
        <ele>65.082390</ele>
        <time>2026-08-15T03:36:02.000Z</time>
      </trkpt>
      <trkpt lat="22.913198" lon="109.386503">
        <ele>65.090999</ele>
        <time>2026-08-15T03:36:03.000Z</time>
      </trkpt>
      <trkpt lat="22.913252" lon="109.386520">
        <ele>65.099608</ele>
        <time>2026-08-15T03:36:04.000Z</time>
      </trkpt>
      <trkpt lat="22.913307" lon="109.386536">
        <ele>65.108326</ele>
        <time>2026-08-15T03:36:05.000Z</time>
      </trkpt>
      <trkpt lat="22.913362" lon="109.386551">
        <ele>65.117009</ele>
        <time>2026-08-15T03:36:06.000Z</time>
      </trkpt>
      <trkpt lat="22.913416" lon="109.386564">
        <ele>65.122956</ele>
        <time>2026-08-15T03:36:07.000Z</time>
      </trkpt>
      <trkpt lat="22.913470" lon="109.386576">
        <ele>65.125229</ele>
        <time>2026-08-15T03:36:08.000Z</time>
      </trkpt>
      <trkpt lat="22.913524" lon="109.386588">
        <ele>65.127503</ele>
        <time>2026-08-15T03:36:09.000Z</time>
      </trkpt>
      <trkpt lat="22.913580" lon="109.386601">
        <ele>65.129865</ele>
        <time>2026-08-15T03:36:10.000Z</time>
      </trkpt>
      <trkpt lat="22.913634" lon="109.386615">
        <ele>65.132156</ele>
        <time>2026-08-15T03:36:11.000Z</time>
      </trkpt>
      <trkpt lat="22.913689" lon="109.386631">
        <ele>65.134504</ele>
        <time>2026-08-15T03:36:12.000Z</time>
      </trkpt>
      <trkpt lat="22.913745" lon="109.386644">
        <ele>65.136867</ele>
        <time>2026-08-15T03:36:13.000Z</time>
      </trkpt>
      <trkpt lat="22.913800" lon="109.386657">
        <ele>65.139189</ele>
        <time>2026-08-15T03:36:14.000Z</time>
      </trkpt>
      <trkpt lat="22.913855" lon="109.386672">
        <ele>65.141528</ele>
        <time>2026-08-15T03:36:15.000Z</time>
      </trkpt>
      <trkpt lat="22.913910" lon="109.386688">
        <ele>65.143877</ele>
        <time>2026-08-15T03:36:16.000Z</time>
      </trkpt>
      <trkpt lat="22.913964" lon="109.386707">
        <ele>65.146218</ele>
        <time>2026-08-15T03:36:17.000Z</time>
      </trkpt>
      <trkpt lat="22.914018" lon="109.386725">
        <ele>65.148548</ele>
        <time>2026-08-15T03:36:18.000Z</time>
      </trkpt>
      <trkpt lat="22.914074" lon="109.386745">
        <ele>65.150980</ele>
        <time>2026-08-15T03:36:19.000Z</time>
      </trkpt>
      <trkpt lat="22.914127" lon="109.386766">
        <ele>65.153308</ele>
        <time>2026-08-15T03:36:20.000Z</time>
      </trkpt>
      <trkpt lat="22.914180" lon="109.386785">
        <ele>65.155610</ele>
        <time>2026-08-15T03:36:21.000Z</time>
      </trkpt>
      <trkpt lat="22.914234" lon="109.386805">
        <ele>65.157964</ele>
        <time>2026-08-15T03:36:22.000Z</time>
      </trkpt>
      <trkpt lat="22.914288" lon="109.386824">
        <ele>65.160305</ele>
        <time>2026-08-15T03:36:23.000Z</time>
      </trkpt>
      <trkpt lat="22.914341" lon="109.386843">
        <ele>65.162608</ele>
        <time>2026-08-15T03:36:24.000Z</time>
      </trkpt>
      <trkpt lat="22.914396" lon="109.386863">
        <ele>65.165000</ele>
        <time>2026-08-15T03:36:25.000Z</time>
      </trkpt>
      <trkpt lat="22.914450" lon="109.386882">
        <ele>65.167342</ele>
        <time>2026-08-15T03:36:26.000Z</time>
      </trkpt>
      <trkpt lat="22.914504" lon="109.386899">
        <ele>65.169661</ele>
        <time>2026-08-15T03:36:27.000Z</time>
      </trkpt>
      <trkpt lat="22.914559" lon="109.386916">
        <ele>65.172020</ele>
        <time>2026-08-15T03:36:28.000Z</time>
      </trkpt>
      <trkpt lat="22.914613" lon="109.386934">
        <ele>65.174350</ele>
        <time>2026-08-15T03:36:29.000Z</time>
      </trkpt>
      <trkpt lat="22.914668" lon="109.386952">
        <ele>65.176720</ele>
        <time>2026-08-15T03:36:30.000Z</time>
      </trkpt>
      <trkpt lat="22.914723" lon="109.386971">
        <ele>65.179101</ele>
        <time>2026-08-15T03:36:31.000Z</time>
      </trkpt>
      <trkpt lat="22.914778" lon="109.386991">
        <ele>65.181493</ele>
        <time>2026-08-15T03:36:32.000Z</time>
      </trkpt>
      <trkpt lat="22.914833" lon="109.387010">
        <ele>65.183874</ele>
        <time>2026-08-15T03:36:33.000Z</time>
      </trkpt>
      <trkpt lat="22.914887" lon="109.387029">
        <ele>65.186216</ele>
        <time>2026-08-15T03:36:34.000Z</time>
      </trkpt>
      <trkpt lat="22.914943" lon="109.387049">
        <ele>65.188648</ele>
        <time>2026-08-15T03:36:35.000Z</time>
      </trkpt>
      <trkpt lat="22.915000" lon="109.387069">
        <ele>65.191119</ele>
        <time>2026-08-15T03:36:36.000Z</time>
      </trkpt>
      <trkpt lat="22.915057" lon="109.387091">
        <ele>65.193614</ele>
        <time>2026-08-15T03:36:37.000Z</time>
      </trkpt>
      <trkpt lat="22.915113" lon="109.387111">
        <ele>65.196046</ele>
        <time>2026-08-15T03:36:38.000Z</time>
      </trkpt>
      <trkpt lat="22.915170" lon="109.387131">
        <ele>65.203217</ele>
        <time>2026-08-15T03:36:39.000Z</time>
      </trkpt>
      <trkpt lat="22.915226" lon="109.387154">
        <ele>65.210743</ele>
        <time>2026-08-15T03:36:40.000Z</time>
      </trkpt>
      <trkpt lat="22.915284" lon="109.387176">
        <ele>65.218466</ele>
        <time>2026-08-15T03:36:41.000Z</time>
      </trkpt>
      <trkpt lat="22.915340" lon="109.387197">
        <ele>65.225913</ele>
        <time>2026-08-15T03:36:42.000Z</time>
      </trkpt>
      <trkpt lat="22.915397" lon="109.387219">
        <ele>65.233517</ele>
        <time>2026-08-15T03:36:43.000Z</time>
      </trkpt>
      <trkpt lat="22.915453" lon="109.387240">
        <ele>65.240964</ele>
        <time>2026-08-15T03:36:44.000Z</time>
      </trkpt>
      <trkpt lat="22.915510" lon="109.387261">
        <ele>65.248530</ele>
        <time>2026-08-15T03:36:45.000Z</time>
      </trkpt>
      <trkpt lat="22.915566" lon="109.387283">
        <ele>65.256015</ele>
        <time>2026-08-15T03:36:46.000Z</time>
      </trkpt>
      <trkpt lat="22.915622" lon="109.387304">
        <ele>65.263462</ele>
        <time>2026-08-15T03:36:47.000Z</time>
      </trkpt>
      <trkpt lat="22.915678" lon="109.387326">
        <ele>65.270948</ele>
        <time>2026-08-15T03:36:48.000Z</time>
      </trkpt>
      <trkpt lat="22.915735" lon="109.387347">
        <ele>65.278514</ele>
        <time>2026-08-15T03:36:49.000Z</time>
      </trkpt>
      <trkpt lat="22.915793" lon="109.387367">
        <ele>65.286163</ele>
        <time>2026-08-15T03:36:50.000Z</time>
      </trkpt>
      <trkpt lat="22.915850" lon="109.387389">
        <ele>65.293767</ele>
        <time>2026-08-15T03:36:51.000Z</time>
      </trkpt>
      <trkpt lat="22.915907" lon="109.387413">
        <ele>65.301452</ele>
        <time>2026-08-15T03:36:52.000Z</time>
      </trkpt>
      <trkpt lat="22.915965" lon="109.387436">
        <ele>65.309213</ele>
        <time>2026-08-15T03:36:53.000Z</time>
      </trkpt>
      <trkpt lat="22.916024" lon="109.387458">
        <ele>65.317055</ele>
        <time>2026-08-15T03:36:54.000Z</time>
      </trkpt>
      <trkpt lat="22.916082" lon="109.387481">
        <ele>65.324816</ele>
        <time>2026-08-15T03:36:55.000Z</time>
      </trkpt>
      <trkpt lat="22.916142" lon="109.387503">
        <ele>65.332776</ele>
        <time>2026-08-15T03:36:56.000Z</time>
      </trkpt>
      <trkpt lat="22.916201" lon="109.387526">
        <ele>65.340656</ele>
        <time>2026-08-15T03:36:57.000Z</time>
      </trkpt>
      <trkpt lat="22.916259" lon="109.387549">
        <ele>65.348417</ele>
        <time>2026-08-15T03:36:58.000Z</time>
      </trkpt>
      <trkpt lat="22.916318" lon="109.387572">
        <ele>65.356297</ele>
        <time>2026-08-15T03:36:59.000Z</time>
      </trkpt>
      <trkpt lat="22.916376" lon="109.387593">
        <ele>65.363982</ele>
        <time>2026-08-15T03:37:00.000Z</time>
      </trkpt>
      <trkpt lat="22.916436" lon="109.387615">
        <ele>65.371942</ele>
        <time>2026-08-15T03:37:01.000Z</time>
      </trkpt>
      <trkpt lat="22.916495" lon="109.387637">
        <ele>65.379784</ele>
        <time>2026-08-15T03:37:02.000Z</time>
      </trkpt>
      <trkpt lat="22.916554" lon="109.387659">
        <ele>65.387625</ele>
        <time>2026-08-15T03:37:03.000Z</time>
      </trkpt>
      <trkpt lat="22.916612" lon="109.387682">
        <ele>65.395387</ele>
        <time>2026-08-15T03:37:04.000Z</time>
      </trkpt>
      <trkpt lat="22.916671" lon="109.387704">
        <ele>65.403228</ele>
        <time>2026-08-15T03:37:05.000Z</time>
      </trkpt>
      <trkpt lat="22.916729" lon="109.387727">
        <ele>65.410989</ele>
        <time>2026-08-15T03:37:06.000Z</time>
      </trkpt>
      <trkpt lat="22.916787" lon="109.387748">
        <ele>65.418674</ele>
        <time>2026-08-15T03:37:07.000Z</time>
      </trkpt>
      <trkpt lat="22.916846" lon="109.387768">
        <ele>65.454208</ele>
        <time>2026-08-15T03:37:08.000Z</time>
      </trkpt>
      <trkpt lat="22.916905" lon="109.387789">
        <ele>65.514350</ele>
        <time>2026-08-15T03:37:09.000Z</time>
      </trkpt>
      <trkpt lat="22.916964" lon="109.387811">
        <ele>65.574776</ele>
        <time>2026-08-15T03:37:10.000Z</time>
      </trkpt>
      <trkpt lat="22.917022" lon="109.387835">
        <ele>65.634898</ele>
        <time>2026-08-15T03:37:11.000Z</time>
      </trkpt>
      <trkpt lat="22.917079" lon="109.387857">
        <ele>65.693495</ele>
        <time>2026-08-15T03:37:12.000Z</time>
      </trkpt>
      <trkpt lat="22.917136" lon="109.387879">
        <ele>65.752091</ele>
        <time>2026-08-15T03:37:13.000Z</time>
      </trkpt>
      <trkpt lat="22.917193" lon="109.387903">
        <ele>65.811310</ele>
        <time>2026-08-15T03:37:14.000Z</time>
      </trkpt>
      <trkpt lat="22.917250" lon="109.387924">
        <ele>65.869613</ele>
        <time>2026-08-15T03:37:15.000Z</time>
      </trkpt>
      <trkpt lat="22.917306" lon="109.387946">
        <ele>65.927298</ele>
        <time>2026-08-15T03:37:16.000Z</time>
      </trkpt>
      <trkpt lat="22.917363" lon="109.387968">
        <ele>65.985895</ele>
        <time>2026-08-15T03:37:17.000Z</time>
      </trkpt>
      <trkpt lat="22.917422" lon="109.387989">
        <ele>66.046037</ele>
        <time>2026-08-15T03:37:18.000Z</time>
      </trkpt>
      <trkpt lat="22.917482" lon="109.388011">
        <ele>66.107379</ele>
        <time>2026-08-15T03:37:19.000Z</time>
      </trkpt>
      <trkpt lat="22.917543" lon="109.388034">
        <ele>66.169927</ele>
        <time>2026-08-15T03:37:20.000Z</time>
      </trkpt>
      <trkpt lat="22.917602" lon="109.388060">
        <ele>66.231604</ele>
        <time>2026-08-15T03:37:21.000Z</time>
      </trkpt>
      <trkpt lat="22.917659" lon="109.388085">
        <ele>66.291151</ele>
        <time>2026-08-15T03:37:22.000Z</time>
      </trkpt>
      <trkpt lat="22.917717" lon="109.388110">
        <ele>66.351596</ele>
        <time>2026-08-15T03:37:23.000Z</time>
      </trkpt>
      <trkpt lat="22.917776" lon="109.388132">
        <ele>66.412022</ele>
        <time>2026-08-15T03:37:24.000Z</time>
      </trkpt>
      <trkpt lat="22.917837" lon="109.388155">
        <ele>66.474570</ele>
        <time>2026-08-15T03:37:25.000Z</time>
      </trkpt>
      <trkpt lat="22.917897" lon="109.388176">
        <ele>66.535633</ele>
        <time>2026-08-15T03:37:26.000Z</time>
      </trkpt>
      <trkpt lat="22.917957" lon="109.388196">
        <ele>66.596428</ele>
        <time>2026-08-15T03:37:27.000Z</time>
      </trkpt>
      <trkpt lat="22.918017" lon="109.388219">
        <ele>66.658061</ele>
        <time>2026-08-15T03:37:28.000Z</time>
      </trkpt>
      <trkpt lat="22.918076" lon="109.388242">
        <ele>66.718782</ele>
        <time>2026-08-15T03:37:29.000Z</time>
      </trkpt>
      <trkpt lat="22.918135" lon="109.388264">
        <ele>66.779208</ele>
        <time>2026-08-15T03:37:30.000Z</time>
      </trkpt>
      <trkpt lat="22.918193" lon="109.388286">
        <ele>66.838718</ele>
        <time>2026-08-15T03:37:31.000Z</time>
      </trkpt>
      <trkpt lat="22.918251" lon="109.388307">
        <ele>66.897940</ele>
        <time>2026-08-15T03:37:32.000Z</time>
      </trkpt>
      <trkpt lat="22.918310" lon="109.388330">
        <ele>66.958661</ele>
        <time>2026-08-15T03:37:33.000Z</time>
      </trkpt>
      <trkpt lat="22.918368" lon="109.388354">
        <ele>67.018783</ele>
        <time>2026-08-15T03:37:34.000Z</time>
      </trkpt>
      <trkpt lat="22.918427" lon="109.388375">
        <ele>67.078925</ele>
        <time>2026-08-15T03:37:35.000Z</time>
      </trkpt>
      <trkpt lat="22.918484" lon="109.388397">
        <ele>67.137521</ele>
        <time>2026-08-15T03:37:36.000Z</time>
      </trkpt>
      <trkpt lat="22.918541" lon="109.388417">
        <ele>67.194889</ele>
        <time>2026-08-15T03:37:37.000Z</time>
      </trkpt>
      <trkpt lat="22.918597" lon="109.388439">
        <ele>67.251354</ele>
        <time>2026-08-15T03:37:38.000Z</time>
      </trkpt>
      <trkpt lat="22.918653" lon="109.388460">
        <ele>67.307529</ele>
        <time>2026-08-15T03:37:39.000Z</time>
      </trkpt>
      <trkpt lat="22.918710" lon="109.388481">
        <ele>67.364600</ele>
        <time>2026-08-15T03:37:40.000Z</time>
      </trkpt>
      <trkpt lat="22.918766" lon="109.388505">
        <ele>67.421683</ele>
        <time>2026-08-15T03:37:41.000Z</time>
      </trkpt>
      <trkpt lat="22.918822" lon="109.388527">
        <ele>67.478149</ele>
        <time>2026-08-15T03:37:42.000Z</time>
      </trkpt>
      <trkpt lat="22.918877" lon="109.388550">
        <ele>67.534031</ele>
        <time>2026-08-15T03:37:43.000Z</time>
      </trkpt>
      <trkpt lat="22.918932" lon="109.388574">
        <ele>67.590234</ele>
        <time>2026-08-15T03:37:44.000Z</time>
      </trkpt>
      <trkpt lat="22.918988" lon="109.388598">
        <ele>67.647317</ele>
        <time>2026-08-15T03:37:45.000Z</time>
      </trkpt>
      <trkpt lat="22.919044" lon="109.388623">
        <ele>67.704727</ele>
        <time>2026-08-15T03:37:46.000Z</time>
      </trkpt>
      <trkpt lat="22.919100" lon="109.388646">
        <ele>67.761496</ele>
        <time>2026-08-15T03:37:47.000Z</time>
      </trkpt>
      <trkpt lat="22.919155" lon="109.388670">
        <ele>67.817698</ele>
        <time>2026-08-15T03:37:48.000Z</time>
      </trkpt>
      <trkpt lat="22.919212" lon="109.388695">
        <ele>67.875986</ele>
        <time>2026-08-15T03:37:49.000Z</time>
      </trkpt>
      <trkpt lat="22.919267" lon="109.388720">
        <ele>67.932520</ele>
        <time>2026-08-15T03:37:50.000Z</time>
      </trkpt>
      <trkpt lat="22.919322" lon="109.388744">
        <ele>67.988722</ele>
        <time>2026-08-15T03:37:51.000Z</time>
      </trkpt>
      <trkpt lat="22.919377" lon="109.388768">
        <ele>68.044925</ele>
        <time>2026-08-15T03:37:52.000Z</time>
      </trkpt>
      <trkpt lat="22.919434" lon="109.388787">
        <ele>68.101459</ele>
        <time>2026-08-15T03:37:53.000Z</time>
      </trkpt>
      <trkpt lat="22.919490" lon="109.388808">
        <ele>68.157633</ele>
        <time>2026-08-15T03:37:54.000Z</time>
      </trkpt>
      <trkpt lat="22.919547" lon="109.388827">
        <ele>68.214168</ele>
        <time>2026-08-15T03:37:55.000Z</time>
      </trkpt>
      <trkpt lat="22.919599" lon="109.388849">
        <ele>68.267083</ele>
        <time>2026-08-15T03:37:56.000Z</time>
      </trkpt>
      <trkpt lat="22.919653" lon="109.388869">
        <ele>68.321180</ele>
        <time>2026-08-15T03:37:57.000Z</time>
      </trkpt>
      <trkpt lat="22.919706" lon="109.388890">
        <ele>68.374673</ele>
        <time>2026-08-15T03:37:58.000Z</time>
      </trkpt>
      <trkpt lat="22.919758" lon="109.388912">
        <ele>68.427588</ele>
        <time>2026-08-15T03:37:59.000Z</time>
      </trkpt>
      <trkpt lat="22.919814" lon="109.388935">
        <ele>68.484357</ele>
        <time>2026-08-15T03:38:00.000Z</time>
      </trkpt>
      <trkpt lat="22.919869" lon="109.388961">
        <ele>68.541234</ele>
        <time>2026-08-15T03:38:01.000Z</time>
      </trkpt>
      <trkpt lat="22.919921" lon="109.388988">
        <ele>68.595886</ele>
        <time>2026-08-15T03:38:02.000Z</time>
      </trkpt>
      <trkpt lat="22.919976" lon="109.389010">
        <ele>68.651460</ele>
        <time>2026-08-15T03:38:03.000Z</time>
      </trkpt>
      <trkpt lat="22.920030" lon="109.389035">
        <ele>68.707121</ele>
        <time>2026-08-15T03:38:04.000Z</time>
      </trkpt>
      <trkpt lat="22.920084" lon="109.389060">
        <ele>68.762781</ele>
        <time>2026-08-15T03:38:05.000Z</time>
      </trkpt>
      <trkpt lat="22.920138" lon="109.389085">
        <ele>68.818442</ele>
        <time>2026-08-15T03:38:06.000Z</time>
      </trkpt>
      <trkpt lat="22.920193" lon="109.389112">
        <ele>68.867923</ele>
        <time>2026-08-15T03:38:07.000Z</time>
      </trkpt>
      <trkpt lat="22.920248" lon="109.389139">
        <ele>68.848377</ele>
        <time>2026-08-15T03:38:08.000Z</time>
      </trkpt>
      <trkpt lat="22.920301" lon="109.389166">
        <ele>68.829419</ele>
        <time>2026-08-15T03:38:09.000Z</time>
      </trkpt>
      <trkpt lat="22.920355" lon="109.389196">
        <ele>68.809777</ele>
        <time>2026-08-15T03:38:10.000Z</time>
      </trkpt>
      <trkpt lat="22.920409" lon="109.389227">
        <ele>68.789996</ele>
        <time>2026-08-15T03:38:11.000Z</time>
      </trkpt>
      <trkpt lat="22.920463" lon="109.389258">
        <ele>68.770216</ele>
        <time>2026-08-15T03:38:12.000Z</time>
      </trkpt>
      <trkpt lat="22.920517" lon="109.389289">
        <ele>68.750436</ele>
        <time>2026-08-15T03:38:13.000Z</time>
      </trkpt>
      <trkpt lat="22.920569" lon="109.389321">
        <ele>68.731080</ele>
        <time>2026-08-15T03:38:14.000Z</time>
      </trkpt>
      <trkpt lat="22.920621" lon="109.389354">
        <ele>68.711576</ele>
        <time>2026-08-15T03:38:15.000Z</time>
      </trkpt>
      <trkpt lat="22.920674" lon="109.389387">
        <ele>68.691792</ele>
        <time>2026-08-15T03:38:16.000Z</time>
      </trkpt>
      <trkpt lat="22.920727" lon="109.389420">
        <ele>68.672007</ele>
        <time>2026-08-15T03:38:17.000Z</time>
      </trkpt>
      <trkpt lat="22.920779" lon="109.389454">
        <ele>68.652351</ele>
        <time>2026-08-15T03:38:18.000Z</time>
      </trkpt>
      <trkpt lat="22.920831" lon="109.389490">
        <ele>68.632380</ele>
        <time>2026-08-15T03:38:19.000Z</time>
      </trkpt>
      <trkpt lat="22.920882" lon="109.389525">
        <ele>68.612843</ele>
        <time>2026-08-15T03:38:20.000Z</time>
      </trkpt>
      <trkpt lat="22.920933" lon="109.389563">
        <ele>68.592813</ele>
        <time>2026-08-15T03:38:21.000Z</time>
      </trkpt>
      <trkpt lat="22.920984" lon="109.389600">
        <ele>68.572951</ele>
        <time>2026-08-15T03:38:22.000Z</time>
      </trkpt>
      <trkpt lat="22.921036" lon="109.389637">
        <ele>68.552818</ele>
        <time>2026-08-15T03:38:23.000Z</time>
      </trkpt>
      <trkpt lat="22.921088" lon="109.389675">
        <ele>68.532521</ele>
        <time>2026-08-15T03:38:24.000Z</time>
      </trkpt>
      <trkpt lat="22.921139" lon="109.389713">
        <ele>68.512491</ele>
        <time>2026-08-15T03:38:25.000Z</time>
      </trkpt>
      <trkpt lat="22.921190" lon="109.389750">
        <ele>68.492628</ele>
        <time>2026-08-15T03:38:26.000Z</time>
      </trkpt>
      <trkpt lat="22.921243" lon="109.389786">
        <ele>68.472384</ele>
        <time>2026-08-15T03:38:27.000Z</time>
      </trkpt>
      <trkpt lat="22.921296" lon="109.389822">
        <ele>68.452139</ele>
        <time>2026-08-15T03:38:28.000Z</time>
      </trkpt>
      <trkpt lat="22.921350" lon="109.389859">
        <ele>68.431462</ele>
        <time>2026-08-15T03:38:29.000Z</time>
      </trkpt>
      <trkpt lat="22.921403" lon="109.389898">
        <ele>68.410729</ele>
        <time>2026-08-15T03:38:30.000Z</time>
      </trkpt>
      <trkpt lat="22.921457" lon="109.389938">
        <ele>68.389561</ele>
        <time>2026-08-15T03:38:31.000Z</time>
      </trkpt>
      <trkpt lat="22.921512" lon="109.389978">
        <ele>68.368124</ele>
        <time>2026-08-15T03:38:32.000Z</time>
      </trkpt>
      <trkpt lat="22.921567" lon="109.390019">
        <ele>68.346520</ele>
        <time>2026-08-15T03:38:33.000Z</time>
      </trkpt>
      <trkpt lat="22.921622" lon="109.390061">
        <ele>68.324746</ele>
        <time>2026-08-15T03:38:34.000Z</time>
      </trkpt>
      <trkpt lat="22.921677" lon="109.390105">
        <ele>68.302623</ele>
        <time>2026-08-15T03:38:35.000Z</time>
      </trkpt>
      <trkpt lat="22.921732" lon="109.390150">
        <ele>68.268953</ele>
        <time>2026-08-15T03:38:36.000Z</time>
      </trkpt>
      <trkpt lat="22.921787" lon="109.390194">
        <ele>68.211583</ele>
        <time>2026-08-15T03:38:37.000Z</time>
      </trkpt>
      <trkpt lat="22.921843" lon="109.390238">
        <ele>68.153534</ele>
        <time>2026-08-15T03:38:38.000Z</time>
      </trkpt>
      <trkpt lat="22.921900" lon="109.390280">
        <ele>68.095685</ele>
        <time>2026-08-15T03:38:39.000Z</time>
      </trkpt>
      <trkpt lat="22.921955" lon="109.390322">
        <ele>68.039219</ele>
        <time>2026-08-15T03:38:40.000Z</time>
      </trkpt>
      <trkpt lat="22.922011" lon="109.390363">
        <ele>67.982499</ele>
        <time>2026-08-15T03:38:41.000Z</time>
      </trkpt>
      <trkpt lat="22.922066" lon="109.390405">
        <ele>67.926032</ele>
        <time>2026-08-15T03:38:42.000Z</time>
      </trkpt>
      <trkpt lat="22.922122" lon="109.390447">
        <ele>67.868876</ele>
        <time>2026-08-15T03:38:43.000Z</time>
      </trkpt>
      <trkpt lat="22.922178" lon="109.390488">
        <ele>67.812157</ele>
        <time>2026-08-15T03:38:44.000Z</time>
      </trkpt>
      <trkpt lat="22.922234" lon="109.390529">
        <ele>67.755437</ele>
        <time>2026-08-15T03:38:45.000Z</time>
      </trkpt>
      <trkpt lat="22.922290" lon="109.390570">
        <ele>67.698718</ele>
        <time>2026-08-15T03:38:46.000Z</time>
      </trkpt>
      <trkpt lat="22.922347" lon="109.390610">
        <ele>67.641723</ele>
        <time>2026-08-15T03:38:47.000Z</time>
      </trkpt>
      <trkpt lat="22.922405" lon="109.390650">
        <ele>67.584022</ele>
        <time>2026-08-15T03:38:48.000Z</time>
      </trkpt>
      <trkpt lat="22.922463" lon="109.390690">
        <ele>67.526321</ele>
        <time>2026-08-15T03:38:49.000Z</time>
      </trkpt>
      <trkpt lat="22.922521" lon="109.390731">
        <ele>67.468201</ele>
        <time>2026-08-15T03:38:50.000Z</time>
      </trkpt>
      <trkpt lat="22.922580" lon="109.390771">
        <ele>67.409789</ele>
        <time>2026-08-15T03:38:51.000Z</time>
      </trkpt>
      <trkpt lat="22.922638" lon="109.390810">
        <ele>67.352499</ele>
        <time>2026-08-15T03:38:52.000Z</time>
      </trkpt>
      <trkpt lat="22.922697" lon="109.390848">
        <ele>67.294891</ele>
        <time>2026-08-15T03:38:53.000Z</time>
      </trkpt>
      <trkpt lat="22.922756" lon="109.390885">
        <ele>67.237675</ele>
        <time>2026-08-15T03:38:54.000Z</time>
      </trkpt>
      <trkpt lat="22.922816" lon="109.390920">
        <ele>67.180477</ele>
        <time>2026-08-15T03:38:55.000Z</time>
      </trkpt>
      <trkpt lat="22.922876" lon="109.390954">
        <ele>67.123642</ele>
        <time>2026-08-15T03:38:56.000Z</time>
      </trkpt>
      <trkpt lat="22.922936" lon="109.390987">
        <ele>67.067160</ele>
        <time>2026-08-15T03:38:57.000Z</time>
      </trkpt>
      <trkpt lat="22.922996" lon="109.391021">
        <ele>67.010325</ele>
        <time>2026-08-15T03:38:58.000Z</time>
      </trkpt>
      <trkpt lat="22.923056" lon="109.391055">
        <ele>66.953490</ele>
        <time>2026-08-15T03:38:59.000Z</time>
      </trkpt>
      <trkpt lat="22.923116" lon="109.391089">
        <ele>66.896654</ele>
        <time>2026-08-15T03:39:00.000Z</time>
      </trkpt>
      <trkpt lat="22.923178" lon="109.391120">
        <ele>66.839334</ele>
        <time>2026-08-15T03:39:01.000Z</time>
      </trkpt>
      <trkpt lat="22.923238" lon="109.391149">
        <ele>66.784181</ele>
        <time>2026-08-15T03:39:02.000Z</time>
      </trkpt>
      <trkpt lat="22.923299" lon="109.391180">
        <ele>66.824138</ele>
        <time>2026-08-15T03:39:03.000Z</time>
      </trkpt>
      <trkpt lat="22.923359" lon="109.391209">
        <ele>66.876729</ele>
        <time>2026-08-15T03:39:04.000Z</time>
      </trkpt>
      <trkpt lat="22.923420" lon="109.391234">
        <ele>66.928939</ele>
        <time>2026-08-15T03:39:05.000Z</time>
      </trkpt>
      <trkpt lat="22.923480" lon="109.391259">
        <ele>66.980401</ele>
        <time>2026-08-15T03:39:06.000Z</time>
      </trkpt>
      <trkpt lat="22.923541" lon="109.391287">
        <ele>67.033432</ele>
        <time>2026-08-15T03:39:07.000Z</time>
      </trkpt>
      <trkpt lat="22.923600" lon="109.391312">
        <ele>67.084147</ele>
        <time>2026-08-15T03:39:08.000Z</time>
      </trkpt>
      <trkpt lat="22.923661" lon="109.391338">
        <ele>67.136622</ele>
        <time>2026-08-15T03:39:09.000Z</time>
      </trkpt>
      <trkpt lat="22.923720" lon="109.391360">
        <ele>67.186575</ele>
        <time>2026-08-15T03:39:10.000Z</time>
      </trkpt>
      <trkpt lat="22.923780" lon="109.391383">
        <ele>67.237527</ele>
        <time>2026-08-15T03:39:11.000Z</time>
      </trkpt>
      <trkpt lat="22.923838" lon="109.391404">
        <ele>67.286485</ele>
        <time>2026-08-15T03:39:12.000Z</time>
      </trkpt>
      <trkpt lat="22.923894" lon="109.391424">
        <ele>67.333691</ele>
        <time>2026-08-15T03:39:13.000Z</time>
      </trkpt>
      <trkpt lat="22.923951" lon="109.391447">
        <ele>67.382384</ele>
        <time>2026-08-15T03:39:14.000Z</time>
      </trkpt>
      <trkpt lat="22.924005" lon="109.391469">
        <ele>67.428569</ele>
        <time>2026-08-15T03:39:15.000Z</time>
      </trkpt>
      <trkpt lat="22.924060" lon="109.391490">
        <ele>67.475254</ele>
        <time>2026-08-15T03:39:16.000Z</time>
      </trkpt>
      <trkpt lat="22.924117" lon="109.391512">
        <ele>67.523695</ele>
        <time>2026-08-15T03:39:17.000Z</time>
      </trkpt>
      <trkpt lat="22.924172" lon="109.391535">
        <ele>67.570890</ele>
        <time>2026-08-15T03:39:18.000Z</time>
      </trkpt>
      <trkpt lat="22.924225" lon="109.391556">
        <ele>67.616068</ele>
        <time>2026-08-15T03:39:19.000Z</time>
      </trkpt>
      <trkpt lat="22.924279" lon="109.391577">
        <ele>67.661999</ele>
        <time>2026-08-15T03:39:20.000Z</time>
      </trkpt>
      <trkpt lat="22.924333" lon="109.391598">
        <ele>67.707929</ele>
        <time>2026-08-15T03:39:21.000Z</time>
      </trkpt>
      <trkpt lat="22.924386" lon="109.391619">
        <ele>67.753107</ele>
        <time>2026-08-15T03:39:22.000Z</time>
      </trkpt>
      <trkpt lat="22.924438" lon="109.391640">
        <ele>67.797533</ele>
        <time>2026-08-15T03:39:23.000Z</time>
      </trkpt>
      <trkpt lat="22.924489" lon="109.391661">
        <ele>67.841210</ele>
        <time>2026-08-15T03:39:24.000Z</time>
      </trkpt>
      <trkpt lat="22.924541" lon="109.391681">
        <ele>67.885385</ele>
        <time>2026-08-15T03:39:25.000Z</time>
      </trkpt>
      <trkpt lat="22.924591" lon="109.391700">
        <ele>67.927804</ele>
        <time>2026-08-15T03:39:26.000Z</time>
      </trkpt>
      <trkpt lat="22.924640" lon="109.391719">
        <ele>67.969468</ele>
        <time>2026-08-15T03:39:27.000Z</time>
      </trkpt>
      <trkpt lat="22.924688" lon="109.391739">
        <ele>68.010637</ele>
        <time>2026-08-15T03:39:28.000Z</time>
      </trkpt>
      <trkpt lat="22.924736" lon="109.391758">
        <ele>68.051548</ele>
        <time>2026-08-15T03:39:29.000Z</time>
      </trkpt>
      <trkpt lat="22.924782" lon="109.391780">
        <ele>68.091798</ele>
        <time>2026-08-15T03:39:30.000Z</time>
      </trkpt>
      <trkpt lat="22.924827" lon="109.391800">
        <ele>68.130734</ele>
        <time>2026-08-15T03:39:31.000Z</time>
      </trkpt>
      <trkpt lat="22.924873" lon="109.391820">
        <ele>68.170412</ele>
        <time>2026-08-15T03:39:32.000Z</time>
      </trkpt>
      <trkpt lat="22.924918" lon="109.391838">
        <ele>68.208813</ele>
        <time>2026-08-15T03:39:33.000Z</time>
      </trkpt>
      <trkpt lat="22.924962" lon="109.391856">
        <ele>68.277009</ele>
        <time>2026-08-15T03:39:34.000Z</time>
      </trkpt>
      <trkpt lat="22.925005" lon="109.391872">
        <ele>68.351525</ele>
        <time>2026-08-15T03:39:35.000Z</time>
      </trkpt>
      <trkpt lat="22.925048" lon="109.391887">
        <ele>68.425566</ele>
        <time>2026-08-15T03:39:36.000Z</time>
      </trkpt>
      <trkpt lat="22.925092" lon="109.391902">
        <ele>68.501170</ele>
        <time>2026-08-15T03:39:37.000Z</time>
      </trkpt>
      <trkpt lat="22.925134" lon="109.391919">
        <ele>68.574651</ele>
        <time>2026-08-15T03:39:38.000Z</time>
      </trkpt>
      <trkpt lat="22.925176" lon="109.391937">
        <ele>68.648674</ele>
        <time>2026-08-15T03:39:39.000Z</time>
      </trkpt>
      <trkpt lat="22.925217" lon="109.391954">
        <ele>68.720621</ele>
        <time>2026-08-15T03:39:40.000Z</time>
      </trkpt>
      <trkpt lat="22.925260" lon="109.391971">
        <ele>68.795641</ele>
        <time>2026-08-15T03:39:41.000Z</time>
      </trkpt>
      <trkpt lat="22.925302" lon="109.391986">
        <ele>68.868123</ele>
        <time>2026-08-15T03:39:42.000Z</time>
      </trkpt>
      <trkpt lat="22.925344" lon="109.392001">
        <ele>68.940605</ele>
        <time>2026-08-15T03:39:43.000Z</time>
      </trkpt>
      <trkpt lat="22.925387" lon="109.392016">
        <ele>69.014646</ele>
        <time>2026-08-15T03:39:44.000Z</time>
      </trkpt>
      <trkpt lat="22.925430" lon="109.392031">
        <ele>69.088686</ele>
        <time>2026-08-15T03:39:45.000Z</time>
      </trkpt>
      <trkpt lat="22.925471" lon="109.392046">
        <ele>69.159613</ele>
        <time>2026-08-15T03:39:46.000Z</time>
      </trkpt>
      <trkpt lat="22.925512" lon="109.392061">
        <ele>69.230539</ele>
        <time>2026-08-15T03:39:47.000Z</time>
      </trkpt>
      <trkpt lat="22.925554" lon="109.392076">
        <ele>69.303021</ele>
        <time>2026-08-15T03:39:48.000Z</time>
      </trkpt>
      <trkpt lat="22.925595" lon="109.392090">
        <ele>69.373480</ele>
        <time>2026-08-15T03:39:49.000Z</time>
      </trkpt>
      <trkpt lat="22.925637" lon="109.392104">
        <ele>69.445504</ele>
        <time>2026-08-15T03:39:50.000Z</time>
      </trkpt>
      <trkpt lat="22.925680" lon="109.392119">
        <ele>69.519545</ele>
        <time>2026-08-15T03:39:51.000Z</time>
      </trkpt>
      <trkpt lat="22.925721" lon="109.392132">
        <ele>69.589566</ele>
        <time>2026-08-15T03:39:52.000Z</time>
      </trkpt>
      <trkpt lat="22.925761" lon="109.392148">
        <ele>69.659448</ele>
        <time>2026-08-15T03:39:53.000Z</time>
      </trkpt>
      <trkpt lat="22.925804" lon="109.392165">
        <ele>69.734468</ele>
        <time>2026-08-15T03:39:54.000Z</time>
      </trkpt>
      <trkpt lat="22.925847" lon="109.392180">
        <ele>69.808509</ele>
        <time>2026-08-15T03:39:55.000Z</time>
      </trkpt>
      <trkpt lat="22.925889" lon="109.392195">
        <ele>69.880991</ele>
        <time>2026-08-15T03:39:56.000Z</time>
      </trkpt>
      <trkpt lat="22.925931" lon="109.392210">
        <ele>69.953473</ele>
        <time>2026-08-15T03:39:57.000Z</time>
      </trkpt>
      <trkpt lat="22.925973" lon="109.392225">
        <ele>70.025955</ele>
        <time>2026-08-15T03:39:58.000Z</time>
      </trkpt>
      <trkpt lat="22.926015" lon="109.392242">
        <ele>70.099436</ele>
        <time>2026-08-15T03:39:59.000Z</time>
      </trkpt>
      <trkpt lat="22.926059" lon="109.392258">
        <ele>70.175505</ele>
        <time>2026-08-15T03:40:00.000Z</time>
      </trkpt>
      <trkpt lat="22.926102" lon="109.392275">
        <ele>70.250525</ele>
        <time>2026-08-15T03:40:01.000Z</time>
      </trkpt>
      <trkpt lat="22.926145" lon="109.392291">
        <ele>70.325041</ele>
        <time>2026-08-15T03:40:02.000Z</time>
      </trkpt>
      <trkpt lat="22.926189" lon="109.392306">
        <ele>70.400645</ele>
        <time>2026-08-15T03:40:03.000Z</time>
      </trkpt>
      <trkpt lat="22.926233" lon="109.392322">
        <ele>70.476714</ele>
        <time>2026-08-15T03:40:04.000Z</time>
      </trkpt>
      <trkpt lat="22.926275" lon="109.392337">
        <ele>70.549196</ele>
        <time>2026-08-15T03:40:05.000Z</time>
      </trkpt>
      <trkpt lat="22.926318" lon="109.392354">
        <ele>70.624215</ele>
        <time>2026-08-15T03:40:06.000Z</time>
      </trkpt>
      <trkpt lat="22.926361" lon="109.392372">
        <ele>70.699765</ele>
        <time>2026-08-15T03:40:07.000Z</time>
      </trkpt>
      <trkpt lat="22.926403" lon="109.392389">
        <ele>70.773246</ele>
        <time>2026-08-15T03:40:08.000Z</time>
      </trkpt>
      <trkpt lat="22.926446" lon="109.392404">
        <ele>70.847287</ele>
        <time>2026-08-15T03:40:09.000Z</time>
      </trkpt>
      <trkpt lat="22.926489" lon="109.392420">
        <ele>70.921804</ele>
        <time>2026-08-15T03:40:10.000Z</time>
      </trkpt>
      <trkpt lat="22.926530" lon="109.392436">
        <ele>70.993227</ele>
        <time>2026-08-15T03:40:11.000Z</time>
      </trkpt>
      <trkpt lat="22.926571" lon="109.392453">
        <ele>71.065174</ele>
        <time>2026-08-15T03:40:12.000Z</time>
      </trkpt>
      <trkpt lat="22.926611" lon="109.392471">
        <ele>71.136157</ele>
        <time>2026-08-15T03:40:13.000Z</time>
      </trkpt>
      <trkpt lat="22.926652" lon="109.392488">
        <ele>71.180531</ele>
        <time>2026-08-15T03:40:14.000Z</time>
      </trkpt>
      <trkpt lat="22.926694" lon="109.392506">
        <ele>71.206187</ele>
        <time>2026-08-15T03:40:15.000Z</time>
      </trkpt>
      <trkpt lat="22.926736" lon="109.392523">
        <ele>71.231656</ele>
        <time>2026-08-15T03:40:16.000Z</time>
      </trkpt>
      <trkpt lat="22.926777" lon="109.392540">
        <ele>71.256593</ele>
        <time>2026-08-15T03:40:17.000Z</time>
      </trkpt>
      <trkpt lat="22.926819" lon="109.392556">
        <ele>71.281884</ele>
        <time>2026-08-15T03:40:18.000Z</time>
      </trkpt>
      <trkpt lat="22.926862" lon="109.392569">
        <ele>71.307246</ele>
        <time>2026-08-15T03:40:19.000Z</time>
      </trkpt>
      <trkpt lat="22.926906" lon="109.392580">
        <ele>71.332901</ele>
        <time>2026-08-15T03:40:20.000Z</time>
      </trkpt>
      <trkpt lat="22.926952" lon="109.392590">
        <ele>71.359557</ele>
        <time>2026-08-15T03:40:21.000Z</time>
      </trkpt>
      <trkpt lat="22.926999" lon="109.392601">
        <ele>71.386876</ele>
        <time>2026-08-15T03:40:22.000Z</time>
      </trkpt>
      <trkpt lat="22.927046" lon="109.392614">
        <ele>71.414435</ele>
        <time>2026-08-15T03:40:23.000Z</time>
      </trkpt>
      <trkpt lat="22.927094" lon="109.392630">
        <ele>71.442965</ele>
        <time>2026-08-15T03:40:24.000Z</time>
      </trkpt>
      <trkpt lat="22.927140" lon="109.392648">
        <ele>71.470748</ele>
        <time>2026-08-15T03:40:25.000Z</time>
      </trkpt>
      <trkpt lat="22.927186" lon="109.392666">
        <ele>71.498531</ele>
        <time>2026-08-15T03:40:26.000Z</time>
      </trkpt>
      <trkpt lat="22.927231" lon="109.392685">
        <ele>71.525965</ele>
        <time>2026-08-15T03:40:27.000Z</time>
      </trkpt>
      <trkpt lat="22.927277" lon="109.392704">
        <ele>71.553930</ele>
        <time>2026-08-15T03:40:28.000Z</time>
      </trkpt>
      <trkpt lat="22.927322" lon="109.392722">
        <ele>71.581179</ele>
        <time>2026-08-15T03:40:29.000Z</time>
      </trkpt>
      <trkpt lat="22.927369" lon="109.392739">
        <ele>71.609328</ele>
        <time>2026-08-15T03:40:30.000Z</time>
      </trkpt>
      <trkpt lat="22.927415" lon="109.392757">
        <ele>71.637111</ele>
        <time>2026-08-15T03:40:31.000Z</time>
      </trkpt>
      <trkpt lat="22.927461" lon="109.392775">
        <ele>71.664894</ele>
        <time>2026-08-15T03:40:32.000Z</time>
      </trkpt>
      <trkpt lat="22.927507" lon="109.392793">
        <ele>71.692676</ele>
        <time>2026-08-15T03:40:33.000Z</time>
      </trkpt>
      <trkpt lat="22.927554" lon="109.392808">
        <ele>71.720512</ele>
        <time>2026-08-15T03:40:34.000Z</time>
      </trkpt>
      <trkpt lat="22.927600" lon="109.392824">
        <ele>71.747958</ele>
        <time>2026-08-15T03:40:35.000Z</time>
      </trkpt>
      <trkpt lat="22.927647" lon="109.392842">
        <ele>71.776276</ele>
        <time>2026-08-15T03:40:36.000Z</time>
      </trkpt>
      <trkpt lat="22.927695" lon="109.392858">
        <ele>71.804806</ele>
        <time>2026-08-15T03:40:37.000Z</time>
      </trkpt>
      <trkpt lat="22.927743" lon="109.392875">
        <ele>71.833494</ele>
        <time>2026-08-15T03:40:38.000Z</time>
      </trkpt>
      <trkpt lat="22.927789" lon="109.392893">
        <ele>71.861277</ele>
        <time>2026-08-15T03:40:39.000Z</time>
      </trkpt>
      <trkpt lat="22.927835" lon="109.392913">
        <ele>71.889432</ele>
        <time>2026-08-15T03:40:40.000Z</time>
      </trkpt>
      <trkpt lat="22.927881" lon="109.392932">
        <ele>71.917397</ele>
        <time>2026-08-15T03:40:41.000Z</time>
      </trkpt>
      <trkpt lat="22.927928" lon="109.392951">
        <ele>71.945893</ele>
        <time>2026-08-15T03:40:42.000Z</time>
      </trkpt>
      <trkpt lat="22.927975" lon="109.392971">
        <ele>71.974576</ele>
        <time>2026-08-15T03:40:43.000Z</time>
      </trkpt>
      <trkpt lat="22.928021" lon="109.392991">
        <ele>72.002731</ele>
        <time>2026-08-15T03:40:44.000Z</time>
      </trkpt>
      <trkpt lat="22.928068" lon="109.393010">
        <ele>72.031228</ele>
        <time>2026-08-15T03:40:45.000Z</time>
      </trkpt>
      <trkpt lat="22.928113" lon="109.393028">
        <ele>72.058477</ele>
        <time>2026-08-15T03:40:46.000Z</time>
      </trkpt>
      <trkpt lat="22.928159" lon="109.393046">
        <ele>72.086260</ele>
        <time>2026-08-15T03:40:47.000Z</time>
      </trkpt>
      <trkpt lat="22.928204" lon="109.393065">
        <ele>72.113694</ele>
        <time>2026-08-15T03:40:48.000Z</time>
      </trkpt>
      <trkpt lat="22.928251" lon="109.393083">
        <ele>72.142012</ele>
        <time>2026-08-15T03:40:49.000Z</time>
      </trkpt>
      <trkpt lat="22.928298" lon="109.393100">
        <ele>72.170161</ele>
        <time>2026-08-15T03:40:50.000Z</time>
      </trkpt>
      <trkpt lat="22.928345" lon="109.393119">
        <ele>72.184777</ele>
        <time>2026-08-15T03:40:51.000Z</time>
      </trkpt>
      <trkpt lat="22.928392" lon="109.393136">
        <ele>72.176605</ele>
        <time>2026-08-15T03:40:52.000Z</time>
      </trkpt>
      <trkpt lat="22.928439" lon="109.393153">
        <ele>72.168433</ele>
        <time>2026-08-15T03:40:53.000Z</time>
      </trkpt>
      <trkpt lat="22.928487" lon="109.393170">
        <ele>72.160104</ele>
        <time>2026-08-15T03:40:54.000Z</time>
      </trkpt>
      <trkpt lat="22.928537" lon="109.393188">
        <ele>72.151415</ele>
        <time>2026-08-15T03:40:55.000Z</time>
      </trkpt>
      <trkpt lat="22.928588" lon="109.393205">
        <ele>72.142614</ele>
        <time>2026-08-15T03:40:56.000Z</time>
      </trkpt>
      <trkpt lat="22.928635" lon="109.393219">
        <ele>72.134575</ele>
        <time>2026-08-15T03:40:57.000Z</time>
      </trkpt>
      <trkpt lat="22.928681" lon="109.393237">
        <ele>72.126509</ele>
        <time>2026-08-15T03:40:58.000Z</time>
      </trkpt>
      <trkpt lat="22.928728" lon="109.393255">
        <ele>72.118288</ele>
        <time>2026-08-15T03:40:59.000Z</time>
      </trkpt>
      <trkpt lat="22.928777" lon="109.393272">
        <ele>72.109802</ele>
        <time>2026-08-15T03:41:00.000Z</time>
      </trkpt>
      <trkpt lat="22.928826" lon="109.393290">
        <ele>72.101269</ele>
        <time>2026-08-15T03:41:01.000Z</time>
      </trkpt>
      <trkpt lat="22.928874" lon="109.393309">
        <ele>72.092841</ele>
        <time>2026-08-15T03:41:02.000Z</time>
      </trkpt>
      <trkpt lat="22.928921" lon="109.393329">
        <ele>72.084514</ele>
        <time>2026-08-15T03:41:03.000Z</time>
      </trkpt>
      <trkpt lat="22.928970" lon="109.393348">
        <ele>72.075931</ele>
        <time>2026-08-15T03:41:04.000Z</time>
      </trkpt>
      <trkpt lat="22.929019" lon="109.393366">
        <ele>72.067398</ele>
        <time>2026-08-15T03:41:05.000Z</time>
      </trkpt>
      <trkpt lat="22.929068" lon="109.393383">
        <ele>72.058912</ele>
        <time>2026-08-15T03:41:06.000Z</time>
      </trkpt>
      <trkpt lat="22.929117" lon="109.393401">
        <ele>72.050379</ele>
        <time>2026-08-15T03:41:07.000Z</time>
      </trkpt>
      <trkpt lat="22.929165" lon="109.393421">
        <ele>72.041898</ele>
        <time>2026-08-15T03:41:08.000Z</time>
      </trkpt>
      <trkpt lat="22.929213" lon="109.393441">
        <ele>72.033417</ele>
        <time>2026-08-15T03:41:09.000Z</time>
      </trkpt>
      <trkpt lat="22.929263" lon="109.393458">
        <ele>72.024774</ele>
        <time>2026-08-15T03:41:10.000Z</time>
      </trkpt>
      <trkpt lat="22.929314" lon="109.393472">
        <ele>72.016097</ele>
        <time>2026-08-15T03:41:11.000Z</time>
      </trkpt>
      <trkpt lat="22.929368" lon="109.393486">
        <ele>72.006939</ele>
        <time>2026-08-15T03:41:12.000Z</time>
      </trkpt>
      <trkpt lat="22.929421" lon="109.393500">
        <ele>71.997941</ele>
        <time>2026-08-15T03:41:13.000Z</time>
      </trkpt>
      <trkpt lat="22.929475" lon="109.393516">
        <ele>71.988707</ele>
        <time>2026-08-15T03:41:14.000Z</time>
      </trkpt>
      <trkpt lat="22.929528" lon="109.393531">
        <ele>71.979672</ele>
        <time>2026-08-15T03:41:15.000Z</time>
      </trkpt>
      <trkpt lat="22.929581" lon="109.393543">
        <ele>71.970741</ele>
        <time>2026-08-15T03:41:16.000Z</time>
      </trkpt>
      <trkpt lat="22.929633" lon="109.393556">
        <ele>71.961939</ele>
        <time>2026-08-15T03:41:17.000Z</time>
      </trkpt>
      <trkpt lat="22.929685" lon="109.393569">
        <ele>71.953137</ele>
        <time>2026-08-15T03:41:18.000Z</time>
      </trkpt>
      <trkpt lat="22.929738" lon="109.393581">
        <ele>71.944206</ele>
        <time>2026-08-15T03:41:19.000Z</time>
      </trkpt>
      <trkpt lat="22.929791" lon="109.393589">
        <ele>71.935379</ele>
        <time>2026-08-15T03:41:20.000Z</time>
      </trkpt>
      <trkpt lat="22.929842" lon="109.393599">
        <ele>71.926830</ele>
        <time>2026-08-15T03:41:21.000Z</time>
      </trkpt>
      <trkpt lat="22.929896" lon="109.393607">
        <ele>71.917840</ele>
        <time>2026-08-15T03:41:22.000Z</time>
      </trkpt>
      <trkpt lat="22.929949" lon="109.393612">
        <ele>71.909064</ele>
        <time>2026-08-15T03:41:23.000Z</time>
      </trkpt>
      <trkpt lat="22.930002" lon="109.393615">
        <ele>71.900309</ele>
        <time>2026-08-15T03:41:24.000Z</time>
      </trkpt>
      <trkpt lat="22.930057" lon="109.393617">
        <ele>71.891231</ele>
        <time>2026-08-15T03:41:25.000Z</time>
      </trkpt>
      <trkpt lat="22.930112" lon="109.393616">
        <ele>71.818830</ele>
        <time>2026-08-15T03:41:26.000Z</time>
      </trkpt>
      <trkpt lat="22.930167" lon="109.393615">
        <ele>71.746190</ele>
        <time>2026-08-15T03:41:27.000Z</time>
      </trkpt>
      <trkpt lat="22.930224" lon="109.393612">
        <ele>71.670831</ele>
        <time>2026-08-15T03:41:28.000Z</time>
      </trkpt>
      <trkpt lat="22.930281" lon="109.393609">
        <ele>71.595471</ele>
        <time>2026-08-15T03:41:29.000Z</time>
      </trkpt>
      <trkpt lat="22.930336" lon="109.393611">
        <ele>71.522801</ele>
        <time>2026-08-15T03:41:30.000Z</time>
      </trkpt>
      <trkpt lat="22.930390" lon="109.393609">
        <ele>71.451450</ele>
        <time>2026-08-15T03:41:31.000Z</time>
      </trkpt>
      <trkpt lat="22.930446" lon="109.393604">
        <ele>71.377250</ele>
        <time>2026-08-15T03:41:32.000Z</time>
      </trkpt>
      <trkpt lat="22.930504" lon="109.393597">
        <ele>71.300187</ele>
        <time>2026-08-15T03:41:33.000Z</time>
      </trkpt>
      <trkpt lat="22.930561" lon="109.393589">
        <ele>71.224290</ele>
        <time>2026-08-15T03:41:34.000Z</time>
      </trkpt>
      <trkpt lat="22.930619" lon="109.393580">
        <ele>71.146920</ele>
        <time>2026-08-15T03:41:35.000Z</time>
      </trkpt>
      <trkpt lat="22.930679" lon="109.393568">
        <ele>71.066355</ele>
        <time>2026-08-15T03:41:36.000Z</time>
      </trkpt>
      <trkpt lat="22.930739" lon="109.393555">
        <ele>70.985560</ele>
        <time>2026-08-15T03:41:37.000Z</time>
      </trkpt>
      <trkpt lat="22.930798" lon="109.393542">
        <ele>70.906060</ele>
        <time>2026-08-15T03:41:38.000Z</time>
      </trkpt>
      <trkpt lat="22.930857" lon="109.393527">
        <ele>70.826041</ele>
        <time>2026-08-15T03:41:39.000Z</time>
      </trkpt>
      <trkpt lat="22.930915" lon="109.393513">
        <ele>70.747580</ele>
        <time>2026-08-15T03:41:40.000Z</time>
      </trkpt>
      <trkpt lat="22.930973" lon="109.393497">
        <ele>70.668555</ele>
        <time>2026-08-15T03:41:41.000Z</time>
      </trkpt>
      <trkpt lat="22.931033" lon="109.393482">
        <ele>70.587249</ele>
        <time>2026-08-15T03:41:42.000Z</time>
      </trkpt>
      <trkpt lat="22.931093" lon="109.393466">
        <ele>70.505662</ele>
        <time>2026-08-15T03:41:43.000Z</time>
      </trkpt>
      <trkpt lat="22.931155" lon="109.393449">
        <ele>70.421219</ele>
        <time>2026-08-15T03:41:44.000Z</time>
      </trkpt>
      <trkpt lat="22.931216" lon="109.393433">
        <ele>70.338349</ele>
        <time>2026-08-15T03:41:45.000Z</time>
      </trkpt>
      <trkpt lat="22.931278" lon="109.393417">
        <ele>70.254194</ele>
        <time>2026-08-15T03:41:46.000Z</time>
      </trkpt>
      <trkpt lat="22.931340" lon="109.393400">
        <ele>70.169750</ele>
        <time>2026-08-15T03:41:47.000Z</time>
      </trkpt>
      <trkpt lat="22.931400" lon="109.393384">
        <ele>70.088163</ele>
        <time>2026-08-15T03:41:48.000Z</time>
      </trkpt>
      <trkpt lat="22.931459" lon="109.393367">
        <ele>70.007555</ele>
        <time>2026-08-15T03:41:49.000Z</time>
      </trkpt>
      <trkpt lat="22.931519" lon="109.393350">
        <ele>69.925669</ele>
        <time>2026-08-15T03:41:50.000Z</time>
      </trkpt>
      <trkpt lat="22.931578" lon="109.393335">
        <ele>69.845650</ele>
        <time>2026-08-15T03:41:51.000Z</time>
      </trkpt>
      <trkpt lat="22.931638" lon="109.393319">
        <ele>69.764063</ele>
        <time>2026-08-15T03:41:52.000Z</time>
      </trkpt>
      <trkpt lat="22.931699" lon="109.393302">
        <ele>69.680899</ele>
        <time>2026-08-15T03:41:53.000Z</time>
      </trkpt>
      <trkpt lat="22.931759" lon="109.393283">
        <ele>69.598366</ele>
        <time>2026-08-15T03:41:54.000Z</time>
      </trkpt>
      <trkpt lat="22.931817" lon="109.393265">
        <ele>69.518707</ele>
        <time>2026-08-15T03:41:55.000Z</time>
      </trkpt>
      <trkpt lat="22.931876" lon="109.393247">
        <ele>69.452067</ele>
        <time>2026-08-15T03:41:56.000Z</time>
      </trkpt>
      <trkpt lat="22.931934" lon="109.393232">
        <ele>69.387714</ele>
        <time>2026-08-15T03:41:57.000Z</time>
      </trkpt>
      <trkpt lat="22.931993" lon="109.393218">
        <ele>69.322530</ele>
        <time>2026-08-15T03:41:58.000Z</time>
      </trkpt>
      <trkpt lat="22.932050" lon="109.393207">
        <ele>69.260043</ele>
        <time>2026-08-15T03:41:59.000Z</time>
      </trkpt>
      <trkpt lat="22.932106" lon="109.393194">
        <ele>69.198234</ele>
        <time>2026-08-15T03:42:00.000Z</time>
      </trkpt>
      <trkpt lat="22.932163" lon="109.393178">
        <ele>69.134688</ele>
        <time>2026-08-15T03:42:01.000Z</time>
      </trkpt>
      <trkpt lat="22.932220" lon="109.393161">
        <ele>69.070887</ele>
        <time>2026-08-15T03:42:02.000Z</time>
      </trkpt>
      <trkpt lat="22.932276" lon="109.393145">
        <ele>69.008386</ele>
        <time>2026-08-15T03:42:03.000Z</time>
      </trkpt>
      <trkpt lat="22.932332" lon="109.393128">
        <ele>68.945625</ele>
        <time>2026-08-15T03:42:04.000Z</time>
      </trkpt>
      <trkpt lat="22.932388" lon="109.393112">
        <ele>68.883124</ele>
        <time>2026-08-15T03:42:05.000Z</time>
      </trkpt>
      <trkpt lat="22.932447" lon="109.393096">
        <ele>68.817487</ele>
        <time>2026-08-15T03:42:06.000Z</time>
      </trkpt>
      <trkpt lat="22.932503" lon="109.393081">
        <ele>68.755231</ele>
        <time>2026-08-15T03:42:07.000Z</time>
      </trkpt>
      <trkpt lat="22.932560" lon="109.393065">
        <ele>68.691686</ele>
        <time>2026-08-15T03:42:08.000Z</time>
      </trkpt>
      <trkpt lat="22.932616" lon="109.393048">
        <ele>68.628925</ele>
        <time>2026-08-15T03:42:09.000Z</time>
      </trkpt>
      <trkpt lat="22.932673" lon="109.393031">
        <ele>68.565124</ele>
        <time>2026-08-15T03:42:10.000Z</time>
      </trkpt>
      <trkpt lat="22.932728" lon="109.393014">
        <ele>68.503401</ele>
        <time>2026-08-15T03:42:11.000Z</time>
      </trkpt>
      <trkpt lat="22.932784" lon="109.392999">
        <ele>68.441146</ele>
        <time>2026-08-15T03:42:12.000Z</time>
      </trkpt>
      <trkpt lat="22.932842" lon="109.392983">
        <ele>68.376555</ele>
        <time>2026-08-15T03:42:13.000Z</time>
      </trkpt>
      <trkpt lat="22.932900" lon="109.392968">
        <ele>68.312202</ele>
        <time>2026-08-15T03:42:14.000Z</time>
      </trkpt>
      <trkpt lat="22.932958" lon="109.392955">
        <ele>68.248280</ele>
        <time>2026-08-15T03:42:15.000Z</time>
      </trkpt>
      <trkpt lat="22.933017" lon="109.392939">
        <ele>68.182642</ele>
        <time>2026-08-15T03:42:16.000Z</time>
      </trkpt>
      <trkpt lat="22.933075" lon="109.392924">
        <ele>68.118289</ele>
        <time>2026-08-15T03:42:17.000Z</time>
      </trkpt>
      <trkpt lat="22.933131" lon="109.392910">
        <ele>68.056264</ele>
        <time>2026-08-15T03:42:18.000Z</time>
      </trkpt>
      <trkpt lat="22.933189" lon="109.392895">
        <ele>67.991911</ele>
        <time>2026-08-15T03:42:19.000Z</time>
      </trkpt>
      <trkpt lat="22.933248" lon="109.392880">
        <ele>67.926507</ele>
        <time>2026-08-15T03:42:20.000Z</time>
      </trkpt>
      <trkpt lat="22.933306" lon="109.392865">
        <ele>67.862154</ele>
        <time>2026-08-15T03:42:21.000Z</time>
      </trkpt>
      <trkpt lat="22.933365" lon="109.392851">
        <ele>67.796970</ele>
        <time>2026-08-15T03:42:22.000Z</time>
      </trkpt>
      <trkpt lat="22.933424" lon="109.392834">
        <ele>67.731085</ele>
        <time>2026-08-15T03:42:23.000Z</time>
      </trkpt>
      <trkpt lat="22.933483" lon="109.392818">
        <ele>67.665447</ele>
        <time>2026-08-15T03:42:24.000Z</time>
      </trkpt>
      <trkpt lat="22.933541" lon="109.392803">
        <ele>67.601094</ele>
        <time>2026-08-15T03:42:25.000Z</time>
      </trkpt>
      <trkpt lat="22.933600" lon="109.392788">
        <ele>67.568925</ele>
        <time>2026-08-15T03:42:26.000Z</time>
      </trkpt>
      <trkpt lat="22.933658" lon="109.392773">
        <ele>67.559462</ele>
        <time>2026-08-15T03:42:27.000Z</time>
      </trkpt>
      <trkpt lat="22.933716" lon="109.392758">
        <ele>67.550000</ele>
        <time>2026-08-15T03:42:28.000Z</time>
      </trkpt>
      <trkpt lat="22.933774" lon="109.392743">
        <ele>67.540537</ele>
        <time>2026-08-15T03:42:29.000Z</time>
      </trkpt>
      <trkpt lat="22.933831" lon="109.392727">
        <ele>67.531193</ele>
        <time>2026-08-15T03:42:30.000Z</time>
      </trkpt>
      <trkpt lat="22.933891" lon="109.392711">
        <ele>67.521388</ele>
        <time>2026-08-15T03:42:31.000Z</time>
      </trkpt>
      <trkpt lat="22.933949" lon="109.392695">
        <ele>67.511890</ele>
        <time>2026-08-15T03:42:32.000Z</time>
      </trkpt>
      <trkpt lat="22.934006" lon="109.392678">
        <ele>67.502509</ele>
        <time>2026-08-15T03:42:33.000Z</time>
      </trkpt>
      <trkpt lat="22.934063" lon="109.392663">
        <ele>67.493200</ele>
        <time>2026-08-15T03:42:34.000Z</time>
      </trkpt>
      <trkpt lat="22.934120" lon="109.392649">
        <ele>67.483925</ele>
        <time>2026-08-15T03:42:35.000Z</time>
      </trkpt>
      <trkpt lat="22.934177" lon="109.392634">
        <ele>67.474617</ele>
        <time>2026-08-15T03:42:36.000Z</time>
      </trkpt>
      <trkpt lat="22.934234" lon="109.392619">
        <ele>67.465309</ele>
        <time>2026-08-15T03:42:37.000Z</time>
      </trkpt>
      <trkpt lat="22.934290" lon="109.392605">
        <ele>67.456188</ele>
        <time>2026-08-15T03:42:38.000Z</time>
      </trkpt>
      <trkpt lat="22.934345" lon="109.392589">
        <ele>67.447152</ele>
        <time>2026-08-15T03:42:39.000Z</time>
      </trkpt>
      <trkpt lat="22.934400" lon="109.392574">
        <ele>67.438151</ele>
        <time>2026-08-15T03:42:40.000Z</time>
      </trkpt>
      <trkpt lat="22.934455" lon="109.392559">
        <ele>67.429151</ele>
        <time>2026-08-15T03:42:41.000Z</time>
      </trkpt>
      <trkpt lat="22.934509" lon="109.392546">
        <ele>67.420373</ele>
        <time>2026-08-15T03:42:42.000Z</time>
      </trkpt>
      <trkpt lat="22.934564" lon="109.392532">
        <ele>67.411407</ele>
        <time>2026-08-15T03:42:43.000Z</time>
      </trkpt>
      <trkpt lat="22.934619" lon="109.392519">
        <ele>67.402474</ele>
        <time>2026-08-15T03:42:44.000Z</time>
      </trkpt>
      <trkpt lat="22.934672" lon="109.392505">
        <ele>67.393817</ele>
        <time>2026-08-15T03:42:45.000Z</time>
      </trkpt>
      <trkpt lat="22.934726" lon="109.392490">
        <ele>67.384971</ele>
        <time>2026-08-15T03:42:46.000Z</time>
      </trkpt>
      <trkpt lat="22.934780" lon="109.392478">
        <ele>67.376223</ele>
        <time>2026-08-15T03:42:47.000Z</time>
      </trkpt>
      <trkpt lat="22.934835" lon="109.392464">
        <ele>67.367257</ele>
        <time>2026-08-15T03:42:48.000Z</time>
      </trkpt>
      <trkpt lat="22.934890" lon="109.392448">
        <ele>67.358220</ele>
        <time>2026-08-15T03:42:49.000Z</time>
      </trkpt>
      <trkpt lat="22.934944" lon="109.392432">
        <ele>67.349337</ele>
        <time>2026-08-15T03:42:50.000Z</time>
      </trkpt>
      <trkpt lat="22.934998" lon="109.392417">
        <ele>67.340490</ele>
        <time>2026-08-15T03:42:51.000Z</time>
      </trkpt>
      <trkpt lat="22.935052" lon="109.392402">
        <ele>67.331644</ele>
        <time>2026-08-15T03:42:52.000Z</time>
      </trkpt>
      <trkpt lat="22.935105" lon="109.392386">
        <ele>67.322914</ele>
        <time>2026-08-15T03:42:53.000Z</time>
      </trkpt>
      <trkpt lat="22.935157" lon="109.392371">
        <ele>67.314374</ele>
        <time>2026-08-15T03:42:54.000Z</time>
      </trkpt>
      <trkpt lat="22.935209" lon="109.392356">
        <ele>67.305835</ele>
        <time>2026-08-15T03:42:55.000Z</time>
      </trkpt>
      <trkpt lat="22.935262" lon="109.392343">
        <ele>67.297212</ele>
        <time>2026-08-15T03:42:56.000Z</time>
      </trkpt>
      <trkpt lat="22.935314" lon="109.392330">
        <ele>67.289844</ele>
        <time>2026-08-15T03:42:57.000Z</time>
      </trkpt>
      <trkpt lat="22.935366" lon="109.392317">
        <ele>67.302083</ele>
        <time>2026-08-15T03:42:58.000Z</time>
      </trkpt>
      <trkpt lat="22.935418" lon="109.392304">
        <ele>67.314323</ele>
        <time>2026-08-15T03:42:59.000Z</time>
      </trkpt>
      <trkpt lat="22.935470" lon="109.392290">
        <ele>67.326612</ele>
        <time>2026-08-15T03:43:00.000Z</time>
      </trkpt>
      <trkpt lat="22.935521" lon="109.392276">
        <ele>67.338678</ele>
        <time>2026-08-15T03:43:01.000Z</time>
      </trkpt>
      <trkpt lat="22.935573" lon="109.392261">
        <ele>67.351020</ele>
        <time>2026-08-15T03:43:02.000Z</time>
      </trkpt>
      <trkpt lat="22.935625" lon="109.392246">
        <ele>67.363361</ele>
        <time>2026-08-15T03:43:03.000Z</time>
      </trkpt>
      <trkpt lat="22.935677" lon="109.392233">
        <ele>67.375601</ele>
        <time>2026-08-15T03:43:04.000Z</time>
      </trkpt>
      <trkpt lat="22.935728" lon="109.392221">
        <ele>67.387570</ele>
        <time>2026-08-15T03:43:05.000Z</time>
      </trkpt>
      <trkpt lat="22.935779" lon="109.392208">
        <ele>67.399587</ele>
        <time>2026-08-15T03:43:06.000Z</time>
      </trkpt>
      <trkpt lat="22.935829" lon="109.392194">
        <ele>67.411431</ele>
        <time>2026-08-15T03:43:07.000Z</time>
      </trkpt>
      <trkpt lat="22.935880" lon="109.392180">
        <ele>67.423497</ele>
        <time>2026-08-15T03:43:08.000Z</time>
      </trkpt>
      <trkpt lat="22.935930" lon="109.392167">
        <ele>67.435290</ele>
        <time>2026-08-15T03:43:09.000Z</time>
      </trkpt>
      <trkpt lat="22.935979" lon="109.392153">
        <ele>67.446912</ele>
        <time>2026-08-15T03:43:10.000Z</time>
      </trkpt>
      <trkpt lat="22.936028" lon="109.392140">
        <ele>67.458482</ele>
        <time>2026-08-15T03:43:11.000Z</time>
      </trkpt>
      <trkpt lat="22.936075" lon="109.392127">
        <ele>67.469607</ele>
        <time>2026-08-15T03:43:12.000Z</time>
      </trkpt>
      <trkpt lat="22.936121" lon="109.392116">
        <ele>67.480411</ele>
        <time>2026-08-15T03:43:13.000Z</time>
      </trkpt>
      <trkpt lat="22.936167" lon="109.392105">
        <ele>67.491216</ele>
        <time>2026-08-15T03:43:14.000Z</time>
      </trkpt>
      <trkpt lat="22.936214" lon="109.392094">
        <ele>67.502244</ele>
        <time>2026-08-15T03:43:15.000Z</time>
      </trkpt>
      <trkpt lat="22.936261" lon="109.392082">
        <ele>67.513319</ele>
        <time>2026-08-15T03:43:16.000Z</time>
      </trkpt>
      <trkpt lat="22.936308" lon="109.392070">
        <ele>67.524394</ele>
        <time>2026-08-15T03:43:17.000Z</time>
      </trkpt>
      <trkpt lat="22.936357" lon="109.392057">
        <ele>67.535964</ele>
        <time>2026-08-15T03:43:18.000Z</time>
      </trkpt>
      <trkpt lat="22.936404" lon="109.392043">
        <ele>67.547143</ele>
        <time>2026-08-15T03:43:19.000Z</time>
      </trkpt>
      <trkpt lat="22.936450" lon="109.392030">
        <ele>67.558046</ele>
        <time>2026-08-15T03:43:20.000Z</time>
      </trkpt>
      <trkpt lat="22.936495" lon="109.392018">
        <ele>67.568674</ele>
        <time>2026-08-15T03:43:21.000Z</time>
      </trkpt>
      <trkpt lat="22.936542" lon="109.392003">
        <ele>67.579911</ele>
        <time>2026-08-15T03:43:22.000Z</time>
      </trkpt>
      <trkpt lat="22.936593" lon="109.391985">
        <ele>67.592212</ele>
        <time>2026-08-15T03:43:23.000Z</time>
      </trkpt>
      <trkpt lat="22.936640" lon="109.391971">
        <ele>67.603391</ele>
        <time>2026-08-15T03:43:24.000Z</time>
      </trkpt>
      <trkpt lat="22.936683" lon="109.391961">
        <ele>67.613478</ele>
        <time>2026-08-15T03:43:25.000Z</time>
      </trkpt>
      <trkpt lat="22.936725" lon="109.391951">
        <ele>67.623340</ele>
        <time>2026-08-15T03:43:26.000Z</time>
      </trkpt>
      <trkpt lat="22.936763" lon="109.391939">
        <ele>67.632418</ele>
        <time>2026-08-15T03:43:27.000Z</time>
      </trkpt>
      <trkpt lat="22.936799" lon="109.391929">
        <ele>67.640941</ele>
        <time>2026-08-15T03:43:28.000Z</time>
      </trkpt>
      <trkpt lat="22.936832" lon="109.391919">
        <ele>67.648800</ele>
        <time>2026-08-15T03:43:29.000Z</time>
      </trkpt>
      <trkpt lat="22.936865" lon="109.391909">
        <ele>67.656659</ele>
        <time>2026-08-15T03:43:30.000Z</time>
      </trkpt>
      <trkpt lat="22.936896" lon="109.391902">
        <ele>67.663922</ele>
        <time>2026-08-15T03:43:31.000Z</time>
      </trkpt>
      <trkpt lat="22.936926" lon="109.391894">
        <ele>67.671007</ele>
        <time>2026-08-15T03:43:32.000Z</time>
      </trkpt>
      <trkpt lat="22.936952" lon="109.391887">
        <ele>67.677152</ele>
        <time>2026-08-15T03:43:33.000Z</time>
      </trkpt>
      <trkpt lat="22.936976" lon="109.391885">
        <ele>67.682673</ele>
        <time>2026-08-15T03:43:34.000Z</time>
      </trkpt>
      <trkpt lat="22.936996" lon="109.391892">
        <ele>67.687493</ele>
        <time>2026-08-15T03:43:35.000Z</time>
      </trkpt>
      <trkpt lat="22.937010" lon="109.391909">
        <ele>67.692311</ele>
        <time>2026-08-15T03:43:36.000Z</time>
      </trkpt>
      <trkpt lat="22.937020" lon="109.391928">
        <ele>67.696933</ele>
        <time>2026-08-15T03:43:37.000Z</time>
      </trkpt>
      <trkpt lat="22.937023" lon="109.391954">
        <ele>67.700209</ele>
        <time>2026-08-15T03:43:38.000Z</time>
      </trkpt>
      <trkpt lat="22.937025" lon="109.391982">
        <ele>67.687175</ele>
        <time>2026-08-15T03:43:39.000Z</time>
      </trkpt>
      <trkpt lat="22.937028" lon="109.392010">
        <ele>67.674093</ele>
        <time>2026-08-15T03:43:40.000Z</time>
      </trkpt>
      <trkpt lat="22.937029" lon="109.392036">
        <ele>67.662016</ele>
        <time>2026-08-15T03:43:41.000Z</time>
      </trkpt>
      <trkpt lat="22.937030" lon="109.392053">
        <ele>67.654111</ele>
        <time>2026-08-15T03:43:42.000Z</time>
      </trkpt>
      <trkpt lat="22.937029" lon="109.392061">
        <ele>67.650364</ele>
        <time>2026-08-15T03:43:43.000Z</time>
      </trkpt>
      <trkpt lat="22.936985" lon="109.392139">
        <ele>67.607914</ele>
        <time>2026-08-15T03:45:26.000Z</time>
      </trkpt>
      <trkpt lat="22.936980" lon="109.392164">
        <ele>67.596042</ele>
        <time>2026-08-15T03:45:27.000Z</time>
      </trkpt>
      <trkpt lat="22.936977" lon="109.392191">
        <ele>67.583421</ele>
        <time>2026-08-15T03:45:28.000Z</time>
      </trkpt>
      <trkpt lat="22.936972" lon="109.392216">
        <ele>67.571548</ele>
        <time>2026-08-15T03:45:29.000Z</time>
      </trkpt>
      <trkpt lat="22.936965" lon="109.392244">
        <ele>67.558083</ele>
        <time>2026-08-15T03:45:30.000Z</time>
      </trkpt>
      <trkpt lat="22.936959" lon="109.392273">
        <ele>67.544289</ele>
        <time>2026-08-15T03:45:31.000Z</time>
      </trkpt>
      <trkpt lat="22.936950" lon="109.392305">
        <ele>67.528762</ele>
        <time>2026-08-15T03:45:32.000Z</time>
      </trkpt>
      <trkpt lat="22.936941" lon="109.392337">
        <ele>67.513234</ele>
        <time>2026-08-15T03:45:33.000Z</time>
      </trkpt>
      <trkpt lat="22.936933" lon="109.392369">
        <ele>67.497845</ele>
        <time>2026-08-15T03:45:34.000Z</time>
      </trkpt>
      <trkpt lat="22.936925" lon="109.392403">
        <ele>67.481560</ele>
        <time>2026-08-15T03:45:35.000Z</time>
      </trkpt>
      <trkpt lat="22.936916" lon="109.392437">
        <ele>67.465142</ele>
        <time>2026-08-15T03:45:36.000Z</time>
      </trkpt>
      <trkpt lat="22.936908" lon="109.392473">
        <ele>67.447955</ele>
        <time>2026-08-15T03:45:37.000Z</time>
      </trkpt>
      <trkpt lat="22.936898" lon="109.392510">
        <ele>67.430060</ele>
        <time>2026-08-15T03:45:38.000Z</time>
      </trkpt>
      <trkpt lat="22.936888" lon="109.392547">
        <ele>67.412165</ele>
        <time>2026-08-15T03:45:39.000Z</time>
      </trkpt>
      <trkpt lat="22.936879" lon="109.392585">
        <ele>67.393955</ele>
        <time>2026-08-15T03:45:40.000Z</time>
      </trkpt>
      <trkpt lat="22.936869" lon="109.392622">
        <ele>67.376060</ele>
        <time>2026-08-15T03:45:41.000Z</time>
      </trkpt>
      <trkpt lat="22.936859" lon="109.392656">
        <ele>67.359496</ele>
        <time>2026-08-15T03:45:42.000Z</time>
      </trkpt>
      <trkpt lat="22.936849" lon="109.392688">
        <ele>67.343814</ele>
        <time>2026-08-15T03:45:43.000Z</time>
      </trkpt>
      <trkpt lat="22.936841" lon="109.392720">
        <ele>67.328425</ele>
        <time>2026-08-15T03:45:44.000Z</time>
      </trkpt>
      <trkpt lat="22.936834" lon="109.392748">
        <ele>67.314961</ele>
        <time>2026-08-15T03:45:45.000Z</time>
      </trkpt>
      <trkpt lat="22.936825" lon="109.392761">
        <ele>67.307413</ele>
        <time>2026-08-15T03:45:46.000Z</time>
      </trkpt>
      <trkpt lat="22.936821" lon="109.392780">
        <ele>67.298368</ele>
        <time>2026-08-15T03:45:47.000Z</time>
      </trkpt>
      <trkpt lat="22.936815" lon="109.392804">
        <ele>67.286827</ele>
        <time>2026-08-15T03:45:48.000Z</time>
      </trkpt>
      <trkpt lat="22.936808" lon="109.392826">
        <ele>67.276025</ele>
        <time>2026-08-15T03:45:49.000Z</time>
      </trkpt>
      <trkpt lat="22.936802" lon="109.392848">
        <ele>67.265376</ele>
        <time>2026-08-15T03:45:50.000Z</time>
      </trkpt>
      <trkpt lat="22.936797" lon="109.392868">
        <ele>67.255759</ele>
        <time>2026-08-15T03:45:51.000Z</time>
      </trkpt>
      <trkpt lat="22.936794" lon="109.392887">
        <ele>67.246812</ele>
        <time>2026-08-15T03:45:52.000Z</time>
      </trkpt>
      <trkpt lat="22.936790" lon="109.392903">
        <ele>67.239118</ele>
        <time>2026-08-15T03:45:53.000Z</time>
      </trkpt>
      <trkpt lat="22.936786" lon="109.392914">
        <ele>67.233630</ele>
        <time>2026-08-15T03:45:54.000Z</time>
      </trkpt>
      <trkpt lat="22.936785" lon="109.392919">
        <ele>67.231255</ele>
        <time>2026-08-15T03:45:55.000Z</time>
      </trkpt>
      <trkpt lat="22.936778" lon="109.392972">
        <ele>67.206407</ele>
        <time>2026-08-15T03:46:26.000Z</time>
      </trkpt>
      <trkpt lat="22.936770" lon="109.392998">
        <ele>67.193685</ele>
        <time>2026-08-15T03:46:27.000Z</time>
      </trkpt>
      <trkpt lat="22.936763" lon="109.393025">
        <ele>67.180668</ele>
        <time>2026-08-15T03:46:28.000Z</time>
      </trkpt>
      <trkpt lat="22.936757" lon="109.393054">
        <ele>67.166874</ele>
        <time>2026-08-15T03:46:29.000Z</time>
      </trkpt>
      <trkpt lat="22.936750" lon="109.393082">
        <ele>67.153409</ele>
        <time>2026-08-15T03:46:30.000Z</time>
      </trkpt>
      <trkpt lat="22.936741" lon="109.393113">
        <ele>67.138325</ele>
        <time>2026-08-15T03:46:31.000Z</time>
      </trkpt>
      <trkpt lat="22.936732" lon="109.393145">
        <ele>67.122797</ele>
        <time>2026-08-15T03:46:32.000Z</time>
      </trkpt>
      <trkpt lat="22.936723" lon="109.393178">
        <ele>67.106824</ele>
        <time>2026-08-15T03:46:33.000Z</time>
      </trkpt>
      <trkpt lat="22.936715" lon="109.393213">
        <ele>67.090089</ele>
        <time>2026-08-15T03:46:34.000Z</time>
      </trkpt>
      <trkpt lat="22.936705" lon="109.393249">
        <ele>67.072638</ele>
        <time>2026-08-15T03:46:35.000Z</time>
      </trkpt>
      <trkpt lat="22.936696" lon="109.393285">
        <ele>67.055326</ele>
        <time>2026-08-15T03:46:36.000Z</time>
      </trkpt>
      <trkpt lat="22.936686" lon="109.393321">
        <ele>67.037876</ele>
        <time>2026-08-15T03:46:37.000Z</time>
      </trkpt>
      <trkpt lat="22.936674" lon="109.393359">
        <ele>67.019232</ele>
        <time>2026-08-15T03:46:38.000Z</time>
      </trkpt>
      <trkpt lat="22.936664" lon="109.393398">
        <ele>67.000445</ele>
        <time>2026-08-15T03:46:39.000Z</time>
      </trkpt>
      <trkpt lat="22.936654" lon="109.393437">
        <ele>66.981657</ele>
        <time>2026-08-15T03:46:40.000Z</time>
      </trkpt>
      <trkpt lat="22.936645" lon="109.393476">
        <ele>66.962998</ele>
        <time>2026-08-15T03:46:41.000Z</time>
      </trkpt>
      <trkpt lat="22.936634" lon="109.393514">
        <ele>66.944512</ele>
        <time>2026-08-15T03:46:42.000Z</time>
      </trkpt>
      <trkpt lat="22.936623" lon="109.393555">
        <ele>66.924693</ele>
        <time>2026-08-15T03:46:43.000Z</time>
      </trkpt>
      <trkpt lat="22.936613" lon="109.393597">
        <ele>66.904561</ele>
        <time>2026-08-15T03:46:44.000Z</time>
      </trkpt>
      <trkpt lat="22.936603" lon="109.393639">
        <ele>66.884428</ele>
        <time>2026-08-15T03:46:45.000Z</time>
      </trkpt>
      <trkpt lat="22.936592" lon="109.393681">
        <ele>66.864164</ele>
        <time>2026-08-15T03:46:46.000Z</time>
      </trkpt>
      <trkpt lat="22.936580" lon="109.393724">
        <ele>66.843312</ele>
        <time>2026-08-15T03:46:47.000Z</time>
      </trkpt>
      <trkpt lat="22.936568" lon="109.393766">
        <ele>66.822904</ele>
        <time>2026-08-15T03:46:48.000Z</time>
      </trkpt>
      <trkpt lat="22.936558" lon="109.393808">
        <ele>66.802771</ele>
        <time>2026-08-15T03:46:49.000Z</time>
      </trkpt>
      <trkpt lat="22.936548" lon="109.393851">
        <ele>66.826322</ele>
        <time>2026-08-15T03:46:50.000Z</time>
      </trkpt>
      <trkpt lat="22.936538" lon="109.393894">
        <ele>66.874638</ele>
        <time>2026-08-15T03:46:51.000Z</time>
      </trkpt>
      <trkpt lat="22.936526" lon="109.393935">
        <ele>66.921507</ele>
        <time>2026-08-15T03:46:52.000Z</time>
      </trkpt>
      <trkpt lat="22.936515" lon="109.393978">
        <ele>66.970126</ele>
        <time>2026-08-15T03:46:53.000Z</time>
      </trkpt>
      <trkpt lat="22.936504" lon="109.394021">
        <ele>67.018746</ele>
        <time>2026-08-15T03:46:54.000Z</time>
      </trkpt>
      <trkpt lat="22.936493" lon="109.394064">
        <ele>67.067365</ele>
        <time>2026-08-15T03:46:55.000Z</time>
      </trkpt>
      <trkpt lat="22.936481" lon="109.394107">
        <ele>67.116315</ele>
        <time>2026-08-15T03:46:56.000Z</time>
      </trkpt>
      <trkpt lat="22.936470" lon="109.394152">
        <ele>67.167037</ele>
        <time>2026-08-15T03:46:57.000Z</time>
      </trkpt>
      <trkpt lat="22.936460" lon="109.394197">
        <ele>67.217469</ele>
        <time>2026-08-15T03:46:58.000Z</time>
      </trkpt>
      <trkpt lat="22.936449" lon="109.394242">
        <ele>67.268191</ele>
        <time>2026-08-15T03:46:59.000Z</time>
      </trkpt>
      <trkpt lat="22.936437" lon="109.394285">
        <ele>67.317141</ele>
        <time>2026-08-15T03:47:00.000Z</time>
      </trkpt>
      <trkpt lat="22.936424" lon="109.394329">
        <ele>67.367482</ele>
        <time>2026-08-15T03:47:01.000Z</time>
      </trkpt>
      <trkpt lat="22.936409" lon="109.394373">
        <ele>67.418596</ele>
        <time>2026-08-15T03:47:02.000Z</time>
      </trkpt>
      <trkpt lat="22.936391" lon="109.394415">
        <ele>67.469065</ele>
        <time>2026-08-15T03:47:03.000Z</time>
      </trkpt>
      <trkpt lat="22.936371" lon="109.394456">
        <ele>67.519611</ele>
        <time>2026-08-15T03:47:04.000Z</time>
      </trkpt>
      <trkpt lat="22.936352" lon="109.394498">
        <ele>67.570590</ele>
        <time>2026-08-15T03:47:05.000Z</time>
      </trkpt>
      <trkpt lat="22.936333" lon="109.394541">
        <ele>67.622549</ele>
        <time>2026-08-15T03:47:06.000Z</time>
      </trkpt>
      <trkpt lat="22.936311" lon="109.394582">
        <ele>67.674244</ele>
        <time>2026-08-15T03:47:07.000Z</time>
      </trkpt>
      <trkpt lat="22.936287" lon="109.394623">
        <ele>67.727171</ele>
        <time>2026-08-15T03:47:08.000Z</time>
      </trkpt>
      <trkpt lat="22.936264" lon="109.394664">
        <ele>67.779472</ele>
        <time>2026-08-15T03:47:09.000Z</time>
      </trkpt>
      <trkpt lat="22.936243" lon="109.394704">
        <ele>67.829633</ele>
        <time>2026-08-15T03:47:10.000Z</time>
      </trkpt>
      <trkpt lat="22.936225" lon="109.394743">
        <ele>67.877159</ele>
        <time>2026-08-15T03:47:11.000Z</time>
      </trkpt>
      <trkpt lat="22.936208" lon="109.394780">
        <ele>67.922206</ele>
        <time>2026-08-15T03:47:12.000Z</time>
      </trkpt>
      <trkpt lat="22.936192" lon="109.394810">
        <ele>67.959974</ele>
        <time>2026-08-15T03:47:13.000Z</time>
      </trkpt>
      <trkpt lat="22.936177" lon="109.394835">
        <ele>67.992481</ele>
        <time>2026-08-15T03:47:14.000Z</time>
      </trkpt>
      <trkpt lat="22.936164" lon="109.394853">
        <ele>68.017402</ele>
        <time>2026-08-15T03:47:15.000Z</time>
      </trkpt>
      <trkpt lat="22.936158" lon="109.394865">
        <ele>68.032277</ele>
        <time>2026-08-15T03:47:16.000Z</time>
      </trkpt>
      <trkpt lat="22.936154" lon="109.394872">
        <ele>68.041252</ele>
        <time>2026-08-15T03:47:17.000Z</time>
      </trkpt>
      <trkpt lat="22.936134" lon="109.394914">
        <ele>68.092764</ele>
        <time>2026-08-15T03:47:41.000Z</time>
      </trkpt>
      <trkpt lat="22.936120" lon="109.394939">
        <ele>68.124640</ele>
        <time>2026-08-15T03:47:42.000Z</time>
      </trkpt>
      <trkpt lat="22.936109" lon="109.394965">
        <ele>68.155811</ele>
        <time>2026-08-15T03:47:43.000Z</time>
      </trkpt>
      <trkpt lat="22.936097" lon="109.394991">
        <ele>68.187495</ele>
        <time>2026-08-15T03:47:44.000Z</time>
      </trkpt>
      <trkpt lat="22.936085" lon="109.395019">
        <ele>68.221140</ele>
        <time>2026-08-15T03:47:45.000Z</time>
      </trkpt>
      <trkpt lat="22.936069" lon="109.395046">
        <ele>68.256119</ele>
        <time>2026-08-15T03:47:46.000Z</time>
      </trkpt>
      <trkpt lat="22.936051" lon="109.395075">
        <ele>68.294218</ele>
        <time>2026-08-15T03:47:47.000Z</time>
      </trkpt>
      <trkpt lat="22.936035" lon="109.395103">
        <ele>68.330118</ele>
        <time>2026-08-15T03:47:48.000Z</time>
      </trkpt>
      <trkpt lat="22.936018" lon="109.395129">
        <ele>68.364856</ele>
        <time>2026-08-15T03:47:49.000Z</time>
      </trkpt>
      <trkpt lat="22.936004" lon="109.395158">
        <ele>68.400528</ele>
        <time>2026-08-15T03:47:50.000Z</time>
      </trkpt>
      <trkpt lat="22.935988" lon="109.395187">
        <ele>68.437357</ele>
        <time>2026-08-15T03:47:51.000Z</time>
      </trkpt>
      <trkpt lat="22.935972" lon="109.395213">
        <ele>68.471424</ele>
        <time>2026-08-15T03:47:52.000Z</time>
      </trkpt>
      <trkpt lat="22.935958" lon="109.395237">
        <ele>68.502375</ele>
        <time>2026-08-15T03:47:53.000Z</time>
      </trkpt>
      <trkpt lat="22.935943" lon="109.395258">
        <ele>68.531328</ele>
        <time>2026-08-15T03:47:54.000Z</time>
      </trkpt>
      <trkpt lat="22.935930" lon="109.395278">
        <ele>68.557997</ele>
        <time>2026-08-15T03:47:55.000Z</time>
      </trkpt>
      <trkpt lat="22.935921" lon="109.395293">
        <ele>68.577501</ele>
        <time>2026-08-15T03:47:56.000Z</time>
      </trkpt>
      <trkpt lat="22.935908" lon="109.395309">
        <ele>68.600747</ele>
        <time>2026-08-15T03:47:57.000Z</time>
      </trkpt>
      <trkpt lat="22.935891" lon="109.395325">
        <ele>68.627360</ele>
        <time>2026-08-15T03:47:58.000Z</time>
      </trkpt>
      <trkpt lat="22.935873" lon="109.395340">
        <ele>68.654201</ele>
        <time>2026-08-15T03:47:59.000Z</time>
      </trkpt>
      <trkpt lat="22.935855" lon="109.395354">
        <ele>68.680394</ele>
        <time>2026-08-15T03:48:00.000Z</time>
      </trkpt>
      <trkpt lat="22.935837" lon="109.395367">
        <ele>68.705967</ele>
        <time>2026-08-15T03:48:01.000Z</time>
      </trkpt>
      <trkpt lat="22.935817" lon="109.395382">
        <ele>68.734721</ele>
        <time>2026-08-15T03:48:02.000Z</time>
      </trkpt>
      <trkpt lat="22.935798" lon="109.395397">
        <ele>68.762510</ele>
        <time>2026-08-15T03:48:03.000Z</time>
      </trkpt>
      <trkpt lat="22.935781" lon="109.395413">
        <ele>68.789124</ele>
        <time>2026-08-15T03:48:04.000Z</time>
      </trkpt>
      <trkpt lat="22.935760" lon="109.395426">
        <ele>68.817720</ele>
        <time>2026-08-15T03:48:05.000Z</time>
      </trkpt>
      <trkpt lat="22.935740" lon="109.395438">
        <ele>68.844751</ele>
        <time>2026-08-15T03:48:06.000Z</time>
      </trkpt>
      <trkpt lat="22.935721" lon="109.395450">
        <ele>68.870753</ele>
        <time>2026-08-15T03:48:07.000Z</time>
      </trkpt>
      <trkpt lat="22.935700" lon="109.395462">
        <ele>68.898825</ele>
        <time>2026-08-15T03:48:08.000Z</time>
      </trkpt>
      <trkpt lat="22.935680" lon="109.395471">
        <ele>68.923871</ele>
        <time>2026-08-15T03:48:09.000Z</time>
      </trkpt>
      <trkpt lat="22.935662" lon="109.395477">
        <ele>68.936674</ele>
        <time>2026-08-15T03:48:10.000Z</time>
      </trkpt>
      <trkpt lat="22.935644" lon="109.395492">
        <ele>68.952104</ele>
        <time>2026-08-15T03:48:11.000Z</time>
      </trkpt>
      <trkpt lat="22.935625" lon="109.395513">
        <ele>68.970539</ele>
        <time>2026-08-15T03:48:12.000Z</time>
      </trkpt>
      <trkpt lat="22.935607" lon="109.395536">
        <ele>68.989441</ele>
        <time>2026-08-15T03:48:13.000Z</time>
      </trkpt>
      <trkpt lat="22.935590" lon="109.395561">
        <ele>69.008903</ele>
        <time>2026-08-15T03:48:14.000Z</time>
      </trkpt>
      <trkpt lat="22.935574" lon="109.395581">
        <ele>69.025493</ele>
        <time>2026-08-15T03:48:15.000Z</time>
      </trkpt>
      <trkpt lat="22.935555" lon="109.395601">
        <ele>69.043488</ele>
        <time>2026-08-15T03:48:16.000Z</time>
      </trkpt>
      <trkpt lat="22.935536" lon="109.395625">
        <ele>69.063307</ele>
        <time>2026-08-15T03:48:17.000Z</time>
      </trkpt>
      <trkpt lat="22.935514" lon="109.395652">
        <ele>69.085884</ele>
        <time>2026-08-15T03:48:18.000Z</time>
      </trkpt>
      <trkpt lat="22.935498" lon="109.395675">
        <ele>69.103935</ele>
        <time>2026-08-15T03:48:19.000Z</time>
      </trkpt>
      <trkpt lat="22.935479" lon="109.395701">
        <ele>69.124720</ele>
        <time>2026-08-15T03:48:20.000Z</time>
      </trkpt>
      <trkpt lat="22.935458" lon="109.395730">
        <ele>69.147823</ele>
        <time>2026-08-15T03:48:21.000Z</time>
      </trkpt>
      <trkpt lat="22.935437" lon="109.395757">
        <ele>69.169955</ele>
        <time>2026-08-15T03:48:22.000Z</time>
      </trkpt>
      <trkpt lat="22.935416" lon="109.395787">
        <ele>69.193553</ele>
        <time>2026-08-15T03:48:23.000Z</time>
      </trkpt>
      <trkpt lat="22.935395" lon="109.395817">
        <ele>69.217152</ele>
        <time>2026-08-15T03:48:24.000Z</time>
      </trkpt>
      <trkpt lat="22.935374" lon="109.395848">
        <ele>69.241252</ele>
        <time>2026-08-15T03:48:25.000Z</time>
      </trkpt>
      <trkpt lat="22.935355" lon="109.395881">
        <ele>69.265624</ele>
        <time>2026-08-15T03:48:26.000Z</time>
      </trkpt>
      <trkpt lat="22.935334" lon="109.395915">
        <ele>69.291261</ele>
        <time>2026-08-15T03:48:27.000Z</time>
      </trkpt>
      <trkpt lat="22.935310" lon="109.395947">
        <ele>69.317106</ele>
        <time>2026-08-15T03:48:28.000Z</time>
      </trkpt>
      <trkpt lat="22.935286" lon="109.395978">
        <ele>69.342468</ele>
        <time>2026-08-15T03:48:29.000Z</time>
      </trkpt>
      <trkpt lat="22.935265" lon="109.396012">
        <ele>69.368105</ele>
        <time>2026-08-15T03:48:30.000Z</time>
      </trkpt>
      <trkpt lat="22.935245" lon="109.396045">
        <ele>69.392845</ele>
        <time>2026-08-15T03:48:31.000Z</time>
      </trkpt>
      <trkpt lat="22.935225" lon="109.396079">
        <ele>69.418110</ele>
        <time>2026-08-15T03:48:32.000Z</time>
      </trkpt>
      <trkpt lat="22.935207" lon="109.396115">
        <ele>69.443763</ele>
        <time>2026-08-15T03:48:33.000Z</time>
      </trkpt>
      <trkpt lat="22.935189" lon="109.396152">
        <ele>69.469968</ele>
        <time>2026-08-15T03:48:34.000Z</time>
      </trkpt>
      <trkpt lat="22.935177" lon="109.396195">
        <ele>69.498106</ele>
        <time>2026-08-15T03:48:35.000Z</time>
      </trkpt>
      <trkpt lat="22.935172" lon="109.396239">
        <ele>69.525870</ele>
        <time>2026-08-15T03:48:36.000Z</time>
      </trkpt>
      <trkpt lat="22.935176" lon="109.396285">
        <ele>69.554805</ele>
        <time>2026-08-15T03:48:37.000Z</time>
      </trkpt>
      <trkpt lat="22.935186" lon="109.396330">
        <ele>69.583795</ele>
        <time>2026-08-15T03:48:38.000Z</time>
      </trkpt>
      <trkpt lat="22.935198" lon="109.396374">
        <ele>69.612533</ele>
        <time>2026-08-15T03:48:39.000Z</time>
      </trkpt>
      <trkpt lat="22.935211" lon="109.396418">
        <ele>69.641471</ele>
        <time>2026-08-15T03:48:40.000Z</time>
      </trkpt>
      <trkpt lat="22.935222" lon="109.396458">
        <ele>69.667613</ele>
        <time>2026-08-15T03:48:41.000Z</time>
      </trkpt>
      <trkpt lat="22.935235" lon="109.396499">
        <ele>69.694768</ele>
        <time>2026-08-15T03:48:42.000Z</time>
      </trkpt>
      <trkpt lat="22.935245" lon="109.396538">
        <ele>69.720121</ele>
        <time>2026-08-15T03:48:43.000Z</time>
      </trkpt>
      <trkpt lat="22.935253" lon="109.396575">
        <ele>69.743922</ele>
        <time>2026-08-15T03:48:44.000Z</time>
      </trkpt>
      <trkpt lat="22.935263" lon="109.396611">
        <ele>69.767470</ele>
        <time>2026-08-15T03:48:45.000Z</time>
      </trkpt>
      <trkpt lat="22.935273" lon="109.396646">
        <ele>69.790419</ele>
        <time>2026-08-15T03:48:46.000Z</time>
      </trkpt>
      <trkpt lat="22.935283" lon="109.396682">
        <ele>69.813967</ele>
        <time>2026-08-15T03:48:47.000Z</time>
      </trkpt>
      <trkpt lat="22.935295" lon="109.396720">
        <ele>69.839124</ele>
        <time>2026-08-15T03:48:48.000Z</time>
      </trkpt>
      <trkpt lat="22.935305" lon="109.396761">
        <ele>69.865686</ele>
        <time>2026-08-15T03:48:49.000Z</time>
      </trkpt>
      <trkpt lat="22.935309" lon="109.396804">
        <ele>69.892751</ele>
        <time>2026-08-15T03:48:50.000Z</time>
      </trkpt>
      <trkpt lat="22.935314" lon="109.396848">
        <ele>69.920515</ele>
        <time>2026-08-15T03:48:51.000Z</time>
      </trkpt>
      <trkpt lat="22.935322" lon="109.396891">
        <ele>69.947987</ele>
        <time>2026-08-15T03:48:52.000Z</time>
      </trkpt>
      <trkpt lat="22.935332" lon="109.396937">
        <ele>69.977586</ele>
        <time>2026-08-15T03:48:53.000Z</time>
      </trkpt>
      <trkpt lat="22.935343" lon="109.396984">
        <ele>70.007955</ele>
        <time>2026-08-15T03:48:54.000Z</time>
      </trkpt>
      <trkpt lat="22.935354" lon="109.397031">
        <ele>70.038324</ele>
        <time>2026-08-15T03:48:55.000Z</time>
      </trkpt>
      <trkpt lat="22.935367" lon="109.397081">
        <ele>70.070860</ele>
        <time>2026-08-15T03:48:56.000Z</time>
      </trkpt>
      <trkpt lat="22.935380" lon="109.397128">
        <ele>70.101593</ele>
        <time>2026-08-15T03:48:57.000Z</time>
      </trkpt>
      <trkpt lat="22.935393" lon="109.397175">
        <ele>70.132325</ele>
        <time>2026-08-15T03:48:58.000Z</time>
      </trkpt>
      <trkpt lat="22.935408" lon="109.397221">
        <ele>70.117810</ele>
        <time>2026-08-15T03:48:59.000Z</time>
      </trkpt>
      <trkpt lat="22.935422" lon="109.397268">
        <ele>70.065244</ele>
        <time>2026-08-15T03:49:00.000Z</time>
      </trkpt>
      <trkpt lat="22.935434" lon="109.397317">
        <ele>70.011288</ele>
        <time>2026-08-15T03:49:01.000Z</time>
      </trkpt>
      <trkpt lat="22.935447" lon="109.397368">
        <ele>69.954975</ele>
        <time>2026-08-15T03:49:02.000Z</time>
      </trkpt>
      <trkpt lat="22.935460" lon="109.397419">
        <ele>69.898663</ele>
        <time>2026-08-15T03:49:03.000Z</time>
      </trkpt>
      <trkpt lat="22.935472" lon="109.397470">
        <ele>69.842647</ele>
        <time>2026-08-15T03:49:04.000Z</time>
      </trkpt>
      <trkpt lat="22.935481" lon="109.397522">
        <ele>69.786342</ele>
        <time>2026-08-15T03:49:05.000Z</time>
      </trkpt>
      <trkpt lat="22.935490" lon="109.397575">
        <ele>69.728991</ele>
        <time>2026-08-15T03:49:06.000Z</time>
      </trkpt>
      <trkpt lat="22.935500" lon="109.397631">
        <ele>69.668288</ele>
        <time>2026-08-15T03:49:07.000Z</time>
      </trkpt>
      <trkpt lat="22.935511" lon="109.397692">
        <ele>69.602142</ele>
        <time>2026-08-15T03:49:08.000Z</time>
      </trkpt>
      <trkpt lat="22.935523" lon="109.397760">
        <ele>69.528463</ele>
        <time>2026-08-15T03:49:09.000Z</time>
      </trkpt>
      <trkpt lat="22.935536" lon="109.397827">
        <ele>69.455599</ele>
        <time>2026-08-15T03:49:10.000Z</time>
      </trkpt>
      <trkpt lat="22.935546" lon="109.397894">
        <ele>69.383370</ele>
        <time>2026-08-15T03:49:11.000Z</time>
      </trkpt>
      <trkpt lat="22.935558" lon="109.397969">
        <ele>69.302363</ele>
        <time>2026-08-15T03:49:12.000Z</time>
      </trkpt>
      <trkpt lat="22.935573" lon="109.398044">
        <ele>69.220691</ele>
        <time>2026-08-15T03:49:13.000Z</time>
      </trkpt>
      <trkpt lat="22.935588" lon="109.398117">
        <ele>69.141097</ele>
        <time>2026-08-15T03:49:14.000Z</time>
      </trkpt>
      <trkpt lat="22.935604" lon="109.398189">
        <ele>69.062279</ele>
        <time>2026-08-15T03:49:15.000Z</time>
      </trkpt>
      <trkpt lat="22.935618" lon="109.398260">
        <ele>68.985011</ele>
        <time>2026-08-15T03:49:16.000Z</time>
      </trkpt>
      <trkpt lat="22.935633" lon="109.398330">
        <ele>68.908530</ele>
        <time>2026-08-15T03:49:17.000Z</time>
      </trkpt>
      <trkpt lat="22.935645" lon="109.398397">
        <ele>68.835896</ele>
        <time>2026-08-15T03:49:18.000Z</time>
      </trkpt>
      <trkpt lat="22.935656" lon="109.398466">
        <ele>68.761377</ele>
        <time>2026-08-15T03:49:19.000Z</time>
      </trkpt>
      <trkpt lat="22.935665" lon="109.398533">
        <ele>68.689324</ele>
        <time>2026-08-15T03:49:20.000Z</time>
      </trkpt>
      <trkpt lat="22.935674" lon="109.398596">
        <ele>68.621481</ele>
        <time>2026-08-15T03:49:21.000Z</time>
      </trkpt>
      <trkpt lat="22.935680" lon="109.398656">
        <ele>68.557256</ele>
        <time>2026-08-15T03:49:22.000Z</time>
      </trkpt>
      <trkpt lat="22.935680" lon="109.398718">
        <ele>68.491278</ele>
        <time>2026-08-15T03:49:23.000Z</time>
      </trkpt>
      <trkpt lat="22.935675" lon="109.398775">
        <ele>68.430347</ele>
        <time>2026-08-15T03:49:24.000Z</time>
      </trkpt>
      <trkpt lat="22.935666" lon="109.398829">
        <ele>68.371949</ele>
        <time>2026-08-15T03:49:25.000Z</time>
      </trkpt>
      <trkpt lat="22.935659" lon="109.398884">
        <ele>68.312864</ele>
        <time>2026-08-15T03:49:26.000Z</time>
      </trkpt>
      <trkpt lat="22.935650" lon="109.398939">
        <ele>68.253419</ele>
        <time>2026-08-15T03:49:27.000Z</time>
      </trkpt>
      <trkpt lat="22.935647" lon="109.398994">
        <ele>68.194788</ele>
        <time>2026-08-15T03:49:28.000Z</time>
      </trkpt>
      <trkpt lat="22.935642" lon="109.399044">
        <ele>68.141267</ele>
        <time>2026-08-15T03:49:29.000Z</time>
      </trkpt>
      <trkpt lat="22.935633" lon="109.399095">
        <ele>68.086008</ele>
        <time>2026-08-15T03:49:30.000Z</time>
      </trkpt>
      <trkpt lat="22.935627" lon="109.399145">
        <ele>68.051838</ele>
        <time>2026-08-15T03:49:31.000Z</time>
      </trkpt>
      <trkpt lat="22.935623" lon="109.399193">
        <ele>68.028713</ele>
        <time>2026-08-15T03:49:32.000Z</time>
      </trkpt>
      <trkpt lat="22.935620" lon="109.399240">
        <ele>68.006108</ele>
        <time>2026-08-15T03:49:33.000Z</time>
      </trkpt>
      <trkpt lat="22.935614" lon="109.399290">
        <ele>67.981915</ele>
        <time>2026-08-15T03:49:34.000Z</time>
      </trkpt>
      <trkpt lat="22.935608" lon="109.399338">
        <ele>67.958673</ele>
        <time>2026-08-15T03:49:35.000Z</time>
      </trkpt>
      <trkpt lat="22.935601" lon="109.399387">
        <ele>67.934881</ele>
        <time>2026-08-15T03:49:36.000Z</time>
      </trkpt>
      <trkpt lat="22.935594" lon="109.399438">
        <ele>67.910140</ele>
        <time>2026-08-15T03:49:37.000Z</time>
      </trkpt>
      <trkpt lat="22.935590" lon="109.399488">
        <ele>67.886059</ele>
        <time>2026-08-15T03:49:38.000Z</time>
      </trkpt>
      <trkpt lat="22.935584" lon="109.399538">
        <ele>67.861866</ele>
        <time>2026-08-15T03:49:39.000Z</time>
      </trkpt>
      <trkpt lat="22.935579" lon="109.399588">
        <ele>67.837734</ele>
        <time>2026-08-15T03:49:40.000Z</time>
      </trkpt>
      <trkpt lat="22.935573" lon="109.399639">
        <ele>67.813065</ele>
        <time>2026-08-15T03:49:41.000Z</time>
      </trkpt>
      <trkpt lat="22.935566" lon="109.399691">
        <ele>67.787850</ele>
        <time>2026-08-15T03:49:42.000Z</time>
      </trkpt>
      <trkpt lat="22.935558" lon="109.399743">
        <ele>67.762554</ele>
        <time>2026-08-15T03:49:43.000Z</time>
      </trkpt>
      <trkpt lat="22.935549" lon="109.399795">
        <ele>67.737167</ele>
        <time>2026-08-15T03:49:44.000Z</time>
      </trkpt>
      <trkpt lat="22.935538" lon="109.399846">
        <ele>67.712034</ele>
        <time>2026-08-15T03:49:45.000Z</time>
      </trkpt>
      <trkpt lat="22.935529" lon="109.399896">
        <ele>67.687590</ele>
        <time>2026-08-15T03:49:46.000Z</time>
      </trkpt>
      <trkpt lat="22.935514" lon="109.399946">
        <ele>67.662359</ele>
        <time>2026-08-15T03:49:47.000Z</time>
      </trkpt>
      <trkpt lat="22.935494" lon="109.399993">
        <ele>67.637517</ele>
        <time>2026-08-15T03:49:48.000Z</time>
      </trkpt>
      <trkpt lat="22.935473" lon="109.400042">
        <ele>67.611585</ele>
        <time>2026-08-15T03:49:49.000Z</time>
      </trkpt>
      <trkpt lat="22.935455" lon="109.400088">
        <ele>67.587604</ele>
        <time>2026-08-15T03:49:50.000Z</time>
      </trkpt>
      <trkpt lat="22.935433" lon="109.400130">
        <ele>67.564420</ele>
        <time>2026-08-15T03:49:51.000Z</time>
      </trkpt>
      <trkpt lat="22.935403" lon="109.400169">
        <ele>67.540038</ele>
        <time>2026-08-15T03:49:52.000Z</time>
      </trkpt>
      <trkpt lat="22.935367" lon="109.400204">
        <ele>67.514863</ele>
        <time>2026-08-15T03:49:53.000Z</time>
      </trkpt>
      <trkpt lat="22.935328" lon="109.400238">
        <ele>67.488805</ele>
        <time>2026-08-15T03:49:54.000Z</time>
      </trkpt>
      <trkpt lat="22.935290" lon="109.400268">
        <ele>67.464328</ele>
        <time>2026-08-15T03:49:55.000Z</time>
      </trkpt>
      <trkpt lat="22.935251" lon="109.400295">
        <ele>67.440230</ele>
        <time>2026-08-15T03:49:56.000Z</time>
      </trkpt>
      <trkpt lat="22.935214" lon="109.400325">
        <ele>67.416172</ele>
        <time>2026-08-15T03:49:57.000Z</time>
      </trkpt>
      <trkpt lat="22.935181" lon="109.400358">
        <ele>67.392799</ele>
        <time>2026-08-15T03:49:58.000Z</time>
      </trkpt>
      <trkpt lat="22.935150" lon="109.400392">
        <ele>67.369843</ele>
        <time>2026-08-15T03:49:59.000Z</time>
      </trkpt>
      <trkpt lat="22.935113" lon="109.400431">
        <ele>67.342977</ele>
        <time>2026-08-15T03:50:00.000Z</time>
      </trkpt>
      <trkpt lat="22.935076" lon="109.400471">
        <ele>67.315775</ele>
        <time>2026-08-15T03:50:01.000Z</time>
      </trkpt>
      <trkpt lat="22.935040" lon="109.400509">
        <ele>67.289617</ele>
        <time>2026-08-15T03:50:02.000Z</time>
      </trkpt>
      <trkpt lat="22.935004" lon="109.400547">
        <ele>67.263459</ele>
        <time>2026-08-15T03:50:03.000Z</time>
      </trkpt>
      <trkpt lat="22.934969" lon="109.400585">
        <ele>67.237673</ele>
        <time>2026-08-15T03:50:04.000Z</time>
      </trkpt>
      <trkpt lat="22.934935" lon="109.400624">
        <ele>67.211905</ele>
        <time>2026-08-15T03:50:05.000Z</time>
      </trkpt>
      <trkpt lat="22.934903" lon="109.400668">
        <ele>67.185005</ele>
        <time>2026-08-15T03:50:06.000Z</time>
      </trkpt>
      <trkpt lat="22.934873" lon="109.400716">
        <ele>67.157171</ele>
        <time>2026-08-15T03:50:07.000Z</time>
      </trkpt>
      <trkpt lat="22.934852" lon="109.400764">
        <ele>67.131673</ele>
        <time>2026-08-15T03:50:08.000Z</time>
      </trkpt>
      <trkpt lat="22.934833" lon="109.400813">
        <ele>67.148204</ele>
        <time>2026-08-15T03:50:09.000Z</time>
      </trkpt>
      <trkpt lat="22.934819" lon="109.400862">
        <ele>67.165681</ele>
        <time>2026-08-15T03:50:10.000Z</time>
      </trkpt>
      <trkpt lat="22.934805" lon="109.400915">
        <ele>67.184464</ele>
        <time>2026-08-15T03:50:11.000Z</time>
      </trkpt>
      <trkpt lat="22.934790" lon="109.400967">
        <ele>67.203027</ele>
        <time>2026-08-15T03:50:12.000Z</time>
      </trkpt>
      <trkpt lat="22.934775" lon="109.401018">
        <ele>67.221265</ele>
        <time>2026-08-15T03:50:13.000Z</time>
      </trkpt>
      <trkpt lat="22.934760" lon="109.401068">
        <ele>67.239179</ele>
        <time>2026-08-15T03:50:14.000Z</time>
      </trkpt>
      <trkpt lat="22.934743" lon="109.401118">
        <ele>67.257335</ele>
        <time>2026-08-15T03:50:15.000Z</time>
      </trkpt>
      <trkpt lat="22.934729" lon="109.401165">
        <ele>67.274163</ele>
        <time>2026-08-15T03:50:16.000Z</time>
      </trkpt>
      <trkpt lat="22.934717" lon="109.401210">
        <ele>67.290122</ele>
        <time>2026-08-15T03:50:17.000Z</time>
      </trkpt>
      <trkpt lat="22.934704" lon="109.401253">
        <ele>67.305540</ele>
        <time>2026-08-15T03:50:18.000Z</time>
      </trkpt>
      <trkpt lat="22.934692" lon="109.401295">
        <ele>67.320520</ele>
        <time>2026-08-15T03:50:19.000Z</time>
      </trkpt>
      <trkpt lat="22.934681" lon="109.401335">
        <ele>67.334741</ele>
        <time>2026-08-15T03:50:20.000Z</time>
      </trkpt>
      <trkpt lat="22.934669" lon="109.401375">
        <ele>67.349072</ele>
        <time>2026-08-15T03:50:21.000Z</time>
      </trkpt>
      <trkpt lat="22.934657" lon="109.401413">
        <ele>67.362757</ele>
        <time>2026-08-15T03:50:22.000Z</time>
      </trkpt>
      <trkpt lat="22.934645" lon="109.401451">
        <ele>67.376442</ele>
        <time>2026-08-15T03:50:23.000Z</time>
      </trkpt>
      <trkpt lat="22.934633" lon="109.401490">
        <ele>67.390450</ele>
        <time>2026-08-15T03:50:24.000Z</time>
      </trkpt>
      <trkpt lat="22.934619" lon="109.401530">
        <ele>67.405027</ele>
        <time>2026-08-15T03:50:25.000Z</time>
      </trkpt>
      <trkpt lat="22.934606" lon="109.401568">
        <ele>67.418836</ele>
        <time>2026-08-15T03:50:26.000Z</time>
      </trkpt>
      <trkpt lat="22.934594" lon="109.401607">
        <ele>67.432844</ele>
        <time>2026-08-15T03:50:27.000Z</time>
      </trkpt>
      <trkpt lat="22.934582" lon="109.401644">
        <ele>67.446207</ele>
        <time>2026-08-15T03:50:28.000Z</time>
      </trkpt>
      <trkpt lat="22.934572" lon="109.401683">
        <ele>67.459998</ele>
        <time>2026-08-15T03:50:29.000Z</time>
      </trkpt>
      <trkpt lat="22.934561" lon="109.401724">
        <ele>67.474545</ele>
        <time>2026-08-15T03:50:30.000Z</time>
      </trkpt>
      <trkpt lat="22.934549" lon="109.401767">
        <ele>67.489852</ele>
        <time>2026-08-15T03:50:31.000Z</time>
      </trkpt>
      <trkpt lat="22.934536" lon="109.401810">
        <ele>67.505269</ele>
        <time>2026-08-15T03:50:32.000Z</time>
      </trkpt>
      <trkpt lat="22.934523" lon="109.401854">
        <ele>67.521010</ele>
        <time>2026-08-15T03:50:33.000Z</time>
      </trkpt>
      <trkpt lat="22.934510" lon="109.401899">
        <ele>67.537077</ele>
        <time>2026-08-15T03:50:34.000Z</time>
      </trkpt>
      <trkpt lat="22.934496" lon="109.401944">
        <ele>67.553257</ele>
        <time>2026-08-15T03:50:35.000Z</time>
      </trkpt>
      <trkpt lat="22.934482" lon="109.401990">
        <ele>67.569761</ele>
        <time>2026-08-15T03:50:36.000Z</time>
      </trkpt>
      <trkpt lat="22.934466" lon="109.402035">
        <ele>67.586194</ele>
        <time>2026-08-15T03:50:37.000Z</time>
      </trkpt>
      <trkpt lat="22.934450" lon="109.402082">
        <ele>67.603263</ele>
        <time>2026-08-15T03:50:38.000Z</time>
      </trkpt>
      <trkpt lat="22.934433" lon="109.402129">
        <ele>67.620465</ele>
        <time>2026-08-15T03:50:39.000Z</time>
      </trkpt>
      <trkpt lat="22.934419" lon="109.402176">
        <ele>67.637293</ele>
        <time>2026-08-15T03:50:40.000Z</time>
      </trkpt>
      <trkpt lat="22.934403" lon="109.402225">
        <ele>67.655003</ele>
        <time>2026-08-15T03:50:41.000Z</time>
      </trkpt>
      <trkpt lat="22.934388" lon="109.402272">
        <ele>67.671948</ele>
        <time>2026-08-15T03:50:42.000Z</time>
      </trkpt>
      <trkpt lat="22.934373" lon="109.402321">
        <ele>67.689539</ele>
        <time>2026-08-15T03:50:43.000Z</time>
      </trkpt>
      <trkpt lat="22.934364" lon="109.402372">
        <ele>67.707228</ele>
        <time>2026-08-15T03:50:44.000Z</time>
      </trkpt>
      <trkpt lat="22.934352" lon="109.402424">
        <ele>67.725490</ele>
        <time>2026-08-15T03:50:45.000Z</time>
      </trkpt>
      <trkpt lat="22.934339" lon="109.402474">
        <ele>67.743189</ele>
        <time>2026-08-15T03:50:46.000Z</time>
      </trkpt>
      <trkpt lat="22.934324" lon="109.402523">
        <ele>67.760779</ele>
        <time>2026-08-15T03:50:47.000Z</time>
      </trkpt>
      <trkpt lat="22.934312" lon="109.402570">
        <ele>67.777394</ele>
        <time>2026-08-15T03:50:48.000Z</time>
      </trkpt>
      <trkpt lat="22.934297" lon="109.402617">
        <ele>67.794339</ele>
        <time>2026-08-15T03:50:49.000Z</time>
      </trkpt>
      <trkpt lat="22.934282" lon="109.402663">
        <ele>67.818873</ele>
        <time>2026-08-15T03:50:50.000Z</time>
      </trkpt>
      <trkpt lat="22.934268" lon="109.402709">
        <ele>67.844141</ele>
        <time>2026-08-15T03:50:51.000Z</time>
      </trkpt>
      <trkpt lat="22.934253" lon="109.402751">
        <ele>67.867635</ele>
        <time>2026-08-15T03:50:52.000Z</time>
      </trkpt>
      <trkpt lat="22.934238" lon="109.402793">
        <ele>67.891130</ele>
        <time>2026-08-15T03:50:53.000Z</time>
      </trkpt>
      <trkpt lat="22.934224" lon="109.402835">
        <ele>67.914426</ele>
        <time>2026-08-15T03:50:54.000Z</time>
      </trkpt>
      <trkpt lat="22.934209" lon="109.402878">
        <ele>67.938407</ele>
        <time>2026-08-15T03:50:55.000Z</time>
      </trkpt>
      <trkpt lat="22.934197" lon="109.402923">
        <ele>67.962841</ele>
        <time>2026-08-15T03:50:56.000Z</time>
      </trkpt>
      <trkpt lat="22.934185" lon="109.402968">
        <ele>67.987275</ele>
        <time>2026-08-15T03:50:57.000Z</time>
      </trkpt>
      <trkpt lat="22.934173" lon="109.403013">
        <ele>68.011708</ele>
        <time>2026-08-15T03:50:58.000Z</time>
      </trkpt>
      <trkpt lat="22.934161" lon="109.403058">
        <ele>68.036142</ele>
        <time>2026-08-15T03:50:59.000Z</time>
      </trkpt>
      <trkpt lat="22.934150" lon="109.403102">
        <ele>68.059921</ele>
        <time>2026-08-15T03:51:00.000Z</time>
      </trkpt>
      <trkpt lat="22.934138" lon="109.403145">
        <ele>68.083355</ele>
        <time>2026-08-15T03:51:01.000Z</time>
      </trkpt>
      <trkpt lat="22.934127" lon="109.403188">
        <ele>68.106630</ele>
        <time>2026-08-15T03:51:02.000Z</time>
      </trkpt>
      <trkpt lat="22.934115" lon="109.403231">
        <ele>68.130064</ele>
        <time>2026-08-15T03:51:03.000Z</time>
      </trkpt>
      <trkpt lat="22.934103" lon="109.403274">
        <ele>68.153498</ele>
        <time>2026-08-15T03:51:04.000Z</time>
      </trkpt>
      <trkpt lat="22.934090" lon="109.403318">
        <ele>68.177598</ele>
        <time>2026-08-15T03:51:05.000Z</time>
      </trkpt>
      <trkpt lat="22.934078" lon="109.403362">
        <ele>68.201531</ele>
        <time>2026-08-15T03:51:06.000Z</time>
      </trkpt>
      <trkpt lat="22.934065" lon="109.403405">
        <ele>68.225135</ele>
        <time>2026-08-15T03:51:07.000Z</time>
      </trkpt>
      <trkpt lat="22.934051" lon="109.403449">
        <ele>68.249414</ele>
        <time>2026-08-15T03:51:08.000Z</time>
      </trkpt>
      <trkpt lat="22.934040" lon="109.403493">
        <ele>68.273193</ele>
        <time>2026-08-15T03:51:09.000Z</time>
      </trkpt>
      <trkpt lat="22.934026" lon="109.403537">
        <ele>68.297472</ele>
        <time>2026-08-15T03:51:10.000Z</time>
      </trkpt>
      <trkpt lat="22.934014" lon="109.403583">
        <ele>68.322407</ele>
        <time>2026-08-15T03:51:11.000Z</time>
      </trkpt>
      <trkpt lat="22.934002" lon="109.403627">
        <ele>68.346341</ele>
        <time>2026-08-15T03:51:12.000Z</time>
      </trkpt>
      <trkpt lat="22.933989" lon="109.403672">
        <ele>68.370938</ele>
        <time>2026-08-15T03:51:13.000Z</time>
      </trkpt>
      <trkpt lat="22.933977" lon="109.403717">
        <ele>68.395372</ele>
        <time>2026-08-15T03:51:14.000Z</time>
      </trkpt>
      <trkpt lat="22.933965" lon="109.403761">
        <ele>68.419305</ele>
        <time>2026-08-15T03:51:15.000Z</time>
      </trkpt>
      <trkpt lat="22.933953" lon="109.403802">
        <ele>68.441743</ele>
        <time>2026-08-15T03:51:16.000Z</time>
      </trkpt>
      <trkpt lat="22.933939" lon="109.403841">
        <ele>68.463574</ele>
        <time>2026-08-15T03:51:17.000Z</time>
      </trkpt>
      <trkpt lat="22.933926" lon="109.403882">
        <ele>68.486189</ele>
        <time>2026-08-15T03:51:18.000Z</time>
      </trkpt>
      <trkpt lat="22.933915" lon="109.403924">
        <ele>68.508963</ele>
        <time>2026-08-15T03:51:19.000Z</time>
      </trkpt>
      <trkpt lat="22.933904" lon="109.403967">
        <ele>68.532239</ele>
        <time>2026-08-15T03:51:20.000Z</time>
      </trkpt>
      <trkpt lat="22.933892" lon="109.404011">
        <ele>68.556172</ele>
        <time>2026-08-15T03:51:21.000Z</time>
      </trkpt>
      <trkpt lat="22.933879" lon="109.404054">
        <ele>68.579776</ele>
        <time>2026-08-15T03:51:22.000Z</time>
      </trkpt>
      <trkpt lat="22.933868" lon="109.404098">
        <ele>68.603555</ele>
        <time>2026-08-15T03:51:23.000Z</time>
      </trkpt>
      <trkpt lat="22.933857" lon="109.404143">
        <ele>68.627837</ele>
        <time>2026-08-15T03:51:24.000Z</time>
      </trkpt>
      <trkpt lat="22.933847" lon="109.404186">
        <ele>68.650968</ele>
        <time>2026-08-15T03:51:25.000Z</time>
      </trkpt>
      <trkpt lat="22.933839" lon="109.404230">
        <ele>68.674359</ele>
        <time>2026-08-15T03:51:26.000Z</time>
      </trkpt>
      <trkpt lat="22.933832" lon="109.404275">
        <ele>68.698161</ele>
        <time>2026-08-15T03:51:27.000Z</time>
      </trkpt>
      <trkpt lat="22.933824" lon="109.404320">
        <ele>68.722064</ele>
        <time>2026-08-15T03:51:28.000Z</time>
      </trkpt>
      <trkpt lat="22.933820" lon="109.404369">
        <ele>68.747720</ele>
        <time>2026-08-15T03:51:29.000Z</time>
      </trkpt>
      <trkpt lat="22.933816" lon="109.404416">
        <ele>68.772338</ele>
        <time>2026-08-15T03:51:30.000Z</time>
      </trkpt>
      <trkpt lat="22.933811" lon="109.404462">
        <ele>68.796496</ele>
        <time>2026-08-15T03:51:31.000Z</time>
      </trkpt>
      <trkpt lat="22.933809" lon="109.404509">
        <ele>68.835649</ele>
        <time>2026-08-15T03:51:32.000Z</time>
      </trkpt>
      <trkpt lat="22.933809" lon="109.404556">
        <ele>68.916394</ele>
        <time>2026-08-15T03:51:33.000Z</time>
      </trkpt>
      <trkpt lat="22.933808" lon="109.404605">
        <ele>69.000594</ele>
        <time>2026-08-15T03:51:34.000Z</time>
      </trkpt>
      <trkpt lat="22.933806" lon="109.404652">
        <ele>69.081425</ele>
        <time>2026-08-15T03:51:35.000Z</time>
      </trkpt>
      <trkpt lat="22.933807" lon="109.404699">
        <ele>69.162190</ele>
        <time>2026-08-15T03:51:36.000Z</time>
      </trkpt>
      <trkpt lat="22.933811" lon="109.404747">
        <ele>69.244989</ele>
        <time>2026-08-15T03:51:37.000Z</time>
      </trkpt>
      <trkpt lat="22.933816" lon="109.404793">
        <ele>69.324564</ele>
        <time>2026-08-15T03:51:38.000Z</time>
      </trkpt>
      <trkpt lat="22.933823" lon="109.404838">
        <ele>69.402967</ele>
        <time>2026-08-15T03:51:39.000Z</time>
      </trkpt>
      <trkpt lat="22.933828" lon="109.404883">
        <ele>69.480836</ele>
        <time>2026-08-15T03:51:40.000Z</time>
      </trkpt>
      <trkpt lat="22.933832" lon="109.404926">
        <ele>69.555084</ele>
        <time>2026-08-15T03:51:41.000Z</time>
      </trkpt>
      <trkpt lat="22.933837" lon="109.404968">
        <ele>69.627839</ele>
        <time>2026-08-15T03:51:42.000Z</time>
      </trkpt>
      <trkpt lat="22.933842" lon="109.405010">
        <ele>69.700594</ele>
        <time>2026-08-15T03:51:43.000Z</time>
      </trkpt>
      <trkpt lat="22.933848" lon="109.405054">
        <ele>69.777008</ele>
        <time>2026-08-15T03:51:44.000Z</time>
      </trkpt>
      <trkpt lat="22.933853" lon="109.405098">
        <ele>69.853172</ele>
        <time>2026-08-15T03:51:45.000Z</time>
      </trkpt>
      <trkpt lat="22.933858" lon="109.405141">
        <ele>69.927630</ele>
        <time>2026-08-15T03:51:46.000Z</time>
      </trkpt>
      <trkpt lat="22.933862" lon="109.405184">
        <ele>70.001878</ele>
        <time>2026-08-15T03:51:47.000Z</time>
      </trkpt>
      <trkpt lat="22.933865" lon="109.405227">
        <ele>70.075962</ele>
        <time>2026-08-15T03:51:48.000Z</time>
      </trkpt>
      <trkpt lat="22.933868" lon="109.405269">
        <ele>70.148333</ele>
        <time>2026-08-15T03:51:49.000Z</time>
      </trkpt>
      <trkpt lat="22.933869" lon="109.405311">
        <ele>70.220512</ele>
        <time>2026-08-15T03:51:50.000Z</time>
      </trkpt>
      <trkpt lat="22.933869" lon="109.405353">
        <ele>70.292666</ele>
        <time>2026-08-15T03:51:51.000Z</time>
      </trkpt>
      <trkpt lat="22.933867" lon="109.405394">
        <ele>70.363201</ele>
        <time>2026-08-15T03:51:52.000Z</time>
      </trkpt>
      <trkpt lat="22.933865" lon="109.405432">
        <ele>70.428590</ele>
        <time>2026-08-15T03:51:53.000Z</time>
      </trkpt>
      <trkpt lat="22.933865" lon="109.405466">
        <ele>70.487001</ele>
        <time>2026-08-15T03:51:54.000Z</time>
      </trkpt>
      <trkpt lat="22.933866" lon="109.405501">
        <ele>70.547158</ele>
        <time>2026-08-15T03:51:55.000Z</time>
      </trkpt>
      <trkpt lat="22.933868" lon="109.405536">
        <ele>70.607403</ele>
        <time>2026-08-15T03:51:56.000Z</time>
      </trkpt>
      <trkpt lat="22.933873" lon="109.405573">
        <ele>70.671648</ele>
        <time>2026-08-15T03:51:57.000Z</time>
      </trkpt>
      <trkpt lat="22.933879" lon="109.405609">
        <ele>70.734499</ele>
        <time>2026-08-15T03:51:58.000Z</time>
      </trkpt>
      <trkpt lat="22.933889" lon="109.405645">
        <ele>70.799098</ele>
        <time>2026-08-15T03:51:59.000Z</time>
      </trkpt>
      <trkpt lat="22.933901" lon="109.405680">
        <ele>70.863258</ele>
        <time>2026-08-15T03:52:00.000Z</time>
      </trkpt>
      <trkpt lat="22.933914" lon="109.405713">
        <ele>70.924919</ele>
        <time>2026-08-15T03:52:01.000Z</time>
      </trkpt>
      <trkpt lat="22.933929" lon="109.405744">
        <ele>70.985079</ele>
        <time>2026-08-15T03:52:02.000Z</time>
      </trkpt>
      <trkpt lat="22.933946" lon="109.405773">
        <ele>71.044137</ele>
        <time>2026-08-15T03:52:03.000Z</time>
      </trkpt>
      <trkpt lat="22.933963" lon="109.405801">
        <ele>71.101752</ele>
        <time>2026-08-15T03:52:04.000Z</time>
      </trkpt>
      <trkpt lat="22.933978" lon="109.405828">
        <ele>71.155923</ele>
        <time>2026-08-15T03:52:05.000Z</time>
      </trkpt>
      <trkpt lat="22.933993" lon="109.405855">
        <ele>71.210094</ele>
        <time>2026-08-15T03:52:06.000Z</time>
      </trkpt>
      <trkpt lat="22.934011" lon="109.405884">
        <ele>71.270174</ele>
        <time>2026-08-15T03:52:07.000Z</time>
      </trkpt>
      <trkpt lat="22.934028" lon="109.405913">
        <ele>71.329231</ele>
        <time>2026-08-15T03:52:08.000Z</time>
      </trkpt>
      <trkpt lat="22.934045" lon="109.405942">
        <ele>71.388288</ele>
        <time>2026-08-15T03:52:09.000Z</time>
      </trkpt>
      <trkpt lat="22.934063" lon="109.405972">
        <ele>71.449800</ele>
        <time>2026-08-15T03:52:10.000Z</time>
      </trkpt>
      <trkpt lat="22.934079" lon="109.406003">
        <ele>71.510850</ele>
        <time>2026-08-15T03:52:11.000Z</time>
      </trkpt>
      <trkpt lat="22.934096" lon="109.406033">
        <ele>71.571363</ele>
        <time>2026-08-15T03:52:12.000Z</time>
      </trkpt>
      <trkpt lat="22.934112" lon="109.406065">
        <ele>71.633917</ele>
        <time>2026-08-15T03:52:13.000Z</time>
      </trkpt>
      <trkpt lat="22.934124" lon="109.406095">
        <ele>71.690108</ele>
        <time>2026-08-15T03:52:14.000Z</time>
      </trkpt>
      <trkpt lat="22.934132" lon="109.406127">
        <ele>71.747072</ele>
        <time>2026-08-15T03:52:15.000Z</time>
      </trkpt>
      <trkpt lat="22.934138" lon="109.406158">
        <ele>71.801492</ele>
        <time>2026-08-15T03:52:16.000Z</time>
      </trkpt>
      <trkpt lat="22.934144" lon="109.406189">
        <ele>71.855912</ele>
        <time>2026-08-15T03:52:17.000Z</time>
      </trkpt>
      <trkpt lat="22.934147" lon="109.406220">
        <ele>71.909462</ele>
        <time>2026-08-15T03:52:18.000Z</time>
      </trkpt>
      <trkpt lat="22.934148" lon="109.406250">
        <ele>71.961034</ele>
        <time>2026-08-15T03:52:19.000Z</time>
      </trkpt>
      <trkpt lat="22.934150" lon="109.406278">
        <ele>72.009281</ele>
        <time>2026-08-15T03:52:20.000Z</time>
      </trkpt>
      <trkpt lat="22.934151" lon="109.406308">
        <ele>72.060854</ele>
        <time>2026-08-15T03:52:21.000Z</time>
      </trkpt>
      <trkpt lat="22.934149" lon="109.406338">
        <ele>72.112527</ele>
        <time>2026-08-15T03:52:22.000Z</time>
      </trkpt>
      <trkpt lat="22.934146" lon="109.406371">
        <ele>72.169495</ele>
        <time>2026-08-15T03:52:23.000Z</time>
      </trkpt>
      <trkpt lat="22.934140" lon="109.406407">
        <ele>72.198947</ele>
        <time>2026-08-15T03:52:24.000Z</time>
      </trkpt>
      <trkpt lat="22.934132" lon="109.406445">
        <ele>72.230112</ele>
        <time>2026-08-15T03:52:25.000Z</time>
      </trkpt>
      <trkpt lat="22.934121" lon="109.406485">
        <ele>72.263488</ele>
        <time>2026-08-15T03:52:26.000Z</time>
      </trkpt>
      <trkpt lat="22.934111" lon="109.406526">
        <ele>72.297398</ele>
        <time>2026-08-15T03:52:27.000Z</time>
      </trkpt>
      <trkpt lat="22.934100" lon="109.406570">
        <ele>72.333850</ele>
        <time>2026-08-15T03:52:28.000Z</time>
      </trkpt>
      <trkpt lat="22.934089" lon="109.406615">
        <ele>72.371074</ele>
        <time>2026-08-15T03:52:29.000Z</time>
      </trkpt>
      <trkpt lat="22.934081" lon="109.406662">
        <ele>72.409288</ele>
        <time>2026-08-15T03:52:30.000Z</time>
      </trkpt>
      <trkpt lat="22.934077" lon="109.406710">
        <ele>72.447821</ele>
        <time>2026-08-15T03:52:31.000Z</time>
      </trkpt>
      <trkpt lat="22.934077" lon="109.406757">
        <ele>72.485398</ele>
        <time>2026-08-15T03:52:32.000Z</time>
      </trkpt>
      <trkpt lat="22.934078" lon="109.406805">
        <ele>72.523785</ele>
        <time>2026-08-15T03:52:33.000Z</time>
      </trkpt>
      <trkpt lat="22.934079" lon="109.406854">
        <ele>72.562971</ele>
        <time>2026-08-15T03:52:34.000Z</time>
      </trkpt>
      <trkpt lat="22.934079" lon="109.406903">
        <ele>72.602147</ele>
        <time>2026-08-15T03:52:35.000Z</time>
      </trkpt>
      <trkpt lat="22.934078" lon="109.406952">
        <ele>72.641333</ele>
        <time>2026-08-15T03:52:36.000Z</time>
      </trkpt>
      <trkpt lat="22.934078" lon="109.407001">
        <ele>72.680509</ele>
        <time>2026-08-15T03:52:37.000Z</time>
      </trkpt>
      <trkpt lat="22.934080" lon="109.407049">
        <ele>72.718925</ele>
        <time>2026-08-15T03:52:38.000Z</time>
      </trkpt>
      <trkpt lat="22.934081" lon="109.407097">
        <ele>72.757312</ele>
        <time>2026-08-15T03:52:39.000Z</time>
      </trkpt>
      <trkpt lat="22.934081" lon="109.407145">
        <ele>72.795688</ele>
        <time>2026-08-15T03:52:40.000Z</time>
      </trkpt>
      <trkpt lat="22.934082" lon="109.407193">
        <ele>72.834075</ele>
        <time>2026-08-15T03:52:41.000Z</time>
      </trkpt>
      <trkpt lat="22.934084" lon="109.407241">
        <ele>72.872491</ele>
        <time>2026-08-15T03:52:42.000Z</time>
      </trkpt>
      <trkpt lat="22.934088" lon="109.407290">
        <ele>72.911821</ele>
        <time>2026-08-15T03:52:43.000Z</time>
      </trkpt>
      <trkpt lat="22.934098" lon="109.407338">
        <ele>72.951167</ele>
        <time>2026-08-15T03:52:44.000Z</time>
      </trkpt>
      <trkpt lat="22.934114" lon="109.407382">
        <ele>72.988989</ele>
        <time>2026-08-15T03:52:45.000Z</time>
      </trkpt>
      <trkpt lat="22.934135" lon="109.407423">
        <ele>73.026497</ele>
        <time>2026-08-15T03:52:46.000Z</time>
      </trkpt>
      <trkpt lat="22.934156" lon="109.407464">
        <ele>73.064006</ele>
        <time>2026-08-15T03:52:47.000Z</time>
      </trkpt>
      <trkpt lat="22.934177" lon="109.407505">
        <ele>73.101515</ele>
        <time>2026-08-15T03:52:48.000Z</time>
      </trkpt>
      <trkpt lat="22.934197" lon="109.407546">
        <ele>73.138609</ele>
        <time>2026-08-15T03:52:49.000Z</time>
      </trkpt>
      <trkpt lat="22.934217" lon="109.407580">
        <ele>73.170865</ele>
        <time>2026-08-15T03:52:50.000Z</time>
      </trkpt>
      <trkpt lat="22.934233" lon="109.407611">
        <ele>73.199276</ele>
        <time>2026-08-15T03:52:51.000Z</time>
      </trkpt>
      <trkpt lat="22.934250" lon="109.407643">
        <ele>73.228812</ele>
        <time>2026-08-15T03:52:52.000Z</time>
      </trkpt>
      <trkpt lat="22.934271" lon="109.407675">
        <ele>73.260228</ele>
        <time>2026-08-15T03:52:53.000Z</time>
      </trkpt>
      <trkpt lat="22.934293" lon="109.407707">
        <ele>73.292155</ele>
        <time>2026-08-15T03:52:54.000Z</time>
      </trkpt>
      <trkpt lat="22.934316" lon="109.407739">
        <ele>73.324609</ele>
        <time>2026-08-15T03:52:55.000Z</time>
      </trkpt>
      <trkpt lat="22.934341" lon="109.407769">
        <ele>73.356956</ele>
        <time>2026-08-15T03:52:56.000Z</time>
      </trkpt>
      <trkpt lat="22.934362" lon="109.407795">
        <ele>73.384605</ele>
        <time>2026-08-15T03:52:57.000Z</time>
      </trkpt>
      <trkpt lat="22.934383" lon="109.407818">
        <ele>73.410499</ele>
        <time>2026-08-15T03:52:58.000Z</time>
      </trkpt>
      <trkpt lat="22.934403" lon="109.407836">
        <ele>73.433051</ele>
        <time>2026-08-15T03:52:59.000Z</time>
      </trkpt>
      <trkpt lat="22.934420" lon="109.407851">
        <ele>73.452067</ele>
        <time>2026-08-15T03:53:00.000Z</time>
      </trkpt>
      <trkpt lat="22.934433" lon="109.407863">
        <ele>73.466880</ele>
        <time>2026-08-15T03:53:01.000Z</time>
      </trkpt>
      <trkpt lat="22.934443" lon="109.407870">
        <ele>73.477209</ele>
        <time>2026-08-15T03:53:02.000Z</time>
      </trkpt>
      <trkpt lat="22.934449" lon="109.407873">
        <ele>73.482944</ele>
        <time>2026-08-15T03:53:03.000Z</time>
      </trkpt>
      <trkpt lat="22.934492" lon="109.407894">
        <ele>73.523876</ele>
        <time>2026-08-15T03:53:16.000Z</time>
      </trkpt>
      <trkpt lat="22.934517" lon="109.407903">
        <ele>73.546741</ele>
        <time>2026-08-15T03:53:17.000Z</time>
      </trkpt>
      <trkpt lat="22.934547" lon="109.407912">
        <ele>73.573761</ele>
        <time>2026-08-15T03:53:18.000Z</time>
      </trkpt>
      <trkpt lat="22.934579" lon="109.407920">
        <ele>73.602268</ele>
        <time>2026-08-15T03:53:19.000Z</time>
      </trkpt>
      <trkpt lat="22.934610" lon="109.407931">
        <ele>73.630581</ele>
        <time>2026-08-15T03:53:20.000Z</time>
      </trkpt>
      <trkpt lat="22.934644" lon="109.407944">
        <ele>73.661874</ele>
        <time>2026-08-15T03:53:21.000Z</time>
      </trkpt>
      <trkpt lat="22.934678" lon="109.407957">
        <ele>73.693167</ele>
        <time>2026-08-15T03:53:22.000Z</time>
      </trkpt>
      <trkpt lat="22.934713" lon="109.407971">
        <ele>73.725548</ele>
        <time>2026-08-15T03:53:23.000Z</time>
      </trkpt>
      <trkpt lat="22.934749" lon="109.407981">
        <ele>73.698084</ele>
        <time>2026-08-15T03:53:24.000Z</time>
      </trkpt>
      <trkpt lat="22.934785" lon="109.407992">
        <ele>73.657282</ele>
        <time>2026-08-15T03:53:25.000Z</time>
      </trkpt>
      <trkpt lat="22.934824" lon="109.408003">
        <ele>73.613321</ele>
        <time>2026-08-15T03:53:26.000Z</time>
      </trkpt>
      <trkpt lat="22.934863" lon="109.408013">
        <ele>73.569601</ele>
        <time>2026-08-15T03:53:27.000Z</time>
      </trkpt>
      <trkpt lat="22.934903" lon="109.408023">
        <ele>73.524819</ele>
        <time>2026-08-15T03:53:28.000Z</time>
      </trkpt>
      <trkpt lat="22.934944" lon="109.408033">
        <ele>73.478973</ele>
        <time>2026-08-15T03:53:29.000Z</time>
      </trkpt>
      <trkpt lat="22.934987" lon="109.408042">
        <ele>73.431196</ele>
        <time>2026-08-15T03:53:30.000Z</time>
      </trkpt>
      <trkpt lat="22.935030" lon="109.408053">
        <ele>73.382998</ele>
        <time>2026-08-15T03:53:31.000Z</time>
      </trkpt>
      <trkpt lat="22.935074" lon="109.408064">
        <ele>73.333738</ele>
        <time>2026-08-15T03:53:32.000Z</time>
      </trkpt>
      <trkpt lat="22.935119" lon="109.408074">
        <ele>73.283624</ele>
        <time>2026-08-15T03:53:33.000Z</time>
      </trkpt>
      <trkpt lat="22.935165" lon="109.408083">
        <ele>73.232630</ele>
        <time>2026-08-15T03:53:34.000Z</time>
      </trkpt>
      <trkpt lat="22.935211" lon="109.408094">
        <ele>73.181241</ele>
        <time>2026-08-15T03:53:35.000Z</time>
      </trkpt>
      <trkpt lat="22.935258" lon="109.408103">
        <ele>73.129172</ele>
        <time>2026-08-15T03:53:36.000Z</time>
      </trkpt>
      <trkpt lat="22.935305" lon="109.408108">
        <ele>73.077649</ele>
        <time>2026-08-15T03:53:37.000Z</time>
      </trkpt>
      <trkpt lat="22.935354" lon="109.408112">
        <ele>73.024038</ele>
        <time>2026-08-15T03:53:38.000Z</time>
      </trkpt>
      <trkpt lat="22.935403" lon="109.408114">
        <ele>72.970541</ele>
        <time>2026-08-15T03:53:39.000Z</time>
      </trkpt>
      <trkpt lat="22.935451" lon="109.408115">
        <ele>72.918163</ele>
        <time>2026-08-15T03:53:40.000Z</time>
      </trkpt>
      <trkpt lat="22.935499" lon="109.408117">
        <ele>72.865756</ele>
        <time>2026-08-15T03:53:41.000Z</time>
      </trkpt>
      <trkpt lat="22.935545" lon="109.408120">
        <ele>72.815479</ele>
        <time>2026-08-15T03:53:42.000Z</time>
      </trkpt>
      <trkpt lat="22.935592" lon="109.408121">
        <ele>72.764191</ele>
        <time>2026-08-15T03:53:43.000Z</time>
      </trkpt>
      <trkpt lat="22.935640" lon="109.408123">
        <ele>72.711784</ele>
        <time>2026-08-15T03:53:44.000Z</time>
      </trkpt>
      <trkpt lat="22.935688" lon="109.408126">
        <ele>72.659329</ele>
        <time>2026-08-15T03:53:45.000Z</time>
      </trkpt>
      <trkpt lat="22.935738" lon="109.408132">
        <ele>72.604446</ele>
        <time>2026-08-15T03:53:46.000Z</time>
      </trkpt>
      <trkpt lat="22.935788" lon="109.408136">
        <ele>72.549748</ele>
        <time>2026-08-15T03:53:47.000Z</time>
      </trkpt>
      <trkpt lat="22.935838" lon="109.408142">
        <ele>72.494865</ele>
        <time>2026-08-15T03:53:48.000Z</time>
      </trkpt>
      <trkpt lat="22.935888" lon="109.408150">
        <ele>72.439726</ele>
        <time>2026-08-15T03:53:49.000Z</time>
      </trkpt>
      <trkpt lat="22.935936" lon="109.408157">
        <ele>72.386887</ele>
        <time>2026-08-15T03:53:50.000Z</time>
      </trkpt>
      <trkpt lat="22.935982" lon="109.408161">
        <ele>72.336540</ele>
        <time>2026-08-15T03:53:51.000Z</time>
      </trkpt>
      <trkpt lat="22.936028" lon="109.408165">
        <ele>72.286193</ele>
        <time>2026-08-15T03:53:52.000Z</time>
      </trkpt>
      <trkpt lat="22.936072" lon="109.408172">
        <ele>72.237676</ele>
        <time>2026-08-15T03:53:53.000Z</time>
      </trkpt>
      <trkpt lat="22.936117" lon="109.408180">
        <ele>72.187926</ele>
        <time>2026-08-15T03:53:54.000Z</time>
      </trkpt>
      <trkpt lat="22.936162" lon="109.408190">
        <ele>72.137813</ele>
        <time>2026-08-15T03:53:55.000Z</time>
      </trkpt>
      <trkpt lat="22.936207" lon="109.408204">
        <ele>72.086742</ele>
        <time>2026-08-15T03:53:56.000Z</time>
      </trkpt>
      <trkpt lat="22.936252" lon="109.408222">
        <ele>72.034422</ele>
        <time>2026-08-15T03:53:57.000Z</time>
      </trkpt>
      <trkpt lat="22.936290" lon="109.408246">
        <ele>71.986460</ele>
        <time>2026-08-15T03:53:58.000Z</time>
      </trkpt>
      <trkpt lat="22.936324" lon="109.408272">
        <ele>71.941090</ele>
        <time>2026-08-15T03:53:59.000Z</time>
      </trkpt>
      <trkpt lat="22.936360" lon="109.408300">
        <ele>71.892778</ele>
        <time>2026-08-15T03:54:00.000Z</time>
      </trkpt>
      <trkpt lat="22.936401" lon="109.408330">
        <ele>71.838838</ele>
        <time>2026-08-15T03:54:01.000Z</time>
      </trkpt>
      <trkpt lat="22.936446" lon="109.408359">
        <ele>71.781747</ele>
        <time>2026-08-15T03:54:02.000Z</time>
      </trkpt>
      <trkpt lat="22.936493" lon="109.408392">
        <ele>71.739926</ele>
        <time>2026-08-15T03:54:03.000Z</time>
      </trkpt>
      <trkpt lat="22.936538" lon="109.408427">
        <ele>71.703585</ele>
        <time>2026-08-15T03:54:04.000Z</time>
      </trkpt>
      <trkpt lat="22.936580" lon="109.408464">
        <ele>71.668077</ele>
        <time>2026-08-15T03:54:05.000Z</time>
      </trkpt>
      <trkpt lat="22.936619" lon="109.408503">
        <ele>71.633268</ele>
        <time>2026-08-15T03:54:06.000Z</time>
      </trkpt>
      <trkpt lat="22.936652" lon="109.408546">
        <ele>71.599426</ele>
        <time>2026-08-15T03:54:07.000Z</time>
      </trkpt>
      <trkpt lat="22.936679" lon="109.408592">
        <ele>71.566444</ele>
        <time>2026-08-15T03:54:08.000Z</time>
      </trkpt>
      <trkpt lat="22.936700" lon="109.408641">
        <ele>71.533767</ele>
        <time>2026-08-15T03:54:09.000Z</time>
      </trkpt>
      <trkpt lat="22.936716" lon="109.408691">
        <ele>71.501762</ele>
        <time>2026-08-15T03:54:10.000Z</time>
      </trkpt>
      <trkpt lat="22.936728" lon="109.408737">
        <ele>71.472855</ele>
        <time>2026-08-15T03:54:11.000Z</time>
      </trkpt>
      <trkpt lat="22.936735" lon="109.408781">
        <ele>71.445858</ele>
        <time>2026-08-15T03:54:12.000Z</time>
      </trkpt>
      <trkpt lat="22.936740" lon="109.408825">
        <ele>71.419053</ele>
        <time>2026-08-15T03:54:13.000Z</time>
      </trkpt>
      <trkpt lat="22.936739" lon="109.408861">
        <ele>71.397276</ele>
        <time>2026-08-15T03:54:14.000Z</time>
      </trkpt>
      <trkpt lat="22.936737" lon="109.408881">
        <ele>71.385113</ele>
        <time>2026-08-15T03:54:15.000Z</time>
      </trkpt>
      <trkpt lat="22.936740" lon="109.408897">
        <ele>71.375240</ele>
        <time>2026-08-15T03:54:16.000Z</time>
      </trkpt>
      <trkpt lat="22.936739" lon="109.408925">
        <ele>71.358298</ele>
        <time>2026-08-15T03:54:17.000Z</time>
      </trkpt>
      <trkpt lat="22.936739" lon="109.408964">
        <ele>71.334718</ele>
        <time>2026-08-15T03:54:18.000Z</time>
      </trkpt>
      <trkpt lat="22.936747" lon="109.409027">
        <ele>71.296266</ele>
        <time>2026-08-15T03:54:19.000Z</time>
      </trkpt>
      <trkpt lat="22.936751" lon="109.409091">
        <ele>71.257481</ele>
        <time>2026-08-15T03:54:20.000Z</time>
      </trkpt>
      <trkpt lat="22.936703" lon="109.409143">
        <ele>71.212966</ele>
        <time>2026-08-15T03:54:21.000Z</time>
      </trkpt>
      <trkpt lat="22.936706" lon="109.409195">
        <ele>71.181464</ele>
        <time>2026-08-15T03:54:22.000Z</time>
      </trkpt>
      <trkpt lat="22.936679" lon="109.409249">
        <ele>71.144312</ele>
        <time>2026-08-15T03:54:23.000Z</time>
      </trkpt>
      <trkpt lat="22.936662" lon="109.409300">
        <ele>71.111519</ele>
        <time>2026-08-15T03:54:24.000Z</time>
      </trkpt>
      <trkpt lat="22.936652" lon="109.409355">
        <ele>71.077622</ele>
        <time>2026-08-15T03:54:25.000Z</time>
      </trkpt>
      <trkpt lat="22.936637" lon="109.409405">
        <ele>71.045828</ele>
        <time>2026-08-15T03:54:26.000Z</time>
      </trkpt>
      <trkpt lat="22.936627" lon="109.409462">
        <ele>71.010744</ele>
        <time>2026-08-15T03:54:27.000Z</time>
      </trkpt>
      <trkpt lat="22.936625" lon="109.409522">
        <ele>70.974443</ele>
        <time>2026-08-15T03:54:28.000Z</time>
      </trkpt>
      <trkpt lat="22.936617" lon="109.409580">
        <ele>70.938984</ele>
        <time>2026-08-15T03:54:29.000Z</time>
      </trkpt>
      <trkpt lat="22.936614" lon="109.409633">
        <ele>70.906878</ele>
        <time>2026-08-15T03:54:30.000Z</time>
      </trkpt>
      <trkpt lat="22.936611" lon="109.409684">
        <ele>70.875979</ele>
        <time>2026-08-15T03:54:31.000Z</time>
      </trkpt>
      <trkpt lat="22.936608" lon="109.409732">
        <ele>70.846891</ele>
        <time>2026-08-15T03:54:32.000Z</time>
      </trkpt>
      <trkpt lat="22.936599" lon="109.409781">
        <ele>70.816680</ele>
        <time>2026-08-15T03:54:33.000Z</time>
      </trkpt>
      <trkpt lat="22.936589" lon="109.409828">
        <ele>70.787515</ele>
        <time>2026-08-15T03:54:34.000Z</time>
      </trkpt>
      <trkpt lat="22.936580" lon="109.409874">
        <ele>70.759081</ele>
        <time>2026-08-15T03:54:35.000Z</time>
      </trkpt>
      <trkpt lat="22.936574" lon="109.409922">
        <ele>70.729793</ele>
        <time>2026-08-15T03:54:36.000Z</time>
      </trkpt>
      <trkpt lat="22.936569" lon="109.409971">
        <ele>70.699985</ele>
        <time>2026-08-15T03:54:37.000Z</time>
      </trkpt>
      <trkpt lat="22.936565" lon="109.410022">
        <ele>70.669038</ele>
        <time>2026-08-15T03:54:38.000Z</time>
      </trkpt>
      <trkpt lat="22.936561" lon="109.410072">
        <ele>70.638692</ele>
        <time>2026-08-15T03:54:39.000Z</time>
      </trkpt>
      <trkpt lat="22.936560" lon="109.410120">
        <ele>70.609663</ele>
        <time>2026-08-15T03:54:40.000Z</time>
      </trkpt>
      <trkpt lat="22.936559" lon="109.410168">
        <ele>70.605990</ele>
        <time>2026-08-15T03:54:41.000Z</time>
      </trkpt>
      <trkpt lat="22.936558" lon="109.410216">
        <ele>70.675086</ele>
        <time>2026-08-15T03:54:42.000Z</time>
      </trkpt>
      <trkpt lat="22.936557" lon="109.410264">
        <ele>70.744181</ele>
        <time>2026-08-15T03:54:43.000Z</time>
      </trkpt>
      <trkpt lat="22.936557" lon="109.410312">
        <ele>70.813259</ele>
        <time>2026-08-15T03:54:44.000Z</time>
      </trkpt>
      <trkpt lat="22.936560" lon="109.410360">
        <ele>70.882496</ele>
        <time>2026-08-15T03:54:45.000Z</time>
      </trkpt>
      <trkpt lat="22.936564" lon="109.410407">
        <ele>70.950423</ele>
        <time>2026-08-15T03:54:46.000Z</time>
      </trkpt>
      <trkpt lat="22.936563" lon="109.410454">
        <ele>71.018080</ele>
        <time>2026-08-15T03:54:47.000Z</time>
      </trkpt>
      <trkpt lat="22.936557" lon="109.410501">
        <ele>71.086366</ele>
        <time>2026-08-15T03:54:48.000Z</time>
      </trkpt>
      <trkpt lat="22.936552" lon="109.410549">
        <ele>71.155884</ele>
        <time>2026-08-15T03:54:49.000Z</time>
      </trkpt>
      <trkpt lat="22.936549" lon="109.410596">
        <ele>71.223685</ele>
        <time>2026-08-15T03:54:50.000Z</time>
      </trkpt>
      <trkpt lat="22.936546" lon="109.410641">
        <ele>71.288615</ele>
        <time>2026-08-15T03:54:51.000Z</time>
      </trkpt>
      <trkpt lat="22.936543" lon="109.410684">
        <ele>71.350675</ele>
        <time>2026-08-15T03:54:52.000Z</time>
      </trkpt>
      <trkpt lat="22.936539" lon="109.410727">
        <ele>71.412872</ele>
        <time>2026-08-15T03:54:53.000Z</time>
      </trkpt>
      <trkpt lat="22.936533" lon="109.410770">
        <ele>71.475461</ele>
        <time>2026-08-15T03:54:54.000Z</time>
      </trkpt>
      <trkpt lat="22.936526" lon="109.410811">
        <ele>71.535470</ele>
        <time>2026-08-15T03:54:55.000Z</time>
      </trkpt>
      <trkpt lat="22.936521" lon="109.410852">
        <ele>71.594990</ele>
        <time>2026-08-15T03:54:56.000Z</time>
      </trkpt>
      <trkpt lat="22.936516" lon="109.410890">
        <ele>71.650232</ele>
        <time>2026-08-15T03:54:57.000Z</time>
      </trkpt>
      <trkpt lat="22.936510" lon="109.410929">
        <ele>71.707135</ele>
        <time>2026-08-15T03:54:58.000Z</time>
      </trkpt>
      <trkpt lat="22.936503" lon="109.410967">
        <ele>71.762905</ele>
        <time>2026-08-15T03:54:59.000Z</time>
      </trkpt>
      <trkpt lat="22.936497" lon="109.411008">
        <ele>71.822650</ele>
        <time>2026-08-15T03:55:00.000Z</time>
      </trkpt>
      <trkpt lat="22.936491" lon="109.411048">
        <ele>71.880974</ele>
        <time>2026-08-15T03:55:01.000Z</time>
      </trkpt>
      <trkpt lat="22.936485" lon="109.411089">
        <ele>71.940718</ele>
        <time>2026-08-15T03:55:02.000Z</time>
      </trkpt>
      <trkpt lat="22.936479" lon="109.411130">
        <ele>72.000462</ele>
        <time>2026-08-15T03:55:03.000Z</time>
      </trkpt>
      <trkpt lat="22.936476" lon="109.411171">
        <ele>72.059653</ele>
        <time>2026-08-15T03:55:04.000Z</time>
      </trkpt>
      <trkpt lat="22.936472" lon="109.411212">
        <ele>72.118987</ele>
        <time>2026-08-15T03:55:05.000Z</time>
      </trkpt>
      <trkpt lat="22.936467" lon="109.411252">
        <ele>72.177080</ele>
        <time>2026-08-15T03:55:06.000Z</time>
      </trkpt>
      <trkpt lat="22.936461" lon="109.411294">
        <ele>72.238246</ele>
        <time>2026-08-15T03:55:07.000Z</time>
      </trkpt>
      <trkpt lat="22.936453" lon="109.411334">
        <ele>72.297153</ele>
        <time>2026-08-15T03:55:08.000Z</time>
      </trkpt>
      <trkpt lat="22.936443" lon="109.411373">
        <ele>72.355413</ele>
        <time>2026-08-15T03:55:09.000Z</time>
      </trkpt>
      <trkpt lat="22.936434" lon="109.411414">
        <ele>72.416071</ele>
        <time>2026-08-15T03:55:10.000Z</time>
      </trkpt>
      <trkpt lat="22.936427" lon="109.411453">
        <ele>72.473253</ele>
        <time>2026-08-15T03:55:11.000Z</time>
      </trkpt>
      <trkpt lat="22.936422" lon="109.411495">
        <ele>72.534199</ele>
        <time>2026-08-15T03:55:12.000Z</time>
      </trkpt>
      <trkpt lat="22.936419" lon="109.411538">
        <ele>72.596259</ele>
        <time>2026-08-15T03:55:13.000Z</time>
      </trkpt>
      <trkpt lat="22.936416" lon="109.411579">
        <ele>72.655449</ele>
        <time>2026-08-15T03:55:14.000Z</time>
      </trkpt>
      <trkpt lat="22.936414" lon="109.411621">
        <ele>72.715973</ele>
        <time>2026-08-15T03:55:15.000Z</time>
      </trkpt>
      <trkpt lat="22.936412" lon="109.411664">
        <ele>72.777934</ele>
        <time>2026-08-15T03:55:16.000Z</time>
      </trkpt>
      <trkpt lat="22.936409" lon="109.411706">
        <ele>72.838559</ele>
        <time>2026-08-15T03:55:17.000Z</time>
      </trkpt>
      <trkpt lat="22.936404" lon="109.411747">
        <ele>72.898078</ele>
        <time>2026-08-15T03:55:18.000Z</time>
      </trkpt>
      <trkpt lat="22.936401" lon="109.411791">
        <ele>72.961573</ele>
        <time>2026-08-15T03:55:19.000Z</time>
      </trkpt>
      <trkpt lat="22.936402" lon="109.411835">
        <ele>73.024914</ele>
        <time>2026-08-15T03:55:20.000Z</time>
      </trkpt>
      <trkpt lat="22.936403" lon="109.411878">
        <ele>73.086816</ele>
        <time>2026-08-15T03:55:21.000Z</time>
      </trkpt>
      <trkpt lat="22.936403" lon="109.411922">
        <ele>73.150137</ele>
        <time>2026-08-15T03:55:22.000Z</time>
      </trkpt>
      <trkpt lat="22.936402" lon="109.411964">
        <ele>73.210601</ele>
        <time>2026-08-15T03:55:23.000Z</time>
      </trkpt>
      <trkpt lat="22.936402" lon="109.412006">
        <ele>73.271044</ele>
        <time>2026-08-15T03:55:24.000Z</time>
      </trkpt>
      <trkpt lat="22.936402" lon="109.412047">
        <ele>73.330048</ele>
        <time>2026-08-15T03:55:25.000Z</time>
      </trkpt>
      <trkpt lat="22.936401" lon="109.412086">
        <ele>73.386196</ele>
        <time>2026-08-15T03:55:26.000Z</time>
      </trkpt>
      <trkpt lat="22.936401" lon="109.412125">
        <ele>73.397963</ele>
        <time>2026-08-15T03:55:27.000Z</time>
      </trkpt>
      <trkpt lat="22.936403" lon="109.412164">
        <ele>73.396844</ele>
        <time>2026-08-15T03:55:28.000Z</time>
      </trkpt>
      <trkpt lat="22.936403" lon="109.412203">
        <ele>73.395727</ele>
        <time>2026-08-15T03:55:29.000Z</time>
      </trkpt>
      <trkpt lat="22.936402" lon="109.412243">
        <ele>73.394581</ele>
        <time>2026-08-15T03:55:30.000Z</time>
      </trkpt>
      <trkpt lat="22.936399" lon="109.412281">
        <ele>73.393488</ele>
        <time>2026-08-15T03:55:31.000Z</time>
      </trkpt>
      <trkpt lat="22.936393" lon="109.412320">
        <ele>73.392355</ele>
        <time>2026-08-15T03:55:32.000Z</time>
      </trkpt>
      <trkpt lat="22.936386" lon="109.412351">
        <ele>73.391441</ele>
        <time>2026-08-15T03:55:33.000Z</time>
      </trkpt>
      <trkpt lat="22.936376" lon="109.412388">
        <ele>73.390336</ele>
        <time>2026-08-15T03:55:34.000Z</time>
      </trkpt>
      <trkpt lat="22.936368" lon="109.412426">
        <ele>73.389219</ele>
        <time>2026-08-15T03:55:35.000Z</time>
      </trkpt>
      <trkpt lat="22.936359" lon="109.412465">
        <ele>73.388067</ele>
        <time>2026-08-15T03:55:36.000Z</time>
      </trkpt>
      <trkpt lat="22.936345" lon="109.412508">
        <ele>73.386761</ele>
        <time>2026-08-15T03:55:37.000Z</time>
      </trkpt>
      <trkpt lat="22.936328" lon="109.412551">
        <ele>73.385420</ele>
        <time>2026-08-15T03:55:38.000Z</time>
      </trkpt>
      <trkpt lat="22.936312" lon="109.412595">
        <ele>73.384065</ele>
        <time>2026-08-15T03:55:39.000Z</time>
      </trkpt>
      <trkpt lat="22.936296" lon="109.412635">
        <ele>73.382816</ele>
        <time>2026-08-15T03:55:40.000Z</time>
      </trkpt>
      <trkpt lat="22.936279" lon="109.412672">
        <ele>73.381631</ele>
        <time>2026-08-15T03:55:41.000Z</time>
      </trkpt>
      <trkpt lat="22.936264" lon="109.412713">
        <ele>73.380367</ele>
        <time>2026-08-15T03:55:42.000Z</time>
      </trkpt>
      <trkpt lat="22.936252" lon="109.412749">
        <ele>73.379270</ele>
        <time>2026-08-15T03:55:43.000Z</time>
      </trkpt>
      <trkpt lat="22.936236" lon="109.412780">
        <ele>73.378252</ele>
        <time>2026-08-15T03:55:44.000Z</time>
      </trkpt>
      <trkpt lat="22.936221" lon="109.412816">
        <ele>73.377120</ele>
        <time>2026-08-15T03:55:45.000Z</time>
      </trkpt>
      <trkpt lat="22.936202" lon="109.412856">
        <ele>73.375831</ele>
        <time>2026-08-15T03:55:46.000Z</time>
      </trkpt>
      <trkpt lat="22.936180" lon="109.412897">
        <ele>73.374472</ele>
        <time>2026-08-15T03:55:47.000Z</time>
      </trkpt>
      <trkpt lat="22.936160" lon="109.412935">
        <ele>73.373218</ele>
        <time>2026-08-15T03:55:48.000Z</time>
      </trkpt>
      <trkpt lat="22.936141" lon="109.412976">
        <ele>73.371903</ele>
        <time>2026-08-15T03:55:49.000Z</time>
      </trkpt>
      <trkpt lat="22.936121" lon="109.413013">
        <ele>73.370674</ele>
        <time>2026-08-15T03:55:50.000Z</time>
      </trkpt>
      <trkpt lat="22.936096" lon="109.413053">
        <ele>73.369289</ele>
        <time>2026-08-15T03:55:51.000Z</time>
      </trkpt>
      <trkpt lat="22.936069" lon="109.413090">
        <ele>73.367936</ele>
        <time>2026-08-15T03:55:52.000Z</time>
      </trkpt>
      <trkpt lat="22.936040" lon="109.413129">
        <ele>73.366500</ele>
        <time>2026-08-15T03:55:53.000Z</time>
      </trkpt>
      <trkpt lat="22.936017" lon="109.413168">
        <ele>73.365174</ele>
        <time>2026-08-15T03:55:54.000Z</time>
      </trkpt>
      <trkpt lat="22.935996" lon="109.413207">
        <ele>73.363879</ele>
        <time>2026-08-15T03:55:55.000Z</time>
      </trkpt>
      <trkpt lat="22.935976" lon="109.413246">
        <ele>73.362601</ele>
        <time>2026-08-15T03:55:56.000Z</time>
      </trkpt>
      <trkpt lat="22.935955" lon="109.413285">
        <ele>73.361306</ele>
        <time>2026-08-15T03:55:57.000Z</time>
      </trkpt>
      <trkpt lat="22.935942" lon="109.413321">
        <ele>73.360198</ele>
        <time>2026-08-15T03:55:58.000Z</time>
      </trkpt>
      <trkpt lat="22.935921" lon="109.413359">
        <ele>73.358929</ele>
        <time>2026-08-15T03:55:59.000Z</time>
      </trkpt>
      <trkpt lat="22.935898" lon="109.413396">
        <ele>73.357650</ele>
        <time>2026-08-15T03:56:00.000Z</time>
      </trkpt>
      <trkpt lat="22.935872" lon="109.413437">
        <ele>73.356224</ele>
        <time>2026-08-15T03:56:01.000Z</time>
      </trkpt>
      <trkpt lat="22.935845" lon="109.413482">
        <ele>73.354685</ele>
        <time>2026-08-15T03:56:02.000Z</time>
      </trkpt>
      <trkpt lat="22.935817" lon="109.413526">
        <ele>73.353153</ele>
        <time>2026-08-15T03:56:03.000Z</time>
      </trkpt>
      <trkpt lat="22.935791" lon="109.413571">
        <ele>73.351631</ele>
        <time>2026-08-15T03:56:04.000Z</time>
      </trkpt>
      <trkpt lat="22.935761" lon="109.413616">
        <ele>73.350040</ele>
        <time>2026-08-15T03:56:05.000Z</time>
      </trkpt>
      <trkpt lat="22.935731" lon="109.413664">
        <ele>73.348378</ele>
        <time>2026-08-15T03:56:06.000Z</time>
      </trkpt>
      <trkpt lat="22.935702" lon="109.413714">
        <ele>73.346685</ele>
        <time>2026-08-15T03:56:07.000Z</time>
      </trkpt>
      <trkpt lat="22.935674" lon="109.413763">
        <ele>73.345033</ele>
        <time>2026-08-15T03:56:08.000Z</time>
      </trkpt>
      <trkpt lat="22.935649" lon="109.413814">
        <ele>73.343378</ele>
        <time>2026-08-15T03:56:09.000Z</time>
      </trkpt>
      <trkpt lat="22.935625" lon="109.413864">
        <ele>73.305269</ele>
        <time>2026-08-15T03:56:10.000Z</time>
      </trkpt>
      <trkpt lat="22.935598" lon="109.413915">
        <ele>73.248415</ele>
        <time>2026-08-15T03:56:11.000Z</time>
      </trkpt>
      <trkpt lat="22.935572" lon="109.413964">
        <ele>73.193759</ele>
        <time>2026-08-15T03:56:12.000Z</time>
      </trkpt>
      <trkpt lat="22.935546" lon="109.414012">
        <ele>73.139938</ele>
        <time>2026-08-15T03:56:13.000Z</time>
      </trkpt>
      <trkpt lat="22.935519" lon="109.414058">
        <ele>73.087218</ele>
        <time>2026-08-15T03:56:14.000Z</time>
      </trkpt>
      <trkpt lat="22.935490" lon="109.414103">
        <ele>73.034136</ele>
        <time>2026-08-15T03:56:15.000Z</time>
      </trkpt>
      <trkpt lat="22.935462" lon="109.414147">
        <ele>72.982446</ele>
        <time>2026-08-15T03:56:16.000Z</time>
      </trkpt>
      <trkpt lat="22.935434" lon="109.414190">
        <ele>72.931548</ele>
        <time>2026-08-15T03:56:17.000Z</time>
      </trkpt>
      <trkpt lat="22.935407" lon="109.414232">
        <ele>72.882044</ele>
        <time>2026-08-15T03:56:18.000Z</time>
      </trkpt>
      <trkpt lat="22.935383" lon="109.414277">
        <ele>72.831786</ele>
        <time>2026-08-15T03:56:19.000Z</time>
      </trkpt>
      <trkpt lat="22.935361" lon="109.414320">
        <ele>72.784245</ele>
        <time>2026-08-15T03:56:20.000Z</time>
      </trkpt>
      <trkpt lat="22.935338" lon="109.414365">
        <ele>72.734504</ele>
        <time>2026-08-15T03:56:21.000Z</time>
      </trkpt>
      <trkpt lat="22.935316" lon="109.414409">
        <ele>72.686115</ele>
        <time>2026-08-15T03:56:22.000Z</time>
      </trkpt>
      <trkpt lat="22.935293" lon="109.414453">
        <ele>72.637217</ele>
        <time>2026-08-15T03:56:23.000Z</time>
      </trkpt>
      <trkpt lat="22.935267" lon="109.414497">
        <ele>72.586691</ele>
        <time>2026-08-15T03:56:24.000Z</time>
      </trkpt>
      <trkpt lat="22.935240" lon="109.414541">
        <ele>72.535590</ele>
        <time>2026-08-15T03:56:25.000Z</time>
      </trkpt>
      <trkpt lat="22.935214" lon="109.414585">
        <ele>72.485064</ele>
        <time>2026-08-15T03:56:26.000Z</time>
      </trkpt>
      <trkpt lat="22.935190" lon="109.414632">
        <ele>72.433124</ele>
        <time>2026-08-15T03:56:27.000Z</time>
      </trkpt>
      <trkpt lat="22.935173" lon="109.414680">
        <ele>72.383420</ele>
        <time>2026-08-15T03:56:28.000Z</time>
      </trkpt>
      <trkpt lat="22.935158" lon="109.414727">
        <ele>72.335345</ele>
        <time>2026-08-15T03:56:29.000Z</time>
      </trkpt>
      <trkpt lat="22.935144" lon="109.414775">
        <ele>72.286683</ele>
        <time>2026-08-15T03:56:30.000Z</time>
      </trkpt>
      <trkpt lat="22.935134" lon="109.414825">
        <ele>72.237232</ele>
        <time>2026-08-15T03:56:31.000Z</time>
      </trkpt>
      <trkpt lat="22.935130" lon="109.414875">
        <ele>72.188726</ele>
        <time>2026-08-15T03:56:32.000Z</time>
      </trkpt>
      <trkpt lat="22.935129" lon="109.414925">
        <ele>72.140391</ele>
        <time>2026-08-15T03:56:33.000Z</time>
      </trkpt>
      <trkpt lat="22.935130" lon="109.414977">
        <ele>72.090122</ele>
        <time>2026-08-15T03:56:34.000Z</time>
      </trkpt>
      <trkpt lat="22.935130" lon="109.415028">
        <ele>72.040832</ele>
        <time>2026-08-15T03:56:35.000Z</time>
      </trkpt>
      <trkpt lat="22.935129" lon="109.415081">
        <ele>71.989597</ele>
        <time>2026-08-15T03:56:36.000Z</time>
      </trkpt>
      <trkpt lat="22.935124" lon="109.415136">
        <ele>71.936182</ele>
        <time>2026-08-15T03:56:37.000Z</time>
      </trkpt>
      <trkpt lat="22.935116" lon="109.415194">
        <ele>71.879501</ele>
        <time>2026-08-15T03:56:38.000Z</time>
      </trkpt>
      <trkpt lat="22.935107" lon="109.415254">
        <ele>71.820747</ele>
        <time>2026-08-15T03:56:39.000Z</time>
      </trkpt>
      <trkpt lat="22.935097" lon="109.415317">
        <ele>71.758961</ele>
        <time>2026-08-15T03:56:40.000Z</time>
      </trkpt>
      <trkpt lat="22.935085" lon="109.415379">
        <ele>71.697730</ele>
        <time>2026-08-15T03:56:41.000Z</time>
      </trkpt>
      <trkpt lat="22.935075" lon="109.415440">
        <ele>71.637848</ele>
        <time>2026-08-15T03:56:42.000Z</time>
      </trkpt>
      <trkpt lat="22.935069" lon="109.415499">
        <ele>71.580478</ele>
        <time>2026-08-15T03:56:43.000Z</time>
      </trkpt>
      <trkpt lat="22.935064" lon="109.415553">
        <ele>71.528025</ele>
        <time>2026-08-15T03:56:44.000Z</time>
      </trkpt>
      <trkpt lat="22.935057" lon="109.415601">
        <ele>71.481056</ele>
        <time>2026-08-15T03:56:45.000Z</time>
      </trkpt>
      <trkpt lat="22.935050" lon="109.415645">
        <ele>71.450307</ele>
        <time>2026-08-15T03:56:46.000Z</time>
      </trkpt>
      <trkpt lat="22.935043" lon="109.415684">
        <ele>71.439294</ele>
        <time>2026-08-15T03:56:47.000Z</time>
      </trkpt>
      <trkpt lat="22.935029" lon="109.415716">
        <ele>71.429475</ele>
        <time>2026-08-15T03:56:48.000Z</time>
      </trkpt>
      <trkpt lat="22.935010" lon="109.415740">
        <ele>71.420703</ele>
        <time>2026-08-15T03:56:49.000Z</time>
      </trkpt>
      <trkpt lat="22.934989" lon="109.415750">
        <ele>71.413802</ele>
        <time>2026-08-15T03:56:50.000Z</time>
      </trkpt>
      <trkpt lat="22.934966" lon="109.415751">
        <ele>71.406875</ele>
        <time>2026-08-15T03:56:51.000Z</time>
      </trkpt>
      <trkpt lat="22.934945" lon="109.415750">
        <ele>71.400548</ele>
        <time>2026-08-15T03:56:52.000Z</time>
      </trkpt>
      <trkpt lat="22.934924" lon="109.415753">
        <ele>71.394174</ele>
        <time>2026-08-15T03:56:53.000Z</time>
      </trkpt>
      <trkpt lat="22.934904" lon="109.415756">
        <ele>71.388098</ele>
        <time>2026-08-15T03:56:54.000Z</time>
      </trkpt>
      <trkpt lat="22.934884" lon="109.415759">
        <ele>71.382021</ele>
        <time>2026-08-15T03:56:55.000Z</time>
      </trkpt>
      <trkpt lat="22.934865" lon="109.415765">
        <ele>71.376066</ele>
        <time>2026-08-15T03:56:56.000Z</time>
      </trkpt>
      <trkpt lat="22.934847" lon="109.415774">
        <ele>71.370102</ele>
        <time>2026-08-15T03:56:57.000Z</time>
      </trkpt>
      <trkpt lat="22.934829" lon="109.415787">
        <ele>71.363596</ele>
        <time>2026-08-15T03:56:58.000Z</time>
      </trkpt>
      <trkpt lat="22.934813" lon="109.415806">
        <ele>71.356461</ele>
        <time>2026-08-15T03:56:59.000Z</time>
      </trkpt>
      <trkpt lat="22.934799" lon="109.415830">
        <ele>71.348587</ele>
        <time>2026-08-15T03:57:00.000Z</time>
      </trkpt>
      <trkpt lat="22.934788" lon="109.415859">
        <ele>71.339894</ele>
        <time>2026-08-15T03:57:01.000Z</time>
      </trkpt>
      <trkpt lat="22.934781" lon="109.415890">
        <ele>71.331047</ele>
        <time>2026-08-15T03:57:02.000Z</time>
      </trkpt>
      <trkpt lat="22.934775" lon="109.415922">
        <ele>71.321996</ele>
        <time>2026-08-15T03:57:03.000Z</time>
      </trkpt>
      <trkpt lat="22.934770" lon="109.415955">
        <ele>71.312727</ele>
        <time>2026-08-15T03:57:04.000Z</time>
      </trkpt>
      <trkpt lat="22.934766" lon="109.415989">
        <ele>71.303227</ele>
        <time>2026-08-15T03:57:05.000Z</time>
      </trkpt>
      <trkpt lat="22.934762" lon="109.416024">
        <ele>71.293451</ele>
        <time>2026-08-15T03:57:06.000Z</time>
      </trkpt>
      <trkpt lat="22.934759" lon="109.416057">
        <ele>71.284261</ele>
        <time>2026-08-15T03:57:07.000Z</time>
      </trkpt>
      <trkpt lat="22.934757" lon="109.416089">
        <ele>71.275371</ele>
        <time>2026-08-15T03:57:08.000Z</time>
      </trkpt>
      <trkpt lat="22.934757" lon="109.416124">
        <ele>71.265670</ele>
        <time>2026-08-15T03:57:09.000Z</time>
      </trkpt>
      <trkpt lat="22.934757" lon="109.416158">
        <ele>71.256247</ele>
        <time>2026-08-15T03:57:10.000Z</time>
      </trkpt>
      <trkpt lat="22.934759" lon="109.416188">
        <ele>71.247910</ele>
        <time>2026-08-15T03:57:11.000Z</time>
      </trkpt>
      <trkpt lat="22.934758" lon="109.416215">
        <ele>71.240420</ele>
        <time>2026-08-15T03:57:12.000Z</time>
      </trkpt>
      <trkpt lat="22.934758" lon="109.416248">
        <ele>71.231274</ele>
        <time>2026-08-15T03:57:13.000Z</time>
      </trkpt>
      <trkpt lat="22.934761" lon="109.416283">
        <ele>71.221531</ele>
        <time>2026-08-15T03:57:14.000Z</time>
      </trkpt>
      <trkpt lat="22.934764" lon="109.416315">
        <ele>71.212616</ele>
        <time>2026-08-15T03:57:15.000Z</time>
      </trkpt>
      <trkpt lat="22.934765" lon="109.416349">
        <ele>71.203188</ele>
        <time>2026-08-15T03:57:16.000Z</time>
      </trkpt>
      <trkpt lat="22.934768" lon="109.416385">
        <ele>71.193169</ele>
        <time>2026-08-15T03:57:17.000Z</time>
      </trkpt>
      <trkpt lat="22.934771" lon="109.416422">
        <ele>71.182875</ele>
        <time>2026-08-15T03:57:18.000Z</time>
      </trkpt>
      <trkpt lat="22.934776" lon="109.416459">
        <ele>71.172510</ele>
        <time>2026-08-15T03:57:19.000Z</time>
      </trkpt>
      <trkpt lat="22.934781" lon="109.416495">
        <ele>71.162419</ele>
        <time>2026-08-15T03:57:20.000Z</time>
      </trkpt>
      <trkpt lat="22.934793" lon="109.416533">
        <ele>71.151285</ele>
        <time>2026-08-15T03:57:21.000Z</time>
      </trkpt>
      <trkpt lat="22.934809" lon="109.416564">
        <ele>71.141435</ele>
        <time>2026-08-15T03:57:22.000Z</time>
      </trkpt>
      <trkpt lat="22.934833" lon="109.416593">
        <ele>71.130629</ele>
        <time>2026-08-15T03:57:23.000Z</time>
      </trkpt>
      <trkpt lat="22.934864" lon="109.416625">
        <ele>71.117756</ele>
        <time>2026-08-15T03:57:24.000Z</time>
      </trkpt>
      <trkpt lat="22.934895" lon="109.416658">
        <ele>71.104691</ele>
        <time>2026-08-15T03:57:25.000Z</time>
      </trkpt>
      <trkpt lat="22.934928" lon="109.416691">
        <ele>71.091190</ele>
        <time>2026-08-15T03:57:26.000Z</time>
      </trkpt>
      <trkpt lat="22.934960" lon="109.416725">
        <ele>71.077716</ele>
        <time>2026-08-15T03:57:27.000Z</time>
      </trkpt>
      <trkpt lat="22.934988" lon="109.416761">
        <ele>71.064656</ele>
        <time>2026-08-15T03:57:28.000Z</time>
      </trkpt>
      <trkpt lat="22.935011" lon="109.416801">
        <ele>71.051586</ele>
        <time>2026-08-15T03:57:29.000Z</time>
      </trkpt>
      <trkpt lat="22.935029" lon="109.416838">
        <ele>71.039988</ele>
        <time>2026-08-15T03:57:30.000Z</time>
      </trkpt>
      <trkpt lat="22.935040" lon="109.416871">
        <ele>71.030261</ele>
        <time>2026-08-15T03:57:31.000Z</time>
      </trkpt>
      <trkpt lat="22.935049" lon="109.416908">
        <ele>71.019654</ele>
        <time>2026-08-15T03:57:32.000Z</time>
      </trkpt>
      <trkpt lat="22.935057" lon="109.416946">
        <ele>71.008850</ele>
        <time>2026-08-15T03:57:33.000Z</time>
      </trkpt>
      <trkpt lat="22.935060" lon="109.416981">
        <ele>70.999107</ele>
        <time>2026-08-15T03:57:34.000Z</time>
      </trkpt>
      <trkpt lat="22.935060" lon="109.417016">
        <ele>70.989407</ele>
        <time>2026-08-15T03:57:35.000Z</time>
      </trkpt>
      <trkpt lat="22.935057" lon="109.417052">
        <ele>70.979388</ele>
        <time>2026-08-15T03:57:36.000Z</time>
      </trkpt>
      <trkpt lat="22.935055" lon="109.417086">
        <ele>70.969945</ele>
        <time>2026-08-15T03:57:37.000Z</time>
      </trkpt>
      <trkpt lat="22.935056" lon="109.417120">
        <ele>70.960517</ele>
        <time>2026-08-15T03:57:38.000Z</time>
      </trkpt>
      <trkpt lat="22.935058" lon="109.417152">
        <ele>70.951627</ele>
        <time>2026-08-15T03:57:39.000Z</time>
      </trkpt>
      <trkpt lat="22.935065" lon="109.417185">
        <ele>70.942241</ele>
        <time>2026-08-15T03:57:40.000Z</time>
      </trkpt>
      <trkpt lat="22.935077" lon="109.417216">
        <ele>70.932921</ele>
        <time>2026-08-15T03:57:41.000Z</time>
      </trkpt>
      <trkpt lat="22.935092" lon="109.417244">
        <ele>70.923943</ele>
        <time>2026-08-15T03:57:42.000Z</time>
      </trkpt>
      <trkpt lat="22.935108" lon="109.417270">
        <ele>70.915276</ele>
        <time>2026-08-15T03:57:43.000Z</time>
      </trkpt>
      <trkpt lat="22.935122" lon="109.417294">
        <ele>70.911948</ele>
        <time>2026-08-15T03:57:44.000Z</time>
      </trkpt>
      <trkpt lat="22.935135" lon="109.417316">
        <ele>70.909705</ele>
        <time>2026-08-15T03:57:45.000Z</time>
      </trkpt>
      <trkpt lat="22.935146" lon="109.417334">
        <ele>70.907852</ele>
        <time>2026-08-15T03:57:46.000Z</time>
      </trkpt>
      <trkpt lat="22.935154" lon="109.417342">
        <ele>70.906839</ele>
        <time>2026-08-15T03:57:47.000Z</time>
      </trkpt>
      <trkpt lat="22.935160" lon="109.417345">
        <ele>70.906224</ele>
        <time>2026-08-15T03:57:48.000Z</time>
      </trkpt>
      <trkpt lat="22.935166" lon="109.417339">
        <ele>70.905464</ele>
        <time>2026-08-15T03:57:49.000Z</time>
      </trkpt>
      <trkpt lat="22.935169" lon="109.417333">
        <ele>70.904878</ele>
        <time>2026-08-15T03:57:50.000Z</time>
      </trkpt>
      <trkpt lat="22.935167" lon="109.417328">
        <ele>70.904411</ele>
        <time>2026-08-15T03:57:51.000Z</time>
      </trkpt>
      <trkpt lat="22.935124" lon="109.417277">
        <ele>70.898479</ele>
        <time>2026-08-15T03:57:56.000Z</time>
      </trkpt>
      <trkpt lat="22.935112" lon="109.417258">
        <ele>70.896502</ele>
        <time>2026-08-15T03:57:57.000Z</time>
      </trkpt>
      <trkpt lat="22.935103" lon="109.417236">
        <ele>70.894437</ele>
        <time>2026-08-15T03:57:58.000Z</time>
      </trkpt>
      <trkpt lat="22.935095" lon="109.417212">
        <ele>70.892248</ele>
        <time>2026-08-15T03:57:59.000Z</time>
      </trkpt>
      <trkpt lat="22.935086" lon="109.417186">
        <ele>70.889865</ele>
        <time>2026-08-15T03:58:00.000Z</time>
      </trkpt>
      <trkpt lat="22.935076" lon="109.417158">
        <ele>70.887288</ele>
        <time>2026-08-15T03:58:01.000Z</time>
      </trkpt>
      <trkpt lat="22.935072" lon="109.417128">
        <ele>70.884688</ele>
        <time>2026-08-15T03:58:02.000Z</time>
      </trkpt>
      <trkpt lat="22.935070" lon="109.417099">
        <ele>70.882193</ele>
        <time>2026-08-15T03:58:03.000Z</time>
      </trkpt>
      <trkpt lat="22.935070" lon="109.417070">
        <ele>70.879705</ele>
        <time>2026-08-15T03:58:04.000Z</time>
      </trkpt>
      <trkpt lat="22.935072" lon="109.417038">
        <ele>70.876954</ele>
        <time>2026-08-15T03:58:05.000Z</time>
      </trkpt>
      <trkpt lat="22.935075" lon="109.417007">
        <ele>70.874280</ele>
        <time>2026-08-15T03:58:06.000Z</time>
      </trkpt>
      <trkpt lat="22.935078" lon="109.416976">
        <ele>70.871606</ele>
        <time>2026-08-15T03:58:07.000Z</time>
      </trkpt>
      <trkpt lat="22.935074" lon="109.416945">
        <ele>70.868920</ele>
        <time>2026-08-15T03:58:08.000Z</time>
      </trkpt>
      <trkpt lat="22.935065" lon="109.416914">
        <ele>70.866132</ele>
        <time>2026-08-15T03:58:09.000Z</time>
      </trkpt>
      <trkpt lat="22.935055" lon="109.416885">
        <ele>70.863475</ele>
        <time>2026-08-15T03:58:10.000Z</time>
      </trkpt>
      <trkpt lat="22.935044" lon="109.416856">
        <ele>70.860785</ele>
        <time>2026-08-15T03:58:11.000Z</time>
      </trkpt>
      <trkpt lat="22.935032" lon="109.416828">
        <ele>70.858135</ele>
        <time>2026-08-15T03:58:12.000Z</time>
      </trkpt>
      <trkpt lat="22.935019" lon="109.416801">
        <ele>70.855522</ele>
        <time>2026-08-15T03:58:13.000Z</time>
      </trkpt>
      <trkpt lat="22.935003" lon="109.416777">
        <ele>70.852980</ele>
        <time>2026-08-15T03:58:14.000Z</time>
      </trkpt>
      <trkpt lat="22.934987" lon="109.416754">
        <ele>70.850507</ele>
        <time>2026-08-15T03:58:15.000Z</time>
      </trkpt>
      <trkpt lat="22.934968" lon="109.416733">
        <ele>70.847982</ele>
        <time>2026-08-15T03:58:16.000Z</time>
      </trkpt>
      <trkpt lat="22.934945" lon="109.416711">
        <ele>70.845126</ele>
        <time>2026-08-15T03:58:17.000Z</time>
      </trkpt>
      <trkpt lat="22.934922" lon="109.416688">
        <ele>70.842214</ele>
        <time>2026-08-15T03:58:18.000Z</time>
      </trkpt>
      <trkpt lat="22.934900" lon="109.416666">
        <ele>70.839428</ele>
        <time>2026-08-15T03:58:19.000Z</time>
      </trkpt>
      <trkpt lat="22.934879" lon="109.416645">
        <ele>70.836768</ele>
        <time>2026-08-15T03:58:20.000Z</time>
      </trkpt>
      <trkpt lat="22.934858" lon="109.416624">
        <ele>70.834109</ele>
        <time>2026-08-15T03:58:21.000Z</time>
      </trkpt>
      <trkpt lat="22.934835" lon="109.416602">
        <ele>70.831254</ele>
        <time>2026-08-15T03:58:22.000Z</time>
      </trkpt>
      <trkpt lat="22.934813" lon="109.416580">
        <ele>70.828468</ele>
        <time>2026-08-15T03:58:23.000Z</time>
      </trkpt>
      <trkpt lat="22.934797" lon="109.416562">
        <ele>70.826322</ele>
        <time>2026-08-15T03:58:24.000Z</time>
      </trkpt>
      <trkpt lat="22.934785" lon="109.416541">
        <ele>70.824202</ele>
        <time>2026-08-15T03:58:25.000Z</time>
      </trkpt>
      <trkpt lat="22.934775" lon="109.416518">
        <ele>70.822020</ele>
        <time>2026-08-15T03:58:26.000Z</time>
      </trkpt>
      <trkpt lat="22.934767" lon="109.416486">
        <ele>70.819175</ele>
        <time>2026-08-15T03:58:27.000Z</time>
      </trkpt>
      <trkpt lat="22.934767" lon="109.416455">
        <ele>70.816516</ele>
        <time>2026-08-15T03:58:28.000Z</time>
      </trkpt>
      <trkpt lat="22.934768" lon="109.416421">
        <ele>70.813597</ele>
        <time>2026-08-15T03:58:29.000Z</time>
      </trkpt>
      <trkpt lat="22.934770" lon="109.416388">
        <ele>70.810760</ele>
        <time>2026-08-15T03:58:30.000Z</time>
      </trkpt>
      <trkpt lat="22.934775" lon="109.416357">
        <ele>70.808060</ele>
        <time>2026-08-15T03:58:31.000Z</time>
      </trkpt>
      <trkpt lat="22.934781" lon="109.416330">
        <ele>70.805678</ele>
        <time>2026-08-15T03:58:32.000Z</time>
      </trkpt>
      <trkpt lat="22.934783" lon="109.416309">
        <ele>70.803866</ele>
        <time>2026-08-15T03:58:33.000Z</time>
      </trkpt>
      <trkpt lat="22.934785" lon="109.416288">
        <ele>70.802055</ele>
        <time>2026-08-15T03:58:34.000Z</time>
      </trkpt>
      <trkpt lat="22.934786" lon="109.416268">
        <ele>70.800337</ele>
        <time>2026-08-15T03:58:35.000Z</time>
      </trkpt>
      <trkpt lat="22.934786" lon="109.416250">
        <ele>70.798793</ele>
        <time>2026-08-15T03:58:36.000Z</time>
      </trkpt>
      <trkpt lat="22.934787" lon="109.416238">
        <ele>70.797759</ele>
        <time>2026-08-15T03:58:37.000Z</time>
      </trkpt>
      <trkpt lat="22.934789" lon="109.416236">
        <ele>70.797506</ele>
        <time>2026-08-15T03:58:38.000Z</time>
      </trkpt>
      <trkpt lat="22.934799" lon="109.416203">
        <ele>70.794526</ele>
        <time>2026-08-15T03:59:56.000Z</time>
      </trkpt>
      <trkpt lat="22.934799" lon="109.416184">
        <ele>70.792896</ele>
        <time>2026-08-15T03:59:57.000Z</time>
      </trkpt>
      <trkpt lat="22.934788" lon="109.416157">
        <ele>70.790363</ele>
        <time>2026-08-15T03:59:58.000Z</time>
      </trkpt>
      <trkpt lat="22.934783" lon="109.416127">
        <ele>70.787747</ele>
        <time>2026-08-15T03:59:59.000Z</time>
      </trkpt>
      <trkpt lat="22.934779" lon="109.416092">
        <ele>70.784722</ele>
        <time>2026-08-15T04:00:00.000Z</time>
      </trkpt>
      <trkpt lat="22.934783" lon="109.416058">
        <ele>70.781781</ele>
        <time>2026-08-15T04:00:01.000Z</time>
      </trkpt>
      <trkpt lat="22.934787" lon="109.416024">
        <ele>70.778841</ele>
        <time>2026-08-15T04:00:02.000Z</time>
      </trkpt>
      <trkpt lat="22.934795" lon="109.415994">
        <ele>70.776162</ele>
        <time>2026-08-15T04:00:03.000Z</time>
      </trkpt>
      <trkpt lat="22.934803" lon="109.415963">
        <ele>70.773400</ele>
        <time>2026-08-15T04:00:04.000Z</time>
      </trkpt>
      <trkpt lat="22.934809" lon="109.415932">
        <ele>70.770682</ele>
        <time>2026-08-15T04:00:05.000Z</time>
      </trkpt>
      <trkpt lat="22.934813" lon="109.415902">
        <ele>70.768082</ele>
        <time>2026-08-15T04:00:06.000Z</time>
      </trkpt>
      <trkpt lat="22.934817" lon="109.415872">
        <ele>70.765481</ele>
        <time>2026-08-15T04:00:07.000Z</time>
      </trkpt>
      <trkpt lat="22.934823" lon="109.415844">
        <ele>70.763015</ele>
        <time>2026-08-15T04:00:08.000Z</time>
      </trkpt>
      <trkpt lat="22.934833" lon="109.415818">
        <ele>70.760598</ele>
        <time>2026-08-15T04:00:09.000Z</time>
      </trkpt>
      <trkpt lat="22.934850" lon="109.415801">
        <ele>70.758445</ele>
        <time>2026-08-15T04:00:10.000Z</time>
      </trkpt>
      <trkpt lat="22.934876" lon="109.415791">
        <ele>70.755876</ele>
        <time>2026-08-15T04:00:11.000Z</time>
      </trkpt>
      <trkpt lat="22.934905" lon="109.415781">
        <ele>70.753041</ele>
        <time>2026-08-15T04:00:12.000Z</time>
      </trkpt>
      <trkpt lat="22.934933" lon="109.415776">
        <ele>70.750398</ele>
        <time>2026-08-15T04:00:13.000Z</time>
      </trkpt>
      <trkpt lat="22.934961" lon="109.415775">
        <ele>70.747788</ele>
        <time>2026-08-15T04:00:14.000Z</time>
      </trkpt>
      <trkpt lat="22.934986" lon="109.415773">
        <ele>70.742422</ele>
        <time>2026-08-15T04:00:15.000Z</time>
      </trkpt>
      <trkpt lat="22.935009" lon="109.415769">
        <ele>70.733582</ele>
        <time>2026-08-15T04:00:16.000Z</time>
      </trkpt>
      <trkpt lat="22.935032" lon="109.415759">
        <ele>70.724179</ele>
        <time>2026-08-15T04:00:17.000Z</time>
      </trkpt>
      <trkpt lat="22.935056" lon="109.415749">
        <ele>70.714423</ele>
        <time>2026-08-15T04:00:18.000Z</time>
      </trkpt>
      <trkpt lat="22.935082" lon="109.415743">
        <ele>70.704335</ele>
        <time>2026-08-15T04:00:19.000Z</time>
      </trkpt>
      <trkpt lat="22.935112" lon="109.415742">
        <ele>70.692943</ele>
        <time>2026-08-15T04:00:20.000Z</time>
      </trkpt>
      <trkpt lat="22.935144" lon="109.415742">
        <ele>70.680799</ele>
        <time>2026-08-15T04:00:21.000Z</time>
      </trkpt>
      <trkpt lat="22.935175" lon="109.415737">
        <ele>70.668904</ele>
        <time>2026-08-15T04:00:22.000Z</time>
      </trkpt>
      <trkpt lat="22.935206" lon="109.415727">
        <ele>70.656631</ele>
        <time>2026-08-15T04:00:23.000Z</time>
      </trkpt>
      <trkpt lat="22.935236" lon="109.415717">
        <ele>70.644721</ele>
        <time>2026-08-15T04:00:24.000Z</time>
      </trkpt>
      <trkpt lat="22.935265" lon="109.415708">
        <ele>70.633274</ele>
        <time>2026-08-15T04:00:25.000Z</time>
      </trkpt>
      <trkpt lat="22.935294" lon="109.415700">
        <ele>70.621918</ele>
        <time>2026-08-15T04:00:26.000Z</time>
      </trkpt>
      <trkpt lat="22.935324" lon="109.415692">
        <ele>70.610194</ele>
        <time>2026-08-15T04:00:27.000Z</time>
      </trkpt>
      <trkpt lat="22.935351" lon="109.415688">
        <ele>70.599852</ele>
        <time>2026-08-15T04:00:28.000Z</time>
      </trkpt>
      <trkpt lat="22.935378" lon="109.415685">
        <ele>70.589551</ele>
        <time>2026-08-15T04:00:29.000Z</time>
      </trkpt>
      <trkpt lat="22.935405" lon="109.415682">
        <ele>70.579250</ele>
        <time>2026-08-15T04:00:30.000Z</time>
      </trkpt>
      <trkpt lat="22.935432" lon="109.415680">
        <ele>70.568979</ele>
        <time>2026-08-15T04:00:31.000Z</time>
      </trkpt>
      <trkpt lat="22.935458" lon="109.415678">
        <ele>70.559087</ele>
        <time>2026-08-15T04:00:32.000Z</time>
      </trkpt>
      <trkpt lat="22.935482" lon="109.415674">
        <ele>70.549871</ele>
        <time>2026-08-15T04:00:33.000Z</time>
      </trkpt>
      <trkpt lat="22.935509" lon="109.415668">
        <ele>70.539412</ele>
        <time>2026-08-15T04:00:34.000Z</time>
      </trkpt>
      <trkpt lat="22.935537" lon="109.415660">
        <ele>70.528423</ele>
        <time>2026-08-15T04:00:35.000Z</time>
      </trkpt>
      <trkpt lat="22.935567" lon="109.415650">
        <ele>70.516513</ele>
        <time>2026-08-15T04:00:36.000Z</time>
      </trkpt>
      <trkpt lat="22.935598" lon="109.415638">
        <ele>70.504023</ele>
        <time>2026-08-15T04:00:37.000Z</time>
      </trkpt>
      <trkpt lat="22.935631" lon="109.415623">
        <ele>70.490445</ele>
        <time>2026-08-15T04:00:38.000Z</time>
      </trkpt>
      <trkpt lat="22.935661" lon="109.415603">
        <ele>70.477085</ele>
        <time>2026-08-15T04:00:39.000Z</time>
      </trkpt>
      <trkpt lat="22.935690" lon="109.415582">
        <ele>70.463856</ele>
        <time>2026-08-15T04:00:40.000Z</time>
      </trkpt>
      <trkpt lat="22.935720" lon="109.415562">
        <ele>70.450495</ele>
        <time>2026-08-15T04:00:41.000Z</time>
      </trkpt>
      <trkpt lat="22.935748" lon="109.415543">
        <ele>70.437964</ele>
        <time>2026-08-15T04:00:42.000Z</time>
      </trkpt>
      <trkpt lat="22.935772" lon="109.415526">
        <ele>70.427089</ele>
        <time>2026-08-15T04:00:43.000Z</time>
      </trkpt>
      <trkpt lat="22.935795" lon="109.415510">
        <ele>70.416722</ele>
        <time>2026-08-15T04:00:44.000Z</time>
      </trkpt>
      <trkpt lat="22.935820" lon="109.415493">
        <ele>70.405527</ele>
        <time>2026-08-15T04:00:45.000Z</time>
      </trkpt>
      <trkpt lat="22.935841" lon="109.415474">
        <ele>70.395153</ele>
        <time>2026-08-15T04:00:46.000Z</time>
      </trkpt>
      <trkpt lat="22.935859" lon="109.415452">
        <ele>70.384867</ele>
        <time>2026-08-15T04:00:47.000Z</time>
      </trkpt>
      <trkpt lat="22.935874" lon="109.415429">
        <ele>70.375016</ele>
        <time>2026-08-15T04:00:48.000Z</time>
      </trkpt>
      <trkpt lat="22.935888" lon="109.415404">
        <ele>70.364790</ele>
        <time>2026-08-15T04:00:49.000Z</time>
      </trkpt>
      <trkpt lat="22.935905" lon="109.415382">
        <ele>70.354752</ele>
        <time>2026-08-15T04:00:50.000Z</time>
      </trkpt>
      <trkpt lat="22.935923" lon="109.415362">
        <ele>70.344978</ele>
        <time>2026-08-15T04:00:51.000Z</time>
      </trkpt>
      <trkpt lat="22.935941" lon="109.415346">
        <ele>70.336149</ele>
        <time>2026-08-15T04:00:52.000Z</time>
      </trkpt>
      <trkpt lat="22.935960" lon="109.415335">
        <ele>70.327977</ele>
        <time>2026-08-15T04:00:53.000Z</time>
      </trkpt>
      <trkpt lat="22.935976" lon="109.415322">
        <ele>70.320393</ele>
        <time>2026-08-15T04:00:54.000Z</time>
      </trkpt>
      <trkpt lat="22.935991" lon="109.415308">
        <ele>70.312886</ele>
        <time>2026-08-15T04:00:55.000Z</time>
      </trkpt>
      <trkpt lat="22.936011" lon="109.415294">
        <ele>70.303855</ele>
        <time>2026-08-15T04:00:56.000Z</time>
      </trkpt>
      <trkpt lat="22.936038" lon="109.415286">
        <ele>70.293233</ele>
        <time>2026-08-15T04:00:57.000Z</time>
      </trkpt>
      <trkpt lat="22.936069" lon="109.415283">
        <ele>70.281421</ele>
        <time>2026-08-15T04:00:58.000Z</time>
      </trkpt>
      <trkpt lat="22.936103" lon="109.415281">
        <ele>70.268499</ele>
        <time>2026-08-15T04:00:59.000Z</time>
      </trkpt>
      <trkpt lat="22.936138" lon="109.415279">
        <ele>70.255197</ele>
        <time>2026-08-15T04:01:00.000Z</time>
      </trkpt>
      <trkpt lat="22.936170" lon="109.415280">
        <ele>70.243047</ele>
        <time>2026-08-15T04:01:01.000Z</time>
      </trkpt>
      <trkpt lat="22.936202" lon="109.415282">
        <ele>70.230882</ele>
        <time>2026-08-15T04:01:02.000Z</time>
      </trkpt>
      <trkpt lat="22.936233" lon="109.415285">
        <ele>70.219070</ele>
        <time>2026-08-15T04:01:03.000Z</time>
      </trkpt>
      <trkpt lat="22.936264" lon="109.415289">
        <ele>70.207222</ele>
        <time>2026-08-15T04:01:04.000Z</time>
      </trkpt>
      <trkpt lat="22.936293" lon="109.415299">
        <ele>70.195674</ele>
        <time>2026-08-15T04:01:05.000Z</time>
      </trkpt>
      <trkpt lat="22.936322" lon="109.415315">
        <ele>70.183329</ele>
        <time>2026-08-15T04:01:06.000Z</time>
      </trkpt>
      <trkpt lat="22.936348" lon="109.415334">
        <ele>70.171434</ele>
        <time>2026-08-15T04:01:07.000Z</time>
      </trkpt>
      <trkpt lat="22.936372" lon="109.415358">
        <ele>70.159052</ele>
        <time>2026-08-15T04:01:08.000Z</time>
      </trkpt>
      <trkpt lat="22.936392" lon="109.415380">
        <ele>70.148247</ele>
        <time>2026-08-15T04:01:09.000Z</time>
      </trkpt>
      <trkpt lat="22.936414" lon="109.415400">
        <ele>70.137357</ele>
        <time>2026-08-15T04:01:10.000Z</time>
      </trkpt>
      <trkpt lat="22.936438" lon="109.415413">
        <ele>70.127178</ele>
        <time>2026-08-15T04:01:11.000Z</time>
      </trkpt>
      <trkpt lat="22.936463" lon="109.415418">
        <ele>70.117531</ele>
        <time>2026-08-15T04:01:12.000Z</time>
      </trkpt>
      <trkpt lat="22.936488" lon="109.415415">
        <ele>70.107985</ele>
        <time>2026-08-15T04:01:13.000Z</time>
      </trkpt>
      <trkpt lat="22.936511" lon="109.415405">
        <ele>70.098582</ele>
        <time>2026-08-15T04:01:14.000Z</time>
      </trkpt>
      <trkpt lat="22.936535" lon="109.415388">
        <ele>70.087707</ele>
        <time>2026-08-15T04:01:15.000Z</time>
      </trkpt>
      <trkpt lat="22.936559" lon="109.415372">
        <ele>70.077018</ele>
        <time>2026-08-15T04:01:16.000Z</time>
      </trkpt>
      <trkpt lat="22.936588" lon="109.415357">
        <ele>70.064827</ele>
        <time>2026-08-15T04:01:17.000Z</time>
      </trkpt>
      <trkpt lat="22.936620" lon="109.415345">
        <ele>70.061685</ele>
        <time>2026-08-15T04:01:18.000Z</time>
      </trkpt>
      <trkpt lat="22.936651" lon="109.415333">
        <ele>70.059443</ele>
        <time>2026-08-15T04:01:19.000Z</time>
      </trkpt>
      <trkpt lat="22.936681" lon="109.415326">
        <ele>70.057352</ele>
        <time>2026-08-15T04:01:20.000Z</time>
      </trkpt>
      <trkpt lat="22.936714" lon="109.415318">
        <ele>70.055049</ele>
        <time>2026-08-15T04:01:21.000Z</time>
      </trkpt>
      <trkpt lat="22.936747" lon="109.415311">
        <ele>70.052758</ele>
        <time>2026-08-15T04:01:22.000Z</time>
      </trkpt>
      <trkpt lat="22.936779" lon="109.415308">
        <ele>70.050570</ele>
        <time>2026-08-15T04:01:23.000Z</time>
      </trkpt>
      <trkpt lat="22.936808" lon="109.415302">
        <ele>70.048559</ele>
        <time>2026-08-15T04:01:24.000Z</time>
      </trkpt>
      <trkpt lat="22.936832" lon="109.415300">
        <ele>70.046919</ele>
        <time>2026-08-15T04:01:25.000Z</time>
      </trkpt>
      <trkpt lat="22.936846" lon="109.415299">
        <ele>70.045964</ele>
        <time>2026-08-15T04:01:26.000Z</time>
      </trkpt>
      <trkpt lat="22.936858" lon="109.415294">
        <ele>70.045088</ele>
        <time>2026-08-15T04:01:27.000Z</time>
      </trkpt>
      <trkpt lat="22.936873" lon="109.415296">
        <ele>70.044058</ele>
        <time>2026-08-15T04:01:28.000Z</time>
      </trkpt>
      <trkpt lat="22.936886" lon="109.415298">
        <ele>70.043164</ele>
        <time>2026-08-15T04:01:29.000Z</time>
      </trkpt>
      <trkpt lat="22.936903" lon="109.415297">
        <ele>70.042004</ele>
        <time>2026-08-15T04:01:30.000Z</time>
      </trkpt>
      <trkpt lat="22.936919" lon="109.415290">
        <ele>70.040829</ele>
        <time>2026-08-15T04:01:31.000Z</time>
      </trkpt>
      <trkpt lat="22.936937" lon="109.415282">
        <ele>70.039504</ele>
        <time>2026-08-15T04:01:32.000Z</time>
      </trkpt>
      <trkpt lat="22.936957" lon="109.415269">
        <ele>70.037916</ele>
        <time>2026-08-15T04:01:33.000Z</time>
      </trkpt>
      <trkpt lat="22.936981" lon="109.415253">
        <ele>70.035998</ele>
        <time>2026-08-15T04:01:34.000Z</time>
      </trkpt>
      <trkpt lat="22.937002" lon="109.415234">
        <ele>70.034136</ele>
        <time>2026-08-15T04:01:35.000Z</time>
      </trkpt>
      <trkpt lat="22.937020" lon="109.415205">
        <ele>70.031942</ele>
        <time>2026-08-15T04:01:36.000Z</time>
      </trkpt>
      <trkpt lat="22.937034" lon="109.415174">
        <ele>70.029775</ele>
        <time>2026-08-15T04:01:37.000Z</time>
      </trkpt>
      <trkpt lat="22.937051" lon="109.415141">
        <ele>70.027403</ele>
        <time>2026-08-15T04:01:38.000Z</time>
      </trkpt>
      <trkpt lat="22.937076" lon="109.415116">
        <ele>70.025088</ele>
        <time>2026-08-15T04:01:39.000Z</time>
      </trkpt>
      <trkpt lat="22.937110" lon="109.415104">
        <ele>70.022652</ele>
        <time>2026-08-15T04:01:40.000Z</time>
      </trkpt>
      <trkpt lat="22.937145" lon="109.415107">
        <ele>70.020261</ele>
        <time>2026-08-15T04:01:41.000Z</time>
      </trkpt>
      <trkpt lat="22.937181" lon="109.415120">
        <ele>70.017676</ele>
        <time>2026-08-15T04:01:42.000Z</time>
      </trkpt>
      <trkpt lat="22.937216" lon="109.415139">
        <ele>70.015011</ele>
        <time>2026-08-15T04:01:43.000Z</time>
      </trkpt>
      <trkpt lat="22.937250" lon="109.415161">
        <ele>70.012314</ele>
        <time>2026-08-15T04:01:44.000Z</time>
      </trkpt>
      <trkpt lat="22.937284" lon="109.415186">
        <ele>70.009517</ele>
        <time>2026-08-15T04:01:45.000Z</time>
      </trkpt>
      <trkpt lat="22.937317" lon="109.415211">
        <ele>70.006776</ele>
        <time>2026-08-15T04:01:46.000Z</time>
      </trkpt>
      <trkpt lat="22.937349" lon="109.415236">
        <ele>70.004090</ele>
        <time>2026-08-15T04:01:47.000Z</time>
      </trkpt>
      <trkpt lat="22.937381" lon="109.415261">
        <ele>70.001405</ele>
        <time>2026-08-15T04:01:48.000Z</time>
      </trkpt>
      <trkpt lat="22.937412" lon="109.415283">
        <ele>69.998882</ele>
        <time>2026-08-15T04:01:49.000Z</time>
      </trkpt>
      <trkpt lat="22.937441" lon="109.415306">
        <ele>69.996435</ele>
        <time>2026-08-15T04:01:50.000Z</time>
      </trkpt>
      <trkpt lat="22.937473" lon="109.415329">
        <ele>69.993821</ele>
        <time>2026-08-15T04:01:51.000Z</time>
      </trkpt>
      <trkpt lat="22.937505" lon="109.415350">
        <ele>69.991274</ele>
        <time>2026-08-15T04:01:52.000Z</time>
      </trkpt>
      <trkpt lat="22.937534" lon="109.415374">
        <ele>69.988790</ele>
        <time>2026-08-15T04:01:53.000Z</time>
      </trkpt>
      <trkpt lat="22.937557" lon="109.415400">
        <ele>69.986528</ele>
        <time>2026-08-15T04:01:54.000Z</time>
      </trkpt>
      <trkpt lat="22.937580" lon="109.415427">
        <ele>69.984221</ele>
        <time>2026-08-15T04:01:55.000Z</time>
      </trkpt>
      <trkpt lat="22.937603" lon="109.415457">
        <ele>69.981772</ele>
        <time>2026-08-15T04:01:56.000Z</time>
      </trkpt>
      <trkpt lat="22.937626" lon="109.415487">
        <ele>69.979323</ele>
        <time>2026-08-15T04:01:57.000Z</time>
      </trkpt>
      <trkpt lat="22.937649" lon="109.415519">
        <ele>69.976776</ele>
        <time>2026-08-15T04:01:58.000Z</time>
      </trkpt>
      <trkpt lat="22.937668" lon="109.415550">
        <ele>69.974440</ele>
        <time>2026-08-15T04:01:59.000Z</time>
      </trkpt>
      <trkpt lat="22.937696" lon="109.415577">
        <ele>69.971889</ele>
        <time>2026-08-15T04:02:00.000Z</time>
      </trkpt>
      <trkpt lat="22.937726" lon="109.415600">
        <ele>69.969387</ele>
        <time>2026-08-15T04:02:01.000Z</time>
      </trkpt>
      <trkpt lat="22.937756" lon="109.415626">
        <ele>69.966773</ele>
        <time>2026-08-15T04:02:02.000Z</time>
      </trkpt>
      <trkpt lat="22.937785" lon="109.415653">
        <ele>69.964170</ele>
        <time>2026-08-15T04:02:03.000Z</time>
      </trkpt>
      <trkpt lat="22.937814" lon="109.415680">
        <ele>69.961568</ele>
        <time>2026-08-15T04:02:04.000Z</time>
      </trkpt>
      <trkpt lat="22.937836" lon="109.415704">
        <ele>69.959443</ele>
        <time>2026-08-15T04:02:05.000Z</time>
      </trkpt>
      <trkpt lat="22.937854" lon="109.415725">
        <ele>69.957644</ele>
        <time>2026-08-15T04:02:06.000Z</time>
      </trkpt>
      <trkpt lat="22.937866" lon="109.415740">
        <ele>69.956397</ele>
        <time>2026-08-15T04:02:07.000Z</time>
      </trkpt>
      <trkpt lat="22.937870" lon="109.415745">
        <ele>69.955982</ele>
        <time>2026-08-15T04:02:08.000Z</time>
      </trkpt>
      <trkpt lat="22.937909" lon="109.415765">
        <ele>69.953043</ele>
        <time>2026-08-15T04:02:25.000Z</time>
      </trkpt>
      <trkpt lat="22.937925" lon="109.415781">
        <ele>69.951562</ele>
        <time>2026-08-15T04:02:26.000Z</time>
      </trkpt>
      <trkpt lat="22.937941" lon="109.415798">
        <ele>69.950037</ele>
        <time>2026-08-15T04:02:27.000Z</time>
      </trkpt>
      <trkpt lat="22.937960" lon="109.415814">
        <ele>69.948399</ele>
        <time>2026-08-15T04:02:28.000Z</time>
      </trkpt>
      <trkpt lat="22.937976" lon="109.415830">
        <ele>69.946917</ele>
        <time>2026-08-15T04:02:29.000Z</time>
      </trkpt>
      <trkpt lat="22.937993" lon="109.415849">
        <ele>69.945255</ele>
        <time>2026-08-15T04:02:30.000Z</time>
      </trkpt>
      <trkpt lat="22.938010" lon="109.415867">
        <ele>69.943637</ele>
        <time>2026-08-15T04:02:31.000Z</time>
      </trkpt>
      <trkpt lat="22.938024" lon="109.415889">
        <ele>69.941960</ele>
        <time>2026-08-15T04:02:32.000Z</time>
      </trkpt>
      <trkpt lat="22.938034" lon="109.415913">
        <ele>69.967812</ele>
        <time>2026-08-15T04:02:33.000Z</time>
      </trkpt>
      <trkpt lat="22.938039" lon="109.415939">
        <ele>70.013343</ele>
        <time>2026-08-15T04:02:34.000Z</time>
      </trkpt>
      <trkpt lat="22.938039" lon="109.415964">
        <ele>70.056198</ele>
        <time>2026-08-15T04:02:35.000Z</time>
      </trkpt>
      <trkpt lat="22.938038" lon="109.415990">
        <ele>70.100807</ele>
        <time>2026-08-15T04:02:36.000Z</time>
      </trkpt>
      <trkpt lat="22.938032" lon="109.416018">
        <ele>70.150087</ele>
        <time>2026-08-15T04:02:37.000Z</time>
      </trkpt>
      <trkpt lat="22.938020" lon="109.416045">
        <ele>70.201479</ele>
        <time>2026-08-15T04:02:38.000Z</time>
      </trkpt>
      <trkpt lat="22.938003" lon="109.416071">
        <ele>70.256140</ele>
        <time>2026-08-15T04:02:39.000Z</time>
      </trkpt>
      <trkpt lat="22.937981" lon="109.416095">
        <ele>70.314187</ele>
        <time>2026-08-15T04:02:40.000Z</time>
      </trkpt>
      <trkpt lat="22.937959" lon="109.416121">
        <ele>70.374714</ele>
        <time>2026-08-15T04:02:41.000Z</time>
      </trkpt>
      <trkpt lat="22.937938" lon="109.416145">
        <ele>70.431464</ele>
        <time>2026-08-15T04:02:42.000Z</time>
      </trkpt>
      <trkpt lat="22.937921" lon="109.416166">
        <ele>70.479393</ele>
        <time>2026-08-15T04:02:43.000Z</time>
      </trkpt>
      <trkpt lat="22.937903" lon="109.416187">
        <ele>70.528572</ele>
        <time>2026-08-15T04:02:44.000Z</time>
      </trkpt>
      <trkpt lat="22.937883" lon="109.416209">
        <ele>70.581564</ele>
        <time>2026-08-15T04:02:45.000Z</time>
      </trkpt>
      <trkpt lat="22.937863" lon="109.416230">
        <ele>70.633350</ele>
        <time>2026-08-15T04:02:46.000Z</time>
      </trkpt>
      <trkpt lat="22.937842" lon="109.416253">
        <ele>70.688870</ele>
        <time>2026-08-15T04:02:47.000Z</time>
      </trkpt>
      <trkpt lat="22.937822" lon="109.416276">
        <ele>70.743096</ele>
        <time>2026-08-15T04:02:48.000Z</time>
      </trkpt>
      <trkpt lat="22.937802" lon="109.416298">
        <ele>70.796088</ele>
        <time>2026-08-15T04:02:49.000Z</time>
      </trkpt>
      <trkpt lat="22.937784" lon="109.416319">
        <ele>70.845266</ele>
        <time>2026-08-15T04:02:50.000Z</time>
      </trkpt>
      <trkpt lat="22.937769" lon="109.416340">
        <ele>70.890824</ele>
        <time>2026-08-15T04:02:51.000Z</time>
      </trkpt>
      <trkpt lat="22.937755" lon="109.416364">
        <ele>70.939524</ele>
        <time>2026-08-15T04:02:52.000Z</time>
      </trkpt>
      <trkpt lat="22.937746" lon="109.416392">
        <ele>70.990362</ele>
        <time>2026-08-15T04:02:53.000Z</time>
      </trkpt>
      <trkpt lat="22.937737" lon="109.416420">
        <ele>71.041199</ele>
        <time>2026-08-15T04:02:54.000Z</time>
      </trkpt>
      <trkpt lat="22.937726" lon="109.416444">
        <ele>71.087154</ele>
        <time>2026-08-15T04:02:55.000Z</time>
      </trkpt>
      <trkpt lat="22.937718" lon="109.416467">
        <ele>71.129300</ele>
        <time>2026-08-15T04:02:56.000Z</time>
      </trkpt>
      <trkpt lat="22.937708" lon="109.416492">
        <ele>71.176023</ele>
        <time>2026-08-15T04:02:57.000Z</time>
      </trkpt>
      <trkpt lat="22.937696" lon="109.416516">
        <ele>71.222837</ele>
        <time>2026-08-15T04:02:58.000Z</time>
      </trkpt>
      <trkpt lat="22.937685" lon="109.416540">
        <ele>71.268792</ele>
        <time>2026-08-15T04:02:59.000Z</time>
      </trkpt>
      <trkpt lat="22.937674" lon="109.416564">
        <ele>71.314747</ele>
        <time>2026-08-15T04:03:00.000Z</time>
      </trkpt>
      <trkpt lat="22.937668" lon="109.416585">
        <ele>71.352438</ele>
        <time>2026-08-15T04:03:01.000Z</time>
      </trkpt>
      <trkpt lat="22.937661" lon="109.416606">
        <ele>71.390722</ele>
        <time>2026-08-15T04:03:02.000Z</time>
      </trkpt>
      <trkpt lat="22.937656" lon="109.416630">
        <ele>71.432903</ele>
        <time>2026-08-15T04:03:03.000Z</time>
      </trkpt>
      <trkpt lat="22.937654" lon="109.416653">
        <ele>71.472505</ele>
        <time>2026-08-15T04:03:04.000Z</time>
      </trkpt>
      <trkpt lat="22.937652" lon="109.416676">
        <ele>71.512108</ele>
        <time>2026-08-15T04:03:05.000Z</time>
      </trkpt>
      <trkpt lat="22.937650" lon="109.416695">
        <ele>71.544890</ele>
        <time>2026-08-15T04:03:06.000Z</time>
      </trkpt>
      <trkpt lat="22.937649" lon="109.416712">
        <ele>71.574091</ele>
        <time>2026-08-15T04:03:07.000Z</time>
      </trkpt>
      <trkpt lat="22.937646" lon="109.416731">
        <ele>71.607137</ele>
        <time>2026-08-15T04:03:08.000Z</time>
      </trkpt>
      <trkpt lat="22.937643" lon="109.416751">
        <ele>71.641873</ele>
        <time>2026-08-15T04:03:09.000Z</time>
      </trkpt>
      <trkpt lat="22.937642" lon="109.416773">
        <ele>71.679632</ele>
        <time>2026-08-15T04:03:10.000Z</time>
      </trkpt>
      <trkpt lat="22.937641" lon="109.416792">
        <ele>71.712255</ele>
        <time>2026-08-15T04:03:11.000Z</time>
      </trkpt>
      <trkpt lat="22.937637" lon="109.416814">
        <ele>71.750696</ele>
        <time>2026-08-15T04:03:12.000Z</time>
      </trkpt>
      <trkpt lat="22.937627" lon="109.416837">
        <ele>71.794296</ele>
        <time>2026-08-15T04:03:13.000Z</time>
      </trkpt>
      <trkpt lat="22.937616" lon="109.416862">
        <ele>71.841792</ele>
        <time>2026-08-15T04:03:14.000Z</time>
      </trkpt>
      <trkpt lat="22.937600" lon="109.416891">
        <ele>71.899743</ele>
        <time>2026-08-15T04:03:15.000Z</time>
      </trkpt>
      <trkpt lat="22.937590" lon="109.416916">
        <ele>71.946466</ele>
        <time>2026-08-15T04:03:16.000Z</time>
      </trkpt>
      <trkpt lat="22.937585" lon="109.416940">
        <ele>71.988647</ele>
        <time>2026-08-15T04:03:17.000Z</time>
      </trkpt>
      <trkpt lat="22.937579" lon="109.416966">
        <ele>72.034595</ele>
        <time>2026-08-15T04:03:18.000Z</time>
      </trkpt>
      <trkpt lat="22.937578" lon="109.416994">
        <ele>72.082629</ele>
        <time>2026-08-15T04:03:19.000Z</time>
      </trkpt>
      <trkpt lat="22.937576" lon="109.417024">
        <ele>72.134190</ele>
        <time>2026-08-15T04:03:20.000Z</time>
      </trkpt>
      <trkpt lat="22.937577" lon="109.417053">
        <ele>72.183937</ele>
        <time>2026-08-15T04:03:21.000Z</time>
      </trkpt>
      <trkpt lat="22.937578" lon="109.417083">
        <ele>72.235398</ele>
        <time>2026-08-15T04:03:22.000Z</time>
      </trkpt>
      <trkpt lat="22.937581" lon="109.417113">
        <ele>72.287127</ele>
        <time>2026-08-15T04:03:23.000Z</time>
      </trkpt>
      <trkpt lat="22.937585" lon="109.417145">
        <ele>72.342485</ele>
        <time>2026-08-15T04:03:24.000Z</time>
      </trkpt>
      <trkpt lat="22.937587" lon="109.417178">
        <ele>72.399176</ele>
        <time>2026-08-15T04:03:25.000Z</time>
      </trkpt>
      <trkpt lat="22.937591" lon="109.417212">
        <ele>72.457934</ele>
        <time>2026-08-15T04:03:26.000Z</time>
      </trkpt>
      <trkpt lat="22.937596" lon="109.417247">
        <ele>72.518649</ele>
        <time>2026-08-15T04:03:27.000Z</time>
      </trkpt>
      <trkpt lat="22.937602" lon="109.417284">
        <ele>72.583051</ele>
        <time>2026-08-15T04:03:28.000Z</time>
      </trkpt>
      <trkpt lat="22.937606" lon="109.417319">
        <ele>72.643509</ele>
        <time>2026-08-15T04:03:29.000Z</time>
      </trkpt>
      <trkpt lat="22.937610" lon="109.417357">
        <ele>72.709073</ele>
        <time>2026-08-15T04:03:30.000Z</time>
      </trkpt>
      <trkpt lat="22.937616" lon="109.417395">
        <ele>72.775164</ele>
        <time>2026-08-15T04:03:31.000Z</time>
      </trkpt>
      <trkpt lat="22.937619" lon="109.417433">
        <ele>72.840543</ele>
        <time>2026-08-15T04:03:32.000Z</time>
      </trkpt>
      <trkpt lat="22.937622" lon="109.417471">
        <ele>72.905923</ele>
        <time>2026-08-15T04:03:33.000Z</time>
      </trkpt>
      <trkpt lat="22.937627" lon="109.417509">
        <ele>72.971725</ele>
        <time>2026-08-15T04:03:34.000Z</time>
      </trkpt>
      <trkpt lat="22.937632" lon="109.417548">
        <ele>73.039224</ele>
        <time>2026-08-15T04:03:35.000Z</time>
      </trkpt>
      <trkpt lat="22.937638" lon="109.417587">
        <ele>73.107005</ele>
        <time>2026-08-15T04:03:36.000Z</time>
      </trkpt>
      <trkpt lat="22.937642" lon="109.417624">
        <ele>73.170867</ele>
        <time>2026-08-15T04:03:37.000Z</time>
      </trkpt>
      <trkpt lat="22.937648" lon="109.417660">
        <ele>73.233581</ele>
        <time>2026-08-15T04:03:38.000Z</time>
      </trkpt>
      <trkpt lat="22.937655" lon="109.417697">
        <ele>73.282849</ele>
        <time>2026-08-15T04:03:39.000Z</time>
      </trkpt>
      <trkpt lat="22.937663" lon="109.417732">
        <ele>73.238963</ele>
        <time>2026-08-15T04:03:40.000Z</time>
      </trkpt>
      <trkpt lat="22.937674" lon="109.417767">
        <ele>73.193957</ele>
        <time>2026-08-15T04:03:41.000Z</time>
      </trkpt>
      <trkpt lat="22.937686" lon="109.417802">
        <ele>73.148507</ele>
        <time>2026-08-15T04:03:42.000Z</time>
      </trkpt>
      <trkpt lat="22.937697" lon="109.417840">
        <ele>73.100032</ele>
        <time>2026-08-15T04:03:43.000Z</time>
      </trkpt>
      <trkpt lat="22.937704" lon="109.417880">
        <ele>73.050483</ele>
        <time>2026-08-15T04:03:44.000Z</time>
      </trkpt>
      <trkpt lat="22.937706" lon="109.417919">
        <ele>73.002948</ele>
        <time>2026-08-15T04:03:45.000Z</time>
      </trkpt>
      <trkpt lat="22.937709" lon="109.417959">
        <ele>72.954108</ele>
        <time>2026-08-15T04:03:46.000Z</time>
      </trkpt>
      <trkpt lat="22.937712" lon="109.417998">
        <ele>72.906482</ele>
        <time>2026-08-15T04:03:47.000Z</time>
      </trkpt>
      <trkpt lat="22.937719" lon="109.418042">
        <ele>72.852142</ele>
        <time>2026-08-15T04:03:48.000Z</time>
      </trkpt>
      <trkpt lat="22.937727" lon="109.418086">
        <ele>72.797563</ele>
        <time>2026-08-15T04:03:49.000Z</time>
      </trkpt>
      <trkpt lat="22.937734" lon="109.418128">
        <ele>72.745620</ele>
        <time>2026-08-15T04:03:50.000Z</time>
      </trkpt>
      <trkpt lat="22.937739" lon="109.418172">
        <ele>72.691668</ele>
        <time>2026-08-15T04:03:51.000Z</time>
      </trkpt>
      <trkpt lat="22.937746" lon="109.418215">
        <ele>72.638527</ele>
        <time>2026-08-15T04:03:52.000Z</time>
      </trkpt>
      <trkpt lat="22.937754" lon="109.418258">
        <ele>72.585141</ele>
        <time>2026-08-15T04:03:53.000Z</time>
      </trkpt>
      <trkpt lat="22.937764" lon="109.418301">
        <ele>72.531169</ele>
        <time>2026-08-15T04:03:54.000Z</time>
      </trkpt>
      <trkpt lat="22.937775" lon="109.418342">
        <ele>72.479199</ele>
        <time>2026-08-15T04:03:55.000Z</time>
      </trkpt>
      <trkpt lat="22.937790" lon="109.418383">
        <ele>72.425511</ele>
        <time>2026-08-15T04:03:56.000Z</time>
      </trkpt>
      <trkpt lat="22.937808" lon="109.418422">
        <ele>72.372423</ele>
        <time>2026-08-15T04:03:57.000Z</time>
      </trkpt>
      <trkpt lat="22.937827" lon="109.418460">
        <ele>72.319802</ele>
        <time>2026-08-15T04:03:58.000Z</time>
      </trkpt>
      <trkpt lat="22.937845" lon="109.418495">
        <ele>72.271017</ele>
        <time>2026-08-15T04:03:59.000Z</time>
      </trkpt>
      <trkpt lat="22.937862" lon="109.418528">
        <ele>72.225001</ele>
        <time>2026-08-15T04:04:00.000Z</time>
      </trkpt>
      <trkpt lat="22.937879" lon="109.418560">
        <ele>72.180044</ele>
        <time>2026-08-15T04:04:01.000Z</time>
      </trkpt>
      <trkpt lat="22.937895" lon="109.418591">
        <ele>72.136797</ele>
        <time>2026-08-15T04:04:02.000Z</time>
      </trkpt>
      <trkpt lat="22.937909" lon="109.418621">
        <ele>72.095869</ele>
        <time>2026-08-15T04:04:03.000Z</time>
      </trkpt>
      <trkpt lat="22.937922" lon="109.418652">
        <ele>72.054416</ele>
        <time>2026-08-15T04:04:04.000Z</time>
      </trkpt>
      <trkpt lat="22.937940" lon="109.418684">
        <ele>72.008784</ele>
        <time>2026-08-15T04:04:05.000Z</time>
      </trkpt>
      <trkpt lat="22.937959" lon="109.418716">
        <ele>71.962449</ele>
        <time>2026-08-15T04:04:06.000Z</time>
      </trkpt>
      <trkpt lat="22.937981" lon="109.418752">
        <ele>71.909870</ele>
        <time>2026-08-15T04:04:07.000Z</time>
      </trkpt>
      <trkpt lat="22.938005" lon="109.418791">
        <ele>71.852788</ele>
        <time>2026-08-15T04:04:08.000Z</time>
      </trkpt>
      <trkpt lat="22.938030" lon="109.418833">
        <ele>71.791928</ele>
        <time>2026-08-15T04:04:09.000Z</time>
      </trkpt>
      <trkpt lat="22.938057" lon="109.418877">
        <ele>71.727584</ele>
        <time>2026-08-15T04:04:10.000Z</time>
      </trkpt>
      <trkpt lat="22.938085" lon="109.418921">
        <ele>71.662498</ele>
        <time>2026-08-15T04:04:11.000Z</time>
      </trkpt>
      <trkpt lat="22.938116" lon="109.418966">
        <ele>71.594109</ele>
        <time>2026-08-15T04:04:12.000Z</time>
      </trkpt>
      <trkpt lat="22.938147" lon="109.419013">
        <ele>71.523755</ele>
        <time>2026-08-15T04:04:13.000Z</time>
      </trkpt>
      <trkpt lat="22.938177" lon="109.419063">
        <ele>71.451133</ele>
        <time>2026-08-15T04:04:14.000Z</time>
      </trkpt>
      <trkpt lat="22.938208" lon="109.419116">
        <ele>71.374725</ele>
        <time>2026-08-15T04:04:15.000Z</time>
      </trkpt>
      <trkpt lat="22.938238" lon="109.419173">
        <ele>71.294829</ele>
        <time>2026-08-15T04:04:16.000Z</time>
      </trkpt>
      <trkpt lat="22.938267" lon="109.419233">
        <ele>71.212366</ele>
        <time>2026-08-15T04:04:17.000Z</time>
      </trkpt>
      <trkpt lat="22.938290" lon="109.419295">
        <ele>71.131024</ele>
        <time>2026-08-15T04:04:18.000Z</time>
      </trkpt>
      <trkpt lat="22.938307" lon="109.419356">
        <ele>71.053465</ele>
        <time>2026-08-15T04:04:19.000Z</time>
      </trkpt>
      <trkpt lat="22.938314" lon="109.419415">
        <ele>70.981071</ele>
        <time>2026-08-15T04:04:20.000Z</time>
      </trkpt>
      <trkpt lat="22.938315" lon="109.419465">
        <ele>70.920209</ele>
        <time>2026-08-15T04:04:21.000Z</time>
      </trkpt>
      <trkpt lat="22.938311" lon="109.419505">
        <ele>70.923328</ele>
        <time>2026-08-15T04:04:22.000Z</time>
      </trkpt>
      <trkpt lat="22.938309" lon="109.419535">
        <ele>70.932974</ele>
        <time>2026-08-15T04:04:23.000Z</time>
      </trkpt>
      <trkpt lat="22.938310" lon="109.419551">
        <ele>70.938117</ele>
        <time>2026-08-15T04:04:24.000Z</time>
      </trkpt>
      <trkpt lat="22.938313" lon="109.419561">
        <ele>70.941489</ele>
        <time>2026-08-15T04:04:25.000Z</time>
      </trkpt>
      <trkpt lat="22.938316" lon="109.419575">
        <ele>70.946099</ele>
        <time>2026-08-15T04:04:26.000Z</time>
      </trkpt>
      <trkpt lat="22.938323" lon="109.419587">
        <ele>70.950654</ele>
        <time>2026-08-15T04:04:27.000Z</time>
      </trkpt>
      <trkpt lat="22.938338" lon="109.419599">
        <ele>70.957142</ele>
        <time>2026-08-15T04:04:28.000Z</time>
      </trkpt>
      <trkpt lat="22.938358" lon="109.419616">
        <ele>70.965987</ele>
        <time>2026-08-15T04:04:29.000Z</time>
      </trkpt>
      <trkpt lat="22.938386" lon="109.419626">
        <ele>70.976251</ele>
        <time>2026-08-15T04:04:30.000Z</time>
      </trkpt>
      <trkpt lat="22.938416" lon="109.419632">
        <ele>70.986874</ele>
        <time>2026-08-15T04:04:31.000Z</time>
      </trkpt>
      <trkpt lat="22.938449" lon="109.419631">
        <ele>70.998370</ele>
        <time>2026-08-15T04:04:32.000Z</time>
      </trkpt>
      <trkpt lat="22.938484" lon="109.419628">
        <ele>71.010596</ele>
        <time>2026-08-15T04:04:33.000Z</time>
      </trkpt>
      <trkpt lat="22.938522" lon="109.419627">
        <ele>71.023832</ele>
        <time>2026-08-15T04:04:34.000Z</time>
      </trkpt>
      <trkpt lat="22.938563" lon="109.419629">
        <ele>71.038124</ele>
        <time>2026-08-15T04:04:35.000Z</time>
      </trkpt>
      <trkpt lat="22.938606" lon="109.419631">
        <ele>71.053112</ele>
        <time>2026-08-15T04:04:36.000Z</time>
      </trkpt>
      <trkpt lat="22.938648" lon="109.419636">
        <ele>71.067825</ele>
        <time>2026-08-15T04:04:37.000Z</time>
      </trkpt>
      <trkpt lat="22.938691" lon="109.419645">
        <ele>71.083075</ele>
        <time>2026-08-15T04:04:38.000Z</time>
      </trkpt>
      <trkpt lat="22.938733" lon="109.419656">
        <ele>71.098120</ele>
        <time>2026-08-15T04:04:39.000Z</time>
      </trkpt>
      <trkpt lat="22.938776" lon="109.419661">
        <ele>71.113179</ele>
        <time>2026-08-15T04:04:40.000Z</time>
      </trkpt>
      <trkpt lat="22.938826" lon="109.419664">
        <ele>71.130617</ele>
        <time>2026-08-15T04:04:41.000Z</time>
      </trkpt>
      <trkpt lat="22.938874" lon="109.419667">
        <ele>71.147360</ele>
        <time>2026-08-15T04:04:42.000Z</time>
      </trkpt>
      <trkpt lat="22.938922" lon="109.419670">
        <ele>71.164103</ele>
        <time>2026-08-15T04:04:43.000Z</time>
      </trkpt>
      <trkpt lat="22.938969" lon="109.419673">
        <ele>71.180498</ele>
        <time>2026-08-15T04:04:44.000Z</time>
      </trkpt>
      <trkpt lat="22.939015" lon="109.419676">
        <ele>71.196545</ele>
        <time>2026-08-15T04:04:45.000Z</time>
      </trkpt>
      <trkpt lat="22.939062" lon="109.419681">
        <ele>71.212990</ele>
        <time>2026-08-15T04:04:46.000Z</time>
      </trkpt>
      <trkpt lat="22.939108" lon="109.419687">
        <ele>71.229124</ele>
        <time>2026-08-15T04:04:47.000Z</time>
      </trkpt>
      <trkpt lat="22.939153" lon="109.419694">
        <ele>71.244954</ele>
        <time>2026-08-15T04:04:48.000Z</time>
      </trkpt>
      <trkpt lat="22.939197" lon="109.419704">
        <ele>71.260608</ele>
        <time>2026-08-15T04:04:49.000Z</time>
      </trkpt>
      <trkpt lat="22.939240" lon="109.419717">
        <ele>71.276152</ele>
        <time>2026-08-15T04:04:50.000Z</time>
      </trkpt>
      <trkpt lat="22.939282" lon="109.419726">
        <ele>71.291059</ele>
        <time>2026-08-15T04:04:51.000Z</time>
      </trkpt>
      <trkpt lat="22.939317" lon="109.419739">
        <ele>71.303941</ele>
        <time>2026-08-15T04:04:52.000Z</time>
      </trkpt>
      <trkpt lat="22.939355" lon="109.419750">
        <ele>71.317635</ele>
        <time>2026-08-15T04:04:53.000Z</time>
      </trkpt>
      <trkpt lat="22.939390" lon="109.419759">
        <ele>71.330161</ele>
        <time>2026-08-15T04:04:54.000Z</time>
      </trkpt>
      <trkpt lat="22.939424" lon="109.419768">
        <ele>71.342347</ele>
        <time>2026-08-15T04:04:55.000Z</time>
      </trkpt>
      <trkpt lat="22.939456" lon="109.419777">
        <ele>71.353858</ele>
        <time>2026-08-15T04:04:56.000Z</time>
      </trkpt>
      <trkpt lat="22.939490" lon="109.419788">
        <ele>71.366212</ele>
        <time>2026-08-15T04:04:57.000Z</time>
      </trkpt>
      <trkpt lat="22.939523" lon="109.419800">
        <ele>71.378331</ele>
        <time>2026-08-15T04:04:58.000Z</time>
      </trkpt>
      <trkpt lat="22.939555" lon="109.419810">
        <ele>71.389927</ele>
        <time>2026-08-15T04:04:59.000Z</time>
      </trkpt>
      <trkpt lat="22.939587" lon="109.419817">
        <ele>71.401294</ele>
        <time>2026-08-15T04:05:00.000Z</time>
      </trkpt>
      <trkpt lat="22.939616" lon="109.419828">
        <ele>71.411991</ele>
        <time>2026-08-15T04:05:01.000Z</time>
      </trkpt>
      <trkpt lat="22.939648" lon="109.419837">
        <ele>71.423502</ele>
        <time>2026-08-15T04:05:02.000Z</time>
      </trkpt>
      <trkpt lat="22.939681" lon="109.419847">
        <ele>71.435433</ele>
        <time>2026-08-15T04:05:03.000Z</time>
      </trkpt>
      <trkpt lat="22.939715" lon="109.419856">
        <ele>71.447619</ele>
        <time>2026-08-15T04:05:04.000Z</time>
      </trkpt>
      <trkpt lat="22.939748" lon="109.419864">
        <ele>71.459394</ele>
        <time>2026-08-15T04:05:05.000Z</time>
      </trkpt>
      <trkpt lat="22.939781" lon="109.419874">
        <ele>71.471324</ele>
        <time>2026-08-15T04:05:06.000Z</time>
      </trkpt>
      <trkpt lat="22.939812" lon="109.419885">
        <ele>71.482681</ele>
        <time>2026-08-15T04:05:07.000Z</time>
      </trkpt>
      <trkpt lat="22.939843" lon="109.419899">
        <ele>71.494373</ele>
        <time>2026-08-15T04:05:08.000Z</time>
      </trkpt>
      <trkpt lat="22.939872" lon="109.419909">
        <ele>71.504968</ele>
        <time>2026-08-15T04:05:09.000Z</time>
      </trkpt>
      <trkpt lat="22.939901" lon="109.419919">
        <ele>71.515564</ele>
        <time>2026-08-15T04:05:10.000Z</time>
      </trkpt>
      <trkpt lat="22.939929" lon="109.419929">
        <ele>71.525828</ele>
        <time>2026-08-15T04:05:11.000Z</time>
      </trkpt>
      <trkpt lat="22.939956" lon="109.419940">
        <ele>71.535870</ele>
        <time>2026-08-15T04:05:12.000Z</time>
      </trkpt>
      <trkpt lat="22.939982" lon="109.419952">
        <ele>71.585951</ele>
        <time>2026-08-15T04:05:13.000Z</time>
      </trkpt>
      <trkpt lat="22.940008" lon="109.419961">
        <ele>71.650858</ele>
        <time>2026-08-15T04:05:14.000Z</time>
      </trkpt>
      <trkpt lat="22.940035" lon="109.419967">
        <ele>71.716409</ele>
        <time>2026-08-15T04:05:15.000Z</time>
      </trkpt>
      <trkpt lat="22.940062" lon="109.419969">
        <ele>71.780777</ele>
        <time>2026-08-15T04:05:16.000Z</time>
      </trkpt>
      <trkpt lat="22.940090" lon="109.419970">
        <ele>71.847411</ele>
        <time>2026-08-15T04:05:17.000Z</time>
      </trkpt>
      <trkpt lat="22.940118" lon="109.419973">
        <ele>71.914333</ele>
        <time>2026-08-15T04:05:18.000Z</time>
      </trkpt>
      <trkpt lat="22.940145" lon="109.419980">
        <ele>71.980357</ele>
        <time>2026-08-15T04:05:19.000Z</time>
      </trkpt>
      <trkpt lat="22.940167" lon="109.419994">
        <ele>72.041008</ele>
        <time>2026-08-15T04:05:20.000Z</time>
      </trkpt>
      <trkpt lat="22.940192" lon="109.420004">
        <ele>72.104376</ele>
        <time>2026-08-15T04:05:21.000Z</time>
      </trkpt>
      <trkpt lat="22.940218" lon="109.420014">
        <ele>72.169982</ele>
        <time>2026-08-15T04:05:22.000Z</time>
      </trkpt>
      <trkpt lat="22.940240" lon="109.420029">
        <ele>72.231769</ele>
        <time>2026-08-15T04:05:23.000Z</time>
      </trkpt>
      <trkpt lat="22.940263" lon="109.420040">
        <ele>72.291545</ele>
        <time>2026-08-15T04:05:24.000Z</time>
      </trkpt>
      <trkpt lat="22.940289" lon="109.420051">
        <ele>72.357914</ele>
        <time>2026-08-15T04:05:25.000Z</time>
      </trkpt>
      <trkpt lat="22.940315" lon="109.420062">
        <ele>72.424283</ele>
        <time>2026-08-15T04:05:26.000Z</time>
      </trkpt>
      <trkpt lat="22.940343" lon="109.420073">
        <ele>72.495106</ele>
        <time>2026-08-15T04:05:27.000Z</time>
      </trkpt>
      <trkpt lat="22.940370" lon="109.420083">
        <ele>72.562958</ele>
        <time>2026-08-15T04:05:28.000Z</time>
      </trkpt>
      <trkpt lat="22.940397" lon="109.420091">
        <ele>72.629525</ele>
        <time>2026-08-15T04:05:29.000Z</time>
      </trkpt>
      <trkpt lat="22.940423" lon="109.420096">
        <ele>72.692328</ele>
        <time>2026-08-15T04:05:30.000Z</time>
      </trkpt>
      <trkpt lat="22.940448" lon="109.420102">
        <ele>72.753226</ele>
        <time>2026-08-15T04:05:31.000Z</time>
      </trkpt>
      <trkpt lat="22.940476" lon="109.420108">
        <ele>72.821108</ele>
        <time>2026-08-15T04:05:32.000Z</time>
      </trkpt>
      <trkpt lat="22.940501" lon="109.420107">
        <ele>72.880611</ele>
        <time>2026-08-15T04:05:33.000Z</time>
      </trkpt>
      <trkpt lat="22.940526" lon="109.420106">
        <ele>72.940114</ele>
        <time>2026-08-15T04:05:34.000Z</time>
      </trkpt>
      <trkpt lat="22.940551" lon="109.420113">
        <ele>73.001521</ele>
        <time>2026-08-15T04:05:35.000Z</time>
      </trkpt>
      <trkpt lat="22.940580" lon="109.420120">
        <ele>73.072181</ele>
        <time>2026-08-15T04:05:36.000Z</time>
      </trkpt>
      <trkpt lat="22.940606" lon="109.420131">
        <ele>73.138550</ele>
        <time>2026-08-15T04:05:37.000Z</time>
      </trkpt>
      <trkpt lat="22.940631" lon="109.420146">
        <ele>73.206486</ele>
        <time>2026-08-15T04:05:38.000Z</time>
      </trkpt>
      <trkpt lat="22.940654" lon="109.420161">
        <ele>73.270300</ele>
        <time>2026-08-15T04:05:39.000Z</time>
      </trkpt>
      <trkpt lat="22.940679" lon="109.420176">
        <ele>73.338236</ele>
        <time>2026-08-15T04:05:40.000Z</time>
      </trkpt>
      <trkpt lat="22.940706" lon="109.420191">
        <ele>73.410372</ele>
        <time>2026-08-15T04:05:41.000Z</time>
      </trkpt>
      <trkpt lat="22.940734" lon="109.420201">
        <ele>73.480480</ele>
        <time>2026-08-15T04:05:42.000Z</time>
      </trkpt>
      <trkpt lat="22.940763" lon="109.420211">
        <ele>73.552850</ele>
        <time>2026-08-15T04:05:43.000Z</time>
      </trkpt>
      <trkpt lat="22.940791" lon="109.420222">
        <ele>73.623673</ele>
        <time>2026-08-15T04:05:44.000Z</time>
      </trkpt>
      <trkpt lat="22.940821" lon="109.420231">
        <ele>73.697701</ele>
        <time>2026-08-15T04:05:45.000Z</time>
      </trkpt>
      <trkpt lat="22.940849" lon="109.420243">
        <ele>73.769298</ele>
        <time>2026-08-15T04:05:46.000Z</time>
      </trkpt>
      <trkpt lat="22.940879" lon="109.420254">
        <ele>73.844611</ele>
        <time>2026-08-15T04:05:47.000Z</time>
      </trkpt>
      <trkpt lat="22.940907" lon="109.420265">
        <ele>73.915434</ele>
        <time>2026-08-15T04:05:48.000Z</time>
      </trkpt>
      <trkpt lat="22.940937" lon="109.420277">
        <ele>73.991476</ele>
        <time>2026-08-15T04:05:49.000Z</time>
      </trkpt>
      <trkpt lat="22.940967" lon="109.420286">
        <ele>74.065504</ele>
        <time>2026-08-15T04:05:50.000Z</time>
      </trkpt>
      <trkpt lat="22.940996" lon="109.420294">
        <ele>74.136671</ele>
        <time>2026-08-15T04:05:51.000Z</time>
      </trkpt>
      <trkpt lat="22.941024" lon="109.420306">
        <ele>74.208269</ele>
        <time>2026-08-15T04:05:52.000Z</time>
      </trkpt>
      <trkpt lat="22.941053" lon="109.420314">
        <ele>74.279436</ele>
        <time>2026-08-15T04:05:53.000Z</time>
      </trkpt>
      <trkpt lat="22.941082" lon="109.420323">
        <ele>74.351174</ele>
        <time>2026-08-15T04:05:54.000Z</time>
      </trkpt>
      <trkpt lat="22.941111" lon="109.420333">
        <ele>74.423545</ele>
        <time>2026-08-15T04:05:55.000Z</time>
      </trkpt>
      <trkpt lat="22.941146" lon="109.420335">
        <ele>74.506908</ele>
        <time>2026-08-15T04:05:56.000Z</time>
      </trkpt>
      <trkpt lat="22.941179" lon="109.420336">
        <ele>74.585429</ele>
        <time>2026-08-15T04:05:57.000Z</time>
      </trkpt>
      <trkpt lat="22.941210" lon="109.420341">
        <ele>74.659971</ele>
        <time>2026-08-15T04:05:58.000Z</time>
      </trkpt>
      <trkpt lat="22.941240" lon="109.420348">
        <ele>74.732955</ele>
        <time>2026-08-15T04:05:59.000Z</time>
      </trkpt>
      <trkpt lat="22.941267" lon="109.420354">
        <ele>74.798505</ele>
        <time>2026-08-15T04:06:00.000Z</time>
      </trkpt>
      <trkpt lat="22.941296" lon="109.420357">
        <ele>74.867794</ele>
        <time>2026-08-15T04:06:01.000Z</time>
      </trkpt>
      <trkpt lat="22.941326" lon="109.420360">
        <ele>74.939451</ele>
        <time>2026-08-15T04:06:02.000Z</time>
      </trkpt>
      <trkpt lat="22.941356" lon="109.420361">
        <ele>75.010839</ele>
        <time>2026-08-15T04:06:03.000Z</time>
      </trkpt>
      <trkpt lat="22.941387" lon="109.420362">
        <ele>75.084605</ele>
        <time>2026-08-15T04:06:04.000Z</time>
      </trkpt>
      <trkpt lat="22.941420" lon="109.420363">
        <ele>75.163127</ele>
        <time>2026-08-15T04:06:05.000Z</time>
      </trkpt>
      <trkpt lat="22.941453" lon="109.420365">
        <ele>75.241739</ele>
        <time>2026-08-15T04:06:06.000Z</time>
      </trkpt>
      <trkpt lat="22.941489" lon="109.420361">
        <ele>75.327812</ele>
        <time>2026-08-15T04:06:07.000Z</time>
      </trkpt>
      <trkpt lat="22.941522" lon="109.420360">
        <ele>75.406333</ele>
        <time>2026-08-15T04:06:08.000Z</time>
      </trkpt>
      <trkpt lat="22.941557" lon="109.420358">
        <ele>75.489696</ele>
        <time>2026-08-15T04:06:09.000Z</time>
      </trkpt>
      <trkpt lat="22.941593" lon="109.420358">
        <ele>75.575322</ele>
        <time>2026-08-15T04:06:10.000Z</time>
      </trkpt>
      <trkpt lat="22.941629" lon="109.420356">
        <ele>75.661060</ele>
        <time>2026-08-15T04:06:11.000Z</time>
      </trkpt>
      <trkpt lat="22.941664" lon="109.420354">
        <ele>75.744422</ele>
        <time>2026-08-15T04:06:12.000Z</time>
      </trkpt>
      <trkpt lat="22.941699" lon="109.420353">
        <ele>75.814694</ele>
        <time>2026-08-15T04:06:13.000Z</time>
      </trkpt>
      <trkpt lat="22.941733" lon="109.420350">
        <ele>75.798320</ele>
        <time>2026-08-15T04:06:14.000Z</time>
      </trkpt>
      <trkpt lat="22.941766" lon="109.420341">
        <ele>75.781989</ele>
        <time>2026-08-15T04:06:15.000Z</time>
      </trkpt>
      <trkpt lat="22.941800" lon="109.420333">
        <ele>75.765291</ele>
        <time>2026-08-15T04:06:16.000Z</time>
      </trkpt>
      <trkpt lat="22.941833" lon="109.420323">
        <ele>75.748846</ele>
        <time>2026-08-15T04:06:17.000Z</time>
      </trkpt>
      <trkpt lat="22.941869" lon="109.420312">
        <ele>75.730896</ele>
        <time>2026-08-15T04:06:18.000Z</time>
      </trkpt>
      <trkpt lat="22.941905" lon="109.420299">
        <ele>75.712686</ele>
        <time>2026-08-15T04:06:19.000Z</time>
      </trkpt>
      <trkpt lat="22.941943" lon="109.420288">
        <ele>75.693810</ele>
        <time>2026-08-15T04:06:20.000Z</time>
      </trkpt>
      <trkpt lat="22.941982" lon="109.420277">
        <ele>75.674470</ele>
        <time>2026-08-15T04:06:21.000Z</time>
      </trkpt>
      <trkpt lat="22.942022" lon="109.420264">
        <ele>75.654429</ele>
        <time>2026-08-15T04:06:22.000Z</time>
      </trkpt>
      <trkpt lat="22.942062" lon="109.420249">
        <ele>75.634117</ele>
        <time>2026-08-15T04:06:23.000Z</time>
      </trkpt>
      <trkpt lat="22.942103" lon="109.420239">
        <ele>75.613948</ele>
        <time>2026-08-15T04:06:24.000Z</time>
      </trkpt>
      <trkpt lat="22.942140" lon="109.420237">
        <ele>75.596166</ele>
        <time>2026-08-15T04:06:25.000Z</time>
      </trkpt>
      <trkpt lat="22.942180" lon="109.420239">
        <ele>75.576947</ele>
        <time>2026-08-15T04:06:26.000Z</time>
      </trkpt>
      <trkpt lat="22.942221" lon="109.420234">
        <ele>75.557144</ele>
        <time>2026-08-15T04:06:27.000Z</time>
      </trkpt>
      <trkpt lat="22.942261" lon="109.420226">
        <ele>75.537622</ele>
        <time>2026-08-15T04:06:28.000Z</time>
      </trkpt>
      <trkpt lat="22.942303" lon="109.420219">
        <ele>75.517226</ele>
        <time>2026-08-15T04:06:29.000Z</time>
      </trkpt>
      <trkpt lat="22.942345" lon="109.420209">
        <ele>75.496588</ele>
        <time>2026-08-15T04:06:30.000Z</time>
      </trkpt>
      <trkpt lat="22.942388" lon="109.420198">
        <ele>75.475384</ele>
        <time>2026-08-15T04:06:31.000Z</time>
      </trkpt>
      <trkpt lat="22.942433" lon="109.420188">
        <ele>75.453337</ele>
        <time>2026-08-15T04:06:32.000Z</time>
      </trkpt>
      <trkpt lat="22.942477" lon="109.420178">
        <ele>75.431761</ele>
        <time>2026-08-15T04:06:33.000Z</time>
      </trkpt>
      <trkpt lat="22.942522" lon="109.420167">
        <ele>75.409621</ele>
        <time>2026-08-15T04:06:34.000Z</time>
      </trkpt>
      <trkpt lat="22.942569" lon="109.420155">
        <ele>75.386447</ele>
        <time>2026-08-15T04:06:35.000Z</time>
      </trkpt>
      <trkpt lat="22.942616" lon="109.420143">
        <ele>75.363272</ele>
        <time>2026-08-15T04:06:36.000Z</time>
      </trkpt>
      <trkpt lat="22.942664" lon="109.420131">
        <ele>75.339631</ele>
        <time>2026-08-15T04:06:37.000Z</time>
      </trkpt>
      <trkpt lat="22.942712" lon="109.420118">
        <ele>75.315886</ele>
        <time>2026-08-15T04:06:38.000Z</time>
      </trkpt>
      <trkpt lat="22.942760" lon="109.420105">
        <ele>75.292141</ele>
        <time>2026-08-15T04:06:39.000Z</time>
      </trkpt>
      <trkpt lat="22.942808" lon="109.420091">
        <ele>75.268285</ele>
        <time>2026-08-15T04:06:40.000Z</time>
      </trkpt>
      <trkpt lat="22.942857" lon="109.420081">
        <ele>75.244354</ele>
        <time>2026-08-15T04:06:41.000Z</time>
      </trkpt>
      <trkpt lat="22.942906" lon="109.420069">
        <ele>75.220245</ele>
        <time>2026-08-15T04:06:42.000Z</time>
      </trkpt>
      <trkpt lat="22.942955" lon="109.420056">
        <ele>75.196034</ele>
        <time>2026-08-15T04:06:43.000Z</time>
      </trkpt>
      <trkpt lat="22.943003" lon="109.420046">
        <ele>75.172574</ele>
        <time>2026-08-15T04:06:44.000Z</time>
      </trkpt>
      <trkpt lat="22.943051" lon="109.420040">
        <ele>75.149383</ele>
        <time>2026-08-15T04:06:45.000Z</time>
      </trkpt>
      <trkpt lat="22.943102" lon="109.420036">
        <ele>75.124840</ele>
        <time>2026-08-15T04:06:46.000Z</time>
      </trkpt>
      <trkpt lat="22.943145" lon="109.420037">
        <ele>75.104197</ele>
        <time>2026-08-15T04:06:47.000Z</time>
      </trkpt>
      <trkpt lat="22.943190" lon="109.420042">
        <ele>75.082485</ele>
        <time>2026-08-15T04:06:48.000Z</time>
      </trkpt>
      <trkpt lat="22.943237" lon="109.420051">
        <ele>75.059577</ele>
        <time>2026-08-15T04:06:49.000Z</time>
      </trkpt>
      <trkpt lat="22.943288" lon="109.420055">
        <ele>75.035035</ele>
        <time>2026-08-15T04:06:50.000Z</time>
      </trkpt>
      <trkpt lat="22.943337" lon="109.420066">
        <ele>75.011018</ele>
        <time>2026-08-15T04:06:51.000Z</time>
      </trkpt>
      <trkpt lat="22.943386" lon="109.420078">
        <ele>74.986908</ele>
        <time>2026-08-15T04:06:52.000Z</time>
      </trkpt>
      <trkpt lat="22.943435" lon="109.420088">
        <ele>74.962978</ele>
        <time>2026-08-15T04:06:53.000Z</time>
      </trkpt>
      <trkpt lat="22.943481" lon="109.420097">
        <ele>74.944032</ele>
        <time>2026-08-15T04:06:54.000Z</time>
      </trkpt>
      <trkpt lat="22.943526" lon="109.420106">
        <ele>74.927955</ele>
        <time>2026-08-15T04:06:55.000Z</time>
      </trkpt>
      <trkpt lat="22.943571" lon="109.420114">
        <ele>74.911934</ele>
        <time>2026-08-15T04:06:56.000Z</time>
      </trkpt>
      <trkpt lat="22.943613" lon="109.420124">
        <ele>74.896826</ele>
        <time>2026-08-15T04:06:57.000Z</time>
      </trkpt>
      <trkpt lat="22.943657" lon="109.420133">
        <ele>74.881095</ele>
        <time>2026-08-15T04:06:58.000Z</time>
      </trkpt>
      <trkpt lat="22.943705" lon="109.420140">
        <ele>74.864078</ele>
        <time>2026-08-15T04:06:59.000Z</time>
      </trkpt>
      <trkpt lat="22.943757" lon="109.420143">
        <ele>74.845782</ele>
        <time>2026-08-15T04:07:00.000Z</time>
      </trkpt>
      <trkpt lat="22.943808" lon="109.420147">
        <ele>74.827816</ele>
        <time>2026-08-15T04:07:01.000Z</time>
      </trkpt>
      <trkpt lat="22.943858" lon="109.420153">
        <ele>74.810141</ele>
        <time>2026-08-15T04:07:02.000Z</time>
      </trkpt>
      <trkpt lat="22.943909" lon="109.420158">
        <ele>74.792149</ele>
        <time>2026-08-15T04:07:03.000Z</time>
      </trkpt>
      <trkpt lat="22.943958" lon="109.420166">
        <ele>74.774740</ele>
        <time>2026-08-15T04:07:04.000Z</time>
      </trkpt>
      <trkpt lat="22.944007" lon="109.420175">
        <ele>74.757279</ele>
        <time>2026-08-15T04:07:05.000Z</time>
      </trkpt>
      <trkpt lat="22.944058" lon="109.420182">
        <ele>74.739217</ele>
        <time>2026-08-15T04:07:06.000Z</time>
      </trkpt>
      <trkpt lat="22.944108" lon="109.420186">
        <ele>74.721602</ele>
        <time>2026-08-15T04:07:07.000Z</time>
      </trkpt>
      <trkpt lat="22.944157" lon="109.420190">
        <ele>74.704337</ele>
        <time>2026-08-15T04:07:08.000Z</time>
      </trkpt>
      <trkpt lat="22.944207" lon="109.420194">
        <ele>74.686721</ele>
        <time>2026-08-15T04:07:09.000Z</time>
      </trkpt>
      <trkpt lat="22.944259" lon="109.420197">
        <ele>74.668425</ele>
        <time>2026-08-15T04:07:10.000Z</time>
      </trkpt>
      <trkpt lat="22.944311" lon="109.420201">
        <ele>74.650109</ele>
        <time>2026-08-15T04:07:11.000Z</time>
      </trkpt>
      <trkpt lat="22.944362" lon="109.420205">
        <ele>74.632143</ele>
        <time>2026-08-15T04:07:12.000Z</time>
      </trkpt>
      <trkpt lat="22.944413" lon="109.420209">
        <ele>74.614177</ele>
        <time>2026-08-15T04:07:13.000Z</time>
      </trkpt>
      <trkpt lat="22.944462" lon="109.420214">
        <ele>74.596885</ele>
        <time>2026-08-15T04:07:14.000Z</time>
      </trkpt>
      <trkpt lat="22.944514" lon="109.420215">
        <ele>74.578612</ele>
        <time>2026-08-15T04:07:15.000Z</time>
      </trkpt>
      <trkpt lat="22.944564" lon="109.420215">
        <ele>74.561044</ele>
        <time>2026-08-15T04:07:16.000Z</time>
      </trkpt>
      <trkpt lat="22.944615" lon="109.420214">
        <ele>74.543122</ele>
        <time>2026-08-15T04:07:17.000Z</time>
      </trkpt>
      <trkpt lat="22.944666" lon="109.420213">
        <ele>74.525200</ele>
        <time>2026-08-15T04:07:18.000Z</time>
      </trkpt>
      <trkpt lat="22.944718" lon="109.420212">
        <ele>74.506926</ele>
        <time>2026-08-15T04:07:19.000Z</time>
      </trkpt>
      <trkpt lat="22.944770" lon="109.420212">
        <ele>74.488656</ele>
        <time>2026-08-15T04:07:20.000Z</time>
      </trkpt>
      <trkpt lat="22.944820" lon="109.420210">
        <ele>74.471076</ele>
        <time>2026-08-15T04:07:21.000Z</time>
      </trkpt>
      <trkpt lat="22.944870" lon="109.420208">
        <ele>74.453497</ele>
        <time>2026-08-15T04:07:22.000Z</time>
      </trkpt>
      <trkpt lat="22.944919" lon="109.420207">
        <ele>74.436277</ele>
        <time>2026-08-15T04:07:23.000Z</time>
      </trkpt>
      <trkpt lat="22.944968" lon="109.420203">
        <ele>74.419012</ele>
        <time>2026-08-15T04:07:24.000Z</time>
      </trkpt>
      <trkpt lat="22.945015" lon="109.420198">
        <ele>74.402419</ele>
        <time>2026-08-15T04:07:25.000Z</time>
      </trkpt>
      <trkpt lat="22.945061" lon="109.420194">
        <ele>74.386205</ele>
        <time>2026-08-15T04:07:26.000Z</time>
      </trkpt>
      <trkpt lat="22.945106" lon="109.420194">
        <ele>74.370394</ele>
        <time>2026-08-15T04:07:27.000Z</time>
      </trkpt>
      <trkpt lat="22.945150" lon="109.420197">
        <ele>74.354904</ele>
        <time>2026-08-15T04:07:28.000Z</time>
      </trkpt>
      <trkpt lat="22.945200" lon="109.420195">
        <ele>74.337325</ele>
        <time>2026-08-15T04:07:29.000Z</time>
      </trkpt>
      <trkpt lat="22.945245" lon="109.420183">
        <ele>74.321934</ele>
        <time>2026-08-15T04:07:30.000Z</time>
      </trkpt>
      <trkpt lat="22.945289" lon="109.420166">
        <ele>74.331805</ele>
        <time>2026-08-15T04:07:31.000Z</time>
      </trkpt>
      <trkpt lat="22.945335" lon="109.420151">
        <ele>74.341957</ele>
        <time>2026-08-15T04:07:32.000Z</time>
      </trkpt>
      <trkpt lat="22.945386" lon="109.420145">
        <ele>74.352799</ele>
        <time>2026-08-15T04:07:33.000Z</time>
      </trkpt>
      <trkpt lat="22.945437" lon="109.420145">
        <ele>74.363578</ele>
        <time>2026-08-15T04:07:34.000Z</time>
      </trkpt>
      <trkpt lat="22.945486" lon="109.420145">
        <ele>74.373935</ele>
        <time>2026-08-15T04:07:35.000Z</time>
      </trkpt>
      <trkpt lat="22.945536" lon="109.420145">
        <ele>74.384503</ele>
        <time>2026-08-15T04:07:36.000Z</time>
      </trkpt>
      <trkpt lat="22.945586" lon="109.420145">
        <ele>74.395071</ele>
        <time>2026-08-15T04:07:37.000Z</time>
      </trkpt>
      <trkpt lat="22.945637" lon="109.420146">
        <ele>74.405852</ele>
        <time>2026-08-15T04:07:38.000Z</time>
      </trkpt>
      <trkpt lat="22.945687" lon="109.420148">
        <ele>74.416427</ele>
        <time>2026-08-15T04:07:39.000Z</time>
      </trkpt>
      <trkpt lat="22.945737" lon="109.420150">
        <ele>74.427002</ele>
        <time>2026-08-15T04:07:40.000Z</time>
      </trkpt>
      <trkpt lat="22.945788" lon="109.420150">
        <ele>74.437782</ele>
        <time>2026-08-15T04:07:41.000Z</time>
      </trkpt>
      <trkpt lat="22.945838" lon="109.420150">
        <ele>74.448349</ele>
        <time>2026-08-15T04:07:42.000Z</time>
      </trkpt>
      <trkpt lat="22.945889" lon="109.420149">
        <ele>74.459131</ele>
        <time>2026-08-15T04:07:43.000Z</time>
      </trkpt>
      <trkpt lat="22.945938" lon="109.420148">
        <ele>74.469489</ele>
        <time>2026-08-15T04:07:44.000Z</time>
      </trkpt>
      <trkpt lat="22.945989" lon="109.420146">
        <ele>74.480275</ele>
        <time>2026-08-15T04:07:45.000Z</time>
      </trkpt>
      <trkpt lat="22.946039" lon="109.420146">
        <ele>74.490843</ele>
        <time>2026-08-15T04:07:46.000Z</time>
      </trkpt>
      <trkpt lat="22.946087" lon="109.420145">
        <ele>74.500990</ele>
        <time>2026-08-15T04:07:47.000Z</time>
      </trkpt>
      <trkpt lat="22.946137" lon="109.420143">
        <ele>74.511565</ele>
        <time>2026-08-15T04:07:48.000Z</time>
      </trkpt>
      <trkpt lat="22.946185" lon="109.420139">
        <ele>74.521741</ele>
        <time>2026-08-15T04:07:49.000Z</time>
      </trkpt>
      <trkpt lat="22.946233" lon="109.420135">
        <ele>74.531916</ele>
        <time>2026-08-15T04:07:50.000Z</time>
      </trkpt>
      <trkpt lat="22.946281" lon="109.420132">
        <ele>74.542078</ele>
        <time>2026-08-15T04:07:51.000Z</time>
      </trkpt>
      <trkpt lat="22.946327" lon="109.420132">
        <ele>74.551800</ele>
        <time>2026-08-15T04:07:52.000Z</time>
      </trkpt>
      <trkpt lat="22.946373" lon="109.420130">
        <ele>74.561530</ele>
        <time>2026-08-15T04:07:53.000Z</time>
      </trkpt>
      <trkpt lat="22.946419" lon="109.420127">
        <ele>74.571270</ele>
        <time>2026-08-15T04:07:54.000Z</time>
      </trkpt>
      <trkpt lat="22.946465" lon="109.420123">
        <ele>74.581024</ele>
        <time>2026-08-15T04:07:55.000Z</time>
      </trkpt>
      <trkpt lat="22.946512" lon="109.420119">
        <ele>74.590988</ele>
        <time>2026-08-15T04:07:56.000Z</time>
      </trkpt>
      <trkpt lat="22.946557" lon="109.420116">
        <ele>74.600517</ele>
        <time>2026-08-15T04:07:57.000Z</time>
      </trkpt>
      <trkpt lat="22.946604" lon="109.420113">
        <ele>74.610469</ele>
        <time>2026-08-15T04:07:58.000Z</time>
      </trkpt>
      <trkpt lat="22.946649" lon="109.420110">
        <ele>74.619998</ele>
        <time>2026-08-15T04:07:59.000Z</time>
      </trkpt>
      <trkpt lat="22.946696" lon="109.420104">
        <ele>74.630000</ele>
        <time>2026-08-15T04:08:00.000Z</time>
      </trkpt>
      <trkpt lat="22.946742" lon="109.420102">
        <ele>74.639730</ele>
        <time>2026-08-15T04:08:01.000Z</time>
      </trkpt>
      <trkpt lat="22.946789" lon="109.420099">
        <ele>74.649681</ele>
        <time>2026-08-15T04:08:02.000Z</time>
      </trkpt>
      <trkpt lat="22.946837" lon="109.420096">
        <ele>74.659843</ele>
        <time>2026-08-15T04:08:03.000Z</time>
      </trkpt>
      <trkpt lat="22.946884" lon="109.420093">
        <ele>74.669794</ele>
        <time>2026-08-15T04:08:04.000Z</time>
      </trkpt>
      <trkpt lat="22.946932" lon="109.420092">
        <ele>74.679941</ele>
        <time>2026-08-15T04:08:05.000Z</time>
      </trkpt>
      <trkpt lat="22.946981" lon="109.420089">
        <ele>74.690314</ele>
        <time>2026-08-15T04:08:06.000Z</time>
      </trkpt>
      <trkpt lat="22.947030" lon="109.420085">
        <ele>74.700700</ele>
        <time>2026-08-15T04:08:07.000Z</time>
      </trkpt>
      <trkpt lat="22.947080" lon="109.420081">
        <ele>74.671518</ele>
        <time>2026-08-15T04:08:08.000Z</time>
      </trkpt>
      <trkpt lat="22.947131" lon="109.420076">
        <ele>74.637200</ele>
        <time>2026-08-15T04:08:09.000Z</time>
      </trkpt>
      <trkpt lat="22.947182" lon="109.420069">
        <ele>74.602749</ele>
        <time>2026-08-15T04:08:10.000Z</time>
      </trkpt>
      <trkpt lat="22.947234" lon="109.420063">
        <ele>74.567704</ele>
        <time>2026-08-15T04:08:11.000Z</time>
      </trkpt>
      <trkpt lat="22.947287" lon="109.420057">
        <ele>74.531992</ele>
        <time>2026-08-15T04:08:12.000Z</time>
      </trkpt>
      <trkpt lat="22.947342" lon="109.420052">
        <ele>74.495003</ele>
        <time>2026-08-15T04:08:13.000Z</time>
      </trkpt>
      <trkpt lat="22.947396" lon="109.420047">
        <ele>74.458682</ele>
        <time>2026-08-15T04:08:14.000Z</time>
      </trkpt>
      <trkpt lat="22.947450" lon="109.420043">
        <ele>74.422409</ele>
        <time>2026-08-15T04:08:15.000Z</time>
      </trkpt>
      <trkpt lat="22.947504" lon="109.420036">
        <ele>74.385962</ele>
        <time>2026-08-15T04:08:16.000Z</time>
      </trkpt>
      <trkpt lat="22.947558" lon="109.420026">
        <ele>74.349250</ele>
        <time>2026-08-15T04:08:17.000Z</time>
      </trkpt>
      <trkpt lat="22.947614" lon="109.420016">
        <ele>74.311216</ele>
        <time>2026-08-15T04:08:18.000Z</time>
      </trkpt>
      <trkpt lat="22.947671" lon="109.420008">
        <ele>74.272698</ele>
        <time>2026-08-15T04:08:19.000Z</time>
      </trkpt>
      <trkpt lat="22.947727" lon="109.420000">
        <ele>74.234845</ele>
        <time>2026-08-15T04:08:20.000Z</time>
      </trkpt>
      <trkpt lat="22.947781" lon="109.419990">
        <ele>74.198133</ele>
        <time>2026-08-15T04:08:21.000Z</time>
      </trkpt>
      <trkpt lat="22.947835" lon="109.419980">
        <ele>74.161421</ele>
        <time>2026-08-15T04:08:22.000Z</time>
      </trkpt>
      <trkpt lat="22.947888" lon="109.419970">
        <ele>74.125370</ele>
        <time>2026-08-15T04:08:23.000Z</time>
      </trkpt>
      <trkpt lat="22.947941" lon="109.419961">
        <ele>74.089419</ele>
        <time>2026-08-15T04:08:24.000Z</time>
      </trkpt>
      <trkpt lat="22.947995" lon="109.419952">
        <ele>74.052805</ele>
        <time>2026-08-15T04:08:25.000Z</time>
      </trkpt>
      <trkpt lat="22.948047" lon="109.419944">
        <ele>74.017608</ele>
        <time>2026-08-15T04:08:26.000Z</time>
      </trkpt>
      <trkpt lat="22.948101" lon="109.419935">
        <ele>73.980995</ele>
        <time>2026-08-15T04:08:27.000Z</time>
      </trkpt>
      <trkpt lat="22.948154" lon="109.419929">
        <ele>73.945283</ele>
        <time>2026-08-15T04:08:28.000Z</time>
      </trkpt>
      <trkpt lat="22.948208" lon="109.419922">
        <ele>73.908836</ele>
        <time>2026-08-15T04:08:29.000Z</time>
      </trkpt>
      <trkpt lat="22.948262" lon="109.419914">
        <ele>73.872311</ele>
        <time>2026-08-15T04:08:30.000Z</time>
      </trkpt>
      <trkpt lat="22.948316" lon="109.419907">
        <ele>73.835865</ele>
        <time>2026-08-15T04:08:31.000Z</time>
      </trkpt>
      <trkpt lat="22.948369" lon="109.419901">
        <ele>73.800153</ele>
        <time>2026-08-15T04:08:32.000Z</time>
      </trkpt>
      <trkpt lat="22.948422" lon="109.419896">
        <ele>73.764500</ele>
        <time>2026-08-15T04:08:33.000Z</time>
      </trkpt>
      <trkpt lat="22.948477" lon="109.419891">
        <ele>73.727511</ele>
        <time>2026-08-15T04:08:34.000Z</time>
      </trkpt>
      <trkpt lat="22.948533" lon="109.419886">
        <ele>73.689855</ele>
        <time>2026-08-15T04:08:35.000Z</time>
      </trkpt>
      <trkpt lat="22.948587" lon="109.419882">
        <ele>73.653581</ele>
        <time>2026-08-15T04:08:36.000Z</time>
      </trkpt>
      <trkpt lat="22.948641" lon="109.419878">
        <ele>73.617307</ele>
        <time>2026-08-15T04:08:37.000Z</time>
      </trkpt>
      <trkpt lat="22.948695" lon="109.419879">
        <ele>73.581112</ele>
        <time>2026-08-15T04:08:38.000Z</time>
      </trkpt>
      <trkpt lat="22.948748" lon="109.419883">
        <ele>73.545507</ele>
        <time>2026-08-15T04:08:39.000Z</time>
      </trkpt>
      <trkpt lat="22.948802" lon="109.419889">
        <ele>73.509129</ele>
        <time>2026-08-15T04:08:40.000Z</time>
      </trkpt>
      <trkpt lat="22.948854" lon="109.419897">
        <ele>73.479060</ele>
        <time>2026-08-15T04:08:41.000Z</time>
      </trkpt>
      <trkpt lat="22.948904" lon="109.419905">
        <ele>73.452939</ele>
        <time>2026-08-15T04:08:42.000Z</time>
      </trkpt>
      <trkpt lat="22.948954" lon="109.419914">
        <ele>73.426744</ele>
        <time>2026-08-15T04:08:43.000Z</time>
      </trkpt>
      <trkpt lat="22.949003" lon="109.419923">
        <ele>73.401058</ele>
        <time>2026-08-15T04:08:44.000Z</time>
      </trkpt>
      <trkpt lat="22.949050" lon="109.419931">
        <ele>73.376469</ele>
        <time>2026-08-15T04:08:45.000Z</time>
      </trkpt>
      <trkpt lat="22.949097" lon="109.419939">
        <ele>73.351881</ele>
        <time>2026-08-15T04:08:46.000Z</time>
      </trkpt>
      <trkpt lat="22.949145" lon="109.419947">
        <ele>73.326781</ele>
        <time>2026-08-15T04:08:47.000Z</time>
      </trkpt>
      <trkpt lat="22.949193" lon="109.419957">
        <ele>73.301520</ele>
        <time>2026-08-15T04:08:48.000Z</time>
      </trkpt>
      <trkpt lat="22.949241" lon="109.419969">
        <ele>73.276062</ele>
        <time>2026-08-15T04:08:49.000Z</time>
      </trkpt>
      <trkpt lat="22.949289" lon="109.419983">
        <ele>73.250374</ele>
        <time>2026-08-15T04:08:50.000Z</time>
      </trkpt>
      <trkpt lat="22.949337" lon="109.419998">
        <ele>73.224558</ele>
        <time>2026-08-15T04:08:51.000Z</time>
      </trkpt>
      <trkpt lat="22.949383" lon="109.420014">
        <ele>73.199594</ele>
        <time>2026-08-15T04:08:52.000Z</time>
      </trkpt>
      <trkpt lat="22.949431" lon="109.420029">
        <ele>73.173778</ele>
        <time>2026-08-15T04:08:53.000Z</time>
      </trkpt>
      <trkpt lat="22.949478" lon="109.420044">
        <ele>73.148458</ele>
        <time>2026-08-15T04:08:54.000Z</time>
      </trkpt>
      <trkpt lat="22.949524" lon="109.420058">
        <ele>73.123767</ele>
        <time>2026-08-15T04:08:55.000Z</time>
      </trkpt>
      <trkpt lat="22.949571" lon="109.420072">
        <ele>73.098578</ele>
        <time>2026-08-15T04:08:56.000Z</time>
      </trkpt>
      <trkpt lat="22.949618" lon="109.420085">
        <ele>73.073510</ele>
        <time>2026-08-15T04:08:57.000Z</time>
      </trkpt>
      <trkpt lat="22.949663" lon="109.420099">
        <ele>73.049316</ele>
        <time>2026-08-15T04:08:58.000Z</time>
      </trkpt>
      <trkpt lat="22.949706" lon="109.420113">
        <ele>73.026114</ele>
        <time>2026-08-15T04:08:59.000Z</time>
      </trkpt>
      <trkpt lat="22.949751" lon="109.420128">
        <ele>73.001785</ele>
        <time>2026-08-15T04:09:00.000Z</time>
      </trkpt>
      <trkpt lat="22.949793" lon="109.420140">
        <ele>72.979338</ele>
        <time>2026-08-15T04:09:01.000Z</time>
      </trkpt>
      <trkpt lat="22.949837" lon="109.420154">
        <ele>72.955641</ele>
        <time>2026-08-15T04:09:02.000Z</time>
      </trkpt>
      <trkpt lat="22.949879" lon="109.420171">
        <ele>72.932474</ele>
        <time>2026-08-15T04:09:03.000Z</time>
      </trkpt>
      <trkpt lat="22.949921" lon="109.420188">
        <ele>72.909308</ele>
        <time>2026-08-15T04:09:04.000Z</time>
      </trkpt>
      <trkpt lat="22.949965" lon="109.420206">
        <ele>72.885006</ele>
        <time>2026-08-15T04:09:05.000Z</time>
      </trkpt>
      <trkpt lat="22.950011" lon="109.420225">
        <ele>72.859569</ele>
        <time>2026-08-15T04:09:06.000Z</time>
      </trkpt>
      <trkpt lat="22.950059" lon="109.420248">
        <ele>72.832453</ele>
        <time>2026-08-15T04:09:07.000Z</time>
      </trkpt>
      <trkpt lat="22.950106" lon="109.420273">
        <ele>72.805403</ele>
        <time>2026-08-15T04:09:08.000Z</time>
      </trkpt>
      <trkpt lat="22.950154" lon="109.420298">
        <ele>72.777888</ele>
        <time>2026-08-15T04:09:09.000Z</time>
      </trkpt>
      <trkpt lat="22.950198" lon="109.420326">
        <ele>72.751530</ele>
        <time>2026-08-15T04:09:10.000Z</time>
      </trkpt>
      <trkpt lat="22.950245" lon="109.420353">
        <ele>72.724048</ele>
        <time>2026-08-15T04:09:11.000Z</time>
      </trkpt>
      <trkpt lat="22.950294" lon="109.420379">
        <ele>72.695861</ele>
        <time>2026-08-15T04:09:12.000Z</time>
      </trkpt>
      <trkpt lat="22.950343" lon="109.420405">
        <ele>72.667674</ele>
        <time>2026-08-15T04:09:13.000Z</time>
      </trkpt>
      <trkpt lat="22.950394" lon="109.420430">
        <ele>72.638753</ele>
        <time>2026-08-15T04:09:14.000Z</time>
      </trkpt>
      <trkpt lat="22.950445" lon="109.420455">
        <ele>72.609833</ele>
        <time>2026-08-15T04:09:15.000Z</time>
      </trkpt>
      <trkpt lat="22.950495" lon="109.420482">
        <ele>72.580972</ele>
        <time>2026-08-15T04:09:16.000Z</time>
      </trkpt>
      <trkpt lat="22.950546" lon="109.420511">
        <ele>72.540202</ele>
        <time>2026-08-15T04:09:17.000Z</time>
      </trkpt>
      <trkpt lat="22.950599" lon="109.420538">
        <ele>72.488441</ele>
        <time>2026-08-15T04:09:18.000Z</time>
      </trkpt>
      <trkpt lat="22.950652" lon="109.420570">
        <ele>72.434824</ele>
        <time>2026-08-15T04:09:19.000Z</time>
      </trkpt>
      <trkpt lat="22.950703" lon="109.420606">
        <ele>72.381042</ele>
        <time>2026-08-15T04:09:20.000Z</time>
      </trkpt>
      <trkpt lat="22.950753" lon="109.420642">
        <ele>72.328000</ele>
        <time>2026-08-15T04:09:21.000Z</time>
      </trkpt>
      <trkpt lat="22.950806" lon="109.420679">
        <ele>72.272291</ele>
        <time>2026-08-15T04:09:22.000Z</time>
      </trkpt>
      <trkpt lat="22.950859" lon="109.420717">
        <ele>72.216138</ele>
        <time>2026-08-15T04:09:23.000Z</time>
      </trkpt>
      <trkpt lat="22.950911" lon="109.420757">
        <ele>72.159795</ele>
        <time>2026-08-15T04:09:24.000Z</time>
      </trkpt>
      <trkpt lat="22.950962" lon="109.420796">
        <ele>72.104645</ele>
        <time>2026-08-15T04:09:25.000Z</time>
      </trkpt>
      <trkpt lat="22.951013" lon="109.420834">
        <ele>72.049958</ele>
        <time>2026-08-15T04:09:26.000Z</time>
      </trkpt>
      <trkpt lat="22.951064" lon="109.420872">
        <ele>71.995272</ele>
        <time>2026-08-15T04:09:27.000Z</time>
      </trkpt>
      <trkpt lat="22.951115" lon="109.420907">
        <ele>71.941930</ele>
        <time>2026-08-15T04:09:28.000Z</time>
      </trkpt>
      <trkpt lat="22.951168" lon="109.420941">
        <ele>71.887504</ele>
        <time>2026-08-15T04:09:29.000Z</time>
      </trkpt>
      <trkpt lat="22.951218" lon="109.420978">
        <ele>71.834007</ele>
        <time>2026-08-15T04:09:30.000Z</time>
      </trkpt>
      <trkpt lat="22.951267" lon="109.421014">
        <ele>71.781699</ele>
        <time>2026-08-15T04:09:31.000Z</time>
      </trkpt>
      <trkpt lat="22.951315" lon="109.421051">
        <ele>71.729654</ele>
        <time>2026-08-15T04:09:32.000Z</time>
      </trkpt>
      <trkpt lat="22.951364" lon="109.421087">
        <ele>71.677346</ele>
        <time>2026-08-15T04:09:33.000Z</time>
      </trkpt>
      <trkpt lat="22.951411" lon="109.421124">
        <ele>71.626020</ele>
        <time>2026-08-15T04:09:34.000Z</time>
      </trkpt>
      <trkpt lat="22.951460" lon="109.421160">
        <ele>71.573712</ele>
        <time>2026-08-15T04:09:35.000Z</time>
      </trkpt>
      <trkpt lat="22.951510" lon="109.421195">
        <ele>71.521115</ele>
        <time>2026-08-15T04:09:36.000Z</time>
      </trkpt>
      <trkpt lat="22.951559" lon="109.421232">
        <ele>71.468347</ele>
        <time>2026-08-15T04:09:37.000Z</time>
      </trkpt>
      <trkpt lat="22.951608" lon="109.421266">
        <ele>71.416934</ele>
        <time>2026-08-15T04:09:38.000Z</time>
      </trkpt>
      <trkpt lat="22.951658" lon="109.421301">
        <ele>71.364337</ele>
        <time>2026-08-15T04:09:39.000Z</time>
      </trkpt>
      <trkpt lat="22.951709" lon="109.421336">
        <ele>71.310995</ele>
        <time>2026-08-15T04:09:40.000Z</time>
      </trkpt>
      <trkpt lat="22.951757" lon="109.421370">
        <ele>71.260325</ele>
        <time>2026-08-15T04:09:41.000Z</time>
      </trkpt>
      <trkpt lat="22.951805" lon="109.421405">
        <ele>71.209206</ele>
        <time>2026-08-15T04:09:42.000Z</time>
      </trkpt>
      <trkpt lat="22.951855" lon="109.421440">
        <ele>71.156609</ele>
        <time>2026-08-15T04:09:43.000Z</time>
      </trkpt>
      <trkpt lat="22.951904" lon="109.421477">
        <ele>71.103840</ele>
        <time>2026-08-15T04:09:44.000Z</time>
      </trkpt>
      <trkpt lat="22.951955" lon="109.421510">
        <ele>71.051350</ele>
        <time>2026-08-15T04:09:45.000Z</time>
      </trkpt>
      <trkpt lat="22.952005" lon="109.421542">
        <ele>71.000036</ele>
        <time>2026-08-15T04:09:46.000Z</time>
      </trkpt>
      <trkpt lat="22.952057" lon="109.421575">
        <ele>70.947045</ele>
        <time>2026-08-15T04:09:47.000Z</time>
      </trkpt>
      <trkpt lat="22.952112" lon="109.421606">
        <ele>70.892739</ele>
        <time>2026-08-15T04:09:48.000Z</time>
      </trkpt>
      <trkpt lat="22.952170" lon="109.421632">
        <ele>70.837749</ele>
        <time>2026-08-15T04:09:49.000Z</time>
      </trkpt>
      <trkpt lat="22.952228" lon="109.421656">
        <ele>70.783355</ele>
        <time>2026-08-15T04:09:50.000Z</time>
      </trkpt>
      <trkpt lat="22.952288" lon="109.421675">
        <ele>70.728583</ele>
        <time>2026-08-15T04:09:51.000Z</time>
      </trkpt>
      <trkpt lat="22.952345" lon="109.421690">
        <ele>70.677184</ele>
        <time>2026-08-15T04:09:52.000Z</time>
      </trkpt>
      <trkpt lat="22.952403" lon="109.421703">
        <ele>70.625283</ele>
        <time>2026-08-15T04:09:53.000Z</time>
      </trkpt>
      <trkpt lat="22.952461" lon="109.421717">
        <ele>70.573213</ele>
        <time>2026-08-15T04:09:54.000Z</time>
      </trkpt>
      <trkpt lat="22.952519" lon="109.421729">
        <ele>70.521469</ele>
        <time>2026-08-15T04:09:55.000Z</time>
      </trkpt>
      <trkpt lat="22.952577" lon="109.421737">
        <ele>70.470231</ele>
        <time>2026-08-15T04:09:56.000Z</time>
      </trkpt>
      <trkpt lat="22.952635" lon="109.421746">
        <ele>70.418885</ele>
        <time>2026-08-15T04:09:57.000Z</time>
      </trkpt>
      <trkpt lat="22.952695" lon="109.421753">
        <ele>70.366000</ele>
        <time>2026-08-15T04:09:58.000Z</time>
      </trkpt>
      <trkpt lat="22.952756" lon="109.421757">
        <ele>70.312444</ele>
        <time>2026-08-15T04:09:59.000Z</time>
      </trkpt>
      <trkpt lat="22.952817" lon="109.421757">
        <ele>70.258986</ele>
        <time>2026-08-15T04:10:00.000Z</time>
      </trkpt>
      <trkpt lat="22.952878" lon="109.421757">
        <ele>70.205527</ele>
        <time>2026-08-15T04:10:01.000Z</time>
      </trkpt>
      <trkpt lat="22.952939" lon="109.421755">
        <ele>70.152044</ele>
        <time>2026-08-15T04:10:02.000Z</time>
      </trkpt>
      <trkpt lat="22.953000" lon="109.421751">
        <ele>70.098488</ele>
        <time>2026-08-15T04:10:03.000Z</time>
      </trkpt>
      <trkpt lat="22.953063" lon="109.421747">
        <ele>70.043182</ele>
        <time>2026-08-15T04:10:04.000Z</time>
      </trkpt>
      <trkpt lat="22.953124" lon="109.421743">
        <ele>69.989626</ele>
        <time>2026-08-15T04:10:05.000Z</time>
      </trkpt>
      <trkpt lat="22.953186" lon="109.421739">
        <ele>69.935195</ele>
        <time>2026-08-15T04:10:06.000Z</time>
      </trkpt>
      <trkpt lat="22.953247" lon="109.421731">
        <ele>69.881348</ele>
        <time>2026-08-15T04:10:07.000Z</time>
      </trkpt>
      <trkpt lat="22.953308" lon="109.421722">
        <ele>69.827398</ele>
        <time>2026-08-15T04:10:08.000Z</time>
      </trkpt>
      <trkpt lat="22.953369" lon="109.421712">
        <ele>69.773334</ele>
        <time>2026-08-15T04:10:09.000Z</time>
      </trkpt>
      <trkpt lat="22.953431" lon="109.421702">
        <ele>69.718403</ele>
        <time>2026-08-15T04:10:10.000Z</time>
      </trkpt>
      <trkpt lat="22.953492" lon="109.421691">
        <ele>69.664212</ele>
        <time>2026-08-15T04:10:11.000Z</time>
      </trkpt>
      <trkpt lat="22.953555" lon="109.421679">
        <ele>69.608158</ele>
        <time>2026-08-15T04:10:12.000Z</time>
      </trkpt>
      <trkpt lat="22.953618" lon="109.421667">
        <ele>69.552104</ele>
        <time>2026-08-15T04:10:13.000Z</time>
      </trkpt>
      <trkpt lat="22.953682" lon="109.421655">
        <ele>69.495186</ele>
        <time>2026-08-15T04:10:14.000Z</time>
      </trkpt>
      <trkpt lat="22.953745" lon="109.421644">
        <ele>69.439265</ele>
        <time>2026-08-15T04:10:15.000Z</time>
      </trkpt>
      <trkpt lat="22.953807" lon="109.421633">
        <ele>69.399709</ele>
        <time>2026-08-15T04:10:16.000Z</time>
      </trkpt>
      <trkpt lat="22.953870" lon="109.421620">
        <ele>69.398238</ele>
        <time>2026-08-15T04:10:17.000Z</time>
      </trkpt>
      <trkpt lat="22.953932" lon="109.421607">
        <ele>69.396788</ele>
        <time>2026-08-15T04:10:18.000Z</time>
      </trkpt>
      <trkpt lat="22.953995" lon="109.421597">
        <ele>69.395327</ele>
        <time>2026-08-15T04:10:19.000Z</time>
      </trkpt>
      <trkpt lat="22.954056" lon="109.421589">
        <ele>69.393916</ele>
        <time>2026-08-15T04:10:20.000Z</time>
      </trkpt>
      <trkpt lat="22.954117" lon="109.421577">
        <ele>69.392494</ele>
        <time>2026-08-15T04:10:21.000Z</time>
      </trkpt>
      <trkpt lat="22.954177" lon="109.421564">
        <ele>69.391089</ele>
        <time>2026-08-15T04:10:22.000Z</time>
      </trkpt>
      <trkpt lat="22.954239" lon="109.421560">
        <ele>69.389664</ele>
        <time>2026-08-15T04:10:23.000Z</time>
      </trkpt>
      <trkpt lat="22.954302" lon="109.421561">
        <ele>69.388217</ele>
        <time>2026-08-15T04:10:24.000Z</time>
      </trkpt>
      <trkpt lat="22.954367" lon="109.421559">
        <ele>69.386725</ele>
        <time>2026-08-15T04:10:25.000Z</time>
      </trkpt>
      <trkpt lat="22.954429" lon="109.421554">
        <ele>69.385298</ele>
        <time>2026-08-15T04:10:26.000Z</time>
      </trkpt>
      <trkpt lat="22.954490" lon="109.421546">
        <ele>69.383888</ele>
        <time>2026-08-15T04:10:27.000Z</time>
      </trkpt>
      <trkpt lat="22.954549" lon="109.421538">
        <ele>69.382523</ele>
        <time>2026-08-15T04:10:28.000Z</time>
      </trkpt>
      <trkpt lat="22.954607" lon="109.421528">
        <ele>69.381175</ele>
        <time>2026-08-15T04:10:29.000Z</time>
      </trkpt>
      <trkpt lat="22.954664" lon="109.421519">
        <ele>69.379853</ele>
        <time>2026-08-15T04:10:30.000Z</time>
      </trkpt>
      <trkpt lat="22.954721" lon="109.421510">
        <ele>69.378531</ele>
        <time>2026-08-15T04:10:31.000Z</time>
      </trkpt>
      <trkpt lat="22.954777" lon="109.421500">
        <ele>69.377228</ele>
        <time>2026-08-15T04:10:32.000Z</time>
      </trkpt>
      <trkpt lat="22.954834" lon="109.421491">
        <ele>69.375906</ele>
        <time>2026-08-15T04:10:33.000Z</time>
      </trkpt>
      <trkpt lat="22.954890" lon="109.421483">
        <ele>69.374609</ele>
        <time>2026-08-15T04:10:34.000Z</time>
      </trkpt>
      <trkpt lat="22.954945" lon="109.421475">
        <ele>69.373336</ele>
        <time>2026-08-15T04:10:35.000Z</time>
      </trkpt>
      <trkpt lat="22.955000" lon="109.421465">
        <ele>69.372056</ele>
        <time>2026-08-15T04:10:36.000Z</time>
      </trkpt>
      <trkpt lat="22.955056" lon="109.421455">
        <ele>69.370753</ele>
        <time>2026-08-15T04:10:37.000Z</time>
      </trkpt>
      <trkpt lat="22.955111" lon="109.421443">
        <ele>69.369465</ele>
        <time>2026-08-15T04:10:38.000Z</time>
      </trkpt>
      <trkpt lat="22.955166" lon="109.421432">
        <ele>69.368182</ele>
        <time>2026-08-15T04:10:39.000Z</time>
      </trkpt>
      <trkpt lat="22.955222" lon="109.421422">
        <ele>69.366879</ele>
        <time>2026-08-15T04:10:40.000Z</time>
      </trkpt>
      <trkpt lat="22.955279" lon="109.421413">
        <ele>69.365557</ele>
        <time>2026-08-15T04:10:41.000Z</time>
      </trkpt>
      <trkpt lat="22.955335" lon="109.421405">
        <ele>69.364261</ele>
        <time>2026-08-15T04:10:42.000Z</time>
      </trkpt>
      <trkpt lat="22.955392" lon="109.421396">
        <ele>69.362939</ele>
        <time>2026-08-15T04:10:43.000Z</time>
      </trkpt>
      <trkpt lat="22.955449" lon="109.421385">
        <ele>69.361610</ele>
        <time>2026-08-15T04:10:44.000Z</time>
      </trkpt>
      <trkpt lat="22.955507" lon="109.421376">
        <ele>69.360265</ele>
        <time>2026-08-15T04:10:45.000Z</time>
      </trkpt>
      <trkpt lat="22.955565" lon="109.421367">
        <ele>69.358920</ele>
        <time>2026-08-15T04:10:46.000Z</time>
      </trkpt>
      <trkpt lat="22.955624" lon="109.421358">
        <ele>69.327214</ele>
        <time>2026-08-15T04:10:47.000Z</time>
      </trkpt>
      <trkpt lat="22.955684" lon="109.421347">
        <ele>69.292950</ele>
        <time>2026-08-15T04:10:48.000Z</time>
      </trkpt>
      <trkpt lat="22.955743" lon="109.421338">
        <ele>69.259401</ele>
        <time>2026-08-15T04:10:49.000Z</time>
      </trkpt>
      <trkpt lat="22.955803" lon="109.421329">
        <ele>69.225294</ele>
        <time>2026-08-15T04:10:50.000Z</time>
      </trkpt>
      <trkpt lat="22.955862" lon="109.421319">
        <ele>69.191669</ele>
        <time>2026-08-15T04:10:51.000Z</time>
      </trkpt>
      <trkpt lat="22.955921" lon="109.421309">
        <ele>69.158044</ele>
        <time>2026-08-15T04:10:52.000Z</time>
      </trkpt>
      <trkpt lat="22.955979" lon="109.421300">
        <ele>69.125052</ele>
        <time>2026-08-15T04:10:53.000Z</time>
      </trkpt>
      <trkpt lat="22.956036" lon="109.421291">
        <ele>69.092618</ele>
        <time>2026-08-15T04:10:54.000Z</time>
      </trkpt>
      <trkpt lat="22.956093" lon="109.421282">
        <ele>69.060183</ele>
        <time>2026-08-15T04:10:55.000Z</time>
      </trkpt>
      <trkpt lat="22.956148" lon="109.421274">
        <ele>69.028936</ele>
        <time>2026-08-15T04:10:56.000Z</time>
      </trkpt>
      <trkpt lat="22.956203" lon="109.421265">
        <ele>68.997616</ele>
        <time>2026-08-15T04:10:57.000Z</time>
      </trkpt>
      <trkpt lat="22.956259" lon="109.421254">
        <ele>68.965571</ele>
        <time>2026-08-15T04:10:58.000Z</time>
      </trkpt>
      <trkpt lat="22.956317" lon="109.421242">
        <ele>68.932323</ele>
        <time>2026-08-15T04:10:59.000Z</time>
      </trkpt>
      <trkpt lat="22.956376" lon="109.421230">
        <ele>68.898523</ele>
        <time>2026-08-15T04:11:00.000Z</time>
      </trkpt>
      <trkpt lat="22.956434" lon="109.421218">
        <ele>68.865276</ele>
        <time>2026-08-15T04:11:01.000Z</time>
      </trkpt>
      <trkpt lat="22.956492" lon="109.421207">
        <ele>68.832121</ele>
        <time>2026-08-15T04:11:02.000Z</time>
      </trkpt>
      <trkpt lat="22.956551" lon="109.421194">
        <ele>68.798221</ele>
        <time>2026-08-15T04:11:03.000Z</time>
      </trkpt>
      <trkpt lat="22.956611" lon="109.421181">
        <ele>68.763770</ele>
        <time>2026-08-15T04:11:04.000Z</time>
      </trkpt>
      <trkpt lat="22.956670" lon="109.421169">
        <ele>68.729969</ele>
        <time>2026-08-15T04:11:05.000Z</time>
      </trkpt>
      <trkpt lat="22.956730" lon="109.421157">
        <ele>68.695615</ele>
        <time>2026-08-15T04:11:06.000Z</time>
      </trkpt>
      <trkpt lat="22.956788" lon="109.421145">
        <ele>68.662367</ele>
        <time>2026-08-15T04:11:07.000Z</time>
      </trkpt>
      <trkpt lat="22.956847" lon="109.421132">
        <ele>68.628467</ele>
        <time>2026-08-15T04:11:08.000Z</time>
      </trkpt>
      <trkpt lat="22.956904" lon="109.421119">
        <ele>68.595670</ele>
        <time>2026-08-15T04:11:09.000Z</time>
      </trkpt>
      <trkpt lat="22.956962" lon="109.421106">
        <ele>68.562322</ele>
        <time>2026-08-15T04:11:10.000Z</time>
      </trkpt>
      <trkpt lat="22.957019" lon="109.421092">
        <ele>68.529415</ele>
        <time>2026-08-15T04:11:11.000Z</time>
      </trkpt>
      <trkpt lat="22.957075" lon="109.421079">
        <ele>68.497169</ele>
        <time>2026-08-15T04:11:12.000Z</time>
      </trkpt>
      <trkpt lat="22.957133" lon="109.421067">
        <ele>68.463921</ele>
        <time>2026-08-15T04:11:13.000Z</time>
      </trkpt>
      <trkpt lat="22.957190" lon="109.421056">
        <ele>68.431322</ele>
        <time>2026-08-15T04:11:14.000Z</time>
      </trkpt>
      <trkpt lat="22.957249" lon="109.421044">
        <ele>68.397521</ele>
        <time>2026-08-15T04:11:15.000Z</time>
      </trkpt>
      <trkpt lat="22.957307" lon="109.421031">
        <ele>68.364173</ele>
        <time>2026-08-15T04:11:16.000Z</time>
      </trkpt>
      <trkpt lat="22.957366" lon="109.421016">
        <ele>68.332051</ele>
        <time>2026-08-15T04:11:17.000Z</time>
      </trkpt>
      <trkpt lat="22.957425" lon="109.421003">
        <ele>68.302395</ele>
        <time>2026-08-15T04:11:18.000Z</time>
      </trkpt>
      <trkpt lat="22.957481" lon="109.420983">
        <ele>68.273356</ele>
        <time>2026-08-15T04:11:19.000Z</time>
      </trkpt>
      <trkpt lat="22.957536" lon="109.420965">
        <ele>68.245060</ele>
        <time>2026-08-15T04:11:20.000Z</time>
      </trkpt>
      <trkpt lat="22.957592" lon="109.420947">
        <ele>68.216291</ele>
        <time>2026-08-15T04:11:21.000Z</time>
      </trkpt>
      <trkpt lat="22.957651" lon="109.420931">
        <ele>68.186335</ele>
        <time>2026-08-15T04:11:22.000Z</time>
      </trkpt>
      <trkpt lat="22.957708" lon="109.420916">
        <ele>68.157444</ele>
        <time>2026-08-15T04:11:23.000Z</time>
      </trkpt>
      <trkpt lat="22.957766" lon="109.420907">
        <ele>68.128583</ele>
        <time>2026-08-15T04:11:24.000Z</time>
      </trkpt>
      <trkpt lat="22.957822" lon="109.420895">
        <ele>68.100465</ele>
        <time>2026-08-15T04:11:25.000Z</time>
      </trkpt>
      <trkpt lat="22.957879" lon="109.420882">
        <ele>68.071774</ele>
        <time>2026-08-15T04:11:26.000Z</time>
      </trkpt>
      <trkpt lat="22.957937" lon="109.420869">
        <ele>68.042601</ele>
        <time>2026-08-15T04:11:27.000Z</time>
      </trkpt>
      <trkpt lat="22.957994" lon="109.420856">
        <ele>68.013910</ele>
        <time>2026-08-15T04:11:28.000Z</time>
      </trkpt>
      <trkpt lat="22.958051" lon="109.420844">
        <ele>67.985309</ele>
        <time>2026-08-15T04:11:29.000Z</time>
      </trkpt>
      <trkpt lat="22.958108" lon="109.420833">
        <ele>67.956790</ele>
        <time>2026-08-15T04:11:30.000Z</time>
      </trkpt>
      <trkpt lat="22.958166" lon="109.420822">
        <ele>67.927787</ele>
        <time>2026-08-15T04:11:31.000Z</time>
      </trkpt>
      <trkpt lat="22.958226" lon="109.420813">
        <ele>67.897950</ele>
        <time>2026-08-15T04:11:32.000Z</time>
      </trkpt>
      <trkpt lat="22.958285" lon="109.420806">
        <ele>67.868714</ele>
        <time>2026-08-15T04:11:33.000Z</time>
      </trkpt>
      <trkpt lat="22.958344" lon="109.420801">
        <ele>67.839562</ele>
        <time>2026-08-15T04:11:34.000Z</time>
      </trkpt>
      <trkpt lat="22.958402" lon="109.420799">
        <ele>67.810976</ele>
        <time>2026-08-15T04:11:35.000Z</time>
      </trkpt>
      <trkpt lat="22.958460" lon="109.420801">
        <ele>67.782391</ele>
        <time>2026-08-15T04:11:36.000Z</time>
      </trkpt>
      <trkpt lat="22.958516" lon="109.420809">
        <ele>67.754567</ele>
        <time>2026-08-15T04:11:37.000Z</time>
      </trkpt>
      <trkpt lat="22.958570" lon="109.420821">
        <ele>67.727415</ele>
        <time>2026-08-15T04:11:38.000Z</time>
      </trkpt>
      <trkpt lat="22.958623" lon="109.420836">
        <ele>67.700435</ele>
        <time>2026-08-15T04:11:39.000Z</time>
      </trkpt>
      <trkpt lat="22.958675" lon="109.420854">
        <ele>67.673550</ele>
        <time>2026-08-15T04:11:40.000Z</time>
      </trkpt>
      <trkpt lat="22.958726" lon="109.420874">
        <ele>67.646840</ele>
        <time>2026-08-15T04:11:41.000Z</time>
      </trkpt>
      <trkpt lat="22.958777" lon="109.420898">
        <ele>67.619460</ele>
        <time>2026-08-15T04:11:42.000Z</time>
      </trkpt>
      <trkpt lat="22.958827" lon="109.420924">
        <ele>67.592152</ele>
        <time>2026-08-15T04:11:43.000Z</time>
      </trkpt>
      <trkpt lat="22.958876" lon="109.420952">
        <ele>67.564877</ele>
        <time>2026-08-15T04:11:44.000Z</time>
      </trkpt>
      <trkpt lat="22.958924" lon="109.420983">
        <ele>67.537367</ele>
        <time>2026-08-15T04:11:45.000Z</time>
      </trkpt>
      <trkpt lat="22.958970" lon="109.421015">
        <ele>67.510457</ele>
        <time>2026-08-15T04:11:46.000Z</time>
      </trkpt>
      <trkpt lat="22.959015" lon="109.421049">
        <ele>67.483453</ele>
        <time>2026-08-15T04:11:47.000Z</time>
      </trkpt>
      <trkpt lat="22.959058" lon="109.421085">
        <ele>67.456287</ele>
        <time>2026-08-15T04:11:48.000Z</time>
      </trkpt>
      <trkpt lat="22.959102" lon="109.421119">
        <ele>67.426285</ele>
        <time>2026-08-15T04:11:49.000Z</time>
      </trkpt>
      <trkpt lat="22.959147" lon="109.421153">
        <ele>67.395829</ele>
        <time>2026-08-15T04:11:50.000Z</time>
      </trkpt>
      <trkpt lat="22.959191" lon="109.421190">
        <ele>67.364913</ele>
        <time>2026-08-15T04:11:51.000Z</time>
      </trkpt>
      <trkpt lat="22.959236" lon="109.421228">
        <ele>67.333244</ele>
        <time>2026-08-15T04:11:52.000Z</time>
      </trkpt>
      <trkpt lat="22.959280" lon="109.421267">
        <ele>67.301691</ele>
        <time>2026-08-15T04:11:53.000Z</time>
      </trkpt>
      <trkpt lat="22.959324" lon="109.421304">
        <ele>67.270774</ele>
        <time>2026-08-15T04:11:54.000Z</time>
      </trkpt>
      <trkpt lat="22.959369" lon="109.421341">
        <ele>67.239416</ele>
        <time>2026-08-15T04:11:55.000Z</time>
      </trkpt>
      <trkpt lat="22.959415" lon="109.421378">
        <ele>67.207614</ele>
        <time>2026-08-15T04:11:56.000Z</time>
      </trkpt>
      <trkpt lat="22.959460" lon="109.421414">
        <ele>67.176563</ele>
        <time>2026-08-15T04:11:57.000Z</time>
      </trkpt>
      <trkpt lat="22.959503" lon="109.421453">
        <ele>67.145438</ele>
        <time>2026-08-15T04:11:58.000Z</time>
      </trkpt>
      <trkpt lat="22.959546" lon="109.421492">
        <ele>67.114313</ele>
        <time>2026-08-15T04:11:59.000Z</time>
      </trkpt>
      <trkpt lat="22.959587" lon="109.421533">
        <ele>67.083349</ele>
        <time>2026-08-15T04:12:00.000Z</time>
      </trkpt>
      <trkpt lat="22.959628" lon="109.421574">
        <ele>67.052385</ele>
        <time>2026-08-15T04:12:01.000Z</time>
      </trkpt>
      <trkpt lat="22.959670" lon="109.421612">
        <ele>67.022015</ele>
        <time>2026-08-15T04:12:02.000Z</time>
      </trkpt>
      <trkpt lat="22.959711" lon="109.421651">
        <ele>66.991734</ele>
        <time>2026-08-15T04:12:03.000Z</time>
      </trkpt>
      <trkpt lat="22.959754" lon="109.421687">
        <ele>66.961570</ele>
        <time>2026-08-15T04:12:04.000Z</time>
      </trkpt>
      <trkpt lat="22.959796" lon="109.421725">
        <ele>66.931200</ele>
        <time>2026-08-15T04:12:05.000Z</time>
      </trkpt>
      <trkpt lat="22.959838" lon="109.421762">
        <ele>66.901154</ele>
        <time>2026-08-15T04:12:06.000Z</time>
      </trkpt>
      <trkpt lat="22.959879" lon="109.421800">
        <ele>66.871209</ele>
        <time>2026-08-15T04:12:07.000Z</time>
      </trkpt>
      <trkpt lat="22.959921" lon="109.421838">
        <ele>66.840838</ele>
        <time>2026-08-15T04:12:08.000Z</time>
      </trkpt>
      <trkpt lat="22.959962" lon="109.421876">
        <ele>66.810893</ele>
        <time>2026-08-15T04:12:09.000Z</time>
      </trkpt>
      <trkpt lat="22.960005" lon="109.421913">
        <ele>66.780414</ele>
        <time>2026-08-15T04:12:10.000Z</time>
      </trkpt>
      <trkpt lat="22.960047" lon="109.421950">
        <ele>66.750368</ele>
        <time>2026-08-15T04:12:11.000Z</time>
      </trkpt>
      <trkpt lat="22.960090" lon="109.421985">
        <ele>66.720514</ele>
        <time>2026-08-15T04:12:12.000Z</time>
      </trkpt>
      <trkpt lat="22.960130" lon="109.422021">
        <ele>66.691652</ele>
        <time>2026-08-15T04:12:13.000Z</time>
      </trkpt>
      <trkpt lat="22.960171" lon="109.422057">
        <ele>66.662360</ele>
        <time>2026-08-15T04:12:14.000Z</time>
      </trkpt>
      <trkpt lat="22.960210" lon="109.422097">
        <ele>66.632558</ele>
        <time>2026-08-15T04:12:15.000Z</time>
      </trkpt>
      <trkpt lat="22.960250" lon="109.422138">
        <ele>66.602000</ele>
        <time>2026-08-15T04:12:16.000Z</time>
      </trkpt>
      <trkpt lat="22.960290" lon="109.422178">
        <ele>66.571791</ele>
        <time>2026-08-15T04:12:17.000Z</time>
      </trkpt>
      <trkpt lat="22.960330" lon="109.422217">
        <ele>66.541927</ele>
        <time>2026-08-15T04:12:18.000Z</time>
      </trkpt>
      <trkpt lat="22.960369" lon="109.422260">
        <ele>66.511051</ele>
        <time>2026-08-15T04:12:19.000Z</time>
      </trkpt>
      <trkpt lat="22.960406" lon="109.422305">
        <ele>66.480188</ele>
        <time>2026-08-15T04:12:20.000Z</time>
      </trkpt>
      <trkpt lat="22.960442" lon="109.422351">
        <ele>66.457982</ele>
        <time>2026-08-15T04:12:21.000Z</time>
      </trkpt>
      <trkpt lat="22.960477" lon="109.422399">
        <ele>66.450456</ele>
        <time>2026-08-15T04:12:22.000Z</time>
      </trkpt>
      <trkpt lat="22.960511" lon="109.422450">
        <ele>66.442716</ele>
        <time>2026-08-15T04:12:23.000Z</time>
      </trkpt>
      <trkpt lat="22.960545" lon="109.422500">
        <ele>66.435076</ele>
        <time>2026-08-15T04:12:24.000Z</time>
      </trkpt>
      <trkpt lat="22.960580" lon="109.422546">
        <ele>66.427741</ele>
        <time>2026-08-15T04:12:25.000Z</time>
      </trkpt>
      <trkpt lat="22.960614" lon="109.422592">
        <ele>66.420490</ele>
        <time>2026-08-15T04:12:26.000Z</time>
      </trkpt>
      <trkpt lat="22.960646" lon="109.422642">
        <ele>66.413005</ele>
        <time>2026-08-15T04:12:27.000Z</time>
      </trkpt>
      <trkpt lat="22.960677" lon="109.422692">
        <ele>66.405596</ele>
        <time>2026-08-15T04:12:28.000Z</time>
      </trkpt>
      <trkpt lat="22.960709" lon="109.422744">
        <ele>66.397908</ele>
        <time>2026-08-15T04:12:29.000Z</time>
      </trkpt>
      <trkpt lat="22.960740" lon="109.422799">
        <ele>66.389981</ele>
        <time>2026-08-15T04:12:30.000Z</time>
      </trkpt>
      <trkpt lat="22.960770" lon="109.422853">
        <ele>66.382229</ele>
        <time>2026-08-15T04:12:31.000Z</time>
      </trkpt>
      <trkpt lat="22.960801" lon="109.422906">
        <ele>66.374511</ele>
        <time>2026-08-15T04:12:32.000Z</time>
      </trkpt>
      <trkpt lat="22.960831" lon="109.422959">
        <ele>66.366863</ele>
        <time>2026-08-15T04:12:33.000Z</time>
      </trkpt>
      <trkpt lat="22.960861" lon="109.423009">
        <ele>66.359528</ele>
        <time>2026-08-15T04:12:34.000Z</time>
      </trkpt>
      <trkpt lat="22.960891" lon="109.423061">
        <ele>66.351985</ele>
        <time>2026-08-15T04:12:35.000Z</time>
      </trkpt>
      <trkpt lat="22.960922" lon="109.423114">
        <ele>66.344267</ele>
        <time>2026-08-15T04:12:36.000Z</time>
      </trkpt>
      <trkpt lat="22.960952" lon="109.423165">
        <ele>66.336828</ele>
        <time>2026-08-15T04:12:37.000Z</time>
      </trkpt>
      <trkpt lat="22.960982" lon="109.423215">
        <ele>66.329492</ele>
        <time>2026-08-15T04:12:38.000Z</time>
      </trkpt>
      <trkpt lat="22.961015" lon="109.423266">
        <ele>66.321830</ele>
        <time>2026-08-15T04:12:39.000Z</time>
      </trkpt>
      <trkpt lat="22.961046" lon="109.423318">
        <ele>66.314215</ele>
        <time>2026-08-15T04:12:40.000Z</time>
      </trkpt>
      <trkpt lat="22.961076" lon="109.423369">
        <ele>66.306776</ele>
        <time>2026-08-15T04:12:41.000Z</time>
      </trkpt>
      <trkpt lat="22.961106" lon="109.423421">
        <ele>66.299233</ele>
        <time>2026-08-15T04:12:42.000Z</time>
      </trkpt>
      <trkpt lat="22.961136" lon="109.423473">
        <ele>66.291690</ele>
        <time>2026-08-15T04:12:43.000Z</time>
      </trkpt>
      <trkpt lat="22.961166" lon="109.423525">
        <ele>66.284148</ele>
        <time>2026-08-15T04:12:44.000Z</time>
      </trkpt>
      <trkpt lat="22.961197" lon="109.423577">
        <ele>66.276533</ele>
        <time>2026-08-15T04:12:45.000Z</time>
      </trkpt>
      <trkpt lat="22.961227" lon="109.423630">
        <ele>66.268886</ele>
        <time>2026-08-15T04:12:46.000Z</time>
      </trkpt>
      <trkpt lat="22.961258" lon="109.423682">
        <ele>66.261271</ele>
        <time>2026-08-15T04:12:47.000Z</time>
      </trkpt>
      <trkpt lat="22.961289" lon="109.423733">
        <ele>66.253759</ele>
        <time>2026-08-15T04:12:48.000Z</time>
      </trkpt>
      <trkpt lat="22.961320" lon="109.423784">
        <ele>66.246248</ele>
        <time>2026-08-15T04:12:49.000Z</time>
      </trkpt>
      <trkpt lat="22.961350" lon="109.423835">
        <ele>66.238809</ele>
        <time>2026-08-15T04:12:50.000Z</time>
      </trkpt>
      <trkpt lat="22.961378" lon="109.423887">
        <ele>66.231404</ele>
        <time>2026-08-15T04:12:51.000Z</time>
      </trkpt>
      <trkpt lat="22.961407" lon="109.423939">
        <ele>66.223931</ele>
        <time>2026-08-15T04:12:52.000Z</time>
      </trkpt>
      <trkpt lat="22.961436" lon="109.423989">
        <ele>66.218840</ele>
        <time>2026-08-15T04:12:53.000Z</time>
      </trkpt>
      <trkpt lat="22.961465" lon="109.424040">
        <ele>66.215529</ele>
        <time>2026-08-15T04:12:54.000Z</time>
      </trkpt>
      <trkpt lat="22.961492" lon="109.424091">
        <ele>66.212280</ele>
        <time>2026-08-15T04:12:55.000Z</time>
      </trkpt>
      <trkpt lat="22.961520" lon="109.424141">
        <ele>66.209047</ele>
        <time>2026-08-15T04:12:56.000Z</time>
      </trkpt>
      <trkpt lat="22.961548" lon="109.424188">
        <ele>66.205955</ele>
        <time>2026-08-15T04:12:57.000Z</time>
      </trkpt>
      <trkpt lat="22.961575" lon="109.424232">
        <ele>66.203035</ele>
        <time>2026-08-15T04:12:58.000Z</time>
      </trkpt>
      <trkpt lat="22.961601" lon="109.424277">
        <ele>66.200100</ele>
        <time>2026-08-15T04:12:59.000Z</time>
      </trkpt>
      <trkpt lat="22.961627" lon="109.424321">
        <ele>66.197213</ele>
        <time>2026-08-15T04:13:00.000Z</time>
      </trkpt>
      <trkpt lat="22.961655" lon="109.424364">
        <ele>66.194304</ele>
        <time>2026-08-15T04:13:01.000Z</time>
      </trkpt>
      <trkpt lat="22.961683" lon="109.424407">
        <ele>66.191395</ele>
        <time>2026-08-15T04:13:02.000Z</time>
      </trkpt>
      <trkpt lat="22.961710" lon="109.424448">
        <ele>66.188610</ele>
        <time>2026-08-15T04:13:03.000Z</time>
      </trkpt>
      <trkpt lat="22.961734" lon="109.424490">
        <ele>66.185880</ele>
        <time>2026-08-15T04:13:04.000Z</time>
      </trkpt>
      <trkpt lat="22.961756" lon="109.424532">
        <ele>66.183211</ele>
        <time>2026-08-15T04:13:05.000Z</time>
      </trkpt>
      <trkpt lat="22.961780" lon="109.424574">
        <ele>66.180481</ele>
        <time>2026-08-15T04:13:06.000Z</time>
      </trkpt>
      <trkpt lat="22.961804" lon="109.424614">
        <ele>66.177844</ele>
        <time>2026-08-15T04:13:07.000Z</time>
      </trkpt>
      <trkpt lat="22.961828" lon="109.424655">
        <ele>66.175160</ele>
        <time>2026-08-15T04:13:08.000Z</time>
      </trkpt>
      <trkpt lat="22.961853" lon="109.424696">
        <ele>66.172444</ele>
        <time>2026-08-15T04:13:09.000Z</time>
      </trkpt>
      <trkpt lat="22.961878" lon="109.424735">
        <ele>66.169819</ele>
        <time>2026-08-15T04:13:10.000Z</time>
      </trkpt>
      <trkpt lat="22.961903" lon="109.424775">
        <ele>66.167149</ele>
        <time>2026-08-15T04:13:11.000Z</time>
      </trkpt>
      <trkpt lat="22.961927" lon="109.424816">
        <ele>66.164465</ele>
        <time>2026-08-15T04:13:12.000Z</time>
      </trkpt>
      <trkpt lat="22.961951" lon="109.424858">
        <ele>66.161735</ele>
        <time>2026-08-15T04:13:13.000Z</time>
      </trkpt>
      <trkpt lat="22.961974" lon="109.424900">
        <ele>66.159036</ele>
        <time>2026-08-15T04:13:14.000Z</time>
      </trkpt>
      <trkpt lat="22.961997" lon="109.424942">
        <ele>66.156337</ele>
        <time>2026-08-15T04:13:15.000Z</time>
      </trkpt>
      <trkpt lat="22.962021" lon="109.424981">
        <ele>66.153746</ele>
        <time>2026-08-15T04:13:16.000Z</time>
      </trkpt>
      <trkpt lat="22.962043" lon="109.425021">
        <ele>66.151172</ele>
        <time>2026-08-15T04:13:17.000Z</time>
      </trkpt>
      <trkpt lat="22.962068" lon="109.425061">
        <ele>66.148502</ele>
        <time>2026-08-15T04:13:18.000Z</time>
      </trkpt>
      <trkpt lat="22.962092" lon="109.425100">
        <ele>66.145911</ele>
        <time>2026-08-15T04:13:19.000Z</time>
      </trkpt>
      <trkpt lat="22.962117" lon="109.425139">
        <ele>66.143286</ele>
        <time>2026-08-15T04:13:20.000Z</time>
      </trkpt>
      <trkpt lat="22.962140" lon="109.425180">
        <ele>66.140635</ele>
        <time>2026-08-15T04:13:21.000Z</time>
      </trkpt>
      <trkpt lat="22.962163" lon="109.425220">
        <ele>66.138030</ele>
        <time>2026-08-15T04:13:22.000Z</time>
      </trkpt>
      <trkpt lat="22.962187" lon="109.425260">
        <ele>66.135393</ele>
        <time>2026-08-15T04:13:23.000Z</time>
      </trkpt>
      <trkpt lat="22.962213" lon="109.425299">
        <ele>66.132733</ele>
        <time>2026-08-15T04:13:24.000Z</time>
      </trkpt>
      <trkpt lat="22.962240" lon="109.425340">
        <ele>66.129949</ele>
        <time>2026-08-15T04:13:25.000Z</time>
      </trkpt>
      <trkpt lat="22.962268" lon="109.425381">
        <ele>66.127130</ele>
        <time>2026-08-15T04:13:26.000Z</time>
      </trkpt>
      <trkpt lat="22.962295" lon="109.425420">
        <ele>66.124434</ele>
        <time>2026-08-15T04:13:27.000Z</time>
      </trkpt>
      <trkpt lat="22.962323" lon="109.425460">
        <ele>66.121659</ele>
        <time>2026-08-15T04:13:28.000Z</time>
      </trkpt>
      <trkpt lat="22.962351" lon="109.425501">
        <ele>66.118840</ele>
        <time>2026-08-15T04:13:29.000Z</time>
      </trkpt>
      <trkpt lat="22.962378" lon="109.425541">
        <ele>66.116100</ele>
        <time>2026-08-15T04:13:30.000Z</time>
      </trkpt>
      <trkpt lat="22.962402" lon="109.425581">
        <ele>66.113463</ele>
        <time>2026-08-15T04:13:31.000Z</time>
      </trkpt>
      <trkpt lat="22.962427" lon="109.425620">
        <ele>66.083216</ele>
        <time>2026-08-15T04:13:32.000Z</time>
      </trkpt>
      <trkpt lat="22.962451" lon="109.425659">
        <ele>66.042516</ele>
        <time>2026-08-15T04:13:33.000Z</time>
      </trkpt>
      <trkpt lat="22.962482" lon="109.425706">
        <ele>65.992354</ele>
        <time>2026-08-15T04:13:34.000Z</time>
      </trkpt>
      <trkpt lat="22.962511" lon="109.425753">
        <ele>65.943265</ele>
        <time>2026-08-15T04:13:35.000Z</time>
      </trkpt>
      <trkpt lat="22.962544" lon="109.425802">
        <ele>65.890592</ele>
        <time>2026-08-15T04:13:36.000Z</time>
      </trkpt>
      <trkpt lat="22.962577" lon="109.425851">
        <ele>65.837918</ele>
        <time>2026-08-15T04:13:37.000Z</time>
      </trkpt>
      <trkpt lat="22.962613" lon="109.425901">
        <ele>65.782848</ele>
        <time>2026-08-15T04:13:38.000Z</time>
      </trkpt>
      <trkpt lat="22.962649" lon="109.425950">
        <ele>65.728458</ele>
        <time>2026-08-15T04:13:39.000Z</time>
      </trkpt>
      <trkpt lat="22.962684" lon="109.425997">
        <ele>65.676011</ele>
        <time>2026-08-15T04:13:40.000Z</time>
      </trkpt>
      <trkpt lat="22.962719" lon="109.426045">
        <ele>65.622886</ele>
        <time>2026-08-15T04:13:41.000Z</time>
      </trkpt>
      <trkpt lat="22.962757" lon="109.426097">
        <ele>65.565286</ele>
        <time>2026-08-15T04:13:42.000Z</time>
      </trkpt>
      <trkpt lat="22.962795" lon="109.426148">
        <ele>65.508363</ele>
        <time>2026-08-15T04:13:43.000Z</time>
      </trkpt>
      <trkpt lat="22.962832" lon="109.426200">
        <ele>65.451344</ele>
        <time>2026-08-15T04:13:44.000Z</time>
      </trkpt>
      <trkpt lat="22.962872" lon="109.426254">
        <ele>65.391211</ele>
        <time>2026-08-15T04:13:45.000Z</time>
      </trkpt>
      <trkpt lat="22.962910" lon="109.426305">
        <ele>65.334288</ele>
        <time>2026-08-15T04:13:46.000Z</time>
      </trkpt>
      <trkpt lat="22.962947" lon="109.426355">
        <ele>65.278632</ele>
        <time>2026-08-15T04:13:47.000Z</time>
      </trkpt>
      <trkpt lat="22.962987" lon="109.426405">
        <ele>65.221162</ele>
        <time>2026-08-15T04:13:48.000Z</time>
      </trkpt>
      <trkpt lat="22.963027" lon="109.426455">
        <ele>65.163693</ele>
        <time>2026-08-15T04:13:49.000Z</time>
      </trkpt>
      <trkpt lat="22.963064" lon="109.426505">
        <ele>65.108037</ele>
        <time>2026-08-15T04:13:50.000Z</time>
      </trkpt>
      <trkpt lat="22.963102" lon="109.426555">
        <ele>65.051786</ele>
        <time>2026-08-15T04:13:51.000Z</time>
      </trkpt>
      <trkpt lat="22.963140" lon="109.426606">
        <ele>64.994863</ele>
        <time>2026-08-15T04:13:52.000Z</time>
      </trkpt>
      <trkpt lat="22.963177" lon="109.426655">
        <ele>64.939880</ele>
        <time>2026-08-15T04:13:53.000Z</time>
      </trkpt>
      <trkpt lat="22.963214" lon="109.426704">
        <ele>64.884898</ele>
        <time>2026-08-15T04:13:54.000Z</time>
      </trkpt>
      <trkpt lat="22.963250" lon="109.426752">
        <ele>64.831183</ele>
        <time>2026-08-15T04:13:55.000Z</time>
      </trkpt>
      <trkpt lat="22.963286" lon="109.426799">
        <ele>64.778139</ele>
        <time>2026-08-15T04:13:56.000Z</time>
      </trkpt>
      <trkpt lat="22.963320" lon="109.426847">
        <ele>64.725594</ele>
        <time>2026-08-15T04:13:57.000Z</time>
      </trkpt>
      <trkpt lat="22.963356" lon="109.426895">
        <ele>64.671880</ele>
        <time>2026-08-15T04:13:58.000Z</time>
      </trkpt>
      <trkpt lat="22.963391" lon="109.426943">
        <ele>64.618756</ele>
        <time>2026-08-15T04:13:59.000Z</time>
      </trkpt>
      <trkpt lat="22.963426" lon="109.426989">
        <ele>64.566980</ele>
        <time>2026-08-15T04:14:00.000Z</time>
      </trkpt>
      <trkpt lat="22.963461" lon="109.427035">
        <ele>64.515205</ele>
        <time>2026-08-15T04:14:01.000Z</time>
      </trkpt>
      <trkpt lat="22.963495" lon="109.427081">
        <ele>64.464025</ele>
        <time>2026-08-15T04:14:02.000Z</time>
      </trkpt>
      <trkpt lat="22.963527" lon="109.427127">
        <ele>64.415970</ele>
        <time>2026-08-15T04:14:03.000Z</time>
      </trkpt>
      <trkpt lat="22.963560" lon="109.427173">
        <ele>64.391360</ele>
        <time>2026-08-15T04:14:04.000Z</time>
      </trkpt>
      <trkpt lat="22.963593" lon="109.427217">
        <ele>64.367410</ele>
        <time>2026-08-15T04:14:05.000Z</time>
      </trkpt>
      <trkpt lat="22.963627" lon="109.427261">
        <ele>64.343168</ele>
        <time>2026-08-15T04:14:06.000Z</time>
      </trkpt>
      <trkpt lat="22.963660" lon="109.427304">
        <ele>64.319543</ele>
        <time>2026-08-15T04:14:07.000Z</time>
      </trkpt>
      <trkpt lat="22.963692" lon="109.427347">
        <ele>64.296210</ele>
        <time>2026-08-15T04:14:08.000Z</time>
      </trkpt>
      <trkpt lat="22.963725" lon="109.427391">
        <ele>64.272260</ele>
        <time>2026-08-15T04:14:09.000Z</time>
      </trkpt>
      <trkpt lat="22.963757" lon="109.427435">
        <ele>64.248597</ele>
        <time>2026-08-15T04:14:10.000Z</time>
      </trkpt>
      <trkpt lat="22.963790" lon="109.427478">
        <ele>64.224973</ele>
        <time>2026-08-15T04:14:11.000Z</time>
      </trkpt>
      <trkpt lat="22.963823" lon="109.427520">
        <ele>64.201671</ele>
        <time>2026-08-15T04:14:12.000Z</time>
      </trkpt>
      <trkpt lat="22.963856" lon="109.427562">
        <ele>64.178369</ele>
        <time>2026-08-15T04:14:13.000Z</time>
      </trkpt>
      <trkpt lat="22.963888" lon="109.427606">
        <ele>64.154706</ele>
        <time>2026-08-15T04:14:14.000Z</time>
      </trkpt>
      <trkpt lat="22.963920" lon="109.427650">
        <ele>64.131043</ele>
        <time>2026-08-15T04:14:15.000Z</time>
      </trkpt>
      <trkpt lat="22.963952" lon="109.427694">
        <ele>64.107380</ele>
        <time>2026-08-15T04:14:16.000Z</time>
      </trkpt>
      <trkpt lat="22.963984" lon="109.427738">
        <ele>64.083717</ele>
        <time>2026-08-15T04:14:17.000Z</time>
      </trkpt>
      <trkpt lat="22.964016" lon="109.427781">
        <ele>64.060383</ele>
        <time>2026-08-15T04:14:18.000Z</time>
      </trkpt>
      <trkpt lat="22.964048" lon="109.427823">
        <ele>64.037377</ele>
        <time>2026-08-15T04:14:19.000Z</time>
      </trkpt>
      <trkpt lat="22.964079" lon="109.427865">
        <ele>64.014660</ele>
        <time>2026-08-15T04:14:20.000Z</time>
      </trkpt>
      <trkpt lat="22.964111" lon="109.427909">
        <ele>63.990996</ele>
        <time>2026-08-15T04:14:21.000Z</time>
      </trkpt>
      <trkpt lat="22.964143" lon="109.427951">
        <ele>63.967990</ele>
        <time>2026-08-15T04:14:22.000Z</time>
      </trkpt>
      <trkpt lat="22.964176" lon="109.427994">
        <ele>63.944366</ele>
        <time>2026-08-15T04:14:23.000Z</time>
      </trkpt>
      <trkpt lat="22.964209" lon="109.428034">
        <ele>63.921699</ele>
        <time>2026-08-15T04:14:24.000Z</time>
      </trkpt>
      <trkpt lat="22.964242" lon="109.428075">
        <ele>63.898717</ele>
        <time>2026-08-15T04:14:25.000Z</time>
      </trkpt>
      <trkpt lat="22.964277" lon="109.428120">
        <ele>63.873857</ele>
        <time>2026-08-15T04:14:26.000Z</time>
      </trkpt>
      <trkpt lat="22.964309" lon="109.428166">
        <ele>63.849526</ele>
        <time>2026-08-15T04:14:27.000Z</time>
      </trkpt>
      <trkpt lat="22.964342" lon="109.428212">
        <ele>63.824916</ele>
        <time>2026-08-15T04:14:28.000Z</time>
      </trkpt>
      <trkpt lat="22.964374" lon="109.428258">
        <ele>63.800585</ele>
        <time>2026-08-15T04:14:29.000Z</time>
      </trkpt>
      <trkpt lat="22.964407" lon="109.428303">
        <ele>63.776307</ele>
        <time>2026-08-15T04:14:30.000Z</time>
      </trkpt>
      <trkpt lat="22.964438" lon="109.428346">
        <ele>63.753259</ele>
        <time>2026-08-15T04:14:31.000Z</time>
      </trkpt>
      <trkpt lat="22.964469" lon="109.428389">
        <ele>63.730211</ele>
        <time>2026-08-15T04:14:32.000Z</time>
      </trkpt>
      <trkpt lat="22.964501" lon="109.428433">
        <ele>63.706547</ele>
        <time>2026-08-15T04:14:33.000Z</time>
      </trkpt>
      <trkpt lat="22.964533" lon="109.428479">
        <ele>63.682216</ele>
        <time>2026-08-15T04:14:34.000Z</time>
      </trkpt>
      <trkpt lat="22.964566" lon="109.428523">
        <ele>63.658267</ele>
        <time>2026-08-15T04:14:35.000Z</time>
      </trkpt>
      <trkpt lat="22.964597" lon="109.428567">
        <ele>63.634885</ele>
        <time>2026-08-15T04:14:36.000Z</time>
      </trkpt>
      <trkpt lat="22.964631" lon="109.428613">
        <ele>63.609991</ele>
        <time>2026-08-15T04:14:37.000Z</time>
      </trkpt>
      <trkpt lat="22.964664" lon="109.428659">
        <ele>63.587577</ele>
        <time>2026-08-15T04:14:38.000Z</time>
      </trkpt>
      <trkpt lat="22.964697" lon="109.428703">
        <ele>63.570169</ele>
        <time>2026-08-15T04:14:39.000Z</time>
      </trkpt>
      <trkpt lat="22.964730" lon="109.428746">
        <ele>63.552999</ele>
        <time>2026-08-15T04:14:40.000Z</time>
      </trkpt>
      <trkpt lat="22.964763" lon="109.428790">
        <ele>63.535591</ele>
        <time>2026-08-15T04:14:41.000Z</time>
      </trkpt>
      <trkpt lat="22.964797" lon="109.428836">
        <ele>63.517497</ele>
        <time>2026-08-15T04:14:42.000Z</time>
      </trkpt>
      <trkpt lat="22.964830" lon="109.428881">
        <ele>63.499850</ele>
        <time>2026-08-15T04:14:43.000Z</time>
      </trkpt>
      <trkpt lat="22.964863" lon="109.428926">
        <ele>63.482204</ele>
        <time>2026-08-15T04:14:44.000Z</time>
      </trkpt>
      <trkpt lat="22.964895" lon="109.428970">
        <ele>63.465005</ele>
        <time>2026-08-15T04:14:45.000Z</time>
      </trkpt>
      <trkpt lat="22.964929" lon="109.429014">
        <ele>63.447385</ele>
        <time>2026-08-15T04:14:46.000Z</time>
      </trkpt>
      <trkpt lat="22.964963" lon="109.429058">
        <ele>63.429765</ele>
        <time>2026-08-15T04:14:47.000Z</time>
      </trkpt>
      <trkpt lat="22.964996" lon="109.429104">
        <ele>63.411878</ele>
        <time>2026-08-15T04:14:48.000Z</time>
      </trkpt>
      <trkpt lat="22.965030" lon="109.429149">
        <ele>63.394022</ele>
        <time>2026-08-15T04:14:49.000Z</time>
      </trkpt>
      <trkpt lat="22.965065" lon="109.429195">
        <ele>63.375717</ele>
        <time>2026-08-15T04:14:50.000Z</time>
      </trkpt>
      <trkpt lat="22.965101" lon="109.429242">
        <ele>63.356964</ele>
        <time>2026-08-15T04:14:51.000Z</time>
      </trkpt>
      <trkpt lat="22.965138" lon="109.429290">
        <ele>63.337762</ele>
        <time>2026-08-15T04:14:52.000Z</time>
      </trkpt>
      <trkpt lat="22.965173" lon="109.429338">
        <ele>63.318980</ele>
        <time>2026-08-15T04:14:53.000Z</time>
      </trkpt>
      <trkpt lat="22.965210" lon="109.429387">
        <ele>63.299542</ele>
        <time>2026-08-15T04:14:54.000Z</time>
      </trkpt>
      <trkpt lat="22.965247" lon="109.429435">
        <ele>63.280340</ele>
        <time>2026-08-15T04:14:55.000Z</time>
      </trkpt>
      <trkpt lat="22.965283" lon="109.429484">
        <ele>63.261111</ele>
        <time>2026-08-15T04:14:56.000Z</time>
      </trkpt>
      <trkpt lat="22.965318" lon="109.429532">
        <ele>63.242330</ele>
        <time>2026-08-15T04:14:57.000Z</time>
      </trkpt>
      <trkpt lat="22.965353" lon="109.429581">
        <ele>63.223307</ele>
        <time>2026-08-15T04:14:58.000Z</time>
      </trkpt>
      <trkpt lat="22.965388" lon="109.429629">
        <ele>63.204525</ele>
        <time>2026-08-15T04:14:59.000Z</time>
      </trkpt>
      <trkpt lat="22.965425" lon="109.429676">
        <ele>63.185557</ele>
        <time>2026-08-15T04:15:00.000Z</time>
      </trkpt>
      <trkpt lat="22.965461" lon="109.429725">
        <ele>63.166329</ele>
        <time>2026-08-15T04:15:01.000Z</time>
      </trkpt>
      <trkpt lat="22.965497" lon="109.429774">
        <ele>63.147100</ele>
        <time>2026-08-15T04:15:02.000Z</time>
      </trkpt>
      <trkpt lat="22.965533" lon="109.429823">
        <ele>63.127871</ele>
        <time>2026-08-15T04:15:03.000Z</time>
      </trkpt>
      <trkpt lat="22.965569" lon="109.429872">
        <ele>63.108642</ele>
        <time>2026-08-15T04:15:04.000Z</time>
      </trkpt>
      <trkpt lat="22.965605" lon="109.429920">
        <ele>63.089652</ele>
        <time>2026-08-15T04:15:05.000Z</time>
      </trkpt>
      <trkpt lat="22.965641" lon="109.429968">
        <ele>63.070662</ele>
        <time>2026-08-15T04:15:06.000Z</time>
      </trkpt>
      <trkpt lat="22.965677" lon="109.430016">
        <ele>63.051672</ele>
        <time>2026-08-15T04:15:07.000Z</time>
      </trkpt>
      <trkpt lat="22.965713" lon="109.430063">
        <ele>63.032919</ele>
        <time>2026-08-15T04:15:08.000Z</time>
      </trkpt>
      <trkpt lat="22.965748" lon="109.430110">
        <ele>63.014377</ele>
        <time>2026-08-15T04:15:09.000Z</time>
      </trkpt>
      <trkpt lat="22.965783" lon="109.430158">
        <ele>62.995596</ele>
        <time>2026-08-15T04:15:10.000Z</time>
      </trkpt>
      <trkpt lat="22.965818" lon="109.430207">
        <ele>63.011037</ele>
        <time>2026-08-15T04:15:11.000Z</time>
      </trkpt>
      <trkpt lat="22.965854" lon="109.430257">
        <ele>63.029610</ele>
        <time>2026-08-15T04:15:12.000Z</time>
      </trkpt>
      <trkpt lat="22.965891" lon="109.430305">
        <ele>63.047928</ele>
        <time>2026-08-15T04:15:13.000Z</time>
      </trkpt>
      <trkpt lat="22.965927" lon="109.430352">
        <ele>63.065817</ele>
        <time>2026-08-15T04:15:14.000Z</time>
      </trkpt>
      <trkpt lat="22.965964" lon="109.430400">
        <ele>63.084135</ele>
        <time>2026-08-15T04:15:15.000Z</time>
      </trkpt>
      <trkpt lat="22.966000" lon="109.430449">
        <ele>63.102479</ele>
        <time>2026-08-15T04:15:16.000Z</time>
      </trkpt>
      <trkpt lat="22.966037" lon="109.430498">
        <ele>63.121022</ele>
        <time>2026-08-15T04:15:17.000Z</time>
      </trkpt>
      <trkpt lat="22.966073" lon="109.430547">
        <ele>63.139365</ele>
        <time>2026-08-15T04:15:18.000Z</time>
      </trkpt>
      <trkpt lat="22.966109" lon="109.430595">
        <ele>63.157481</ele>
        <time>2026-08-15T04:15:19.000Z</time>
      </trkpt>
      <trkpt lat="22.966144" lon="109.430644">
        <ele>63.175628</ele>
        <time>2026-08-15T04:15:20.000Z</time>
      </trkpt>
      <trkpt lat="22.966179" lon="109.430692">
        <ele>63.193544</ele>
        <time>2026-08-15T04:15:21.000Z</time>
      </trkpt>
      <trkpt lat="22.966214" lon="109.430741">
        <ele>63.211691</ele>
        <time>2026-08-15T04:15:22.000Z</time>
      </trkpt>
      <trkpt lat="22.966250" lon="109.430791">
        <ele>63.230264</ele>
        <time>2026-08-15T04:15:23.000Z</time>
      </trkpt>
      <trkpt lat="22.966287" lon="109.430841">
        <ele>63.249035</ele>
        <time>2026-08-15T04:15:24.000Z</time>
      </trkpt>
      <trkpt lat="22.966324" lon="109.430891">
        <ele>63.267805</ele>
        <time>2026-08-15T04:15:25.000Z</time>
      </trkpt>
      <trkpt lat="22.966361" lon="109.430942">
        <ele>63.286805</ele>
        <time>2026-08-15T04:15:26.000Z</time>
      </trkpt>
      <trkpt lat="22.966398" lon="109.430991">
        <ele>63.305348</ele>
        <time>2026-08-15T04:15:27.000Z</time>
      </trkpt>
      <trkpt lat="22.966435" lon="109.431039">
        <ele>63.323666</ele>
        <time>2026-08-15T04:15:28.000Z</time>
      </trkpt>
      <trkpt lat="22.966470" lon="109.431086">
        <ele>63.341354</ele>
        <time>2026-08-15T04:15:29.000Z</time>
      </trkpt>
      <trkpt lat="22.966506" lon="109.431133">
        <ele>63.359243</ele>
        <time>2026-08-15T04:15:30.000Z</time>
      </trkpt>
      <trkpt lat="22.966540" lon="109.431179">
        <ele>63.376504</ele>
        <time>2026-08-15T04:15:31.000Z</time>
      </trkpt>
      <trkpt lat="22.966575" lon="109.431226">
        <ele>63.394192</ele>
        <time>2026-08-15T04:15:32.000Z</time>
      </trkpt>
      <trkpt lat="22.966609" lon="109.431272">
        <ele>63.411453</ele>
        <time>2026-08-15T04:15:33.000Z</time>
      </trkpt>
      <trkpt lat="22.966645" lon="109.431319">
        <ele>63.429343</ele>
        <time>2026-08-15T04:15:34.000Z</time>
      </trkpt>
      <trkpt lat="22.966679" lon="109.431367">
        <ele>63.447064</ele>
        <time>2026-08-15T04:15:35.000Z</time>
      </trkpt>
      <trkpt lat="22.966713" lon="109.431415">
        <ele>63.464785</ele>
        <time>2026-08-15T04:15:36.000Z</time>
      </trkpt>
      <trkpt lat="22.966747" lon="109.431463">
        <ele>63.482506</ele>
        <time>2026-08-15T04:15:37.000Z</time>
      </trkpt>
      <trkpt lat="22.966781" lon="109.431510">
        <ele>63.499996</ele>
        <time>2026-08-15T04:15:38.000Z</time>
      </trkpt>
      <trkpt lat="22.966817" lon="109.431557">
        <ele>63.517885</ele>
        <time>2026-08-15T04:15:39.000Z</time>
      </trkpt>
      <trkpt lat="22.966854" lon="109.431603">
        <ele>63.535758</ele>
        <time>2026-08-15T04:15:40.000Z</time>
      </trkpt>
      <trkpt lat="22.966891" lon="109.431649">
        <ele>63.553631</ele>
        <time>2026-08-15T04:15:41.000Z</time>
      </trkpt>
      <trkpt lat="22.966928" lon="109.431694">
        <ele>63.573456</ele>
        <time>2026-08-15T04:15:42.000Z</time>
      </trkpt>
      <trkpt lat="22.966965" lon="109.431739">
        <ele>63.598135</ele>
        <time>2026-08-15T04:15:43.000Z</time>
      </trkpt>
      <trkpt lat="22.967004" lon="109.431783">
        <ele>63.623119</ele>
        <time>2026-08-15T04:15:44.000Z</time>
      </trkpt>
      <trkpt lat="22.967044" lon="109.431826">
        <ele>63.648123</ele>
        <time>2026-08-15T04:15:45.000Z</time>
      </trkpt>
      <trkpt lat="22.967085" lon="109.431869">
        <ele>63.673445</ele>
        <time>2026-08-15T04:15:46.000Z</time>
      </trkpt>
      <trkpt lat="22.967127" lon="109.431909">
        <ele>63.698263</ele>
        <time>2026-08-15T04:15:47.000Z</time>
      </trkpt>
      <trkpt lat="22.967172" lon="109.431948">
        <ele>63.723841</ele>
        <time>2026-08-15T04:15:48.000Z</time>
      </trkpt>
      <trkpt lat="22.967218" lon="109.431985">
        <ele>63.749272</ele>
        <time>2026-08-15T04:15:49.000Z</time>
      </trkpt>
      <trkpt lat="22.967263" lon="109.432020">
        <ele>63.773862</ele>
        <time>2026-08-15T04:15:50.000Z</time>
      </trkpt>
      <trkpt lat="22.967309" lon="109.432053">
        <ele>63.798355</ele>
        <time>2026-08-15T04:15:51.000Z</time>
      </trkpt>
      <trkpt lat="22.967355" lon="109.432086">
        <ele>63.822848</ele>
        <time>2026-08-15T04:15:52.000Z</time>
      </trkpt>
      <trkpt lat="22.967400" lon="109.432119">
        <ele>63.846971</ele>
        <time>2026-08-15T04:15:53.000Z</time>
      </trkpt>
      <trkpt lat="22.967445" lon="109.432152">
        <ele>63.871094</ele>
        <time>2026-08-15T04:15:54.000Z</time>
      </trkpt>
      <trkpt lat="22.967489" lon="109.432184">
        <ele>63.894621</ele>
        <time>2026-08-15T04:15:55.000Z</time>
      </trkpt>
      <trkpt lat="22.967534" lon="109.432216">
        <ele>63.918517</ele>
        <time>2026-08-15T04:15:56.000Z</time>
      </trkpt>
      <trkpt lat="22.967578" lon="109.432247">
        <ele>63.941818</ele>
        <time>2026-08-15T04:15:57.000Z</time>
      </trkpt>
      <trkpt lat="22.967623" lon="109.432278">
        <ele>63.965494</ele>
        <time>2026-08-15T04:15:58.000Z</time>
      </trkpt>
      <trkpt lat="22.967667" lon="109.432310">
        <ele>63.989020</ele>
        <time>2026-08-15T04:15:59.000Z</time>
      </trkpt>
      <trkpt lat="22.967710" lon="109.432340">
        <ele>64.011726</ele>
        <time>2026-08-15T04:16:00.000Z</time>
      </trkpt>
      <trkpt lat="22.967753" lon="109.432369">
        <ele>64.034214</ele>
        <time>2026-08-15T04:16:01.000Z</time>
      </trkpt>
      <trkpt lat="22.967795" lon="109.432397">
        <ele>64.056108</ele>
        <time>2026-08-15T04:16:02.000Z</time>
      </trkpt>
      <trkpt lat="22.967836" lon="109.432424">
        <ele>64.077411</ele>
        <time>2026-08-15T04:16:03.000Z</time>
      </trkpt>
      <trkpt lat="22.967878" lon="109.432451">
        <ele>64.099094</ele>
        <time>2026-08-15T04:16:04.000Z</time>
      </trkpt>
      <trkpt lat="22.967919" lon="109.432478">
        <ele>64.120396</ele>
        <time>2026-08-15T04:16:05.000Z</time>
      </trkpt>
      <trkpt lat="22.967960" lon="109.432505">
        <ele>64.141699</ele>
        <time>2026-08-15T04:16:06.000Z</time>
      </trkpt>
      <trkpt lat="22.968000" lon="109.432533">
        <ele>64.162841</ele>
        <time>2026-08-15T04:16:07.000Z</time>
      </trkpt>
      <trkpt lat="22.968041" lon="109.432561">
        <ele>64.184359</ele>
        <time>2026-08-15T04:16:08.000Z</time>
      </trkpt>
      <trkpt lat="22.968081" lon="109.432588">
        <ele>64.205282</ele>
        <time>2026-08-15T04:16:09.000Z</time>
      </trkpt>
      <trkpt lat="22.968122" lon="109.432615">
        <ele>64.226585</ele>
        <time>2026-08-15T04:16:10.000Z</time>
      </trkpt>
      <trkpt lat="22.968163" lon="109.432643">
        <ele>64.248102</ele>
        <time>2026-08-15T04:16:11.000Z</time>
      </trkpt>
      <trkpt lat="22.968204" lon="109.432671">
        <ele>64.269619</ele>
        <time>2026-08-15T04:16:12.000Z</time>
      </trkpt>
      <trkpt lat="22.968245" lon="109.432698">
        <ele>64.290921</ele>
        <time>2026-08-15T04:16:13.000Z</time>
      </trkpt>
      <trkpt lat="22.968287" lon="109.432725">
        <ele>64.312605</ele>
        <time>2026-08-15T04:16:14.000Z</time>
      </trkpt>
      <trkpt lat="22.968327" lon="109.432751">
        <ele>64.333316</ele>
        <time>2026-08-15T04:16:15.000Z</time>
      </trkpt>
      <trkpt lat="22.968369" lon="109.432779">
        <ele>64.355210</ele>
        <time>2026-08-15T04:16:16.000Z</time>
      </trkpt>
      <trkpt lat="22.968411" lon="109.432806">
        <ele>64.368040</ele>
        <time>2026-08-15T04:16:17.000Z</time>
      </trkpt>
      <trkpt lat="22.968454" lon="109.432833">
        <ele>64.373770</ele>
        <time>2026-08-15T04:16:18.000Z</time>
      </trkpt>
      <trkpt lat="22.968497" lon="109.432859">
        <ele>64.379447</ele>
        <time>2026-08-15T04:16:19.000Z</time>
      </trkpt>
      <trkpt lat="22.968541" lon="109.432885">
        <ele>64.385226</ele>
        <time>2026-08-15T04:16:20.000Z</time>
      </trkpt>
      <trkpt lat="22.968586" lon="109.432910">
        <ele>64.391056</ele>
        <time>2026-08-15T04:16:21.000Z</time>
      </trkpt>
      <trkpt lat="22.968632" lon="109.432934">
        <ele>64.396944</ele>
        <time>2026-08-15T04:16:22.000Z</time>
      </trkpt>
      <trkpt lat="22.968675" lon="109.432959">
        <ele>64.402570</ele>
        <time>2026-08-15T04:16:23.000Z</time>
      </trkpt>
      <trkpt lat="22.968718" lon="109.432986">
        <ele>64.408300</ele>
        <time>2026-08-15T04:16:24.000Z</time>
      </trkpt>
      <trkpt lat="22.968761" lon="109.433012">
        <ele>64.413977</ele>
        <time>2026-08-15T04:16:25.000Z</time>
      </trkpt>
      <trkpt lat="22.968805" lon="109.433039">
        <ele>64.419807</ele>
        <time>2026-08-15T04:16:26.000Z</time>
      </trkpt>
      <trkpt lat="22.968849" lon="109.433064">
        <ele>64.425536</ele>
        <time>2026-08-15T04:16:27.000Z</time>
      </trkpt>
      <trkpt lat="22.968892" lon="109.433091">
        <ele>64.431265</ele>
        <time>2026-08-15T04:16:28.000Z</time>
      </trkpt>
      <trkpt lat="22.968936" lon="109.433117">
        <ele>64.437044</ele>
        <time>2026-08-15T04:16:29.000Z</time>
      </trkpt>
      <trkpt lat="22.968981" lon="109.433143">
        <ele>64.442924</ele>
        <time>2026-08-15T04:16:30.000Z</time>
      </trkpt>
      <trkpt lat="22.969025" lon="109.433169">
        <ele>64.448702</ele>
        <time>2026-08-15T04:16:31.000Z</time>
      </trkpt>
      <trkpt lat="22.969071" lon="109.433196">
        <ele>64.454734</ele>
        <time>2026-08-15T04:16:32.000Z</time>
      </trkpt>
      <trkpt lat="22.969115" lon="109.433222">
        <ele>64.460513</ele>
        <time>2026-08-15T04:16:33.000Z</time>
      </trkpt>
      <trkpt lat="22.969160" lon="109.433250">
        <ele>64.466495</ele>
        <time>2026-08-15T04:16:34.000Z</time>
      </trkpt>
      <trkpt lat="22.969206" lon="109.433277">
        <ele>64.472527</ele>
        <time>2026-08-15T04:16:35.000Z</time>
      </trkpt>
      <trkpt lat="22.969251" lon="109.433303">
        <ele>64.478407</ele>
        <time>2026-08-15T04:16:36.000Z</time>
      </trkpt>
      <trkpt lat="22.969297" lon="109.433328">
        <ele>64.484341</ele>
        <time>2026-08-15T04:16:37.000Z</time>
      </trkpt>
      <trkpt lat="22.969344" lon="109.433352">
        <ele>64.490332</ele>
        <time>2026-08-15T04:16:38.000Z</time>
      </trkpt>
      <trkpt lat="22.969391" lon="109.433376">
        <ele>64.496324</ele>
        <time>2026-08-15T04:16:39.000Z</time>
      </trkpt>
      <trkpt lat="22.969438" lon="109.433399">
        <ele>64.502270</ele>
        <time>2026-08-15T04:16:40.000Z</time>
      </trkpt>
      <trkpt lat="22.969485" lon="109.433421">
        <ele>64.508175</ele>
        <time>2026-08-15T04:16:41.000Z</time>
      </trkpt>
      <trkpt lat="22.969533" lon="109.433443">
        <ele>64.514185</ele>
        <time>2026-08-15T04:16:42.000Z</time>
      </trkpt>
      <trkpt lat="22.969580" lon="109.433465">
        <ele>64.520089</ele>
        <time>2026-08-15T04:16:43.000Z</time>
      </trkpt>
      <trkpt lat="22.969627" lon="109.433486">
        <ele>64.525951</ele>
        <time>2026-08-15T04:16:44.000Z</time>
      </trkpt>
      <trkpt lat="22.969674" lon="109.433506">
        <ele>64.531775</ele>
        <time>2026-08-15T04:16:45.000Z</time>
      </trkpt>
      <trkpt lat="22.969720" lon="109.433527">
        <ele>64.537531</ele>
        <time>2026-08-15T04:16:46.000Z</time>
      </trkpt>
      <trkpt lat="22.969766" lon="109.433548">
        <ele>64.543287</ele>
        <time>2026-08-15T04:16:47.000Z</time>
      </trkpt>
      <trkpt lat="22.969813" lon="109.433571">
        <ele>64.549234</ele>
        <time>2026-08-15T04:16:48.000Z</time>
      </trkpt>
      <trkpt lat="22.969860" lon="109.433594">
        <ele>64.555181</ele>
        <time>2026-08-15T04:16:49.000Z</time>
      </trkpt>
      <trkpt lat="22.969907" lon="109.433616">
        <ele>64.561085</ele>
        <time>2026-08-15T04:16:50.000Z</time>
      </trkpt>
      <trkpt lat="22.969955" lon="109.433638">
        <ele>64.567095</ele>
        <time>2026-08-15T04:16:51.000Z</time>
      </trkpt>
      <trkpt lat="22.970002" lon="109.433660">
        <ele>64.572886</ele>
        <time>2026-08-15T04:16:52.000Z</time>
      </trkpt>
      <trkpt lat="22.970051" lon="109.433682">
        <ele>64.577800</ele>
        <time>2026-08-15T04:16:53.000Z</time>
      </trkpt>
      <trkpt lat="22.970100" lon="109.433704">
        <ele>64.582713</ele>
        <time>2026-08-15T04:16:54.000Z</time>
      </trkpt>
      <trkpt lat="22.970149" lon="109.433727">
        <ele>64.587660</ele>
        <time>2026-08-15T04:16:55.000Z</time>
      </trkpt>
      <trkpt lat="22.970197" lon="109.433751">
        <ele>64.592557</ele>
        <time>2026-08-15T04:16:56.000Z</time>
      </trkpt>
      <trkpt lat="22.970247" lon="109.433773">
        <ele>64.597556</ele>
        <time>2026-08-15T04:16:57.000Z</time>
      </trkpt>
      <trkpt lat="22.970297" lon="109.433796">
        <ele>64.602588</ele>
        <time>2026-08-15T04:16:58.000Z</time>
      </trkpt>
      <trkpt lat="22.970348" lon="109.433819">
        <ele>64.607706</ele>
        <time>2026-08-15T04:16:59.000Z</time>
      </trkpt>
      <trkpt lat="22.970398" lon="109.433841">
        <ele>64.612705</ele>
        <time>2026-08-15T04:17:00.000Z</time>
      </trkpt>
      <trkpt lat="22.970447" lon="109.433863">
        <ele>64.617619</ele>
        <time>2026-08-15T04:17:01.000Z</time>
      </trkpt>
      <trkpt lat="22.970497" lon="109.433886">
        <ele>64.622651</ele>
        <time>2026-08-15T04:17:02.000Z</time>
      </trkpt>
      <trkpt lat="22.970546" lon="109.433910">
        <ele>64.627632</ele>
        <time>2026-08-15T04:17:03.000Z</time>
      </trkpt>
      <trkpt lat="22.970594" lon="109.433939">
        <ele>64.632722</ele>
        <time>2026-08-15T04:17:04.000Z</time>
      </trkpt>
      <trkpt lat="22.970640" lon="109.433967">
        <ele>64.637609</ele>
        <time>2026-08-15T04:17:05.000Z</time>
      </trkpt>
      <trkpt lat="22.970686" lon="109.433997">
        <ele>64.642581</ele>
        <time>2026-08-15T04:17:06.000Z</time>
      </trkpt>
      <trkpt lat="22.970730" lon="109.434029">
        <ele>64.647488</ele>
        <time>2026-08-15T04:17:07.000Z</time>
      </trkpt>
      <trkpt lat="22.970773" lon="109.434064">
        <ele>64.652468</ele>
        <time>2026-08-15T04:17:08.000Z</time>
      </trkpt>
      <trkpt lat="22.970814" lon="109.434102">
        <ele>64.657463</ele>
        <time>2026-08-15T04:17:09.000Z</time>
      </trkpt>
      <trkpt lat="22.970851" lon="109.434142">
        <ele>64.662301</ele>
        <time>2026-08-15T04:17:10.000Z</time>
      </trkpt>
      <trkpt lat="22.970887" lon="109.434185">
        <ele>64.667259</ele>
        <time>2026-08-15T04:17:11.000Z</time>
      </trkpt>
      <trkpt lat="22.970921" lon="109.434229">
        <ele>64.672161</ele>
        <time>2026-08-15T04:17:12.000Z</time>
      </trkpt>
      <trkpt lat="22.970954" lon="109.434273">
        <ele>64.677003</ele>
        <time>2026-08-15T04:17:13.000Z</time>
      </trkpt>
      <trkpt lat="22.970985" lon="109.434320">
        <ele>64.681936</ele>
        <time>2026-08-15T04:17:14.000Z</time>
      </trkpt>
      <trkpt lat="22.971015" lon="109.434367">
        <ele>64.686815</ele>
        <time>2026-08-15T04:17:15.000Z</time>
      </trkpt>
      <trkpt lat="22.971043" lon="109.434415">
        <ele>64.691664</ele>
        <time>2026-08-15T04:17:16.000Z</time>
      </trkpt>
      <trkpt lat="22.971071" lon="109.434463">
        <ele>64.696512</ele>
        <time>2026-08-15T04:17:17.000Z</time>
      </trkpt>
      <trkpt lat="22.971099" lon="109.434513">
        <ele>64.701505</ele>
        <time>2026-08-15T04:17:18.000Z</time>
      </trkpt>
      <trkpt lat="22.971125" lon="109.434562">
        <ele>64.706330</ele>
        <time>2026-08-15T04:17:19.000Z</time>
      </trkpt>
      <trkpt lat="22.971150" lon="109.434613">
        <ele>64.711260</ele>
        <time>2026-08-15T04:17:20.000Z</time>
      </trkpt>
      <trkpt lat="22.971175" lon="109.434661">
        <ele>64.715966</ele>
        <time>2026-08-15T04:17:21.000Z</time>
      </trkpt>
      <trkpt lat="22.971201" lon="109.434708">
        <ele>64.720644</ele>
        <time>2026-08-15T04:17:22.000Z</time>
      </trkpt>
      <trkpt lat="22.971228" lon="109.434757">
        <ele>64.725516</ele>
        <time>2026-08-15T04:17:23.000Z</time>
      </trkpt>
      <trkpt lat="22.971254" lon="109.434803">
        <ele>64.730122</ele>
        <time>2026-08-15T04:17:24.000Z</time>
      </trkpt>
      <trkpt lat="22.971279" lon="109.434849">
        <ele>64.734679</ele>
        <time>2026-08-15T04:17:25.000Z</time>
      </trkpt>
      <trkpt lat="22.971304" lon="109.434897">
        <ele>64.740470</ele>
        <time>2026-08-15T04:17:26.000Z</time>
      </trkpt>
      <trkpt lat="22.971329" lon="109.434943">
        <ele>64.762922</ele>
        <time>2026-08-15T04:17:27.000Z</time>
      </trkpt>
      <trkpt lat="22.971353" lon="109.434990">
        <ele>64.785512</ele>
        <time>2026-08-15T04:17:28.000Z</time>
      </trkpt>
      <trkpt lat="22.971377" lon="109.435036">
        <ele>64.807736</ele>
        <time>2026-08-15T04:17:29.000Z</time>
      </trkpt>
      <trkpt lat="22.971400" lon="109.435082">
        <ele>64.829737</ele>
        <time>2026-08-15T04:17:30.000Z</time>
      </trkpt>
      <trkpt lat="22.971424" lon="109.435128">
        <ele>64.851961</ele>
        <time>2026-08-15T04:17:31.000Z</time>
      </trkpt>
      <trkpt lat="22.971449" lon="109.435174">
        <ele>64.874413</ele>
        <time>2026-08-15T04:17:32.000Z</time>
      </trkpt>
      <trkpt lat="22.971473" lon="109.435218">
        <ele>64.895909</ele>
        <time>2026-08-15T04:17:33.000Z</time>
      </trkpt>
      <trkpt lat="22.971497" lon="109.435263">
        <ele>64.917767</ele>
        <time>2026-08-15T04:17:34.000Z</time>
      </trkpt>
      <trkpt lat="22.971521" lon="109.435308">
        <ele>64.939626</ele>
        <time>2026-08-15T04:17:35.000Z</time>
      </trkpt>
      <trkpt lat="22.971545" lon="109.435352">
        <ele>64.961122</ele>
        <time>2026-08-15T04:17:36.000Z</time>
      </trkpt>
      <trkpt lat="22.971569" lon="109.435397">
        <ele>64.982980</ele>
        <time>2026-08-15T04:17:37.000Z</time>
      </trkpt>
      <trkpt lat="22.971592" lon="109.435442">
        <ele>65.004614</ele>
        <time>2026-08-15T04:17:38.000Z</time>
      </trkpt>
      <trkpt lat="22.971616" lon="109.435485">
        <ele>65.025749</ele>
        <time>2026-08-15T04:17:39.000Z</time>
      </trkpt>
      <trkpt lat="22.971640" lon="109.435529">
        <ele>65.047245</ele>
        <time>2026-08-15T04:17:40.000Z</time>
      </trkpt>
      <trkpt lat="22.971664" lon="109.435574">
        <ele>65.069104</ele>
        <time>2026-08-15T04:17:41.000Z</time>
      </trkpt>
      <trkpt lat="22.971688" lon="109.435618">
        <ele>65.090600</ele>
        <time>2026-08-15T04:17:42.000Z</time>
      </trkpt>
      <trkpt lat="22.971711" lon="109.435663">
        <ele>65.112233</ele>
        <time>2026-08-15T04:17:43.000Z</time>
      </trkpt>
      <trkpt lat="22.971735" lon="109.435709">
        <ele>65.134456</ele>
        <time>2026-08-15T04:17:44.000Z</time>
      </trkpt>
      <trkpt lat="22.971760" lon="109.435755">
        <ele>65.156908</ele>
        <time>2026-08-15T04:17:45.000Z</time>
      </trkpt>
      <trkpt lat="22.971785" lon="109.435801">
        <ele>65.179360</ele>
        <time>2026-08-15T04:17:46.000Z</time>
      </trkpt>
      <trkpt lat="22.971810" lon="109.435849">
        <ele>65.202540</ele>
        <time>2026-08-15T04:17:47.000Z</time>
      </trkpt>
      <trkpt lat="22.971835" lon="109.435896">
        <ele>65.225355</ele>
        <time>2026-08-15T04:17:48.000Z</time>
      </trkpt>
      <trkpt lat="22.971861" lon="109.435943">
        <ele>65.248401</ele>
        <time>2026-08-15T04:17:49.000Z</time>
      </trkpt>
      <trkpt lat="22.971886" lon="109.435991">
        <ele>65.271581</ele>
        <time>2026-08-15T04:17:50.000Z</time>
      </trkpt>
      <trkpt lat="22.971912" lon="109.436039">
        <ele>65.294989</ele>
        <time>2026-08-15T04:17:51.000Z</time>
      </trkpt>
      <trkpt lat="22.971938" lon="109.436088">
        <ele>65.318760</ele>
        <time>2026-08-15T04:17:52.000Z</time>
      </trkpt>
      <trkpt lat="22.971963" lon="109.436136">
        <ele>65.341940</ele>
        <time>2026-08-15T04:17:53.000Z</time>
      </trkpt>
      <trkpt lat="22.971988" lon="109.436185">
        <ele>65.365486</ele>
        <time>2026-08-15T04:17:54.000Z</time>
      </trkpt>
      <trkpt lat="22.972013" lon="109.436234">
        <ele>65.389033</ele>
        <time>2026-08-15T04:17:55.000Z</time>
      </trkpt>
      <trkpt lat="22.972038" lon="109.436283">
        <ele>65.412579</ele>
        <time>2026-08-15T04:17:56.000Z</time>
      </trkpt>
      <trkpt lat="22.972062" lon="109.436331">
        <ele>65.435538</ele>
        <time>2026-08-15T04:17:57.000Z</time>
      </trkpt>
      <trkpt lat="22.972087" lon="109.436378">
        <ele>65.458352</ele>
        <time>2026-08-15T04:17:58.000Z</time>
      </trkpt>
      <trkpt lat="22.972113" lon="109.436424">
        <ele>65.481040</ele>
        <time>2026-08-15T04:17:59.000Z</time>
      </trkpt>
      <trkpt lat="22.972137" lon="109.436472">
        <ele>65.503998</ele>
        <time>2026-08-15T04:18:00.000Z</time>
      </trkpt>
      <trkpt lat="22.972162" lon="109.436520">
        <ele>65.527178</ele>
        <time>2026-08-15T04:18:01.000Z</time>
      </trkpt>
      <trkpt lat="22.972189" lon="109.436568">
        <ele>65.550820</ele>
        <time>2026-08-15T04:18:02.000Z</time>
      </trkpt>
      <trkpt lat="22.972215" lon="109.436617">
        <ele>65.540881</ele>
        <time>2026-08-15T04:18:03.000Z</time>
      </trkpt>
      <trkpt lat="22.972241" lon="109.436668">
        <ele>65.507874</ele>
        <time>2026-08-15T04:18:04.000Z</time>
      </trkpt>
      <trkpt lat="22.972268" lon="109.436720">
        <ele>65.474073</ele>
        <time>2026-08-15T04:18:05.000Z</time>
      </trkpt>
      <trkpt lat="22.972295" lon="109.436773">
        <ele>65.439778</ele>
        <time>2026-08-15T04:18:06.000Z</time>
      </trkpt>
      <trkpt lat="22.972324" lon="109.436826">
        <ele>65.404870</ele>
        <time>2026-08-15T04:18:07.000Z</time>
      </trkpt>
      <trkpt lat="22.972350" lon="109.436880">
        <ele>65.370368</ele>
        <time>2026-08-15T04:18:08.000Z</time>
      </trkpt>
      <trkpt lat="22.972376" lon="109.436933">
        <ele>65.336366</ele>
        <time>2026-08-15T04:18:09.000Z</time>
      </trkpt>
      <trkpt lat="22.972405" lon="109.436986">
        <ele>65.301458</ele>
        <time>2026-08-15T04:18:10.000Z</time>
      </trkpt>
      <trkpt lat="22.972434" lon="109.437038">
        <ele>65.267036</ele>
        <time>2026-08-15T04:18:11.000Z</time>
      </trkpt>
      <trkpt lat="22.972464" lon="109.437090">
        <ele>65.232292</ele>
        <time>2026-08-15T04:18:12.000Z</time>
      </trkpt>
      <trkpt lat="22.972493" lon="109.437144">
        <ele>65.196896</ele>
        <time>2026-08-15T04:18:13.000Z</time>
      </trkpt>
      <trkpt lat="22.972522" lon="109.437198">
        <ele>65.161501</ele>
        <time>2026-08-15T04:18:14.000Z</time>
      </trkpt>
      <trkpt lat="22.972549" lon="109.437252">
        <ele>65.126709</ele>
        <time>2026-08-15T04:18:15.000Z</time>
      </trkpt>
      <trkpt lat="22.972578" lon="109.437305">
        <ele>65.091802</ele>
        <time>2026-08-15T04:18:16.000Z</time>
      </trkpt>
      <trkpt lat="22.972606" lon="109.437355">
        <ele>65.058667</ele>
        <time>2026-08-15T04:18:17.000Z</time>
      </trkpt>
      <trkpt lat="22.972633" lon="109.437404">
        <ele>65.026335</ele>
        <time>2026-08-15T04:18:18.000Z</time>
      </trkpt>
      <trkpt lat="22.972660" lon="109.437454">
        <ele>64.993515</ele>
        <time>2026-08-15T04:18:19.000Z</time>
      </trkpt>
      <trkpt lat="22.972688" lon="109.437506">
        <ele>64.959408</ele>
        <time>2026-08-15T04:18:20.000Z</time>
      </trkpt>
      <trkpt lat="22.972714" lon="109.437560">
        <ele>64.924905</ele>
        <time>2026-08-15T04:18:21.000Z</time>
      </trkpt>
      <trkpt lat="22.972741" lon="109.437615">
        <ele>64.889615</ele>
        <time>2026-08-15T04:18:22.000Z</time>
      </trkpt>
      <trkpt lat="22.972767" lon="109.437670">
        <ele>64.854610</ele>
        <time>2026-08-15T04:18:23.000Z</time>
      </trkpt>
      <trkpt lat="22.972794" lon="109.437724">
        <ele>64.819818</ele>
        <time>2026-08-15T04:18:24.000Z</time>
      </trkpt>
      <trkpt lat="22.972822" lon="109.437779">
        <ele>64.784234</ele>
        <time>2026-08-15T04:18:25.000Z</time>
      </trkpt>
      <trkpt lat="22.972848" lon="109.437834">
        <ele>64.749229</ele>
        <time>2026-08-15T04:18:26.000Z</time>
      </trkpt>
      <trkpt lat="22.972878" lon="109.437889">
        <ele>64.713034</ele>
        <time>2026-08-15T04:18:27.000Z</time>
      </trkpt>
      <trkpt lat="22.972907" lon="109.437942">
        <ele>64.678126</ele>
        <time>2026-08-15T04:18:28.000Z</time>
      </trkpt>
      <trkpt lat="22.972936" lon="109.437995">
        <ele>64.643219</ele>
        <time>2026-08-15T04:18:29.000Z</time>
      </trkpt>
      <trkpt lat="22.972971" lon="109.438048">
        <ele>64.606290</ele>
        <time>2026-08-15T04:18:30.000Z</time>
      </trkpt>
      <trkpt lat="22.973009" lon="109.438102">
        <ele>64.567808</ele>
        <time>2026-08-15T04:18:31.000Z</time>
      </trkpt>
      <trkpt lat="22.973047" lon="109.438155">
        <ele>64.529774</ele>
        <time>2026-08-15T04:18:32.000Z</time>
      </trkpt>
      <trkpt lat="22.973083" lon="109.438208">
        <ele>64.492484</ele>
        <time>2026-08-15T04:18:33.000Z</time>
      </trkpt>
      <trkpt lat="22.973120" lon="109.438259">
        <ele>64.455721</ele>
        <time>2026-08-15T04:18:34.000Z</time>
      </trkpt>
      <trkpt lat="22.973158" lon="109.438308">
        <ele>64.438831</ele>
        <time>2026-08-15T04:18:35.000Z</time>
      </trkpt>
      <trkpt lat="22.973198" lon="109.438353">
        <ele>64.423206</ele>
        <time>2026-08-15T04:18:36.000Z</time>
      </trkpt>
      <trkpt lat="22.973239" lon="109.438395">
        <ele>64.407916</ele>
        <time>2026-08-15T04:18:37.000Z</time>
      </trkpt>
      <trkpt lat="22.973282" lon="109.438434">
        <ele>64.392717</ele>
        <time>2026-08-15T04:18:38.000Z</time>
      </trkpt>
      <trkpt lat="22.973327" lon="109.438470">
        <ele>64.377554</ele>
        <time>2026-08-15T04:18:39.000Z</time>
      </trkpt>
      <trkpt lat="22.973375" lon="109.438502">
        <ele>64.362273</ele>
        <time>2026-08-15T04:18:40.000Z</time>
      </trkpt>
      <trkpt lat="22.973424" lon="109.438531">
        <ele>64.347134</ele>
        <time>2026-08-15T04:18:41.000Z</time>
      </trkpt>
      <trkpt lat="22.973474" lon="109.438561">
        <ele>64.331636</ele>
        <time>2026-08-15T04:18:42.000Z</time>
      </trkpt>
      <trkpt lat="22.973526" lon="109.438589">
        <ele>64.315889</ele>
        <time>2026-08-15T04:18:43.000Z</time>
      </trkpt>
      <trkpt lat="22.973580" lon="109.438617">
        <ele>64.299655</ele>
        <time>2026-08-15T04:18:44.000Z</time>
      </trkpt>
      <trkpt lat="22.973634" lon="109.438645">
        <ele>64.283420</ele>
        <time>2026-08-15T04:18:45.000Z</time>
      </trkpt>
      <trkpt lat="22.973688" lon="109.438673">
        <ele>64.267186</ele>
        <time>2026-08-15T04:18:46.000Z</time>
      </trkpt>
      <trkpt lat="22.973742" lon="109.438699">
        <ele>64.251160</ele>
        <time>2026-08-15T04:18:47.000Z</time>
      </trkpt>
      <trkpt lat="22.973796" lon="109.438723">
        <ele>64.235330</ele>
        <time>2026-08-15T04:18:48.000Z</time>
      </trkpt>
      <trkpt lat="22.973850" lon="109.438750">
        <ele>64.219202</ele>
        <time>2026-08-15T04:18:49.000Z</time>
      </trkpt>
      <trkpt lat="22.973903" lon="109.438779">
        <ele>64.203101</ele>
        <time>2026-08-15T04:18:50.000Z</time>
      </trkpt>
      <trkpt lat="22.973957" lon="109.438807">
        <ele>64.186866</ele>
        <time>2026-08-15T04:18:51.000Z</time>
      </trkpt>
      <trkpt lat="22.974012" lon="109.438836">
        <ele>64.170279</ele>
        <time>2026-08-15T04:18:52.000Z</time>
      </trkpt>
      <trkpt lat="22.974068" lon="109.438862">
        <ele>64.153756</ele>
        <time>2026-08-15T04:18:53.000Z</time>
      </trkpt>
      <trkpt lat="22.974123" lon="109.438887">
        <ele>64.137580</ele>
        <time>2026-08-15T04:18:54.000Z</time>
      </trkpt>
      <trkpt lat="22.974177" lon="109.438912">
        <ele>64.121654</ele>
        <time>2026-08-15T04:18:55.000Z</time>
      </trkpt>
      <trkpt lat="22.974233" lon="109.438937">
        <ele>64.105227</ele>
        <time>2026-08-15T04:18:56.000Z</time>
      </trkpt>
      <trkpt lat="22.974287" lon="109.438962">
        <ele>64.089301</ele>
        <time>2026-08-15T04:18:57.000Z</time>
      </trkpt>
      <trkpt lat="22.974340" lon="109.438987">
        <ele>64.073624</ele>
        <time>2026-08-15T04:18:58.000Z</time>
      </trkpt>
      <trkpt lat="22.974394" lon="109.439015">
        <ele>64.057389</ele>
        <time>2026-08-15T04:18:59.000Z</time>
      </trkpt>
      <trkpt lat="22.974446" lon="109.439044">
        <ele>64.041530</ele>
        <time>2026-08-15T04:19:00.000Z</time>
      </trkpt>
      <trkpt lat="22.974498" lon="109.439073">
        <ele>64.025671</ele>
        <time>2026-08-15T04:19:01.000Z</time>
      </trkpt>
      <trkpt lat="22.974551" lon="109.439101">
        <ele>64.009681</ele>
        <time>2026-08-15T04:19:02.000Z</time>
      </trkpt>
      <trkpt lat="22.974603" lon="109.439129">
        <ele>63.993935</ele>
        <time>2026-08-15T04:19:03.000Z</time>
      </trkpt>
      <trkpt lat="22.974656" lon="109.439158">
        <ele>63.977834</ele>
        <time>2026-08-15T04:19:04.000Z</time>
      </trkpt>
      <trkpt lat="22.974707" lon="109.439185">
        <ele>63.964963</ele>
        <time>2026-08-15T04:19:05.000Z</time>
      </trkpt>
      <trkpt lat="22.974760" lon="109.439212">
        <ele>63.959895</ele>
        <time>2026-08-15T04:19:06.000Z</time>
      </trkpt>
      <trkpt lat="22.974814" lon="109.439240">
        <ele>63.954715</ele>
        <time>2026-08-15T04:19:07.000Z</time>
      </trkpt>
      <trkpt lat="22.974869" lon="109.439268">
        <ele>63.949456</ele>
        <time>2026-08-15T04:19:08.000Z</time>
      </trkpt>
      <trkpt lat="22.974922" lon="109.439296">
        <ele>63.944354</ele>
        <time>2026-08-15T04:19:09.000Z</time>
      </trkpt>
      <trkpt lat="22.974975" lon="109.439323">
        <ele>63.939286</ele>
        <time>2026-08-15T04:19:10.000Z</time>
      </trkpt>
      <trkpt lat="22.975026" lon="109.439350">
        <ele>63.934374</ele>
        <time>2026-08-15T04:19:11.000Z</time>
      </trkpt>
      <trkpt lat="22.975078" lon="109.439377">
        <ele>63.929384</ele>
        <time>2026-08-15T04:19:12.000Z</time>
      </trkpt>
      <trkpt lat="22.975129" lon="109.439402">
        <ele>63.924540</ele>
        <time>2026-08-15T04:19:13.000Z</time>
      </trkpt>
      <trkpt lat="22.975179" lon="109.439427">
        <ele>63.919775</ele>
        <time>2026-08-15T04:19:14.000Z</time>
      </trkpt>
      <trkpt lat="22.975228" lon="109.439452">
        <ele>63.915088</ele>
        <time>2026-08-15T04:19:15.000Z</time>
      </trkpt>
      <trkpt lat="22.975275" lon="109.439476">
        <ele>63.910592</ele>
        <time>2026-08-15T04:19:16.000Z</time>
      </trkpt>
      <trkpt lat="22.975321" lon="109.439501">
        <ele>63.906139</ele>
        <time>2026-08-15T04:19:17.000Z</time>
      </trkpt>
      <trkpt lat="22.975365" lon="109.439524">
        <ele>63.901911</ele>
        <time>2026-08-15T04:19:18.000Z</time>
      </trkpt>
      <trkpt lat="22.975407" lon="109.439548">
        <ele>63.897803</ele>
        <time>2026-08-15T04:19:19.000Z</time>
      </trkpt>
      <trkpt lat="22.975447" lon="109.439569">
        <ele>63.893956</ele>
        <time>2026-08-15T04:19:20.000Z</time>
      </trkpt>
      <trkpt lat="22.975487" lon="109.439589">
        <ele>63.890144</ele>
        <time>2026-08-15T04:19:21.000Z</time>
      </trkpt>
      <trkpt lat="22.975525" lon="109.439609">
        <ele>63.886489</ele>
        <time>2026-08-15T04:19:22.000Z</time>
      </trkpt>
      <trkpt lat="22.975563" lon="109.439630">
        <ele>63.882797</ele>
        <time>2026-08-15T04:19:23.000Z</time>
      </trkpt>
      <trkpt lat="22.975601" lon="109.439652">
        <ele>63.879069</ele>
        <time>2026-08-15T04:19:24.000Z</time>
      </trkpt>
      <trkpt lat="22.975640" lon="109.439677">
        <ele>63.875149</ele>
        <time>2026-08-15T04:19:25.000Z</time>
      </trkpt>
      <trkpt lat="22.975682" lon="109.439700">
        <ele>63.871077</ele>
        <time>2026-08-15T04:19:26.000Z</time>
      </trkpt>
      <trkpt lat="22.975724" lon="109.439722">
        <ele>63.867040</ele>
        <time>2026-08-15T04:19:27.000Z</time>
      </trkpt>
      <trkpt lat="22.975766" lon="109.439743">
        <ele>63.863037</ele>
        <time>2026-08-15T04:19:28.000Z</time>
      </trkpt>
      <trkpt lat="22.975805" lon="109.439765">
        <ele>63.859233</ele>
        <time>2026-08-15T04:19:29.000Z</time>
      </trkpt>
      <trkpt lat="22.975844" lon="109.439792">
        <ele>63.855229</ele>
        <time>2026-08-15T04:19:30.000Z</time>
      </trkpt>
      <trkpt lat="22.975883" lon="109.439822">
        <ele>63.851091</ele>
        <time>2026-08-15T04:19:31.000Z</time>
      </trkpt>
      <trkpt lat="22.975921" lon="109.439854">
        <ele>63.846929</ele>
        <time>2026-08-15T04:19:32.000Z</time>
      </trkpt>
      <trkpt lat="22.975959" lon="109.439889">
        <ele>63.842615</ele>
        <time>2026-08-15T04:19:33.000Z</time>
      </trkpt>
      <trkpt lat="22.975996" lon="109.439925">
        <ele>63.838315</ele>
        <time>2026-08-15T04:19:34.000Z</time>
      </trkpt>
      <trkpt lat="22.976033" lon="109.439963">
        <ele>63.833906</ele>
        <time>2026-08-15T04:19:35.000Z</time>
      </trkpt>
      <trkpt lat="22.976070" lon="109.440003">
        <ele>63.829387</ele>
        <time>2026-08-15T04:19:36.000Z</time>
      </trkpt>
      <trkpt lat="22.976108" lon="109.440047">
        <ele>63.824578</ele>
        <time>2026-08-15T04:19:37.000Z</time>
      </trkpt>
      <trkpt lat="22.976146" lon="109.440093">
        <ele>63.819652</ele>
        <time>2026-08-15T04:19:38.000Z</time>
      </trkpt>
      <trkpt lat="22.976184" lon="109.440140">
        <ele>63.814667</ele>
        <time>2026-08-15T04:19:39.000Z</time>
      </trkpt>
      <trkpt lat="22.976223" lon="109.440190">
        <ele>63.807518</ele>
        <time>2026-08-15T04:19:40.000Z</time>
      </trkpt>
      <trkpt lat="22.976262" lon="109.440240">
        <ele>63.792106</ele>
        <time>2026-08-15T04:19:41.000Z</time>
      </trkpt>
      <trkpt lat="22.976299" lon="109.440290">
        <ele>63.777020</ele>
        <time>2026-08-15T04:19:42.000Z</time>
      </trkpt>
      <trkpt lat="22.976334" lon="109.440339">
        <ele>63.762434</ele>
        <time>2026-08-15T04:19:43.000Z</time>
      </trkpt>
      <trkpt lat="22.976367" lon="109.440389">
        <ele>63.747965</ele>
        <time>2026-08-15T04:19:44.000Z</time>
      </trkpt>
      <trkpt lat="22.976400" lon="109.440438">
        <ele>63.733687</ele>
        <time>2026-08-15T04:19:45.000Z</time>
      </trkpt>
      <trkpt lat="22.976431" lon="109.440486">
        <ele>63.719898</ele>
        <time>2026-08-15T04:19:46.000Z</time>
      </trkpt>
      <trkpt lat="22.976462" lon="109.440533">
        <ele>63.706300</ele>
        <time>2026-08-15T04:19:47.000Z</time>
      </trkpt>
      <trkpt lat="22.976495" lon="109.440579">
        <ele>63.692585</ele>
        <time>2026-08-15T04:19:48.000Z</time>
      </trkpt>
      <trkpt lat="22.976527" lon="109.440625">
        <ele>63.679026</ele>
        <time>2026-08-15T04:19:49.000Z</time>
      </trkpt>
      <trkpt lat="22.976558" lon="109.440670">
        <ele>63.665808</ele>
        <time>2026-08-15T04:19:50.000Z</time>
      </trkpt>
      <trkpt lat="22.976589" lon="109.440716">
        <ele>63.652401</ele>
        <time>2026-08-15T04:19:51.000Z</time>
      </trkpt>
      <trkpt lat="22.976620" lon="109.440761">
        <ele>63.639183</ele>
        <time>2026-08-15T04:19:52.000Z</time>
      </trkpt>
      <trkpt lat="22.976650" lon="109.440806">
        <ele>63.626117</ele>
        <time>2026-08-15T04:19:53.000Z</time>
      </trkpt>
      <trkpt lat="22.976678" lon="109.440852">
        <ele>63.613147</ele>
        <time>2026-08-15T04:19:54.000Z</time>
      </trkpt>
      <trkpt lat="22.976707" lon="109.440899">
        <ele>63.599841</ele>
        <time>2026-08-15T04:19:55.000Z</time>
      </trkpt>
      <trkpt lat="22.976736" lon="109.440945">
        <ele>63.586729</ele>
        <time>2026-08-15T04:19:56.000Z</time>
      </trkpt>
      <trkpt lat="22.976767" lon="109.440989">
        <ele>63.573699</ele>
        <time>2026-08-15T04:19:57.000Z</time>
      </trkpt>
      <trkpt lat="22.976797" lon="109.441034">
        <ele>63.560632</ele>
        <time>2026-08-15T04:19:58.000Z</time>
      </trkpt>
      <trkpt lat="22.976827" lon="109.441080">
        <ele>63.547375</ele>
        <time>2026-08-15T04:19:59.000Z</time>
      </trkpt>
      <trkpt lat="22.976855" lon="109.441125">
        <ele>63.534601</ele>
        <time>2026-08-15T04:20:00.000Z</time>
      </trkpt>
      <trkpt lat="22.976884" lon="109.441169">
        <ele>63.521875</ele>
        <time>2026-08-15T04:20:01.000Z</time>
      </trkpt>
      <trkpt lat="22.976912" lon="109.441212">
        <ele>63.509488</ele>
        <time>2026-08-15T04:20:02.000Z</time>
      </trkpt>
      <trkpt lat="22.976941" lon="109.441255">
        <ele>63.496952</ele>
        <time>2026-08-15T04:20:03.000Z</time>
      </trkpt>
      <trkpt lat="22.976970" lon="109.441296">
        <ele>63.484792</ele>
        <time>2026-08-15T04:20:04.000Z</time>
      </trkpt>
      <trkpt lat="22.976999" lon="109.441337">
        <ele>63.472633</ele>
        <time>2026-08-15T04:20:05.000Z</time>
      </trkpt>
      <trkpt lat="22.977029" lon="109.441377">
        <ele>63.460499</ele>
        <time>2026-08-15T04:20:06.000Z</time>
      </trkpt>
      <trkpt lat="22.977057" lon="109.441418">
        <ele>63.448493</ele>
        <time>2026-08-15T04:20:07.000Z</time>
      </trkpt>
      <trkpt lat="22.977085" lon="109.441458">
        <ele>63.436676</ele>
        <time>2026-08-15T04:20:08.000Z</time>
      </trkpt>
      <trkpt lat="22.977114" lon="109.441498">
        <ele>63.424702</ele>
        <time>2026-08-15T04:20:09.000Z</time>
      </trkpt>
      <trkpt lat="22.977144" lon="109.441537">
        <ele>63.412750</ele>
        <time>2026-08-15T04:20:10.000Z</time>
      </trkpt>
      <trkpt lat="22.977175" lon="109.441576">
        <ele>63.400632</ele>
        <time>2026-08-15T04:20:11.000Z</time>
      </trkpt>
      <trkpt lat="22.977206" lon="109.441615">
        <ele>63.388514</ele>
        <time>2026-08-15T04:20:12.000Z</time>
      </trkpt>
      <trkpt lat="22.977238" lon="109.441653">
        <ele>63.376403</ele>
        <time>2026-08-15T04:20:13.000Z</time>
      </trkpt>
      <trkpt lat="22.977270" lon="109.441691">
        <ele>63.364291</ele>
        <time>2026-08-15T04:20:14.000Z</time>
      </trkpt>
      <trkpt lat="22.977304" lon="109.441727">
        <ele>63.352162</ele>
        <time>2026-08-15T04:20:15.000Z</time>
      </trkpt>
      <trkpt lat="22.977338" lon="109.441763">
        <ele>63.369571</ele>
        <time>2026-08-15T04:20:16.000Z</time>
      </trkpt>
      <trkpt lat="22.977373" lon="109.441798">
        <ele>63.390247</ele>
        <time>2026-08-15T04:20:17.000Z</time>
      </trkpt>
      <trkpt lat="22.977409" lon="109.441832">
        <ele>63.410980</ele>
        <time>2026-08-15T04:20:18.000Z</time>
      </trkpt>
      <trkpt lat="22.977446" lon="109.441865">
        <ele>63.431786</ele>
        <time>2026-08-15T04:20:19.000Z</time>
      </trkpt>
      <trkpt lat="22.977483" lon="109.441898">
        <ele>63.452592</ele>
        <time>2026-08-15T04:20:20.000Z</time>
      </trkpt>
      <trkpt lat="22.977520" lon="109.441929">
        <ele>63.472900</ele>
        <time>2026-08-15T04:20:21.000Z</time>
      </trkpt>
      <trkpt lat="22.977558" lon="109.441959">
        <ele>63.493316</ele>
        <time>2026-08-15T04:20:22.000Z</time>
      </trkpt>
      <trkpt lat="22.977594" lon="109.441992">
        <ele>63.513789</ele>
        <time>2026-08-15T04:20:23.000Z</time>
      </trkpt>
      <trkpt lat="22.977631" lon="109.442024">
        <ele>63.534344</ele>
        <time>2026-08-15T04:20:24.000Z</time>
      </trkpt>
      <trkpt lat="22.977668" lon="109.442057">
        <ele>63.555150</ele>
        <time>2026-08-15T04:20:25.000Z</time>
      </trkpt>
      <trkpt lat="22.977706" lon="109.442088">
        <ele>63.575804</ele>
        <time>2026-08-15T04:20:26.000Z</time>
      </trkpt>
      <trkpt lat="22.977745" lon="109.442119">
        <ele>63.596807</ele>
        <time>2026-08-15T04:20:27.000Z</time>
      </trkpt>
      <trkpt lat="22.977783" lon="109.442152">
        <ele>63.617951</ele>
        <time>2026-08-15T04:20:28.000Z</time>
      </trkpt>
      <trkpt lat="22.977820" lon="109.442184">
        <ele>63.638506</ele>
        <time>2026-08-15T04:20:29.000Z</time>
      </trkpt>
      <trkpt lat="22.977858" lon="109.442216">
        <ele>63.659402</ele>
        <time>2026-08-15T04:20:30.000Z</time>
      </trkpt>
      <trkpt lat="22.977898" lon="109.442247">
        <ele>63.680757</ele>
        <time>2026-08-15T04:20:31.000Z</time>
      </trkpt>
      <trkpt lat="22.977937" lon="109.442278">
        <ele>63.701760</ele>
        <time>2026-08-15T04:20:32.000Z</time>
      </trkpt>
      <trkpt lat="22.977975" lon="109.442308">
        <ele>63.722176</ele>
        <time>2026-08-15T04:20:33.000Z</time>
      </trkpt>
      <trkpt lat="22.978013" lon="109.442339">
        <ele>63.742830</ele>
        <time>2026-08-15T04:20:34.000Z</time>
      </trkpt>
      <trkpt lat="22.978052" lon="109.442370">
        <ele>63.763833</ele>
        <time>2026-08-15T04:20:35.000Z</time>
      </trkpt>
      <trkpt lat="22.978090" lon="109.442401">
        <ele>63.784487</ele>
        <time>2026-08-15T04:20:36.000Z</time>
      </trkpt>
      <trkpt lat="22.978130" lon="109.442433">
        <ele>63.806077</ele>
        <time>2026-08-15T04:20:37.000Z</time>
      </trkpt>
      <trkpt lat="22.978169" lon="109.442464">
        <ele>63.827079</ele>
        <time>2026-08-15T04:20:38.000Z</time>
      </trkpt>
      <trkpt lat="22.978209" lon="109.442495">
        <ele>63.848435</ele>
        <time>2026-08-15T04:20:39.000Z</time>
      </trkpt>
      <trkpt lat="22.978250" lon="109.442525">
        <ele>63.869919</ele>
        <time>2026-08-15T04:20:40.000Z</time>
      </trkpt>
      <trkpt lat="22.978290" lon="109.442555">
        <ele>63.891044</ele>
        <time>2026-08-15T04:20:41.000Z</time>
      </trkpt>
      <trkpt lat="22.978329" lon="109.442585">
        <ele>63.911813</ele>
        <time>2026-08-15T04:20:42.000Z</time>
      </trkpt>
      <trkpt lat="22.978368" lon="109.442615">
        <ele>63.932582</ele>
        <time>2026-08-15T04:20:43.000Z</time>
      </trkpt>
      <trkpt lat="22.978408" lon="109.442644">
        <ele>63.953483</ele>
        <time>2026-08-15T04:20:44.000Z</time>
      </trkpt>
      <trkpt lat="22.978448" lon="109.442673">
        <ele>63.974383</ele>
        <time>2026-08-15T04:20:45.000Z</time>
      </trkpt>
      <trkpt lat="22.978489" lon="109.442702">
        <ele>63.995647</ele>
        <time>2026-08-15T04:20:46.000Z</time>
      </trkpt>
      <trkpt lat="22.978530" lon="109.442730">
        <ele>64.016694</ele>
        <time>2026-08-15T04:20:47.000Z</time>
      </trkpt>
      <trkpt lat="22.978571" lon="109.442759">
        <ele>64.037958</ele>
        <time>2026-08-15T04:20:48.000Z</time>
      </trkpt>
      <trkpt lat="22.978610" lon="109.442787">
        <ele>64.058275</ele>
        <time>2026-08-15T04:20:49.000Z</time>
      </trkpt>
      <trkpt lat="22.978651" lon="109.442814">
        <ele>64.079112</ele>
        <time>2026-08-15T04:20:50.000Z</time>
      </trkpt>
      <trkpt lat="22.978692" lon="109.442841">
        <ele>64.099950</ele>
        <time>2026-08-15T04:20:51.000Z</time>
      </trkpt>
      <trkpt lat="22.978733" lon="109.442868">
        <ele>64.120787</ele>
        <time>2026-08-15T04:20:52.000Z</time>
      </trkpt>
      <trkpt lat="22.978773" lon="109.442895">
        <ele>64.136599</ele>
        <time>2026-08-15T04:20:53.000Z</time>
      </trkpt>
      <trkpt lat="22.978814" lon="109.442922">
        <ele>64.146164</ele>
        <time>2026-08-15T04:20:54.000Z</time>
      </trkpt>
      <trkpt lat="22.978853" lon="109.442949">
        <ele>64.155389</ele>
        <time>2026-08-15T04:20:55.000Z</time>
      </trkpt>
      <trkpt lat="22.978892" lon="109.442975">
        <ele>64.164518</ele>
        <time>2026-08-15T04:20:56.000Z</time>
      </trkpt>
      <trkpt lat="22.978933" lon="109.443001">
        <ele>64.173988</ele>
        <time>2026-08-15T04:20:57.000Z</time>
      </trkpt>
      <trkpt lat="22.978974" lon="109.443027">
        <ele>64.183459</ele>
        <time>2026-08-15T04:20:58.000Z</time>
      </trkpt>
      <trkpt lat="22.979014" lon="109.443053">
        <ele>64.192758</ele>
        <time>2026-08-15T04:20:59.000Z</time>
      </trkpt>
      <trkpt lat="22.979055" lon="109.443080">
        <ele>64.202322</ele>
        <time>2026-08-15T04:21:00.000Z</time>
      </trkpt>
      <trkpt lat="22.979097" lon="109.443106">
        <ele>64.211966</ele>
        <time>2026-08-15T04:21:01.000Z</time>
      </trkpt>
      <trkpt lat="22.979141" lon="109.443132">
        <ele>64.221958</ele>
        <time>2026-08-15T04:21:02.000Z</time>
      </trkpt>
      <trkpt lat="22.979185" lon="109.443161">
        <ele>64.232224</ele>
        <time>2026-08-15T04:21:03.000Z</time>
      </trkpt>
      <trkpt lat="22.979227" lon="109.443190">
        <ele>64.242152</ele>
        <time>2026-08-15T04:21:04.000Z</time>
      </trkpt>
      <trkpt lat="22.979270" lon="109.443220">
        <ele>64.252347</ele>
        <time>2026-08-15T04:21:05.000Z</time>
      </trkpt>
      <trkpt lat="22.979314" lon="109.443248">
        <ele>64.262520</ele>
        <time>2026-08-15T04:21:06.000Z</time>
      </trkpt>
      <trkpt lat="22.979357" lon="109.443275">
        <ele>64.272427</ele>
        <time>2026-08-15T04:21:07.000Z</time>
      </trkpt>
      <trkpt lat="22.979401" lon="109.443302">
        <ele>64.282509</ele>
        <time>2026-08-15T04:21:08.000Z</time>
      </trkpt>
      <trkpt lat="22.979446" lon="109.443329">
        <ele>64.292764</ele>
        <time>2026-08-15T04:21:09.000Z</time>
      </trkpt>
      <trkpt lat="22.979491" lon="109.443355">
        <ele>64.302931</ele>
        <time>2026-08-15T04:21:10.000Z</time>
      </trkpt>
      <trkpt lat="22.979535" lon="109.443383">
        <ele>64.313104</ele>
        <time>2026-08-15T04:21:11.000Z</time>
      </trkpt>
      <trkpt lat="22.979580" lon="109.443410">
        <ele>64.323359</ele>
        <time>2026-08-15T04:21:12.000Z</time>
      </trkpt>
      <trkpt lat="22.979624" lon="109.443436">
        <ele>64.333351</ele>
        <time>2026-08-15T04:21:13.000Z</time>
      </trkpt>
      <trkpt lat="22.979669" lon="109.443462">
        <ele>64.343519</ele>
        <time>2026-08-15T04:21:14.000Z</time>
      </trkpt>
      <trkpt lat="22.979713" lon="109.443486">
        <ele>64.353341</ele>
        <time>2026-08-15T04:21:15.000Z</time>
      </trkpt>
      <trkpt lat="22.979759" lon="109.443511">
        <ele>64.363601</ele>
        <time>2026-08-15T04:21:16.000Z</time>
      </trkpt>
      <trkpt lat="22.979803" lon="109.443535">
        <ele>64.373423</ele>
        <time>2026-08-15T04:21:17.000Z</time>
      </trkpt>
      <trkpt lat="22.979848" lon="109.443559">
        <ele>64.383424</ele>
        <time>2026-08-15T04:21:18.000Z</time>
      </trkpt>
      <trkpt lat="22.979892" lon="109.443581">
        <ele>64.393086</ele>
        <time>2026-08-15T04:21:19.000Z</time>
      </trkpt>
      <trkpt lat="22.979936" lon="109.443605">
        <ele>64.402908</ele>
        <time>2026-08-15T04:21:20.000Z</time>
      </trkpt>
      <trkpt lat="22.979980" lon="109.443628">
        <ele>64.412649</ele>
        <time>2026-08-15T04:21:21.000Z</time>
      </trkpt>
      <trkpt lat="22.980025" lon="109.443651">
        <ele>64.422569</ele>
        <time>2026-08-15T04:21:22.000Z</time>
      </trkpt>
      <trkpt lat="22.980070" lon="109.443675">
        <ele>64.432570</ele>
        <time>2026-08-15T04:21:23.000Z</time>
      </trkpt>
      <trkpt lat="22.980116" lon="109.443699">
        <ele>64.442750</ele>
        <time>2026-08-15T04:21:24.000Z</time>
      </trkpt>
      <trkpt lat="22.980161" lon="109.443720">
        <ele>64.452520</ele>
        <time>2026-08-15T04:21:25.000Z</time>
      </trkpt>
      <trkpt lat="22.980205" lon="109.443740">
        <ele>64.462035</ele>
        <time>2026-08-15T04:21:26.000Z</time>
      </trkpt>
      <trkpt lat="22.980248" lon="109.443761">
        <ele>64.471440</ele>
        <time>2026-08-15T04:21:27.000Z</time>
      </trkpt>
      <trkpt lat="22.980290" lon="109.443780">
        <ele>64.480515</ele>
        <time>2026-08-15T04:21:28.000Z</time>
      </trkpt>
      <trkpt lat="22.980332" lon="109.443801">
        <ele>64.489739</ele>
        <time>2026-08-15T04:21:29.000Z</time>
      </trkpt>
      <trkpt lat="22.980376" lon="109.443822">
        <ele>64.530873</ele>
        <time>2026-08-15T04:21:30.000Z</time>
      </trkpt>
      <trkpt lat="22.980422" lon="109.443842">
        <ele>64.580333</ele>
        <time>2026-08-15T04:21:31.000Z</time>
      </trkpt>
      <trkpt lat="22.980468" lon="109.443864">
        <ele>64.630505</ele>
        <time>2026-08-15T04:21:32.000Z</time>
      </trkpt>
      <trkpt lat="22.980514" lon="109.443886">
        <ele>64.680677</ele>
        <time>2026-08-15T04:21:33.000Z</time>
      </trkpt>
      <trkpt lat="22.980560" lon="109.443907">
        <ele>64.730485</ele>
        <time>2026-08-15T04:21:34.000Z</time>
      </trkpt>
      <trkpt lat="22.980607" lon="109.443930">
        <ele>64.781943</ele>
        <time>2026-08-15T04:21:35.000Z</time>
      </trkpt>
      <trkpt lat="22.980653" lon="109.443952">
        <ele>64.832115</ele>
        <time>2026-08-15T04:21:36.000Z</time>
      </trkpt>
      <trkpt lat="22.980699" lon="109.443974">
        <ele>64.882287</ele>
        <time>2026-08-15T04:21:37.000Z</time>
      </trkpt>
      <trkpt lat="22.980745" lon="109.443996">
        <ele>64.932458</ele>
        <time>2026-08-15T04:21:38.000Z</time>
      </trkpt>
      <trkpt lat="22.980791" lon="109.444018">
        <ele>64.982630</ele>
        <time>2026-08-15T04:21:39.000Z</time>
      </trkpt>
      <trkpt lat="22.980837" lon="109.444039">
        <ele>65.032439</ele>
        <time>2026-08-15T04:21:40.000Z</time>
      </trkpt>
      <trkpt lat="22.980882" lon="109.444060">
        <ele>65.081329</ele>
        <time>2026-08-15T04:21:41.000Z</time>
      </trkpt>
      <trkpt lat="22.980925" lon="109.444081">
        <ele>65.128391</ele>
        <time>2026-08-15T04:21:42.000Z</time>
      </trkpt>
      <trkpt lat="22.980969" lon="109.444103">
        <ele>65.176742</ele>
        <time>2026-08-15T04:21:43.000Z</time>
      </trkpt>
      <trkpt lat="22.981011" lon="109.444125">
        <ele>65.223288</ele>
        <time>2026-08-15T04:21:44.000Z</time>
      </trkpt>
      <trkpt lat="22.981050" lon="109.444143">
        <ele>65.265587</ele>
        <time>2026-08-15T04:21:45.000Z</time>
      </trkpt>
      <trkpt lat="22.981090" lon="109.444161">
        <ele>65.308806</ele>
        <time>2026-08-15T04:21:46.000Z</time>
      </trkpt>
      <trkpt lat="22.981127" lon="109.444182">
        <ele>65.350478</ele>
        <time>2026-08-15T04:21:47.000Z</time>
      </trkpt>
      <trkpt lat="22.981164" lon="109.444199">
        <ele>65.390581</ele>
        <time>2026-08-15T04:21:48.000Z</time>
      </trkpt>
      <trkpt lat="22.981201" lon="109.444217">
        <ele>65.431050</ele>
        <time>2026-08-15T04:21:49.000Z</time>
      </trkpt>
      <trkpt lat="22.981236" lon="109.444235">
        <ele>65.469706</ele>
        <time>2026-08-15T04:21:50.000Z</time>
      </trkpt>
      <trkpt lat="22.981270" lon="109.444253">
        <ele>65.507461</ele>
        <time>2026-08-15T04:21:51.000Z</time>
      </trkpt>
      <trkpt lat="22.981304" lon="109.444269">
        <ele>65.544449</ele>
        <time>2026-08-15T04:21:52.000Z</time>
      </trkpt>
      <trkpt lat="22.981338" lon="109.444285">
        <ele>65.581437</ele>
        <time>2026-08-15T04:21:53.000Z</time>
      </trkpt>
      <trkpt lat="22.981372" lon="109.444301">
        <ele>65.618424</ele>
        <time>2026-08-15T04:21:54.000Z</time>
      </trkpt>
      <trkpt lat="22.981407" lon="109.444318">
        <ele>65.656696</ele>
        <time>2026-08-15T04:21:55.000Z</time>
      </trkpt>
      <trkpt lat="22.981440" lon="109.444334">
        <ele>65.692769</ele>
        <time>2026-08-15T04:21:56.000Z</time>
      </trkpt>
      <trkpt lat="22.981474" lon="109.444350">
        <ele>65.729757</ele>
        <time>2026-08-15T04:21:57.000Z</time>
      </trkpt>
      <trkpt lat="22.981509" lon="109.444367">
        <ele>65.768028</ele>
        <time>2026-08-15T04:21:58.000Z</time>
      </trkpt>
      <trkpt lat="22.981543" lon="109.444386">
        <ele>65.806196</ele>
        <time>2026-08-15T04:21:59.000Z</time>
      </trkpt>
      <trkpt lat="22.981576" lon="109.444405">
        <ele>65.843478</ele>
        <time>2026-08-15T04:22:00.000Z</time>
      </trkpt>
      <trkpt lat="22.981610" lon="109.444422">
        <ele>65.880841</ele>
        <time>2026-08-15T04:22:01.000Z</time>
      </trkpt>
      <trkpt lat="22.981646" lon="109.444441">
        <ele>65.920794</ele>
        <time>2026-08-15T04:22:02.000Z</time>
      </trkpt>
      <trkpt lat="22.981683" lon="109.444460">
        <ele>65.961647</ele>
        <time>2026-08-15T04:22:03.000Z</time>
      </trkpt>
      <trkpt lat="22.981722" lon="109.444481">
        <ele>66.005099</ele>
        <time>2026-08-15T04:22:04.000Z</time>
      </trkpt>
      <trkpt lat="22.981761" lon="109.444503">
        <ele>66.048966</ele>
        <time>2026-08-15T04:22:05.000Z</time>
      </trkpt>
      <trkpt lat="22.981802" lon="109.444525">
        <ele>66.094614</ele>
        <time>2026-08-15T04:22:06.000Z</time>
      </trkpt>
      <trkpt lat="22.981842" lon="109.444547">
        <ele>66.139370</ele>
        <time>2026-08-15T04:22:07.000Z</time>
      </trkpt>
      <trkpt lat="22.981883" lon="109.444568">
        <ele>66.184618</ele>
        <time>2026-08-15T04:22:08.000Z</time>
      </trkpt>
      <trkpt lat="22.981923" lon="109.444589">
        <ele>66.228966</ele>
        <time>2026-08-15T04:22:09.000Z</time>
      </trkpt>
      <trkpt lat="22.981965" lon="109.444611">
        <ele>66.275511</ele>
        <time>2026-08-15T04:22:10.000Z</time>
      </trkpt>
      <trkpt lat="22.982007" lon="109.444633">
        <ele>66.317297</ele>
        <time>2026-08-15T04:22:11.000Z</time>
      </trkpt>
      <trkpt lat="22.982050" lon="109.444657">
        <ele>66.359026</ele>
        <time>2026-08-15T04:22:12.000Z</time>
      </trkpt>
      <trkpt lat="22.982091" lon="109.444681">
        <ele>66.399227</ele>
        <time>2026-08-15T04:22:13.000Z</time>
      </trkpt>
      <trkpt lat="22.982134" lon="109.444703">
        <ele>66.440254</ele>
        <time>2026-08-15T04:22:14.000Z</time>
      </trkpt>
      <trkpt lat="22.982177" lon="109.444726">
        <ele>66.481625</ele>
        <time>2026-08-15T04:22:15.000Z</time>
      </trkpt>
      <trkpt lat="22.982220" lon="109.444751">
        <ele>66.523723</ele>
        <time>2026-08-15T04:22:16.000Z</time>
      </trkpt>
      <trkpt lat="22.982263" lon="109.444775">
        <ele>66.565452</ele>
        <time>2026-08-15T04:22:17.000Z</time>
      </trkpt>
      <trkpt lat="22.982307" lon="109.444798">
        <ele>66.607599</ele>
        <time>2026-08-15T04:22:18.000Z</time>
      </trkpt>
      <trkpt lat="22.982351" lon="109.444821">
        <ele>66.649747</ele>
        <time>2026-08-15T04:22:19.000Z</time>
      </trkpt>
      <trkpt lat="22.982395" lon="109.444844">
        <ele>66.691894</ele>
        <time>2026-08-15T04:22:20.000Z</time>
      </trkpt>
      <trkpt lat="22.982437" lon="109.444867">
        <ele>66.732493</ele>
        <time>2026-08-15T04:22:21.000Z</time>
      </trkpt>
      <trkpt lat="22.982480" lon="109.444890">
        <ele>66.773865</ele>
        <time>2026-08-15T04:22:22.000Z</time>
      </trkpt>
      <trkpt lat="22.982523" lon="109.444912">
        <ele>66.814892</ele>
        <time>2026-08-15T04:22:23.000Z</time>
      </trkpt>
      <trkpt lat="22.982565" lon="109.444936">
        <ele>66.855854</ele>
        <time>2026-08-15T04:22:24.000Z</time>
      </trkpt>
      <trkpt lat="22.982607" lon="109.444959">
        <ele>66.896453</ele>
        <time>2026-08-15T04:22:25.000Z</time>
      </trkpt>
      <trkpt lat="22.982650" lon="109.444981">
        <ele>66.937480</ele>
        <time>2026-08-15T04:22:26.000Z</time>
      </trkpt>
      <trkpt lat="22.982691" lon="109.445003">
        <ele>66.976952</ele>
        <time>2026-08-15T04:22:27.000Z</time>
      </trkpt>
      <trkpt lat="22.982733" lon="109.445024">
        <ele>67.016860</ele>
        <time>2026-08-15T04:22:28.000Z</time>
      </trkpt>
      <trkpt lat="22.982776" lon="109.445045">
        <ele>67.057555</ele>
        <time>2026-08-15T04:22:29.000Z</time>
      </trkpt>
      <trkpt lat="22.982819" lon="109.445066">
        <ele>67.098249</ele>
        <time>2026-08-15T04:22:30.000Z</time>
      </trkpt>
      <trkpt lat="22.982864" lon="109.445089">
        <ele>67.141176</ele>
        <time>2026-08-15T04:22:31.000Z</time>
      </trkpt>
      <trkpt lat="22.982908" lon="109.445113">
        <ele>67.183674</ele>
        <time>2026-08-15T04:22:32.000Z</time>
      </trkpt>
      <trkpt lat="22.982952" lon="109.445135">
        <ele>67.225484</ele>
        <time>2026-08-15T04:22:33.000Z</time>
      </trkpt>
      <trkpt lat="22.982996" lon="109.445156">
        <ele>67.266967</ele>
        <time>2026-08-15T04:22:34.000Z</time>
      </trkpt>
      <trkpt lat="22.983040" lon="109.445176">
        <ele>67.308137</ele>
        <time>2026-08-15T04:22:35.000Z</time>
      </trkpt>
      <trkpt lat="22.983083" lon="109.445195">
        <ele>67.348206</ele>
        <time>2026-08-15T04:22:36.000Z</time>
      </trkpt>
      <trkpt lat="22.983123" lon="109.445213">
        <ele>67.385577</ele>
        <time>2026-08-15T04:22:37.000Z</time>
      </trkpt>
      <trkpt lat="22.983164" lon="109.445232">
        <ele>67.424053</ele>
        <time>2026-08-15T04:22:38.000Z</time>
      </trkpt>
      <trkpt lat="22.983206" lon="109.445250">
        <ele>67.463025</ele>
        <time>2026-08-15T04:22:39.000Z</time>
      </trkpt>
      <trkpt lat="22.983249" lon="109.445268">
        <ele>67.502801</ele>
        <time>2026-08-15T04:22:40.000Z</time>
      </trkpt>
      <trkpt lat="22.983291" lon="109.445285">
        <ele>67.541489</ele>
        <time>2026-08-15T04:22:41.000Z</time>
      </trkpt>
      <trkpt lat="22.983334" lon="109.445302">
        <ele>67.580986</ele>
        <time>2026-08-15T04:22:42.000Z</time>
      </trkpt>
      <trkpt lat="22.983376" lon="109.445319">
        <ele>67.619674</ele>
        <time>2026-08-15T04:22:43.000Z</time>
      </trkpt>
      <trkpt lat="22.983418" lon="109.445336">
        <ele>67.658361</ele>
        <time>2026-08-15T04:22:44.000Z</time>
      </trkpt>
      <trkpt lat="22.983460" lon="109.445352">
        <ele>67.696778</ele>
        <time>2026-08-15T04:22:45.000Z</time>
      </trkpt>
      <trkpt lat="22.983502" lon="109.445368">
        <ele>67.735196</ele>
        <time>2026-08-15T04:22:46.000Z</time>
      </trkpt>
      <trkpt lat="22.983543" lon="109.445385">
        <ele>67.773075</ele>
        <time>2026-08-15T04:22:47.000Z</time>
      </trkpt>
      <trkpt lat="22.983584" lon="109.445400">
        <ele>67.810418</ele>
        <time>2026-08-15T04:22:48.000Z</time>
      </trkpt>
      <trkpt lat="22.983625" lon="109.445416">
        <ele>67.834741</ele>
        <time>2026-08-15T04:22:49.000Z</time>
      </trkpt>
      <trkpt lat="22.983666" lon="109.445432">
        <ele>67.814530</ele>
        <time>2026-08-15T04:22:50.000Z</time>
      </trkpt>
      <trkpt lat="22.983707" lon="109.445446">
        <ele>67.794592</ele>
        <time>2026-08-15T04:22:51.000Z</time>
      </trkpt>
      <trkpt lat="22.983747" lon="109.445461">
        <ele>67.774960</ele>
        <time>2026-08-15T04:22:52.000Z</time>
      </trkpt>
      <trkpt lat="22.983788" lon="109.445477">
        <ele>67.754749</ele>
        <time>2026-08-15T04:22:53.000Z</time>
      </trkpt>
      <trkpt lat="22.983828" lon="109.445491">
        <ele>67.735253</ele>
        <time>2026-08-15T04:22:54.000Z</time>
      </trkpt>
      <trkpt lat="22.983868" lon="109.445507">
        <ele>67.715478</ele>
        <time>2026-08-15T04:22:55.000Z</time>
      </trkpt>
      <trkpt lat="22.983909" lon="109.445524">
        <ele>67.695118</ele>
        <time>2026-08-15T04:22:56.000Z</time>
      </trkpt>
      <trkpt lat="22.983951" lon="109.445540">
        <ele>67.674470</ele>
        <time>2026-08-15T04:22:57.000Z</time>
      </trkpt>
      <trkpt lat="22.983993" lon="109.445554">
        <ele>67.654089</ele>
        <time>2026-08-15T04:22:58.000Z</time>
      </trkpt>
      <trkpt lat="22.984037" lon="109.445570">
        <ele>67.632563</ele>
        <time>2026-08-15T04:22:59.000Z</time>
      </trkpt>
      <trkpt lat="22.984081" lon="109.445586">
        <ele>67.611037</ele>
        <time>2026-08-15T04:23:00.000Z</time>
      </trkpt>
      <trkpt lat="22.984126" lon="109.445601">
        <ele>67.589200</ele>
        <time>2026-08-15T04:23:01.000Z</time>
      </trkpt>
      <trkpt lat="22.984171" lon="109.445617">
        <ele>67.567233</ele>
        <time>2026-08-15T04:23:02.000Z</time>
      </trkpt>
      <trkpt lat="22.984217" lon="109.445633">
        <ele>67.544825</ele>
        <time>2026-08-15T04:23:03.000Z</time>
      </trkpt>
      <trkpt lat="22.984263" lon="109.445650">
        <ele>67.522284</ele>
        <time>2026-08-15T04:23:04.000Z</time>
      </trkpt>
      <trkpt lat="22.984308" lon="109.445667">
        <ele>67.500181</ele>
        <time>2026-08-15T04:23:05.000Z</time>
      </trkpt>
      <trkpt lat="22.984353" lon="109.445684">
        <ele>67.478078</ele>
        <time>2026-08-15T04:23:06.000Z</time>
      </trkpt>
      <trkpt lat="22.984399" lon="109.445701">
        <ele>67.455536</ele>
        <time>2026-08-15T04:23:07.000Z</time>
      </trkpt>
      <trkpt lat="22.984447" lon="109.445718">
        <ele>67.432114</ele>
        <time>2026-08-15T04:23:08.000Z</time>
      </trkpt>
      <trkpt lat="22.984494" lon="109.445737">
        <ele>67.408849</ele>
        <time>2026-08-15T04:23:09.000Z</time>
      </trkpt>
      <trkpt lat="22.984543" lon="109.445756">
        <ele>67.384712</ele>
        <time>2026-08-15T04:23:10.000Z</time>
      </trkpt>
      <trkpt lat="22.984591" lon="109.445775">
        <ele>67.361011</ele>
        <time>2026-08-15T04:23:11.000Z</time>
      </trkpt>
      <trkpt lat="22.984640" lon="109.445795">
        <ele>67.336727</ele>
        <time>2026-08-15T04:23:12.000Z</time>
      </trkpt>
      <trkpt lat="22.984692" lon="109.445814">
        <ele>67.311275</ele>
        <time>2026-08-15T04:23:13.000Z</time>
      </trkpt>
      <trkpt lat="22.984744" lon="109.445832">
        <ele>67.285956</ele>
        <time>2026-08-15T04:23:14.000Z</time>
      </trkpt>
      <trkpt lat="22.984800" lon="109.445850">
        <ele>67.258863</ele>
        <time>2026-08-15T04:23:15.000Z</time>
      </trkpt>
      <trkpt lat="22.984857" lon="109.445869">
        <ele>67.231202</ele>
        <time>2026-08-15T04:23:16.000Z</time>
      </trkpt>
      <trkpt lat="22.984916" lon="109.445889">
        <ele>67.202529</ele>
        <time>2026-08-15T04:23:17.000Z</time>
      </trkpt>
      <trkpt lat="22.984975" lon="109.445910">
        <ele>67.173726</ele>
        <time>2026-08-15T04:23:18.000Z</time>
      </trkpt>
      <trkpt lat="22.985034" lon="109.445930">
        <ele>67.145053</ele>
        <time>2026-08-15T04:23:19.000Z</time>
      </trkpt>
      <trkpt lat="22.985092" lon="109.445947">
        <ele>67.117183</ele>
        <time>2026-08-15T04:23:20.000Z</time>
      </trkpt>
      <trkpt lat="22.985149" lon="109.445964">
        <ele>67.089761</ele>
        <time>2026-08-15T04:23:21.000Z</time>
      </trkpt>
      <trkpt lat="22.985205" lon="109.445979">
        <ele>67.063003</ele>
        <time>2026-08-15T04:23:22.000Z</time>
      </trkpt>
      <trkpt lat="22.985261" lon="109.445994">
        <ele>67.036245</ele>
        <time>2026-08-15T04:23:23.000Z</time>
      </trkpt>
      <trkpt lat="22.985318" lon="109.446008">
        <ele>67.009134</ele>
        <time>2026-08-15T04:23:24.000Z</time>
      </trkpt>
      <trkpt lat="22.985373" lon="109.446019">
        <ele>66.991060</ele>
        <time>2026-08-15T04:23:25.000Z</time>
      </trkpt>
      <trkpt lat="22.985427" lon="109.446031">
        <ele>66.974735</ele>
        <time>2026-08-15T04:23:26.000Z</time>
      </trkpt>
      <trkpt lat="22.985487" lon="109.446053">
        <ele>66.955979</ele>
        <time>2026-08-15T04:23:27.000Z</time>
      </trkpt>
      <trkpt lat="22.985547" lon="109.446074">
        <ele>66.937309</ele>
        <time>2026-08-15T04:23:28.000Z</time>
      </trkpt>
      <trkpt lat="22.985605" lon="109.446092">
        <ele>66.919443</ele>
        <time>2026-08-15T04:23:29.000Z</time>
      </trkpt>
      <trkpt lat="22.985660" lon="109.446105">
        <ele>66.902772</ele>
        <time>2026-08-15T04:23:30.000Z</time>
      </trkpt>
      <trkpt lat="22.985710" lon="109.446111">
        <ele>66.887873</ele>
        <time>2026-08-15T04:23:31.000Z</time>
      </trkpt>
      <trkpt lat="22.985759" lon="109.446118">
        <ele>66.873236</ele>
        <time>2026-08-15T04:23:32.000Z</time>
      </trkpt>
      <trkpt lat="22.985807" lon="109.446126">
        <ele>66.858853</ele>
        <time>2026-08-15T04:23:33.000Z</time>
      </trkpt>
      <trkpt lat="22.985856" lon="109.446132">
        <ele>66.844248</ele>
        <time>2026-08-15T04:23:34.000Z</time>
      </trkpt>
      <trkpt lat="22.985907" lon="109.446140">
        <ele>66.828986</ele>
        <time>2026-08-15T04:23:35.000Z</time>
      </trkpt>
      <trkpt lat="22.985958" lon="109.446151">
        <ele>66.813586</ele>
        <time>2026-08-15T04:23:36.000Z</time>
      </trkpt>
      <trkpt lat="22.986008" lon="109.446162">
        <ele>66.798477</ele>
        <time>2026-08-15T04:23:37.000Z</time>
      </trkpt>
      <trkpt lat="22.986060" lon="109.446175">
        <ele>66.782673</ele>
        <time>2026-08-15T04:23:38.000Z</time>
      </trkpt>
      <trkpt lat="22.986112" lon="109.446195">
        <ele>66.766334</ele>
        <time>2026-08-15T04:23:39.000Z</time>
      </trkpt>
      <trkpt lat="22.986162" lon="109.446212">
        <ele>66.750817</ele>
        <time>2026-08-15T04:23:40.000Z</time>
      </trkpt>
      <trkpt lat="22.986212" lon="109.446229">
        <ele>66.735300</ele>
        <time>2026-08-15T04:23:41.000Z</time>
      </trkpt>
      <trkpt lat="22.986260" lon="109.446242">
        <ele>66.720648</ele>
        <time>2026-08-15T04:23:42.000Z</time>
      </trkpt>
      <trkpt lat="22.986308" lon="109.446254">
        <ele>66.706060</ele>
        <time>2026-08-15T04:23:43.000Z</time>
      </trkpt>
      <trkpt lat="22.986358" lon="109.446267">
        <ele>66.690832</ele>
        <time>2026-08-15T04:23:44.000Z</time>
      </trkpt>
      <trkpt lat="22.986412" lon="109.446285">
        <ele>66.674103</ele>
        <time>2026-08-15T04:23:45.000Z</time>
      </trkpt>
      <trkpt lat="22.986464" lon="109.446297">
        <ele>66.658358</ele>
        <time>2026-08-15T04:23:46.000Z</time>
      </trkpt>
      <trkpt lat="22.986519" lon="109.446312">
        <ele>66.641562</ele>
        <time>2026-08-15T04:23:47.000Z</time>
      </trkpt>
      <trkpt lat="22.986573" lon="109.446326">
        <ele>66.625119</ele>
        <time>2026-08-15T04:23:48.000Z</time>
      </trkpt>
      <trkpt lat="22.986627" lon="109.446337">
        <ele>66.608847</ele>
        <time>2026-08-15T04:23:49.000Z</time>
      </trkpt>
      <trkpt lat="22.986679" lon="109.446348">
        <ele>66.593156</ele>
        <time>2026-08-15T04:23:50.000Z</time>
      </trkpt>
      <trkpt lat="22.986733" lon="109.446358">
        <ele>66.576932</ele>
        <time>2026-08-15T04:23:51.000Z</time>
      </trkpt>
      <trkpt lat="22.986787" lon="109.446369">
        <ele>66.560660</ele>
        <time>2026-08-15T04:23:52.000Z</time>
      </trkpt>
      <trkpt lat="22.986840" lon="109.446380">
        <ele>66.544678</ele>
        <time>2026-08-15T04:23:53.000Z</time>
      </trkpt>
      <trkpt lat="22.986894" lon="109.446390">
        <ele>66.528454</ele>
        <time>2026-08-15T04:23:54.000Z</time>
      </trkpt>
      <trkpt lat="22.986949" lon="109.446401">
        <ele>66.511890</ele>
        <time>2026-08-15T04:23:55.000Z</time>
      </trkpt>
      <trkpt lat="22.987002" lon="109.446409">
        <ele>66.496042</ele>
        <time>2026-08-15T04:23:56.000Z</time>
      </trkpt>
      <trkpt lat="22.987056" lon="109.446417">
        <ele>66.479900</ele>
        <time>2026-08-15T04:23:57.000Z</time>
      </trkpt>
      <trkpt lat="22.987110" lon="109.446425">
        <ele>66.489016</ele>
        <time>2026-08-15T04:23:58.000Z</time>
      </trkpt>
      <trkpt lat="22.987166" lon="109.446433">
        <ele>66.522122</ele>
        <time>2026-08-15T04:23:59.000Z</time>
      </trkpt>
      <trkpt lat="22.987222" lon="109.446440">
        <ele>66.555163</ele>
        <time>2026-08-15T04:24:00.000Z</time>
      </trkpt>
      <trkpt lat="22.987278" lon="109.446445">
        <ele>66.588097</ele>
        <time>2026-08-15T04:24:01.000Z</time>
      </trkpt>
      <trkpt lat="22.987332" lon="109.446449">
        <ele>66.619822</ele>
        <time>2026-08-15T04:24:02.000Z</time>
      </trkpt>
      <trkpt lat="22.987386" lon="109.446454">
        <ele>66.651588</ele>
        <time>2026-08-15T04:24:03.000Z</time>
      </trkpt>
      <trkpt lat="22.987439" lon="109.446460">
        <ele>66.682822</ele>
        <time>2026-08-15T04:24:04.000Z</time>
      </trkpt>
      <trkpt lat="22.987492" lon="109.446467">
        <ele>66.714116</ele>
        <time>2026-08-15T04:24:05.000Z</time>
      </trkpt>
      <trkpt lat="22.987546" lon="109.446474">
        <ele>66.745992</ele>
        <time>2026-08-15T04:24:06.000Z</time>
      </trkpt>
      <trkpt lat="22.987601" lon="109.446479">
        <ele>66.778342</ele>
        <time>2026-08-15T04:24:07.000Z</time>
      </trkpt>
      <trkpt lat="22.987652" lon="109.446484">
        <ele>66.808357</ele>
        <time>2026-08-15T04:24:08.000Z</time>
      </trkpt>
      <trkpt lat="22.987702" lon="109.446488">
        <ele>66.837743</ele>
        <time>2026-08-15T04:24:09.000Z</time>
      </trkpt>
      <trkpt lat="22.987754" lon="109.446492">
        <ele>66.868298</ele>
        <time>2026-08-15T04:24:10.000Z</time>
      </trkpt>
      <trkpt lat="22.987805" lon="109.446496">
        <ele>66.898269</ele>
        <time>2026-08-15T04:24:11.000Z</time>
      </trkpt>
      <trkpt lat="22.987854" lon="109.446499">
        <ele>66.927035</ele>
        <time>2026-08-15T04:24:12.000Z</time>
      </trkpt>
      <trkpt lat="22.987902" lon="109.446503">
        <ele>66.955253</ele>
        <time>2026-08-15T04:24:13.000Z</time>
      </trkpt>
      <trkpt lat="22.987952" lon="109.446506">
        <ele>66.984604</ele>
        <time>2026-08-15T04:24:14.000Z</time>
      </trkpt>
      <trkpt lat="22.987998" lon="109.446510">
        <ele>67.011653</ele>
        <time>2026-08-15T04:24:15.000Z</time>
      </trkpt>
      <trkpt lat="22.988044" lon="109.446513">
        <ele>67.038664</ele>
        <time>2026-08-15T04:24:16.000Z</time>
      </trkpt>
      <trkpt lat="22.988089" lon="109.446516">
        <ele>67.065089</ele>
        <time>2026-08-15T04:24:17.000Z</time>
      </trkpt>
      <trkpt lat="22.988133" lon="109.446518">
        <ele>67.090902</ele>
        <time>2026-08-15T04:24:18.000Z</time>
      </trkpt>
      <trkpt lat="22.988175" lon="109.446521">
        <ele>67.115573</ele>
        <time>2026-08-15T04:24:19.000Z</time>
      </trkpt>
      <trkpt lat="22.988216" lon="109.446523">
        <ele>67.139629</ele>
        <time>2026-08-15T04:24:20.000Z</time>
      </trkpt>
      <trkpt lat="22.988256" lon="109.446526">
        <ele>67.163130</ele>
        <time>2026-08-15T04:24:21.000Z</time>
      </trkpt>
      <trkpt lat="22.988294" lon="109.446530">
        <ele>67.185508</ele>
        <time>2026-08-15T04:24:22.000Z</time>
      </trkpt>
      <trkpt lat="22.988333" lon="109.446531">
        <ele>67.208373</ele>
        <time>2026-08-15T04:24:23.000Z</time>
      </trkpt>
      <trkpt lat="22.988371" lon="109.446532">
        <ele>67.230653</ele>
        <time>2026-08-15T04:24:24.000Z</time>
      </trkpt>
      <trkpt lat="22.988407" lon="109.446532">
        <ele>67.251754</ele>
        <time>2026-08-15T04:24:25.000Z</time>
      </trkpt>
      <trkpt lat="22.988443" lon="109.446533">
        <ele>67.272862</ele>
        <time>2026-08-15T04:24:26.000Z</time>
      </trkpt>
      <trkpt lat="22.988480" lon="109.446534">
        <ele>67.294556</ele>
        <time>2026-08-15T04:24:27.000Z</time>
      </trkpt>
      <trkpt lat="22.988516" lon="109.446534">
        <ele>67.315657</ele>
        <time>2026-08-15T04:24:28.000Z</time>
      </trkpt>
      <trkpt lat="22.988553" lon="109.446533">
        <ele>67.337350</ele>
        <time>2026-08-15T04:24:29.000Z</time>
      </trkpt>
      <trkpt lat="22.988592" lon="109.446532">
        <ele>67.360216</ele>
        <time>2026-08-15T04:24:30.000Z</time>
      </trkpt>
      <trkpt lat="22.988628" lon="109.446531">
        <ele>67.381324</ele>
        <time>2026-08-15T04:24:31.000Z</time>
      </trkpt>
      <trkpt lat="22.988664" lon="109.446529">
        <ele>67.402453</ele>
        <time>2026-08-15T04:24:32.000Z</time>
      </trkpt>
      <trkpt lat="22.988702" lon="109.446527">
        <ele>67.424752</ele>
        <time>2026-08-15T04:24:33.000Z</time>
      </trkpt>
      <trkpt lat="22.988739" lon="109.446524">
        <ele>67.446499</ele>
        <time>2026-08-15T04:24:34.000Z</time>
      </trkpt>
      <trkpt lat="22.988779" lon="109.446520">
        <ele>67.470044</ele>
        <time>2026-08-15T04:24:35.000Z</time>
      </trkpt>
      <trkpt lat="22.988820" lon="109.446515">
        <ele>67.494227</ele>
        <time>2026-08-15T04:24:36.000Z</time>
      </trkpt>
      <trkpt lat="22.988861" lon="109.446509">
        <ele>67.518475</ele>
        <time>2026-08-15T04:24:37.000Z</time>
      </trkpt>
      <trkpt lat="22.988904" lon="109.446503">
        <ele>67.512160</ele>
        <time>2026-08-15T04:24:38.000Z</time>
      </trkpt>
      <trkpt lat="22.988947" lon="109.446498">
        <ele>67.491283</ele>
        <time>2026-08-15T04:24:39.000Z</time>
      </trkpt>
      <trkpt lat="22.988994" lon="109.446489">
        <ele>67.468243</ele>
        <time>2026-08-15T04:24:40.000Z</time>
      </trkpt>
      <trkpt lat="22.989043" lon="109.446476">
        <ele>67.443892</ele>
        <time>2026-08-15T04:24:41.000Z</time>
      </trkpt>
      <trkpt lat="22.989091" lon="109.446464">
        <ele>67.420114</ele>
        <time>2026-08-15T04:24:42.000Z</time>
      </trkpt>
      <trkpt lat="22.989135" lon="109.446453">
        <ele>67.398317</ele>
        <time>2026-08-15T04:24:43.000Z</time>
      </trkpt>
      <trkpt lat="22.989181" lon="109.446439">
        <ele>67.375255</ele>
        <time>2026-08-15T04:24:44.000Z</time>
      </trkpt>
      <trkpt lat="22.989228" lon="109.446425">
        <ele>67.351728</ele>
        <time>2026-08-15T04:24:45.000Z</time>
      </trkpt>
      <trkpt lat="22.989275" lon="109.446408">
        <ele>67.327813</ele>
        <time>2026-08-15T04:24:46.000Z</time>
      </trkpt>
      <trkpt lat="22.989321" lon="109.446392">
        <ele>67.304496</ele>
        <time>2026-08-15T04:24:47.000Z</time>
      </trkpt>
      <trkpt lat="22.989369" lon="109.446376">
        <ele>67.280257</ele>
        <time>2026-08-15T04:24:48.000Z</time>
      </trkpt>
      <trkpt lat="22.989418" lon="109.446359">
        <ele>67.255424</ele>
        <time>2026-08-15T04:24:49.000Z</time>
      </trkpt>
      <trkpt lat="22.989466" lon="109.446343">
        <ele>67.231185</ele>
        <time>2026-08-15T04:24:50.000Z</time>
      </trkpt>
      <trkpt lat="22.989513" lon="109.446327">
        <ele>67.207408</ele>
        <time>2026-08-15T04:24:51.000Z</time>
      </trkpt>
      <trkpt lat="22.989562" lon="109.446311">
        <ele>67.182707</ele>
        <time>2026-08-15T04:24:52.000Z</time>
      </trkpt>
      <trkpt lat="22.989611" lon="109.446294">
        <ele>67.157874</ele>
        <time>2026-08-15T04:24:53.000Z</time>
      </trkpt>
      <trkpt lat="22.989659" lon="109.446278">
        <ele>67.133635</ele>
        <time>2026-08-15T04:24:54.000Z</time>
      </trkpt>
      <trkpt lat="22.989705" lon="109.446263">
        <ele>67.110449</ele>
        <time>2026-08-15T04:24:55.000Z</time>
      </trkpt>
      <trkpt lat="22.989752" lon="109.446248">
        <ele>67.086801</ele>
        <time>2026-08-15T04:24:56.000Z</time>
      </trkpt>
      <trkpt lat="22.989803" lon="109.446231">
        <ele>67.061047</ele>
        <time>2026-08-15T04:24:57.000Z</time>
      </trkpt>
      <trkpt lat="22.989854" lon="109.446215">
        <ele>67.035420</ele>
        <time>2026-08-15T04:24:58.000Z</time>
      </trkpt>
      <trkpt lat="22.989906" lon="109.446197">
        <ele>67.009072</ele>
        <time>2026-08-15T04:24:59.000Z</time>
      </trkpt>
      <trkpt lat="22.989958" lon="109.446180">
        <ele>66.982857</ele>
        <time>2026-08-15T04:25:00.000Z</time>
      </trkpt>
      <trkpt lat="22.990008" lon="109.446162">
        <ele>66.957427</ele>
        <time>2026-08-15T04:25:01.000Z</time>
      </trkpt>
      <trkpt lat="22.990059" lon="109.446143">
        <ele>66.931399</ele>
        <time>2026-08-15T04:25:02.000Z</time>
      </trkpt>
      <trkpt lat="22.990108" lon="109.446123">
        <ele>66.906129</ele>
        <time>2026-08-15T04:25:03.000Z</time>
      </trkpt>
      <trkpt lat="22.990155" lon="109.446101">
        <ele>66.881422</ele>
        <time>2026-08-15T04:25:04.000Z</time>
      </trkpt>
      <trkpt lat="22.990205" lon="109.446082">
        <ele>66.855850</ele>
        <time>2026-08-15T04:25:05.000Z</time>
      </trkpt>
      <trkpt lat="22.990252" lon="109.446065">
        <ele>66.831936</ele>
        <time>2026-08-15T04:25:06.000Z</time>
      </trkpt>
      <trkpt lat="22.990299" lon="109.446048">
        <ele>66.808021</ele>
        <time>2026-08-15T04:25:07.000Z</time>
      </trkpt>
      <trkpt lat="22.990351" lon="109.446033">
        <ele>66.782047</ele>
        <time>2026-08-15T04:25:08.000Z</time>
      </trkpt>
      <trkpt lat="22.990404" lon="109.446019">
        <ele>66.755716</ele>
        <time>2026-08-15T04:25:09.000Z</time>
      </trkpt>
      <trkpt lat="22.990456" lon="109.446008">
        <ele>66.730140</ele>
        <time>2026-08-15T04:25:10.000Z</time>
      </trkpt>
      <trkpt lat="22.990508" lon="109.446002">
        <ele>66.704896</ele>
        <time>2026-08-15T04:25:11.000Z</time>
      </trkpt>
      <trkpt lat="22.990562" lon="109.445994">
        <ele>66.678585</ele>
        <time>2026-08-15T04:25:12.000Z</time>
      </trkpt>
      <trkpt lat="22.990612" lon="109.445985">
        <ele>66.656506</ele>
        <time>2026-08-15T04:25:13.000Z</time>
      </trkpt>
      <trkpt lat="22.990659" lon="109.445978">
        <ele>66.647082</ele>
        <time>2026-08-15T04:25:14.000Z</time>
      </trkpt>
      <trkpt lat="22.990704" lon="109.445978">
        <ele>66.638143</ele>
        <time>2026-08-15T04:25:15.000Z</time>
      </trkpt>
      <trkpt lat="22.990739" lon="109.445994">
        <ele>66.630600</ele>
        <time>2026-08-15T04:25:16.000Z</time>
      </trkpt>
      <trkpt lat="22.990766" lon="109.446022">
        <ele>66.623185</ele>
        <time>2026-08-15T04:25:17.000Z</time>
      </trkpt>
      <trkpt lat="22.990786" lon="109.446061">
        <ele>66.615021</ele>
        <time>2026-08-15T04:25:18.000Z</time>
      </trkpt>
      <trkpt lat="22.990802" lon="109.446107">
        <ele>66.606028</ele>
        <time>2026-08-15T04:25:19.000Z</time>
      </trkpt>
      <trkpt lat="22.990814" lon="109.446157">
        <ele>66.596579</ele>
        <time>2026-08-15T04:25:20.000Z</time>
      </trkpt>
      <trkpt lat="22.990830" lon="109.446209">
        <ele>66.586553</ele>
        <time>2026-08-15T04:25:21.000Z</time>
      </trkpt>
      <trkpt lat="22.990847" lon="109.446260">
        <ele>66.576634</ele>
        <time>2026-08-15T04:25:22.000Z</time>
      </trkpt>
      <trkpt lat="22.990866" lon="109.446310">
        <ele>66.566743</ele>
        <time>2026-08-15T04:25:23.000Z</time>
      </trkpt>
      <trkpt lat="22.990885" lon="109.446361">
        <ele>66.556682</ele>
        <time>2026-08-15T04:25:24.000Z</time>
      </trkpt>
      <trkpt lat="22.990902" lon="109.446413">
        <ele>66.546591</ele>
        <time>2026-08-15T04:25:25.000Z</time>
      </trkpt>
      <trkpt lat="22.990919" lon="109.446467">
        <ele>66.536155</ele>
        <time>2026-08-15T04:25:26.000Z</time>
      </trkpt>
      <trkpt lat="22.990936" lon="109.446519">
        <ele>66.526064</ele>
        <time>2026-08-15T04:25:27.000Z</time>
      </trkpt>
      <trkpt lat="22.990954" lon="109.446572">
        <ele>66.515733</ele>
        <time>2026-08-15T04:25:28.000Z</time>
      </trkpt>
      <trkpt lat="22.990971" lon="109.446626">
        <ele>66.505297</ele>
        <time>2026-08-15T04:25:29.000Z</time>
      </trkpt>
      <trkpt lat="22.990988" lon="109.446679">
        <ele>66.495033</ele>
        <time>2026-08-15T04:25:30.000Z</time>
      </trkpt>
      <trkpt lat="22.991005" lon="109.446731">
        <ele>66.484942</ele>
        <time>2026-08-15T04:25:31.000Z</time>
      </trkpt>
      <trkpt lat="22.991022" lon="109.446782">
        <ele>66.475024</ele>
        <time>2026-08-15T04:25:32.000Z</time>
      </trkpt>
      <trkpt lat="22.991038" lon="109.446832">
        <ele>66.465344</ele>
        <time>2026-08-15T04:25:33.000Z</time>
      </trkpt>
      <trkpt lat="22.991056" lon="109.446882">
        <ele>66.455526</ele>
        <time>2026-08-15T04:25:34.000Z</time>
      </trkpt>
      <trkpt lat="22.991073" lon="109.446932">
        <ele>66.445779</ele>
        <time>2026-08-15T04:25:35.000Z</time>
      </trkpt>
      <trkpt lat="22.991089" lon="109.446982">
        <ele>66.436099</ele>
        <time>2026-08-15T04:25:36.000Z</time>
      </trkpt>
      <trkpt lat="22.991108" lon="109.447031">
        <ele>66.426376</ele>
        <time>2026-08-15T04:25:37.000Z</time>
      </trkpt>
      <trkpt lat="22.991128" lon="109.447082">
        <ele>66.416239</ele>
        <time>2026-08-15T04:25:38.000Z</time>
      </trkpt>
      <trkpt lat="22.991148" lon="109.447134">
        <ele>66.405933</ele>
        <time>2026-08-15T04:25:39.000Z</time>
      </trkpt>
      <trkpt lat="22.991167" lon="109.447187">
        <ele>66.395532</ele>
        <time>2026-08-15T04:25:40.000Z</time>
      </trkpt>
      <trkpt lat="22.991187" lon="109.447240">
        <ele>66.385058</ele>
        <time>2026-08-15T04:25:41.000Z</time>
      </trkpt>
      <trkpt lat="22.991208" lon="109.447294">
        <ele>66.374338</ele>
        <time>2026-08-15T04:25:42.000Z</time>
      </trkpt>
      <trkpt lat="22.991229" lon="109.447349">
        <ele>66.363449</ele>
        <time>2026-08-15T04:25:43.000Z</time>
      </trkpt>
      <trkpt lat="22.991249" lon="109.447402">
        <ele>66.352975</ele>
        <time>2026-08-15T04:25:44.000Z</time>
      </trkpt>
      <trkpt lat="22.991270" lon="109.447455">
        <ele>66.342423</ele>
        <time>2026-08-15T04:25:45.000Z</time>
      </trkpt>
      <trkpt lat="22.991291" lon="109.447509">
        <ele>66.331704</ele>
        <time>2026-08-15T04:25:46.000Z</time>
      </trkpt>
      <trkpt lat="22.991314" lon="109.447562">
        <ele>66.320989</ele>
        <time>2026-08-15T04:25:47.000Z</time>
      </trkpt>
      <trkpt lat="22.991337" lon="109.447614">
        <ele>66.310439</ele>
        <time>2026-08-15T04:25:48.000Z</time>
      </trkpt>
      <trkpt lat="22.991360" lon="109.447665">
        <ele>66.308184</ele>
        <time>2026-08-15T04:25:49.000Z</time>
      </trkpt>
      <trkpt lat="22.991382" lon="109.447718">
        <ele>66.401999</ele>
        <time>2026-08-15T04:25:50.000Z</time>
      </trkpt>
      <trkpt lat="22.991403" lon="109.447771">
        <ele>66.495108</ele>
        <time>2026-08-15T04:25:51.000Z</time>
      </trkpt>
      <trkpt lat="22.991424" lon="109.447824">
        <ele>66.588216</ele>
        <time>2026-08-15T04:25:52.000Z</time>
      </trkpt>
      <trkpt lat="22.991444" lon="109.447876">
        <ele>66.679154</ele>
        <time>2026-08-15T04:25:53.000Z</time>
      </trkpt>
      <trkpt lat="22.991464" lon="109.447929">
        <ele>66.771584</ele>
        <time>2026-08-15T04:25:54.000Z</time>
      </trkpt>
      <trkpt lat="22.991483" lon="109.447983">
        <ele>66.864868</ele>
        <time>2026-08-15T04:25:55.000Z</time>
      </trkpt>
      <trkpt lat="22.991503" lon="109.448036">
        <ele>66.957297</ele>
        <time>2026-08-15T04:25:56.000Z</time>
      </trkpt>
      <trkpt lat="22.991525" lon="109.448088">
        <ele>67.049644</ele>
        <time>2026-08-15T04:25:57.000Z</time>
      </trkpt>
      <trkpt lat="22.991547" lon="109.448140">
        <ele>67.141990</ele>
        <time>2026-08-15T04:25:58.000Z</time>
      </trkpt>
      <trkpt lat="22.991569" lon="109.448192">
        <ele>67.234337</ele>
        <time>2026-08-15T04:25:59.000Z</time>
      </trkpt>
      <trkpt lat="22.991589" lon="109.448245">
        <ele>67.326766</ele>
        <time>2026-08-15T04:26:00.000Z</time>
      </trkpt>
      <trkpt lat="22.991607" lon="109.448300">
        <ele>67.420958</ele>
        <time>2026-08-15T04:26:01.000Z</time>
      </trkpt>
      <trkpt lat="22.991622" lon="109.448355">
        <ele>67.513521</ele>
        <time>2026-08-15T04:26:02.000Z</time>
      </trkpt>
      <trkpt lat="22.991636" lon="109.448409">
        <ele>67.604047</ele>
        <time>2026-08-15T04:26:03.000Z</time>
      </trkpt>
      <trkpt lat="22.991650" lon="109.448463">
        <ele>67.694573</ele>
        <time>2026-08-15T04:26:04.000Z</time>
      </trkpt>
      <trkpt lat="22.991663" lon="109.448520">
        <ele>67.789331</ele>
        <time>2026-08-15T04:26:05.000Z</time>
      </trkpt>
      <trkpt lat="22.991674" lon="109.448576">
        <ele>67.881729</ele>
        <time>2026-08-15T04:26:06.000Z</time>
      </trkpt>
      <trkpt lat="22.991684" lon="109.448632">
        <ele>67.973777</ele>
        <time>2026-08-15T04:26:07.000Z</time>
      </trkpt>
      <trkpt lat="22.991692" lon="109.448688">
        <ele>68.065222</ele>
        <time>2026-08-15T04:26:08.000Z</time>
      </trkpt>
      <trkpt lat="22.991697" lon="109.448747">
        <ele>68.160829</ele>
        <time>2026-08-15T04:26:09.000Z</time>
      </trkpt>
      <trkpt lat="22.991700" lon="109.448803">
        <ele>68.251345</ele>
        <time>2026-08-15T04:26:10.000Z</time>
      </trkpt>
      <trkpt lat="22.991701" lon="109.448857">
        <ele>68.338499</ele>
        <time>2026-08-15T04:26:11.000Z</time>
      </trkpt>
      <trkpt lat="22.991701" lon="109.448910">
        <ele>68.424022</ele>
        <time>2026-08-15T04:26:12.000Z</time>
      </trkpt>
      <trkpt lat="22.991700" lon="109.448963">
        <ele>68.509562</ele>
        <time>2026-08-15T04:26:13.000Z</time>
      </trkpt>
      <trkpt lat="22.991699" lon="109.449016">
        <ele>68.595103</ele>
        <time>2026-08-15T04:26:14.000Z</time>
      </trkpt>
      <trkpt lat="22.991701" lon="109.449066">
        <ele>68.675861</ele>
        <time>2026-08-15T04:26:15.000Z</time>
      </trkpt>
      <trkpt lat="22.991703" lon="109.449114">
        <ele>68.753395</ele>
        <time>2026-08-15T04:26:16.000Z</time>
      </trkpt>
      <trkpt lat="22.991706" lon="109.449160">
        <ele>68.827808</ele>
        <time>2026-08-15T04:26:17.000Z</time>
      </trkpt>
      <trkpt lat="22.991710" lon="109.449205">
        <ele>68.900759</ele>
        <time>2026-08-15T04:26:18.000Z</time>
      </trkpt>
      <trkpt lat="22.991714" lon="109.449249">
        <ele>68.972105</ele>
        <time>2026-08-15T04:26:19.000Z</time>
      </trkpt>
      <trkpt lat="22.991719" lon="109.449290">
        <ele>69.038842</ele>
        <time>2026-08-15T04:26:20.000Z</time>
      </trkpt>
      <trkpt lat="22.991725" lon="109.449330">
        <ele>69.104238</ele>
        <time>2026-08-15T04:26:21.000Z</time>
      </trkpt>
      <trkpt lat="22.991733" lon="109.449370">
        <ele>69.170289</ele>
        <time>2026-08-15T04:26:22.000Z</time>
      </trkpt>
      <trkpt lat="22.991740" lon="109.449408">
        <ele>69.232823</ele>
        <time>2026-08-15T04:26:23.000Z</time>
      </trkpt>
      <trkpt lat="22.991746" lon="109.449442">
        <ele>69.288686</ele>
        <time>2026-08-15T04:26:24.000Z</time>
      </trkpt>
      <trkpt lat="22.991752" lon="109.449474">
        <ele>69.341382</ele>
        <time>2026-08-15T04:26:25.000Z</time>
      </trkpt>
      <trkpt lat="22.991757" lon="109.449504">
        <ele>69.390578</ele>
        <time>2026-08-15T04:26:26.000Z</time>
      </trkpt>
      <trkpt lat="22.991763" lon="109.449533">
        <ele>69.438541</ele>
        <time>2026-08-15T04:26:27.000Z</time>
      </trkpt>
      <trkpt lat="22.991768" lon="109.449561">
        <ele>69.485957</ele>
        <time>2026-08-15T04:26:28.000Z</time>
      </trkpt>
      <trkpt lat="22.991774" lon="109.449590">
        <ele>69.536082</ele>
        <time>2026-08-15T04:26:29.000Z</time>
      </trkpt>
      <trkpt lat="22.991781" lon="109.449618">
        <ele>69.585012</ele>
        <time>2026-08-15T04:26:30.000Z</time>
      </trkpt>
      <trkpt lat="22.991788" lon="109.449646">
        <ele>69.633941</ele>
        <time>2026-08-15T04:26:31.000Z</time>
      </trkpt>
      <trkpt lat="22.991796" lon="109.449674">
        <ele>69.683382</ele>
        <time>2026-08-15T04:26:32.000Z</time>
      </trkpt>
      <trkpt lat="22.991804" lon="109.449699">
        <ele>69.728016</ele>
        <time>2026-08-15T04:26:33.000Z</time>
      </trkpt>
      <trkpt lat="22.991813" lon="109.449725">
        <ele>69.774860</ele>
        <time>2026-08-15T04:26:34.000Z</time>
      </trkpt>
      <trkpt lat="22.991822" lon="109.449752">
        <ele>69.823285</ele>
        <time>2026-08-15T04:26:35.000Z</time>
      </trkpt>
      <trkpt lat="22.991829" lon="109.449779">
        <ele>69.870589</ele>
        <time>2026-08-15T04:26:36.000Z</time>
      </trkpt>
      <trkpt lat="22.991838" lon="109.449806">
        <ele>69.919015</ele>
        <time>2026-08-15T04:26:37.000Z</time>
      </trkpt>
      <trkpt lat="22.991846" lon="109.449832">
        <ele>69.965245</ele>
        <time>2026-08-15T04:26:38.000Z</time>
      </trkpt>
      <trkpt lat="22.991855" lon="109.449858">
        <ele>70.012089</ele>
        <time>2026-08-15T04:26:39.000Z</time>
      </trkpt>
      <trkpt lat="22.991864" lon="109.449884">
        <ele>70.058932</ele>
        <time>2026-08-15T04:26:40.000Z</time>
      </trkpt>
      <trkpt lat="22.991875" lon="109.449908">
        <ele>70.104145</ele>
        <time>2026-08-15T04:26:41.000Z</time>
      </trkpt>
      <trkpt lat="22.991886" lon="109.449931">
        <ele>70.147854</ele>
        <time>2026-08-15T04:26:42.000Z</time>
      </trkpt>
      <trkpt lat="22.991897" lon="109.449957">
        <ele>70.196109</ele>
        <time>2026-08-15T04:26:43.000Z</time>
      </trkpt>
      <trkpt lat="22.991907" lon="109.449981">
        <ele>70.240535</ele>
        <time>2026-08-15T04:26:44.000Z</time>
      </trkpt>
      <trkpt lat="22.991917" lon="109.450005">
        <ele>70.284962</ele>
        <time>2026-08-15T04:26:45.000Z</time>
      </trkpt>
      <trkpt lat="22.991928" lon="109.450029">
        <ele>70.330174</ele>
        <time>2026-08-15T04:26:46.000Z</time>
      </trkpt>
      <trkpt lat="22.991937" lon="109.450051">
        <ele>70.370773</ele>
        <time>2026-08-15T04:26:47.000Z</time>
      </trkpt>
      <trkpt lat="22.991946" lon="109.450075">
        <ele>70.414476</ele>
        <time>2026-08-15T04:26:48.000Z</time>
      </trkpt>
      <trkpt lat="22.991958" lon="109.450096">
        <ele>70.456158</ele>
        <time>2026-08-15T04:26:49.000Z</time>
      </trkpt>
      <trkpt lat="22.991972" lon="109.450118">
        <ele>70.501260</ele>
        <time>2026-08-15T04:26:50.000Z</time>
      </trkpt>
      <trkpt lat="22.991984" lon="109.450143">
        <ele>70.548807</ele>
        <time>2026-08-15T04:26:51.000Z</time>
      </trkpt>
      <trkpt lat="22.991995" lon="109.450168">
        <ele>70.595535</ele>
        <time>2026-08-15T04:26:52.000Z</time>
      </trkpt>
      <trkpt lat="22.992009" lon="109.450193">
        <ele>70.644883</ele>
        <time>2026-08-15T04:26:53.000Z</time>
      </trkpt>
      <trkpt lat="22.992023" lon="109.450216">
        <ele>70.691382</ele>
        <time>2026-08-15T04:26:54.000Z</time>
      </trkpt>
      <trkpt lat="22.992038" lon="109.450239">
        <ele>70.738916</ele>
        <time>2026-08-15T04:26:55.000Z</time>
      </trkpt>
      <trkpt lat="22.992051" lon="109.450265">
        <ele>70.788813</ele>
        <time>2026-08-15T04:26:56.000Z</time>
      </trkpt>
      <trkpt lat="22.992067" lon="109.450289">
        <ele>70.838785</ele>
        <time>2026-08-15T04:26:57.000Z</time>
      </trkpt>
      <trkpt lat="22.992085" lon="109.450311">
        <ele>70.888421</ele>
        <time>2026-08-15T04:26:58.000Z</time>
      </trkpt>
      <trkpt lat="22.992105" lon="109.450332">
        <ele>70.939377</ele>
        <time>2026-08-15T04:26:59.000Z</time>
      </trkpt>
      <trkpt lat="22.992123" lon="109.450353">
        <ele>70.987766</ele>
        <time>2026-08-15T04:27:00.000Z</time>
      </trkpt>
      <trkpt lat="22.992141" lon="109.450375">
        <ele>71.037402</ele>
        <time>2026-08-15T04:27:01.000Z</time>
      </trkpt>
      <trkpt lat="22.992158" lon="109.450396">
        <ele>71.084562</ele>
        <time>2026-08-15T04:27:02.000Z</time>
      </trkpt>
      <trkpt lat="22.992175" lon="109.450417">
        <ele>71.131722</ele>
        <time>2026-08-15T04:27:03.000Z</time>
      </trkpt>
      <trkpt lat="22.992193" lon="109.450437">
        <ele>71.178890</ele>
        <time>2026-08-15T04:27:04.000Z</time>
      </trkpt>
      <trkpt lat="22.992210" lon="109.450460">
        <ele>71.228632</ele>
        <time>2026-08-15T04:27:05.000Z</time>
      </trkpt>
      <trkpt lat="22.992228" lon="109.450482">
        <ele>71.278269</ele>
        <time>2026-08-15T04:27:06.000Z</time>
      </trkpt>
      <trkpt lat="22.992248" lon="109.450503">
        <ele>71.329225</ele>
        <time>2026-08-15T04:27:07.000Z</time>
      </trkpt>
      <trkpt lat="22.992268" lon="109.450526">
        <ele>71.382580</ele>
        <time>2026-08-15T04:27:08.000Z</time>
      </trkpt>
      <trkpt lat="22.992289" lon="109.450549">
        <ele>71.437210</ele>
        <time>2026-08-15T04:27:09.000Z</time>
      </trkpt>
      <trkpt lat="22.992312" lon="109.450573">
        <ele>71.495634</ele>
        <time>2026-08-15T04:27:10.000Z</time>
      </trkpt>
      <trkpt lat="22.992337" lon="109.450598">
        <ele>71.557882</ele>
        <time>2026-08-15T04:27:11.000Z</time>
      </trkpt>
      <trkpt lat="22.992362" lon="109.450623">
        <ele>71.620131</ele>
        <time>2026-08-15T04:27:12.000Z</time>
      </trkpt>
      <trkpt lat="22.992389" lon="109.450649">
        <ele>71.686229</ele>
        <time>2026-08-15T04:27:13.000Z</time>
      </trkpt>
      <trkpt lat="22.992418" lon="109.450676">
        <ele>71.756197</ele>
        <time>2026-08-15T04:27:14.000Z</time>
      </trkpt>
      <trkpt lat="22.992447" lon="109.450706">
        <ele>71.829558</ele>
        <time>2026-08-15T04:27:15.000Z</time>
      </trkpt>
      <trkpt lat="22.992475" lon="109.450738">
        <ele>71.904010</ele>
        <time>2026-08-15T04:27:16.000Z</time>
      </trkpt>
      <trkpt lat="22.992508" lon="109.450771">
        <ele>71.986178</ele>
        <time>2026-08-15T04:27:17.000Z</time>
      </trkpt>
      <trkpt lat="22.992542" lon="109.450806">
        <ele>72.071988</ele>
        <time>2026-08-15T04:27:18.000Z</time>
      </trkpt>
      <trkpt lat="22.992575" lon="109.450846">
        <ele>72.162568</ele>
        <time>2026-08-15T04:27:19.000Z</time>
      </trkpt>
      <trkpt lat="22.992609" lon="109.450888">
        <ele>72.256887</ele>
        <time>2026-08-15T04:27:20.000Z</time>
      </trkpt>
      <trkpt lat="22.992645" lon="109.450931">
        <ele>72.354905</ele>
        <time>2026-08-15T04:27:21.000Z</time>
      </trkpt>
      <trkpt lat="22.992681" lon="109.450976">
        <ele>72.455445</ele>
        <time>2026-08-15T04:27:22.000Z</time>
      </trkpt>
      <trkpt lat="22.992716" lon="109.451023">
        <ele>72.557391</ele>
        <time>2026-08-15T04:27:23.000Z</time>
      </trkpt>
      <trkpt lat="22.992752" lon="109.451070">
        <ele>72.660500</ele>
        <time>2026-08-15T04:27:24.000Z</time>
      </trkpt>
      <trkpt lat="22.992789" lon="109.451117">
        <ele>72.733215</ele>
        <time>2026-08-15T04:27:25.000Z</time>
      </trkpt>
      <trkpt lat="22.992825" lon="109.451162">
        <ele>72.637000</ele>
        <time>2026-08-15T04:27:26.000Z</time>
      </trkpt>
      <trkpt lat="22.992860" lon="109.451208">
        <ele>72.540687</ele>
        <time>2026-08-15T04:27:27.000Z</time>
      </trkpt>
      <trkpt lat="22.992895" lon="109.451251">
        <ele>72.448055</ele>
        <time>2026-08-15T04:27:28.000Z</time>
      </trkpt>
      <trkpt lat="22.992932" lon="109.451293">
        <ele>72.354236</ele>
        <time>2026-08-15T04:27:29.000Z</time>
      </trkpt>
      <trkpt lat="22.992967" lon="109.451334">
        <ele>72.263997</ele>
        <time>2026-08-15T04:27:30.000Z</time>
      </trkpt>
      <trkpt lat="22.993002" lon="109.451375">
        <ele>72.173757</ele>
        <time>2026-08-15T04:27:31.000Z</time>
      </trkpt>
      <trkpt lat="22.993037" lon="109.451414">
        <ele>72.085857</ele>
        <time>2026-08-15T04:27:32.000Z</time>
      </trkpt>
      <trkpt lat="22.993074" lon="109.451451">
        <ele>71.997691</ele>
        <time>2026-08-15T04:27:33.000Z</time>
      </trkpt>
      <trkpt lat="22.993111" lon="109.451486">
        <ele>71.911679</ele>
        <time>2026-08-15T04:27:34.000Z</time>
      </trkpt>
      <trkpt lat="22.993150" lon="109.451520">
        <ele>71.824012</ele>
        <time>2026-08-15T04:27:35.000Z</time>
      </trkpt>
      <trkpt lat="22.993191" lon="109.451554">
        <ele>71.733583</ele>
        <time>2026-08-15T04:27:36.000Z</time>
      </trkpt>
      <trkpt lat="22.993233" lon="109.451586">
        <ele>71.643646</ele>
        <time>2026-08-15T04:27:37.000Z</time>
      </trkpt>
      <trkpt lat="22.993275" lon="109.451615">
        <ele>71.556400</ele>
        <time>2026-08-15T04:27:38.000Z</time>
      </trkpt>
      <trkpt lat="22.993318" lon="109.451641">
        <ele>71.470124</ele>
        <time>2026-08-15T04:27:39.000Z</time>
      </trkpt>
      <trkpt lat="22.993362" lon="109.451667">
        <ele>71.382313</ele>
        <time>2026-08-15T04:27:40.000Z</time>
      </trkpt>
      <trkpt lat="22.993405" lon="109.451691">
        <ele>71.297560</ele>
        <time>2026-08-15T04:27:41.000Z</time>
      </trkpt>
      <trkpt lat="22.993448" lon="109.451716">
        <ele>71.212057</ele>
        <time>2026-08-15T04:27:42.000Z</time>
      </trkpt>
      <trkpt lat="22.993490" lon="109.451739">
        <ele>71.129599</ele>
        <time>2026-08-15T04:27:43.000Z</time>
      </trkpt>
      <trkpt lat="22.993531" lon="109.451763">
        <ele>71.047949</ele>
        <time>2026-08-15T04:27:44.000Z</time>
      </trkpt>
      <trkpt lat="22.993573" lon="109.451788">
        <ele>70.963989</ele>
        <time>2026-08-15T04:27:45.000Z</time>
      </trkpt>
      <trkpt lat="22.993616" lon="109.451813">
        <ele>70.878486</ele>
        <time>2026-08-15T04:27:46.000Z</time>
      </trkpt>
      <trkpt lat="22.993659" lon="109.451839">
        <ele>70.792211</ele>
        <time>2026-08-15T04:27:47.000Z</time>
      </trkpt>
      <trkpt lat="22.993703" lon="109.451867">
        <ele>70.702812</ele>
        <time>2026-08-15T04:27:48.000Z</time>
      </trkpt>
      <trkpt lat="22.993748" lon="109.451897">
        <ele>70.610249</ele>
        <time>2026-08-15T04:27:49.000Z</time>
      </trkpt>
      <trkpt lat="22.993794" lon="109.451928">
        <ele>70.515347</ele>
        <time>2026-08-15T04:27:50.000Z</time>
      </trkpt>
      <trkpt lat="22.993841" lon="109.451960">
        <ele>70.418104</ele>
        <time>2026-08-15T04:27:51.000Z</time>
      </trkpt>
      <trkpt lat="22.993888" lon="109.451995">
        <ele>70.318205</ele>
        <time>2026-08-15T04:27:52.000Z</time>
      </trkpt>
      <trkpt lat="22.993934" lon="109.452035">
        <ele>70.214906</ele>
        <time>2026-08-15T04:27:53.000Z</time>
      </trkpt>
      <trkpt lat="22.993978" lon="109.452078">
        <ele>70.111148</ele>
        <time>2026-08-15T04:27:54.000Z</time>
      </trkpt>
      <trkpt lat="22.994024" lon="109.452125">
        <ele>70.000437</ele>
        <time>2026-08-15T04:27:55.000Z</time>
      </trkpt>
      <trkpt lat="22.994070" lon="109.452173">
        <ele>69.888615</ele>
        <time>2026-08-15T04:27:56.000Z</time>
      </trkpt>
      <trkpt lat="22.994115" lon="109.452225">
        <ele>69.773436</ele>
        <time>2026-08-15T04:27:57.000Z</time>
      </trkpt>
      <trkpt lat="22.994162" lon="109.452282">
        <ele>69.649940</ele>
        <time>2026-08-15T04:27:58.000Z</time>
      </trkpt>
      <trkpt lat="22.994209" lon="109.452346">
        <ele>69.464130</ele>
        <time>2026-08-15T04:27:59.000Z</time>
      </trkpt>
      <trkpt lat="22.994256" lon="109.452415">
        <ele>69.229750</ele>
        <time>2026-08-15T04:28:00.000Z</time>
      </trkpt>
      <trkpt lat="22.994302" lon="109.452486">
        <ele>68.992679</ele>
        <time>2026-08-15T04:28:01.000Z</time>
      </trkpt>
      <trkpt lat="22.994344" lon="109.452562">
        <ele>68.750633</ele>
        <time>2026-08-15T04:28:02.000Z</time>
      </trkpt>
      <trkpt lat="22.994379" lon="109.452647">
        <ele>68.496375</ele>
        <time>2026-08-15T04:28:03.000Z</time>
      </trkpt>
      <trkpt lat="22.994405" lon="109.452738">
        <ele>68.236201</ele>
        <time>2026-08-15T04:28:04.000Z</time>
      </trkpt>
      <trkpt lat="22.994420" lon="109.452829">
        <ele>67.983769</ele>
        <time>2026-08-15T04:28:05.000Z</time>
      </trkpt>
      <trkpt lat="22.994428" lon="109.452919">
        <ele>67.736877</ele>
        <time>2026-08-15T04:28:06.000Z</time>
      </trkpt>
      <trkpt lat="22.994430" lon="109.453008">
        <ele>67.493785</ele>
        <time>2026-08-15T04:28:07.000Z</time>
      </trkpt>
      <trkpt lat="22.994431" lon="109.453095">
        <ele>67.256209</ele>
        <time>2026-08-15T04:28:08.000Z</time>
      </trkpt>
      <trkpt lat="22.994432" lon="109.453182">
        <ele>67.018632</ele>
        <time>2026-08-15T04:28:09.000Z</time>
      </trkpt>
      <trkpt lat="22.994435" lon="109.453266">
        <ele>66.789094</ele>
        <time>2026-08-15T04:28:10.000Z</time>
      </trkpt>
      <trkpt lat="22.994437" lon="109.453350">
        <ele>66.559651</ele>
        <time>2026-08-15T04:28:11.000Z</time>
      </trkpt>
      <trkpt lat="22.994440" lon="109.453433">
        <ele>66.332841</ele>
        <time>2026-08-15T04:28:12.000Z</time>
      </trkpt>
      <trkpt lat="22.994449" lon="109.453515">
        <ele>66.107350</ele>
        <time>2026-08-15T04:28:13.000Z</time>
      </trkpt>
      <trkpt lat="22.994460" lon="109.453597">
        <ele>65.881080</ele>
        <time>2026-08-15T04:28:14.000Z</time>
      </trkpt>
      <trkpt lat="22.994475" lon="109.453677">
        <ele>65.658150</ele>
        <time>2026-08-15T04:28:15.000Z</time>
      </trkpt>
      <trkpt lat="22.994494" lon="109.453756">
        <ele>65.435196</ele>
        <time>2026-08-15T04:28:16.000Z</time>
      </trkpt>
      <trkpt lat="22.994517" lon="109.453834">
        <ele>65.211553</ele>
        <time>2026-08-15T04:28:17.000Z</time>
      </trkpt>
      <trkpt lat="22.994541" lon="109.453911">
        <ele>64.989576</ele>
        <time>2026-08-15T04:28:18.000Z</time>
      </trkpt>
      <trkpt lat="22.994568" lon="109.453987">
        <ele>64.767136</ele>
        <time>2026-08-15T04:28:19.000Z</time>
      </trkpt>
      <trkpt lat="22.994598" lon="109.454061">
        <ele>64.546349</ele>
        <time>2026-08-15T04:28:20.000Z</time>
      </trkpt>
      <trkpt lat="22.994631" lon="109.454133">
        <ele>64.326729</ele>
        <time>2026-08-15T04:28:21.000Z</time>
      </trkpt>
      <trkpt lat="22.994665" lon="109.454203">
        <ele>64.147985</ele>
        <time>2026-08-15T04:28:22.000Z</time>
      </trkpt>
      <trkpt lat="22.994702" lon="109.454271">
        <ele>63.986184</ele>
        <time>2026-08-15T04:28:23.000Z</time>
      </trkpt>
      <trkpt lat="22.994743" lon="109.454339">
        <ele>63.819678</ele>
        <time>2026-08-15T04:28:24.000Z</time>
      </trkpt>
      <trkpt lat="22.994786" lon="109.454403">
        <ele>63.657380</ele>
        <time>2026-08-15T04:28:25.000Z</time>
      </trkpt>
      <trkpt lat="22.994832" lon="109.454464">
        <ele>63.495857</ele>
        <time>2026-08-15T04:28:26.000Z</time>
      </trkpt>
      <trkpt lat="22.994878" lon="109.454523">
        <ele>63.337483</ele>
        <time>2026-08-15T04:28:27.000Z</time>
      </trkpt>
      <trkpt lat="22.994927" lon="109.454583">
        <ele>63.173188</ele>
        <time>2026-08-15T04:28:28.000Z</time>
      </trkpt>
      <trkpt lat="22.994976" lon="109.454641">
        <ele>63.011935</ele>
        <time>2026-08-15T04:28:29.000Z</time>
      </trkpt>
      <trkpt lat="22.995025" lon="109.454698">
        <ele>62.852185</ele>
        <time>2026-08-15T04:28:30.000Z</time>
      </trkpt>
      <trkpt lat="22.995073" lon="109.454755">
        <ele>62.693945</ele>
        <time>2026-08-15T04:28:31.000Z</time>
      </trkpt>
      <trkpt lat="22.995121" lon="109.454812">
        <ele>62.535706</ele>
        <time>2026-08-15T04:28:32.000Z</time>
      </trkpt>
      <trkpt lat="22.995170" lon="109.454868">
        <ele>62.377446</ele>
        <time>2026-08-15T04:28:33.000Z</time>
      </trkpt>
      <trkpt lat="22.995218" lon="109.454925">
        <ele>62.219207</ele>
        <time>2026-08-15T04:28:34.000Z</time>
      </trkpt>
      <trkpt lat="22.995265" lon="109.454982">
        <ele>62.062461</ele>
        <time>2026-08-15T04:28:35.000Z</time>
      </trkpt>
      <trkpt lat="22.995312" lon="109.455038">
        <ele>61.907234</ele>
        <time>2026-08-15T04:28:36.000Z</time>
      </trkpt>
      <trkpt lat="22.995359" lon="109.455091">
        <ele>61.756492</ele>
        <time>2026-08-15T04:28:37.000Z</time>
      </trkpt>
      <trkpt lat="22.995406" lon="109.455143">
        <ele>61.607218</ele>
        <time>2026-08-15T04:28:38.000Z</time>
      </trkpt>
      <trkpt lat="22.995455" lon="109.455196">
        <ele>61.453354</ele>
        <time>2026-08-15T04:28:39.000Z</time>
      </trkpt>
      <trkpt lat="22.995505" lon="109.455249">
        <ele>61.297907</ele>
        <time>2026-08-15T04:28:40.000Z</time>
      </trkpt>
      <trkpt lat="22.995555" lon="109.455301">
        <ele>61.143882</ele>
        <time>2026-08-15T04:28:41.000Z</time>
      </trkpt>
      <trkpt lat="22.995606" lon="109.455353">
        <ele>60.988243</ele>
        <time>2026-08-15T04:28:42.000Z</time>
      </trkpt>
      <trkpt lat="22.995659" lon="109.455404">
        <ele>60.830695</ele>
        <time>2026-08-15T04:28:43.000Z</time>
      </trkpt>
      <trkpt lat="22.995713" lon="109.455455">
        <ele>60.671475</ele>
        <time>2026-08-15T04:28:44.000Z</time>
      </trkpt>
      <trkpt lat="22.995767" lon="109.455506">
        <ele>60.512254</ele>
        <time>2026-08-15T04:28:45.000Z</time>
      </trkpt>
      <trkpt lat="22.995822" lon="109.455555">
        <ele>60.353977</ele>
        <time>2026-08-15T04:28:46.000Z</time>
      </trkpt>
      <trkpt lat="22.995878" lon="109.455602">
        <ele>60.230048</ele>
        <time>2026-08-15T04:28:47.000Z</time>
      </trkpt>
      <trkpt lat="22.995936" lon="109.455649">
        <ele>60.156967</ele>
        <time>2026-08-15T04:28:48.000Z</time>
      </trkpt>
      <trkpt lat="22.995993" lon="109.455697">
        <ele>60.084128</ele>
        <time>2026-08-15T04:28:49.000Z</time>
      </trkpt>
      <trkpt lat="22.996051" lon="109.455745">
        <ele>60.010488</ele>
        <time>2026-08-15T04:28:50.000Z</time>
      </trkpt>
      <trkpt lat="22.996106" lon="109.455793">
        <ele>59.939235</ele>
        <time>2026-08-15T04:28:51.000Z</time>
      </trkpt>
      <trkpt lat="22.996160" lon="109.455843">
        <ele>59.867574</ele>
        <time>2026-08-15T04:28:52.000Z</time>
      </trkpt>
      <trkpt lat="22.996210" lon="109.455894">
        <ele>59.798305</ele>
        <time>2026-08-15T04:28:53.000Z</time>
      </trkpt>
      <trkpt lat="22.996256" lon="109.455949">
        <ele>59.729218</ele>
        <time>2026-08-15T04:28:54.000Z</time>
      </trkpt>
      <trkpt lat="22.996294" lon="109.456011">
        <ele>59.659969</ele>
        <time>2026-08-15T04:28:55.000Z</time>
      </trkpt>
      <trkpt lat="22.996327" lon="109.456074">
        <ele>59.592579</ele>
        <time>2026-08-15T04:28:56.000Z</time>
      </trkpt>
      <trkpt lat="22.996356" lon="109.456138">
        <ele>59.526260</ele>
        <time>2026-08-15T04:28:57.000Z</time>
      </trkpt>
      <trkpt lat="22.996379" lon="109.456203">
        <ele>59.461518</ele>
        <time>2026-08-15T04:28:58.000Z</time>
      </trkpt>
      <trkpt lat="22.996400" lon="109.456269">
        <ele>59.396596</ele>
        <time>2026-08-15T04:28:59.000Z</time>
      </trkpt>
      <trkpt lat="22.996420" lon="109.456333">
        <ele>59.333760</ele>
        <time>2026-08-15T04:29:00.000Z</time>
      </trkpt>
      <trkpt lat="22.996438" lon="109.456398">
        <ele>59.270654</ele>
        <time>2026-08-15T04:29:01.000Z</time>
      </trkpt>
      <trkpt lat="22.996457" lon="109.456461">
        <ele>59.209019</ele>
        <time>2026-08-15T04:29:02.000Z</time>
      </trkpt>
      <trkpt lat="22.996476" lon="109.456524">
        <ele>59.147385</ele>
        <time>2026-08-15T04:29:03.000Z</time>
      </trkpt>
      <trkpt lat="22.996496" lon="109.456585">
        <ele>59.087183</ele>
        <time>2026-08-15T04:29:04.000Z</time>
      </trkpt>
      <trkpt lat="22.996517" lon="109.456646">
        <ele>59.026635</ele>
        <time>2026-08-15T04:29:05.000Z</time>
      </trkpt>
      <trkpt lat="22.996540" lon="109.456704">
        <ele>58.967922</ele>
        <time>2026-08-15T04:29:06.000Z</time>
      </trkpt>
      <trkpt lat="22.996564" lon="109.456764">
        <ele>58.907101</ele>
        <time>2026-08-15T04:29:07.000Z</time>
      </trkpt>
      <trkpt lat="22.996589" lon="109.456824">
        <ele>58.845871</ele>
        <time>2026-08-15T04:29:08.000Z</time>
      </trkpt>
      <trkpt lat="22.996616" lon="109.456882">
        <ele>58.785445</ele>
        <time>2026-08-15T04:29:09.000Z</time>
      </trkpt>
      <trkpt lat="22.996645" lon="109.456940">
        <ele>58.724082</ele>
        <time>2026-08-15T04:29:10.000Z</time>
      </trkpt>
      <trkpt lat="22.996674" lon="109.456997">
        <ele>58.663534</ele>
        <time>2026-08-15T04:29:11.000Z</time>
      </trkpt>
      <trkpt lat="22.996703" lon="109.457055">
        <ele>58.602170</ele>
        <time>2026-08-15T04:29:12.000Z</time>
      </trkpt>
      <trkpt lat="22.996731" lon="109.457113">
        <ele>58.541282</ele>
        <time>2026-08-15T04:29:13.000Z</time>
      </trkpt>
      <trkpt lat="22.996760" lon="109.457172">
        <ele>58.479100</ele>
        <time>2026-08-15T04:29:14.000Z</time>
      </trkpt>
      <trkpt lat="22.996788" lon="109.457230">
        <ele>58.425645</ele>
        <time>2026-08-15T04:29:15.000Z</time>
      </trkpt>
      <trkpt lat="22.996817" lon="109.457288">
        <ele>58.383989</ele>
        <time>2026-08-15T04:29:16.000Z</time>
      </trkpt>
      <trkpt lat="22.996847" lon="109.457348">
        <ele>58.340896</ele>
        <time>2026-08-15T04:29:17.000Z</time>
      </trkpt>
      <trkpt lat="22.996876" lon="109.457407">
        <ele>58.298684</ele>
        <time>2026-08-15T04:29:18.000Z</time>
      </trkpt>
      <trkpt lat="22.996906" lon="109.457466">
        <ele>58.256146</ele>
        <time>2026-08-15T04:29:19.000Z</time>
      </trkpt>
      <trkpt lat="22.996937" lon="109.457524">
        <ele>58.213818</ele>
        <time>2026-08-15T04:29:20.000Z</time>
      </trkpt>
      <trkpt lat="22.996966" lon="109.457584">
        <ele>58.171048</ele>
        <time>2026-08-15T04:29:21.000Z</time>
      </trkpt>
      <trkpt lat="22.996995" lon="109.457642">
        <ele>58.129392</ele>
        <time>2026-08-15T04:29:22.000Z</time>
      </trkpt>
      <trkpt lat="22.997025" lon="109.457700">
        <ele>58.087405</ele>
        <time>2026-08-15T04:29:23.000Z</time>
      </trkpt>
      <trkpt lat="22.997054" lon="109.457759">
        <ele>58.045193</ele>
        <time>2026-08-15T04:29:24.000Z</time>
      </trkpt>
      <trkpt lat="22.997082" lon="109.457816">
        <ele>58.004418</ele>
        <time>2026-08-15T04:29:25.000Z</time>
      </trkpt>
      <trkpt lat="22.997110" lon="109.457873">
        <ele>57.963643</ele>
        <time>2026-08-15T04:29:26.000Z</time>
      </trkpt>
      <trkpt lat="22.997138" lon="109.457929">
        <ele>57.923423</ele>
        <time>2026-08-15T04:29:27.000Z</time>
      </trkpt>
      <trkpt lat="22.997166" lon="109.457987">
        <ele>57.882090</ele>
        <time>2026-08-15T04:29:28.000Z</time>
      </trkpt>
      <trkpt lat="22.997192" lon="109.458044">
        <ele>57.841942</ele>
        <time>2026-08-15T04:29:29.000Z</time>
      </trkpt>
      <trkpt lat="22.997218" lon="109.458102">
        <ele>57.801228</ele>
        <time>2026-08-15T04:29:30.000Z</time>
      </trkpt>
      <trkpt lat="22.997244" lon="109.458160">
        <ele>57.760513</ele>
        <time>2026-08-15T04:29:31.000Z</time>
      </trkpt>
      <trkpt lat="22.997271" lon="109.458216">
        <ele>57.720617</ele>
        <time>2026-08-15T04:29:32.000Z</time>
      </trkpt>
      <trkpt lat="22.997298" lon="109.458273">
        <ele>57.680160</ele>
        <time>2026-08-15T04:29:33.000Z</time>
      </trkpt>
      <trkpt lat="22.997325" lon="109.458331">
        <ele>57.639140</ele>
        <time>2026-08-15T04:29:34.000Z</time>
      </trkpt>
      <trkpt lat="22.997351" lon="109.458389">
        <ele>57.598426</ele>
        <time>2026-08-15T04:29:35.000Z</time>
      </trkpt>
      <trkpt lat="22.997378" lon="109.458449">
        <ele>57.556277</ele>
        <time>2026-08-15T04:29:36.000Z</time>
      </trkpt>
      <trkpt lat="22.997404" lon="109.458509">
        <ele>57.514424</ele>
        <time>2026-08-15T04:29:37.000Z</time>
      </trkpt>
      <trkpt lat="22.997430" lon="109.458570">
        <ele>57.471999</ele>
        <time>2026-08-15T04:29:38.000Z</time>
      </trkpt>
      <trkpt lat="22.997456" lon="109.458631">
        <ele>57.429575</ele>
        <time>2026-08-15T04:29:39.000Z</time>
      </trkpt>
      <trkpt lat="22.997481" lon="109.458693">
        <ele>57.386856</ele>
        <time>2026-08-15T04:29:40.000Z</time>
      </trkpt>
      <trkpt lat="22.997506" lon="109.458754">
        <ele>57.344715</ele>
        <time>2026-08-15T04:29:41.000Z</time>
      </trkpt>
      <trkpt lat="22.997532" lon="109.458813">
        <ele>57.303432</ele>
        <time>2026-08-15T04:29:42.000Z</time>
      </trkpt>
      <trkpt lat="22.997557" lon="109.458872">
        <ele>57.262441</ele>
        <time>2026-08-15T04:29:43.000Z</time>
      </trkpt>
      <trkpt lat="22.997581" lon="109.458931">
        <ele>57.221732</ele>
        <time>2026-08-15T04:29:44.000Z</time>
      </trkpt>
      <trkpt lat="22.997604" lon="109.458991">
        <ele>57.188991</ele>
        <time>2026-08-15T04:29:45.000Z</time>
      </trkpt>
      <trkpt lat="22.997628" lon="109.459052">
        <ele>57.159733</ele>
        <time>2026-08-15T04:29:46.000Z</time>
      </trkpt>
      <trkpt lat="22.997651" lon="109.459112">
        <ele>57.131069</ele>
        <time>2026-08-15T04:29:47.000Z</time>
      </trkpt>
      <trkpt lat="22.997674" lon="109.459173">
        <ele>57.101997</ele>
        <time>2026-08-15T04:29:48.000Z</time>
      </trkpt>
      <trkpt lat="22.997698" lon="109.459232">
        <ele>57.073548</ele>
        <time>2026-08-15T04:29:49.000Z</time>
      </trkpt>
      <trkpt lat="22.997720" lon="109.459291">
        <ele>57.045474</ele>
        <time>2026-08-15T04:29:50.000Z</time>
      </trkpt>
      <trkpt lat="22.997743" lon="109.459351">
        <ele>57.016809</ele>
        <time>2026-08-15T04:29:51.000Z</time>
      </trkpt>
      <trkpt lat="22.997764" lon="109.459410">
        <ele>56.988911</ele>
        <time>2026-08-15T04:29:52.000Z</time>
      </trkpt>
      <trkpt lat="22.997786" lon="109.459469">
        <ele>56.960836</ele>
        <time>2026-08-15T04:29:53.000Z</time>
      </trkpt>
      <trkpt lat="22.997807" lon="109.459527">
        <ele>56.933349</ele>
        <time>2026-08-15T04:29:54.000Z</time>
      </trkpt>
      <trkpt lat="22.997828" lon="109.459585">
        <ele>56.905861</ele>
        <time>2026-08-15T04:29:55.000Z</time>
      </trkpt>
      <trkpt lat="22.997849" lon="109.459642">
        <ele>56.878784</ele>
        <time>2026-08-15T04:29:56.000Z</time>
      </trkpt>
      <trkpt lat="22.997870" lon="109.459698">
        <ele>56.852116</ele>
        <time>2026-08-15T04:29:57.000Z</time>
      </trkpt>
      <trkpt lat="22.997891" lon="109.459754">
        <ele>56.825447</ele>
        <time>2026-08-15T04:29:58.000Z</time>
      </trkpt>
      <trkpt lat="22.997912" lon="109.459810">
        <ele>56.798779</ele>
        <time>2026-08-15T04:29:59.000Z</time>
      </trkpt>
      <trkpt lat="22.997934" lon="109.459863">
        <ele>56.773137</ele>
        <time>2026-08-15T04:30:00.000Z</time>
      </trkpt>
      <trkpt lat="22.997955" lon="109.459917">
        <ele>56.747284</ele>
        <time>2026-08-15T04:30:01.000Z</time>
      </trkpt>
      <trkpt lat="22.997975" lon="109.459971">
        <ele>56.721613</ele>
        <time>2026-08-15T04:30:02.000Z</time>
      </trkpt>
      <trkpt lat="22.997995" lon="109.460025">
        <ele>56.695942</ele>
        <time>2026-08-15T04:30:03.000Z</time>
      </trkpt>
      <trkpt lat="22.998015" lon="109.460080">
        <ele>56.669861</ele>
        <time>2026-08-15T04:30:04.000Z</time>
      </trkpt>
      <trkpt lat="22.998036" lon="109.460134">
        <ele>56.644007</ele>
        <time>2026-08-15T04:30:05.000Z</time>
      </trkpt>
      <trkpt lat="22.998057" lon="109.460188">
        <ele>56.618153</ele>
        <time>2026-08-15T04:30:06.000Z</time>
      </trkpt>
      <trkpt lat="22.998079" lon="109.460242">
        <ele>56.592109</ele>
        <time>2026-08-15T04:30:07.000Z</time>
      </trkpt>
      <trkpt lat="22.998104" lon="109.460296">
        <ele>56.565451</ele>
        <time>2026-08-15T04:30:08.000Z</time>
      </trkpt>
      <trkpt lat="22.998126" lon="109.460350">
        <ele>56.539408</ele>
        <time>2026-08-15T04:30:09.000Z</time>
      </trkpt>
      <trkpt lat="22.998149" lon="109.460405">
        <ele>56.512765</ele>
        <time>2026-08-15T04:30:10.000Z</time>
      </trkpt>
      <trkpt lat="22.998171" lon="109.460459">
        <ele>56.486721</ele>
        <time>2026-08-15T04:30:11.000Z</time>
      </trkpt>
      <trkpt lat="22.998194" lon="109.460512">
        <ele>56.460880</ele>
        <time>2026-08-15T04:30:12.000Z</time>
      </trkpt>
      <trkpt lat="22.998217" lon="109.460567">
        <ele>56.434237</ele>
        <time>2026-08-15T04:30:13.000Z</time>
      </trkpt>
      <trkpt lat="22.998240" lon="109.460621">
        <ele>56.407996</ele>
        <time>2026-08-15T04:30:14.000Z</time>
      </trkpt>
      <trkpt lat="22.998262" lon="109.460675">
        <ele>56.381952</ele>
        <time>2026-08-15T04:30:15.000Z</time>
      </trkpt>
      <trkpt lat="22.998285" lon="109.460728">
        <ele>56.356110</ele>
        <time>2026-08-15T04:30:16.000Z</time>
      </trkpt>
      <trkpt lat="22.998307" lon="109.460782">
        <ele>56.343783</ele>
        <time>2026-08-15T04:30:17.000Z</time>
      </trkpt>
      <trkpt lat="22.998329" lon="109.460835">
        <ele>56.339612</ele>
        <time>2026-08-15T04:30:18.000Z</time>
      </trkpt>
      <trkpt lat="22.998351" lon="109.460887">
        <ele>56.335506</ele>
        <time>2026-08-15T04:30:19.000Z</time>
      </trkpt>
      <trkpt lat="22.998374" lon="109.460940">
        <ele>56.331302</ele>
        <time>2026-08-15T04:30:20.000Z</time>
      </trkpt>
      <trkpt lat="22.998397" lon="109.460992">
        <ele>56.327163</ele>
        <time>2026-08-15T04:30:21.000Z</time>
      </trkpt>
      <trkpt lat="22.998420" lon="109.461044">
        <ele>56.323024</ele>
        <time>2026-08-15T04:30:22.000Z</time>
      </trkpt>
      <trkpt lat="22.998442" lon="109.461096">
        <ele>56.318918</ele>
        <time>2026-08-15T04:30:23.000Z</time>
      </trkpt>
      <trkpt lat="22.998464" lon="109.461146">
        <ele>56.314942</ele>
        <time>2026-08-15T04:30:24.000Z</time>
      </trkpt>
      <trkpt lat="22.998486" lon="109.461195">
        <ele>56.311031</ele>
        <time>2026-08-15T04:30:25.000Z</time>
      </trkpt>
      <trkpt lat="22.998508" lon="109.461245">
        <ele>56.307055</ele>
        <time>2026-08-15T04:30:26.000Z</time>
      </trkpt>
      <trkpt lat="22.998531" lon="109.461294">
        <ele>56.303109</ele>
        <time>2026-08-15T04:30:27.000Z</time>
      </trkpt>
      <trkpt lat="22.998553" lon="109.461342">
        <ele>56.299262</ele>
        <time>2026-08-15T04:30:28.000Z</time>
      </trkpt>
      <trkpt lat="22.998574" lon="109.461389">
        <ele>56.295514</ele>
        <time>2026-08-15T04:30:29.000Z</time>
      </trkpt>
      <trkpt lat="22.998596" lon="109.461436">
        <ele>56.291731</ele>
        <time>2026-08-15T04:30:30.000Z</time>
      </trkpt>
      <trkpt lat="22.998618" lon="109.461482">
        <ele>56.288011</ele>
        <time>2026-08-15T04:30:31.000Z</time>
      </trkpt>
      <trkpt lat="22.998639" lon="109.461527">
        <ele>56.284392</ele>
        <time>2026-08-15T04:30:32.000Z</time>
      </trkpt>
      <trkpt lat="22.998661" lon="109.461573">
        <ele>56.280673</ele>
        <time>2026-08-15T04:30:33.000Z</time>
      </trkpt>
      <trkpt lat="22.998682" lon="109.461619">
        <ele>56.276989</ele>
        <time>2026-08-15T04:30:34.000Z</time>
      </trkpt>
      <trkpt lat="22.998702" lon="109.461664">
        <ele>56.273404</ele>
        <time>2026-08-15T04:30:35.000Z</time>
      </trkpt>
      <trkpt lat="22.998722" lon="109.461708">
        <ele>56.269883</ele>
        <time>2026-08-15T04:30:36.000Z</time>
      </trkpt>
      <trkpt lat="22.998742" lon="109.461753">
        <ele>56.266298</ele>
        <time>2026-08-15T04:30:37.000Z</time>
      </trkpt>
      <trkpt lat="22.998762" lon="109.461798">
        <ele>56.262713</ele>
        <time>2026-08-15T04:30:38.000Z</time>
      </trkpt>
      <trkpt lat="22.998783" lon="109.461842">
        <ele>56.259157</ele>
        <time>2026-08-15T04:30:39.000Z</time>
      </trkpt>
      <trkpt lat="22.998804" lon="109.461886">
        <ele>56.255601</ele>
        <time>2026-08-15T04:30:40.000Z</time>
      </trkpt>
      <trkpt lat="22.998827" lon="109.461930">
        <ele>56.251971</ele>
        <time>2026-08-15T04:30:41.000Z</time>
      </trkpt>
      <trkpt lat="22.998849" lon="109.461973">
        <ele>56.248441</ele>
        <time>2026-08-15T04:30:42.000Z</time>
      </trkpt>
      <trkpt lat="22.998872" lon="109.462016">
        <ele>56.244873</ele>
        <time>2026-08-15T04:30:43.000Z</time>
      </trkpt>
      <trkpt lat="22.998897" lon="109.462058">
        <ele>56.241285</ele>
        <time>2026-08-15T04:30:44.000Z</time>
      </trkpt>
      <trkpt lat="22.998922" lon="109.462100">
        <ele>56.237697</ele>
        <time>2026-08-15T04:30:45.000Z</time>
      </trkpt>
      <trkpt lat="22.998945" lon="109.462143">
        <ele>56.234129</ele>
        <time>2026-08-15T04:30:46.000Z</time>
      </trkpt>
      <trkpt lat="22.998969" lon="109.462187">
        <ele>56.230459</ele>
        <time>2026-08-15T04:30:47.000Z</time>
      </trkpt>
      <trkpt lat="22.998993" lon="109.462230">
        <ele>56.226851</ele>
        <time>2026-08-15T04:30:48.000Z</time>
      </trkpt>
      <trkpt lat="22.999016" lon="109.462274">
        <ele>56.223221</ele>
        <time>2026-08-15T04:30:49.000Z</time>
      </trkpt>
      <trkpt lat="22.999039" lon="109.462317">
        <ele>56.219653</ele>
        <time>2026-08-15T04:30:50.000Z</time>
      </trkpt>
      <trkpt lat="22.999061" lon="109.462361">
        <ele>56.216061</ele>
        <time>2026-08-15T04:30:51.000Z</time>
      </trkpt>
      <trkpt lat="22.999083" lon="109.462403">
        <ele>56.212594</ele>
        <time>2026-08-15T04:30:52.000Z</time>
      </trkpt>
      <trkpt lat="22.999104" lon="109.462447">
        <ele>56.209038</ele>
        <time>2026-08-15T04:30:53.000Z</time>
      </trkpt>
      <trkpt lat="22.999125" lon="109.462491">
        <ele>56.207149</ele>
        <time>2026-08-15T04:30:54.000Z</time>
      </trkpt>
      <trkpt lat="22.999147" lon="109.462536">
        <ele>56.211303</ele>
        <time>2026-08-15T04:30:55.000Z</time>
      </trkpt>
      <trkpt lat="22.999173" lon="109.462581">
        <ele>56.215634</ele>
        <time>2026-08-15T04:30:56.000Z</time>
      </trkpt>
      <trkpt lat="22.999200" lon="109.462627">
        <ele>56.220082</ele>
        <time>2026-08-15T04:30:57.000Z</time>
      </trkpt>
      <trkpt lat="22.999226" lon="109.462672">
        <ele>56.224413</ele>
        <time>2026-08-15T04:30:58.000Z</time>
      </trkpt>
      <trkpt lat="22.999251" lon="109.462716">
        <ele>56.228629</ele>
        <time>2026-08-15T04:30:59.000Z</time>
      </trkpt>
      <trkpt lat="22.999278" lon="109.462760">
        <ele>56.232940</ele>
        <time>2026-08-15T04:31:00.000Z</time>
      </trkpt>
      <trkpt lat="22.999304" lon="109.462809">
        <ele>56.237551</ele>
        <time>2026-08-15T04:31:01.000Z</time>
      </trkpt>
      <trkpt lat="22.999327" lon="109.462857">
        <ele>56.241962</ele>
        <time>2026-08-15T04:31:02.000Z</time>
      </trkpt>
      <trkpt lat="22.999348" lon="109.462905">
        <ele>56.246295</ele>
        <time>2026-08-15T04:31:03.000Z</time>
      </trkpt>
      <trkpt lat="22.999370" lon="109.462952">
        <ele>56.250594</ele>
        <time>2026-08-15T04:31:04.000Z</time>
      </trkpt>
      <trkpt lat="22.999394" lon="109.463001">
        <ele>56.255119</ele>
        <time>2026-08-15T04:31:05.000Z</time>
      </trkpt>
      <trkpt lat="22.999418" lon="109.463050">
        <ele>56.259644</ele>
        <time>2026-08-15T04:31:06.000Z</time>
      </trkpt>
      <trkpt lat="22.999444" lon="109.463098">
        <ele>56.264184</ele>
        <time>2026-08-15T04:31:07.000Z</time>
      </trkpt>
      <trkpt lat="22.999471" lon="109.463147">
        <ele>56.268840</ele>
        <time>2026-08-15T04:31:08.000Z</time>
      </trkpt>
      <trkpt lat="22.999498" lon="109.463197">
        <ele>56.273566</ele>
        <time>2026-08-15T04:31:09.000Z</time>
      </trkpt>
      <trkpt lat="22.999524" lon="109.463247">
        <ele>56.278247</ele>
        <time>2026-08-15T04:31:10.000Z</time>
      </trkpt>
      <trkpt lat="22.999548" lon="109.463297">
        <ele>56.282845</ele>
        <time>2026-08-15T04:31:11.000Z</time>
      </trkpt>
      <trkpt lat="22.999571" lon="109.463349">
        <ele>56.287548</ele>
        <time>2026-08-15T04:31:12.000Z</time>
      </trkpt>
      <trkpt lat="22.999593" lon="109.463401">
        <ele>56.292214</ele>
        <time>2026-08-15T04:31:13.000Z</time>
      </trkpt>
      <trkpt lat="22.999614" lon="109.463453">
        <ele>56.296843</ele>
        <time>2026-08-15T04:31:14.000Z</time>
      </trkpt>
      <trkpt lat="22.999634" lon="109.463504">
        <ele>56.301362</ele>
        <time>2026-08-15T04:31:15.000Z</time>
      </trkpt>
      <trkpt lat="22.999654" lon="109.463556">
        <ele>56.305957</ele>
        <time>2026-08-15T04:31:16.000Z</time>
      </trkpt>
      <trkpt lat="22.999674" lon="109.463608">
        <ele>56.310551</ele>
        <time>2026-08-15T04:31:17.000Z</time>
      </trkpt>
      <trkpt lat="22.999695" lon="109.463660">
        <ele>56.315181</ele>
        <time>2026-08-15T04:31:18.000Z</time>
      </trkpt>
      <trkpt lat="22.999714" lon="109.463712">
        <ele>56.319742</ele>
        <time>2026-08-15T04:31:19.000Z</time>
      </trkpt>
      <trkpt lat="22.999734" lon="109.463765">
        <ele>56.324411</ele>
        <time>2026-08-15T04:31:20.000Z</time>
      </trkpt>
      <trkpt lat="22.999754" lon="109.463818">
        <ele>56.329081</ele>
        <time>2026-08-15T04:31:21.000Z</time>
      </trkpt>
      <trkpt lat="22.999773" lon="109.463870">
        <ele>56.333642</ele>
        <time>2026-08-15T04:31:22.000Z</time>
      </trkpt>
      <trkpt lat="22.999794" lon="109.463921">
        <ele>56.338197</ele>
        <time>2026-08-15T04:31:23.000Z</time>
      </trkpt>
      <trkpt lat="22.999813" lon="109.463970">
        <ele>56.342532</ele>
        <time>2026-08-15T04:31:24.000Z</time>
      </trkpt>
      <trkpt lat="22.999831" lon="109.464019">
        <ele>56.346833</ele>
        <time>2026-08-15T04:31:25.000Z</time>
      </trkpt>
      <trkpt lat="22.999853" lon="109.464069">
        <ele>56.351351</ele>
        <time>2026-08-15T04:31:26.000Z</time>
      </trkpt>
      <trkpt lat="22.999871" lon="109.464119">
        <ele>56.355728</ele>
        <time>2026-08-15T04:31:27.000Z</time>
      </trkpt>
      <trkpt lat="22.999891" lon="109.464169">
        <ele>56.360172</ele>
        <time>2026-08-15T04:31:28.000Z</time>
      </trkpt>
      <trkpt lat="22.999908" lon="109.464219">
        <ele>56.364518</ele>
        <time>2026-08-15T04:31:29.000Z</time>
      </trkpt>
      <trkpt lat="22.999927" lon="109.464270">
        <ele>56.387405</ele>
        <time>2026-08-15T04:31:30.000Z</time>
      </trkpt>
      <trkpt lat="22.999944" lon="109.464323">
        <ele>56.416434</ele>
        <time>2026-08-15T04:31:31.000Z</time>
      </trkpt>
      <trkpt lat="22.999960" lon="109.464373">
        <ele>56.443812</ele>
        <time>2026-08-15T04:31:32.000Z</time>
      </trkpt>
      <trkpt lat="22.999976" lon="109.464424">
        <ele>56.471680</ele>
        <time>2026-08-15T04:31:33.000Z</time>
      </trkpt>
      <trkpt lat="22.999994" lon="109.464473">
        <ele>56.498967</ele>
        <time>2026-08-15T04:31:34.000Z</time>
      </trkpt>
      <trkpt lat="23.000013" lon="109.464520">
        <ele>56.525517</ele>
        <time>2026-08-15T04:31:35.000Z</time>
      </trkpt>
      <trkpt lat="23.000035" lon="109.464566">
        <ele>56.552329</ele>
        <time>2026-08-15T04:31:36.000Z</time>
      </trkpt>
      <trkpt lat="23.000056" lon="109.464612">
        <ele>56.578886</ele>
        <time>2026-08-15T04:31:37.000Z</time>
      </trkpt>
      <trkpt lat="23.000080" lon="109.464656">
        <ele>56.605338</ele>
        <time>2026-08-15T04:31:38.000Z</time>
      </trkpt>
      <trkpt lat="23.000098" lon="109.464699">
        <ele>56.629770</ele>
        <time>2026-08-15T04:31:39.000Z</time>
      </trkpt>
      <trkpt lat="23.000114" lon="109.464747">
        <ele>56.656174</ele>
        <time>2026-08-15T04:31:40.000Z</time>
      </trkpt>
      <trkpt lat="23.000130" lon="109.464791">
        <ele>56.680643</ele>
        <time>2026-08-15T04:31:41.000Z</time>
      </trkpt>
      <trkpt lat="23.000148" lon="109.464834">
        <ele>56.705074</ele>
        <time>2026-08-15T04:31:42.000Z</time>
      </trkpt>
      <trkpt lat="23.000165" lon="109.464874">
        <ele>56.727862</ele>
        <time>2026-08-15T04:31:43.000Z</time>
      </trkpt>
      <trkpt lat="23.000180" lon="109.464916">
        <ele>56.751162</ele>
        <time>2026-08-15T04:31:44.000Z</time>
      </trkpt>
      <trkpt lat="23.000194" lon="109.464961">
        <ele>56.775730</ele>
        <time>2026-08-15T04:31:45.000Z</time>
      </trkpt>
      <trkpt lat="23.000211" lon="109.465005">
        <ele>56.800411</ele>
        <time>2026-08-15T04:31:46.000Z</time>
      </trkpt>
      <trkpt lat="23.000230" lon="109.465051">
        <ele>56.826488</ele>
        <time>2026-08-15T04:31:47.000Z</time>
      </trkpt>
      <trkpt lat="23.000248" lon="109.465097">
        <ele>56.852340</ele>
        <time>2026-08-15T04:31:48.000Z</time>
      </trkpt>
      <trkpt lat="23.000265" lon="109.465143">
        <ele>56.877978</ele>
        <time>2026-08-15T04:31:49.000Z</time>
      </trkpt>
      <trkpt lat="23.000282" lon="109.465190">
        <ele>56.904096</ele>
        <time>2026-08-15T04:31:50.000Z</time>
      </trkpt>
      <trkpt lat="23.000303" lon="109.465236">
        <ele>56.930653</ele>
        <time>2026-08-15T04:31:51.000Z</time>
      </trkpt>
      <trkpt lat="23.000321" lon="109.465282">
        <ele>56.956505</ele>
        <time>2026-08-15T04:31:52.000Z</time>
      </trkpt>
      <trkpt lat="23.000346" lon="109.465329">
        <ele>56.984581</ele>
        <time>2026-08-15T04:31:53.000Z</time>
      </trkpt>
      <trkpt lat="23.000371" lon="109.465376">
        <ele>57.012657</ele>
        <time>2026-08-15T04:31:54.000Z</time>
      </trkpt>
      <trkpt lat="23.000392" lon="109.465424">
        <ele>57.040144</ele>
        <time>2026-08-15T04:31:55.000Z</time>
      </trkpt>
      <trkpt lat="23.000411" lon="109.465474">
        <ele>57.068122</ele>
        <time>2026-08-15T04:31:56.000Z</time>
      </trkpt>
      <trkpt lat="23.000429" lon="109.465524">
        <ele>57.095890</ele>
        <time>2026-08-15T04:31:57.000Z</time>
      </trkpt>
      <trkpt lat="23.000449" lon="109.465574">
        <ele>57.124086</ele>
        <time>2026-08-15T04:31:58.000Z</time>
      </trkpt>
      <trkpt lat="23.000469" lon="109.465625">
        <ele>57.152758</ele>
        <time>2026-08-15T04:31:59.000Z</time>
      </trkpt>
      <trkpt lat="23.000490" lon="109.465676">
        <ele>57.181655</ele>
        <time>2026-08-15T04:32:00.000Z</time>
      </trkpt>
      <trkpt lat="23.000514" lon="109.465726">
        <ele>57.210820</ele>
        <time>2026-08-15T04:32:01.000Z</time>
      </trkpt>
      <trkpt lat="23.000538" lon="109.465779">
        <ele>57.241370</ele>
        <time>2026-08-15T04:32:02.000Z</time>
      </trkpt>
      <trkpt lat="23.000561" lon="109.465833">
        <ele>57.272144</ele>
        <time>2026-08-15T04:32:03.000Z</time>
      </trkpt>
      <trkpt lat="23.000581" lon="109.465884">
        <ele>57.300816</ele>
        <time>2026-08-15T04:32:04.000Z</time>
      </trkpt>
      <trkpt lat="23.000602" lon="109.465935">
        <ele>57.329712</ele>
        <time>2026-08-15T04:32:05.000Z</time>
      </trkpt>
      <trkpt lat="23.000624" lon="109.465985">
        <ele>57.358375</ele>
        <time>2026-08-15T04:32:06.000Z</time>
      </trkpt>
      <trkpt lat="23.000646" lon="109.466036">
        <ele>57.366735</ele>
        <time>2026-08-15T04:32:07.000Z</time>
      </trkpt>
      <trkpt lat="23.000670" lon="109.466085">
        <ele>57.342791</ele>
        <time>2026-08-15T04:32:08.000Z</time>
      </trkpt>
      <trkpt lat="23.000692" lon="109.466136">
        <ele>57.318495</ele>
        <time>2026-08-15T04:32:09.000Z</time>
      </trkpt>
      <trkpt lat="23.000716" lon="109.466187">
        <ele>57.293787</ele>
        <time>2026-08-15T04:32:10.000Z</time>
      </trkpt>
      <trkpt lat="23.000741" lon="109.466238">
        <ele>57.268862</ele>
        <time>2026-08-15T04:32:11.000Z</time>
      </trkpt>
      <trkpt lat="23.000764" lon="109.466287">
        <ele>57.245135</ele>
        <time>2026-08-15T04:32:12.000Z</time>
      </trkpt>
      <trkpt lat="23.000787" lon="109.466335">
        <ele>57.221791</ele>
        <time>2026-08-15T04:32:13.000Z</time>
      </trkpt>
      <trkpt lat="23.000811" lon="109.466381">
        <ele>57.198982</ele>
        <time>2026-08-15T04:32:14.000Z</time>
      </trkpt>
      <trkpt lat="23.000835" lon="109.466426">
        <ele>57.176548</ele>
        <time>2026-08-15T04:32:15.000Z</time>
      </trkpt>
      <trkpt lat="23.000857" lon="109.466471">
        <ele>57.154568</ele>
        <time>2026-08-15T04:32:16.000Z</time>
      </trkpt>
      <trkpt lat="23.000879" lon="109.466515">
        <ele>57.132968</ele>
        <time>2026-08-15T04:32:17.000Z</time>
      </trkpt>
      <trkpt lat="23.000902" lon="109.466557">
        <ele>57.111886</ele>
        <time>2026-08-15T04:32:18.000Z</time>
      </trkpt>
      <trkpt lat="23.000923" lon="109.466598">
        <ele>57.091646</ele>
        <time>2026-08-15T04:32:19.000Z</time>
      </trkpt>
      <trkpt lat="23.000945" lon="109.466641">
        <ele>57.070425</ele>
        <time>2026-08-15T04:32:20.000Z</time>
      </trkpt>
      <trkpt lat="23.000966" lon="109.466685">
        <ele>57.049045</ele>
        <time>2026-08-15T04:32:21.000Z</time>
      </trkpt>
      <trkpt lat="23.000990" lon="109.466731">
        <ele>57.026236</ele>
        <time>2026-08-15T04:32:22.000Z</time>
      </trkpt>
      <trkpt lat="23.001016" lon="109.466780">
        <ele>57.001838</ele>
        <time>2026-08-15T04:32:23.000Z</time>
      </trkpt>
      <trkpt lat="23.001042" lon="109.466826">
        <ele>56.978553</ele>
        <time>2026-08-15T04:32:24.000Z</time>
      </trkpt>
      <trkpt lat="23.001069" lon="109.466874">
        <ele>56.954287</ele>
        <time>2026-08-15T04:32:25.000Z</time>
      </trkpt>
      <trkpt lat="23.001100" lon="109.466921">
        <ele>56.929345</ele>
        <time>2026-08-15T04:32:26.000Z</time>
      </trkpt>
      <trkpt lat="23.001130" lon="109.466970">
        <ele>56.903959</ele>
        <time>2026-08-15T04:32:27.000Z</time>
      </trkpt>
      <trkpt lat="23.001158" lon="109.467018">
        <ele>56.879445</ele>
        <time>2026-08-15T04:32:28.000Z</time>
      </trkpt>
      <trkpt lat="23.001187" lon="109.467070">
        <ele>56.853218</ele>
        <time>2026-08-15T04:32:29.000Z</time>
      </trkpt>
      <trkpt lat="23.001217" lon="109.467122">
        <ele>56.826745</ele>
        <time>2026-08-15T04:32:30.000Z</time>
      </trkpt>
      <trkpt lat="23.001247" lon="109.467171">
        <ele>56.801359</ele>
        <time>2026-08-15T04:32:31.000Z</time>
      </trkpt>
      <trkpt lat="23.001279" lon="109.467220">
        <ele>56.775443</ele>
        <time>2026-08-15T04:32:32.000Z</time>
      </trkpt>
      <trkpt lat="23.001311" lon="109.467270">
        <ele>56.749173</ele>
        <time>2026-08-15T04:32:33.000Z</time>
      </trkpt>
      <trkpt lat="23.001344" lon="109.467318">
        <ele>56.723329</ele>
        <time>2026-08-15T04:32:34.000Z</time>
      </trkpt>
      <trkpt lat="23.001375" lon="109.467366">
        <ele>56.698036</ele>
        <time>2026-08-15T04:32:35.000Z</time>
      </trkpt>
      <trkpt lat="23.001408" lon="109.467415">
        <ele>56.671845</ele>
        <time>2026-08-15T04:32:36.000Z</time>
      </trkpt>
      <trkpt lat="23.001440" lon="109.467464">
        <ele>56.645928</ele>
        <time>2026-08-15T04:32:37.000Z</time>
      </trkpt>
      <trkpt lat="23.001473" lon="109.467511">
        <ele>56.620429</ele>
        <time>2026-08-15T04:32:38.000Z</time>
      </trkpt>
      <trkpt lat="23.001505" lon="109.467557">
        <ele>56.595557</ele>
        <time>2026-08-15T04:32:39.000Z</time>
      </trkpt>
      <trkpt lat="23.001538" lon="109.467605">
        <ele>56.569713</ele>
        <time>2026-08-15T04:32:40.000Z</time>
      </trkpt>
      <trkpt lat="23.001572" lon="109.467654">
        <ele>56.543243</ele>
        <time>2026-08-15T04:32:41.000Z</time>
      </trkpt>
      <trkpt lat="23.001606" lon="109.467701">
        <ele>56.519146</ele>
        <time>2026-08-15T04:32:42.000Z</time>
      </trkpt>
      <trkpt lat="23.001640" lon="109.467750">
        <ele>56.495501</ele>
        <time>2026-08-15T04:32:43.000Z</time>
      </trkpt>
      <trkpt lat="23.001676" lon="109.467799">
        <ele>56.471343</ele>
        <time>2026-08-15T04:32:44.000Z</time>
      </trkpt>
      <trkpt lat="23.001712" lon="109.467849">
        <ele>56.446883</ele>
        <time>2026-08-15T04:32:45.000Z</time>
      </trkpt>
      <trkpt lat="23.001749" lon="109.467899">
        <ele>56.422162</ele>
        <time>2026-08-15T04:32:46.000Z</time>
      </trkpt>
      <trkpt lat="23.001788" lon="109.467949">
        <ele>56.396909</ele>
        <time>2026-08-15T04:32:47.000Z</time>
      </trkpt>
      <trkpt lat="23.001827" lon="109.468000">
        <ele>56.371361</ele>
        <time>2026-08-15T04:32:48.000Z</time>
      </trkpt>
      <trkpt lat="23.001865" lon="109.468051">
        <ele>56.346077</ele>
        <time>2026-08-15T04:32:49.000Z</time>
      </trkpt>
      <trkpt lat="23.001903" lon="109.468102">
        <ele>56.320794</ele>
        <time>2026-08-15T04:32:50.000Z</time>
      </trkpt>
      <trkpt lat="23.001942" lon="109.468152">
        <ele>56.295541</ele>
        <time>2026-08-15T04:32:51.000Z</time>
      </trkpt>
      <trkpt lat="23.001979" lon="109.468199">
        <ele>56.271711</ele>
        <time>2026-08-15T04:32:52.000Z</time>
      </trkpt>
      <trkpt lat="23.002017" lon="109.468244">
        <ele>56.248179</ele>
        <time>2026-08-15T04:32:53.000Z</time>
      </trkpt>
      <trkpt lat="23.002056" lon="109.468289">
        <ele>56.224363</ele>
        <time>2026-08-15T04:32:54.000Z</time>
      </trkpt>
      <trkpt lat="23.002094" lon="109.468337">
        <ele>56.199968</ele>
        <time>2026-08-15T04:32:55.000Z</time>
      </trkpt>
      <trkpt lat="23.002136" lon="109.468383">
        <ele>56.175002</ele>
        <time>2026-08-15T04:32:56.000Z</time>
      </trkpt>
      <trkpt lat="23.002176" lon="109.468426">
        <ele>56.151445</ele>
        <time>2026-08-15T04:32:57.000Z</time>
      </trkpt>
      <trkpt lat="23.002217" lon="109.468467">
        <ele>56.128118</ele>
        <time>2026-08-15T04:32:58.000Z</time>
      </trkpt>
      <trkpt lat="23.002263" lon="109.468507">
        <ele>56.103453</ele>
        <time>2026-08-15T04:32:59.000Z</time>
      </trkpt>
      <trkpt lat="23.002307" lon="109.468545">
        <ele>56.079923</ele>
        <time>2026-08-15T04:33:00.000Z</time>
      </trkpt>
      <trkpt lat="23.002354" lon="109.468583">
        <ele>56.055397</ele>
        <time>2026-08-15T04:33:01.000Z</time>
      </trkpt>
      <trkpt lat="23.002406" lon="109.468621">
        <ele>56.029163</ele>
        <time>2026-08-15T04:33:02.000Z</time>
      </trkpt>
      <trkpt lat="23.002456" lon="109.468657">
        <ele>56.004053</ele>
        <time>2026-08-15T04:33:03.000Z</time>
      </trkpt>
      <trkpt lat="23.002507" lon="109.468692">
        <ele>55.978801</ele>
        <time>2026-08-15T04:33:04.000Z</time>
      </trkpt>
      <trkpt lat="23.002556" lon="109.468726">
        <ele>55.954462</ele>
        <time>2026-08-15T04:33:05.000Z</time>
      </trkpt>
      <trkpt lat="23.002604" lon="109.468764">
        <ele>55.929599</ele>
        <time>2026-08-15T04:33:06.000Z</time>
      </trkpt>
      <trkpt lat="23.002650" lon="109.468804">
        <ele>55.904934</ele>
        <time>2026-08-15T04:33:07.000Z</time>
      </trkpt>
      <trkpt lat="23.002692" lon="109.468844">
        <ele>55.881553</ele>
        <time>2026-08-15T04:33:08.000Z</time>
      </trkpt>
      <trkpt lat="23.002730" lon="109.468885">
        <ele>55.859133</ele>
        <time>2026-08-15T04:33:09.000Z</time>
      </trkpt>
      <trkpt lat="23.002765" lon="109.468926">
        <ele>55.837587</ele>
        <time>2026-08-15T04:33:10.000Z</time>
      </trkpt>
      <trkpt lat="23.002799" lon="109.468964">
        <ele>55.817167</ele>
        <time>2026-08-15T04:33:11.000Z</time>
      </trkpt>
      <trkpt lat="23.002833" lon="109.469004">
        <ele>55.796187</ele>
        <time>2026-08-15T04:33:12.000Z</time>
      </trkpt>
      <trkpt lat="23.002867" lon="109.469043">
        <ele>55.786719</ele>
        <time>2026-08-15T04:33:13.000Z</time>
      </trkpt>
      <trkpt lat="23.002903" lon="109.469084">
        <ele>55.815375</ele>
        <time>2026-08-15T04:33:14.000Z</time>
      </trkpt>
      <trkpt lat="23.002942" lon="109.469123">
        <ele>55.844499</ele>
        <time>2026-08-15T04:33:15.000Z</time>
      </trkpt>
      <trkpt lat="23.002983" lon="109.469160">
        <ele>55.873784</ele>
        <time>2026-08-15T04:33:16.000Z</time>
      </trkpt>
      <trkpt lat="23.003027" lon="109.469194">
        <ele>55.903450</ele>
        <time>2026-08-15T04:33:17.000Z</time>
      </trkpt>
      <trkpt lat="23.003068" lon="109.469226">
        <ele>55.931188</ele>
        <time>2026-08-15T04:33:18.000Z</time>
      </trkpt>
      <trkpt lat="23.003112" lon="109.469257">
        <ele>55.960001</ele>
        <time>2026-08-15T04:33:19.000Z</time>
      </trkpt>
      <trkpt lat="23.003151" lon="109.469288">
        <ele>55.986552</ele>
        <time>2026-08-15T04:33:20.000Z</time>
      </trkpt>
      <trkpt lat="23.003192" lon="109.469315">
        <ele>56.012894</ele>
        <time>2026-08-15T04:33:21.000Z</time>
      </trkpt>
      <trkpt lat="23.003234" lon="109.469343">
        <ele>56.039969</ele>
        <time>2026-08-15T04:33:22.000Z</time>
      </trkpt>
      <trkpt lat="23.003274" lon="109.469370">
        <ele>56.065842</ele>
        <time>2026-08-15T04:33:23.000Z</time>
      </trkpt>
      <trkpt lat="23.003308" lon="109.469396">
        <ele>56.088687</ele>
        <time>2026-08-15T04:33:24.000Z</time>
      </trkpt>
      <trkpt lat="23.003345" lon="109.469421">
        <ele>56.112627</ele>
        <time>2026-08-15T04:33:25.000Z</time>
      </trkpt>
      <trkpt lat="23.003382" lon="109.469444">
        <ele>56.136048</ele>
        <time>2026-08-15T04:33:26.000Z</time>
      </trkpt>
      <trkpt lat="23.003418" lon="109.469469">
        <ele>56.159523</ele>
        <time>2026-08-15T04:33:27.000Z</time>
      </trkpt>
      <trkpt lat="23.003455" lon="109.469493">
        <ele>56.183200</ele>
        <time>2026-08-15T04:33:28.000Z</time>
      </trkpt>
      <trkpt lat="23.003493" lon="109.469514">
        <ele>56.206624</ele>
        <time>2026-08-15T04:33:29.000Z</time>
      </trkpt>
      <trkpt lat="23.003530" lon="109.469536">
        <ele>56.229799</ele>
        <time>2026-08-15T04:33:30.000Z</time>
      </trkpt>
      <trkpt lat="23.003568" lon="109.469559">
        <ele>56.253699</ele>
        <time>2026-08-15T04:33:31.000Z</time>
      </trkpt>
      <trkpt lat="23.003605" lon="109.469585">
        <ele>56.277910</ele>
        <time>2026-08-15T04:33:32.000Z</time>
      </trkpt>
      <trkpt lat="23.003643" lon="109.469611">
        <ele>56.302584</ele>
        <time>2026-08-15T04:33:33.000Z</time>
      </trkpt>
      <trkpt lat="23.003679" lon="109.469635">
        <ele>56.325790</ele>
        <time>2026-08-15T04:33:34.000Z</time>
      </trkpt>
      <trkpt lat="23.003716" lon="109.469661">
        <ele>56.350001</ele>
        <time>2026-08-15T04:33:35.000Z</time>
      </trkpt>
      <trkpt lat="23.003751" lon="109.469689">
        <ele>56.373882</ele>
        <time>2026-08-15T04:33:36.000Z</time>
      </trkpt>
      <trkpt lat="23.003784" lon="109.469721">
        <ele>56.398186</ele>
        <time>2026-08-15T04:33:37.000Z</time>
      </trkpt>
      <trkpt lat="23.003816" lon="109.469754">
        <ele>56.422427</ele>
        <time>2026-08-15T04:33:38.000Z</time>
      </trkpt>
      <trkpt lat="23.003849" lon="109.469788">
        <ele>56.447415</ele>
        <time>2026-08-15T04:33:39.000Z</time>
      </trkpt>
      <trkpt lat="23.003884" lon="109.469822">
        <ele>56.473212</ele>
        <time>2026-08-15T04:33:40.000Z</time>
      </trkpt>
      <trkpt lat="23.003919" lon="109.469855">
        <ele>56.498674</ele>
        <time>2026-08-15T04:33:41.000Z</time>
      </trkpt>
      <trkpt lat="23.003955" lon="109.469890">
        <ele>56.525218</ele>
        <time>2026-08-15T04:33:42.000Z</time>
      </trkpt>
      <trkpt lat="23.003993" lon="109.469924">
        <ele>56.552265</ele>
        <time>2026-08-15T04:33:43.000Z</time>
      </trkpt>
      <trkpt lat="23.004029" lon="109.469959">
        <ele>56.578808</ele>
        <time>2026-08-15T04:33:44.000Z</time>
      </trkpt>
      <trkpt lat="23.004064" lon="109.469995">
        <ele>56.605290</ele>
        <time>2026-08-15T04:33:45.000Z</time>
      </trkpt>
      <trkpt lat="23.004100" lon="109.470032">
        <ele>56.632518</ele>
        <time>2026-08-15T04:33:46.000Z</time>
      </trkpt>
      <trkpt lat="23.004136" lon="109.470069">
        <ele>56.659746</ele>
        <time>2026-08-15T04:33:47.000Z</time>
      </trkpt>
      <trkpt lat="23.004172" lon="109.470107">
        <ele>56.687325</ele>
        <time>2026-08-15T04:33:48.000Z</time>
      </trkpt>
      <trkpt lat="23.004209" lon="109.470146">
        <ele>56.715649</ele>
        <time>2026-08-15T04:33:49.000Z</time>
      </trkpt>
      <trkpt lat="23.004248" lon="109.470186">
        <ele>56.745117</ele>
        <time>2026-08-15T04:33:50.000Z</time>
      </trkpt>
      <trkpt lat="23.004287" lon="109.470224">
        <ele>56.762189</ele>
        <time>2026-08-15T04:33:51.000Z</time>
      </trkpt>
      <trkpt lat="23.004328" lon="109.470263">
        <ele>56.726323</ele>
        <time>2026-08-15T04:33:52.000Z</time>
      </trkpt>
      <trkpt lat="23.004369" lon="109.470303">
        <ele>56.690056</ele>
        <time>2026-08-15T04:33:53.000Z</time>
      </trkpt>
      <trkpt lat="23.004409" lon="109.470343">
        <ele>56.654275</ele>
        <time>2026-08-15T04:33:54.000Z</time>
      </trkpt>
      <trkpt lat="23.004449" lon="109.470383">
        <ele>56.618494</ele>
        <time>2026-08-15T04:33:55.000Z</time>
      </trkpt>
      <trkpt lat="23.004488" lon="109.470423">
        <ele>56.583195</ele>
        <time>2026-08-15T04:33:56.000Z</time>
      </trkpt>
      <trkpt lat="23.004529" lon="109.470463">
        <ele>56.546928</ele>
        <time>2026-08-15T04:33:57.000Z</time>
      </trkpt>
      <trkpt lat="23.004569" lon="109.470502">
        <ele>56.511554</ele>
        <time>2026-08-15T04:33:58.000Z</time>
      </trkpt>
      <trkpt lat="23.004608" lon="109.470540">
        <ele>56.477076</ele>
        <time>2026-08-15T04:33:59.000Z</time>
      </trkpt>
      <trkpt lat="23.004647" lon="109.470578">
        <ele>56.442597</ele>
        <time>2026-08-15T04:34:00.000Z</time>
      </trkpt>
      <trkpt lat="23.004687" lon="109.470615">
        <ele>56.408021</ele>
        <time>2026-08-15T04:34:01.000Z</time>
      </trkpt>
      <trkpt lat="23.004726" lon="109.470650">
        <ele>56.374728</ele>
        <time>2026-08-15T04:34:02.000Z</time>
      </trkpt>
      <trkpt lat="23.004764" lon="109.470685">
        <ele>56.341940</ele>
        <time>2026-08-15T04:34:03.000Z</time>
      </trkpt>
      <trkpt lat="23.004805" lon="109.470719">
        <ele>56.307994</ele>
        <time>2026-08-15T04:34:04.000Z</time>
      </trkpt>
      <trkpt lat="23.004846" lon="109.470752">
        <ele>56.274411</ele>
        <time>2026-08-15T04:34:05.000Z</time>
      </trkpt>
      <trkpt lat="23.004887" lon="109.470785">
        <ele>56.240828</ele>
        <time>2026-08-15T04:34:06.000Z</time>
      </trkpt>
      <trkpt lat="23.004927" lon="109.470817">
        <ele>56.208135</ele>
        <time>2026-08-15T04:34:07.000Z</time>
      </trkpt>
      <trkpt lat="23.004969" lon="109.470847">
        <ele>56.175053</ele>
        <time>2026-08-15T04:34:08.000Z</time>
      </trkpt>
      <trkpt lat="23.005012" lon="109.470879">
        <ele>56.140750</ele>
        <time>2026-08-15T04:34:09.000Z</time>
      </trkpt>
      <trkpt lat="23.005055" lon="109.470912">
        <ele>56.106101</ele>
        <time>2026-08-15T04:34:10.000Z</time>
      </trkpt>
      <trkpt lat="23.005099" lon="109.470946">
        <ele>56.070564</ele>
        <time>2026-08-15T04:34:11.000Z</time>
      </trkpt>
      <trkpt lat="23.005143" lon="109.470980">
        <ele>56.035027</ele>
        <time>2026-08-15T04:34:12.000Z</time>
      </trkpt>
      <trkpt lat="23.005190" lon="109.471015">
        <ele>55.997525</ele>
        <time>2026-08-15T04:34:13.000Z</time>
      </trkpt>
      <trkpt lat="23.005235" lon="109.471051">
        <ele>55.960745</ele>
        <time>2026-08-15T04:34:14.000Z</time>
      </trkpt>
      <trkpt lat="23.005280" lon="109.471088">
        <ele>55.923603</ele>
        <time>2026-08-15T04:34:15.000Z</time>
      </trkpt>
      <trkpt lat="23.005326" lon="109.471125">
        <ele>55.885933</ele>
        <time>2026-08-15T04:34:16.000Z</time>
      </trkpt>
      <trkpt lat="23.005371" lon="109.471162">
        <ele>55.848791</ele>
        <time>2026-08-15T04:34:17.000Z</time>
      </trkpt>
      <trkpt lat="23.005416" lon="109.471200">
        <ele>55.811280</ele>
        <time>2026-08-15T04:34:18.000Z</time>
      </trkpt>
      <trkpt lat="23.005460" lon="109.471237">
        <ele>55.774660</ele>
        <time>2026-08-15T04:34:19.000Z</time>
      </trkpt>
      <trkpt lat="23.005504" lon="109.471274">
        <ele>55.738040</ele>
        <time>2026-08-15T04:34:20.000Z</time>
      </trkpt>
      <trkpt lat="23.005548" lon="109.471310">
        <ele>55.701788</ele>
        <time>2026-08-15T04:34:21.000Z</time>
      </trkpt>
      <trkpt lat="23.005592" lon="109.471347">
        <ele>55.665168</ele>
        <time>2026-08-15T04:34:22.000Z</time>
      </trkpt>
      <trkpt lat="23.005635" lon="109.471386">
        <ele>55.628302</ele>
        <time>2026-08-15T04:34:23.000Z</time>
      </trkpt>
      <trkpt lat="23.005679" lon="109.471425">
        <ele>55.590928</ele>
        <time>2026-08-15T04:34:24.000Z</time>
      </trkpt>
      <trkpt lat="23.005723" lon="109.471465">
        <ele>55.622826</ele>
        <time>2026-08-15T04:34:25.000Z</time>
      </trkpt>
      <trkpt lat="23.005767" lon="109.471505">
        <ele>55.668218</ele>
        <time>2026-08-15T04:34:26.000Z</time>
      </trkpt>
      <trkpt lat="23.005809" lon="109.471548">
        <ele>55.713877</ele>
        <time>2026-08-15T04:34:27.000Z</time>
      </trkpt>
      <trkpt lat="23.005853" lon="109.471591">
        <ele>55.760701</ele>
        <time>2026-08-15T04:34:28.000Z</time>
      </trkpt>
      <trkpt lat="23.005897" lon="109.471633">
        <ele>55.807041</ele>
        <time>2026-08-15T04:34:29.000Z</time>
      </trkpt>
      <trkpt lat="23.005941" lon="109.471675">
        <ele>55.853380</ele>
        <time>2026-08-15T04:34:30.000Z</time>
      </trkpt>
      <trkpt lat="23.005985" lon="109.471716">
        <ele>55.899243</ele>
        <time>2026-08-15T04:34:31.000Z</time>
      </trkpt>
      <trkpt lat="23.006027" lon="109.471758">
        <ele>55.944406</ele>
        <time>2026-08-15T04:34:32.000Z</time>
      </trkpt>
      <trkpt lat="23.006068" lon="109.471799">
        <ele>55.988494</ele>
        <time>2026-08-15T04:34:33.000Z</time>
      </trkpt>
      <trkpt lat="23.006108" lon="109.471839">
        <ele>56.031506</ele>
        <time>2026-08-15T04:34:34.000Z</time>
      </trkpt>
      <trkpt lat="23.006146" lon="109.471879">
        <ele>56.073368</ele>
        <time>2026-08-15T04:34:35.000Z</time>
      </trkpt>
      <trkpt lat="23.006179" lon="109.471920">
        <ele>56.113031</ele>
        <time>2026-08-15T04:34:36.000Z</time>
      </trkpt>
      <trkpt lat="23.006208" lon="109.471964">
        <ele>56.152442</ele>
        <time>2026-08-15T04:34:37.000Z</time>
      </trkpt>
      <trkpt lat="23.006234" lon="109.472008">
        <ele>56.190519</ele>
        <time>2026-08-15T04:34:38.000Z</time>
      </trkpt>
      <trkpt lat="23.006261" lon="109.472052">
        <ele>56.229029</ele>
        <time>2026-08-15T04:34:39.000Z</time>
      </trkpt>
      <trkpt lat="23.006286" lon="109.472096">
        <ele>56.266685</ele>
        <time>2026-08-15T04:34:40.000Z</time>
      </trkpt>
      <trkpt lat="23.006312" lon="109.472139">
        <ele>56.304152</ele>
        <time>2026-08-15T04:34:41.000Z</time>
      </trkpt>
      <trkpt lat="23.006337" lon="109.472182">
        <ele>56.341190</ele>
        <time>2026-08-15T04:34:42.000Z</time>
      </trkpt>
      <trkpt lat="23.006361" lon="109.472224">
        <ele>56.377191</ele>
        <time>2026-08-15T04:34:43.000Z</time>
      </trkpt>
      <trkpt lat="23.006385" lon="109.472267">
        <ele>56.413812</ele>
        <time>2026-08-15T04:34:44.000Z</time>
      </trkpt>
      <trkpt lat="23.006409" lon="109.472309">
        <ele>56.449813</ele>
        <time>2026-08-15T04:34:45.000Z</time>
      </trkpt>
      <trkpt lat="23.006431" lon="109.472352">
        <ele>56.485640</ele>
        <time>2026-08-15T04:34:46.000Z</time>
      </trkpt>
      <trkpt lat="23.006453" lon="109.472394">
        <ele>56.520832</ele>
        <time>2026-08-15T04:34:47.000Z</time>
      </trkpt>
      <trkpt lat="23.006476" lon="109.472433">
        <ele>56.554563</ele>
        <time>2026-08-15T04:34:48.000Z</time>
      </trkpt>
      <trkpt lat="23.006499" lon="109.472472">
        <ele>56.588294</ele>
        <time>2026-08-15T04:34:49.000Z</time>
      </trkpt>
      <trkpt lat="23.006520" lon="109.472510">
        <ele>56.620572</ele>
        <time>2026-08-15T04:34:50.000Z</time>
      </trkpt>
      <trkpt lat="23.006541" lon="109.472546">
        <ele>56.651610</ele>
        <time>2026-08-15T04:34:51.000Z</time>
      </trkpt>
      <trkpt lat="23.006561" lon="109.472582">
        <ele>56.682232</ele>
        <time>2026-08-15T04:34:52.000Z</time>
      </trkpt>
      <trkpt lat="23.006581" lon="109.472618">
        <ele>56.712854</ele>
        <time>2026-08-15T04:34:53.000Z</time>
      </trkpt>
      <trkpt lat="23.006600" lon="109.472654">
        <ele>56.743074</ele>
        <time>2026-08-15T04:34:54.000Z</time>
      </trkpt>
      <trkpt lat="23.006620" lon="109.472689">
        <ele>56.773075</ele>
        <time>2026-08-15T04:34:55.000Z</time>
      </trkpt>
      <trkpt lat="23.006640" lon="109.472724">
        <ele>56.803076</ele>
        <time>2026-08-15T04:34:56.000Z</time>
      </trkpt>
      <trkpt lat="23.006661" lon="109.472759">
        <ele>56.833501</ele>
        <time>2026-08-15T04:34:57.000Z</time>
      </trkpt>
      <trkpt lat="23.006682" lon="109.472793">
        <ele>56.863319</ele>
        <time>2026-08-15T04:34:58.000Z</time>
      </trkpt>
      <trkpt lat="23.006702" lon="109.472827">
        <ele>56.892704</ele>
        <time>2026-08-15T04:34:59.000Z</time>
      </trkpt>
      <trkpt lat="23.006722" lon="109.472862">
        <ele>56.922704</ele>
        <time>2026-08-15T04:35:00.000Z</time>
      </trkpt>
      <trkpt lat="23.006742" lon="109.472896">
        <ele>56.952089</ele>
        <time>2026-08-15T04:35:01.000Z</time>
      </trkpt>
      <trkpt lat="23.006760" lon="109.472930">
        <ele>56.980653</ele>
        <time>2026-08-15T04:35:02.000Z</time>
      </trkpt>
      <trkpt lat="23.006780" lon="109.472961">
        <ele>57.008458</ele>
        <time>2026-08-15T04:35:03.000Z</time>
      </trkpt>
      <trkpt lat="23.006802" lon="109.472992">
        <ele>57.054569</ele>
        <time>2026-08-15T04:35:04.000Z</time>
      </trkpt>
      <trkpt lat="23.006825" lon="109.473023">
        <ele>57.101472</ele>
        <time>2026-08-15T04:35:05.000Z</time>
      </trkpt>
      <trkpt lat="23.006849" lon="109.473055">
        <ele>57.150096</ele>
        <time>2026-08-15T04:35:06.000Z</time>
      </trkpt>
      <trkpt lat="23.006872" lon="109.473087">
        <ele>57.197921</ele>
        <time>2026-08-15T04:35:07.000Z</time>
      </trkpt>
      <trkpt lat="23.006893" lon="109.473118">
        <ele>57.243262</ele>
        <time>2026-08-15T04:35:08.000Z</time>
      </trkpt>
      <trkpt lat="23.006918" lon="109.473147">
        <ele>57.290066</ele>
        <time>2026-08-15T04:35:09.000Z</time>
      </trkpt>
      <trkpt lat="23.006942" lon="109.473177">
        <ele>57.336887</ele>
        <time>2026-08-15T04:35:10.000Z</time>
      </trkpt>
      <trkpt lat="23.006965" lon="109.473209">
        <ele>57.384713</ele>
        <time>2026-08-15T04:35:11.000Z</time>
      </trkpt>
      <trkpt lat="23.006988" lon="109.473240">
        <ele>57.431616</ele>
        <time>2026-08-15T04:35:12.000Z</time>
      </trkpt>
      <trkpt lat="23.007012" lon="109.473270">
        <ele>57.478437</ele>
        <time>2026-08-15T04:35:13.000Z</time>
      </trkpt>
      <trkpt lat="23.007036" lon="109.473300">
        <ele>57.525258</ele>
        <time>2026-08-15T04:35:14.000Z</time>
      </trkpt>
      <trkpt lat="23.007060" lon="109.473329">
        <ele>57.571197</ele>
        <time>2026-08-15T04:35:15.000Z</time>
      </trkpt>
      <trkpt lat="23.007083" lon="109.473358">
        <ele>57.616290</ele>
        <time>2026-08-15T04:35:16.000Z</time>
      </trkpt>
      <trkpt lat="23.007107" lon="109.473388">
        <ele>57.663111</ele>
        <time>2026-08-15T04:35:17.000Z</time>
      </trkpt>
      <trkpt lat="23.007131" lon="109.473417">
        <ele>57.709049</ele>
        <time>2026-08-15T04:35:18.000Z</time>
      </trkpt>
      <trkpt lat="23.007154" lon="109.473447">
        <ele>57.755041</ele>
        <time>2026-08-15T04:35:19.000Z</time>
      </trkpt>
      <trkpt lat="23.007177" lon="109.473477">
        <ele>57.801033</ele>
        <time>2026-08-15T04:35:20.000Z</time>
      </trkpt>
      <trkpt lat="23.007201" lon="109.473506">
        <ele>57.846971</ele>
        <time>2026-08-15T04:35:21.000Z</time>
      </trkpt>
      <trkpt lat="23.007225" lon="109.473535">
        <ele>57.892910</ele>
        <time>2026-08-15T04:35:22.000Z</time>
      </trkpt>
      <trkpt lat="23.007250" lon="109.473566">
        <ele>57.941460</ele>
        <time>2026-08-15T04:35:23.000Z</time>
      </trkpt>
      <trkpt lat="23.007274" lon="109.473595">
        <ele>57.987398</ele>
        <time>2026-08-15T04:35:24.000Z</time>
      </trkpt>
      <trkpt lat="23.007300" lon="109.473625">
        <ele>58.035937</ele>
        <time>2026-08-15T04:35:25.000Z</time>
      </trkpt>
      <trkpt lat="23.007326" lon="109.473654">
        <ele>58.083625</ele>
        <time>2026-08-15T04:35:26.000Z</time>
      </trkpt>
      <trkpt lat="23.007352" lon="109.473684">
        <ele>58.132163</ele>
        <time>2026-08-15T04:35:27.000Z</time>
      </trkpt>
      <trkpt lat="23.007378" lon="109.473716">
        <ele>58.182443</ele>
        <time>2026-08-15T04:35:28.000Z</time>
      </trkpt>
      <trkpt lat="23.007403" lon="109.473749">
        <ele>58.232789</ele>
        <time>2026-08-15T04:35:29.000Z</time>
      </trkpt>
      <trkpt lat="23.007427" lon="109.473782">
        <ele>58.282332</ele>
        <time>2026-08-15T04:35:30.000Z</time>
      </trkpt>
      <trkpt lat="23.007453" lon="109.473814">
        <ele>58.332611</ele>
        <time>2026-08-15T04:35:31.000Z</time>
      </trkpt>
      <trkpt lat="23.007479" lon="109.473847">
        <ele>58.383780</ele>
        <time>2026-08-15T04:35:32.000Z</time>
      </trkpt>
      <trkpt lat="23.007505" lon="109.473879">
        <ele>58.434060</ele>
        <time>2026-08-15T04:35:33.000Z</time>
      </trkpt>
      <trkpt lat="23.007532" lon="109.473912">
        <ele>58.486070</ele>
        <time>2026-08-15T04:35:34.000Z</time>
      </trkpt>
      <trkpt lat="23.007561" lon="109.473945">
        <ele>58.539815</ele>
        <time>2026-08-15T04:35:35.000Z</time>
      </trkpt>
      <trkpt lat="23.007589" lon="109.473980">
        <ele>58.594439</ele>
        <time>2026-08-15T04:35:36.000Z</time>
      </trkpt>
      <trkpt lat="23.007618" lon="109.474016">
        <ele>58.650793</ele>
        <time>2026-08-15T04:35:37.000Z</time>
      </trkpt>
      <trkpt lat="23.007646" lon="109.474052">
        <ele>58.706312</ele>
        <time>2026-08-15T04:35:38.000Z</time>
      </trkpt>
      <trkpt lat="23.007673" lon="109.474087">
        <ele>58.760105</ele>
        <time>2026-08-15T04:35:39.000Z</time>
      </trkpt>
      <trkpt lat="23.007701" lon="109.474124">
        <ele>58.816529</ele>
        <time>2026-08-15T04:35:40.000Z</time>
      </trkpt>
      <trkpt lat="23.007729" lon="109.474161">
        <ele>58.872953</ele>
        <time>2026-08-15T04:35:41.000Z</time>
      </trkpt>
      <trkpt lat="23.007756" lon="109.474197">
        <ele>58.927655</ele>
        <time>2026-08-15T04:35:42.000Z</time>
      </trkpt>
      <trkpt lat="23.007783" lon="109.474234">
        <ele>58.983275</ele>
        <time>2026-08-15T04:35:43.000Z</time>
      </trkpt>
      <trkpt lat="23.007811" lon="109.474271">
        <ele>59.039698</ele>
        <time>2026-08-15T04:35:44.000Z</time>
      </trkpt>
      <trkpt lat="23.007839" lon="109.474307">
        <ele>59.095217</ele>
        <time>2026-08-15T04:35:45.000Z</time>
      </trkpt>
      <trkpt lat="23.007865" lon="109.474343">
        <ele>59.149120</ele>
        <time>2026-08-15T04:35:46.000Z</time>
      </trkpt>
      <trkpt lat="23.007892" lon="109.474380">
        <ele>59.204740</ele>
        <time>2026-08-15T04:35:47.000Z</time>
      </trkpt>
      <trkpt lat="23.007918" lon="109.474416">
        <ele>59.258642</ele>
        <time>2026-08-15T04:35:48.000Z</time>
      </trkpt>
      <trkpt lat="23.007944" lon="109.474453">
        <ele>59.309169</ele>
        <time>2026-08-15T04:35:49.000Z</time>
      </trkpt>
      <trkpt lat="23.007972" lon="109.474491">
        <ele>59.301484</ele>
        <time>2026-08-15T04:35:50.000Z</time>
      </trkpt>
      <trkpt lat="23.007999" lon="109.474527">
        <ele>59.294153</ele>
        <time>2026-08-15T04:35:51.000Z</time>
      </trkpt>
      <trkpt lat="23.008025" lon="109.474564">
        <ele>59.286804</ele>
        <time>2026-08-15T04:35:52.000Z</time>
      </trkpt>
      <trkpt lat="23.008052" lon="109.474602">
        <ele>59.279226</ele>
        <time>2026-08-15T04:35:53.000Z</time>
      </trkpt>
      <trkpt lat="23.008080" lon="109.474641">
        <ele>59.271418</ele>
        <time>2026-08-15T04:35:54.000Z</time>
      </trkpt>
      <trkpt lat="23.008109" lon="109.474681">
        <ele>59.263379</ele>
        <time>2026-08-15T04:35:55.000Z</time>
      </trkpt>
      <trkpt lat="23.008136" lon="109.474722">
        <ele>59.255421</ele>
        <time>2026-08-15T04:35:56.000Z</time>
      </trkpt>
      <trkpt lat="23.008164" lon="109.474764">
        <ele>59.247234</ele>
        <time>2026-08-15T04:35:57.000Z</time>
      </trkpt>
      <trkpt lat="23.008190" lon="109.474806">
        <ele>59.239243</ele>
        <time>2026-08-15T04:35:58.000Z</time>
      </trkpt>
      <trkpt lat="23.008216" lon="109.474849">
        <ele>59.231121</ele>
        <time>2026-08-15T04:35:59.000Z</time>
      </trkpt>
      <trkpt lat="23.008245" lon="109.474893">
        <ele>59.222578</ele>
        <time>2026-08-15T04:36:00.000Z</time>
      </trkpt>
      <trkpt lat="23.008274" lon="109.474936">
        <ele>59.214162</ele>
        <time>2026-08-15T04:36:01.000Z</time>
      </trkpt>
      <trkpt lat="23.008302" lon="109.474981">
        <ele>59.205587</ele>
        <time>2026-08-15T04:36:02.000Z</time>
      </trkpt>
      <trkpt lat="23.008328" lon="109.475029">
        <ele>59.196795</ele>
        <time>2026-08-15T04:36:03.000Z</time>
      </trkpt>
      <trkpt lat="23.008355" lon="109.475074">
        <ele>59.188315</ele>
        <time>2026-08-15T04:36:04.000Z</time>
      </trkpt>
      <trkpt lat="23.008384" lon="109.475120">
        <ele>59.179513</ele>
        <time>2026-08-15T04:36:05.000Z</time>
      </trkpt>
      <trkpt lat="23.008414" lon="109.475167">
        <ele>59.170484</ele>
        <time>2026-08-15T04:36:06.000Z</time>
      </trkpt>
      <trkpt lat="23.008444" lon="109.475213">
        <ele>59.161584</ele>
        <time>2026-08-15T04:36:07.000Z</time>
      </trkpt>
      <trkpt lat="23.008474" lon="109.475259">
        <ele>59.152684</ele>
        <time>2026-08-15T04:36:08.000Z</time>
      </trkpt>
      <trkpt lat="23.008504" lon="109.475306">
        <ele>59.143654</ele>
        <time>2026-08-15T04:36:09.000Z</time>
      </trkpt>
      <trkpt lat="23.008532" lon="109.475354">
        <ele>59.134683</ele>
        <time>2026-08-15T04:36:10.000Z</time>
      </trkpt>
      <trkpt lat="23.008560" lon="109.475404">
        <ele>59.125444</ele>
        <time>2026-08-15T04:36:11.000Z</time>
      </trkpt>
      <trkpt lat="23.008589" lon="109.475454">
        <ele>59.116114</ele>
        <time>2026-08-15T04:36:12.000Z</time>
      </trkpt>
      <trkpt lat="23.008619" lon="109.475504">
        <ele>59.106691</ele>
        <time>2026-08-15T04:36:13.000Z</time>
      </trkpt>
      <trkpt lat="23.008649" lon="109.475553">
        <ele>59.097401</ele>
        <time>2026-08-15T04:36:14.000Z</time>
      </trkpt>
      <trkpt lat="23.008679" lon="109.475601">
        <ele>59.088242</ele>
        <time>2026-08-15T04:36:15.000Z</time>
      </trkpt>
      <trkpt lat="23.008709" lon="109.475649">
        <ele>59.079082</ele>
        <time>2026-08-15T04:36:16.000Z</time>
      </trkpt>
      <trkpt lat="23.008738" lon="109.475699">
        <ele>59.069752</ele>
        <time>2026-08-15T04:36:17.000Z</time>
      </trkpt>
      <trkpt lat="23.008768" lon="109.475749">
        <ele>59.060330</ele>
        <time>2026-08-15T04:36:18.000Z</time>
      </trkpt>
      <trkpt lat="23.008798" lon="109.475798">
        <ele>59.051040</ele>
        <time>2026-08-15T04:36:19.000Z</time>
      </trkpt>
      <trkpt lat="23.008827" lon="109.475846">
        <ele>59.041975</ele>
        <time>2026-08-15T04:36:20.000Z</time>
      </trkpt>
      <trkpt lat="23.008858" lon="109.475894">
        <ele>59.032718</ele>
        <time>2026-08-15T04:36:21.000Z</time>
      </trkpt>
      <trkpt lat="23.008890" lon="109.475942">
        <ele>59.023362</ele>
        <time>2026-08-15T04:36:22.000Z</time>
      </trkpt>
      <trkpt lat="23.008919" lon="109.475990">
        <ele>59.014298</ele>
        <time>2026-08-15T04:36:23.000Z</time>
      </trkpt>
      <trkpt lat="23.008948" lon="109.476038">
        <ele>59.005234</ele>
        <time>2026-08-15T04:36:24.000Z</time>
      </trkpt>
      <trkpt lat="23.008977" lon="109.476086">
        <ele>59.014096</ele>
        <time>2026-08-15T04:36:25.000Z</time>
      </trkpt>
      <trkpt lat="23.009005" lon="109.476134">
        <ele>59.037166</ele>
        <time>2026-08-15T04:36:26.000Z</time>
      </trkpt>
      <trkpt lat="23.009034" lon="109.476183">
        <ele>59.060817</ele>
        <time>2026-08-15T04:36:27.000Z</time>
      </trkpt>
      <trkpt lat="23.009064" lon="109.476233">
        <ele>59.085048</ele>
        <time>2026-08-15T04:36:28.000Z</time>
      </trkpt>
      <trkpt lat="23.009094" lon="109.476284">
        <ele>59.109620</ele>
        <time>2026-08-15T04:36:29.000Z</time>
      </trkpt>
      <trkpt lat="23.009123" lon="109.476336">
        <ele>59.134303</ele>
        <time>2026-08-15T04:36:30.000Z</time>
      </trkpt>
      <trkpt lat="23.009154" lon="109.476390">
        <ele>59.160140</ele>
        <time>2026-08-15T04:36:31.000Z</time>
      </trkpt>
      <trkpt lat="23.009184" lon="109.476443">
        <ele>59.185400</ele>
        <time>2026-08-15T04:36:32.000Z</time>
      </trkpt>
      <trkpt lat="23.009214" lon="109.476495">
        <ele>59.210315</ele>
        <time>2026-08-15T04:36:33.000Z</time>
      </trkpt>
      <trkpt lat="23.009245" lon="109.476548">
        <ele>59.235809</ele>
        <time>2026-08-15T04:36:34.000Z</time>
      </trkpt>
      <trkpt lat="23.009274" lon="109.476601">
        <ele>59.260841</ele>
        <time>2026-08-15T04:36:35.000Z</time>
      </trkpt>
      <trkpt lat="23.009301" lon="109.476653">
        <ele>59.285079</ele>
        <time>2026-08-15T04:36:36.000Z</time>
      </trkpt>
      <trkpt lat="23.009330" lon="109.476705">
        <ele>59.309762</ele>
        <time>2026-08-15T04:36:37.000Z</time>
      </trkpt>
      <trkpt lat="23.009359" lon="109.476755">
        <ele>59.333755</ele>
        <time>2026-08-15T04:36:38.000Z</time>
      </trkpt>
      <trkpt lat="23.009388" lon="109.476806">
        <ele>59.358092</ele>
        <time>2026-08-15T04:36:39.000Z</time>
      </trkpt>
      <trkpt lat="23.009415" lon="109.476856">
        <ele>59.381627</ele>
        <time>2026-08-15T04:36:40.000Z</time>
      </trkpt>
      <trkpt lat="23.009443" lon="109.476904">
        <ele>59.404698</ele>
        <time>2026-08-15T04:36:41.000Z</time>
      </trkpt>
      <trkpt lat="23.009471" lon="109.476951">
        <ele>59.427426</ele>
        <time>2026-08-15T04:36:42.000Z</time>
      </trkpt>
      <trkpt lat="23.009500" lon="109.476998">
        <ele>59.450398</ele>
        <time>2026-08-15T04:36:43.000Z</time>
      </trkpt>
      <trkpt lat="23.009528" lon="109.477044">
        <ele>59.472787</ele>
        <time>2026-08-15T04:36:44.000Z</time>
      </trkpt>
      <trkpt lat="23.009555" lon="109.477089">
        <ele>59.494595</ele>
        <time>2026-08-15T04:36:45.000Z</time>
      </trkpt>
      <trkpt lat="23.009582" lon="109.477132">
        <ele>59.515727</ele>
        <time>2026-08-15T04:36:46.000Z</time>
      </trkpt>
      <trkpt lat="23.009613" lon="109.477173">
        <ele>59.537268</ele>
        <time>2026-08-15T04:36:47.000Z</time>
      </trkpt>
      <trkpt lat="23.009641" lon="109.477214">
        <ele>59.557994</ele>
        <time>2026-08-15T04:36:48.000Z</time>
      </trkpt>
      <trkpt lat="23.009670" lon="109.477254">
        <ele>59.578666</ele>
        <time>2026-08-15T04:36:49.000Z</time>
      </trkpt>
      <trkpt lat="23.009699" lon="109.477294">
        <ele>59.599338</ele>
        <time>2026-08-15T04:36:50.000Z</time>
      </trkpt>
      <trkpt lat="23.009729" lon="109.477332">
        <ele>59.619662</ele>
        <time>2026-08-15T04:36:51.000Z</time>
      </trkpt>
      <trkpt lat="23.009758" lon="109.477371">
        <ele>59.640016</ele>
        <time>2026-08-15T04:36:52.000Z</time>
      </trkpt>
      <trkpt lat="23.009787" lon="109.477410">
        <ele>59.660371</ele>
        <time>2026-08-15T04:36:53.000Z</time>
      </trkpt>
      <trkpt lat="23.009817" lon="109.477446">
        <ele>59.680086</ele>
        <time>2026-08-15T04:36:54.000Z</time>
      </trkpt>
      <trkpt lat="23.009849" lon="109.477481">
        <ele>59.700114</ele>
        <time>2026-08-15T04:36:55.000Z</time>
      </trkpt>
      <trkpt lat="23.009880" lon="109.477516">
        <ele>59.719833</ele>
        <time>2026-08-15T04:36:56.000Z</time>
      </trkpt>
      <trkpt lat="23.009909" lon="109.477552">
        <ele>59.739255</ele>
        <time>2026-08-15T04:36:57.000Z</time>
      </trkpt>
      <trkpt lat="23.009938" lon="109.477587">
        <ele>59.758373</ele>
        <time>2026-08-15T04:36:58.000Z</time>
      </trkpt>
      <trkpt lat="23.009966" lon="109.477622">
        <ele>59.777199</ele>
        <time>2026-08-15T04:36:59.000Z</time>
      </trkpt>
      <trkpt lat="23.009996" lon="109.477658">
        <ele>59.791358</ele>
        <time>2026-08-15T04:37:00.000Z</time>
      </trkpt>
      <trkpt lat="23.010026" lon="109.477694">
        <ele>59.765438</ele>
        <time>2026-08-15T04:37:01.000Z</time>
      </trkpt>
      <trkpt lat="23.010056" lon="109.477729">
        <ele>59.739912</ele>
        <time>2026-08-15T04:37:02.000Z</time>
      </trkpt>
      <trkpt lat="23.010088" lon="109.477764">
        <ele>59.713582</ele>
        <time>2026-08-15T04:37:03.000Z</time>
      </trkpt>
      <trkpt lat="23.010122" lon="109.477799">
        <ele>59.686423</ele>
        <time>2026-08-15T04:37:04.000Z</time>
      </trkpt>
      <trkpt lat="23.010156" lon="109.477834">
        <ele>59.659263</ele>
        <time>2026-08-15T04:37:05.000Z</time>
      </trkpt>
      <trkpt lat="23.010191" lon="109.477870">
        <ele>59.631315</ele>
        <time>2026-08-15T04:37:06.000Z</time>
      </trkpt>
      <trkpt lat="23.010225" lon="109.477905">
        <ele>59.604155</ele>
        <time>2026-08-15T04:37:07.000Z</time>
      </trkpt>
      <trkpt lat="23.010259" lon="109.477941">
        <ele>59.576625</ele>
        <time>2026-08-15T04:37:08.000Z</time>
      </trkpt>
      <trkpt lat="23.010293" lon="109.477977">
        <ele>59.549096</ele>
        <time>2026-08-15T04:37:09.000Z</time>
      </trkpt>
      <trkpt lat="23.010327" lon="109.478013">
        <ele>59.521566</ele>
        <time>2026-08-15T04:37:10.000Z</time>
      </trkpt>
      <trkpt lat="23.010361" lon="109.478050">
        <ele>59.493661</ele>
        <time>2026-08-15T04:37:11.000Z</time>
      </trkpt>
      <trkpt lat="23.010394" lon="109.478088">
        <ele>59.465778</ele>
        <time>2026-08-15T04:37:12.000Z</time>
      </trkpt>
      <trkpt lat="23.010428" lon="109.478126">
        <ele>59.437493</ele>
        <time>2026-08-15T04:37:13.000Z</time>
      </trkpt>
      <trkpt lat="23.010463" lon="109.478164">
        <ele>59.408800</ele>
        <time>2026-08-15T04:37:14.000Z</time>
      </trkpt>
      <trkpt lat="23.010497" lon="109.478202">
        <ele>59.380515</ele>
        <time>2026-08-15T04:37:15.000Z</time>
      </trkpt>
      <trkpt lat="23.010532" lon="109.478239">
        <ele>59.352198</ele>
        <time>2026-08-15T04:37:16.000Z</time>
      </trkpt>
      <trkpt lat="23.010568" lon="109.478277">
        <ele>59.323093</ele>
        <time>2026-08-15T04:37:17.000Z</time>
      </trkpt>
      <trkpt lat="23.010606" lon="109.478316">
        <ele>59.292781</ele>
        <time>2026-08-15T04:37:18.000Z</time>
      </trkpt>
      <trkpt lat="23.010642" lon="109.478354">
        <ele>59.263676</ele>
        <time>2026-08-15T04:37:19.000Z</time>
      </trkpt>
      <trkpt lat="23.010679" lon="109.478394">
        <ele>59.233409</ele>
        <time>2026-08-15T04:37:20.000Z</time>
      </trkpt>
      <trkpt lat="23.010718" lon="109.478433">
        <ele>59.202673</ele>
        <time>2026-08-15T04:37:21.000Z</time>
      </trkpt>
      <trkpt lat="23.010757" lon="109.478473">
        <ele>59.171573</ele>
        <time>2026-08-15T04:37:22.000Z</time>
      </trkpt>
      <trkpt lat="23.010796" lon="109.478514">
        <ele>59.140104</ele>
        <time>2026-08-15T04:37:23.000Z</time>
      </trkpt>
      <trkpt lat="23.010834" lon="109.478555">
        <ele>59.109050</ele>
        <time>2026-08-15T04:37:24.000Z</time>
      </trkpt>
      <trkpt lat="23.010874" lon="109.478596">
        <ele>59.077162</ele>
        <time>2026-08-15T04:37:25.000Z</time>
      </trkpt>
      <trkpt lat="23.010913" lon="109.478637">
        <ele>59.045693</ele>
        <time>2026-08-15T04:37:26.000Z</time>
      </trkpt>
      <trkpt lat="23.010951" lon="109.478679">
        <ele>59.014260</ele>
        <time>2026-08-15T04:37:27.000Z</time>
      </trkpt>
      <trkpt lat="23.010991" lon="109.478722">
        <ele>58.981630</ele>
        <time>2026-08-15T04:37:28.000Z</time>
      </trkpt>
      <trkpt lat="23.011031" lon="109.478764">
        <ele>58.949374</ele>
        <time>2026-08-15T04:37:29.000Z</time>
      </trkpt>
      <trkpt lat="23.011072" lon="109.478808">
        <ele>58.915957</ele>
        <time>2026-08-15T04:37:30.000Z</time>
      </trkpt>
      <trkpt lat="23.011113" lon="109.478851">
        <ele>58.882912</ele>
        <time>2026-08-15T04:37:31.000Z</time>
      </trkpt>
      <trkpt lat="23.011154" lon="109.478895">
        <ele>58.849495</ele>
        <time>2026-08-15T04:37:32.000Z</time>
      </trkpt>
      <trkpt lat="23.011194" lon="109.478938">
        <ele>58.816865</ele>
        <time>2026-08-15T04:37:33.000Z</time>
      </trkpt>
      <trkpt lat="23.011236" lon="109.478982">
        <ele>58.783033</ele>
        <time>2026-08-15T04:37:34.000Z</time>
      </trkpt>
      <trkpt lat="23.011278" lon="109.479026">
        <ele>58.748604</ele>
        <time>2026-08-15T04:37:35.000Z</time>
      </trkpt>
      <trkpt lat="23.011320" lon="109.479071">
        <ele>58.705689</ele>
        <time>2026-08-15T04:37:36.000Z</time>
      </trkpt>
      <trkpt lat="23.011363" lon="109.479116">
        <ele>58.662253</ele>
        <time>2026-08-15T04:37:37.000Z</time>
      </trkpt>
      <trkpt lat="23.011407" lon="109.479161">
        <ele>58.618290</ele>
        <time>2026-08-15T04:37:38.000Z</time>
      </trkpt>
      <trkpt lat="23.011451" lon="109.479208">
        <ele>58.573399</ele>
        <time>2026-08-15T04:37:39.000Z</time>
      </trkpt>
      <trkpt lat="23.011496" lon="109.479256">
        <ele>58.527520</ele>
        <time>2026-08-15T04:37:40.000Z</time>
      </trkpt>
      <trkpt lat="23.011541" lon="109.479305">
        <ele>58.481169</ele>
        <time>2026-08-15T04:37:41.000Z</time>
      </trkpt>
      <trkpt lat="23.011587" lon="109.479353">
        <ele>58.434767</ele>
        <time>2026-08-15T04:37:42.000Z</time>
      </trkpt>
      <trkpt lat="23.011633" lon="109.479399">
        <ele>58.389283</ele>
        <time>2026-08-15T04:37:43.000Z</time>
      </trkpt>
      <trkpt lat="23.011679" lon="109.479445">
        <ele>58.343799</ele>
        <time>2026-08-15T04:37:44.000Z</time>
      </trkpt>
      <trkpt lat="23.011726" lon="109.479490">
        <ele>58.298223</ele>
        <time>2026-08-15T04:37:45.000Z</time>
      </trkpt>
      <trkpt lat="23.011772" lon="109.479534">
        <ele>58.253635</ele>
        <time>2026-08-15T04:37:46.000Z</time>
      </trkpt>
      <trkpt lat="23.011817" lon="109.479578">
        <ele>58.209591</ele>
        <time>2026-08-15T04:37:47.000Z</time>
      </trkpt>
      <trkpt lat="23.011861" lon="109.479620">
        <ele>58.166980</ele>
        <time>2026-08-15T04:37:48.000Z</time>
      </trkpt>
      <trkpt lat="23.011906" lon="109.479662">
        <ele>58.123820</ele>
        <time>2026-08-15T04:37:49.000Z</time>
      </trkpt>
      <trkpt lat="23.011951" lon="109.479705">
        <ele>58.080220</ele>
        <time>2026-08-15T04:37:50.000Z</time>
      </trkpt>
      <trkpt lat="23.011994" lon="109.479747">
        <ele>58.038153</ele>
        <time>2026-08-15T04:37:51.000Z</time>
      </trkpt>
      <trkpt lat="23.012038" lon="109.479788">
        <ele>57.995982</ele>
        <time>2026-08-15T04:37:52.000Z</time>
      </trkpt>
      <trkpt lat="23.012082" lon="109.479830">
        <ele>57.953371</ele>
        <time>2026-08-15T04:37:53.000Z</time>
      </trkpt>
      <trkpt lat="23.012126" lon="109.479871">
        <ele>57.911199</ele>
        <time>2026-08-15T04:37:54.000Z</time>
      </trkpt>
      <trkpt lat="23.012169" lon="109.479912">
        <ele>57.869577</ele>
        <time>2026-08-15T04:37:55.000Z</time>
      </trkpt>
      <trkpt lat="23.012213" lon="109.479954">
        <ele>57.826966</ele>
        <time>2026-08-15T04:37:56.000Z</time>
      </trkpt>
      <trkpt lat="23.012256" lon="109.479995">
        <ele>57.785344</ele>
        <time>2026-08-15T04:37:57.000Z</time>
      </trkpt>
      <trkpt lat="23.012300" lon="109.480038">
        <ele>57.742288</ele>
        <time>2026-08-15T04:37:58.000Z</time>
      </trkpt>
      <trkpt lat="23.012344" lon="109.480082">
        <ele>57.698782</ele>
        <time>2026-08-15T04:37:59.000Z</time>
      </trkpt>
      <trkpt lat="23.012389" lon="109.480124">
        <ele>57.655622</ele>
        <time>2026-08-15T04:38:00.000Z</time>
      </trkpt>
      <trkpt lat="23.012433" lon="109.480167">
        <ele>57.612566</ele>
        <time>2026-08-15T04:38:01.000Z</time>
      </trkpt>
      <trkpt lat="23.012478" lon="109.480210">
        <ele>57.568967</ele>
        <time>2026-08-15T04:38:02.000Z</time>
      </trkpt>
      <trkpt lat="23.012524" lon="109.480254">
        <ele>57.524379</ele>
        <time>2026-08-15T04:38:03.000Z</time>
      </trkpt>
      <trkpt lat="23.012570" lon="109.480297">
        <ele>57.480231</ele>
        <time>2026-08-15T04:38:04.000Z</time>
      </trkpt>
      <trkpt lat="23.012613" lon="109.480342">
        <ele>57.440345</ele>
        <time>2026-08-15T04:38:05.000Z</time>
      </trkpt>
      <trkpt lat="23.012655" lon="109.480388">
        <ele>57.421803</ele>
        <time>2026-08-15T04:38:06.000Z</time>
      </trkpt>
      <trkpt lat="23.012697" lon="109.480433">
        <ele>57.403463</ele>
        <time>2026-08-15T04:38:07.000Z</time>
      </trkpt>
      <trkpt lat="23.012738" lon="109.480478">
        <ele>57.385343</ele>
        <time>2026-08-15T04:38:08.000Z</time>
      </trkpt>
      <trkpt lat="23.012777" lon="109.480524">
        <ele>57.367445</ele>
        <time>2026-08-15T04:38:09.000Z</time>
      </trkpt>
      <trkpt lat="23.012817" lon="109.480568">
        <ele>57.349747</ele>
        <time>2026-08-15T04:38:10.000Z</time>
      </trkpt>
      <trkpt lat="23.012853" lon="109.480613">
        <ele>57.332684</ele>
        <time>2026-08-15T04:38:11.000Z</time>
      </trkpt>
      <trkpt lat="23.012889" lon="109.480657">
        <ele>57.315837</ele>
        <time>2026-08-15T04:38:12.000Z</time>
      </trkpt>
      <trkpt lat="23.012923" lon="109.480704">
        <ele>57.298730</ele>
        <time>2026-08-15T04:38:13.000Z</time>
      </trkpt>
      <trkpt lat="23.012956" lon="109.480750">
        <ele>57.282039</ele>
        <time>2026-08-15T04:38:14.000Z</time>
      </trkpt>
      <trkpt lat="23.012989" lon="109.480796">
        <ele>57.265349</ele>
        <time>2026-08-15T04:38:15.000Z</time>
      </trkpt>
      <trkpt lat="23.013023" lon="109.480843">
        <ele>57.248242</ele>
        <time>2026-08-15T04:38:16.000Z</time>
      </trkpt>
      <trkpt lat="23.013056" lon="109.480888">
        <ele>57.231776</ele>
        <time>2026-08-15T04:38:17.000Z</time>
      </trkpt>
      <trkpt lat="23.013089" lon="109.480932">
        <ele>57.215534</ele>
        <time>2026-08-15T04:38:18.000Z</time>
      </trkpt>
      <trkpt lat="23.013123" lon="109.480979">
        <ele>57.198426</ele>
        <time>2026-08-15T04:38:19.000Z</time>
      </trkpt>
      <trkpt lat="23.013155" lon="109.481026">
        <ele>57.181696</ele>
        <time>2026-08-15T04:38:20.000Z</time>
      </trkpt>
      <trkpt lat="23.013189" lon="109.481075">
        <ele>57.164135</ele>
        <time>2026-08-15T04:38:21.000Z</time>
      </trkpt>
      <trkpt lat="23.013222" lon="109.481125">
        <ele>57.146528</ele>
        <time>2026-08-15T04:38:22.000Z</time>
      </trkpt>
      <trkpt lat="23.013257" lon="109.481175">
        <ele>57.128552</ele>
        <time>2026-08-15T04:38:23.000Z</time>
      </trkpt>
      <trkpt lat="23.013293" lon="109.481225">
        <ele>57.110385</ele>
        <time>2026-08-15T04:38:24.000Z</time>
      </trkpt>
      <trkpt lat="23.013327" lon="109.481275">
        <ele>57.092595</ele>
        <time>2026-08-15T04:38:25.000Z</time>
      </trkpt>
      <trkpt lat="23.013362" lon="109.481325">
        <ele>57.074618</ele>
        <time>2026-08-15T04:38:26.000Z</time>
      </trkpt>
      <trkpt lat="23.013397" lon="109.481376">
        <ele>57.056413</ele>
        <time>2026-08-15T04:38:27.000Z</time>
      </trkpt>
      <trkpt lat="23.013432" lon="109.481427">
        <ele>57.038208</ele>
        <time>2026-08-15T04:38:28.000Z</time>
      </trkpt>
      <trkpt lat="23.013467" lon="109.481477">
        <ele>57.020231</ele>
        <time>2026-08-15T04:38:29.000Z</time>
      </trkpt>
      <trkpt lat="23.013503" lon="109.481528">
        <ele>57.001838</ele>
        <time>2026-08-15T04:38:30.000Z</time>
      </trkpt>
      <trkpt lat="23.013538" lon="109.481579">
        <ele>56.983633</ele>
        <time>2026-08-15T04:38:31.000Z</time>
      </trkpt>
      <trkpt lat="23.013573" lon="109.481630">
        <ele>56.965428</ele>
        <time>2026-08-15T04:38:32.000Z</time>
      </trkpt>
      <trkpt lat="23.013608" lon="109.481682">
        <ele>56.946992</ele>
        <time>2026-08-15T04:38:33.000Z</time>
      </trkpt>
      <trkpt lat="23.013643" lon="109.481733">
        <ele>56.928787</ele>
        <time>2026-08-15T04:38:34.000Z</time>
      </trkpt>
      <trkpt lat="23.013679" lon="109.481784">
        <ele>56.910394</ele>
        <time>2026-08-15T04:38:35.000Z</time>
      </trkpt>
      <trkpt lat="23.013714" lon="109.481837">
        <ele>56.891727</ele>
        <time>2026-08-15T04:38:36.000Z</time>
      </trkpt>
      <trkpt lat="23.013750" lon="109.481889">
        <ele>56.878490</ele>
        <time>2026-08-15T04:38:37.000Z</time>
      </trkpt>
      <trkpt lat="23.013786" lon="109.481941">
        <ele>56.869275</ele>
        <time>2026-08-15T04:38:38.000Z</time>
      </trkpt>
      <trkpt lat="23.013821" lon="109.481993">
        <ele>56.860152</ele>
        <time>2026-08-15T04:38:39.000Z</time>
      </trkpt>
      <trkpt lat="23.013856" lon="109.482045">
        <ele>56.851030</ele>
        <time>2026-08-15T04:38:40.000Z</time>
      </trkpt>
      <trkpt lat="23.013890" lon="109.482096">
        <ele>56.842112</ele>
        <time>2026-08-15T04:38:41.000Z</time>
      </trkpt>
      <trkpt lat="23.013925" lon="109.482148">
        <ele>56.832989</ele>
        <time>2026-08-15T04:38:42.000Z</time>
      </trkpt>
      <trkpt lat="23.013959" lon="109.482198">
        <ele>56.824185</ele>
        <time>2026-08-15T04:38:43.000Z</time>
      </trkpt>
      <trkpt lat="23.013993" lon="109.482248">
        <ele>56.815382</ele>
        <time>2026-08-15T04:38:44.000Z</time>
      </trkpt>
      <trkpt lat="23.014027" lon="109.482297">
        <ele>56.806692</ele>
        <time>2026-08-15T04:38:45.000Z</time>
      </trkpt>
      <trkpt lat="23.014061" lon="109.482345">
        <ele>56.798115</ele>
        <time>2026-08-15T04:38:46.000Z</time>
      </trkpt>
      <trkpt lat="23.014094" lon="109.482395">
        <ele>56.789402</ele>
        <time>2026-08-15T04:38:47.000Z</time>
      </trkpt>
      <trkpt lat="23.014126" lon="109.482445">
        <ele>56.780778</ele>
        <time>2026-08-15T04:38:48.000Z</time>
      </trkpt>
      <trkpt lat="23.014160" lon="109.482495">
        <ele>56.771974</ele>
        <time>2026-08-15T04:38:49.000Z</time>
      </trkpt>
      <trkpt lat="23.014193" lon="109.482545">
        <ele>56.763261</ele>
        <time>2026-08-15T04:38:50.000Z</time>
      </trkpt>
      <trkpt lat="23.014226" lon="109.482594">
        <ele>56.754663</ele>
        <time>2026-08-15T04:38:51.000Z</time>
      </trkpt>
      <trkpt lat="23.014260" lon="109.482645">
        <ele>56.745745</ele>
        <time>2026-08-15T04:38:52.000Z</time>
      </trkpt>
      <trkpt lat="23.014292" lon="109.482696">
        <ele>56.737005</ele>
        <time>2026-08-15T04:38:53.000Z</time>
      </trkpt>
      <trkpt lat="23.014325" lon="109.482748">
        <ele>56.728060</ele>
        <time>2026-08-15T04:38:54.000Z</time>
      </trkpt>
      <trkpt lat="23.014359" lon="109.482798">
        <ele>56.719256</ele>
        <time>2026-08-15T04:38:55.000Z</time>
      </trkpt>
      <trkpt lat="23.014393" lon="109.482848">
        <ele>56.710453</ele>
        <time>2026-08-15T04:38:56.000Z</time>
      </trkpt>
      <trkpt lat="23.014426" lon="109.482898">
        <ele>56.701740</ele>
        <time>2026-08-15T04:38:57.000Z</time>
      </trkpt>
      <trkpt lat="23.014457" lon="109.482948">
        <ele>56.693203</ele>
        <time>2026-08-15T04:38:58.000Z</time>
      </trkpt>
      <trkpt lat="23.014488" lon="109.482996">
        <ele>56.684899</ele>
        <time>2026-08-15T04:38:59.000Z</time>
      </trkpt>
      <trkpt lat="23.014519" lon="109.483046">
        <ele>56.676362</ele>
        <time>2026-08-15T04:39:00.000Z</time>
      </trkpt>
      <trkpt lat="23.014550" lon="109.483096">
        <ele>56.667825</ele>
        <time>2026-08-15T04:39:01.000Z</time>
      </trkpt>
      <trkpt lat="23.014582" lon="109.483146">
        <ele>56.659200</ele>
        <time>2026-08-15T04:39:02.000Z</time>
      </trkpt>
      <trkpt lat="23.014615" lon="109.483196">
        <ele>56.650488</ele>
        <time>2026-08-15T04:39:03.000Z</time>
      </trkpt>
      <trkpt lat="23.014648" lon="109.483245">
        <ele>56.641889</ele>
        <time>2026-08-15T04:39:04.000Z</time>
      </trkpt>
      <trkpt lat="23.014683" lon="109.483294">
        <ele>56.633106</ele>
        <time>2026-08-15T04:39:05.000Z</time>
      </trkpt>
      <trkpt lat="23.014718" lon="109.483343">
        <ele>56.624322</ele>
        <time>2026-08-15T04:39:06.000Z</time>
      </trkpt>
      <trkpt lat="23.014753" lon="109.483391">
        <ele>56.615650</ele>
        <time>2026-08-15T04:39:07.000Z</time>
      </trkpt>
      <trkpt lat="23.014787" lon="109.483436">
        <ele>56.607406</ele>
        <time>2026-08-15T04:39:08.000Z</time>
      </trkpt>
      <trkpt lat="23.014822" lon="109.483481">
        <ele>56.618053</ele>
        <time>2026-08-15T04:39:09.000Z</time>
      </trkpt>
      <trkpt lat="23.014859" lon="109.483528">
        <ele>56.630180</ele>
        <time>2026-08-15T04:39:10.000Z</time>
      </trkpt>
      <trkpt lat="23.014896" lon="109.483574">
        <ele>56.642160</ele>
        <time>2026-08-15T04:39:11.000Z</time>
      </trkpt>
      <trkpt lat="23.014935" lon="109.483619">
        <ele>56.654280</ele>
        <time>2026-08-15T04:39:12.000Z</time>
      </trkpt>
      <trkpt lat="23.014974" lon="109.483665">
        <ele>56.666543</ele>
        <time>2026-08-15T04:39:13.000Z</time>
      </trkpt>
      <trkpt lat="23.015013" lon="109.483709">
        <ele>56.678521</ele>
        <time>2026-08-15T04:39:14.000Z</time>
      </trkpt>
      <trkpt lat="23.015052" lon="109.483752">
        <ele>56.690359</ele>
        <time>2026-08-15T04:39:15.000Z</time>
      </trkpt>
      <trkpt lat="23.015092" lon="109.483796">
        <ele>56.702486</ele>
        <time>2026-08-15T04:39:16.000Z</time>
      </trkpt>
      <trkpt lat="23.015132" lon="109.483839">
        <ele>56.714474</ele>
        <time>2026-08-15T04:39:17.000Z</time>
      </trkpt>
      <trkpt lat="23.015172" lon="109.483881">
        <ele>56.726325</ele>
        <time>2026-08-15T04:39:18.000Z</time>
      </trkpt>
      <trkpt lat="23.015213" lon="109.483924">
        <ele>56.738466</ele>
        <time>2026-08-15T04:39:19.000Z</time>
      </trkpt>
      <trkpt lat="23.015254" lon="109.483965">
        <ele>56.750337</ele>
        <time>2026-08-15T04:39:20.000Z</time>
      </trkpt>
      <trkpt lat="23.015296" lon="109.484007">
        <ele>56.762498</ele>
        <time>2026-08-15T04:39:21.000Z</time>
      </trkpt>
      <trkpt lat="23.015338" lon="109.484048">
        <ele>56.774527</ele>
        <time>2026-08-15T04:39:22.000Z</time>
      </trkpt>
      <trkpt lat="23.015378" lon="109.484089">
        <ele>56.786243</ele>
        <time>2026-08-15T04:39:23.000Z</time>
      </trkpt>
      <trkpt lat="23.015420" lon="109.484129">
        <ele>56.798142</ele>
        <time>2026-08-15T04:39:24.000Z</time>
      </trkpt>
      <trkpt lat="23.015460" lon="109.484170">
        <ele>56.809858</ele>
        <time>2026-08-15T04:39:25.000Z</time>
      </trkpt>
      <trkpt lat="23.015501" lon="109.484212">
        <ele>56.821863</ele>
        <time>2026-08-15T04:39:26.000Z</time>
      </trkpt>
      <trkpt lat="23.015541" lon="109.484254">
        <ele>56.833714</ele>
        <time>2026-08-15T04:39:27.000Z</time>
      </trkpt>
      <trkpt lat="23.015583" lon="109.484294">
        <ele>56.845613</ele>
        <time>2026-08-15T04:39:28.000Z</time>
      </trkpt>
      <trkpt lat="23.015626" lon="109.484335">
        <ele>56.857801</ele>
        <time>2026-08-15T04:39:29.000Z</time>
      </trkpt>
      <trkpt lat="23.015667" lon="109.484376">
        <ele>56.869673</ele>
        <time>2026-08-15T04:39:30.000Z</time>
      </trkpt>
      <trkpt lat="23.015708" lon="109.484418">
        <ele>56.881678</ele>
        <time>2026-08-15T04:39:31.000Z</time>
      </trkpt>
      <trkpt lat="23.015750" lon="109.484458">
        <ele>56.893577</ele>
        <time>2026-08-15T04:39:32.000Z</time>
      </trkpt>
      <trkpt lat="23.015792" lon="109.484498">
        <ele>56.905476</ele>
        <time>2026-08-15T04:39:33.000Z</time>
      </trkpt>
      <trkpt lat="23.015833" lon="109.484538">
        <ele>56.917215</ele>
        <time>2026-08-15T04:39:34.000Z</time>
      </trkpt>
      <trkpt lat="23.015872" lon="109.484579">
        <ele>56.928777</ele>
        <time>2026-08-15T04:39:35.000Z</time>
      </trkpt>
      <trkpt lat="23.015912" lon="109.484620">
        <ele>56.940493</ele>
        <time>2026-08-15T04:39:36.000Z</time>
      </trkpt>
      <trkpt lat="23.015951" lon="109.484659">
        <ele>56.951785</ele>
        <time>2026-08-15T04:39:37.000Z</time>
      </trkpt>
      <trkpt lat="23.015989" lon="109.484699">
        <ele>56.963057</ele>
        <time>2026-08-15T04:39:38.000Z</time>
      </trkpt>
      <trkpt lat="23.016027" lon="109.484738">
        <ele>56.974194</ele>
        <time>2026-08-15T04:39:39.000Z</time>
      </trkpt>
      <trkpt lat="23.016065" lon="109.484775">
        <ele>56.985065</ele>
        <time>2026-08-15T04:39:40.000Z</time>
      </trkpt>
      <trkpt lat="23.016105" lon="109.484812">
        <ele>57.011057</ele>
        <time>2026-08-15T04:39:41.000Z</time>
      </trkpt>
      <trkpt lat="23.016144" lon="109.484851">
        <ele>57.050031</ele>
        <time>2026-08-15T04:39:42.000Z</time>
      </trkpt>
      <trkpt lat="23.016182" lon="109.484891">
        <ele>57.088935</ele>
        <time>2026-08-15T04:39:43.000Z</time>
      </trkpt>
      <trkpt lat="23.016219" lon="109.484931">
        <ele>57.127315</ele>
        <time>2026-08-15T04:39:44.000Z</time>
      </trkpt>
      <trkpt lat="23.016256" lon="109.484970">
        <ele>57.165220</ele>
        <time>2026-08-15T04:39:45.000Z</time>
      </trkpt>
      <trkpt lat="23.016293" lon="109.485009">
        <ele>57.203125</ele>
        <time>2026-08-15T04:39:46.000Z</time>
      </trkpt>
      <trkpt lat="23.016328" lon="109.485049">
        <ele>57.240477</ele>
        <time>2026-08-15T04:39:47.000Z</time>
      </trkpt>
      <trkpt lat="23.016366" lon="109.485089">
        <ele>57.279381</ele>
        <time>2026-08-15T04:39:48.000Z</time>
      </trkpt>
      <trkpt lat="23.016402" lon="109.485127">
        <ele>57.316287</ele>
        <time>2026-08-15T04:39:49.000Z</time>
      </trkpt>
      <trkpt lat="23.016438" lon="109.485165">
        <ele>57.353194</ele>
        <time>2026-08-15T04:39:50.000Z</time>
      </trkpt>
      <trkpt lat="23.016472" lon="109.485202">
        <ele>57.388578</ele>
        <time>2026-08-15T04:39:51.000Z</time>
      </trkpt>
      <trkpt lat="23.016506" lon="109.485238">
        <ele>57.423486</ele>
        <time>2026-08-15T04:39:52.000Z</time>
      </trkpt>
      <trkpt lat="23.016539" lon="109.485276">
        <ele>57.458843</ele>
        <time>2026-08-15T04:39:53.000Z</time>
      </trkpt>
      <trkpt lat="23.016569" lon="109.485316">
        <ele>57.493764</ele>
        <time>2026-08-15T04:39:54.000Z</time>
      </trkpt>
      <trkpt lat="23.016598" lon="109.485355">
        <ele>57.527695</ele>
        <time>2026-08-15T04:39:55.000Z</time>
      </trkpt>
      <trkpt lat="23.016629" lon="109.485394">
        <ele>57.562569</ele>
        <time>2026-08-15T04:39:56.000Z</time>
      </trkpt>
      <trkpt lat="23.016661" lon="109.485434">
        <ele>57.598436</ele>
        <time>2026-08-15T04:39:57.000Z</time>
      </trkpt>
      <trkpt lat="23.016694" lon="109.485473">
        <ele>57.634289</ele>
        <time>2026-08-15T04:39:58.000Z</time>
      </trkpt>
      <trkpt lat="23.016726" lon="109.485511">
        <ele>57.669146</ele>
        <time>2026-08-15T04:39:59.000Z</time>
      </trkpt>
      <trkpt lat="23.016759" lon="109.485549">
        <ele>57.704503</ele>
        <time>2026-08-15T04:40:00.000Z</time>
      </trkpt>
      <trkpt lat="23.016791" lon="109.485587">
        <ele>57.739360</ele>
        <time>2026-08-15T04:40:01.000Z</time>
      </trkpt>
      <trkpt lat="23.016824" lon="109.485625">
        <ele>57.774718</ele>
        <time>2026-08-15T04:40:02.000Z</time>
      </trkpt>
      <trkpt lat="23.016857" lon="109.485665">
        <ele>57.811072</ele>
        <time>2026-08-15T04:40:03.000Z</time>
      </trkpt>
      <trkpt lat="23.016889" lon="109.485704">
        <ele>57.846431</ele>
        <time>2026-08-15T04:40:04.000Z</time>
      </trkpt>
      <trkpt lat="23.016924" lon="109.485743">
        <ele>57.883295</ele>
        <time>2026-08-15T04:40:05.000Z</time>
      </trkpt>
      <trkpt lat="23.016958" lon="109.485781">
        <ele>57.919161</ele>
        <time>2026-08-15T04:40:06.000Z</time>
      </trkpt>
      <trkpt lat="23.016991" lon="109.485819">
        <ele>57.954518</ele>
        <time>2026-08-15T04:40:07.000Z</time>
      </trkpt>
      <trkpt lat="23.017021" lon="109.485853">
        <ele>57.986394</ele>
        <time>2026-08-15T04:40:08.000Z</time>
      </trkpt>
      <trkpt lat="23.017053" lon="109.485887">
        <ele>58.019304</ele>
        <time>2026-08-15T04:40:09.000Z</time>
      </trkpt>
      <trkpt lat="23.017084" lon="109.485923">
        <ele>58.052668</ele>
        <time>2026-08-15T04:40:10.000Z</time>
      </trkpt>
      <trkpt lat="23.017119" lon="109.485955">
        <ele>58.086303</ele>
        <time>2026-08-15T04:40:11.000Z</time>
      </trkpt>
      <trkpt lat="23.017151" lon="109.485988">
        <ele>58.118744</ele>
        <time>2026-08-15T04:40:12.000Z</time>
      </trkpt>
      <trkpt lat="23.017181" lon="109.486021">
        <ele>58.150135</ele>
        <time>2026-08-15T04:40:13.000Z</time>
      </trkpt>
      <trkpt lat="23.017210" lon="109.486051">
        <ele>58.179578</ele>
        <time>2026-08-15T04:40:14.000Z</time>
      </trkpt>
      <trkpt lat="23.017241" lon="109.486083">
        <ele>58.211020</ele>
        <time>2026-08-15T04:40:15.000Z</time>
      </trkpt>
      <trkpt lat="23.017271" lon="109.486114">
        <ele>58.241462</ele>
        <time>2026-08-15T04:40:16.000Z</time>
      </trkpt>
      <trkpt lat="23.017302" lon="109.486145">
        <ele>58.272441</ele>
        <time>2026-08-15T04:40:17.000Z</time>
      </trkpt>
      <trkpt lat="23.017330" lon="109.486177">
        <ele>58.302322</ele>
        <time>2026-08-15T04:40:18.000Z</time>
      </trkpt>
      <trkpt lat="23.017361" lon="109.486208">
        <ele>58.329045</ele>
        <time>2026-08-15T04:40:19.000Z</time>
      </trkpt>
      <trkpt lat="23.017392" lon="109.486237">
        <ele>58.352892</ele>
        <time>2026-08-15T04:40:20.000Z</time>
      </trkpt>
      <trkpt lat="23.017420" lon="109.486269">
        <ele>58.376581</ele>
        <time>2026-08-15T04:40:21.000Z</time>
      </trkpt>
      <trkpt lat="23.017451" lon="109.486297">
        <ele>58.400081</ele>
        <time>2026-08-15T04:40:22.000Z</time>
      </trkpt>
      <trkpt lat="23.017482" lon="109.486323">
        <ele>58.422909</ele>
        <time>2026-08-15T04:40:23.000Z</time>
      </trkpt>
      <trkpt lat="23.017515" lon="109.486349">
        <ele>58.446671</ele>
        <time>2026-08-15T04:40:24.000Z</time>
      </trkpt>
      <trkpt lat="23.017544" lon="109.486375">
        <ele>58.468589</ele>
        <time>2026-08-15T04:40:25.000Z</time>
      </trkpt>
      <trkpt lat="23.017574" lon="109.486400">
        <ele>58.490628</ele>
        <time>2026-08-15T04:40:26.000Z</time>
      </trkpt>
      <trkpt lat="23.017600" lon="109.486429">
        <ele>58.512349</ele>
        <time>2026-08-15T04:40:27.000Z</time>
      </trkpt>
      <trkpt lat="23.017627" lon="109.486455">
        <ele>58.533380</ele>
        <time>2026-08-15T04:40:28.000Z</time>
      </trkpt>
      <trkpt lat="23.017656" lon="109.486485">
        <ele>58.556722</ele>
        <time>2026-08-15T04:40:29.000Z</time>
      </trkpt>
      <trkpt lat="23.017688" lon="109.486520">
        <ele>58.583191</ele>
        <time>2026-08-15T04:40:30.000Z</time>
      </trkpt>
      <trkpt lat="23.017714" lon="109.486553">
        <ele>58.606497</ele>
        <time>2026-08-15T04:40:31.000Z</time>
      </trkpt>
      <trkpt lat="23.017741" lon="109.486585">
        <ele>58.629788</ele>
        <time>2026-08-15T04:40:32.000Z</time>
      </trkpt>
      <trkpt lat="23.017769" lon="109.486616">
        <ele>58.653092</ele>
        <time>2026-08-15T04:40:33.000Z</time>
      </trkpt>
      <trkpt lat="23.017797" lon="109.486646">
        <ele>58.676015</ele>
        <time>2026-08-15T04:40:34.000Z</time>
      </trkpt>
      <trkpt lat="23.017819" lon="109.486683">
        <ele>58.699648</ele>
        <time>2026-08-15T04:40:35.000Z</time>
      </trkpt>
      <trkpt lat="23.017845" lon="109.486719">
        <ele>58.724200</ele>
        <time>2026-08-15T04:40:36.000Z</time>
      </trkpt>
      <trkpt lat="23.017875" lon="109.486752">
        <ele>58.749086</ele>
        <time>2026-08-15T04:40:37.000Z</time>
      </trkpt>
      <trkpt lat="23.017910" lon="109.486786">
        <ele>58.776454</ele>
        <time>2026-08-15T04:40:38.000Z</time>
      </trkpt>
      <trkpt lat="23.017947" lon="109.486818">
        <ele>58.804021</ele>
        <time>2026-08-15T04:40:39.000Z</time>
      </trkpt>
      <trkpt lat="23.017982" lon="109.486854">
        <ele>58.832116</ele>
        <time>2026-08-15T04:40:40.000Z</time>
      </trkpt>
      <trkpt lat="23.018018" lon="109.486891">
        <ele>58.861003</ele>
        <time>2026-08-15T04:40:41.000Z</time>
      </trkpt>
      <trkpt lat="23.018046" lon="109.486932">
        <ele>58.888395</ele>
        <time>2026-08-15T04:40:42.000Z</time>
      </trkpt>
      <trkpt lat="23.018072" lon="109.486974">
        <ele>58.915551</ele>
        <time>2026-08-15T04:40:43.000Z</time>
      </trkpt>
      <trkpt lat="23.018095" lon="109.487019">
        <ele>58.943168</ele>
        <time>2026-08-15T04:40:44.000Z</time>
      </trkpt>
      <trkpt lat="23.018112" lon="109.487063">
        <ele>58.968770</ele>
        <time>2026-08-15T04:40:45.000Z</time>
      </trkpt>
      <trkpt lat="23.018127" lon="109.487109">
        <ele>58.994953</ele>
        <time>2026-08-15T04:40:46.000Z</time>
      </trkpt>
      <trkpt lat="23.018141" lon="109.487155">
        <ele>59.020948</ele>
        <time>2026-08-15T04:40:47.000Z</time>
      </trkpt>
      <trkpt lat="23.018147" lon="109.487198">
        <ele>59.044282</ele>
        <time>2026-08-15T04:40:48.000Z</time>
      </trkpt>
      <trkpt lat="23.018149" lon="109.487239">
        <ele>59.066310</ele>
        <time>2026-08-15T04:40:49.000Z</time>
      </trkpt>
      <trkpt lat="23.018142" lon="109.487276">
        <ele>59.086576</ele>
        <time>2026-08-15T04:40:50.000Z</time>
      </trkpt>
      <trkpt lat="23.018135" lon="109.487316">
        <ele>59.108421</ele>
        <time>2026-08-15T04:40:51.000Z</time>
      </trkpt>
      <trkpt lat="23.018122" lon="109.487357">
        <ele>59.131687</ele>
        <time>2026-08-15T04:40:52.000Z</time>
      </trkpt>
      <trkpt lat="23.018107" lon="109.487399">
        <ele>59.155858</ele>
        <time>2026-08-15T04:40:53.000Z</time>
      </trkpt>
      <trkpt lat="23.018088" lon="109.487441">
        <ele>59.180967</ele>
        <time>2026-08-15T04:40:54.000Z</time>
      </trkpt>
      <trkpt lat="23.018069" lon="109.487481">
        <ele>59.205117</ele>
        <time>2026-08-15T04:40:55.000Z</time>
      </trkpt>
      <trkpt lat="23.018047" lon="109.487521">
        <ele>59.230118</ele>
        <time>2026-08-15T04:40:56.000Z</time>
      </trkpt>
      <trkpt lat="23.018026" lon="109.487564">
        <ele>59.256235</ele>
        <time>2026-08-15T04:40:57.000Z</time>
      </trkpt>
      <trkpt lat="23.018002" lon="109.487607">
        <ele>59.283216</ele>
        <time>2026-08-15T04:40:58.000Z</time>
      </trkpt>
      <trkpt lat="23.017979" lon="109.487646">
        <ele>59.308067</ele>
        <time>2026-08-15T04:40:59.000Z</time>
      </trkpt>
      <trkpt lat="23.017955" lon="109.487686">
        <ele>59.333685</ele>
        <time>2026-08-15T04:41:00.000Z</time>
      </trkpt>
      <trkpt lat="23.017930" lon="109.487725">
        <ele>59.359184</ele>
        <time>2026-08-15T04:41:01.000Z</time>
      </trkpt>
      <trkpt lat="23.017903" lon="109.487765">
        <ele>59.389770</ele>
        <time>2026-08-15T04:41:02.000Z</time>
      </trkpt>
      <trkpt lat="23.017874" lon="109.487804">
        <ele>59.421022</ele>
        <time>2026-08-15T04:41:03.000Z</time>
      </trkpt>
      <trkpt lat="23.017847" lon="109.487844">
        <ele>59.451942</ele>
        <time>2026-08-15T04:41:04.000Z</time>
      </trkpt>
      <trkpt lat="23.017822" lon="109.487884">
        <ele>59.482080</ele>
        <time>2026-08-15T04:41:05.000Z</time>
      </trkpt>
      <trkpt lat="23.017799" lon="109.487924">
        <ele>59.511479</ele>
        <time>2026-08-15T04:41:06.000Z</time>
      </trkpt>
      <trkpt lat="23.017782" lon="109.487967">
        <ele>59.540650</ele>
        <time>2026-08-15T04:41:07.000Z</time>
      </trkpt>
      <trkpt lat="23.017766" lon="109.488011">
        <ele>59.570139</ele>
        <time>2026-08-15T04:41:08.000Z</time>
      </trkpt>
      <trkpt lat="23.017748" lon="109.488053">
        <ele>59.599018</ele>
        <time>2026-08-15T04:41:09.000Z</time>
      </trkpt>
      <trkpt lat="23.017730" lon="109.488097">
        <ele>59.629031</ele>
        <time>2026-08-15T04:41:10.000Z</time>
      </trkpt>
      <trkpt lat="23.017711" lon="109.488145">
        <ele>59.661601</ele>
        <time>2026-08-15T04:41:11.000Z</time>
      </trkpt>
      <trkpt lat="23.017694" lon="109.488192">
        <ele>59.693078</ele>
        <time>2026-08-15T04:41:12.000Z</time>
      </trkpt>
      <trkpt lat="23.017676" lon="109.488237">
        <ele>59.723662</ele>
        <time>2026-08-15T04:41:13.000Z</time>
      </trkpt>
      <trkpt lat="23.017658" lon="109.488280">
        <ele>59.753107</ele>
        <time>2026-08-15T04:41:14.000Z</time>
      </trkpt>
      <trkpt lat="23.017642" lon="109.488325">
        <ele>59.783177</ele>
        <time>2026-08-15T04:41:15.000Z</time>
      </trkpt>
      <trkpt lat="23.017627" lon="109.488371">
        <ele>59.813597</ele>
        <time>2026-08-15T04:41:16.000Z</time>
      </trkpt>
      <trkpt lat="23.017612" lon="109.488417">
        <ele>59.844016</ele>
        <time>2026-08-15T04:41:17.000Z</time>
      </trkpt>
      <trkpt lat="23.017597" lon="109.488461">
        <ele>59.873264</ele>
        <time>2026-08-15T04:41:18.000Z</time>
      </trkpt>
      <trkpt lat="23.017585" lon="109.488504">
        <ele>59.901272</ele>
        <time>2026-08-15T04:41:19.000Z</time>
      </trkpt>
      <trkpt lat="23.017572" lon="109.488541">
        <ele>59.925958</ele>
        <time>2026-08-15T04:41:20.000Z</time>
      </trkpt>
      <trkpt lat="23.017562" lon="109.488582">
        <ele>59.952397</ele>
        <time>2026-08-15T04:41:21.000Z</time>
      </trkpt>
      <trkpt lat="23.017554" lon="109.488625">
        <ele>59.979742</ele>
        <time>2026-08-15T04:41:22.000Z</time>
      </trkpt>
      <trkpt lat="23.017542" lon="109.488670">
        <ele>60.008945</ele>
        <time>2026-08-15T04:41:23.000Z</time>
      </trkpt>
      <trkpt lat="23.017529" lon="109.488713">
        <ele>60.037157</ele>
        <time>2026-08-15T04:41:24.000Z</time>
      </trkpt>
      <trkpt lat="23.017514" lon="109.488754">
        <ele>60.064659</ele>
        <time>2026-08-15T04:41:25.000Z</time>
      </trkpt>
      <trkpt lat="23.017501" lon="109.488798">
        <ele>60.093463</ele>
        <time>2026-08-15T04:41:26.000Z</time>
      </trkpt>
      <trkpt lat="23.017488" lon="109.488843">
        <ele>60.122862</ele>
        <time>2026-08-15T04:41:27.000Z</time>
      </trkpt>
      <trkpt lat="23.017475" lon="109.488888">
        <ele>60.152261</ele>
        <time>2026-08-15T04:41:28.000Z</time>
      </trkpt>
      <trkpt lat="23.017466" lon="109.488932">
        <ele>60.180357</ele>
        <time>2026-08-15T04:41:29.000Z</time>
      </trkpt>
      <trkpt lat="23.017454" lon="109.488975">
        <ele>60.208365</ele>
        <time>2026-08-15T04:41:30.000Z</time>
      </trkpt>
      <trkpt lat="23.017451" lon="109.489029">
        <ele>60.242086</ele>
        <time>2026-08-15T04:41:31.000Z</time>
      </trkpt>
      <trkpt lat="23.017447" lon="109.489079">
        <ele>60.273370</ele>
        <time>2026-08-15T04:41:32.000Z</time>
      </trkpt>
      <trkpt lat="23.017438" lon="109.489129">
        <ele>60.305127</ele>
        <time>2026-08-15T04:41:33.000Z</time>
      </trkpt>
      <trkpt lat="23.017429" lon="109.489185">
        <ele>60.340561</ele>
        <time>2026-08-15T04:41:34.000Z</time>
      </trkpt>
      <trkpt lat="23.017409" lon="109.489234">
        <ele>60.373973</ele>
        <time>2026-08-15T04:41:35.000Z</time>
      </trkpt>
      <trkpt lat="23.017400" lon="109.489283">
        <ele>60.405118</ele>
        <time>2026-08-15T04:41:36.000Z</time>
      </trkpt>
      <trkpt lat="23.017395" lon="109.489334">
        <ele>60.437088</ele>
        <time>2026-08-15T04:41:37.000Z</time>
      </trkpt>
      <trkpt lat="23.017386" lon="109.489385">
        <ele>60.469456</ele>
        <time>2026-08-15T04:41:38.000Z</time>
      </trkpt>
      <trkpt lat="23.017372" lon="109.489435">
        <ele>60.502033</ele>
        <time>2026-08-15T04:41:39.000Z</time>
      </trkpt>
      <trkpt lat="23.017363" lon="109.489491">
        <ele>60.537468</ele>
        <time>2026-08-15T04:41:40.000Z</time>
      </trkpt>
      <trkpt lat="23.017355" lon="109.489537">
        <ele>60.566648</ele>
        <time>2026-08-15T04:41:41.000Z</time>
      </trkpt>
      <trkpt lat="23.017349" lon="109.489588">
        <ele>60.566012</ele>
        <time>2026-08-15T04:41:42.000Z</time>
      </trkpt>
      <trkpt lat="23.017339" lon="109.489639">
        <ele>60.543544</ele>
        <time>2026-08-15T04:41:43.000Z</time>
      </trkpt>
      <trkpt lat="23.017331" lon="109.489693">
        <ele>60.519977</ele>
        <time>2026-08-15T04:41:44.000Z</time>
      </trkpt>
      <trkpt lat="23.017322" lon="109.489743">
        <ele>60.498025</ele>
        <time>2026-08-15T04:41:45.000Z</time>
      </trkpt>
      <trkpt lat="23.017314" lon="109.489796">
        <ele>60.474883</ele>
        <time>2026-08-15T04:41:46.000Z</time>
      </trkpt>
      <trkpt lat="23.017308" lon="109.489848">
        <ele>60.452302</ele>
        <time>2026-08-15T04:41:47.000Z</time>
      </trkpt>
      <trkpt lat="23.017303" lon="109.489901">
        <ele>60.429345</ele>
        <time>2026-08-15T04:41:48.000Z</time>
      </trkpt>
      <trkpt lat="23.017296" lon="109.489956">
        <ele>60.405421</ele>
        <time>2026-08-15T04:41:49.000Z</time>
      </trkpt>
      <trkpt lat="23.017286" lon="109.490007">
        <ele>60.382953</ele>
        <time>2026-08-15T04:41:50.000Z</time>
      </trkpt>
      <trkpt lat="23.017277" lon="109.490056">
        <ele>60.361424</ele>
        <time>2026-08-15T04:41:51.000Z</time>
      </trkpt>
      <trkpt lat="23.017273" lon="109.490105">
        <ele>60.340228</ele>
        <time>2026-08-15T04:41:52.000Z</time>
      </trkpt>
      <trkpt lat="23.017269" lon="109.490155">
        <ele>60.318602</ele>
        <time>2026-08-15T04:41:53.000Z</time>
      </trkpt>
      <trkpt lat="23.017273" lon="109.490210">
        <ele>60.294830</ele>
        <time>2026-08-15T04:41:54.000Z</time>
      </trkpt>
      <trkpt lat="23.017267" lon="109.490264">
        <ele>60.271393</ele>
        <time>2026-08-15T04:41:55.000Z</time>
      </trkpt>
      <trkpt lat="23.017259" lon="109.490323">
        <ele>60.245697</ele>
        <time>2026-08-15T04:41:56.000Z</time>
      </trkpt>
      <trkpt lat="23.017252" lon="109.490375">
        <ele>60.223053</ele>
        <time>2026-08-15T04:41:57.000Z</time>
      </trkpt>
      <trkpt lat="23.017248" lon="109.490428">
        <ele>60.200139</ele>
        <time>2026-08-15T04:41:58.000Z</time>
      </trkpt>
      <trkpt lat="23.017241" lon="109.490483">
        <ele>60.176215</ele>
        <time>2026-08-15T04:41:59.000Z</time>
      </trkpt>
      <trkpt lat="23.017233" lon="109.490539">
        <ele>60.151797</ele>
        <time>2026-08-15T04:42:00.000Z</time>
      </trkpt>
      <trkpt lat="23.017227" lon="109.490596">
        <ele>60.127077</ele>
        <time>2026-08-15T04:42:01.000Z</time>
      </trkpt>
      <trkpt lat="23.017223" lon="109.490654">
        <ele>60.102016</ele>
        <time>2026-08-15T04:42:02.000Z</time>
      </trkpt>
      <trkpt lat="23.017219" lon="109.490713">
        <ele>60.076525</ele>
        <time>2026-08-15T04:42:03.000Z</time>
      </trkpt>
      <trkpt lat="23.017218" lon="109.490773">
        <ele>60.050668</ele>
        <time>2026-08-15T04:42:04.000Z</time>
      </trkpt>
      <trkpt lat="23.017219" lon="109.490832">
        <ele>60.025241</ele>
        <time>2026-08-15T04:42:05.000Z</time>
      </trkpt>
      <trkpt lat="23.017228" lon="109.490889">
        <ele>60.000322</ele>
        <time>2026-08-15T04:42:06.000Z</time>
      </trkpt>
      <trkpt lat="23.017237" lon="109.490948">
        <ele>59.974554</ele>
        <time>2026-08-15T04:42:07.000Z</time>
      </trkpt>
      <trkpt lat="23.017251" lon="109.491008">
        <ele>59.947883</ele>
        <time>2026-08-15T04:42:08.000Z</time>
      </trkpt>
      <trkpt lat="23.017267" lon="109.491064">
        <ele>59.922618</ele>
        <time>2026-08-15T04:42:09.000Z</time>
      </trkpt>
      <trkpt lat="23.017286" lon="109.491116">
        <ele>59.898511</ele>
        <time>2026-08-15T04:42:10.000Z</time>
      </trkpt>
      <trkpt lat="23.017306" lon="109.491165">
        <ele>59.875415</ele>
        <time>2026-08-15T04:42:11.000Z</time>
      </trkpt>
      <trkpt lat="23.017325" lon="109.491205">
        <ele>59.856019</ele>
        <time>2026-08-15T04:42:12.000Z</time>
      </trkpt>
      <trkpt lat="23.017349" lon="109.491241">
        <ele>59.836866</ele>
        <time>2026-08-15T04:42:13.000Z</time>
      </trkpt>
      <trkpt lat="23.017377" lon="109.491279">
        <ele>59.815892</ele>
        <time>2026-08-15T04:42:14.000Z</time>
      </trkpt>
      <trkpt lat="23.017404" lon="109.491316">
        <ele>59.795546</ele>
        <time>2026-08-15T04:42:15.000Z</time>
      </trkpt>
      <trkpt lat="23.017437" lon="109.491346">
        <ele>59.775403</ele>
        <time>2026-08-15T04:42:16.000Z</time>
      </trkpt>
      <trkpt lat="23.017476" lon="109.491363">
        <ele>59.755730</ele>
        <time>2026-08-15T04:42:17.000Z</time>
      </trkpt>
      <trkpt lat="23.017518" lon="109.491373">
        <ele>59.737097</ele>
        <time>2026-08-15T04:42:18.000Z</time>
      </trkpt>
      <trkpt lat="23.017561" lon="109.491381">
        <ele>59.734324</ele>
        <time>2026-08-15T04:42:19.000Z</time>
      </trkpt>
      <trkpt lat="23.017607" lon="109.491385">
        <ele>59.731390</ele>
        <time>2026-08-15T04:42:20.000Z</time>
      </trkpt>
      <trkpt lat="23.017654" lon="109.491385">
        <ele>59.728402</ele>
        <time>2026-08-15T04:42:21.000Z</time>
      </trkpt>
      <trkpt lat="23.017702" lon="109.491384">
        <ele>59.725350</ele>
        <time>2026-08-15T04:42:22.000Z</time>
      </trkpt>
      <trkpt lat="23.017755" lon="109.491381">
        <ele>59.721976</ele>
        <time>2026-08-15T04:42:23.000Z</time>
      </trkpt>
      <trkpt lat="23.017804" lon="109.491377">
        <ele>59.718852</ele>
        <time>2026-08-15T04:42:24.000Z</time>
      </trkpt>
      <trkpt lat="23.017850" lon="109.491373">
        <ele>59.715918</ele>
        <time>2026-08-15T04:42:25.000Z</time>
      </trkpt>
      <trkpt lat="23.017897" lon="109.491372">
        <ele>59.712930</ele>
        <time>2026-08-15T04:42:26.000Z</time>
      </trkpt>
      <trkpt lat="23.017946" lon="109.491373">
        <ele>59.709814</ele>
        <time>2026-08-15T04:42:27.000Z</time>
      </trkpt>
      <trkpt lat="23.017993" lon="109.491375">
        <ele>59.706824</ele>
        <time>2026-08-15T04:42:28.000Z</time>
      </trkpt>
      <trkpt lat="23.018041" lon="109.491378">
        <ele>59.703767</ele>
        <time>2026-08-15T04:42:29.000Z</time>
      </trkpt>
      <trkpt lat="23.018089" lon="109.491385">
        <ele>59.700688</ele>
        <time>2026-08-15T04:42:30.000Z</time>
      </trkpt>
      <trkpt lat="23.018137" lon="109.491394">
        <ele>59.697591</ele>
        <time>2026-08-15T04:42:31.000Z</time>
      </trkpt>
      <trkpt lat="23.018187" lon="109.491406">
        <ele>59.694336</ele>
        <time>2026-08-15T04:42:32.000Z</time>
      </trkpt>
      <trkpt lat="23.018236" lon="109.491420">
        <ele>59.691115</ele>
        <time>2026-08-15T04:42:33.000Z</time>
      </trkpt>
      <trkpt lat="23.018286" lon="109.491434">
        <ele>59.687833</ele>
        <time>2026-08-15T04:42:34.000Z</time>
      </trkpt>
      <trkpt lat="23.018336" lon="109.491448">
        <ele>59.684550</ele>
        <time>2026-08-15T04:42:35.000Z</time>
      </trkpt>
      <trkpt lat="23.018386" lon="109.491463">
        <ele>59.681252</ele>
        <time>2026-08-15T04:42:36.000Z</time>
      </trkpt>
      <trkpt lat="23.018437" lon="109.491479">
        <ele>59.677878</ele>
        <time>2026-08-15T04:42:37.000Z</time>
      </trkpt>
      <trkpt lat="23.018488" lon="109.491495">
        <ele>59.674503</ele>
        <time>2026-08-15T04:42:38.000Z</time>
      </trkpt>
      <trkpt lat="23.018539" lon="109.491511">
        <ele>59.671128</ele>
        <time>2026-08-15T04:42:39.000Z</time>
      </trkpt>
      <trkpt lat="23.018591" lon="109.491527">
        <ele>59.667692</ele>
        <time>2026-08-15T04:42:40.000Z</time>
      </trkpt>
      <trkpt lat="23.018639" lon="109.491541">
        <ele>59.664533</ele>
        <time>2026-08-15T04:42:41.000Z</time>
      </trkpt>
      <trkpt lat="23.018689" lon="109.491557">
        <ele>59.661219</ele>
        <time>2026-08-15T04:42:42.000Z</time>
      </trkpt>
      <trkpt lat="23.018740" lon="109.491571">
        <ele>59.657875</ele>
        <time>2026-08-15T04:42:43.000Z</time>
      </trkpt>
      <trkpt lat="23.018790" lon="109.491585">
        <ele>59.654592</ele>
        <time>2026-08-15T04:42:44.000Z</time>
      </trkpt>
      <trkpt lat="23.018841" lon="109.491599">
        <ele>59.651248</ele>
        <time>2026-08-15T04:42:45.000Z</time>
      </trkpt>
      <trkpt lat="23.018892" lon="109.491612">
        <ele>59.647918</ele>
        <time>2026-08-15T04:42:46.000Z</time>
      </trkpt>
      <trkpt lat="23.018942" lon="109.491624">
        <ele>59.644663</ele>
        <time>2026-08-15T04:42:47.000Z</time>
      </trkpt>
      <trkpt lat="23.018993" lon="109.491637">
        <ele>59.641332</ele>
        <time>2026-08-15T04:42:48.000Z</time>
      </trkpt>
      <trkpt lat="23.019045" lon="109.491647">
        <ele>59.637975</ele>
        <time>2026-08-15T04:42:49.000Z</time>
      </trkpt>
      <trkpt lat="23.019095" lon="109.491657">
        <ele>59.634743</ele>
        <time>2026-08-15T04:42:50.000Z</time>
      </trkpt>
      <trkpt lat="23.019143" lon="109.491668">
        <ele>59.631624</ele>
        <time>2026-08-15T04:42:51.000Z</time>
      </trkpt>
      <trkpt lat="23.019193" lon="109.491682">
        <ele>59.628342</ele>
        <time>2026-08-15T04:42:52.000Z</time>
      </trkpt>
      <trkpt lat="23.019242" lon="109.491694">
        <ele>59.625149</ele>
        <time>2026-08-15T04:42:53.000Z</time>
      </trkpt>
      <trkpt lat="23.019293" lon="109.491705">
        <ele>59.609915</ele>
        <time>2026-08-15T04:42:54.000Z</time>
      </trkpt>
      <trkpt lat="23.019344" lon="109.491718">
        <ele>59.571811</ele>
        <time>2026-08-15T04:42:55.000Z</time>
      </trkpt>
      <trkpt lat="23.019394" lon="109.491733">
        <ele>59.534081</ele>
        <time>2026-08-15T04:42:56.000Z</time>
      </trkpt>
      <trkpt lat="23.019446" lon="109.491749">
        <ele>59.494770</ele>
        <time>2026-08-15T04:42:57.000Z</time>
      </trkpt>
      <trkpt lat="23.019500" lon="109.491763">
        <ele>59.454389</ele>
        <time>2026-08-15T04:42:58.000Z</time>
      </trkpt>
      <trkpt lat="23.019555" lon="109.491778">
        <ele>59.413141</ele>
        <time>2026-08-15T04:42:59.000Z</time>
      </trkpt>
      <trkpt lat="23.019612" lon="109.491794">
        <ele>59.370319</ele>
        <time>2026-08-15T04:43:00.000Z</time>
      </trkpt>
      <trkpt lat="23.019668" lon="109.491813">
        <ele>59.327646</ele>
        <time>2026-08-15T04:43:01.000Z</time>
      </trkpt>
      <trkpt lat="23.019725" lon="109.491833">
        <ele>59.284077</ele>
        <time>2026-08-15T04:43:02.000Z</time>
      </trkpt>
      <trkpt lat="23.019781" lon="109.491855">
        <ele>59.240763</ele>
        <time>2026-08-15T04:43:03.000Z</time>
      </trkpt>
      <trkpt lat="23.019838" lon="109.491878">
        <ele>59.196535</ele>
        <time>2026-08-15T04:43:04.000Z</time>
      </trkpt>
      <trkpt lat="23.019895" lon="109.491901">
        <ele>59.152307</ele>
        <time>2026-08-15T04:43:05.000Z</time>
      </trkpt>
      <trkpt lat="23.019955" lon="109.491925">
        <ele>59.105801</ele>
        <time>2026-08-15T04:43:06.000Z</time>
      </trkpt>
      <trkpt lat="23.020020" lon="109.491951">
        <ele>59.055419</ele>
        <time>2026-08-15T04:43:07.000Z</time>
      </trkpt>
      <trkpt lat="23.020076" lon="109.491978">
        <ele>59.010855</ele>
        <time>2026-08-15T04:43:08.000Z</time>
      </trkpt>
      <trkpt lat="23.020133" lon="109.492006">
        <ele>58.965354</ele>
        <time>2026-08-15T04:43:09.000Z</time>
      </trkpt>
      <trkpt lat="23.020192" lon="109.492031">
        <ele>58.919290</ele>
        <time>2026-08-15T04:43:10.000Z</time>
      </trkpt>
      <trkpt lat="23.020251" lon="109.492053">
        <ele>58.873918</ele>
        <time>2026-08-15T04:43:11.000Z</time>
      </trkpt>
      <trkpt lat="23.020307" lon="109.492077">
        <ele>58.830130</ele>
        <time>2026-08-15T04:43:12.000Z</time>
      </trkpt>
      <trkpt lat="23.020361" lon="109.492101">
        <ele>58.787692</ele>
        <time>2026-08-15T04:43:13.000Z</time>
      </trkpt>
      <trkpt lat="23.020415" lon="109.492123">
        <ele>58.745743</ele>
        <time>2026-08-15T04:43:14.000Z</time>
      </trkpt>
      <trkpt lat="23.020467" lon="109.492143">
        <ele>58.705620</ele>
        <time>2026-08-15T04:43:15.000Z</time>
      </trkpt>
      <trkpt lat="23.020515" lon="109.492170">
        <ele>58.666304</ele>
        <time>2026-08-15T04:43:16.000Z</time>
      </trkpt>
      <trkpt lat="23.020559" lon="109.492204">
        <ele>58.627030</ele>
        <time>2026-08-15T04:43:17.000Z</time>
      </trkpt>
      <trkpt lat="23.020595" lon="109.492232">
        <ele>58.594827</ele>
        <time>2026-08-15T04:43:18.000Z</time>
      </trkpt>
      <trkpt lat="23.020624" lon="109.492241">
        <ele>58.572889</ele>
        <time>2026-08-15T04:43:19.000Z</time>
      </trkpt>
      <trkpt lat="23.020636" lon="109.492234">
        <ele>58.562982</ele>
        <time>2026-08-15T04:43:20.000Z</time>
      </trkpt>
      <trkpt lat="23.020638" lon="109.492222">
        <ele>58.554818</ele>
        <time>2026-08-15T04:43:21.000Z</time>
      </trkpt>
      <trkpt lat="23.020631" lon="109.492207">
        <ele>58.543559</ele>
        <time>2026-08-15T04:43:22.000Z</time>
      </trkpt>
      <trkpt lat="23.020619" lon="109.492197">
        <ele>58.532559</ele>
        <time>2026-08-15T04:43:23.000Z</time>
      </trkpt>
      <trkpt lat="23.020604" lon="109.492188">
        <ele>58.520095</ele>
        <time>2026-08-15T04:43:24.000Z</time>
      </trkpt>
      <trkpt lat="23.020586" lon="109.492178">
        <ele>58.505390</ele>
        <time>2026-08-15T04:43:25.000Z</time>
      </trkpt>
      <trkpt lat="23.020569" lon="109.492165">
        <ele>58.490269</ele>
        <time>2026-08-15T04:43:26.000Z</time>
      </trkpt>
      <trkpt lat="23.020554" lon="109.492155">
        <ele>58.477468</ele>
        <time>2026-08-15T04:43:27.000Z</time>
      </trkpt>
      <trkpt lat="23.020540" lon="109.492150">
        <ele>58.466749</ele>
        <time>2026-08-15T04:43:28.000Z</time>
      </trkpt>
      <trkpt lat="23.020528" lon="109.492146">
        <ele>58.457619</ele>
        <time>2026-08-15T04:43:29.000Z</time>
      </trkpt>
      <trkpt lat="23.020522" lon="109.492137">
        <ele>58.450179</ele>
        <time>2026-08-15T04:43:30.000Z</time>
      </trkpt>
      <trkpt lat="23.020514" lon="109.492130">
        <ele>58.442708</ele>
        <time>2026-08-15T04:43:31.000Z</time>
      </trkpt>
      <trkpt lat="23.020506" lon="109.492122">
        <ele>58.434799</ele>
        <time>2026-08-15T04:43:32.000Z</time>
      </trkpt>
      <trkpt lat="23.020502" lon="109.492117">
        <ele>58.430364</ele>
        <time>2026-08-15T04:43:33.000Z</time>
      </trkpt>
      <trkpt lat="23.020503" lon="109.492113">
        <ele>58.427589</ele>
        <time>2026-08-15T04:43:34.000Z</time>
      </trkpt>
      <trkpt lat="23.020452" lon="109.492231">
        <ele>58.340317</ele>
        <time>2026-08-15T04:44:13.000Z</time>
      </trkpt>
      <trkpt lat="23.020450" lon="109.492235">
        <ele>58.337269</ele>
        <time>2026-08-15T04:44:14.000Z</time>
      </trkpt>
      <trkpt lat="23.020447" lon="109.492234">
        <ele>58.334987</ele>
        <time>2026-08-15T04:44:15.000Z</time>
      </trkpt>
      <trkpt lat="23.020445" lon="109.492238">
        <ele>58.331939</ele>
        <time>2026-08-15T04:44:16.000Z</time>
      </trkpt>
      <trkpt lat="23.020440" lon="109.492232">
        <ele>58.326520</ele>
        <time>2026-08-15T04:44:17.000Z</time>
      </trkpt>
      <trkpt lat="23.020297" lon="109.492150">
        <ele>58.353741</ele>
        <time>2026-08-15T04:54:56.000Z</time>
      </trkpt>
      <trkpt lat="23.020306" lon="109.492169">
        <ele>58.359023</ele>
        <time>2026-08-15T04:54:57.000Z</time>
      </trkpt>
      <trkpt lat="23.020304" lon="109.492209">
        <ele>58.368925</ele>
        <time>2026-08-15T04:54:58.000Z</time>
      </trkpt>
      <trkpt lat="23.020312" lon="109.492218">
        <ele>58.372018</ele>
        <time>2026-08-15T04:54:59.000Z</time>
      </trkpt>
      <trkpt lat="23.020328" lon="109.492218">
        <ele>58.376315</ele>
        <time>2026-08-15T04:55:00.000Z</time>
      </trkpt>
      <trkpt lat="23.020338" lon="109.492214">
        <ele>58.379177</ele>
        <time>2026-08-15T04:55:01.000Z</time>
      </trkpt>
      <trkpt lat="23.020352" lon="109.492245">
        <ele>58.387713</ele>
        <time>2026-08-15T04:55:02.000Z</time>
      </trkpt>
      <trkpt lat="23.020329" lon="109.492295">
        <ele>58.401530</ele>
        <time>2026-08-15T04:55:03.000Z</time>
      </trkpt>
      <trkpt lat="23.020343" lon="109.492300">
        <ele>58.405488</ele>
        <time>2026-08-15T04:55:04.000Z</time>
      </trkpt>
      <trkpt lat="23.020318" lon="109.492345">
        <ele>58.418481</ele>
        <time>2026-08-15T04:55:05.000Z</time>
      </trkpt>
      <trkpt lat="23.020300" lon="109.492375">
        <ele>58.427333</ele>
        <time>2026-08-15T04:55:06.000Z</time>
      </trkpt>
      <trkpt lat="23.020269" lon="109.492390">
        <ele>58.436447</ele>
        <time>2026-08-15T04:55:07.000Z</time>
      </trkpt>
      <trkpt lat="23.020260" lon="109.492397">
        <ele>58.439420</ele>
        <time>2026-08-15T04:55:08.000Z</time>
      </trkpt>
      <trkpt lat="23.019847" lon="109.493569">
        <ele>58.749633</ele>
        <time>2026-08-15T04:55:21.000Z</time>
      </trkpt>
      <trkpt lat="23.019836" lon="109.493605">
        <ele>58.759010</ele>
        <time>2026-08-15T04:55:22.000Z</time>
      </trkpt>
      <trkpt lat="23.019832" lon="109.493638">
        <ele>58.767237</ele>
        <time>2026-08-15T04:55:23.000Z</time>
      </trkpt>
      <trkpt lat="23.019827" lon="109.493647">
        <ele>58.769836</ele>
        <time>2026-08-15T04:55:24.000Z</time>
      </trkpt>
      <trkpt lat="23.019818" lon="109.493641">
        <ele>58.772672</ele>
        <time>2026-08-15T04:55:25.000Z</time>
      </trkpt>
      <trkpt lat="23.019832" lon="109.493554">
        <ele>58.794503</ele>
        <time>2026-08-15T04:55:26.000Z</time>
      </trkpt>
      <trkpt lat="23.020771" lon="109.491680">
        <ele>58.831252</ele>
        <time>2026-08-15T04:56:13.000Z</time>
      </trkpt>
      <trkpt lat="23.020819" lon="109.491643">
        <ele>58.839324</ele>
        <time>2026-08-15T04:56:14.000Z</time>
      </trkpt>
      <trkpt lat="23.020840" lon="109.491617">
        <ele>58.843691</ele>
        <time>2026-08-15T04:56:15.000Z</time>
      </trkpt>
      <trkpt lat="23.020840" lon="109.491617">
        <ele>58.843691</ele>
        <time>2026-08-15T04:56:21.000Z</time>
      </trkpt>
      <trkpt lat="23.020840" lon="109.491617">
        <ele>58.843691</ele>
        <time>2026-08-15T04:56:24.000Z</time>
      </trkpt>
      <trkpt lat="23.021052" lon="109.491700">
        <ele>58.874601</ele>
        <time>2026-08-15T04:56:32.000Z</time>
      </trkpt>
      <trkpt lat="23.021061" lon="109.491685">
        <ele>58.876862</ele>
        <time>2026-08-15T04:56:33.000Z</time>
      </trkpt>
      <trkpt lat="23.021200" lon="109.491587">
        <ele>58.899590</ele>
        <time>2026-08-15T04:56:43.000Z</time>
      </trkpt>
      <trkpt lat="23.021096" lon="109.491544">
        <ele>58.914853</ele>
        <time>2026-08-15T04:56:45.000Z</time>
      </trkpt>
      <trkpt lat="23.021111" lon="109.491539">
        <ele>58.917006</ele>
        <time>2026-08-15T04:56:46.000Z</time>
      </trkpt>
      <trkpt lat="23.021112" lon="109.491526">
        <ele>58.918653</ele>
        <time>2026-08-15T04:56:47.000Z</time>
      </trkpt>
      <trkpt lat="23.021123" lon="109.491520">
        <ele>58.920341</ele>
        <time>2026-08-15T04:56:48.000Z</time>
      </trkpt>
      <trkpt lat="23.021132" lon="109.491520">
        <ele>58.921575</ele>
        <time>2026-08-15T04:56:49.000Z</time>
      </trkpt>
      <trkpt lat="23.021187" lon="109.491709">
        <ele>58.946600</ele>
        <time>2026-08-15T04:56:51.000Z</time>
      </trkpt>
      <trkpt lat="23.021196" lon="109.491816">
        <ele>58.960164</ele>
        <time>2026-08-15T04:56:54.000Z</time>
      </trkpt>
      <trkpt lat="23.021187" lon="109.491778">
        <ele>58.965118</ele>
        <time>2026-08-15T04:56:55.000Z</time>
      </trkpt>
      <trkpt lat="23.021224" lon="109.491750">
        <ele>58.971302</ele>
        <time>2026-08-15T04:56:56.000Z</time>
      </trkpt>
      <trkpt lat="23.020600" lon="109.492398">
        <ele>59.497760</ele>
        <time>2026-08-15T04:57:02.000Z</time>
      </trkpt>
      <trkpt lat="23.020584" lon="109.492340">
        <ele>59.600710</ele>
        <time>2026-08-15T04:57:03.000Z</time>
      </trkpt>
      <trkpt lat="23.020566" lon="109.492307">
        <ele>59.665932</ele>
        <time>2026-08-15T04:57:04.000Z</time>
      </trkpt>
      <trkpt lat="23.020552" lon="109.492230">
        <ele>59.799382</ele>
        <time>2026-08-15T04:57:05.000Z</time>
      </trkpt>
      <trkpt lat="23.020541" lon="109.492175">
        <ele>59.895078</ele>
        <time>2026-08-15T04:57:06.000Z</time>
      </trkpt>
      <trkpt lat="23.020535" lon="109.492143">
        <ele>59.950604</ele>
        <time>2026-08-15T04:57:07.000Z</time>
      </trkpt>
      <trkpt lat="23.020526" lon="109.492113">
        <ele>60.004253</ele>
        <time>2026-08-15T04:57:08.000Z</time>
      </trkpt>
      <trkpt lat="23.020515" lon="109.492097">
        <ele>60.038209</ele>
        <time>2026-08-15T04:57:09.000Z</time>
      </trkpt>
      <trkpt lat="23.020508" lon="109.492088">
        <ele>60.058244</ele>
        <time>2026-08-15T04:57:10.000Z</time>
      </trkpt>
      <trkpt lat="23.020509" lon="109.492086">
        <ele>60.062114</ele>
        <time>2026-08-15T04:57:11.000Z</time>
      </trkpt>
      <trkpt lat="23.020138" lon="109.491734">
        <ele>60.972022</ele>
        <time>2026-08-15T05:03:07.000Z</time>
      </trkpt>
      <trkpt lat="23.020205" lon="109.491934">
        <ele>61.333900</ele>
        <time>2026-08-15T05:03:09.000Z</time>
      </trkpt>
      <trkpt lat="23.020244" lon="109.491939">
        <ele>61.406448</ele>
        <time>2026-08-15T05:03:10.000Z</time>
      </trkpt>
      <trkpt lat="23.020727" lon="109.492191">
        <ele>62.386103</ele>
        <time>2026-08-15T05:31:18.000Z</time>
      </trkpt>
      <trkpt lat="23.020711" lon="109.492163">
        <ele>62.407669</ele>
        <time>2026-08-15T05:31:19.000Z</time>
      </trkpt>
      <trkpt lat="23.020428" lon="109.492014">
        <ele>62.631254</ele>
        <time>2026-08-15T05:32:36.000Z</time>
      </trkpt>
      <trkpt lat="23.020428" lon="109.492014">
        <ele>62.631254</ele>
        <time>2026-08-15T05:32:37.000Z</time>
      </trkpt>
      <trkpt lat="23.020463" lon="109.492201">
        <ele>62.756124</ele>
        <time>2026-08-15T05:34:16.000Z</time>
      </trkpt>
      <trkpt lat="23.020479" lon="109.492227">
        <ele>62.776591</ele>
        <time>2026-08-15T05:34:17.000Z</time>
      </trkpt>
      <trkpt lat="23.020501" lon="109.492247">
        <ele>62.796985</ele>
        <time>2026-08-15T05:34:18.000Z</time>
      </trkpt>
      <trkpt lat="23.020528" lon="109.492264">
        <ele>62.819172</ele>
        <time>2026-08-15T05:34:19.000Z</time>
      </trkpt>
      <trkpt lat="23.020552" lon="109.492274">
        <ele>62.837447</ele>
        <time>2026-08-15T05:34:20.000Z</time>
      </trkpt>
      <trkpt lat="23.020579" lon="109.492290">
        <ele>62.859313</ele>
        <time>2026-08-15T05:34:21.000Z</time>
      </trkpt>
      <trkpt lat="23.020603" lon="109.492307">
        <ele>62.879682</ele>
        <time>2026-08-15T05:34:22.000Z</time>
      </trkpt>
      <trkpt lat="23.020632" lon="109.492328">
        <ele>62.904460</ele>
        <time>2026-08-15T05:34:23.000Z</time>
      </trkpt>
      <trkpt lat="23.020658" lon="109.492350">
        <ele>62.927890</ele>
        <time>2026-08-15T05:34:24.000Z</time>
      </trkpt>
      <trkpt lat="23.020686" lon="109.492373">
        <ele>62.952846</ele>
        <time>2026-08-15T05:34:25.000Z</time>
      </trkpt>
      <trkpt lat="23.020715" lon="109.492398">
        <ele>62.979166</ele>
        <time>2026-08-15T05:34:26.000Z</time>
      </trkpt>
      <trkpt lat="23.020740" lon="109.492424">
        <ele>63.003770</ele>
        <time>2026-08-15T05:34:27.000Z</time>
      </trkpt>
      <trkpt lat="23.020767" lon="109.492449">
        <ele>63.028992</ele>
        <time>2026-08-15T05:34:28.000Z</time>
      </trkpt>
      <trkpt lat="23.020799" lon="109.492475">
        <ele>63.057401</ele>
        <time>2026-08-15T05:34:29.000Z</time>
      </trkpt>
      <trkpt lat="23.020838" lon="109.492498">
        <ele>63.088950</ele>
        <time>2026-08-15T05:34:30.000Z</time>
      </trkpt>
      <trkpt lat="23.020874" lon="109.492518">
        <ele>63.117697</ele>
        <time>2026-08-15T05:34:31.000Z</time>
      </trkpt>
      <trkpt lat="23.020910" lon="109.492539">
        <ele>63.146748</ele>
        <time>2026-08-15T05:34:32.000Z</time>
      </trkpt>
      <trkpt lat="23.020943" lon="109.492561">
        <ele>63.174275</ele>
        <time>2026-08-15T05:34:33.000Z</time>
      </trkpt>
      <trkpt lat="23.020974" lon="109.492588">
        <ele>63.202522</ele>
        <time>2026-08-15T05:34:34.000Z</time>
      </trkpt>
      <trkpt lat="23.021006" lon="109.492618">
        <ele>63.232572</ele>
        <time>2026-08-15T05:34:35.000Z</time>
      </trkpt>
      <trkpt lat="23.021033" lon="109.492647">
        <ele>63.259565</ele>
        <time>2026-08-15T05:34:36.000Z</time>
      </trkpt>
      <trkpt lat="23.021058" lon="109.492680">
        <ele>63.287533</ele>
        <time>2026-08-15T05:34:37.000Z</time>
      </trkpt>
      <trkpt lat="23.021076" lon="109.492717">
        <ele>63.314919</ele>
        <time>2026-08-15T05:34:38.000Z</time>
      </trkpt>
      <trkpt lat="23.021091" lon="109.492754">
        <ele>63.341374</ele>
        <time>2026-08-15T05:34:39.000Z</time>
      </trkpt>
      <trkpt lat="23.021101" lon="109.492788">
        <ele>63.364731</ele>
        <time>2026-08-15T05:34:40.000Z</time>
      </trkpt>
      <trkpt lat="23.021107" lon="109.492825">
        <ele>63.389315</ele>
        <time>2026-08-15T05:34:41.000Z</time>
      </trkpt>
      <trkpt lat="23.021113" lon="109.492865">
        <ele>63.415835</ele>
        <time>2026-08-15T05:34:42.000Z</time>
      </trkpt>
      <trkpt lat="23.021119" lon="109.492906">
        <ele>63.443001</ele>
        <time>2026-08-15T05:34:43.000Z</time>
      </trkpt>
      <trkpt lat="23.021125" lon="109.492943">
        <ele>63.467585</ele>
        <time>2026-08-15T05:34:44.000Z</time>
      </trkpt>
      <trkpt lat="23.021128" lon="109.492983">
        <ele>63.493846</ele>
        <time>2026-08-15T05:34:45.000Z</time>
      </trkpt>
      <trkpt lat="23.021131" lon="109.493025">
        <ele>63.521411</ele>
        <time>2026-08-15T05:34:46.000Z</time>
      </trkpt>
      <trkpt lat="23.021133" lon="109.493071">
        <ele>63.551545</ele>
        <time>2026-08-15T05:34:47.000Z</time>
      </trkpt>
      <trkpt lat="23.021137" lon="109.493114">
        <ele>63.579826</ele>
        <time>2026-08-15T05:34:48.000Z</time>
      </trkpt>
      <trkpt lat="23.021141" lon="109.493156">
        <ele>63.607456</ele>
        <time>2026-08-15T05:34:49.000Z</time>
      </trkpt>
      <trkpt lat="23.021144" lon="109.493192">
        <ele>63.631109</ele>
        <time>2026-08-15T05:34:50.000Z</time>
      </trkpt>
      <trkpt lat="23.021144" lon="109.493233">
        <ele>63.657938</ele>
        <time>2026-08-15T05:34:51.000Z</time>
      </trkpt>
      <trkpt lat="23.021141" lon="109.493272">
        <ele>63.673926</ele>
        <time>2026-08-15T05:34:52.000Z</time>
      </trkpt>
      <trkpt lat="23.021139" lon="109.493311">
        <ele>63.689652</ele>
        <time>2026-08-15T05:34:53.000Z</time>
      </trkpt>
      <trkpt lat="23.021133" lon="109.493351">
        <ele>63.705969</ele>
        <time>2026-08-15T05:34:54.000Z</time>
      </trkpt>
      <trkpt lat="23.021126" lon="109.493391">
        <ele>63.722362</ele>
        <time>2026-08-15T05:34:55.000Z</time>
      </trkpt>
      <trkpt lat="23.021118" lon="109.493432">
        <ele>63.739236</ele>
        <time>2026-08-15T05:34:56.000Z</time>
      </trkpt>
      <trkpt lat="23.021107" lon="109.493471">
        <ele>63.755659</ele>
        <time>2026-08-15T05:34:57.000Z</time>
      </trkpt>
      <trkpt lat="23.021095" lon="109.493508">
        <ele>63.771454</ele>
        <time>2026-08-15T05:34:58.000Z</time>
      </trkpt>
      <trkpt lat="23.021082" lon="109.493550">
        <ele>63.789294</ele>
        <time>2026-08-15T05:34:59.000Z</time>
      </trkpt>
      <trkpt lat="23.021068" lon="109.493592">
        <ele>63.807279</ele>
        <time>2026-08-15T05:35:00.000Z</time>
      </trkpt>
      <trkpt lat="23.021055" lon="109.493638">
        <ele>63.826652</ele>
        <time>2026-08-15T05:35:01.000Z</time>
      </trkpt>
      <trkpt lat="23.021042" lon="109.493682">
        <ele>63.845258</ele>
        <time>2026-08-15T05:35:02.000Z</time>
      </trkpt>
      <trkpt lat="23.021032" lon="109.493723">
        <ele>63.862335</ele>
        <time>2026-08-15T05:35:03.000Z</time>
      </trkpt>
      <trkpt lat="23.021025" lon="109.493769">
        <ele>63.881107</ele>
        <time>2026-08-15T05:35:04.000Z</time>
      </trkpt>
      <trkpt lat="23.021018" lon="109.493815">
        <ele>63.899878</ele>
        <time>2026-08-15T05:35:05.000Z</time>
      </trkpt>
      <trkpt lat="23.021006" lon="109.493860">
        <ele>63.918741</ele>
        <time>2026-08-15T05:35:06.000Z</time>
      </trkpt>
      <trkpt lat="23.020992" lon="109.493899">
        <ele>63.935595</ele>
        <time>2026-08-15T05:35:07.000Z</time>
      </trkpt>
      <trkpt lat="23.020976" lon="109.493939">
        <ele>63.953155</ele>
        <time>2026-08-15T05:35:08.000Z</time>
      </trkpt>
      <trkpt lat="23.020959" lon="109.493979">
        <ele>63.970894</ele>
        <time>2026-08-15T05:35:09.000Z</time>
      </trkpt>
      <trkpt lat="23.020941" lon="109.494019">
        <ele>63.988821</ele>
        <time>2026-08-15T05:35:10.000Z</time>
      </trkpt>
      <trkpt lat="23.020923" lon="109.494064">
        <ele>64.008575</ele>
        <time>2026-08-15T05:35:11.000Z</time>
      </trkpt>
      <trkpt lat="23.020904" lon="109.494108">
        <ele>64.028143</ele>
        <time>2026-08-15T05:35:12.000Z</time>
      </trkpt>
      <trkpt lat="23.020884" lon="109.494151">
        <ele>64.047541</ele>
        <time>2026-08-15T05:35:13.000Z</time>
      </trkpt>
      <trkpt lat="23.020863" lon="109.494195">
        <ele>64.067496</ele>
        <time>2026-08-15T05:35:14.000Z</time>
      </trkpt>
      <trkpt lat="23.020842" lon="109.494238">
        <ele>64.087095</ele>
        <time>2026-08-15T05:35:15.000Z</time>
      </trkpt>
      <trkpt lat="23.020820" lon="109.494281">
        <ele>64.106903</ele>
        <time>2026-08-15T05:35:16.000Z</time>
      </trkpt>
      <trkpt lat="23.020800" lon="109.494327">
        <ele>64.127386</ele>
        <time>2026-08-15T05:35:17.000Z</time>
      </trkpt>
      <trkpt lat="23.020777" lon="109.494372">
        <ele>64.148110</ele>
        <time>2026-08-15T05:35:18.000Z</time>
      </trkpt>
      <trkpt lat="23.020754" lon="109.494417">
        <ele>64.168834</ele>
        <time>2026-08-15T05:35:19.000Z</time>
      </trkpt>
      <trkpt lat="23.020732" lon="109.494467">
        <ele>64.191147</ele>
        <time>2026-08-15T05:35:20.000Z</time>
      </trkpt>
      <trkpt lat="23.020708" lon="109.494513">
        <ele>64.212436</ele>
        <time>2026-08-15T05:35:21.000Z</time>
      </trkpt>
      <trkpt lat="23.020683" lon="109.494558">
        <ele>64.233598</ele>
        <time>2026-08-15T05:35:22.000Z</time>
      </trkpt>
      <trkpt lat="23.020660" lon="109.494605">
        <ele>64.255030</ele>
        <time>2026-08-15T05:35:23.000Z</time>
      </trkpt>
      <trkpt lat="23.020635" lon="109.494653">
        <ele>64.277235</ele>
        <time>2026-08-15T05:35:24.000Z</time>
      </trkpt>
      <trkpt lat="23.020607" lon="109.494702">
        <ele>64.300457</ele>
        <time>2026-08-15T05:35:25.000Z</time>
      </trkpt>
      <trkpt lat="23.020580" lon="109.494744">
        <ele>64.321083</ele>
        <time>2026-08-15T05:35:26.000Z</time>
      </trkpt>
      <trkpt lat="23.020553" lon="109.494788">
        <ele>64.342375</ele>
        <time>2026-08-15T05:35:27.000Z</time>
      </trkpt>
      <trkpt lat="23.020524" lon="109.494828">
        <ele>64.362876</ele>
        <time>2026-08-15T05:35:28.000Z</time>
      </trkpt>
      <trkpt lat="23.020496" lon="109.494870">
        <ele>64.383756</ele>
        <time>2026-08-15T05:35:29.000Z</time>
      </trkpt>
      <trkpt lat="23.020467" lon="109.494914">
        <ele>64.405545</ele>
        <time>2026-08-15T05:35:30.000Z</time>
      </trkpt>
      <trkpt lat="23.020438" lon="109.494958">
        <ele>64.427334</ele>
        <time>2026-08-15T05:35:31.000Z</time>
      </trkpt>
      <trkpt lat="23.020411" lon="109.495001">
        <ele>64.447560</ele>
        <time>2026-08-15T05:35:32.000Z</time>
      </trkpt>
      <trkpt lat="23.020386" lon="109.495042">
        <ele>64.462416</ele>
        <time>2026-08-15T05:35:33.000Z</time>
      </trkpt>
      <trkpt lat="23.020360" lon="109.495083">
        <ele>64.477456</ele>
        <time>2026-08-15T05:35:34.000Z</time>
      </trkpt>
      <trkpt lat="23.020334" lon="109.495125">
        <ele>64.492746</ele>
        <time>2026-08-15T05:35:35.000Z</time>
      </trkpt>
      <trkpt lat="23.020307" lon="109.495169">
        <ele>64.508720</ele>
        <time>2026-08-15T05:35:36.000Z</time>
      </trkpt>
      <trkpt lat="23.020280" lon="109.495215">
        <ele>64.525200</ele>
        <time>2026-08-15T05:35:37.000Z</time>
      </trkpt>
      <trkpt lat="23.020254" lon="109.495261">
        <ele>64.541506</ele>
        <time>2026-08-15T05:35:38.000Z</time>
      </trkpt>
      <trkpt lat="23.020230" lon="109.495308">
        <ele>64.557742</ele>
        <time>2026-08-15T05:35:39.000Z</time>
      </trkpt>
      <trkpt lat="23.020207" lon="109.495354">
        <ele>64.573555</ele>
        <time>2026-08-15T05:35:40.000Z</time>
      </trkpt>
      <trkpt lat="23.020184" lon="109.495401">
        <ele>64.589634</ele>
        <time>2026-08-15T05:35:41.000Z</time>
      </trkpt>
      <trkpt lat="23.020161" lon="109.495447">
        <ele>64.605447</ele>
        <time>2026-08-15T05:35:42.000Z</time>
      </trkpt>
      <trkpt lat="23.020138" lon="109.495494">
        <ele>64.621527</ele>
        <time>2026-08-15T05:35:43.000Z</time>
      </trkpt>
      <trkpt lat="23.020119" lon="109.495537">
        <ele>64.635935</ele>
        <time>2026-08-15T05:35:44.000Z</time>
      </trkpt>
      <trkpt lat="23.020101" lon="109.495584">
        <ele>64.651312</ele>
        <time>2026-08-15T05:35:45.000Z</time>
      </trkpt>
      <trkpt lat="23.020084" lon="109.495630">
        <ele>64.666286</ele>
        <time>2026-08-15T05:35:46.000Z</time>
      </trkpt>
      <trkpt lat="23.020068" lon="109.495679">
        <ele>64.681991</ele>
        <time>2026-08-15T05:35:47.000Z</time>
      </trkpt>
      <trkpt lat="23.020052" lon="109.495722">
        <ele>64.696001</ele>
        <time>2026-08-15T05:35:48.000Z</time>
      </trkpt>
      <trkpt lat="23.020036" lon="109.495761">
        <ele>64.708899</ele>
        <time>2026-08-15T05:35:49.000Z</time>
      </trkpt>
      <trkpt lat="23.020020" lon="109.495801">
        <ele>64.722074</ele>
        <time>2026-08-15T05:35:50.000Z</time>
      </trkpt>
      <trkpt lat="23.020007" lon="109.495845">
        <ele>64.736033</ele>
        <time>2026-08-15T05:35:51.000Z</time>
      </trkpt>
      <trkpt lat="23.019992" lon="109.495891">
        <ele>64.750774</ele>
        <time>2026-08-15T05:35:52.000Z</time>
      </trkpt>
      <trkpt lat="23.019977" lon="109.495936">
        <ele>64.765231</ele>
        <time>2026-08-15T05:35:53.000Z</time>
      </trkpt>
      <trkpt lat="23.019963" lon="109.495981">
        <ele>64.779580</ele>
        <time>2026-08-15T05:35:54.000Z</time>
      </trkpt>
      <trkpt lat="23.019950" lon="109.496028">
        <ele>64.794404</ele>
        <time>2026-08-15T05:35:55.000Z</time>
      </trkpt>
      <trkpt lat="23.019936" lon="109.496076">
        <ele>64.809614</ele>
        <time>2026-08-15T05:35:56.000Z</time>
      </trkpt>
      <trkpt lat="23.019921" lon="109.496122">
        <ele>64.824355</ele>
        <time>2026-08-15T05:35:57.000Z</time>
      </trkpt>
      <trkpt lat="23.019911" lon="109.496167">
        <ele>64.838339</ele>
        <time>2026-08-15T05:35:58.000Z</time>
      </trkpt>
      <trkpt lat="23.019899" lon="109.496212">
        <ele>64.852491</ele>
        <time>2026-08-15T05:35:59.000Z</time>
      </trkpt>
      <trkpt lat="23.019886" lon="109.496260">
        <ele>64.867605</ele>
        <time>2026-08-15T05:36:00.000Z</time>
      </trkpt>
      <trkpt lat="23.019874" lon="109.496309">
        <ele>64.882921</ele>
        <time>2026-08-15T05:36:01.000Z</time>
      </trkpt>
      <trkpt lat="23.019860" lon="109.496358">
        <ele>64.898420</ele>
        <time>2026-08-15T05:36:02.000Z</time>
      </trkpt>
      <trkpt lat="23.019846" lon="109.496406">
        <ele>64.913629</ele>
        <time>2026-08-15T05:36:03.000Z</time>
      </trkpt>
      <trkpt lat="23.019833" lon="109.496455">
        <ele>64.929033</ele>
        <time>2026-08-15T05:36:04.000Z</time>
      </trkpt>
      <trkpt lat="23.019820" lon="109.496499">
        <ele>64.942992</ele>
        <time>2026-08-15T05:36:05.000Z</time>
      </trkpt>
      <trkpt lat="23.019806" lon="109.496546">
        <ele>64.957915</ele>
        <time>2026-08-15T05:36:06.000Z</time>
      </trkpt>
      <trkpt lat="23.019791" lon="109.496591">
        <ele>64.972372</ele>
        <time>2026-08-15T05:36:07.000Z</time>
      </trkpt>
      <trkpt lat="23.019776" lon="109.496638">
        <ele>64.987398</ele>
        <time>2026-08-15T05:36:08.000Z</time>
      </trkpt>
      <trkpt lat="23.019761" lon="109.496686">
        <ele>65.002711</ele>
        <time>2026-08-15T05:36:09.000Z</time>
      </trkpt>
      <trkpt lat="23.019745" lon="109.496738">
        <ele>65.019273</ele>
        <time>2026-08-15T05:36:10.000Z</time>
      </trkpt>
      <trkpt lat="23.019729" lon="109.496789">
        <ele>65.035548</ele>
        <time>2026-08-15T05:36:11.000Z</time>
      </trkpt>
      <trkpt lat="23.019716" lon="109.496842">
        <ele>65.019045</ele>
        <time>2026-08-15T05:36:12.000Z</time>
      </trkpt>
      <trkpt lat="23.019702" lon="109.496896">
        <ele>65.001894</ele>
        <time>2026-08-15T05:36:13.000Z</time>
      </trkpt>
      <trkpt lat="23.019690" lon="109.496949">
        <ele>64.985209</ele>
        <time>2026-08-15T05:36:14.000Z</time>
      </trkpt>
      <trkpt lat="23.019677" lon="109.497000">
        <ele>64.969030</ele>
        <time>2026-08-15T05:36:15.000Z</time>
      </trkpt>
      <trkpt lat="23.019669" lon="109.497056">
        <ele>64.951706</ele>
        <time>2026-08-15T05:36:16.000Z</time>
      </trkpt>
      <trkpt lat="23.019664" lon="109.497111">
        <ele>64.934810</ele>
        <time>2026-08-15T05:36:17.000Z</time>
      </trkpt>
      <trkpt lat="23.019658" lon="109.497167">
        <ele>64.917574</ele>
        <time>2026-08-15T05:36:18.000Z</time>
      </trkpt>
      <trkpt lat="23.019653" lon="109.497220">
        <ele>64.901287</ele>
        <time>2026-08-15T05:36:19.000Z</time>
      </trkpt>
      <trkpt lat="23.019649" lon="109.497273">
        <ele>64.885029</ele>
        <time>2026-08-15T05:36:20.000Z</time>
      </trkpt>
      <trkpt lat="23.019648" lon="109.497329">
        <ele>64.867906</ele>
        <time>2026-08-15T05:36:21.000Z</time>
      </trkpt>
      <trkpt lat="23.019646" lon="109.497384">
        <ele>64.851079</ele>
        <time>2026-08-15T05:36:22.000Z</time>
      </trkpt>
      <trkpt lat="23.019641" lon="109.497440">
        <ele>64.833879</ele>
        <time>2026-08-15T05:36:23.000Z</time>
      </trkpt>
      <trkpt lat="23.019636" lon="109.497498">
        <ele>64.816070</ele>
        <time>2026-08-15T05:36:24.000Z</time>
      </trkpt>
      <trkpt lat="23.019634" lon="109.497554">
        <ele>64.798937</ele>
        <time>2026-08-15T05:36:25.000Z</time>
      </trkpt>
      <trkpt lat="23.019630" lon="109.497608">
        <ele>64.782375</ele>
        <time>2026-08-15T05:36:26.000Z</time>
      </trkpt>
      <trkpt lat="23.019628" lon="109.497661">
        <ele>64.766159</ele>
        <time>2026-08-15T05:36:27.000Z</time>
      </trkpt>
      <trkpt lat="23.019627" lon="109.497714">
        <ele>64.749953</ele>
        <time>2026-08-15T05:36:28.000Z</time>
      </trkpt>
      <trkpt lat="23.019624" lon="109.497766">
        <ele>64.734025</ele>
        <time>2026-08-15T05:36:29.000Z</time>
      </trkpt>
      <trkpt lat="23.019620" lon="109.497820">
        <ele>64.717463</ele>
        <time>2026-08-15T05:36:30.000Z</time>
      </trkpt>
      <trkpt lat="23.019613" lon="109.497874">
        <ele>64.700792</ele>
        <time>2026-08-15T05:36:31.000Z</time>
      </trkpt>
      <trkpt lat="23.019608" lon="109.497928">
        <ele>64.684200</ele>
        <time>2026-08-15T05:36:32.000Z</time>
      </trkpt>
      <trkpt lat="23.019605" lon="109.497981">
        <ele>64.667966</ele>
        <time>2026-08-15T05:36:33.000Z</time>
      </trkpt>
      <trkpt lat="23.019601" lon="109.498035">
        <ele>64.651405</ele>
        <time>2026-08-15T05:36:34.000Z</time>
      </trkpt>
      <trkpt lat="23.019596" lon="109.498089">
        <ele>64.634813</ele>
        <time>2026-08-15T05:36:35.000Z</time>
      </trkpt>
      <trkpt lat="23.019592" lon="109.498143">
        <ele>64.618251</ele>
        <time>2026-08-15T05:36:36.000Z</time>
      </trkpt>
      <trkpt lat="23.019589" lon="109.498197">
        <ele>64.601713</ele>
        <time>2026-08-15T05:36:37.000Z</time>
      </trkpt>
      <trkpt lat="23.019586" lon="109.498253">
        <ele>64.584564</ele>
        <time>2026-08-15T05:36:38.000Z</time>
      </trkpt>
      <trkpt lat="23.019583" lon="109.498309">
        <ele>64.567415</ele>
        <time>2026-08-15T05:36:39.000Z</time>
      </trkpt>
      <trkpt lat="23.019581" lon="109.498364">
        <ele>64.550588</ele>
        <time>2026-08-15T05:36:40.000Z</time>
      </trkpt>
      <trkpt lat="23.019581" lon="109.498421">
        <ele>64.533162</ele>
        <time>2026-08-15T05:36:41.000Z</time>
      </trkpt>
      <trkpt lat="23.019581" lon="109.498478">
        <ele>64.515736</ele>
        <time>2026-08-15T05:36:42.000Z</time>
      </trkpt>
      <trkpt lat="23.019582" lon="109.498533">
        <ele>64.498919</ele>
        <time>2026-08-15T05:36:43.000Z</time>
      </trkpt>
      <trkpt lat="23.019584" lon="109.498588">
        <ele>64.482092</ele>
        <time>2026-08-15T05:36:44.000Z</time>
      </trkpt>
      <trkpt lat="23.019589" lon="109.498641">
        <ele>64.465804</ele>
        <time>2026-08-15T05:36:45.000Z</time>
      </trkpt>
      <trkpt lat="23.019596" lon="109.498695">
        <ele>64.449133</ele>
        <time>2026-08-15T05:36:46.000Z</time>
      </trkpt>
      <trkpt lat="23.019605" lon="109.498747">
        <ele>64.434855</ele>
        <time>2026-08-15T05:36:47.000Z</time>
      </trkpt>
      <trkpt lat="23.019618" lon="109.498800">
        <ele>64.424111</ele>
        <time>2026-08-15T05:36:48.000Z</time>
      </trkpt>
      <trkpt lat="23.019633" lon="109.498854">
        <ele>64.413061</ele>
        <time>2026-08-15T05:36:49.000Z</time>
      </trkpt>
      <trkpt lat="23.019649" lon="109.498907">
        <ele>64.402135</ele>
        <time>2026-08-15T05:36:50.000Z</time>
      </trkpt>
      <trkpt lat="23.019669" lon="109.498960">
        <ele>64.390914</ele>
        <time>2026-08-15T05:36:51.000Z</time>
      </trkpt>
      <trkpt lat="23.019689" lon="109.499013">
        <ele>64.379694</ele>
        <time>2026-08-15T05:36:52.000Z</time>
      </trkpt>
      <trkpt lat="23.019713" lon="109.499064">
        <ele>64.368473</ele>
        <time>2026-08-15T05:36:53.000Z</time>
      </trkpt>
      <trkpt lat="23.019738" lon="109.499115">
        <ele>64.357154</ele>
        <time>2026-08-15T05:36:54.000Z</time>
      </trkpt>
      <trkpt lat="23.019765" lon="109.499166">
        <ele>64.345629</ele>
        <time>2026-08-15T05:36:55.000Z</time>
      </trkpt>
      <trkpt lat="23.019791" lon="109.499216">
        <ele>64.334380</ele>
        <time>2026-08-15T05:36:56.000Z</time>
      </trkpt>
      <trkpt lat="23.019820" lon="109.499265">
        <ele>64.322968</ele>
        <time>2026-08-15T05:36:57.000Z</time>
      </trkpt>
      <trkpt lat="23.019850" lon="109.499313">
        <ele>64.311602</ele>
        <time>2026-08-15T05:36:58.000Z</time>
      </trkpt>
      <trkpt lat="23.019878" lon="109.499362">
        <ele>64.300304</ele>
        <time>2026-08-15T05:36:59.000Z</time>
      </trkpt>
      <trkpt lat="23.019905" lon="109.499409">
        <ele>64.289451</ele>
        <time>2026-08-15T05:37:00.000Z</time>
      </trkpt>
      <trkpt lat="23.019934" lon="109.499456">
        <ele>64.278367</ele>
        <time>2026-08-15T05:37:01.000Z</time>
      </trkpt>
      <trkpt lat="23.019963" lon="109.499504">
        <ele>64.267120</ele>
        <time>2026-08-15T05:37:02.000Z</time>
      </trkpt>
      <trkpt lat="23.019991" lon="109.499550">
        <ele>64.256316</ele>
        <time>2026-08-15T05:37:03.000Z</time>
      </trkpt>
      <trkpt lat="23.020019" lon="109.499597">
        <ele>64.245349</ele>
        <time>2026-08-15T05:37:04.000Z</time>
      </trkpt>
      <trkpt lat="23.020045" lon="109.499644">
        <ele>64.234608</ele>
        <time>2026-08-15T05:37:05.000Z</time>
      </trkpt>
      <trkpt lat="23.020071" lon="109.499689">
        <ele>64.224200</ele>
        <time>2026-08-15T05:37:06.000Z</time>
      </trkpt>
      <trkpt lat="23.020098" lon="109.499735">
        <ele>64.213512</ele>
        <time>2026-08-15T05:37:07.000Z</time>
      </trkpt>
      <trkpt lat="23.020124" lon="109.499779">
        <ele>64.203270</ele>
        <time>2026-08-15T05:37:08.000Z</time>
      </trkpt>
      <trkpt lat="23.020149" lon="109.499824">
        <ele>64.192974</ele>
        <time>2026-08-15T05:37:09.000Z</time>
      </trkpt>
      <trkpt lat="23.020175" lon="109.499871">
        <ele>64.182232</ele>
        <time>2026-08-15T05:37:10.000Z</time>
      </trkpt>
      <trkpt lat="23.020202" lon="109.499918">
        <ele>64.171379</ele>
        <time>2026-08-15T05:37:11.000Z</time>
      </trkpt>
      <trkpt lat="23.020227" lon="109.499965">
        <ele>64.160745</ele>
        <time>2026-08-15T05:37:12.000Z</time>
      </trkpt>
      <trkpt lat="23.020252" lon="109.500013">
        <ele>64.149942</ele>
        <time>2026-08-15T05:37:13.000Z</time>
      </trkpt>
      <trkpt lat="23.020277" lon="109.500061">
        <ele>64.139138</ele>
        <time>2026-08-15T05:37:14.000Z</time>
      </trkpt>
      <trkpt lat="23.020300" lon="109.500112">
        <ele>64.128013</ele>
        <time>2026-08-15T05:37:15.000Z</time>
      </trkpt>
      <trkpt lat="23.020323" lon="109.500165">
        <ele>64.116535</ele>
        <time>2026-08-15T05:37:16.000Z</time>
      </trkpt>
      <trkpt lat="23.020344" lon="109.500219">
        <ele>64.105051</ele>
        <time>2026-08-15T05:37:17.000Z</time>
      </trkpt>
      <trkpt lat="23.020363" lon="109.500273">
        <ele>64.093727</ele>
        <time>2026-08-15T05:37:18.000Z</time>
      </trkpt>
      <trkpt lat="23.020383" lon="109.500327">
        <ele>64.082324</ele>
        <time>2026-08-15T05:37:19.000Z</time>
      </trkpt>
      <trkpt lat="23.020403" lon="109.500383">
        <ele>64.070558</ele>
        <time>2026-08-15T05:37:20.000Z</time>
      </trkpt>
      <trkpt lat="23.020420" lon="109.500437">
        <ele>64.059378</ele>
        <time>2026-08-15T05:37:21.000Z</time>
      </trkpt>
      <trkpt lat="23.020436" lon="109.500494">
        <ele>64.046618</ele>
        <time>2026-08-15T05:37:22.000Z</time>
      </trkpt>
      <trkpt lat="23.020451" lon="109.500551">
        <ele>64.033370</ele>
        <time>2026-08-15T05:37:23.000Z</time>
      </trkpt>
      <trkpt lat="23.020466" lon="109.500610">
        <ele>64.019691</ele>
        <time>2026-08-15T05:37:24.000Z</time>
      </trkpt>
      <trkpt lat="23.020479" lon="109.500668">
        <ele>64.006351</ele>
        <time>2026-08-15T05:37:25.000Z</time>
      </trkpt>
      <trkpt lat="23.020493" lon="109.500730">
        <ele>63.992085</ele>
        <time>2026-08-15T05:37:26.000Z</time>
      </trkpt>
      <trkpt lat="23.020509" lon="109.500792">
        <ele>63.977695</ele>
        <time>2026-08-15T05:37:27.000Z</time>
      </trkpt>
      <trkpt lat="23.020527" lon="109.500855">
        <ele>63.962954</ele>
        <time>2026-08-15T05:37:28.000Z</time>
      </trkpt>
      <trkpt lat="23.020543" lon="109.500919">
        <ele>63.948133</ele>
        <time>2026-08-15T05:37:29.000Z</time>
      </trkpt>
      <trkpt lat="23.020559" lon="109.500986">
        <ele>63.932665</ele>
        <time>2026-08-15T05:37:30.000Z</time>
      </trkpt>
      <trkpt lat="23.020575" lon="109.501052">
        <ele>63.917413</ele>
        <time>2026-08-15T05:37:31.000Z</time>
      </trkpt>
      <trkpt lat="23.020591" lon="109.501119">
        <ele>63.901944</ele>
        <time>2026-08-15T05:37:32.000Z</time>
      </trkpt>
      <trkpt lat="23.020607" lon="109.501185">
        <ele>63.886692</ele>
        <time>2026-08-15T05:37:33.000Z</time>
      </trkpt>
      <trkpt lat="23.020625" lon="109.501250">
        <ele>63.871523</ele>
        <time>2026-08-15T05:37:34.000Z</time>
      </trkpt>
      <trkpt lat="23.020643" lon="109.501314">
        <ele>63.856568</ele>
        <time>2026-08-15T05:37:35.000Z</time>
      </trkpt>
      <trkpt lat="23.020660" lon="109.501378">
        <ele>63.841683</ele>
        <time>2026-08-15T05:37:36.000Z</time>
      </trkpt>
      <trkpt lat="23.020674" lon="109.501442">
        <ele>63.826982</ele>
        <time>2026-08-15T05:37:37.000Z</time>
      </trkpt>
      <trkpt lat="23.020689" lon="109.501504">
        <ele>63.812656</ele>
        <time>2026-08-15T05:37:38.000Z</time>
      </trkpt>
      <trkpt lat="23.020705" lon="109.501564">
        <ele>63.798696</ele>
        <time>2026-08-15T05:37:39.000Z</time>
      </trkpt>
      <trkpt lat="23.020720" lon="109.501623">
        <ele>63.785018</ele>
        <time>2026-08-15T05:37:40.000Z</time>
      </trkpt>
      <trkpt lat="23.020736" lon="109.501682">
        <ele>63.771273</ele>
        <time>2026-08-15T05:37:41.000Z</time>
      </trkpt>
      <trkpt lat="23.020753" lon="109.501743">
        <ele>63.757030</ele>
        <time>2026-08-15T05:37:42.000Z</time>
      </trkpt>
      <trkpt lat="23.020770" lon="109.501803">
        <ele>63.743000</ele>
        <time>2026-08-15T05:37:43.000Z</time>
      </trkpt>
      <trkpt lat="23.020787" lon="109.501865">
        <ele>63.728543</ele>
        <time>2026-08-15T05:37:44.000Z</time>
      </trkpt>
      <trkpt lat="23.020803" lon="109.501920">
        <ele>63.715653</ele>
        <time>2026-08-15T05:37:45.000Z</time>
      </trkpt>
      <trkpt lat="23.020823" lon="109.501958">
        <ele>63.705871</ele>
        <time>2026-08-15T05:37:46.000Z</time>
      </trkpt>
      <trkpt lat="23.020852" lon="109.501980">
        <ele>63.697283</ele>
        <time>2026-08-15T05:37:47.000Z</time>
      </trkpt>
      <trkpt lat="23.020887" lon="109.501994">
        <ele>63.688227</ele>
        <time>2026-08-15T05:37:48.000Z</time>
      </trkpt>
      <trkpt lat="23.020918" lon="109.502006">
        <ele>63.680237</ele>
        <time>2026-08-15T05:37:49.000Z</time>
      </trkpt>
      <trkpt lat="23.020942" lon="109.502018">
        <ele>63.673822</ele>
        <time>2026-08-15T05:37:50.000Z</time>
      </trkpt>
      <trkpt lat="23.020953" lon="109.502025">
        <ele>63.670727</ele>
        <time>2026-08-15T05:37:51.000Z</time>
      </trkpt>
      <trkpt lat="23.020957" lon="109.502030">
        <ele>63.669246</ele>
        <time>2026-08-15T05:37:52.000Z</time>
      </trkpt>
      <trkpt lat="23.020960" lon="109.502043">
        <ele>63.666251</ele>
        <time>2026-08-15T05:37:54.000Z</time>
      </trkpt>
      <trkpt lat="23.020963" lon="109.502055">
        <ele>63.663472</ele>
        <time>2026-08-15T05:37:55.000Z</time>
      </trkpt>
      <trkpt lat="23.020971" lon="109.502064">
        <ele>63.660676</ele>
        <time>2026-08-15T05:37:56.000Z</time>
      </trkpt>
      <trkpt lat="23.020982" lon="109.502065">
        <ele>63.657996</ele>
        <time>2026-08-15T05:37:57.000Z</time>
      </trkpt>
      <trkpt lat="23.020985" lon="109.502062">
        <ele>63.657006</ele>
        <time>2026-08-15T05:37:58.000Z</time>
      </trkpt>
      <trkpt lat="23.020984" lon="109.502059">
        <ele>63.656293</ele>
        <time>2026-08-15T05:37:59.000Z</time>
      </trkpt>
      <trkpt lat="23.020856" lon="109.502057">
        <ele>63.625211</ele>
        <time>2026-08-15T05:41:42.000Z</time>
      </trkpt>
      <trkpt lat="23.020837" lon="109.502072">
        <ele>63.619508</ele>
        <time>2026-08-15T05:41:43.000Z</time>
      </trkpt>
      <trkpt lat="23.020822" lon="109.502095">
        <ele>63.627093</ele>
        <time>2026-08-15T05:41:44.000Z</time>
      </trkpt>
      <trkpt lat="23.020818" lon="109.502123">
        <ele>63.636765</ele>
        <time>2026-08-15T05:41:45.000Z</time>
      </trkpt>
      <trkpt lat="23.020824" lon="109.502159">
        <ele>63.649252</ele>
        <time>2026-08-15T05:41:46.000Z</time>
      </trkpt>
      <trkpt lat="23.020833" lon="109.502197">
        <ele>63.662646</ele>
        <time>2026-08-15T05:41:47.000Z</time>
      </trkpt>
      <trkpt lat="23.020842" lon="109.502236">
        <ele>63.676370</ele>
        <time>2026-08-15T05:41:48.000Z</time>
      </trkpt>
      <trkpt lat="23.020851" lon="109.502275">
        <ele>63.690094</ele>
        <time>2026-08-15T05:41:49.000Z</time>
      </trkpt>
      <trkpt lat="23.020861" lon="109.502316">
        <ele>63.704572</ele>
        <time>2026-08-15T05:41:50.000Z</time>
      </trkpt>
      <trkpt lat="23.020871" lon="109.502359">
        <ele>63.719710</ele>
        <time>2026-08-15T05:41:51.000Z</time>
      </trkpt>
      <trkpt lat="23.020882" lon="109.502402">
        <ele>63.734944</ele>
        <time>2026-08-15T05:41:52.000Z</time>
      </trkpt>
      <trkpt lat="23.020892" lon="109.502445">
        <ele>63.750083</ele>
        <time>2026-08-15T05:41:53.000Z</time>
      </trkpt>
      <trkpt lat="23.020902" lon="109.502489">
        <ele>63.765552</ele>
        <time>2026-08-15T05:41:54.000Z</time>
      </trkpt>
      <trkpt lat="23.020914" lon="109.502534">
        <ele>63.781544</ele>
        <time>2026-08-15T05:41:55.000Z</time>
      </trkpt>
      <trkpt lat="23.020926" lon="109.502579">
        <ele>63.797536</ele>
        <time>2026-08-15T05:41:56.000Z</time>
      </trkpt>
      <trkpt lat="23.020938" lon="109.502625">
        <ele>63.813856</ele>
        <time>2026-08-15T05:41:57.000Z</time>
      </trkpt>
      <trkpt lat="23.020950" lon="109.502671">
        <ele>63.830176</ele>
        <time>2026-08-15T05:41:58.000Z</time>
      </trkpt>
      <trkpt lat="23.020961" lon="109.502717">
        <ele>63.846398</ele>
        <time>2026-08-15T05:41:59.000Z</time>
      </trkpt>
      <trkpt lat="23.020973" lon="109.502763">
        <ele>63.862718</ele>
        <time>2026-08-15T05:42:00.000Z</time>
      </trkpt>
      <trkpt lat="23.020983" lon="109.502810">
        <ele>63.879184</ele>
        <time>2026-08-15T05:42:01.000Z</time>
      </trkpt>
      <trkpt lat="23.020993" lon="109.502855">
        <ele>63.894985</ele>
        <time>2026-08-15T05:42:02.000Z</time>
      </trkpt>
      <trkpt lat="23.021004" lon="109.502901">
        <ele>63.911208</ele>
        <time>2026-08-15T05:42:03.000Z</time>
      </trkpt>
      <trkpt lat="23.021019" lon="109.502946">
        <ele>63.927544</ele>
        <time>2026-08-15T05:42:04.000Z</time>
      </trkpt>
      <trkpt lat="23.021033" lon="109.502992">
        <ele>63.944082</ele>
        <time>2026-08-15T05:42:05.000Z</time>
      </trkpt>
      <trkpt lat="23.021045" lon="109.503042">
        <ele>63.961719</ele>
        <time>2026-08-15T05:42:06.000Z</time>
      </trkpt>
      <trkpt lat="23.021056" lon="109.503092">
        <ele>63.979267</ele>
        <time>2026-08-15T05:42:07.000Z</time>
      </trkpt>
      <trkpt lat="23.021070" lon="109.503141">
        <ele>63.996779</ele>
        <time>2026-08-15T05:42:08.000Z</time>
      </trkpt>
      <trkpt lat="23.021083" lon="109.503190">
        <ele>64.014186</ele>
        <time>2026-08-15T05:42:09.000Z</time>
      </trkpt>
      <trkpt lat="23.021095" lon="109.503242">
        <ele>64.032485</ele>
        <time>2026-08-15T05:42:10.000Z</time>
      </trkpt>
      <trkpt lat="23.021106" lon="109.503293">
        <ele>64.050364</ele>
        <time>2026-08-15T05:42:11.000Z</time>
      </trkpt>
      <trkpt lat="23.021119" lon="109.503344">
        <ele>64.068427</ele>
        <time>2026-08-15T05:42:12.000Z</time>
      </trkpt>
      <trkpt lat="23.021132" lon="109.503395">
        <ele>64.086491</ele>
        <time>2026-08-15T05:42:13.000Z</time>
      </trkpt>
      <trkpt lat="23.021146" lon="109.503447">
        <ele>64.104984</ele>
        <time>2026-08-15T05:42:14.000Z</time>
      </trkpt>
      <trkpt lat="23.021159" lon="109.503499">
        <ele>64.123376</ele>
        <time>2026-08-15T05:42:15.000Z</time>
      </trkpt>
      <trkpt lat="23.021172" lon="109.503550">
        <ele>64.141440</ele>
        <time>2026-08-15T05:42:16.000Z</time>
      </trkpt>
      <trkpt lat="23.021185" lon="109.503597">
        <ele>64.158191</ele>
        <time>2026-08-15T05:42:17.000Z</time>
      </trkpt>
      <trkpt lat="23.021197" lon="109.503646">
        <ele>64.175498</ele>
        <time>2026-08-15T05:42:18.000Z</time>
      </trkpt>
      <trkpt lat="23.021209" lon="109.503694">
        <ele>64.192476</ele>
        <time>2026-08-15T05:42:19.000Z</time>
      </trkpt>
      <trkpt lat="23.021222" lon="109.503743">
        <ele>64.209882</ele>
        <time>2026-08-15T05:42:20.000Z</time>
      </trkpt>
      <trkpt lat="23.021235" lon="109.503792">
        <ele>64.227289</ele>
        <time>2026-08-15T05:42:21.000Z</time>
      </trkpt>
      <trkpt lat="23.021246" lon="109.503841">
        <ele>64.244504</ele>
        <time>2026-08-15T05:42:22.000Z</time>
      </trkpt>
      <trkpt lat="23.021257" lon="109.503890">
        <ele>64.261720</ele>
        <time>2026-08-15T05:42:23.000Z</time>
      </trkpt>
      <trkpt lat="23.021268" lon="109.503938">
        <ele>64.278604</ele>
        <time>2026-08-15T05:42:24.000Z</time>
      </trkpt>
      <trkpt lat="23.021279" lon="109.503986">
        <ele>64.285946</ele>
        <time>2026-08-15T05:42:25.000Z</time>
      </trkpt>
      <trkpt lat="23.021288" lon="109.504035">
        <ele>64.286269</ele>
        <time>2026-08-15T05:42:26.000Z</time>
      </trkpt>
      <trkpt lat="23.021299" lon="109.504085">
        <ele>64.286602</ele>
        <time>2026-08-15T05:42:27.000Z</time>
      </trkpt>
      <trkpt lat="23.021310" lon="109.504135">
        <ele>64.286934</ele>
        <time>2026-08-15T05:42:28.000Z</time>
      </trkpt>
      <trkpt lat="23.021321" lon="109.504185">
        <ele>64.287266</ele>
        <time>2026-08-15T05:42:29.000Z</time>
      </trkpt>
      <trkpt lat="23.021333" lon="109.504234">
        <ele>64.287594</ele>
        <time>2026-08-15T05:42:30.000Z</time>
      </trkpt>
      <trkpt lat="23.021344" lon="109.504284">
        <ele>64.287927</ele>
        <time>2026-08-15T05:42:31.000Z</time>
      </trkpt>
      <trkpt lat="23.021357" lon="109.504333">
        <ele>64.288256</ele>
        <time>2026-08-15T05:42:32.000Z</time>
      </trkpt>
      <trkpt lat="23.021369" lon="109.504381">
        <ele>64.288578</ele>
        <time>2026-08-15T05:42:33.000Z</time>
      </trkpt>
      <trkpt lat="23.021382" lon="109.504429">
        <ele>64.288901</ele>
        <time>2026-08-15T05:42:34.000Z</time>
      </trkpt>
      <trkpt lat="23.021394" lon="109.504478">
        <ele>64.289229</ele>
        <time>2026-08-15T05:42:35.000Z</time>
      </trkpt>
      <trkpt lat="23.021406" lon="109.504527">
        <ele>64.289557</ele>
        <time>2026-08-15T05:42:36.000Z</time>
      </trkpt>
      <trkpt lat="23.021418" lon="109.504575">
        <ele>64.289878</ele>
        <time>2026-08-15T05:42:37.000Z</time>
      </trkpt>
      <trkpt lat="23.021429" lon="109.504623">
        <ele>64.290198</ele>
        <time>2026-08-15T05:42:38.000Z</time>
      </trkpt>
      <trkpt lat="23.021441" lon="109.504672">
        <ele>64.290526</ele>
        <time>2026-08-15T05:42:39.000Z</time>
      </trkpt>
      <trkpt lat="23.021451" lon="109.504721">
        <ele>64.290851</ele>
        <time>2026-08-15T05:42:40.000Z</time>
      </trkpt>
      <trkpt lat="23.021461" lon="109.504769">
        <ele>64.291169</ele>
        <time>2026-08-15T05:42:41.000Z</time>
      </trkpt>
      <trkpt lat="23.021471" lon="109.504817">
        <ele>64.291487</ele>
        <time>2026-08-15T05:42:42.000Z</time>
      </trkpt>
      <trkpt lat="23.021481" lon="109.504864">
        <ele>64.291799</ele>
        <time>2026-08-15T05:42:43.000Z</time>
      </trkpt>
      <trkpt lat="23.021492" lon="109.504911">
        <ele>64.292112</ele>
        <time>2026-08-15T05:42:44.000Z</time>
      </trkpt>
      <trkpt lat="23.021501" lon="109.504958">
        <ele>64.292423</ele>
        <time>2026-08-15T05:42:45.000Z</time>
      </trkpt>
      <trkpt lat="23.021513" lon="109.505004">
        <ele>64.292732</ele>
        <time>2026-08-15T05:42:46.000Z</time>
      </trkpt>
      <trkpt lat="23.021526" lon="109.505052">
        <ele>64.293055</ele>
        <time>2026-08-15T05:42:47.000Z</time>
      </trkpt>
      <trkpt lat="23.021538" lon="109.505101">
        <ele>64.293383</ele>
        <time>2026-08-15T05:42:48.000Z</time>
      </trkpt>
      <trkpt lat="23.021550" lon="109.505151">
        <ele>64.293717</ele>
        <time>2026-08-15T05:42:49.000Z</time>
      </trkpt>
      <trkpt lat="23.021562" lon="109.505202">
        <ele>64.294057</ele>
        <time>2026-08-15T05:42:50.000Z</time>
      </trkpt>
      <trkpt lat="23.021574" lon="109.505253">
        <ele>64.294398</ele>
        <time>2026-08-15T05:42:51.000Z</time>
      </trkpt>
      <trkpt lat="23.021586" lon="109.505305">
        <ele>64.294744</ele>
        <time>2026-08-15T05:42:52.000Z</time>
      </trkpt>
      <trkpt lat="23.021599" lon="109.505359">
        <ele>64.295105</ele>
        <time>2026-08-15T05:42:53.000Z</time>
      </trkpt>
      <trkpt lat="23.021613" lon="109.505413">
        <ele>64.295468</ele>
        <time>2026-08-15T05:42:54.000Z</time>
      </trkpt>
      <trkpt lat="23.021623" lon="109.505467">
        <ele>64.295824</ele>
        <time>2026-08-15T05:42:55.000Z</time>
      </trkpt>
      <trkpt lat="23.021636" lon="109.505521">
        <ele>64.296185</ele>
        <time>2026-08-15T05:42:56.000Z</time>
      </trkpt>
      <trkpt lat="23.021649" lon="109.505576">
        <ele>64.296552</ele>
        <time>2026-08-15T05:42:57.000Z</time>
      </trkpt>
      <trkpt lat="23.021662" lon="109.505631">
        <ele>64.296919</ele>
        <time>2026-08-15T05:42:58.000Z</time>
      </trkpt>
      <trkpt lat="23.021676" lon="109.505687">
        <ele>64.297294</ele>
        <time>2026-08-15T05:42:59.000Z</time>
      </trkpt>
      <trkpt lat="23.021689" lon="109.505742">
        <ele>64.297661</ele>
        <time>2026-08-15T05:43:00.000Z</time>
      </trkpt>
      <trkpt lat="23.021703" lon="109.505798">
        <ele>64.298036</ele>
        <time>2026-08-15T05:43:01.000Z</time>
      </trkpt>
      <trkpt lat="23.021715" lon="109.505854">
        <ele>64.298361</ele>
        <time>2026-08-15T05:43:02.000Z</time>
      </trkpt>
      <trkpt lat="23.021726" lon="109.505912">
        <ele>64.297214</ele>
        <time>2026-08-15T05:43:03.000Z</time>
      </trkpt>
      <trkpt lat="23.021737" lon="109.505968">
        <ele>64.296104</ele>
        <time>2026-08-15T05:43:04.000Z</time>
      </trkpt>
      <trkpt lat="23.021748" lon="109.506026">
        <ele>64.294957</ele>
        <time>2026-08-15T05:43:05.000Z</time>
      </trkpt>
      <trkpt lat="23.021759" lon="109.506085">
        <ele>64.293790</ele>
        <time>2026-08-15T05:43:06.000Z</time>
      </trkpt>
      <trkpt lat="23.021770" lon="109.506144">
        <ele>64.292624</ele>
        <time>2026-08-15T05:43:07.000Z</time>
      </trkpt>
      <trkpt lat="23.021778" lon="109.506204">
        <ele>64.291449</ele>
        <time>2026-08-15T05:43:08.000Z</time>
      </trkpt>
      <trkpt lat="23.021786" lon="109.506263">
        <ele>64.290294</ele>
        <time>2026-08-15T05:43:09.000Z</time>
      </trkpt>
      <trkpt lat="23.021790" lon="109.506321">
        <ele>64.289167</ele>
        <time>2026-08-15T05:43:10.000Z</time>
      </trkpt>
      <trkpt lat="23.021793" lon="109.506381">
        <ele>64.288002</ele>
        <time>2026-08-15T05:43:11.000Z</time>
      </trkpt>
      <trkpt lat="23.021797" lon="109.506440">
        <ele>64.286856</ele>
        <time>2026-08-15T05:43:12.000Z</time>
      </trkpt>
      <trkpt lat="23.021802" lon="109.506500">
        <ele>64.285689</ele>
        <time>2026-08-15T05:43:13.000Z</time>
      </trkpt>
      <trkpt lat="23.021807" lon="109.506560">
        <ele>64.284521</ele>
        <time>2026-08-15T05:43:14.000Z</time>
      </trkpt>
      <trkpt lat="23.021811" lon="109.506618">
        <ele>64.283394</ele>
        <time>2026-08-15T05:43:15.000Z</time>
      </trkpt>
      <trkpt lat="23.021813" lon="109.506677">
        <ele>64.282250</ele>
        <time>2026-08-15T05:43:16.000Z</time>
      </trkpt>
      <trkpt lat="23.021815" lon="109.506736">
        <ele>64.281106</ele>
        <time>2026-08-15T05:43:17.000Z</time>
      </trkpt>
      <trkpt lat="23.021816" lon="109.506796">
        <ele>64.279943</ele>
        <time>2026-08-15T05:43:18.000Z</time>
      </trkpt>
      <trkpt lat="23.021816" lon="109.506855">
        <ele>64.278800</ele>
        <time>2026-08-15T05:43:19.000Z</time>
      </trkpt>
      <trkpt lat="23.021815" lon="109.506913">
        <ele>64.277676</ele>
        <time>2026-08-15T05:43:20.000Z</time>
      </trkpt>
      <trkpt lat="23.021814" lon="109.506972">
        <ele>64.276533</ele>
        <time>2026-08-15T05:43:21.000Z</time>
      </trkpt>
      <trkpt lat="23.021813" lon="109.507032">
        <ele>64.275370</ele>
        <time>2026-08-15T05:43:22.000Z</time>
      </trkpt>
      <trkpt lat="23.021812" lon="109.507092">
        <ele>64.274207</ele>
        <time>2026-08-15T05:43:23.000Z</time>
      </trkpt>
      <trkpt lat="23.021811" lon="109.507152">
        <ele>64.273044</ele>
        <time>2026-08-15T05:43:24.000Z</time>
      </trkpt>
      <trkpt lat="23.021811" lon="109.507212">
        <ele>64.271882</ele>
        <time>2026-08-15T05:43:25.000Z</time>
      </trkpt>
      <trkpt lat="23.021810" lon="109.507272">
        <ele>64.270719</ele>
        <time>2026-08-15T05:43:26.000Z</time>
      </trkpt>
      <trkpt lat="23.021809" lon="109.507328">
        <ele>64.269634</ele>
        <time>2026-08-15T05:43:27.000Z</time>
      </trkpt>
      <trkpt lat="23.021807" lon="109.507386">
        <ele>64.268509</ele>
        <time>2026-08-15T05:43:28.000Z</time>
      </trkpt>
      <trkpt lat="23.021806" lon="109.507444">
        <ele>64.267385</ele>
        <time>2026-08-15T05:43:29.000Z</time>
      </trkpt>
      <trkpt lat="23.021804" lon="109.507503">
        <ele>64.266241</ele>
        <time>2026-08-15T05:43:30.000Z</time>
      </trkpt>
      <trkpt lat="23.021802" lon="109.507563">
        <ele>64.265077</ele>
        <time>2026-08-15T05:43:31.000Z</time>
      </trkpt>
      <trkpt lat="23.021800" lon="109.507622">
        <ele>64.263933</ele>
        <time>2026-08-15T05:43:32.000Z</time>
      </trkpt>
      <trkpt lat="23.021799" lon="109.507681">
        <ele>64.262790</ele>
        <time>2026-08-15T05:43:33.000Z</time>
      </trkpt>
      <trkpt lat="23.021797" lon="109.507738">
        <ele>64.261685</ele>
        <time>2026-08-15T05:43:34.000Z</time>
      </trkpt>
      <trkpt lat="23.021795" lon="109.507795">
        <ele>64.260579</ele>
        <time>2026-08-15T05:43:35.000Z</time>
      </trkpt>
      <trkpt lat="23.021793" lon="109.507853">
        <ele>64.281710</ele>
        <time>2026-08-15T05:43:36.000Z</time>
      </trkpt>
      <trkpt lat="23.021793" lon="109.507910">
        <ele>64.303502</ele>
        <time>2026-08-15T05:43:37.000Z</time>
      </trkpt>
      <trkpt lat="23.021792" lon="109.507966">
        <ele>64.324916</ele>
        <time>2026-08-15T05:43:38.000Z</time>
      </trkpt>
      <trkpt lat="23.021791" lon="109.508023">
        <ele>64.346712</ele>
        <time>2026-08-15T05:43:39.000Z</time>
      </trkpt>
      <trkpt lat="23.021788" lon="109.508079">
        <ele>64.368158</ele>
        <time>2026-08-15T05:43:40.000Z</time>
      </trkpt>
      <trkpt lat="23.021784" lon="109.508135">
        <ele>64.389632</ele>
        <time>2026-08-15T05:43:41.000Z</time>
      </trkpt>
      <trkpt lat="23.021782" lon="109.508191">
        <ele>64.411058</ele>
        <time>2026-08-15T05:43:42.000Z</time>
      </trkpt>
      <trkpt lat="23.021781" lon="109.508247">
        <ele>64.432472</ele>
        <time>2026-08-15T05:43:43.000Z</time>
      </trkpt>
      <trkpt lat="23.021779" lon="109.508304">
        <ele>64.454279</ele>
        <time>2026-08-15T05:43:44.000Z</time>
      </trkpt>
      <trkpt lat="23.021778" lon="109.508360">
        <ele>64.475693</ele>
        <time>2026-08-15T05:43:45.000Z</time>
      </trkpt>
      <trkpt lat="23.021775" lon="109.508415">
        <ele>64.496757</ele>
        <time>2026-08-15T05:43:46.000Z</time>
      </trkpt>
      <trkpt lat="23.021772" lon="109.508471">
        <ele>64.518203</ele>
        <time>2026-08-15T05:43:47.000Z</time>
      </trkpt>
      <trkpt lat="23.021769" lon="109.508528">
        <ele>64.540031</ele>
        <time>2026-08-15T05:43:48.000Z</time>
      </trkpt>
      <trkpt lat="23.021769" lon="109.508584">
        <ele>64.561441</ele>
        <time>2026-08-15T05:43:49.000Z</time>
      </trkpt>
      <trkpt lat="23.021767" lon="109.508641">
        <ele>64.583249</ele>
        <time>2026-08-15T05:43:50.000Z</time>
      </trkpt>
      <trkpt lat="23.021764" lon="109.508697">
        <ele>64.604695</ele>
        <time>2026-08-15T05:43:51.000Z</time>
      </trkpt>
      <trkpt lat="23.021762" lon="109.508753">
        <ele>64.626120</ele>
        <time>2026-08-15T05:43:52.000Z</time>
      </trkpt>
      <trkpt lat="23.021762" lon="109.508809">
        <ele>64.647530</ele>
        <time>2026-08-15T05:43:53.000Z</time>
      </trkpt>
      <trkpt lat="23.021760" lon="109.508864">
        <ele>64.668574</ele>
        <time>2026-08-15T05:43:54.000Z</time>
      </trkpt>
      <trkpt lat="23.021757" lon="109.508919">
        <ele>64.689638</ele>
        <time>2026-08-15T05:43:55.000Z</time>
      </trkpt>
      <trkpt lat="23.021755" lon="109.508974">
        <ele>64.710682</ele>
        <time>2026-08-15T05:43:56.000Z</time>
      </trkpt>
      <trkpt lat="23.021754" lon="109.509028">
        <ele>64.731331</ele>
        <time>2026-08-15T05:43:57.000Z</time>
      </trkpt>
      <trkpt lat="23.021754" lon="109.509082">
        <ele>64.751976</ele>
        <time>2026-08-15T05:43:58.000Z</time>
      </trkpt>
      <trkpt lat="23.021753" lon="109.509137">
        <ele>64.773008</ele>
        <time>2026-08-15T05:43:59.000Z</time>
      </trkpt>
      <trkpt lat="23.021753" lon="109.509192">
        <ele>64.794035</ele>
        <time>2026-08-15T05:44:00.000Z</time>
      </trkpt>
      <trkpt lat="23.021750" lon="109.509247">
        <ele>64.815099</ele>
        <time>2026-08-15T05:44:01.000Z</time>
      </trkpt>
      <trkpt lat="23.021748" lon="109.509302">
        <ele>64.836143</ele>
        <time>2026-08-15T05:44:02.000Z</time>
      </trkpt>
      <trkpt lat="23.021747" lon="109.509356">
        <ele>64.856793</ele>
        <time>2026-08-15T05:44:03.000Z</time>
      </trkpt>
      <trkpt lat="23.021746" lon="109.509409">
        <ele>64.877060</ele>
        <time>2026-08-15T05:44:04.000Z</time>
      </trkpt>
      <trkpt lat="23.021744" lon="109.509463">
        <ele>64.897721</ele>
        <time>2026-08-15T05:44:05.000Z</time>
      </trkpt>
      <trkpt lat="23.021741" lon="109.509517">
        <ele>64.918404</ele>
        <time>2026-08-15T05:44:06.000Z</time>
      </trkpt>
      <trkpt lat="23.021738" lon="109.509570">
        <ele>64.938705</ele>
        <time>2026-08-15T05:44:07.000Z</time>
      </trkpt>
      <trkpt lat="23.021737" lon="109.509622">
        <ele>64.958590</ele>
        <time>2026-08-15T05:44:08.000Z</time>
      </trkpt>
      <trkpt lat="23.021735" lon="109.509674">
        <ele>64.978488</ele>
        <time>2026-08-15T05:44:09.000Z</time>
      </trkpt>
      <trkpt lat="23.021734" lon="109.509726">
        <ele>64.998372</ele>
        <time>2026-08-15T05:44:10.000Z</time>
      </trkpt>
      <trkpt lat="23.021734" lon="109.509777">
        <ele>65.002017</ele>
        <time>2026-08-15T05:44:11.000Z</time>
      </trkpt>
      <trkpt lat="23.021735" lon="109.509828">
        <ele>64.991165</ele>
        <time>2026-08-15T05:44:12.000Z</time>
      </trkpt>
      <trkpt lat="23.021737" lon="109.509879">
        <ele>64.980305</ele>
        <time>2026-08-15T05:44:13.000Z</time>
      </trkpt>
      <trkpt lat="23.021737" lon="109.509930">
        <ele>64.969454</ele>
        <time>2026-08-15T05:44:14.000Z</time>
      </trkpt>
      <trkpt lat="23.021738" lon="109.509983">
        <ele>64.958176</ele>
        <time>2026-08-15T05:44:15.000Z</time>
      </trkpt>
      <trkpt lat="23.021741" lon="109.510037">
        <ele>64.946667</ele>
        <time>2026-08-15T05:44:16.000Z</time>
      </trkpt>
      <trkpt lat="23.021744" lon="109.510091">
        <ele>64.935158</ele>
        <time>2026-08-15T05:44:17.000Z</time>
      </trkpt>
      <trkpt lat="23.021747" lon="109.510146">
        <ele>64.923436</ele>
        <time>2026-08-15T05:44:18.000Z</time>
      </trkpt>
      <trkpt lat="23.021750" lon="109.510203">
        <ele>64.911289</ele>
        <time>2026-08-15T05:44:19.000Z</time>
      </trkpt>
      <trkpt lat="23.021751" lon="109.510260">
        <ele>64.899160</ele>
        <time>2026-08-15T05:44:20.000Z</time>
      </trkpt>
      <trkpt lat="23.021752" lon="109.510316">
        <ele>64.887244</ele>
        <time>2026-08-15T05:44:21.000Z</time>
      </trkpt>
      <trkpt lat="23.021753" lon="109.510373">
        <ele>64.875115</ele>
        <time>2026-08-15T05:44:22.000Z</time>
      </trkpt>
      <trkpt lat="23.021752" lon="109.510429">
        <ele>64.863199</ele>
        <time>2026-08-15T05:44:23.000Z</time>
      </trkpt>
      <trkpt lat="23.021752" lon="109.510486">
        <ele>64.851072</ele>
        <time>2026-08-15T05:44:24.000Z</time>
      </trkpt>
      <trkpt lat="23.021753" lon="109.510542">
        <ele>64.839156</ele>
        <time>2026-08-15T05:44:25.000Z</time>
      </trkpt>
      <trkpt lat="23.021752" lon="109.510599">
        <ele>64.827027</ele>
        <time>2026-08-15T05:44:26.000Z</time>
      </trkpt>
      <trkpt lat="23.021751" lon="109.510655">
        <ele>64.815111</ele>
        <time>2026-08-15T05:44:27.000Z</time>
      </trkpt>
      <trkpt lat="23.021753" lon="109.510711">
        <ele>64.803188</ele>
        <time>2026-08-15T05:44:28.000Z</time>
      </trkpt>
      <trkpt lat="23.021756" lon="109.510768">
        <ele>64.791042</ele>
        <time>2026-08-15T05:44:29.000Z</time>
      </trkpt>
      <trkpt lat="23.021760" lon="109.510824">
        <ele>64.779092</ele>
        <time>2026-08-15T05:44:30.000Z</time>
      </trkpt>
      <trkpt lat="23.021763" lon="109.510882">
        <ele>64.766733</ele>
        <time>2026-08-15T05:44:31.000Z</time>
      </trkpt>
      <trkpt lat="23.021765" lon="109.510937">
        <ele>64.755023</ele>
        <time>2026-08-15T05:44:32.000Z</time>
      </trkpt>
      <trkpt lat="23.021767" lon="109.510993">
        <ele>64.743100</ele>
        <time>2026-08-15T05:44:33.000Z</time>
      </trkpt>
      <trkpt lat="23.021770" lon="109.511049">
        <ele>64.731166</ele>
        <time>2026-08-15T05:44:34.000Z</time>
      </trkpt>
      <trkpt lat="23.021775" lon="109.511105">
        <ele>64.719196</ele>
        <time>2026-08-15T05:44:35.000Z</time>
      </trkpt>
      <trkpt lat="23.021779" lon="109.511161">
        <ele>64.707246</ele>
        <time>2026-08-15T05:44:36.000Z</time>
      </trkpt>
      <trkpt lat="23.021784" lon="109.511216">
        <ele>64.695488</ele>
        <time>2026-08-15T05:44:37.000Z</time>
      </trkpt>
      <trkpt lat="23.021787" lon="109.511273">
        <ele>64.683341</ele>
        <time>2026-08-15T05:44:38.000Z</time>
      </trkpt>
      <trkpt lat="23.021790" lon="109.511328">
        <ele>64.671620</ele>
        <time>2026-08-15T05:44:39.000Z</time>
      </trkpt>
      <trkpt lat="23.021794" lon="109.511385">
        <ele>64.659458</ele>
        <time>2026-08-15T05:44:40.000Z</time>
      </trkpt>
      <trkpt lat="23.021796" lon="109.511442">
        <ele>64.647322</ele>
        <time>2026-08-15T05:44:41.000Z</time>
      </trkpt>
      <trkpt lat="23.021798" lon="109.511498">
        <ele>64.635399</ele>
        <time>2026-08-15T05:44:42.000Z</time>
      </trkpt>
      <trkpt lat="23.021800" lon="109.511554">
        <ele>64.623476</ele>
        <time>2026-08-15T05:44:43.000Z</time>
      </trkpt>
      <trkpt lat="23.021801" lon="109.511611">
        <ele>64.611348</ele>
        <time>2026-08-15T05:44:44.000Z</time>
      </trkpt>
      <trkpt lat="23.021803" lon="109.511668">
        <ele>64.599212</ele>
        <time>2026-08-15T05:44:45.000Z</time>
      </trkpt>
      <trkpt lat="23.021807" lon="109.511724">
        <ele>64.595054</ele>
        <time>2026-08-15T05:44:46.000Z</time>
      </trkpt>
      <trkpt lat="23.021810" lon="109.511781">
        <ele>64.603262</ele>
        <time>2026-08-15T05:44:47.000Z</time>
      </trkpt>
      <trkpt lat="23.021812" lon="109.511837">
        <ele>64.611320</ele>
        <time>2026-08-15T05:44:48.000Z</time>
      </trkpt>
      <trkpt lat="23.021812" lon="109.511892">
        <ele>64.619227</ele>
        <time>2026-08-15T05:44:49.000Z</time>
      </trkpt>
      <trkpt lat="23.021812" lon="109.511949">
        <ele>64.627422</ele>
        <time>2026-08-15T05:44:50.000Z</time>
      </trkpt>
      <trkpt lat="23.021811" lon="109.512005">
        <ele>64.635475</ele>
        <time>2026-08-15T05:44:51.000Z</time>
      </trkpt>
      <trkpt lat="23.021811" lon="109.512061">
        <ele>64.643526</ele>
        <time>2026-08-15T05:44:52.000Z</time>
      </trkpt>
      <trkpt lat="23.021812" lon="109.512117">
        <ele>64.651578</ele>
        <time>2026-08-15T05:44:53.000Z</time>
      </trkpt>
      <trkpt lat="23.021813" lon="109.512174">
        <ele>64.659775</ele>
        <time>2026-08-15T05:44:54.000Z</time>
      </trkpt>
      <trkpt lat="23.021814" lon="109.512231">
        <ele>64.667971</ele>
        <time>2026-08-15T05:44:55.000Z</time>
      </trkpt>
      <trkpt lat="23.021817" lon="109.512287">
        <ele>64.676036</ele>
        <time>2026-08-15T05:44:56.000Z</time>
      </trkpt>
      <trkpt lat="23.021820" lon="109.512345">
        <ele>64.684388</ele>
        <time>2026-08-15T05:44:57.000Z</time>
      </trkpt>
      <trkpt lat="23.021821" lon="109.512404">
        <ele>64.692872</ele>
        <time>2026-08-15T05:44:58.000Z</time>
      </trkpt>
      <trkpt lat="23.021822" lon="109.512462">
        <ele>64.701212</ele>
        <time>2026-08-15T05:44:59.000Z</time>
      </trkpt>
      <trkpt lat="23.021822" lon="109.512517">
        <ele>64.709120</ele>
        <time>2026-08-15T05:45:00.000Z</time>
      </trkpt>
      <trkpt lat="23.021822" lon="109.512573">
        <ele>64.717171</ele>
        <time>2026-08-15T05:45:01.000Z</time>
      </trkpt>
      <trkpt lat="23.021821" lon="109.512630">
        <ele>64.725367</ele>
        <time>2026-08-15T05:45:02.000Z</time>
      </trkpt>
      <trkpt lat="23.021820" lon="109.512687">
        <ele>64.733564</ele>
        <time>2026-08-15T05:45:03.000Z</time>
      </trkpt>
      <trkpt lat="23.021818" lon="109.512743">
        <ele>64.741621</ele>
        <time>2026-08-15T05:45:04.000Z</time>
      </trkpt>
      <trkpt lat="23.021816" lon="109.512799">
        <ele>64.749678</ele>
        <time>2026-08-15T05:45:05.000Z</time>
      </trkpt>
      <trkpt lat="23.021815" lon="109.512854">
        <ele>64.757587</ele>
        <time>2026-08-15T05:45:06.000Z</time>
      </trkpt>
      <trkpt lat="23.021812" lon="109.512909">
        <ele>64.765508</ele>
        <time>2026-08-15T05:45:07.000Z</time>
      </trkpt>
      <trkpt lat="23.021810" lon="109.512963">
        <ele>64.773278</ele>
        <time>2026-08-15T05:45:08.000Z</time>
      </trkpt>
      <trkpt lat="23.021812" lon="109.513017">
        <ele>64.781048</ele>
        <time>2026-08-15T05:45:09.000Z</time>
      </trkpt>
      <trkpt lat="23.021811" lon="109.513072">
        <ele>64.788957</ele>
        <time>2026-08-15T05:45:10.000Z</time>
      </trkpt>
      <trkpt lat="23.021810" lon="109.513126">
        <ele>64.796722</ele>
        <time>2026-08-15T05:45:11.000Z</time>
      </trkpt>
      <trkpt lat="23.021809" lon="109.513181">
        <ele>64.804631</ele>
        <time>2026-08-15T05:45:12.000Z</time>
      </trkpt>
      <trkpt lat="23.021808" lon="109.513238">
        <ele>64.812828</ele>
        <time>2026-08-15T05:45:13.000Z</time>
      </trkpt>
      <trkpt lat="23.021806" lon="109.513296">
        <ele>64.821172</ele>
        <time>2026-08-15T05:45:14.000Z</time>
      </trkpt>
      <trkpt lat="23.021805" lon="109.513354">
        <ele>64.829513</ele>
        <time>2026-08-15T05:45:15.000Z</time>
      </trkpt>
      <trkpt lat="23.021803" lon="109.513413">
        <ele>64.838001</ele>
        <time>2026-08-15T05:45:16.000Z</time>
      </trkpt>
      <trkpt lat="23.021800" lon="109.513472">
        <ele>64.846496</ele>
        <time>2026-08-15T05:45:17.000Z</time>
      </trkpt>
      <trkpt lat="23.021797" lon="109.513532">
        <ele>64.855135</ele>
        <time>2026-08-15T05:45:18.000Z</time>
      </trkpt>
      <trkpt lat="23.021797" lon="109.513591">
        <ele>64.863618</ele>
        <time>2026-08-15T05:45:19.000Z</time>
      </trkpt>
      <trkpt lat="23.021794" lon="109.513652">
        <ele>64.872400</ele>
        <time>2026-08-15T05:45:20.000Z</time>
      </trkpt>
      <trkpt lat="23.021790" lon="109.513714">
        <ele>64.893348</ele>
        <time>2026-08-15T05:45:21.000Z</time>
      </trkpt>
      <trkpt lat="23.021790" lon="109.513777">
        <ele>64.915275</ele>
        <time>2026-08-15T05:45:22.000Z</time>
      </trkpt>
      <trkpt lat="23.021790" lon="109.513839">
        <ele>64.936854</ele>
        <time>2026-08-15T05:45:23.000Z</time>
      </trkpt>
      <trkpt lat="23.021789" lon="109.513896">
        <ele>64.956697</ele>
        <time>2026-08-15T05:45:24.000Z</time>
      </trkpt>
      <trkpt lat="23.021790" lon="109.513955">
        <ele>64.977236</ele>
        <time>2026-08-15T05:45:25.000Z</time>
      </trkpt>
      <trkpt lat="23.021790" lon="109.514013">
        <ele>64.997423</ele>
        <time>2026-08-15T05:45:26.000Z</time>
      </trkpt>
      <trkpt lat="23.021789" lon="109.514069">
        <ele>65.016918</ele>
        <time>2026-08-15T05:45:27.000Z</time>
      </trkpt>
      <trkpt lat="23.021788" lon="109.514127">
        <ele>65.037109</ele>
        <time>2026-08-15T05:45:28.000Z</time>
      </trkpt>
      <trkpt lat="23.021786" lon="109.514184">
        <ele>65.056962</ele>
        <time>2026-08-15T05:45:29.000Z</time>
      </trkpt>
      <trkpt lat="23.021785" lon="109.514240">
        <ele>65.076457</ele>
        <time>2026-08-15T05:45:30.000Z</time>
      </trkpt>
      <trkpt lat="23.021785" lon="109.514296">
        <ele>65.095948</ele>
        <time>2026-08-15T05:45:31.000Z</time>
      </trkpt>
      <trkpt lat="23.021785" lon="109.514353">
        <ele>65.115787</ele>
        <time>2026-08-15T05:45:32.000Z</time>
      </trkpt>
      <trkpt lat="23.021783" lon="109.514409">
        <ele>65.135293</ele>
        <time>2026-08-15T05:45:33.000Z</time>
      </trkpt>
      <trkpt lat="23.021781" lon="109.514465">
        <ele>65.154799</ele>
        <time>2026-08-15T05:45:34.000Z</time>
      </trkpt>
      <trkpt lat="23.021779" lon="109.514521">
        <ele>65.174305</ele>
        <time>2026-08-15T05:45:35.000Z</time>
      </trkpt>
      <trkpt lat="23.021777" lon="109.514576">
        <ele>65.193463</ele>
        <time>2026-08-15T05:45:36.000Z</time>
      </trkpt>
      <trkpt lat="23.021775" lon="109.514633">
        <ele>65.213316</ele>
        <time>2026-08-15T05:45:37.000Z</time>
      </trkpt>
      <trkpt lat="23.021774" lon="109.514691">
        <ele>65.233507</ele>
        <time>2026-08-15T05:45:38.000Z</time>
      </trkpt>
      <trkpt lat="23.021773" lon="109.514747">
        <ele>65.253002</ele>
        <time>2026-08-15T05:45:39.000Z</time>
      </trkpt>
      <trkpt lat="23.021774" lon="109.514806">
        <ele>65.273541</ele>
        <time>2026-08-15T05:45:40.000Z</time>
      </trkpt>
      <trkpt lat="23.021774" lon="109.514864">
        <ele>65.293728</ele>
        <time>2026-08-15T05:45:41.000Z</time>
      </trkpt>
      <trkpt lat="23.021774" lon="109.514923">
        <ele>65.314263</ele>
        <time>2026-08-15T05:45:42.000Z</time>
      </trkpt>
      <trkpt lat="23.021773" lon="109.514980">
        <ele>65.334106</ele>
        <time>2026-08-15T05:45:43.000Z</time>
      </trkpt>
      <trkpt lat="23.021773" lon="109.515039">
        <ele>65.354641</ele>
        <time>2026-08-15T05:45:44.000Z</time>
      </trkpt>
      <trkpt lat="23.021773" lon="109.515097">
        <ele>65.374828</ele>
        <time>2026-08-15T05:45:45.000Z</time>
      </trkpt>
      <trkpt lat="23.021772" lon="109.515155">
        <ele>65.395019</ele>
        <time>2026-08-15T05:45:46.000Z</time>
      </trkpt>
      <trkpt lat="23.021772" lon="109.515213">
        <ele>65.415206</ele>
        <time>2026-08-15T05:45:47.000Z</time>
      </trkpt>
      <trkpt lat="23.021772" lon="109.515269">
        <ele>65.434698</ele>
        <time>2026-08-15T05:45:48.000Z</time>
      </trkpt>
      <trkpt lat="23.021773" lon="109.515325">
        <ele>65.454192</ele>
        <time>2026-08-15T05:45:49.000Z</time>
      </trkpt>
      <trkpt lat="23.021774" lon="109.515381">
        <ele>65.473687</ele>
        <time>2026-08-15T05:45:50.000Z</time>
      </trkpt>
      <trkpt lat="23.021777" lon="109.515437">
        <ele>65.493211</ele>
        <time>2026-08-15T05:45:51.000Z</time>
      </trkpt>
      <trkpt lat="23.021778" lon="109.515493">
        <ele>65.512706</ele>
        <time>2026-08-15T05:45:52.000Z</time>
      </trkpt>
      <trkpt lat="23.021778" lon="109.515548">
        <ele>65.531849</ele>
        <time>2026-08-15T05:45:53.000Z</time>
      </trkpt>
      <trkpt lat="23.021780" lon="109.515604">
        <ele>65.551355</ele>
        <time>2026-08-15T05:45:54.000Z</time>
      </trkpt>
      <trkpt lat="23.021782" lon="109.515659">
        <ele>65.596912</ele>
        <time>2026-08-15T05:45:55.000Z</time>
      </trkpt>
      <trkpt lat="23.021785" lon="109.515713">
        <ele>65.644262</ele>
        <time>2026-08-15T05:45:56.000Z</time>
      </trkpt>
      <trkpt lat="23.021787" lon="109.515767">
        <ele>65.691564</ele>
        <time>2026-08-15T05:45:57.000Z</time>
      </trkpt>
      <trkpt lat="23.021789" lon="109.515819">
        <ele>65.737117</ele>
        <time>2026-08-15T05:45:58.000Z</time>
      </trkpt>
      <trkpt lat="23.021789" lon="109.515869">
        <ele>65.780880</ele>
        <time>2026-08-15T05:45:59.000Z</time>
      </trkpt>
      <trkpt lat="23.021791" lon="109.515920">
        <ele>65.825558</ele>
        <time>2026-08-15T05:46:00.000Z</time>
      </trkpt>
      <trkpt lat="23.021794" lon="109.515971">
        <ele>65.870287</ele>
        <time>2026-08-15T05:46:01.000Z</time>
      </trkpt>
      <trkpt lat="23.021796" lon="109.516021">
        <ele>65.914091</ele>
        <time>2026-08-15T05:46:02.000Z</time>
      </trkpt>
      <trkpt lat="23.021797" lon="109.516069">
        <ele>65.956114</ele>
        <time>2026-08-15T05:46:03.000Z</time>
      </trkpt>
      <trkpt lat="23.021799" lon="109.516116">
        <ele>65.997295</ele>
        <time>2026-08-15T05:46:04.000Z</time>
      </trkpt>
      <trkpt lat="23.021802" lon="109.516163">
        <ele>66.038531</ele>
        <time>2026-08-15T05:46:05.000Z</time>
      </trkpt>
      <trkpt lat="23.021806" lon="109.516209">
        <ele>66.078972</ele>
        <time>2026-08-15T05:46:06.000Z</time>
      </trkpt>
      <trkpt lat="23.021810" lon="109.516254">
        <ele>66.118542</ele>
        <time>2026-08-15T05:46:07.000Z</time>
      </trkpt>
      <trkpt lat="23.021812" lon="109.516298">
        <ele>66.157100</ele>
        <time>2026-08-15T05:46:08.000Z</time>
      </trkpt>
      <trkpt lat="23.021812" lon="109.516340">
        <ele>66.193861</ele>
        <time>2026-08-15T05:46:09.000Z</time>
      </trkpt>
      <trkpt lat="23.021813" lon="109.516383">
        <ele>66.231509</ele>
        <time>2026-08-15T05:46:10.000Z</time>
      </trkpt>
      <trkpt lat="23.021816" lon="109.516425">
        <ele>66.268380</ele>
        <time>2026-08-15T05:46:11.000Z</time>
      </trkpt>
      <trkpt lat="23.021819" lon="109.516467">
        <ele>66.305251</ele>
        <time>2026-08-15T05:46:12.000Z</time>
      </trkpt>
      <trkpt lat="23.021820" lon="109.516511">
        <ele>66.343774</ele>
        <time>2026-08-15T05:46:13.000Z</time>
      </trkpt>
      <trkpt lat="23.021821" lon="109.516556">
        <ele>66.383172</ele>
        <time>2026-08-15T05:46:14.000Z</time>
      </trkpt>
      <trkpt lat="23.021822" lon="109.516601">
        <ele>66.422570</ele>
        <time>2026-08-15T05:46:15.000Z</time>
      </trkpt>
      <trkpt lat="23.021824" lon="109.516646">
        <ele>66.462002</ele>
        <time>2026-08-15T05:46:16.000Z</time>
      </trkpt>
      <trkpt lat="23.021824" lon="109.516691">
        <ele>66.501389</ele>
        <time>2026-08-15T05:46:17.000Z</time>
      </trkpt>
      <trkpt lat="23.021825" lon="109.516737">
        <ele>66.541662</ele>
        <time>2026-08-15T05:46:18.000Z</time>
      </trkpt>
      <trkpt lat="23.021827" lon="109.516782">
        <ele>66.581094</ele>
        <time>2026-08-15T05:46:19.000Z</time>
      </trkpt>
      <trkpt lat="23.021830" lon="109.516828">
        <ele>66.621457</ele>
        <time>2026-08-15T05:46:20.000Z</time>
      </trkpt>
      <trkpt lat="23.021833" lon="109.516874">
        <ele>66.661819</ele>
        <time>2026-08-15T05:46:21.000Z</time>
      </trkpt>
      <trkpt lat="23.021836" lon="109.516920">
        <ele>66.702182</ele>
        <time>2026-08-15T05:46:22.000Z</time>
      </trkpt>
      <trkpt lat="23.021839" lon="109.516966">
        <ele>66.742545</ele>
        <time>2026-08-15T05:46:23.000Z</time>
      </trkpt>
      <trkpt lat="23.021842" lon="109.517012">
        <ele>66.782907</ele>
        <time>2026-08-15T05:46:24.000Z</time>
      </trkpt>
      <trkpt lat="23.021845" lon="109.517058">
        <ele>66.823270</ele>
        <time>2026-08-15T05:46:25.000Z</time>
      </trkpt>
      <trkpt lat="23.021847" lon="109.517103">
        <ele>66.862702</ele>
        <time>2026-08-15T05:46:26.000Z</time>
      </trkpt>
      <trkpt lat="23.021849" lon="109.517149">
        <ele>66.903009</ele>
        <time>2026-08-15T05:46:27.000Z</time>
      </trkpt>
      <trkpt lat="23.021851" lon="109.517195">
        <ele>66.943316</ele>
        <time>2026-08-15T05:46:28.000Z</time>
      </trkpt>
      <trkpt lat="23.021854" lon="109.517240">
        <ele>66.982805</ele>
        <time>2026-08-15T05:46:29.000Z</time>
      </trkpt>
      <trkpt lat="23.021857" lon="109.517286">
        <ele>67.023168</ele>
        <time>2026-08-15T05:46:30.000Z</time>
      </trkpt>
      <trkpt lat="23.021862" lon="109.517332">
        <ele>67.063709</ele>
        <time>2026-08-15T05:46:31.000Z</time>
      </trkpt>
      <trkpt lat="23.021867" lon="109.517378">
        <ele>67.104251</ele>
        <time>2026-08-15T05:46:32.000Z</time>
      </trkpt>
      <trkpt lat="23.021870" lon="109.517424">
        <ele>67.144614</ele>
        <time>2026-08-15T05:46:33.000Z</time>
      </trkpt>
      <trkpt lat="23.021874" lon="109.517471">
        <ele>67.185926</ele>
        <time>2026-08-15T05:46:34.000Z</time>
      </trkpt>
      <trkpt lat="23.021879" lon="109.517518">
        <ele>67.227337</ele>
        <time>2026-08-15T05:46:35.000Z</time>
      </trkpt>
      <trkpt lat="23.021883" lon="109.517564">
        <ele>67.263894</ele>
        <time>2026-08-15T05:46:36.000Z</time>
      </trkpt>
      <trkpt lat="23.021887" lon="109.517610">
        <ele>67.266866</ele>
        <time>2026-08-15T05:46:37.000Z</time>
      </trkpt>
      <trkpt lat="23.021891" lon="109.517657">
        <ele>67.269902</ele>
        <time>2026-08-15T05:46:38.000Z</time>
      </trkpt>
      <trkpt lat="23.021896" lon="109.517705">
        <ele>67.273009</ele>
        <time>2026-08-15T05:46:39.000Z</time>
      </trkpt>
      <trkpt lat="23.021900" lon="109.517753">
        <ele>67.276108</ele>
        <time>2026-08-15T05:46:40.000Z</time>
      </trkpt>
      <trkpt lat="23.021904" lon="109.517800">
        <ele>67.279144</ele>
        <time>2026-08-15T05:46:41.000Z</time>
      </trkpt>
      <trkpt lat="23.021909" lon="109.517847">
        <ele>67.282187</ele>
        <time>2026-08-15T05:46:42.000Z</time>
      </trkpt>
      <trkpt lat="23.021914" lon="109.517896">
        <ele>67.285358</ele>
        <time>2026-08-15T05:46:43.000Z</time>
      </trkpt>
      <trkpt lat="23.021918" lon="109.517944">
        <ele>67.288458</ele>
        <time>2026-08-15T05:46:44.000Z</time>
      </trkpt>
      <trkpt lat="23.021923" lon="109.517992">
        <ele>67.291565</ele>
        <time>2026-08-15T05:46:45.000Z</time>
      </trkpt>
      <trkpt lat="23.021927" lon="109.518041">
        <ele>67.294729</ele>
        <time>2026-08-15T05:46:46.000Z</time>
      </trkpt>
      <trkpt lat="23.021932" lon="109.518090">
        <ele>67.297900</ele>
        <time>2026-08-15T05:46:47.000Z</time>
      </trkpt>
      <trkpt lat="23.021938" lon="109.518139">
        <ele>67.301079</ele>
        <time>2026-08-15T05:46:48.000Z</time>
      </trkpt>
      <trkpt lat="23.021942" lon="109.518188">
        <ele>67.304243</ele>
        <time>2026-08-15T05:46:49.000Z</time>
      </trkpt>
      <trkpt lat="23.021947" lon="109.518239">
        <ele>67.307541</ele>
        <time>2026-08-15T05:46:50.000Z</time>
      </trkpt>
      <trkpt lat="23.021952" lon="109.518290">
        <ele>67.310840</ele>
        <time>2026-08-15T05:46:51.000Z</time>
      </trkpt>
      <trkpt lat="23.021957" lon="109.518342">
        <ele>67.314203</ele>
        <time>2026-08-15T05:46:52.000Z</time>
      </trkpt>
      <trkpt lat="23.021963" lon="109.518392">
        <ele>67.317446</ele>
        <time>2026-08-15T05:46:53.000Z</time>
      </trkpt>
      <trkpt lat="23.021969" lon="109.518443">
        <ele>67.320753</ele>
        <time>2026-08-15T05:46:54.000Z</time>
      </trkpt>
      <trkpt lat="23.021973" lon="109.518493">
        <ele>67.323981</ele>
        <time>2026-08-15T05:46:55.000Z</time>
      </trkpt>
      <trkpt lat="23.021976" lon="109.518543">
        <ele>67.327203</ele>
        <time>2026-08-15T05:46:56.000Z</time>
      </trkpt>
      <trkpt lat="23.021979" lon="109.518592">
        <ele>67.330362</ele>
        <time>2026-08-15T05:46:57.000Z</time>
      </trkpt>
      <trkpt lat="23.021981" lon="109.518641">
        <ele>67.333517</ele>
        <time>2026-08-15T05:46:58.000Z</time>
      </trkpt>
      <trkpt lat="23.021985" lon="109.518690">
        <ele>67.336680</ele>
        <time>2026-08-15T05:46:59.000Z</time>
      </trkpt>
      <trkpt lat="23.021991" lon="109.518737">
        <ele>67.339732</ele>
        <time>2026-08-15T05:47:00.000Z</time>
      </trkpt>
      <trkpt lat="23.021996" lon="109.518785">
        <ele>67.342839</ele>
        <time>2026-08-15T05:47:01.000Z</time>
      </trkpt>
      <trkpt lat="23.021999" lon="109.518833">
        <ele>67.345934</ele>
        <time>2026-08-15T05:47:02.000Z</time>
      </trkpt>
      <trkpt lat="23.022004" lon="109.518882">
        <ele>67.349104</ele>
        <time>2026-08-15T05:47:03.000Z</time>
      </trkpt>
      <trkpt lat="23.022009" lon="109.518930">
        <ele>67.352211</ele>
        <time>2026-08-15T05:47:04.000Z</time>
      </trkpt>
      <trkpt lat="23.022015" lon="109.518979">
        <ele>67.355391</ele>
        <time>2026-08-15T05:47:05.000Z</time>
      </trkpt>
      <trkpt lat="23.022020" lon="109.519028">
        <ele>67.358561</ele>
        <time>2026-08-15T05:47:06.000Z</time>
      </trkpt>
      <trkpt lat="23.022024" lon="109.519076">
        <ele>67.361661</ele>
        <time>2026-08-15T05:47:07.000Z</time>
      </trkpt>
      <trkpt lat="23.022026" lon="109.519126">
        <ele>67.364880</ele>
        <time>2026-08-15T05:47:08.000Z</time>
      </trkpt>
      <trkpt lat="23.022028" lon="109.519175">
        <ele>67.368035</ele>
        <time>2026-08-15T05:47:09.000Z</time>
      </trkpt>
      <trkpt lat="23.022031" lon="109.519223">
        <ele>67.371129</ele>
        <time>2026-08-15T05:47:10.000Z</time>
      </trkpt>
      <trkpt lat="23.022033" lon="109.519269">
        <ele>67.374091</ele>
        <time>2026-08-15T05:47:11.000Z</time>
      </trkpt>
      <trkpt lat="23.022035" lon="109.519317">
        <ele>67.377181</ele>
        <time>2026-08-15T05:47:12.000Z</time>
      </trkpt>
      <trkpt lat="23.022037" lon="109.519366">
        <ele>67.380336</ele>
        <time>2026-08-15T05:47:13.000Z</time>
      </trkpt>
      <trkpt lat="23.022038" lon="109.519414">
        <ele>67.383424</ele>
        <time>2026-08-15T05:47:14.000Z</time>
      </trkpt>
      <trkpt lat="23.022039" lon="109.519463">
        <ele>67.386576</ele>
        <time>2026-08-15T05:47:15.000Z</time>
      </trkpt>
      <trkpt lat="23.022040" lon="109.519512">
        <ele>67.389634</ele>
        <time>2026-08-15T05:47:16.000Z</time>
      </trkpt>
      <trkpt lat="23.022042" lon="109.519562">
        <ele>67.392174</ele>
        <time>2026-08-15T05:47:17.000Z</time>
      </trkpt>
      <trkpt lat="23.022043" lon="109.519612">
        <ele>67.394712</ele>
        <time>2026-08-15T05:47:18.000Z</time>
      </trkpt>
      <trkpt lat="23.022044" lon="109.519663">
        <ele>67.397301</ele>
        <time>2026-08-15T05:47:19.000Z</time>
      </trkpt>
      <trkpt lat="23.022045" lon="109.519714">
        <ele>67.399890</ele>
        <time>2026-08-15T05:47:20.000Z</time>
      </trkpt>
      <trkpt lat="23.022048" lon="109.519765">
        <ele>67.402484</ele>
        <time>2026-08-15T05:47:21.000Z</time>
      </trkpt>
      <trkpt lat="23.022050" lon="109.519816">
        <ele>67.405074</ele>
        <time>2026-08-15T05:47:22.000Z</time>
      </trkpt>
      <trkpt lat="23.022049" lon="109.519865">
        <ele>67.407562</ele>
        <time>2026-08-15T05:47:23.000Z</time>
      </trkpt>
      <trkpt lat="23.022048" lon="109.519915">
        <ele>67.410100</ele>
        <time>2026-08-15T05:47:24.000Z</time>
      </trkpt>
      <trkpt lat="23.022048" lon="109.519968">
        <ele>67.412790</ele>
        <time>2026-08-15T05:47:25.000Z</time>
      </trkpt>
      <trkpt lat="23.022049" lon="109.520019">
        <ele>67.415379</ele>
        <time>2026-08-15T05:47:26.000Z</time>
      </trkpt>
      <trkpt lat="23.022051" lon="109.520072">
        <ele>67.418071</ele>
        <time>2026-08-15T05:47:27.000Z</time>
      </trkpt>
      <trkpt lat="23.022054" lon="109.520126">
        <ele>67.420816</ele>
        <time>2026-08-15T05:47:28.000Z</time>
      </trkpt>
      <trkpt lat="23.022058" lon="109.520179">
        <ele>67.423515</ele>
        <time>2026-08-15T05:47:29.000Z</time>
      </trkpt>
      <trkpt lat="23.022061" lon="109.520230">
        <ele>67.426109</ele>
        <time>2026-08-15T05:47:30.000Z</time>
      </trkpt>
      <trkpt lat="23.022065" lon="109.520282">
        <ele>67.428757</ele>
        <time>2026-08-15T05:47:31.000Z</time>
      </trkpt>
      <trkpt lat="23.022069" lon="109.520334">
        <ele>67.431405</ele>
        <time>2026-08-15T05:47:32.000Z</time>
      </trkpt>
      <trkpt lat="23.022072" lon="109.520386">
        <ele>67.434050</ele>
        <time>2026-08-15T05:47:33.000Z</time>
      </trkpt>
      <trkpt lat="23.022074" lon="109.520437">
        <ele>67.436640</ele>
        <time>2026-08-15T05:47:34.000Z</time>
      </trkpt>
      <trkpt lat="23.022075" lon="109.520489">
        <ele>67.439280</ele>
        <time>2026-08-15T05:47:35.000Z</time>
      </trkpt>
      <trkpt lat="23.022078" lon="109.520541">
        <ele>67.441924</ele>
        <time>2026-08-15T05:47:36.000Z</time>
      </trkpt>
      <trkpt lat="23.022080" lon="109.520592">
        <ele>67.444515</ele>
        <time>2026-08-15T05:47:37.000Z</time>
      </trkpt>
      <trkpt lat="23.022083" lon="109.520644">
        <ele>67.447159</ele>
        <time>2026-08-15T05:47:38.000Z</time>
      </trkpt>
      <trkpt lat="23.022087" lon="109.520698">
        <ele>67.449908</ele>
        <time>2026-08-15T05:47:39.000Z</time>
      </trkpt>
      <trkpt lat="23.022090" lon="109.520752">
        <ele>67.452654</ele>
        <time>2026-08-15T05:47:40.000Z</time>
      </trkpt>
      <trkpt lat="23.022092" lon="109.520805">
        <ele>67.455346</ele>
        <time>2026-08-15T05:47:41.000Z</time>
      </trkpt>
      <trkpt lat="23.022094" lon="109.520857">
        <ele>67.457987</ele>
        <time>2026-08-15T05:47:42.000Z</time>
      </trkpt>
      <trkpt lat="23.022097" lon="109.520909">
        <ele>67.460632</ele>
        <time>2026-08-15T05:47:43.000Z</time>
      </trkpt>
      <trkpt lat="23.022101" lon="109.520961">
        <ele>67.463280</ele>
        <time>2026-08-15T05:47:44.000Z</time>
      </trkpt>
      <trkpt lat="23.022104" lon="109.521012">
        <ele>67.465874</ele>
        <time>2026-08-15T05:47:45.000Z</time>
      </trkpt>
      <trkpt lat="23.022107" lon="109.521063">
        <ele>67.468467</ele>
        <time>2026-08-15T05:47:46.000Z</time>
      </trkpt>
      <trkpt lat="23.022110" lon="109.521113">
        <ele>67.471010</ele>
        <time>2026-08-15T05:47:47.000Z</time>
      </trkpt>
      <trkpt lat="23.022115" lon="109.521164">
        <ele>67.473613</ele>
        <time>2026-08-15T05:47:48.000Z</time>
      </trkpt>
      <trkpt lat="23.022118" lon="109.521216">
        <ele>67.476257</ele>
        <time>2026-08-15T05:47:49.000Z</time>
      </trkpt>
      <trkpt lat="23.022120" lon="109.521267">
        <ele>67.478848</ele>
        <time>2026-08-15T05:47:50.000Z</time>
      </trkpt>
      <trkpt lat="23.022123" lon="109.521319">
        <ele>67.481492</ele>
        <time>2026-08-15T05:47:51.000Z</time>
      </trkpt>
      <trkpt lat="23.022128" lon="109.521369">
        <ele>67.484045</ele>
        <time>2026-08-15T05:47:52.000Z</time>
      </trkpt>
      <trkpt lat="23.022132" lon="109.521419">
        <ele>67.486592</ele>
        <time>2026-08-15T05:47:53.000Z</time>
      </trkpt>
      <trkpt lat="23.022136" lon="109.521470">
        <ele>67.481598</ele>
        <time>2026-08-15T05:47:54.000Z</time>
      </trkpt>
      <trkpt lat="23.022141" lon="109.521522">
        <ele>67.456514</ele>
        <time>2026-08-15T05:47:55.000Z</time>
      </trkpt>
      <trkpt lat="23.022145" lon="109.521572">
        <ele>67.432436</ele>
        <time>2026-08-15T05:47:56.000Z</time>
      </trkpt>
      <trkpt lat="23.022150" lon="109.521621">
        <ele>67.408783</ele>
        <time>2026-08-15T05:47:57.000Z</time>
      </trkpt>
      <trkpt lat="23.022155" lon="109.521670">
        <ele>67.385131</ele>
        <time>2026-08-15T05:47:58.000Z</time>
      </trkpt>
      <trkpt lat="23.022158" lon="109.521717">
        <ele>67.362528</ele>
        <time>2026-08-15T05:47:59.000Z</time>
      </trkpt>
      <trkpt lat="23.022160" lon="109.521766">
        <ele>67.338996</ele>
        <time>2026-08-15T05:48:00.000Z</time>
      </trkpt>
      <trkpt lat="23.022164" lon="109.521815">
        <ele>67.315396</ele>
        <time>2026-08-15T05:48:01.000Z</time>
      </trkpt>
      <trkpt lat="23.022168" lon="109.521863">
        <ele>67.292273</ele>
        <time>2026-08-15T05:48:02.000Z</time>
      </trkpt>
      <trkpt lat="23.022174" lon="109.521911">
        <ele>67.269033</ele>
        <time>2026-08-15T05:48:03.000Z</time>
      </trkpt>
      <trkpt lat="23.022182" lon="109.521958">
        <ele>67.246101</ele>
        <time>2026-08-15T05:48:04.000Z</time>
      </trkpt>
      <trkpt lat="23.022187" lon="109.522006">
        <ele>67.222926</ele>
        <time>2026-08-15T05:48:05.000Z</time>
      </trkpt>
      <trkpt lat="23.022191" lon="109.522056">
        <ele>67.198847</ele>
        <time>2026-08-15T05:48:06.000Z</time>
      </trkpt>
      <trkpt lat="23.022195" lon="109.522106">
        <ele>67.174768</ele>
        <time>2026-08-15T05:48:07.000Z</time>
      </trkpt>
      <trkpt lat="23.022202" lon="109.522156">
        <ele>67.150504</ele>
        <time>2026-08-15T05:48:08.000Z</time>
      </trkpt>
      <trkpt lat="23.022206" lon="109.522205">
        <ele>67.126904</ele>
        <time>2026-08-15T05:48:09.000Z</time>
      </trkpt>
      <trkpt lat="23.022212" lon="109.522256">
        <ele>67.102237</ele>
        <time>2026-08-15T05:48:10.000Z</time>
      </trkpt>
      <trkpt lat="23.022218" lon="109.522307">
        <ele>67.077570</ele>
        <time>2026-08-15T05:48:11.000Z</time>
      </trkpt>
      <trkpt lat="23.022225" lon="109.522360">
        <ele>67.051882</ele>
        <time>2026-08-15T05:48:12.000Z</time>
      </trkpt>
      <trkpt lat="23.022230" lon="109.522412">
        <ele>67.026798</ele>
        <time>2026-08-15T05:48:13.000Z</time>
      </trkpt>
      <trkpt lat="23.022237" lon="109.522465">
        <ele>67.001110</ele>
        <time>2026-08-15T05:48:14.000Z</time>
      </trkpt>
      <trkpt lat="23.022243" lon="109.522519">
        <ele>66.975015</ele>
        <time>2026-08-15T05:48:15.000Z</time>
      </trkpt>
      <trkpt lat="23.022250" lon="109.522573">
        <ele>66.948852</ele>
        <time>2026-08-15T05:48:16.000Z</time>
      </trkpt>
      <trkpt lat="23.022258" lon="109.522628">
        <ele>66.922138</ele>
        <time>2026-08-15T05:48:17.000Z</time>
      </trkpt>
      <trkpt lat="23.022264" lon="109.522685">
        <ele>66.894613</ele>
        <time>2026-08-15T05:48:18.000Z</time>
      </trkpt>
      <trkpt lat="23.022271" lon="109.522743">
        <ele>66.866548</ele>
        <time>2026-08-15T05:48:19.000Z</time>
      </trkpt>
      <trkpt lat="23.022278" lon="109.522795">
        <ele>66.841335</ele>
        <time>2026-08-15T05:48:20.000Z</time>
      </trkpt>
      <trkpt lat="23.022286" lon="109.522849">
        <ele>66.815095</ele>
        <time>2026-08-15T05:48:21.000Z</time>
      </trkpt>
      <trkpt lat="23.022295" lon="109.522908">
        <ele>66.786402</ele>
        <time>2026-08-15T05:48:22.000Z</time>
      </trkpt>
      <trkpt lat="23.022306" lon="109.522968">
        <ele>66.757051</ele>
        <time>2026-08-15T05:48:23.000Z</time>
      </trkpt>
      <trkpt lat="23.022320" lon="109.523027">
        <ele>66.727819</ele>
        <time>2026-08-15T05:48:24.000Z</time>
      </trkpt>
      <trkpt lat="23.022334" lon="109.523088">
        <ele>66.697658</ele>
        <time>2026-08-15T05:48:25.000Z</time>
      </trkpt>
      <trkpt lat="23.022347" lon="109.523150">
        <ele>66.667150</ele>
        <time>2026-08-15T05:48:26.000Z</time>
      </trkpt>
      <trkpt lat="23.022361" lon="109.523214">
        <ele>66.635590</ele>
        <time>2026-08-15T05:48:27.000Z</time>
      </trkpt>
      <trkpt lat="23.022369" lon="109.523281">
        <ele>66.603177</ele>
        <time>2026-08-15T05:48:28.000Z</time>
      </trkpt>
      <trkpt lat="23.022381" lon="109.523347">
        <ele>66.570900</ele>
        <time>2026-08-15T05:48:29.000Z</time>
      </trkpt>
      <trkpt lat="23.022391" lon="109.523413">
        <ele>66.546302</ele>
        <time>2026-08-15T05:48:30.000Z</time>
      </trkpt>
      <trkpt lat="23.022399" lon="109.523480">
        <ele>66.534036</ele>
        <time>2026-08-15T05:48:31.000Z</time>
      </trkpt>
      <trkpt lat="23.022406" lon="109.523548">
        <ele>66.521613</ele>
        <time>2026-08-15T05:48:32.000Z</time>
      </trkpt>
      <trkpt lat="23.022415" lon="109.523615">
        <ele>66.509319</ele>
        <time>2026-08-15T05:48:33.000Z</time>
      </trkpt>
      <trkpt lat="23.022427" lon="109.523683">
        <ele>66.496748</ele>
        <time>2026-08-15T05:48:34.000Z</time>
      </trkpt>
      <trkpt lat="23.022438" lon="109.523751">
        <ele>66.484213</ele>
        <time>2026-08-15T05:48:35.000Z</time>
      </trkpt>
      <trkpt lat="23.022448" lon="109.523817">
        <ele>66.472069</ele>
        <time>2026-08-15T05:48:36.000Z</time>
      </trkpt>
      <trkpt lat="23.022456" lon="109.523884">
        <ele>66.459802</ele>
        <time>2026-08-15T05:48:37.000Z</time>
      </trkpt>
      <trkpt lat="23.022468" lon="109.523951">
        <ele>66.447410</ele>
        <time>2026-08-15T05:48:38.000Z</time>
      </trkpt>
      <trkpt lat="23.022480" lon="109.524019">
        <ele>66.434839</ele>
        <time>2026-08-15T05:48:39.000Z</time>
      </trkpt>
      <trkpt lat="23.022492" lon="109.524087">
        <ele>66.422268</ele>
        <time>2026-08-15T05:48:40.000Z</time>
      </trkpt>
      <trkpt lat="23.022501" lon="109.524155">
        <ele>66.409794</ele>
        <time>2026-08-15T05:48:41.000Z</time>
      </trkpt>
      <trkpt lat="23.022511" lon="109.524221">
        <ele>66.397650</ele>
        <time>2026-08-15T05:48:42.000Z</time>
      </trkpt>
      <trkpt lat="23.022519" lon="109.524286">
        <ele>66.385744</ele>
        <time>2026-08-15T05:48:43.000Z</time>
      </trkpt>
      <trkpt lat="23.022528" lon="109.524352">
        <ele>66.373630</ele>
        <time>2026-08-15T05:48:44.000Z</time>
      </trkpt>
      <trkpt lat="23.022535" lon="109.524416">
        <ele>66.361928</ele>
        <time>2026-08-15T05:48:45.000Z</time>
      </trkpt>
      <trkpt lat="23.022544" lon="109.524480">
        <ele>66.350174</ele>
        <time>2026-08-15T05:48:46.000Z</time>
      </trkpt>
      <trkpt lat="23.022550" lon="109.524544">
        <ele>66.338494</ele>
        <time>2026-08-15T05:48:47.000Z</time>
      </trkpt>
      <trkpt lat="23.022558" lon="109.524605">
        <ele>66.327307</ele>
        <time>2026-08-15T05:48:48.000Z</time>
      </trkpt>
      <trkpt lat="23.022569" lon="109.524665">
        <ele>66.316199</ele>
        <time>2026-08-15T05:48:49.000Z</time>
      </trkpt>
      <trkpt lat="23.022582" lon="109.524720">
        <ele>66.305889</ele>
        <time>2026-08-15T05:48:50.000Z</time>
      </trkpt>
      <trkpt lat="23.022598" lon="109.524771">
        <ele>66.296106</ele>
        <time>2026-08-15T05:48:51.000Z</time>
      </trkpt>
      <trkpt lat="23.022620" lon="109.524818">
        <ele>66.286533</ele>
        <time>2026-08-15T05:48:52.000Z</time>
      </trkpt>
      <trkpt lat="23.022644" lon="109.524864">
        <ele>66.276933</ele>
        <time>2026-08-15T05:48:53.000Z</time>
      </trkpt>
      <trkpt lat="23.022665" lon="109.524910">
        <ele>66.267610</ele>
        <time>2026-08-15T05:48:54.000Z</time>
      </trkpt>
      <trkpt lat="23.022682" lon="109.524957">
        <ele>66.258441</ele>
        <time>2026-08-15T05:48:55.000Z</time>
      </trkpt>
      <trkpt lat="23.022695" lon="109.525004">
        <ele>66.249531</ele>
        <time>2026-08-15T05:48:56.000Z</time>
      </trkpt>
      <trkpt lat="23.022705" lon="109.525049">
        <ele>66.241126</ele>
        <time>2026-08-15T05:48:57.000Z</time>
      </trkpt>
      <trkpt lat="23.022716" lon="109.525091">
        <ele>66.233198</ele>
        <time>2026-08-15T05:48:58.000Z</time>
      </trkpt>
      <trkpt lat="23.022725" lon="109.525130">
        <ele>66.225897</ele>
        <time>2026-08-15T05:48:59.000Z</time>
      </trkpt>
      <trkpt lat="23.022732" lon="109.525166">
        <ele>66.219217</ele>
        <time>2026-08-15T05:49:00.000Z</time>
      </trkpt>
      <trkpt lat="23.022737" lon="109.525195">
        <ele>66.213860</ele>
        <time>2026-08-15T05:49:01.000Z</time>
      </trkpt>
      <trkpt lat="23.022741" lon="109.525218">
        <ele>66.209610</ele>
        <time>2026-08-15T05:49:02.000Z</time>
      </trkpt>
      <trkpt lat="23.022745" lon="109.525234">
        <ele>66.206600</ele>
        <time>2026-08-15T05:49:03.000Z</time>
      </trkpt>
      <trkpt lat="23.022746" lon="109.525243">
        <ele>66.204954</ele>
        <time>2026-08-15T05:49:04.000Z</time>
      </trkpt>
      <trkpt lat="23.022747" lon="109.525243">
        <ele>66.204757</ele>
        <time>2026-08-15T05:49:05.000Z</time>
      </trkpt>
      <trkpt lat="23.022747" lon="109.525243">
        <ele>66.204757</ele>
        <time>2026-08-15T05:49:07.000Z</time>
      </trkpt>
      <trkpt lat="23.022720" lon="109.525311">
        <ele>66.190947</ele>
        <time>2026-08-15T05:50:14.000Z</time>
      </trkpt>
      <trkpt lat="23.022711" lon="109.525331">
        <ele>66.186594</ele>
        <time>2026-08-15T05:50:15.000Z</time>
      </trkpt>
      <trkpt lat="23.022706" lon="109.525355">
        <ele>66.181783</ele>
        <time>2026-08-15T05:50:16.000Z</time>
      </trkpt>
      <trkpt lat="23.022700" lon="109.525383">
        <ele>66.176161</ele>
        <time>2026-08-15T05:50:17.000Z</time>
      </trkpt>
      <trkpt lat="23.022700" lon="109.525409">
        <ele>66.171078</ele>
        <time>2026-08-15T05:50:18.000Z</time>
      </trkpt>
      <trkpt lat="23.022707" lon="109.525437">
        <ele>66.165404</ele>
        <time>2026-08-15T05:50:19.000Z</time>
      </trkpt>
      <trkpt lat="23.022714" lon="109.525472">
        <ele>66.158401</ele>
        <time>2026-08-15T05:50:20.000Z</time>
      </trkpt>
      <trkpt lat="23.022722" lon="109.525510">
        <ele>66.150779</ele>
        <time>2026-08-15T05:50:21.000Z</time>
      </trkpt>
      <trkpt lat="23.022728" lon="109.525550">
        <ele>66.142855</ele>
        <time>2026-08-15T05:50:22.000Z</time>
      </trkpt>
      <trkpt lat="23.022733" lon="109.525591">
        <ele>66.134768</ele>
        <time>2026-08-15T05:50:23.000Z</time>
      </trkpt>
      <trkpt lat="23.022739" lon="109.525633">
        <ele>66.126458</ele>
        <time>2026-08-15T05:50:24.000Z</time>
      </trkpt>
      <trkpt lat="23.022745" lon="109.525677">
        <ele>66.117760</ele>
        <time>2026-08-15T05:50:25.000Z</time>
      </trkpt>
      <trkpt lat="23.022751" lon="109.525722">
        <ele>66.108870</ele>
        <time>2026-08-15T05:50:26.000Z</time>
      </trkpt>
      <trkpt lat="23.022759" lon="109.525765">
        <ele>66.100292</ele>
        <time>2026-08-15T05:50:27.000Z</time>
      </trkpt>
      <trkpt lat="23.022764" lon="109.525808">
        <ele>66.091817</ele>
        <time>2026-08-15T05:50:28.000Z</time>
      </trkpt>
      <trkpt lat="23.022768" lon="109.525854">
        <ele>66.082783</ele>
        <time>2026-08-15T05:50:29.000Z</time>
      </trkpt>
      <trkpt lat="23.022773" lon="109.525903">
        <ele>66.073143</ele>
        <time>2026-08-15T05:50:30.000Z</time>
      </trkpt>
      <trkpt lat="23.022779" lon="109.525949">
        <ele>66.064059</ele>
        <time>2026-08-15T05:50:31.000Z</time>
      </trkpt>
      <trkpt lat="23.022784" lon="109.525997">
        <ele>66.054614</ele>
        <time>2026-08-15T05:50:32.000Z</time>
      </trkpt>
      <trkpt lat="23.022785" lon="109.526044">
        <ele>66.045421</ele>
        <time>2026-08-15T05:50:33.000Z</time>
      </trkpt>
      <trkpt lat="23.022787" lon="109.526095">
        <ele>66.035440</ele>
        <time>2026-08-15T05:50:34.000Z</time>
      </trkpt>
      <trkpt lat="23.022787" lon="109.526146">
        <ele>66.025468</ele>
        <time>2026-08-15T05:50:35.000Z</time>
      </trkpt>
      <trkpt lat="23.022788" lon="109.526196">
        <ele>66.015690</ele>
        <time>2026-08-15T05:50:36.000Z</time>
      </trkpt>
      <trkpt lat="23.022786" lon="109.526246">
        <ele>66.005904</ele>
        <time>2026-08-15T05:50:37.000Z</time>
      </trkpt>
      <trkpt lat="23.022782" lon="109.526296">
        <ele>65.996091</ele>
        <time>2026-08-15T05:50:38.000Z</time>
      </trkpt>
      <trkpt lat="23.022776" lon="109.526345">
        <ele>65.986425</ele>
        <time>2026-08-15T05:50:39.000Z</time>
      </trkpt>
      <trkpt lat="23.022769" lon="109.526394">
        <ele>65.976730</ele>
        <time>2026-08-15T05:50:40.000Z</time>
      </trkpt>
      <trkpt lat="23.022761" lon="109.526443">
        <ele>65.966999</ele>
        <time>2026-08-15T05:50:41.000Z</time>
      </trkpt>
      <trkpt lat="23.022750" lon="109.526492">
        <ele>65.957137</ele>
        <time>2026-08-15T05:50:42.000Z</time>
      </trkpt>
      <trkpt lat="23.022737" lon="109.526540">
        <ele>65.947354</ele>
        <time>2026-08-15T05:50:43.000Z</time>
      </trkpt>
      <trkpt lat="23.022722" lon="109.526589">
        <ele>65.937257</ele>
        <time>2026-08-15T05:50:44.000Z</time>
      </trkpt>
      <trkpt lat="23.022705" lon="109.526636">
        <ele>65.927383</ele>
        <time>2026-08-15T05:50:45.000Z</time>
      </trkpt>
      <trkpt lat="23.022689" lon="109.526682">
        <ele>65.917768</ele>
        <time>2026-08-15T05:50:46.000Z</time>
      </trkpt>
      <trkpt lat="23.022673" lon="109.526729">
        <ele>65.907969</ele>
        <time>2026-08-15T05:50:47.000Z</time>
      </trkpt>
      <trkpt lat="23.022658" lon="109.526775">
        <ele>65.898427</ele>
        <time>2026-08-15T05:50:48.000Z</time>
      </trkpt>
      <trkpt lat="23.022644" lon="109.526822">
        <ele>65.888768</ele>
        <time>2026-08-15T05:50:49.000Z</time>
      </trkpt>
      <trkpt lat="23.022632" lon="109.526869">
        <ele>65.879231</ele>
        <time>2026-08-15T05:50:50.000Z</time>
      </trkpt>
      <trkpt lat="23.022621" lon="109.526916">
        <ele>65.869748</ele>
        <time>2026-08-15T05:50:51.000Z</time>
      </trkpt>
      <trkpt lat="23.022608" lon="109.526961">
        <ele>65.860526</ele>
        <time>2026-08-15T05:50:52.000Z</time>
      </trkpt>
      <trkpt lat="23.022595" lon="109.527006">
        <ele>65.851304</ele>
        <time>2026-08-15T05:50:53.000Z</time>
      </trkpt>
      <trkpt lat="23.022584" lon="109.527051">
        <ele>65.842200</ele>
        <time>2026-08-15T05:50:54.000Z</time>
      </trkpt>
      <trkpt lat="23.022576" lon="109.527098">
        <ele>65.832855</ele>
        <time>2026-08-15T05:50:55.000Z</time>
      </trkpt>
      <trkpt lat="23.022569" lon="109.527143">
        <ele>65.823931</ele>
        <time>2026-08-15T05:50:56.000Z</time>
      </trkpt>
      <trkpt lat="23.022559" lon="109.527192">
        <ele>65.814117</ele>
        <time>2026-08-15T05:50:57.000Z</time>
      </trkpt>
      <trkpt lat="23.022551" lon="109.527242">
        <ele>65.829461</ele>
        <time>2026-08-15T05:50:58.000Z</time>
      </trkpt>
      <trkpt lat="23.022547" lon="109.527291">
        <ele>65.844836</ele>
        <time>2026-08-15T05:50:59.000Z</time>
      </trkpt>
      <trkpt lat="23.022545" lon="109.527342">
        <ele>65.860790</ele>
        <time>2026-08-15T05:51:00.000Z</time>
      </trkpt>
      <trkpt lat="23.022542" lon="109.527393">
        <ele>65.876762</ele>
        <time>2026-08-15T05:51:01.000Z</time>
      </trkpt>
      <trkpt lat="23.022540" lon="109.527444">
        <ele>65.892717</ele>
        <time>2026-08-15T05:51:02.000Z</time>
      </trkpt>
      <trkpt lat="23.022542" lon="109.527496">
        <ele>65.908983</ele>
        <time>2026-08-15T05:51:03.000Z</time>
      </trkpt>
      <trkpt lat="23.022547" lon="109.527548">
        <ele>65.925324</ele>
        <time>2026-08-15T05:51:04.000Z</time>
      </trkpt>
      <trkpt lat="23.022552" lon="109.527601">
        <ele>65.941976</ele>
        <time>2026-08-15T05:51:05.000Z</time>
      </trkpt>
      <trkpt lat="23.022559" lon="109.527655">
        <ele>65.959020</ele>
        <time>2026-08-15T05:51:06.000Z</time>
      </trkpt>
      <trkpt lat="23.022565" lon="109.527708">
        <ele>65.975710</ele>
        <time>2026-08-15T05:51:07.000Z</time>
      </trkpt>
      <trkpt lat="23.022572" lon="109.527762">
        <ele>65.992754</ele>
        <time>2026-08-15T05:51:08.000Z</time>
      </trkpt>
      <trkpt lat="23.022578" lon="109.527815">
        <ele>66.009444</ele>
        <time>2026-08-15T05:51:09.000Z</time>
      </trkpt>
      <trkpt lat="23.022585" lon="109.527868">
        <ele>66.026178</ele>
        <time>2026-08-15T05:51:10.000Z</time>
      </trkpt>
      <trkpt lat="23.022593" lon="109.527921">
        <ele>66.042965</ele>
        <time>2026-08-15T05:51:11.000Z</time>
      </trkpt>
      <trkpt lat="23.022601" lon="109.527973">
        <ele>66.059442</ele>
        <time>2026-08-15T05:51:12.000Z</time>
      </trkpt>
      <trkpt lat="23.022608" lon="109.528026">
        <ele>66.076177</ele>
        <time>2026-08-15T05:51:13.000Z</time>
      </trkpt>
      <trkpt lat="23.022612" lon="109.528079">
        <ele>66.092798</ele>
        <time>2026-08-15T05:51:14.000Z</time>
      </trkpt>
      <trkpt lat="23.022618" lon="109.528131">
        <ele>66.109177</ele>
        <time>2026-08-15T05:51:15.000Z</time>
      </trkpt>
      <trkpt lat="23.022626" lon="109.528183">
        <ele>66.125655</ele>
        <time>2026-08-15T05:51:16.000Z</time>
      </trkpt>
      <trkpt lat="23.022634" lon="109.528236">
        <ele>66.142441</ele>
        <time>2026-08-15T05:51:17.000Z</time>
      </trkpt>
      <trkpt lat="23.022640" lon="109.528290">
        <ele>66.159441</ele>
        <time>2026-08-15T05:51:18.000Z</time>
      </trkpt>
      <trkpt lat="23.022647" lon="109.528344">
        <ele>66.176486</ele>
        <time>2026-08-15T05:51:19.000Z</time>
      </trkpt>
      <trkpt lat="23.022655" lon="109.528399">
        <ele>66.193889</ele>
        <time>2026-08-15T05:51:20.000Z</time>
      </trkpt>
      <trkpt lat="23.022662" lon="109.528453">
        <ele>66.210933</ele>
        <time>2026-08-15T05:51:21.000Z</time>
      </trkpt>
      <trkpt lat="23.022669" lon="109.528508">
        <ele>66.228287</ele>
        <time>2026-08-15T05:51:22.000Z</time>
      </trkpt>
      <trkpt lat="23.022675" lon="109.528563">
        <ele>66.245597</ele>
        <time>2026-08-15T05:51:23.000Z</time>
      </trkpt>
      <trkpt lat="23.022681" lon="109.528617">
        <ele>66.262597</ele>
        <time>2026-08-15T05:51:24.000Z</time>
      </trkpt>
      <trkpt lat="23.022688" lon="109.528671">
        <ele>66.279641</ele>
        <time>2026-08-15T05:51:25.000Z</time>
      </trkpt>
      <trkpt lat="23.022694" lon="109.528725">
        <ele>66.296641</ele>
        <time>2026-08-15T05:51:26.000Z</time>
      </trkpt>
      <trkpt lat="23.022699" lon="109.528780">
        <ele>66.313915</ele>
        <time>2026-08-15T05:51:27.000Z</time>
      </trkpt>
      <trkpt lat="23.022706" lon="109.528834">
        <ele>66.330959</ele>
        <time>2026-08-15T05:51:28.000Z</time>
      </trkpt>
      <trkpt lat="23.022712" lon="109.528888">
        <ele>66.347959</ele>
        <time>2026-08-15T05:51:29.000Z</time>
      </trkpt>
      <trkpt lat="23.022717" lon="109.528942">
        <ele>66.364922</ele>
        <time>2026-08-15T05:51:30.000Z</time>
      </trkpt>
      <trkpt lat="23.022722" lon="109.528995">
        <ele>66.381573</ele>
        <time>2026-08-15T05:51:31.000Z</time>
      </trkpt>
      <trkpt lat="23.022729" lon="109.529048">
        <ele>66.398308</ele>
        <time>2026-08-15T05:51:32.000Z</time>
      </trkpt>
      <trkpt lat="23.022734" lon="109.529101">
        <ele>66.414960</ele>
        <time>2026-08-15T05:51:33.000Z</time>
      </trkpt>
      <trkpt lat="23.022736" lon="109.529153">
        <ele>66.430905</ele>
        <time>2026-08-15T05:51:34.000Z</time>
      </trkpt>
      <trkpt lat="23.022740" lon="109.529206">
        <ele>66.446704</ele>
        <time>2026-08-15T05:51:35.000Z</time>
      </trkpt>
      <trkpt lat="23.022743" lon="109.529258">
        <ele>66.462184</ele>
        <time>2026-08-15T05:51:36.000Z</time>
      </trkpt>
      <trkpt lat="23.022749" lon="109.529309">
        <ele>66.477459</ele>
        <time>2026-08-15T05:51:37.000Z</time>
      </trkpt>
      <trkpt lat="23.022756" lon="109.529363">
        <ele>66.493661</ele>
        <time>2026-08-15T05:51:38.000Z</time>
      </trkpt>
      <trkpt lat="23.022762" lon="109.529416">
        <ele>66.509526</ele>
        <time>2026-08-15T05:51:39.000Z</time>
      </trkpt>
      <trkpt lat="23.022769" lon="109.529469">
        <ele>66.525433</ele>
        <time>2026-08-15T05:51:40.000Z</time>
      </trkpt>
      <trkpt lat="23.022775" lon="109.529522">
        <ele>66.541298</ele>
        <time>2026-08-15T05:51:41.000Z</time>
      </trkpt>
      <trkpt lat="23.022781" lon="109.529575">
        <ele>66.557163</ele>
        <time>2026-08-15T05:51:42.000Z</time>
      </trkpt>
      <trkpt lat="23.022786" lon="109.529626">
        <ele>66.572401</ele>
        <time>2026-08-15T05:51:43.000Z</time>
      </trkpt>
      <trkpt lat="23.022791" lon="109.529678">
        <ele>66.587934</ele>
        <time>2026-08-15T05:51:44.000Z</time>
      </trkpt>
      <trkpt lat="23.022797" lon="109.529731">
        <ele>66.603799</ele>
        <time>2026-08-15T05:51:45.000Z</time>
      </trkpt>
      <trkpt lat="23.022803" lon="109.529783">
        <ele>66.619369</ele>
        <time>2026-08-15T05:51:46.000Z</time>
      </trkpt>
      <trkpt lat="23.022807" lon="109.529835">
        <ele>66.634872</ele>
        <time>2026-08-15T05:51:47.000Z</time>
      </trkpt>
      <trkpt lat="23.022811" lon="109.529887">
        <ele>66.650375</ele>
        <time>2026-08-15T05:51:48.000Z</time>
      </trkpt>
      <trkpt lat="23.022817" lon="109.529939">
        <ele>66.665945</ele>
        <time>2026-08-15T05:51:49.000Z</time>
      </trkpt>
      <trkpt lat="23.022823" lon="109.529993">
        <ele>66.682105</ele>
        <time>2026-08-15T05:51:50.000Z</time>
      </trkpt>
      <trkpt lat="23.022829" lon="109.530046">
        <ele>66.697970</ele>
        <time>2026-08-15T05:51:51.000Z</time>
      </trkpt>
      <trkpt lat="23.022833" lon="109.530100">
        <ele>66.714065</ele>
        <time>2026-08-15T05:51:52.000Z</time>
      </trkpt>
      <trkpt lat="23.022835" lon="109.530155">
        <ele>66.730418</ele>
        <time>2026-08-15T05:51:53.000Z</time>
      </trkpt>
      <trkpt lat="23.022837" lon="109.530210">
        <ele>66.746771</ele>
        <time>2026-08-15T05:51:54.000Z</time>
      </trkpt>
      <trkpt lat="23.022840" lon="109.530263">
        <ele>66.762547</ele>
        <time>2026-08-15T05:51:55.000Z</time>
      </trkpt>
      <trkpt lat="23.022845" lon="109.530315">
        <ele>66.778081</ele>
        <time>2026-08-15T05:51:56.000Z</time>
      </trkpt>
      <trkpt lat="23.022847" lon="109.530368">
        <ele>66.793840</ele>
        <time>2026-08-15T05:51:57.000Z</time>
      </trkpt>
      <trkpt lat="23.022850" lon="109.530423">
        <ele>66.810209</ele>
        <time>2026-08-15T05:51:58.000Z</time>
      </trkpt>
      <trkpt lat="23.022854" lon="109.530476">
        <ele>66.826008</ele>
        <time>2026-08-15T05:51:59.000Z</time>
      </trkpt>
      <trkpt lat="23.022859" lon="109.530531">
        <ele>66.842428</ele>
        <time>2026-08-15T05:52:00.000Z</time>
      </trkpt>
      <trkpt lat="23.022865" lon="109.530585">
        <ele>66.858588</ele>
        <time>2026-08-15T05:52:01.000Z</time>
      </trkpt>
      <trkpt lat="23.022868" lon="109.530638">
        <ele>66.874364</ele>
        <time>2026-08-15T05:52:02.000Z</time>
      </trkpt>
      <trkpt lat="23.022871" lon="109.530693">
        <ele>66.890733</ele>
        <time>2026-08-15T05:52:03.000Z</time>
      </trkpt>
      <trkpt lat="23.022874" lon="109.530748">
        <ele>66.907102</ele>
        <time>2026-08-15T05:52:04.000Z</time>
      </trkpt>
      <trkpt lat="23.022879" lon="109.530803">
        <ele>66.923522</ele>
        <time>2026-08-15T05:52:05.000Z</time>
      </trkpt>
      <trkpt lat="23.022881" lon="109.530859">
        <ele>66.940172</ele>
        <time>2026-08-15T05:52:06.000Z</time>
      </trkpt>
      <trkpt lat="23.022887" lon="109.530912">
        <ele>66.956037</ele>
        <time>2026-08-15T05:52:07.000Z</time>
      </trkpt>
      <trkpt lat="23.022892" lon="109.530965">
        <ele>66.971866</ele>
        <time>2026-08-15T05:52:08.000Z</time>
      </trkpt>
      <trkpt lat="23.022894" lon="109.531018">
        <ele>66.987625</ele>
        <time>2026-08-15T05:52:09.000Z</time>
      </trkpt>
      <trkpt lat="23.022898" lon="109.531070">
        <ele>67.003128</ele>
        <time>2026-08-15T05:52:10.000Z</time>
      </trkpt>
      <trkpt lat="23.022900" lon="109.531123">
        <ele>66.994994</ele>
        <time>2026-08-15T05:52:11.000Z</time>
      </trkpt>
      <trkpt lat="23.022903" lon="109.531177">
        <ele>66.982701</ele>
        <time>2026-08-15T05:52:12.000Z</time>
      </trkpt>
      <trkpt lat="23.022906" lon="109.531229">
        <ele>66.970861</ele>
        <time>2026-08-15T05:52:13.000Z</time>
      </trkpt>
      <trkpt lat="23.022909" lon="109.531281">
        <ele>66.959021</ele>
        <time>2026-08-15T05:52:14.000Z</time>
      </trkpt>
      <trkpt lat="23.022912" lon="109.531335">
        <ele>66.946728</ele>
        <time>2026-08-15T05:52:15.000Z</time>
      </trkpt>
      <trkpt lat="23.022914" lon="109.531388">
        <ele>66.934674</ele>
        <time>2026-08-15T05:52:16.000Z</time>
      </trkpt>
      <trkpt lat="23.022916" lon="109.531442">
        <ele>66.922393</ele>
        <time>2026-08-15T05:52:17.000Z</time>
      </trkpt>
      <trkpt lat="23.022917" lon="109.531497">
        <ele>66.909892</ele>
        <time>2026-08-15T05:52:18.000Z</time>
      </trkpt>
      <trkpt lat="23.022918" lon="109.531552">
        <ele>66.897391</ele>
        <time>2026-08-15T05:52:19.000Z</time>
      </trkpt>
      <trkpt lat="23.022921" lon="109.531608">
        <ele>66.884644</ele>
        <time>2026-08-15T05:52:20.000Z</time>
      </trkpt>
      <trkpt lat="23.022921" lon="109.531664">
        <ele>66.871918</ele>
        <time>2026-08-15T05:52:21.000Z</time>
      </trkpt>
      <trkpt lat="23.022922" lon="109.531719">
        <ele>66.859417</ele>
        <time>2026-08-15T05:52:22.000Z</time>
      </trkpt>
      <trkpt lat="23.022925" lon="109.531774">
        <ele>66.846897</ele>
        <time>2026-08-15T05:52:23.000Z</time>
      </trkpt>
      <trkpt lat="23.022928" lon="109.531830">
        <ele>66.834150</ele>
        <time>2026-08-15T05:52:24.000Z</time>
      </trkpt>
      <trkpt lat="23.022932" lon="109.531885">
        <ele>66.821613</ele>
        <time>2026-08-15T05:52:25.000Z</time>
      </trkpt>
      <trkpt lat="23.022935" lon="109.531942">
        <ele>66.808639</ele>
        <time>2026-08-15T05:52:26.000Z</time>
      </trkpt>
      <trkpt lat="23.022937" lon="109.532000">
        <ele>66.795449</ele>
        <time>2026-08-15T05:52:27.000Z</time>
      </trkpt>
      <trkpt lat="23.022938" lon="109.532059">
        <ele>66.782040</ele>
        <time>2026-08-15T05:52:28.000Z</time>
      </trkpt>
      <trkpt lat="23.022940" lon="109.532118">
        <ele>66.768623</ele>
        <time>2026-08-15T05:52:29.000Z</time>
      </trkpt>
      <trkpt lat="23.022941" lon="109.532177">
        <ele>66.755214</ele>
        <time>2026-08-15T05:52:30.000Z</time>
      </trkpt>
      <trkpt lat="23.022943" lon="109.532236">
        <ele>66.741797</ele>
        <time>2026-08-15T05:52:31.000Z</time>
      </trkpt>
      <trkpt lat="23.022946" lon="109.532296">
        <ele>66.728143</ele>
        <time>2026-08-15T05:52:32.000Z</time>
      </trkpt>
      <trkpt lat="23.022949" lon="109.532355">
        <ele>66.714715</ele>
        <time>2026-08-15T05:52:33.000Z</time>
      </trkpt>
      <trkpt lat="23.022951" lon="109.532414">
        <ele>66.701299</ele>
        <time>2026-08-15T05:52:34.000Z</time>
      </trkpt>
      <trkpt lat="23.022953" lon="109.532472">
        <ele>66.688109</ele>
        <time>2026-08-15T05:52:35.000Z</time>
      </trkpt>
      <trkpt lat="23.022953" lon="109.532531">
        <ele>66.674702</ele>
        <time>2026-08-15T05:52:36.000Z</time>
      </trkpt>
      <trkpt lat="23.022955" lon="109.532590">
        <ele>66.661286</ele>
        <time>2026-08-15T05:52:37.000Z</time>
      </trkpt>
      <trkpt lat="23.022959" lon="109.532649">
        <ele>66.647842</ele>
        <time>2026-08-15T05:52:38.000Z</time>
      </trkpt>
      <trkpt lat="23.022960" lon="109.532709">
        <ele>66.634205</ele>
        <time>2026-08-15T05:52:39.000Z</time>
      </trkpt>
      <trkpt lat="23.022961" lon="109.532769">
        <ele>66.620568</ele>
        <time>2026-08-15T05:52:40.000Z</time>
      </trkpt>
      <trkpt lat="23.022964" lon="109.532828">
        <ele>66.607141</ele>
        <time>2026-08-15T05:52:41.000Z</time>
      </trkpt>
      <trkpt lat="23.022967" lon="109.532885">
        <ele>66.594167</ele>
        <time>2026-08-15T05:52:42.000Z</time>
      </trkpt>
      <trkpt lat="23.022968" lon="109.532944">
        <ele>66.580757</ele>
        <time>2026-08-15T05:52:43.000Z</time>
      </trkpt>
      <trkpt lat="23.022972" lon="109.533002">
        <ele>66.567540</ele>
        <time>2026-08-15T05:52:44.000Z</time>
      </trkpt>
      <trkpt lat="23.022974" lon="109.533059">
        <ele>66.550250</ele>
        <time>2026-08-15T05:52:45.000Z</time>
      </trkpt>
      <trkpt lat="23.022977" lon="109.533117">
        <ele>66.528485</ele>
        <time>2026-08-15T05:52:46.000Z</time>
      </trkpt>
      <trkpt lat="23.022981" lon="109.533175">
        <ele>66.506692</ele>
        <time>2026-08-15T05:52:47.000Z</time>
      </trkpt>
      <trkpt lat="23.022984" lon="109.533232">
        <ele>66.485301</ele>
        <time>2026-08-15T05:52:48.000Z</time>
      </trkpt>
      <trkpt lat="23.022989" lon="109.533289">
        <ele>66.463847</ele>
        <time>2026-08-15T05:52:49.000Z</time>
      </trkpt>
      <trkpt lat="23.022996" lon="109.533347">
        <ele>66.441930</ele>
        <time>2026-08-15T05:52:50.000Z</time>
      </trkpt>
      <trkpt lat="23.023000" lon="109.533405">
        <ele>66.420138</ele>
        <time>2026-08-15T05:52:51.000Z</time>
      </trkpt>
      <trkpt lat="23.023003" lon="109.533463">
        <ele>66.398372</ele>
        <time>2026-08-15T05:52:52.000Z</time>
      </trkpt>
      <trkpt lat="23.023006" lon="109.533518">
        <ele>66.377729</ele>
        <time>2026-08-15T05:52:53.000Z</time>
      </trkpt>
      <trkpt lat="23.023009" lon="109.533574">
        <ele>66.356711</ele>
        <time>2026-08-15T05:52:54.000Z</time>
      </trkpt>
      <trkpt lat="23.023013" lon="109.533630">
        <ele>66.335666</ele>
        <time>2026-08-15T05:52:55.000Z</time>
      </trkpt>
      <trkpt lat="23.023016" lon="109.533685">
        <ele>66.315022</ele>
        <time>2026-08-15T05:52:56.000Z</time>
      </trkpt>
      <trkpt lat="23.023020" lon="109.533741">
        <ele>66.293977</ele>
        <time>2026-08-15T05:52:57.000Z</time>
      </trkpt>
      <trkpt lat="23.023025" lon="109.533797">
        <ele>66.272897</ele>
        <time>2026-08-15T05:52:58.000Z</time>
      </trkpt>
      <trkpt lat="23.023031" lon="109.533852">
        <ele>66.252145</ele>
        <time>2026-08-15T05:52:59.000Z</time>
      </trkpt>
      <trkpt lat="23.023037" lon="109.533908">
        <ele>66.231022</ele>
        <time>2026-08-15T05:53:00.000Z</time>
      </trkpt>
      <trkpt lat="23.023043" lon="109.533963">
        <ele>66.210270</ele>
        <time>2026-08-15T05:53:01.000Z</time>
      </trkpt>
      <trkpt lat="23.023048" lon="109.534019">
        <ele>66.189189</ele>
        <time>2026-08-15T05:53:02.000Z</time>
      </trkpt>
      <trkpt lat="23.023053" lon="109.534075">
        <ele>66.168109</ele>
        <time>2026-08-15T05:53:03.000Z</time>
      </trkpt>
      <trkpt lat="23.023057" lon="109.534131">
        <ele>66.147064</ele>
        <time>2026-08-15T05:53:04.000Z</time>
      </trkpt>
      <trkpt lat="23.023058" lon="109.534189">
        <ele>66.125329</ele>
        <time>2026-08-15T05:53:05.000Z</time>
      </trkpt>
      <trkpt lat="23.023059" lon="109.534246">
        <ele>66.103968</ele>
        <time>2026-08-15T05:53:06.000Z</time>
      </trkpt>
      <trkpt lat="23.023059" lon="109.534302">
        <ele>66.082986</ele>
        <time>2026-08-15T05:53:07.000Z</time>
      </trkpt>
      <trkpt lat="23.023060" lon="109.534359">
        <ele>66.061626</ele>
        <time>2026-08-15T05:53:08.000Z</time>
      </trkpt>
      <trkpt lat="23.023062" lon="109.534415">
        <ele>66.040628</ele>
        <time>2026-08-15T05:53:09.000Z</time>
      </trkpt>
      <trkpt lat="23.023065" lon="109.534471">
        <ele>66.019610</ele>
        <time>2026-08-15T05:53:10.000Z</time>
      </trkpt>
      <trkpt lat="23.023067" lon="109.534526">
        <ele>65.998987</ele>
        <time>2026-08-15T05:53:11.000Z</time>
      </trkpt>
      <trkpt lat="23.023069" lon="109.534582">
        <ele>65.977989</ele>
        <time>2026-08-15T05:53:12.000Z</time>
      </trkpt>
      <trkpt lat="23.023073" lon="109.534640">
        <ele>65.956197</ele>
        <time>2026-08-15T05:53:13.000Z</time>
      </trkpt>
      <trkpt lat="23.023076" lon="109.534697">
        <ele>65.934805</ele>
        <time>2026-08-15T05:53:14.000Z</time>
      </trkpt>
      <trkpt lat="23.023080" lon="109.534754">
        <ele>65.913387</ele>
        <time>2026-08-15T05:53:15.000Z</time>
      </trkpt>
      <trkpt lat="23.023086" lon="109.534812">
        <ele>65.891518</ele>
        <time>2026-08-15T05:53:16.000Z</time>
      </trkpt>
      <trkpt lat="23.023091" lon="109.534871">
        <ele>65.869319</ele>
        <time>2026-08-15T05:53:17.000Z</time>
      </trkpt>
      <trkpt lat="23.023097" lon="109.534929">
        <ele>65.847451</ele>
        <time>2026-08-15T05:53:18.000Z</time>
      </trkpt>
      <trkpt lat="23.023102" lon="109.534988">
        <ele>65.833278</ele>
        <time>2026-08-15T05:53:19.000Z</time>
      </trkpt>
      <trkpt lat="23.023108" lon="109.535046">
        <ele>65.858113</ele>
        <time>2026-08-15T05:53:20.000Z</time>
      </trkpt>
      <trkpt lat="23.023114" lon="109.535103">
        <ele>65.882524</ele>
        <time>2026-08-15T05:53:21.000Z</time>
      </trkpt>
      <trkpt lat="23.023119" lon="109.535161">
        <ele>65.907311</ele>
        <time>2026-08-15T05:53:22.000Z</time>
      </trkpt>
      <trkpt lat="23.023123" lon="109.535220">
        <ele>65.932484</ele>
        <time>2026-08-15T05:53:23.000Z</time>
      </trkpt>
      <trkpt lat="23.023124" lon="109.535276">
        <ele>65.956316</ele>
        <time>2026-08-15T05:53:24.000Z</time>
      </trkpt>
      <trkpt lat="23.023126" lon="109.535329">
        <ele>65.978887</ele>
        <time>2026-08-15T05:53:25.000Z</time>
      </trkpt>
      <trkpt lat="23.023132" lon="109.535379">
        <ele>66.000342</ele>
        <time>2026-08-15T05:53:26.000Z</time>
      </trkpt>
      <trkpt lat="23.023139" lon="109.535428">
        <ele>66.021441</ele>
        <time>2026-08-15T05:53:27.000Z</time>
      </trkpt>
      <trkpt lat="23.023145" lon="109.535477">
        <ele>66.042474</ele>
        <time>2026-08-15T05:53:28.000Z</time>
      </trkpt>
      <trkpt lat="23.023150" lon="109.535526">
        <ele>66.063452</ele>
        <time>2026-08-15T05:53:29.000Z</time>
      </trkpt>
      <trkpt lat="23.023155" lon="109.535573">
        <ele>66.083583</ele>
        <time>2026-08-15T05:53:30.000Z</time>
      </trkpt>
      <trkpt lat="23.023160" lon="109.535622">
        <ele>66.104561</ele>
        <time>2026-08-15T05:53:31.000Z</time>
      </trkpt>
      <trkpt lat="23.023166" lon="109.535670">
        <ele>66.125172</ele>
        <time>2026-08-15T05:53:32.000Z</time>
      </trkpt>
      <trkpt lat="23.023169" lon="109.535718">
        <ele>66.145643</ele>
        <time>2026-08-15T05:53:33.000Z</time>
      </trkpt>
      <trkpt lat="23.023172" lon="109.535768">
        <ele>66.166964</ele>
        <time>2026-08-15T05:53:34.000Z</time>
      </trkpt>
      <trkpt lat="23.023179" lon="109.535817">
        <ele>66.188063</ele>
        <time>2026-08-15T05:53:35.000Z</time>
      </trkpt>
      <trkpt lat="23.023183" lon="109.535865">
        <ele>66.208570</ele>
        <time>2026-08-15T05:53:36.000Z</time>
      </trkpt>
      <trkpt lat="23.023187" lon="109.535913">
        <ele>66.229078</ele>
        <time>2026-08-15T05:53:37.000Z</time>
      </trkpt>
      <trkpt lat="23.023189" lon="109.535964">
        <ele>66.250798</ele>
        <time>2026-08-15T05:53:38.000Z</time>
      </trkpt>
      <trkpt lat="23.023190" lon="109.536014">
        <ele>66.272078</ele>
        <time>2026-08-15T05:53:39.000Z</time>
      </trkpt>
      <trkpt lat="23.023192" lon="109.536063">
        <ele>66.292948</ele>
        <time>2026-08-15T05:53:40.000Z</time>
      </trkpt>
      <trkpt lat="23.023195" lon="109.536114">
        <ele>66.314693</ele>
        <time>2026-08-15T05:53:41.000Z</time>
      </trkpt>
      <trkpt lat="23.023199" lon="109.536167">
        <ele>66.337320</ele>
        <time>2026-08-15T05:53:42.000Z</time>
      </trkpt>
      <trkpt lat="23.023205" lon="109.536219">
        <ele>66.359619</ele>
        <time>2026-08-15T05:53:43.000Z</time>
      </trkpt>
      <trkpt lat="23.023208" lon="109.536272">
        <ele>66.382214</ele>
        <time>2026-08-15T05:53:44.000Z</time>
      </trkpt>
      <trkpt lat="23.023211" lon="109.536325">
        <ele>66.404808</ele>
        <time>2026-08-15T05:53:45.000Z</time>
      </trkpt>
      <trkpt lat="23.023218" lon="109.536378">
        <ele>66.427590</ele>
        <time>2026-08-15T05:53:46.000Z</time>
      </trkpt>
      <trkpt lat="23.023225" lon="109.536431">
        <ele>66.450373</ele>
        <time>2026-08-15T05:53:47.000Z</time>
      </trkpt>
      <trkpt lat="23.023230" lon="109.536485">
        <ele>66.473466</ele>
        <time>2026-08-15T05:53:48.000Z</time>
      </trkpt>
      <trkpt lat="23.023236" lon="109.536539">
        <ele>66.496610</ele>
        <time>2026-08-15T05:53:49.000Z</time>
      </trkpt>
      <trkpt lat="23.023240" lon="109.536594">
        <ele>66.520085</ele>
        <time>2026-08-15T05:53:50.000Z</time>
      </trkpt>
      <trkpt lat="23.023245" lon="109.536649">
        <ele>66.543601</ele>
        <time>2026-08-15T05:53:51.000Z</time>
      </trkpt>
      <trkpt lat="23.023249" lon="109.536704">
        <ele>66.567077</ele>
        <time>2026-08-15T05:53:52.000Z</time>
      </trkpt>
      <trkpt lat="23.023252" lon="109.536759">
        <ele>66.590520</ele>
        <time>2026-08-15T05:53:53.000Z</time>
      </trkpt>
      <trkpt lat="23.023258" lon="109.536814">
        <ele>66.614087</ele>
        <time>2026-08-15T05:53:54.000Z</time>
      </trkpt>
      <trkpt lat="23.023264" lon="109.536870">
        <ele>66.638076</ele>
        <time>2026-08-15T05:53:55.000Z</time>
      </trkpt>
      <trkpt lat="23.023269" lon="109.536925">
        <ele>66.661839</ele>
        <time>2026-08-15T05:53:56.000Z</time>
      </trkpt>
      <trkpt lat="23.023276" lon="109.536981">
        <ele>66.691694</ele>
        <time>2026-08-15T05:53:57.000Z</time>
      </trkpt>
      <trkpt lat="23.023283" lon="109.537037">
        <ele>66.721550</ele>
        <time>2026-08-15T05:53:58.000Z</time>
      </trkpt>
      <trkpt lat="23.023292" lon="109.537092">
        <ele>66.751061</ele>
        <time>2026-08-15T05:53:59.000Z</time>
      </trkpt>
      <trkpt lat="23.023301" lon="109.537147">
        <ele>66.780571</ele>
        <time>2026-08-15T05:54:00.000Z</time>
      </trkpt>
      <trkpt lat="23.023311" lon="109.537201">
        <ele>66.809670</ele>
        <time>2026-08-15T05:54:01.000Z</time>
      </trkpt>
      <trkpt lat="23.023318" lon="109.537255">
        <ele>66.838479</ele>
        <time>2026-08-15T05:54:02.000Z</time>
      </trkpt>
      <trkpt lat="23.023325" lon="109.537310">
        <ele>66.867811</ele>
        <time>2026-08-15T05:54:03.000Z</time>
      </trkpt>
      <trkpt lat="23.023330" lon="109.537363">
        <ele>66.895956</ele>
        <time>2026-08-15T05:54:04.000Z</time>
      </trkpt>
      <trkpt lat="23.023333" lon="109.537416">
        <ele>66.924008</ele>
        <time>2026-08-15T05:54:05.000Z</time>
      </trkpt>
      <trkpt lat="23.023338" lon="109.537470">
        <ele>66.952679</ele>
        <time>2026-08-15T05:54:06.000Z</time>
      </trkpt>
      <trkpt lat="23.023342" lon="109.537524">
        <ele>66.981298</ele>
        <time>2026-08-15T05:54:07.000Z</time>
      </trkpt>
      <trkpt lat="23.023349" lon="109.537577">
        <ele>67.009584</ele>
        <time>2026-08-15T05:54:08.000Z</time>
      </trkpt>
      <trkpt lat="23.023357" lon="109.537629">
        <ele>67.037435</ele>
        <time>2026-08-15T05:54:09.000Z</time>
      </trkpt>
      <trkpt lat="23.023361" lon="109.537680">
        <ele>67.064475</ele>
        <time>2026-08-15T05:54:10.000Z</time>
      </trkpt>
      <trkpt lat="23.023364" lon="109.537733">
        <ele>67.092527</ele>
        <time>2026-08-15T05:54:11.000Z</time>
      </trkpt>
      <trkpt lat="23.023366" lon="109.537788">
        <ele>67.121605</ele>
        <time>2026-08-15T05:54:12.000Z</time>
      </trkpt>
      <trkpt lat="23.023371" lon="109.537841">
        <ele>67.149750</ele>
        <time>2026-08-15T05:54:13.000Z</time>
      </trkpt>
      <trkpt lat="23.023375" lon="109.537894">
        <ele>67.177843</ele>
        <time>2026-08-15T05:54:14.000Z</time>
      </trkpt>
      <trkpt lat="23.023377" lon="109.537947">
        <ele>67.205865</ele>
        <time>2026-08-15T05:54:15.000Z</time>
      </trkpt>
      <trkpt lat="23.023380" lon="109.537999">
        <ele>67.233389</ele>
        <time>2026-08-15T05:54:16.000Z</time>
      </trkpt>
      <trkpt lat="23.023386" lon="109.538051">
        <ele>67.261075</ele>
        <time>2026-08-15T05:54:17.000Z</time>
      </trkpt>
      <trkpt lat="23.023391" lon="109.538106">
        <ele>67.290271</ele>
        <time>2026-08-15T05:54:18.000Z</time>
      </trkpt>
      <trkpt lat="23.023397" lon="109.538157">
        <ele>67.317433</ele>
        <time>2026-08-15T05:54:19.000Z</time>
      </trkpt>
      <trkpt lat="23.023405" lon="109.538211">
        <ele>67.346327</ele>
        <time>2026-08-15T05:54:20.000Z</time>
      </trkpt>
      <trkpt lat="23.023414" lon="109.538263">
        <ele>67.374279</ele>
        <time>2026-08-15T05:54:21.000Z</time>
      </trkpt>
      <trkpt lat="23.023423" lon="109.538314">
        <ele>67.401712</ele>
        <time>2026-08-15T05:54:22.000Z</time>
      </trkpt>
      <trkpt lat="23.023430" lon="109.538366">
        <ele>67.429475</ele>
        <time>2026-08-15T05:54:23.000Z</time>
      </trkpt>
      <trkpt lat="23.023437" lon="109.538420">
        <ele>67.458283</ele>
        <time>2026-08-15T05:54:24.000Z</time>
      </trkpt>
      <trkpt lat="23.023439" lon="109.538474">
        <ele>67.486833</ele>
        <time>2026-08-15T05:54:25.000Z</time>
      </trkpt>
      <trkpt lat="23.023442" lon="109.538526">
        <ele>67.514358</ele>
        <time>2026-08-15T05:54:26.000Z</time>
      </trkpt>
      <trkpt lat="23.023448" lon="109.538578">
        <ele>67.542043</ele>
        <time>2026-08-15T05:54:27.000Z</time>
      </trkpt>
      <trkpt lat="23.023454" lon="109.538630">
        <ele>67.569729</ele>
        <time>2026-08-15T05:54:28.000Z</time>
      </trkpt>
      <trkpt lat="23.023460" lon="109.538684">
        <ele>67.598463</ele>
        <time>2026-08-15T05:54:29.000Z</time>
      </trkpt>
      <trkpt lat="23.023465" lon="109.538738">
        <ele>67.627134</ele>
        <time>2026-08-15T05:54:30.000Z</time>
      </trkpt>
      <trkpt lat="23.023470" lon="109.538793">
        <ele>67.656330</ele>
        <time>2026-08-15T05:54:31.000Z</time>
      </trkpt>
      <trkpt lat="23.023476" lon="109.538847">
        <ele>67.685065</ele>
        <time>2026-08-15T05:54:32.000Z</time>
      </trkpt>
      <trkpt lat="23.023483" lon="109.538900">
        <ele>67.706547</ele>
        <time>2026-08-15T05:54:33.000Z</time>
      </trkpt>
      <trkpt lat="23.023493" lon="109.538954">
        <ele>67.725922</ele>
        <time>2026-08-15T05:54:34.000Z</time>
      </trkpt>
      <trkpt lat="23.023505" lon="109.539008">
        <ele>67.745462</ele>
        <time>2026-08-15T05:54:35.000Z</time>
      </trkpt>
      <trkpt lat="23.023516" lon="109.539062">
        <ele>67.764916</ele>
        <time>2026-08-15T05:54:36.000Z</time>
      </trkpt>
      <trkpt lat="23.023526" lon="109.539116">
        <ele>67.784291</ele>
        <time>2026-08-15T05:54:37.000Z</time>
      </trkpt>
      <trkpt lat="23.023534" lon="109.539170">
        <ele>67.803530</ele>
        <time>2026-08-15T05:54:38.000Z</time>
      </trkpt>
      <trkpt lat="23.023542" lon="109.539224">
        <ele>67.822769</ele>
        <time>2026-08-15T05:54:39.000Z</time>
      </trkpt>
      <trkpt lat="23.023548" lon="109.539280">
        <ele>67.842600</ele>
        <time>2026-08-15T05:54:40.000Z</time>
      </trkpt>
      <trkpt lat="23.023555" lon="109.539334">
        <ele>67.861782</ele>
        <time>2026-08-15T05:54:41.000Z</time>
      </trkpt>
      <trkpt lat="23.023563" lon="109.539389">
        <ele>67.881369</ele>
        <time>2026-08-15T05:54:42.000Z</time>
      </trkpt>
      <trkpt lat="23.023571" lon="109.539444">
        <ele>67.900955</ele>
        <time>2026-08-15T05:54:43.000Z</time>
      </trkpt>
      <trkpt lat="23.023580" lon="109.539500">
        <ele>67.920951</ele>
        <time>2026-08-15T05:54:44.000Z</time>
      </trkpt>
      <trkpt lat="23.023586" lon="109.539556">
        <ele>67.940782</ele>
        <time>2026-08-15T05:54:45.000Z</time>
      </trkpt>
      <trkpt lat="23.023592" lon="109.539612">
        <ele>67.960613</ele>
        <time>2026-08-15T05:54:46.000Z</time>
      </trkpt>
      <trkpt lat="23.023600" lon="109.539668">
        <ele>67.980547</ele>
        <time>2026-08-15T05:54:47.000Z</time>
      </trkpt>
      <trkpt lat="23.023607" lon="109.539723">
        <ele>68.000077</ele>
        <time>2026-08-15T05:54:48.000Z</time>
      </trkpt>
      <trkpt lat="23.023616" lon="109.539778">
        <ele>68.019727</ele>
        <time>2026-08-15T05:54:49.000Z</time>
      </trkpt>
      <trkpt lat="23.023623" lon="109.539833">
        <ele>68.039257</ele>
        <time>2026-08-15T05:54:50.000Z</time>
      </trkpt>
      <trkpt lat="23.023630" lon="109.539889">
        <ele>68.059136</ele>
        <time>2026-08-15T05:54:51.000Z</time>
      </trkpt>
      <trkpt lat="23.023638" lon="109.539944">
        <ele>68.078722</ele>
        <time>2026-08-15T05:54:52.000Z</time>
      </trkpt>
      <trkpt lat="23.023646" lon="109.539999">
        <ele>68.098308</ele>
        <time>2026-08-15T05:54:53.000Z</time>
      </trkpt>
      <trkpt lat="23.023654" lon="109.540055">
        <ele>68.118242</ele>
        <time>2026-08-15T05:54:54.000Z</time>
      </trkpt>
      <trkpt lat="23.023662" lon="109.540112">
        <ele>68.138524</ele>
        <time>2026-08-15T05:54:55.000Z</time>
      </trkpt>
      <trkpt lat="23.023670" lon="109.540169">
        <ele>68.158805</ele>
        <time>2026-08-15T05:54:56.000Z</time>
      </trkpt>
      <trkpt lat="23.023676" lon="109.540225">
        <ele>68.178636</ele>
        <time>2026-08-15T05:54:57.000Z</time>
      </trkpt>
      <trkpt lat="23.023684" lon="109.540282">
        <ele>68.198918</ele>
        <time>2026-08-15T05:54:58.000Z</time>
      </trkpt>
      <trkpt lat="23.023692" lon="109.540339">
        <ele>68.219199</ele>
        <time>2026-08-15T05:54:59.000Z</time>
      </trkpt>
      <trkpt lat="23.023699" lon="109.540397">
        <ele>68.239775</ele>
        <time>2026-08-15T05:55:00.000Z</time>
      </trkpt>
      <trkpt lat="23.023706" lon="109.540455">
        <ele>68.260351</ele>
        <time>2026-08-15T05:55:01.000Z</time>
      </trkpt>
      <trkpt lat="23.023716" lon="109.540513">
        <ele>68.281108</ele>
        <time>2026-08-15T05:55:02.000Z</time>
      </trkpt>
      <trkpt lat="23.023726" lon="109.540572">
        <ele>68.302210</ele>
        <time>2026-08-15T05:55:03.000Z</time>
      </trkpt>
      <trkpt lat="23.023734" lon="109.540630">
        <ele>68.322839</ele>
        <time>2026-08-15T05:55:04.000Z</time>
      </trkpt>
      <trkpt lat="23.023741" lon="109.540688">
        <ele>68.343415</ele>
        <time>2026-08-15T05:55:05.000Z</time>
      </trkpt>
      <trkpt lat="23.023750" lon="109.540746">
        <ele>68.364105</ele>
        <time>2026-08-15T05:55:06.000Z</time>
      </trkpt>
      <trkpt lat="23.023757" lon="109.540802">
        <ele>68.383528</ele>
        <time>2026-08-15T05:55:07.000Z</time>
      </trkpt>
      <trkpt lat="23.023763" lon="109.540858">
        <ele>68.400827</ele>
        <time>2026-08-15T05:55:08.000Z</time>
      </trkpt>
      <trkpt lat="23.023767" lon="109.540915">
        <ele>68.418367</ele>
        <time>2026-08-15T05:55:09.000Z</time>
      </trkpt>
      <trkpt lat="23.023773" lon="109.540972">
        <ele>68.435970</ele>
        <time>2026-08-15T05:55:10.000Z</time>
      </trkpt>
      <trkpt lat="23.023781" lon="109.541028">
        <ele>68.453358</ele>
        <time>2026-08-15T05:55:11.000Z</time>
      </trkpt>
      <trkpt lat="23.023790" lon="109.541083">
        <ele>68.470498</ele>
        <time>2026-08-15T05:55:12.000Z</time>
      </trkpt>
      <trkpt lat="23.023799" lon="109.541141">
        <ele>68.488545</ele>
        <time>2026-08-15T05:55:13.000Z</time>
      </trkpt>
      <trkpt lat="23.023807" lon="109.541200">
        <ele>68.506843</ele>
        <time>2026-08-15T05:55:14.000Z</time>
      </trkpt>
      <trkpt lat="23.023815" lon="109.541256">
        <ele>68.524231</ele>
        <time>2026-08-15T05:55:15.000Z</time>
      </trkpt>
      <trkpt lat="23.023825" lon="109.541311">
        <ele>68.541433</ele>
        <time>2026-08-15T05:55:16.000Z</time>
      </trkpt>
      <trkpt lat="23.023833" lon="109.541365">
        <ele>68.558215</ele>
        <time>2026-08-15T05:55:17.000Z</time>
      </trkpt>
      <trkpt lat="23.023842" lon="109.541420">
        <ele>68.575355</ele>
        <time>2026-08-15T05:55:18.000Z</time>
      </trkpt>
      <trkpt lat="23.023851" lon="109.541474">
        <ele>68.592193</ele>
        <time>2026-08-15T05:55:19.000Z</time>
      </trkpt>
      <trkpt lat="23.023856" lon="109.541530">
        <ele>68.609456</ele>
        <time>2026-08-15T05:55:20.000Z</time>
      </trkpt>
      <trkpt lat="23.023860" lon="109.541585">
        <ele>68.626384</ele>
        <time>2026-08-15T05:55:21.000Z</time>
      </trkpt>
      <trkpt lat="23.023867" lon="109.541640">
        <ele>68.643420</ele>
        <time>2026-08-15T05:55:22.000Z</time>
      </trkpt>
      <trkpt lat="23.023876" lon="109.541694">
        <ele>68.660258</ele>
        <time>2026-08-15T05:55:23.000Z</time>
      </trkpt>
      <trkpt lat="23.023884" lon="109.541749">
        <ele>68.677343</ele>
        <time>2026-08-15T05:55:24.000Z</time>
      </trkpt>
      <trkpt lat="23.023892" lon="109.541803">
        <ele>68.694125</ele>
        <time>2026-08-15T05:55:25.000Z</time>
      </trkpt>
      <trkpt lat="23.023900" lon="109.541855">
        <ele>68.710301</ele>
        <time>2026-08-15T05:55:26.000Z</time>
      </trkpt>
      <trkpt lat="23.023907" lon="109.541906">
        <ele>68.726123</ele>
        <time>2026-08-15T05:55:27.000Z</time>
      </trkpt>
      <trkpt lat="23.023915" lon="109.541959">
        <ele>68.742602</ele>
        <time>2026-08-15T05:55:28.000Z</time>
      </trkpt>
      <trkpt lat="23.023921" lon="109.542012">
        <ele>68.758986</ele>
        <time>2026-08-15T05:55:29.000Z</time>
      </trkpt>
      <trkpt lat="23.023923" lon="109.542063">
        <ele>68.774648</ele>
        <time>2026-08-15T05:55:30.000Z</time>
      </trkpt>
      <trkpt lat="23.023926" lon="109.542115">
        <ele>68.790635</ele>
        <time>2026-08-15T05:55:31.000Z</time>
      </trkpt>
      <trkpt lat="23.023928" lon="109.542168">
        <ele>68.806910</ele>
        <time>2026-08-15T05:55:32.000Z</time>
      </trkpt>
      <trkpt lat="23.023935" lon="109.542221">
        <ele>68.823339</ele>
        <time>2026-08-15T05:55:33.000Z</time>
      </trkpt>
      <trkpt lat="23.023942" lon="109.542275">
        <ele>68.840071</ele>
        <time>2026-08-15T05:55:34.000Z</time>
      </trkpt>
      <trkpt lat="23.023953" lon="109.542331">
        <ele>68.857640</ele>
        <time>2026-08-15T05:55:35.000Z</time>
      </trkpt>
      <trkpt lat="23.023961" lon="109.542385">
        <ele>68.874422</ele>
        <time>2026-08-15T05:55:36.000Z</time>
      </trkpt>
      <trkpt lat="23.023968" lon="109.542438">
        <ele>68.890850</ele>
        <time>2026-08-15T05:55:37.000Z</time>
      </trkpt>
      <trkpt lat="23.023972" lon="109.542491">
        <ele>68.907167</ele>
        <time>2026-08-15T05:55:38.000Z</time>
      </trkpt>
      <trkpt lat="23.023975" lon="109.542544">
        <ele>68.923459</ele>
        <time>2026-08-15T05:55:39.000Z</time>
      </trkpt>
      <trkpt lat="23.023982" lon="109.542599">
        <ele>68.940495</ele>
        <time>2026-08-15T05:55:40.000Z</time>
      </trkpt>
      <trkpt lat="23.023988" lon="109.542654">
        <ele>68.957489</ele>
        <time>2026-08-15T05:55:41.000Z</time>
      </trkpt>
      <trkpt lat="23.023993" lon="109.542708">
        <ele>68.974141</ele>
        <time>2026-08-15T05:55:42.000Z</time>
      </trkpt>
      <trkpt lat="23.023999" lon="109.542763">
        <ele>68.982747</ele>
        <time>2026-08-15T05:55:43.000Z</time>
      </trkpt>
      <trkpt lat="23.024005" lon="109.542818">
        <ele>68.986874</ele>
        <time>2026-08-15T05:55:44.000Z</time>
      </trkpt>
      <trkpt lat="23.024012" lon="109.542873">
        <ele>68.991011</ele>
        <time>2026-08-15T05:55:45.000Z</time>
      </trkpt>
      <trkpt lat="23.024017" lon="109.542927">
        <ele>68.995055</ele>
        <time>2026-08-15T05:55:46.000Z</time>
      </trkpt>
      <trkpt lat="23.024020" lon="109.542981">
        <ele>68.999085</ele>
        <time>2026-08-15T05:55:47.000Z</time>
      </trkpt>
      <trkpt lat="23.024023" lon="109.543037">
        <ele>69.003265</ele>
        <time>2026-08-15T05:55:48.000Z</time>
      </trkpt>
      <trkpt lat="23.024026" lon="109.543093">
        <ele>69.007445</ele>
        <time>2026-08-15T05:55:49.000Z</time>
      </trkpt>
      <trkpt lat="23.024028" lon="109.543147">
        <ele>69.011472</ele>
        <time>2026-08-15T05:55:50.000Z</time>
      </trkpt>
      <trkpt lat="23.024030" lon="109.543201">
        <ele>69.015499</ele>
        <time>2026-08-15T05:55:51.000Z</time>
      </trkpt>
      <trkpt lat="23.024032" lon="109.543256">
        <ele>69.019600</ele>
        <time>2026-08-15T05:55:52.000Z</time>
      </trkpt>
      <trkpt lat="23.024034" lon="109.543310">
        <ele>69.023627</ele>
        <time>2026-08-15T05:55:53.000Z</time>
      </trkpt>
      <trkpt lat="23.024037" lon="109.543366">
        <ele>69.027806</ele>
        <time>2026-08-15T05:55:54.000Z</time>
      </trkpt>
      <trkpt lat="23.024039" lon="109.543420">
        <ele>69.031833</ele>
        <time>2026-08-15T05:55:55.000Z</time>
      </trkpt>
      <trkpt lat="23.024040" lon="109.543475">
        <ele>69.035932</ele>
        <time>2026-08-15T05:55:56.000Z</time>
      </trkpt>
      <trkpt lat="23.024037" lon="109.543529">
        <ele>69.039963</ele>
        <time>2026-08-15T05:55:57.000Z</time>
      </trkpt>
      <trkpt lat="23.024035" lon="109.543583">
        <ele>69.043990</ele>
        <time>2026-08-15T05:55:58.000Z</time>
      </trkpt>
      <trkpt lat="23.024035" lon="109.543639">
        <ele>69.048163</ele>
        <time>2026-08-15T05:55:59.000Z</time>
      </trkpt>
      <trkpt lat="23.024037" lon="109.543694">
        <ele>69.052264</ele>
        <time>2026-08-15T05:56:00.000Z</time>
      </trkpt>
      <trkpt lat="23.024036" lon="109.543748">
        <ele>69.056288</ele>
        <time>2026-08-15T05:56:01.000Z</time>
      </trkpt>
      <trkpt lat="23.024036" lon="109.543802">
        <ele>69.060312</ele>
        <time>2026-08-15T05:56:02.000Z</time>
      </trkpt>
      <trkpt lat="23.024035" lon="109.543854">
        <ele>69.064187</ele>
        <time>2026-08-15T05:56:03.000Z</time>
      </trkpt>
      <trkpt lat="23.024033" lon="109.543908">
        <ele>69.068214</ele>
        <time>2026-08-15T05:56:04.000Z</time>
      </trkpt>
      <trkpt lat="23.024033" lon="109.543962">
        <ele>69.072238</ele>
        <time>2026-08-15T05:56:05.000Z</time>
      </trkpt>
      <trkpt lat="23.024031" lon="109.544017">
        <ele>69.076339</ele>
        <time>2026-08-15T05:56:06.000Z</time>
      </trkpt>
      <trkpt lat="23.024029" lon="109.544073">
        <ele>69.080515</ele>
        <time>2026-08-15T05:56:07.000Z</time>
      </trkpt>
      <trkpt lat="23.024025" lon="109.544129">
        <ele>69.084700</ele>
        <time>2026-08-15T05:56:08.000Z</time>
      </trkpt>
      <trkpt lat="23.024024" lon="109.544185">
        <ele>69.088873</ele>
        <time>2026-08-15T05:56:09.000Z</time>
      </trkpt>
      <trkpt lat="23.024024" lon="109.544239">
        <ele>69.092897</ele>
        <time>2026-08-15T05:56:10.000Z</time>
      </trkpt>
      <trkpt lat="23.024024" lon="109.544294">
        <ele>69.096995</ele>
        <time>2026-08-15T05:56:11.000Z</time>
      </trkpt>
      <trkpt lat="23.024025" lon="109.544350">
        <ele>69.101169</ele>
        <time>2026-08-15T05:56:12.000Z</time>
      </trkpt>
      <trkpt lat="23.024028" lon="109.544406">
        <ele>69.105348</ele>
        <time>2026-08-15T05:56:13.000Z</time>
      </trkpt>
      <trkpt lat="23.024033" lon="109.544462">
        <ele>69.109540</ele>
        <time>2026-08-15T05:56:14.000Z</time>
      </trkpt>
      <trkpt lat="23.024037" lon="109.544518">
        <ele>69.113726</ele>
        <time>2026-08-15T05:56:15.000Z</time>
      </trkpt>
      <trkpt lat="23.024043" lon="109.544573">
        <ele>69.117852</ele>
        <time>2026-08-15T05:56:16.000Z</time>
      </trkpt>
      <trkpt lat="23.024048" lon="109.544629">
        <ele>69.122045</ele>
        <time>2026-08-15T05:56:17.000Z</time>
      </trkpt>
      <trkpt lat="23.024054" lon="109.544684">
        <ele>69.121166</ele>
        <time>2026-08-15T05:56:18.000Z</time>
      </trkpt>
      <trkpt lat="23.024061" lon="109.544740">
        <ele>69.082898</ele>
        <time>2026-08-15T05:56:19.000Z</time>
      </trkpt>
      <trkpt lat="23.024065" lon="109.544794">
        <ele>69.046215</ele>
        <time>2026-08-15T05:56:20.000Z</time>
      </trkpt>
      <trkpt lat="23.024071" lon="109.544850">
        <ele>69.008040</ele>
        <time>2026-08-15T05:56:21.000Z</time>
      </trkpt>
      <trkpt lat="23.024076" lon="109.544905">
        <ele>68.970616</ele>
        <time>2026-08-15T05:56:22.000Z</time>
      </trkpt>
      <trkpt lat="23.024083" lon="109.544960">
        <ele>68.933020</ele>
        <time>2026-08-15T05:56:23.000Z</time>
      </trkpt>
      <trkpt lat="23.024088" lon="109.545014">
        <ele>68.896270</ele>
        <time>2026-08-15T05:56:24.000Z</time>
      </trkpt>
      <trkpt lat="23.024094" lon="109.545070">
        <ele>68.858095</ele>
        <time>2026-08-15T05:56:25.000Z</time>
      </trkpt>
      <trkpt lat="23.024099" lon="109.545124">
        <ele>68.821345</ele>
        <time>2026-08-15T05:56:26.000Z</time>
      </trkpt>
      <trkpt lat="23.024106" lon="109.545181">
        <ele>68.782407</ele>
        <time>2026-08-15T05:56:27.000Z</time>
      </trkpt>
      <trkpt lat="23.024117" lon="109.545239">
        <ele>68.742308</ele>
        <time>2026-08-15T05:56:28.000Z</time>
      </trkpt>
      <trkpt lat="23.024124" lon="109.545302">
        <ele>68.699339</ele>
        <time>2026-08-15T05:56:29.000Z</time>
      </trkpt>
      <trkpt lat="23.024130" lon="109.545369">
        <ele>68.653757</ele>
        <time>2026-08-15T05:56:30.000Z</time>
      </trkpt>
      <trkpt lat="23.024136" lon="109.545437">
        <ele>68.607501</ele>
        <time>2026-08-15T05:56:31.000Z</time>
      </trkpt>
      <trkpt lat="23.024142" lon="109.545505">
        <ele>68.561245</ele>
        <time>2026-08-15T05:56:32.000Z</time>
      </trkpt>
      <trkpt lat="23.024147" lon="109.545578">
        <ele>68.511678</ele>
        <time>2026-08-15T05:56:33.000Z</time>
      </trkpt>
      <trkpt lat="23.024152" lon="109.545654">
        <ele>68.460084</ele>
        <time>2026-08-15T05:56:34.000Z</time>
      </trkpt>
      <trkpt lat="23.024157" lon="109.545728">
        <ele>68.409842</ele>
        <time>2026-08-15T05:56:35.000Z</time>
      </trkpt>
      <trkpt lat="23.024159" lon="109.545801">
        <ele>68.360390</ele>
        <time>2026-08-15T05:56:36.000Z</time>
      </trkpt>
      <trkpt lat="23.024161" lon="109.545875">
        <ele>68.310260</ele>
        <time>2026-08-15T05:56:37.000Z</time>
      </trkpt>
      <trkpt lat="23.024164" lon="109.545946">
        <ele>68.262133</ele>
        <time>2026-08-15T05:56:38.000Z</time>
      </trkpt>
      <trkpt lat="23.024168" lon="109.546013">
        <ele>68.216670</ele>
        <time>2026-08-15T05:56:39.000Z</time>
      </trkpt>
      <trkpt lat="23.024173" lon="109.546078">
        <ele>68.172504</ele>
        <time>2026-08-15T05:56:40.000Z</time>
      </trkpt>
      <trkpt lat="23.024180" lon="109.546142">
        <ele>68.128862</ele>
        <time>2026-08-15T05:56:41.000Z</time>
      </trkpt>
      <trkpt lat="23.024187" lon="109.546203">
        <ele>68.087237</ele>
        <time>2026-08-15T05:56:42.000Z</time>
      </trkpt>
      <trkpt lat="23.024193" lon="109.546265">
        <ele>68.045024</ele>
        <time>2026-08-15T05:56:43.000Z</time>
      </trkpt>
      <trkpt lat="23.024200" lon="109.546327">
        <ele>68.002727</ele>
        <time>2026-08-15T05:56:44.000Z</time>
      </trkpt>
      <trkpt lat="23.024211" lon="109.546387">
        <ele>67.961301</ele>
        <time>2026-08-15T05:56:45.000Z</time>
      </trkpt>
      <trkpt lat="23.024225" lon="109.546444">
        <ele>67.921354</ele>
        <time>2026-08-15T05:56:46.000Z</time>
      </trkpt>
      <trkpt lat="23.024240" lon="109.546501">
        <ele>67.881211</ele>
        <time>2026-08-15T05:56:47.000Z</time>
      </trkpt>
      <trkpt lat="23.024257" lon="109.546556">
        <ele>67.841924</ele>
        <time>2026-08-15T05:56:48.000Z</time>
      </trkpt>
      <trkpt lat="23.024274" lon="109.546609">
        <ele>67.803919</ele>
        <time>2026-08-15T05:56:49.000Z</time>
      </trkpt>
      <trkpt lat="23.024292" lon="109.546661">
        <ele>67.822008</ele>
        <time>2026-08-15T05:56:50.000Z</time>
      </trkpt>
      <trkpt lat="23.024309" lon="109.546710">
        <ele>67.841354</ele>
        <time>2026-08-15T05:56:51.000Z</time>
      </trkpt>
      <trkpt lat="23.024327" lon="109.546755">
        <ele>67.859481</ele>
        <time>2026-08-15T05:56:52.000Z</time>
      </trkpt>
      <trkpt lat="23.024344" lon="109.546800">
        <ele>67.877452</ele>
        <time>2026-08-15T05:56:53.000Z</time>
      </trkpt>
      <trkpt lat="23.024365" lon="109.546845">
        <ele>67.896091</ele>
        <time>2026-08-15T05:56:54.000Z</time>
      </trkpt>
      <trkpt lat="23.024386" lon="109.546888">
        <ele>67.914075</ele>
        <time>2026-08-15T05:56:55.000Z</time>
      </trkpt>
      <trkpt lat="23.024406" lon="109.546929">
        <ele>67.931218</ele>
        <time>2026-08-15T05:56:56.000Z</time>
      </trkpt>
      <trkpt lat="23.024426" lon="109.546971">
        <ele>67.948689</ele>
        <time>2026-08-15T05:56:57.000Z</time>
      </trkpt>
      <trkpt lat="23.024444" lon="109.547012">
        <ele>67.965471</ele>
        <time>2026-08-15T05:56:58.000Z</time>
      </trkpt>
      <trkpt lat="23.024463" lon="109.547055">
        <ele>67.983093</ele>
        <time>2026-08-15T05:56:59.000Z</time>
      </trkpt>
      <trkpt lat="23.024485" lon="109.547096">
        <ele>68.000626</ele>
        <time>2026-08-15T05:57:00.000Z</time>
      </trkpt>
      <trkpt lat="23.024507" lon="109.547138">
        <ele>68.018480</ele>
        <time>2026-08-15T05:57:01.000Z</time>
      </trkpt>
      <trkpt lat="23.024531" lon="109.547181">
        <ele>68.037058</ele>
        <time>2026-08-15T05:57:02.000Z</time>
      </trkpt>
      <trkpt lat="23.024554" lon="109.547224">
        <ele>68.055432</ele>
        <time>2026-08-15T05:57:03.000Z</time>
      </trkpt>
      <trkpt lat="23.024576" lon="109.547268">
        <ele>68.073932</ele>
        <time>2026-08-15T05:57:04.000Z</time>
      </trkpt>
      <trkpt lat="23.024599" lon="109.547314">
        <ele>68.093272</ele>
        <time>2026-08-15T05:57:05.000Z</time>
      </trkpt>
      <trkpt lat="23.024623" lon="109.547362">
        <ele>68.113453</ele>
        <time>2026-08-15T05:57:06.000Z</time>
      </trkpt>
      <trkpt lat="23.024646" lon="109.547408">
        <ele>68.132793</ele>
        <time>2026-08-15T05:57:07.000Z</time>
      </trkpt>
      <trkpt lat="23.024669" lon="109.547455">
        <ele>68.152458</ele>
        <time>2026-08-15T05:57:08.000Z</time>
      </trkpt>
      <trkpt lat="23.024691" lon="109.547501">
        <ele>68.171610</ele>
        <time>2026-08-15T05:57:09.000Z</time>
      </trkpt>
      <trkpt lat="23.024713" lon="109.547550">
        <ele>68.191752</ele>
        <time>2026-08-15T05:57:10.000Z</time>
      </trkpt>
      <trkpt lat="23.024731" lon="109.547598">
        <ele>68.210900</ele>
        <time>2026-08-15T05:57:11.000Z</time>
      </trkpt>
      <trkpt lat="23.024747" lon="109.547647">
        <ele>68.230108</ele>
        <time>2026-08-15T05:57:12.000Z</time>
      </trkpt>
      <trkpt lat="23.024763" lon="109.547699">
        <ele>68.250364</ele>
        <time>2026-08-15T05:57:13.000Z</time>
      </trkpt>
      <trkpt lat="23.024778" lon="109.547751">
        <ele>68.270497</ele>
        <time>2026-08-15T05:57:14.000Z</time>
      </trkpt>
      <trkpt lat="23.024792" lon="109.547802">
        <ele>68.290158</ele>
        <time>2026-08-15T05:57:15.000Z</time>
      </trkpt>
      <trkpt lat="23.024806" lon="109.547853">
        <ele>68.309820</ele>
        <time>2026-08-15T05:57:16.000Z</time>
      </trkpt>
      <trkpt lat="23.024820" lon="109.547905">
        <ele>68.329836</ele>
        <time>2026-08-15T05:57:17.000Z</time>
      </trkpt>
      <trkpt lat="23.024836" lon="109.547958">
        <ele>68.350442</ele>
        <time>2026-08-15T05:57:18.000Z</time>
      </trkpt>
      <trkpt lat="23.024851" lon="109.548011">
        <ele>68.370927</ele>
        <time>2026-08-15T05:57:19.000Z</time>
      </trkpt>
      <trkpt lat="23.024867" lon="109.548064">
        <ele>68.391534</ele>
        <time>2026-08-15T05:57:20.000Z</time>
      </trkpt>
      <trkpt lat="23.024883" lon="109.548116">
        <ele>68.411790</ele>
        <time>2026-08-15T05:57:21.000Z</time>
      </trkpt>
      <trkpt lat="23.024898" lon="109.548169">
        <ele>68.432275</ele>
        <time>2026-08-15T05:57:22.000Z</time>
      </trkpt>
      <trkpt lat="23.024915" lon="109.548222">
        <ele>68.453010</ele>
        <time>2026-08-15T05:57:23.000Z</time>
      </trkpt>
      <trkpt lat="23.024930" lon="109.548275">
        <ele>68.473495</ele>
        <time>2026-08-15T05:57:24.000Z</time>
      </trkpt>
      <trkpt lat="23.024946" lon="109.548329">
        <ele>68.494453</ele>
        <time>2026-08-15T05:57:25.000Z</time>
      </trkpt>
      <trkpt lat="23.024961" lon="109.548381">
        <ele>68.514585</ele>
        <time>2026-08-15T05:57:26.000Z</time>
      </trkpt>
      <trkpt lat="23.024976" lon="109.548435">
        <ele>68.545246</ele>
        <time>2026-08-15T05:57:27.000Z</time>
      </trkpt>
      <trkpt lat="23.024990" lon="109.548488">
        <ele>68.583680</ele>
        <time>2026-08-15T05:57:28.000Z</time>
      </trkpt>
      <trkpt lat="23.025004" lon="109.548543">
        <ele>68.623456</ele>
        <time>2026-08-15T05:57:29.000Z</time>
      </trkpt>
      <trkpt lat="23.025017" lon="109.548596">
        <ele>68.661688</ele>
        <time>2026-08-15T05:57:30.000Z</time>
      </trkpt>
      <trkpt lat="23.025031" lon="109.548647">
        <ele>68.698784</ele>
        <time>2026-08-15T05:57:31.000Z</time>
      </trkpt>
      <trkpt lat="23.025043" lon="109.548696">
        <ele>68.734127</ele>
        <time>2026-08-15T05:57:32.000Z</time>
      </trkpt>
      <trkpt lat="23.025055" lon="109.548743">
        <ele>68.768124</ele>
        <time>2026-08-15T05:57:33.000Z</time>
      </trkpt>
      <trkpt lat="23.025070" lon="109.548790">
        <ele>68.802798</ele>
        <time>2026-08-15T05:57:34.000Z</time>
      </trkpt>
      <trkpt lat="23.025086" lon="109.548840">
        <ele>68.839696</ele>
        <time>2026-08-15T05:57:35.000Z</time>
      </trkpt>
      <trkpt lat="23.025101" lon="109.548890">
        <ele>68.876352</ele>
        <time>2026-08-15T05:57:36.000Z</time>
      </trkpt>
      <trkpt lat="23.025117" lon="109.548939">
        <ele>68.912593</ele>
        <time>2026-08-15T05:57:37.000Z</time>
      </trkpt>
      <trkpt lat="23.025132" lon="109.548989">
        <ele>68.949249</ele>
        <time>2026-08-15T05:57:38.000Z</time>
      </trkpt>
      <trkpt lat="23.025143" lon="109.549039">
        <ele>68.985082</ele>
        <time>2026-08-15T05:57:39.000Z</time>
      </trkpt>
      <trkpt lat="23.025153" lon="109.549087">
        <ele>69.019386</ele>
        <time>2026-08-15T05:57:40.000Z</time>
      </trkpt>
      <trkpt lat="23.025164" lon="109.549136">
        <ele>69.054541</ele>
        <time>2026-08-15T05:57:41.000Z</time>
      </trkpt>
      <trkpt lat="23.025178" lon="109.549184">
        <ele>69.089639</ele>
        <time>2026-08-15T05:57:42.000Z</time>
      </trkpt>
      <trkpt lat="23.025190" lon="109.549234">
        <ele>69.125655</ele>
        <time>2026-08-15T05:57:43.000Z</time>
      </trkpt>
      <trkpt lat="23.025206" lon="109.549284">
        <ele>69.162553</ele>
        <time>2026-08-15T05:57:44.000Z</time>
      </trkpt>
      <trkpt lat="23.025221" lon="109.549334">
        <ele>69.199209</ele>
        <time>2026-08-15T05:57:45.000Z</time>
      </trkpt>
      <trkpt lat="23.025234" lon="109.549385">
        <ele>69.236096</ele>
        <time>2026-08-15T05:57:46.000Z</time>
      </trkpt>
      <trkpt lat="23.025249" lon="109.549437">
        <ele>69.274080</ele>
        <time>2026-08-15T05:57:47.000Z</time>
      </trkpt>
      <trkpt lat="23.025264" lon="109.549490">
        <ele>69.312730</ele>
        <time>2026-08-15T05:57:48.000Z</time>
      </trkpt>
      <trkpt lat="23.025281" lon="109.549544">
        <ele>69.352510</ele>
        <time>2026-08-15T05:57:49.000Z</time>
      </trkpt>
      <trkpt lat="23.025298" lon="109.549598">
        <ele>69.392291</ele>
        <time>2026-08-15T05:57:50.000Z</time>
      </trkpt>
      <trkpt lat="23.025313" lon="109.549652">
        <ele>69.431607</ele>
        <time>2026-08-15T05:57:51.000Z</time>
      </trkpt>
      <trkpt lat="23.025328" lon="109.549706">
        <ele>69.470924</ele>
        <time>2026-08-15T05:57:52.000Z</time>
      </trkpt>
      <trkpt lat="23.025342" lon="109.549759">
        <ele>69.509358</ele>
        <time>2026-08-15T05:57:53.000Z</time>
      </trkpt>
      <trkpt lat="23.025357" lon="109.549811">
        <ele>69.547342</ele>
        <time>2026-08-15T05:57:54.000Z</time>
      </trkpt>
      <trkpt lat="23.025372" lon="109.549866">
        <ele>69.587326</ele>
        <time>2026-08-15T05:57:55.000Z</time>
      </trkpt>
      <trkpt lat="23.025388" lon="109.549921">
        <ele>69.627532</ele>
        <time>2026-08-15T05:57:56.000Z</time>
      </trkpt>
      <trkpt lat="23.025405" lon="109.549976">
        <ele>69.667972</ele>
        <time>2026-08-15T05:57:57.000Z</time>
      </trkpt>
      <trkpt lat="23.025420" lon="109.550030">
        <ele>69.707289</ele>
        <time>2026-08-15T05:57:58.000Z</time>
      </trkpt>
      <trkpt lat="23.025435" lon="109.550085">
        <ele>69.747273</ele>
        <time>2026-08-15T05:57:59.000Z</time>
      </trkpt>
      <trkpt lat="23.025449" lon="109.550139">
        <ele>69.786377</ele>
        <time>2026-08-15T05:58:00.000Z</time>
      </trkpt>
      <trkpt lat="23.025468" lon="109.550192">
        <ele>69.826023</ele>
        <time>2026-08-15T05:58:01.000Z</time>
      </trkpt>
      <trkpt lat="23.025484" lon="109.550245">
        <ele>69.864902</ele>
        <time>2026-08-15T05:58:02.000Z</time>
      </trkpt>
      <trkpt lat="23.025500" lon="109.550300">
        <ele>69.899036</ele>
        <time>2026-08-15T05:58:03.000Z</time>
      </trkpt>
      <trkpt lat="23.025515" lon="109.550353">
        <ele>69.925024</ele>
        <time>2026-08-15T05:58:04.000Z</time>
      </trkpt>
      <trkpt lat="23.025529" lon="109.550406">
        <ele>69.950868</ele>
        <time>2026-08-15T05:58:05.000Z</time>
      </trkpt>
      <trkpt lat="23.025543" lon="109.550459">
        <ele>69.976711</ele>
        <time>2026-08-15T05:58:06.000Z</time>
      </trkpt>
      <trkpt lat="23.025556" lon="109.550509">
        <ele>70.001063</ele>
        <time>2026-08-15T05:58:07.000Z</time>
      </trkpt>
      <trkpt lat="23.025569" lon="109.550559">
        <ele>70.025414</ele>
        <time>2026-08-15T05:58:08.000Z</time>
      </trkpt>
      <trkpt lat="23.025583" lon="109.550611">
        <ele>70.050807</ele>
        <time>2026-08-15T05:58:09.000Z</time>
      </trkpt>
      <trkpt lat="23.025595" lon="109.550663">
        <ele>70.075934</ele>
        <time>2026-08-15T05:58:10.000Z</time>
      </trkpt>
      <trkpt lat="23.025608" lon="109.550717">
        <ele>70.102094</ele>
        <time>2026-08-15T05:58:11.000Z</time>
      </trkpt>
      <trkpt lat="23.025622" lon="109.550770">
        <ele>70.127937</ele>
        <time>2026-08-15T05:58:12.000Z</time>
      </trkpt>
      <trkpt lat="23.025637" lon="109.550821">
        <ele>70.153031</ele>
        <time>2026-08-15T05:58:13.000Z</time>
      </trkpt>
      <trkpt lat="23.025653" lon="109.550872">
        <ele>70.178285</ele>
        <time>2026-08-15T05:58:14.000Z</time>
      </trkpt>
      <trkpt lat="23.025670" lon="109.550922">
        <ele>70.203267</ele>
        <time>2026-08-15T05:58:15.000Z</time>
      </trkpt>
      <trkpt lat="23.025685" lon="109.550971">
        <ele>70.227470</ele>
        <time>2026-08-15T05:58:16.000Z</time>
      </trkpt>
      <trkpt lat="23.025702" lon="109.551020">
        <ele>70.252013</ele>
        <time>2026-08-15T05:58:17.000Z</time>
      </trkpt>
      <trkpt lat="23.025719" lon="109.551070">
        <ele>70.276996</ele>
        <time>2026-08-15T05:58:18.000Z</time>
      </trkpt>
      <trkpt lat="23.025738" lon="109.551122">
        <ele>70.303218</ele>
        <time>2026-08-15T05:58:19.000Z</time>
      </trkpt>
      <trkpt lat="23.025757" lon="109.551172">
        <ele>70.328571</ele>
        <time>2026-08-15T05:58:20.000Z</time>
      </trkpt>
      <trkpt lat="23.025775" lon="109.551223">
        <ele>70.354172</ele>
        <time>2026-08-15T05:58:21.000Z</time>
      </trkpt>
      <trkpt lat="23.025793" lon="109.551274">
        <ele>70.379772</ele>
        <time>2026-08-15T05:58:22.000Z</time>
      </trkpt>
      <trkpt lat="23.025808" lon="109.551323">
        <ele>70.403975</ele>
        <time>2026-08-15T05:58:23.000Z</time>
      </trkpt>
      <trkpt lat="23.025824" lon="109.551371">
        <ele>70.427902</ele>
        <time>2026-08-15T05:58:24.000Z</time>
      </trkpt>
      <trkpt lat="23.025839" lon="109.551420">
        <ele>70.452105</ele>
        <time>2026-08-15T05:58:25.000Z</time>
      </trkpt>
      <trkpt lat="23.025852" lon="109.551470">
        <ele>70.476456</ele>
        <time>2026-08-15T05:58:26.000Z</time>
      </trkpt>
      <trkpt lat="23.025866" lon="109.551517">
        <ele>70.499609</ele>
        <time>2026-08-15T05:58:27.000Z</time>
      </trkpt>
      <trkpt lat="23.025880" lon="109.551566">
        <ele>70.523656</ele>
        <time>2026-08-15T05:58:28.000Z</time>
      </trkpt>
      <trkpt lat="23.025895" lon="109.551612">
        <ele>70.546529</ele>
        <time>2026-08-15T05:58:29.000Z</time>
      </trkpt>
      <trkpt lat="23.025908" lon="109.551657">
        <ele>70.568634</ele>
        <time>2026-08-15T05:58:30.000Z</time>
      </trkpt>
      <trkpt lat="23.025925" lon="109.551701">
        <ele>70.591000</ele>
        <time>2026-08-15T05:58:31.000Z</time>
      </trkpt>
      <trkpt lat="23.025942" lon="109.551748">
        <ele>70.614669</ele>
        <time>2026-08-15T05:58:32.000Z</time>
      </trkpt>
      <trkpt lat="23.025961" lon="109.551796">
        <ele>70.639158</ele>
        <time>2026-08-15T05:58:33.000Z</time>
      </trkpt>
      <trkpt lat="23.025981" lon="109.551843">
        <ele>70.663427</ele>
        <time>2026-08-15T05:58:34.000Z</time>
      </trkpt>
      <trkpt lat="23.026001" lon="109.551893">
        <ele>70.688979</ele>
        <time>2026-08-15T05:58:35.000Z</time>
      </trkpt>
      <trkpt lat="23.026022" lon="109.551945">
        <ele>70.715594</ele>
        <time>2026-08-15T05:58:36.000Z</time>
      </trkpt>
      <trkpt lat="23.026044" lon="109.551998">
        <ele>70.742844</ele>
        <time>2026-08-15T05:58:37.000Z</time>
      </trkpt>
      <trkpt lat="23.026066" lon="109.552052">
        <ele>70.770522</ele>
        <time>2026-08-15T05:58:38.000Z</time>
      </trkpt>
      <trkpt lat="23.026088" lon="109.552103">
        <ele>70.796920</ele>
        <time>2026-08-15T05:58:39.000Z</time>
      </trkpt>
      <trkpt lat="23.026109" lon="109.552155">
        <ele>70.764356</ele>
        <time>2026-08-15T05:58:40.000Z</time>
      </trkpt>
      <trkpt lat="23.026132" lon="109.552208">
        <ele>70.714377</ele>
        <time>2026-08-15T05:58:41.000Z</time>
      </trkpt>
      <trkpt lat="23.026153" lon="109.552265">
        <ele>70.662010</ele>
        <time>2026-08-15T05:58:42.000Z</time>
      </trkpt>
      <trkpt lat="23.026173" lon="109.552322">
        <ele>70.609979</ele>
        <time>2026-08-15T05:58:43.000Z</time>
      </trkpt>
      <trkpt lat="23.026195" lon="109.552379">
        <ele>70.557260</ele>
        <time>2026-08-15T05:58:44.000Z</time>
      </trkpt>
      <trkpt lat="23.026218" lon="109.552438">
        <ele>70.502609</ele>
        <time>2026-08-15T05:58:45.000Z</time>
      </trkpt>
      <trkpt lat="23.026240" lon="109.552496">
        <ele>70.449103</ele>
        <time>2026-08-15T05:58:46.000Z</time>
      </trkpt>
      <trkpt lat="23.026262" lon="109.552553">
        <ele>70.396384</ele>
        <time>2026-08-15T05:58:47.000Z</time>
      </trkpt>
      <trkpt lat="23.026283" lon="109.552609">
        <ele>70.344807</ele>
        <time>2026-08-15T05:58:48.000Z</time>
      </trkpt>
      <trkpt lat="23.026306" lon="109.552667">
        <ele>70.290941</ele>
        <time>2026-08-15T05:58:49.000Z</time>
      </trkpt>
      <trkpt lat="23.026329" lon="109.552722">
        <ele>70.239414</ele>
        <time>2026-08-15T05:58:50.000Z</time>
      </trkpt>
      <trkpt lat="23.026352" lon="109.552780">
        <ele>70.185548</ele>
        <time>2026-08-15T05:58:51.000Z</time>
      </trkpt>
      <trkpt lat="23.026376" lon="109.552836">
        <ele>70.132859</ele>
        <time>2026-08-15T05:58:52.000Z</time>
      </trkpt>
      <trkpt lat="23.026400" lon="109.552892">
        <ele>70.080171</ele>
        <time>2026-08-15T05:58:53.000Z</time>
      </trkpt>
      <trkpt lat="23.026423" lon="109.552949">
        <ele>70.027086</ele>
        <time>2026-08-15T05:58:54.000Z</time>
      </trkpt>
      <trkpt lat="23.026445" lon="109.553007">
        <ele>69.973580</ele>
        <time>2026-08-15T05:58:55.000Z</time>
      </trkpt>
      <trkpt lat="23.026467" lon="109.553063">
        <ele>69.921646</ele>
        <time>2026-08-15T05:58:56.000Z</time>
      </trkpt>
      <trkpt lat="23.026488" lon="109.553119">
        <ele>69.870070</ele>
        <time>2026-08-15T05:58:57.000Z</time>
      </trkpt>
      <trkpt lat="23.026506" lon="109.553176">
        <ele>69.818671</ele>
        <time>2026-08-15T05:58:58.000Z</time>
      </trkpt>
      <trkpt lat="23.026525" lon="109.553234">
        <ele>69.766161</ele>
        <time>2026-08-15T05:58:59.000Z</time>
      </trkpt>
      <trkpt lat="23.026545" lon="109.553293">
        <ele>69.712533</ele>
        <time>2026-08-15T05:59:00.000Z</time>
      </trkpt>
      <trkpt lat="23.026565" lon="109.553350">
        <ele>69.660503</ele>
        <time>2026-08-15T05:59:01.000Z</time>
      </trkpt>
      <trkpt lat="23.026583" lon="109.553408">
        <ele>69.608297</ele>
        <time>2026-08-15T05:59:02.000Z</time>
      </trkpt>
      <trkpt lat="23.026601" lon="109.553467">
        <ele>69.555282</ele>
        <time>2026-08-15T05:59:03.000Z</time>
      </trkpt>
      <trkpt lat="23.026620" lon="109.553526">
        <ele>69.501967</ele>
        <time>2026-08-15T05:59:04.000Z</time>
      </trkpt>
      <trkpt lat="23.026636" lon="109.553585">
        <ele>69.449506</ele>
        <time>2026-08-15T05:59:05.000Z</time>
      </trkpt>
      <trkpt lat="23.026654" lon="109.553645">
        <ele>69.395680</ele>
        <time>2026-08-15T05:59:06.000Z</time>
      </trkpt>
      <trkpt lat="23.026673" lon="109.553705">
        <ele>69.341560</ele>
        <time>2026-08-15T05:59:07.000Z</time>
      </trkpt>
      <trkpt lat="23.026692" lon="109.553764">
        <ele>69.288246</ele>
        <time>2026-08-15T05:59:08.000Z</time>
      </trkpt>
      <trkpt lat="23.026711" lon="109.553822">
        <ele>69.235736</ele>
        <time>2026-08-15T05:59:09.000Z</time>
      </trkpt>
      <trkpt lat="23.026728" lon="109.553880">
        <ele>69.183818</ele>
        <time>2026-08-15T05:59:10.000Z</time>
      </trkpt>
      <trkpt lat="23.026747" lon="109.553941">
        <ele>69.132791</ele>
        <time>2026-08-15T05:59:11.000Z</time>
      </trkpt>
      <trkpt lat="23.026765" lon="109.554001">
        <ele>69.110117</ele>
        <time>2026-08-15T05:59:12.000Z</time>
      </trkpt>
      <trkpt lat="23.026783" lon="109.554062">
        <ele>69.087101</ele>
        <time>2026-08-15T05:59:13.000Z</time>
      </trkpt>
      <trkpt lat="23.026802" lon="109.554122">
        <ele>69.064302</ele>
        <time>2026-08-15T05:59:14.000Z</time>
      </trkpt>
      <trkpt lat="23.026821" lon="109.554183">
        <ele>69.041164</ele>
        <time>2026-08-15T05:59:15.000Z</time>
      </trkpt>
      <trkpt lat="23.026841" lon="109.554243">
        <ele>69.018236</ele>
        <time>2026-08-15T05:59:16.000Z</time>
      </trkpt>
      <trkpt lat="23.026860" lon="109.554302">
        <ele>68.995777</ele>
        <time>2026-08-15T05:59:17.000Z</time>
      </trkpt>
      <trkpt lat="23.026880" lon="109.554364">
        <ele>68.972172</ele>
        <time>2026-08-15T05:59:18.000Z</time>
      </trkpt>
      <trkpt lat="23.026897" lon="109.554426">
        <ele>68.948928</ele>
        <time>2026-08-15T05:59:19.000Z</time>
      </trkpt>
      <trkpt lat="23.026915" lon="109.554486">
        <ele>68.926253</ele>
        <time>2026-08-15T05:59:20.000Z</time>
      </trkpt>
      <trkpt lat="23.026934" lon="109.554545">
        <ele>68.903794</ele>
        <time>2026-08-15T05:59:21.000Z</time>
      </trkpt>
      <trkpt lat="23.026952" lon="109.554604">
        <ele>68.881462</ele>
        <time>2026-08-15T05:59:22.000Z</time>
      </trkpt>
      <trkpt lat="23.026970" lon="109.554663">
        <ele>68.859129</ele>
        <time>2026-08-15T05:59:23.000Z</time>
      </trkpt>
      <trkpt lat="23.026988" lon="109.554722">
        <ele>68.836796</ele>
        <time>2026-08-15T05:59:24.000Z</time>
      </trkpt>
      <trkpt lat="23.027007" lon="109.554779">
        <ele>68.815014</ele>
        <time>2026-08-15T05:59:25.000Z</time>
      </trkpt>
      <trkpt lat="23.027027" lon="109.554834">
        <ele>68.793766</ele>
        <time>2026-08-15T05:59:26.000Z</time>
      </trkpt>
      <trkpt lat="23.027049" lon="109.554889">
        <ele>68.772219</ele>
        <time>2026-08-15T05:59:27.000Z</time>
      </trkpt>
      <trkpt lat="23.027073" lon="109.554944">
        <ele>68.750349</ele>
        <time>2026-08-15T05:59:28.000Z</time>
      </trkpt>
      <trkpt lat="23.027098" lon="109.554998">
        <ele>68.728630</ele>
        <time>2026-08-15T05:59:29.000Z</time>
      </trkpt>
      <trkpt lat="23.027123" lon="109.555052">
        <ele>68.706911</ele>
        <time>2026-08-15T05:59:30.000Z</time>
      </trkpt>
      <trkpt lat="23.027147" lon="109.555107">
        <ele>68.685041</ele>
        <time>2026-08-15T05:59:31.000Z</time>
      </trkpt>
      <trkpt lat="23.027174" lon="109.555162">
        <ele>68.662644</ele>
        <time>2026-08-15T05:59:32.000Z</time>
      </trkpt>
      <trkpt lat="23.027201" lon="109.555215">
        <ele>68.640879</ele>
        <time>2026-08-15T05:59:33.000Z</time>
      </trkpt>
      <trkpt lat="23.027229" lon="109.555268">
        <ele>68.618922</ele>
        <time>2026-08-15T05:59:34.000Z</time>
      </trkpt>
      <trkpt lat="23.027257" lon="109.555320">
        <ele>68.597275</ele>
        <time>2026-08-15T05:59:35.000Z</time>
      </trkpt>
      <trkpt lat="23.027286" lon="109.555371">
        <ele>68.575736</ele>
        <time>2026-08-15T05:59:36.000Z</time>
      </trkpt>
      <trkpt lat="23.027315" lon="109.555422">
        <ele>68.554196</ele>
        <time>2026-08-15T05:59:37.000Z</time>
      </trkpt>
      <trkpt lat="23.027343" lon="109.555473">
        <ele>68.532859</ele>
        <time>2026-08-15T05:59:38.000Z</time>
      </trkpt>
      <trkpt lat="23.027370" lon="109.555524">
        <ele>68.511719</ele>
        <time>2026-08-15T05:59:39.000Z</time>
      </trkpt>
      <trkpt lat="23.027397" lon="109.555575">
        <ele>68.490580</ele>
        <time>2026-08-15T05:59:40.000Z</time>
      </trkpt>
      <trkpt lat="23.027423" lon="109.555628">
        <ele>68.469001</ele>
        <time>2026-08-15T05:59:41.000Z</time>
      </trkpt>
      <trkpt lat="23.027451" lon="109.555680">
        <ele>68.447354</ele>
        <time>2026-08-15T05:59:42.000Z</time>
      </trkpt>
      <trkpt lat="23.027476" lon="109.555731">
        <ele>68.440393</ele>
        <time>2026-08-15T05:59:43.000Z</time>
      </trkpt>
      <trkpt lat="23.027503" lon="109.555780">
        <ele>68.461279</ele>
        <time>2026-08-15T05:59:44.000Z</time>
      </trkpt>
      <trkpt lat="23.027530" lon="109.555830">
        <ele>68.482479</ele>
        <time>2026-08-15T05:59:45.000Z</time>
      </trkpt>
      <trkpt lat="23.027558" lon="109.555881">
        <ele>68.504196</ele>
        <time>2026-08-15T05:59:46.000Z</time>
      </trkpt>
      <trkpt lat="23.027584" lon="109.555931">
        <ele>68.525198</ele>
        <time>2026-08-15T05:59:47.000Z</time>
      </trkpt>
      <trkpt lat="23.027610" lon="109.555979">
        <ele>68.545567</ele>
        <time>2026-08-15T05:59:48.000Z</time>
      </trkpt>
      <trkpt lat="23.027635" lon="109.556026">
        <ele>68.565419</ele>
        <time>2026-08-15T05:59:49.000Z</time>
      </trkpt>
      <trkpt lat="23.027661" lon="109.556071">
        <ele>68.584850</ele>
        <time>2026-08-15T05:59:50.000Z</time>
      </trkpt>
      <trkpt lat="23.027685" lon="109.556116">
        <ele>68.603870</ele>
        <time>2026-08-15T05:59:51.000Z</time>
      </trkpt>
      <trkpt lat="23.027710" lon="109.556161">
        <ele>68.623092</ele>
        <time>2026-08-15T05:59:52.000Z</time>
      </trkpt>
      <trkpt lat="23.027734" lon="109.556205">
        <ele>68.641797</ele>
        <time>2026-08-15T05:59:53.000Z</time>
      </trkpt>
      <trkpt lat="23.027758" lon="109.556249">
        <ele>68.660502</ele>
        <time>2026-08-15T05:59:54.000Z</time>
      </trkpt>
      <trkpt lat="23.027783" lon="109.556292">
        <ele>68.679102</ele>
        <time>2026-08-15T05:59:55.000Z</time>
      </trkpt>
      <trkpt lat="23.027806" lon="109.556338">
        <ele>68.698247</ele>
        <time>2026-08-15T05:59:56.000Z</time>
      </trkpt>
      <trkpt lat="23.027830" lon="109.556382">
        <ele>68.716951</ele>
        <time>2026-08-15T05:59:57.000Z</time>
      </trkpt>
      <trkpt lat="23.027854" lon="109.556425">
        <ele>68.735342</ele>
        <time>2026-08-15T05:59:58.000Z</time>
      </trkpt>
      <trkpt lat="23.027878" lon="109.556468">
        <ele>68.753733</ele>
        <time>2026-08-15T05:59:59.000Z</time>
      </trkpt>
      <trkpt lat="23.027903" lon="109.556514">
        <ele>68.773270</ele>
        <time>2026-08-15T06:00:00.000Z</time>
      </trkpt>
      <trkpt lat="23.027926" lon="109.556559">
        <ele>68.792094</ele>
        <time>2026-08-15T06:00:01.000Z</time>
      </trkpt>
      <trkpt lat="23.027950" lon="109.556604">
        <ele>68.811114</ele>
        <time>2026-08-15T06:00:02.000Z</time>
      </trkpt>
      <trkpt lat="23.027974" lon="109.556649">
        <ele>68.830134</ele>
        <time>2026-08-15T06:00:03.000Z</time>
      </trkpt>
      <trkpt lat="23.027998" lon="109.556696">
        <ele>68.849790</ele>
        <time>2026-08-15T06:00:04.000Z</time>
      </trkpt>
      <trkpt lat="23.028023" lon="109.556742">
        <ele>68.869327</ele>
        <time>2026-08-15T06:00:05.000Z</time>
      </trkpt>
      <trkpt lat="23.028050" lon="109.556788">
        <ele>68.889279</ele>
        <time>2026-08-15T06:00:06.000Z</time>
      </trkpt>
      <trkpt lat="23.028076" lon="109.556834">
        <ele>68.909021</ele>
        <time>2026-08-15T06:00:07.000Z</time>
      </trkpt>
      <trkpt lat="23.028102" lon="109.556881">
        <ele>68.929075</ele>
        <time>2026-08-15T06:00:08.000Z</time>
      </trkpt>
      <trkpt lat="23.028127" lon="109.556927">
        <ele>68.948611</ele>
        <time>2026-08-15T06:00:09.000Z</time>
      </trkpt>
      <trkpt lat="23.028153" lon="109.556973">
        <ele>68.968353</ele>
        <time>2026-08-15T06:00:10.000Z</time>
      </trkpt>
      <trkpt lat="23.028178" lon="109.557018">
        <ele>68.987575</ele>
        <time>2026-08-15T06:00:11.000Z</time>
      </trkpt>
      <trkpt lat="23.028199" lon="109.557066">
        <ele>69.007011</ele>
        <time>2026-08-15T06:00:12.000Z</time>
      </trkpt>
      <trkpt lat="23.028223" lon="109.557113">
        <ele>69.026668</ele>
        <time>2026-08-15T06:00:13.000Z</time>
      </trkpt>
      <trkpt lat="23.028250" lon="109.557157">
        <ele>69.046007</ele>
        <time>2026-08-15T06:00:14.000Z</time>
      </trkpt>
      <trkpt lat="23.028279" lon="109.557202">
        <ele>69.066097</ele>
        <time>2026-08-15T06:00:15.000Z</time>
      </trkpt>
      <trkpt lat="23.028309" lon="109.557248">
        <ele>69.086715</ele>
        <time>2026-08-15T06:00:16.000Z</time>
      </trkpt>
      <trkpt lat="23.028338" lon="109.557293">
        <ele>69.106805</ele>
        <time>2026-08-15T06:00:17.000Z</time>
      </trkpt>
      <trkpt lat="23.028368" lon="109.557338">
        <ele>69.127126</ele>
        <time>2026-08-15T06:00:18.000Z</time>
      </trkpt>
      <trkpt lat="23.028399" lon="109.557381">
        <ele>69.147101</ele>
        <time>2026-08-15T06:00:19.000Z</time>
      </trkpt>
      <trkpt lat="23.028432" lon="109.557422">
        <ele>69.126139</ele>
        <time>2026-08-15T06:00:20.000Z</time>
      </trkpt>
      <trkpt lat="23.028466" lon="109.557462">
        <ele>69.102913</ele>
        <time>2026-08-15T06:00:21.000Z</time>
      </trkpt>
      <trkpt lat="23.028503" lon="109.557504">
        <ele>69.078113</ele>
        <time>2026-08-15T06:00:22.000Z</time>
      </trkpt>
      <trkpt lat="23.028538" lon="109.557546">
        <ele>69.053945</ele>
        <time>2026-08-15T06:00:23.000Z</time>
      </trkpt>
      <trkpt lat="23.028569" lon="109.557590">
        <ele>69.030309</ele>
        <time>2026-08-15T06:00:24.000Z</time>
      </trkpt>
      <trkpt lat="23.028602" lon="109.557630">
        <ele>69.007395</ele>
        <time>2026-08-15T06:00:25.000Z</time>
      </trkpt>
      <trkpt lat="23.028631" lon="109.557671">
        <ele>68.985339</ele>
        <time>2026-08-15T06:00:26.000Z</time>
      </trkpt>
      <trkpt lat="23.028657" lon="109.557713">
        <ele>68.963748</ele>
        <time>2026-08-15T06:00:27.000Z</time>
      </trkpt>
      <trkpt lat="23.028686" lon="109.557755">
        <ele>68.941351</ele>
        <time>2026-08-15T06:00:28.000Z</time>
      </trkpt>
      <trkpt lat="23.028714" lon="109.557798">
        <ele>68.918883</ele>
        <time>2026-08-15T06:00:29.000Z</time>
      </trkpt>
      <trkpt lat="23.028744" lon="109.557842">
        <ele>68.895526</ele>
        <time>2026-08-15T06:00:30.000Z</time>
      </trkpt>
      <trkpt lat="23.028774" lon="109.557885">
        <ele>68.872510</ele>
        <time>2026-08-15T06:00:31.000Z</time>
      </trkpt>
      <trkpt lat="23.028806" lon="109.557927">
        <ele>68.849252</ele>
        <time>2026-08-15T06:00:32.000Z</time>
      </trkpt>
      <trkpt lat="23.028841" lon="109.557970">
        <ele>68.824766</ele>
        <time>2026-08-15T06:00:33.000Z</time>
      </trkpt>
      <trkpt lat="23.028874" lon="109.558015">
        <ele>68.800223</ele>
        <time>2026-08-15T06:00:34.000Z</time>
      </trkpt>
      <trkpt lat="23.028910" lon="109.558062">
        <ele>68.774140</ele>
        <time>2026-08-15T06:00:35.000Z</time>
      </trkpt>
      <trkpt lat="23.028941" lon="109.558107">
        <ele>68.750164</ele>
        <time>2026-08-15T06:00:36.000Z</time>
      </trkpt>
      <trkpt lat="23.028979" lon="109.558148">
        <ele>68.725344</ele>
        <time>2026-08-15T06:00:37.000Z</time>
      </trkpt>
      <trkpt lat="23.029017" lon="109.558190">
        <ele>68.700222</ele>
        <time>2026-08-15T06:00:38.000Z</time>
      </trkpt>
      <trkpt lat="23.029053" lon="109.558234">
        <ele>68.675109</ele>
        <time>2026-08-15T06:00:39.000Z</time>
      </trkpt>
      <trkpt lat="23.029088" lon="109.558277">
        <ele>68.650623</ele>
        <time>2026-08-15T06:00:40.000Z</time>
      </trkpt>
      <trkpt lat="23.029123" lon="109.558321">
        <ele>68.625816</ele>
        <time>2026-08-15T06:00:41.000Z</time>
      </trkpt>
      <trkpt lat="23.029159" lon="109.558365">
        <ele>68.600704</ele>
        <time>2026-08-15T06:00:42.000Z</time>
      </trkpt>
      <trkpt lat="23.029194" lon="109.558409">
        <ele>68.575897</ele>
        <time>2026-08-15T06:00:43.000Z</time>
      </trkpt>
      <trkpt lat="23.029229" lon="109.558455">
        <ele>68.550439</ele>
        <time>2026-08-15T06:00:44.000Z</time>
      </trkpt>
      <trkpt lat="23.029265" lon="109.558498">
        <ele>68.525643</ele>
        <time>2026-08-15T06:00:45.000Z</time>
      </trkpt>
      <trkpt lat="23.029299" lon="109.558537">
        <ele>68.502729</ele>
        <time>2026-08-15T06:00:46.000Z</time>
      </trkpt>
      <trkpt lat="23.029334" lon="109.558578">
        <ele>68.478876</ele>
        <time>2026-08-15T06:00:47.000Z</time>
      </trkpt>
      <trkpt lat="23.029367" lon="109.558620">
        <ele>68.455320</ele>
        <time>2026-08-15T06:00:48.000Z</time>
      </trkpt>
      <trkpt lat="23.029401" lon="109.558661">
        <ele>68.431779</ele>
        <time>2026-08-15T06:00:49.000Z</time>
      </trkpt>
      <trkpt lat="23.029434" lon="109.558704">
        <ele>68.407898</ele>
        <time>2026-08-15T06:00:50.000Z</time>
      </trkpt>
      <trkpt lat="23.029468" lon="109.558747">
        <ele>68.383716</ele>
        <time>2026-08-15T06:00:51.000Z</time>
      </trkpt>
      <trkpt lat="23.029501" lon="109.558790">
        <ele>68.359835</ele>
        <time>2026-08-15T06:00:52.000Z</time>
      </trkpt>
      <trkpt lat="23.029534" lon="109.558834">
        <ele>68.335624</ele>
        <time>2026-08-15T06:00:53.000Z</time>
      </trkpt>
      <trkpt lat="23.029566" lon="109.558877">
        <ele>68.311783</ele>
        <time>2026-08-15T06:00:54.000Z</time>
      </trkpt>
      <trkpt lat="23.029600" lon="109.558920">
        <ele>68.285129</ele>
        <time>2026-08-15T06:00:55.000Z</time>
      </trkpt>
      <trkpt lat="23.029632" lon="109.558963">
        <ele>68.259129</ele>
        <time>2026-08-15T06:00:56.000Z</time>
      </trkpt>
      <trkpt lat="23.029663" lon="109.559004">
        <ele>68.234181</ele>
        <time>2026-08-15T06:00:57.000Z</time>
      </trkpt>
      <trkpt lat="23.029696" lon="109.559044">
        <ele>68.208924</ele>
        <time>2026-08-15T06:00:58.000Z</time>
      </trkpt>
      <trkpt lat="23.029730" lon="109.559088">
        <ele>68.181912</ele>
        <time>2026-08-15T06:00:59.000Z</time>
      </trkpt>
      <trkpt lat="23.029763" lon="109.559135">
        <ele>68.154117</ele>
        <time>2026-08-15T06:01:00.000Z</time>
      </trkpt>
      <trkpt lat="23.029796" lon="109.559179">
        <ele>68.127431</ele>
        <time>2026-08-15T06:01:01.000Z</time>
      </trkpt>
      <trkpt lat="23.029828" lon="109.559224">
        <ele>68.100693</ele>
        <time>2026-08-15T06:01:02.000Z</time>
      </trkpt>
      <trkpt lat="23.029861" lon="109.559270">
        <ele>68.073271</ele>
        <time>2026-08-15T06:01:03.000Z</time>
      </trkpt>
      <trkpt lat="23.029894" lon="109.559316">
        <ele>68.045849</ele>
        <time>2026-08-15T06:01:04.000Z</time>
      </trkpt>
      <trkpt lat="23.029925" lon="109.559365">
        <ele>68.017893</ele>
        <time>2026-08-15T06:01:05.000Z</time>
      </trkpt>
      <trkpt lat="23.029956" lon="109.559413">
        <ele>67.990322</ele>
        <time>2026-08-15T06:01:06.000Z</time>
      </trkpt>
      <trkpt lat="23.029986" lon="109.559458">
        <ele>67.964197</ele>
        <time>2026-08-15T06:01:07.000Z</time>
      </trkpt>
      <trkpt lat="23.030013" lon="109.559502">
        <ele>67.939333</ele>
        <time>2026-08-15T06:01:08.000Z</time>
      </trkpt>
      <trkpt lat="23.030039" lon="109.559546">
        <ele>67.914749</ele>
        <time>2026-08-15T06:01:09.000Z</time>
      </trkpt>
      <trkpt lat="23.030065" lon="109.559591">
        <ele>67.889768</ele>
        <time>2026-08-15T06:01:10.000Z</time>
      </trkpt>
      <trkpt lat="23.030091" lon="109.559637">
        <ele>67.864387</ele>
        <time>2026-08-15T06:01:11.000Z</time>
      </trkpt>
      <trkpt lat="23.030118" lon="109.559685">
        <ele>67.837938</ele>
        <time>2026-08-15T06:01:12.000Z</time>
      </trkpt>
      <trkpt lat="23.030145" lon="109.559732">
        <ele>67.811888</ele>
        <time>2026-08-15T06:01:13.000Z</time>
      </trkpt>
      <trkpt lat="23.030173" lon="109.559780">
        <ele>67.785169</ele>
        <time>2026-08-15T06:01:14.000Z</time>
      </trkpt>
      <trkpt lat="23.030201" lon="109.559828">
        <ele>67.758450</ele>
        <time>2026-08-15T06:01:15.000Z</time>
      </trkpt>
      <trkpt lat="23.030230" lon="109.559878">
        <ele>67.730663</ele>
        <time>2026-08-15T06:01:16.000Z</time>
      </trkpt>
      <trkpt lat="23.030259" lon="109.559928">
        <ele>67.702876</ele>
        <time>2026-08-15T06:01:17.000Z</time>
      </trkpt>
      <trkpt lat="23.030290" lon="109.559981">
        <ele>67.673350</ele>
        <time>2026-08-15T06:01:18.000Z</time>
      </trkpt>
      <trkpt lat="23.030317" lon="109.560028">
        <ele>67.647301</ele>
        <time>2026-08-15T06:01:19.000Z</time>
      </trkpt>
      <trkpt lat="23.030345" lon="109.560081">
        <ele>67.618568</ele>
        <time>2026-08-15T06:01:20.000Z</time>
      </trkpt>
      <trkpt lat="23.030376" lon="109.560136">
        <ele>67.588245</ele>
        <time>2026-08-15T06:01:21.000Z</time>
      </trkpt>
      <trkpt lat="23.030404" lon="109.560191">
        <ele>67.558694</ele>
        <time>2026-08-15T06:01:22.000Z</time>
      </trkpt>
      <trkpt lat="23.030434" lon="109.560247">
        <ele>67.528229</ele>
        <time>2026-08-15T06:01:23.000Z</time>
      </trkpt>
      <trkpt lat="23.030463" lon="109.560304">
        <ele>67.497607</ele>
        <time>2026-08-15T06:01:24.000Z</time>
      </trkpt>
      <trkpt lat="23.030493" lon="109.560358">
        <ele>67.467951</ele>
        <time>2026-08-15T06:01:25.000Z</time>
      </trkpt>
      <trkpt lat="23.030524" lon="109.560412">
        <ele>67.438028</ele>
        <time>2026-08-15T06:01:26.000Z</time>
      </trkpt>
      <trkpt lat="23.030554" lon="109.560463">
        <ele>67.409570</ele>
        <time>2026-08-15T06:01:27.000Z</time>
      </trkpt>
      <trkpt lat="23.030585" lon="109.560516">
        <ele>67.377853</ele>
        <time>2026-08-15T06:01:28.000Z</time>
      </trkpt>
      <trkpt lat="23.030619" lon="109.560569">
        <ele>67.343206</ele>
        <time>2026-08-15T06:01:29.000Z</time>
      </trkpt>
      <trkpt lat="23.030656" lon="109.560617">
        <ele>67.309627</ele>
        <time>2026-08-15T06:01:30.000Z</time>
      </trkpt>
      <trkpt lat="23.030698" lon="109.560663">
        <ele>67.274877</ele>
        <time>2026-08-15T06:01:31.000Z</time>
      </trkpt>
      <trkpt lat="23.030742" lon="109.560708">
        <ele>67.239665</ele>
        <time>2026-08-15T06:01:32.000Z</time>
      </trkpt>
      <trkpt lat="23.030784" lon="109.560753">
        <ele>67.205294</ele>
        <time>2026-08-15T06:01:33.000Z</time>
      </trkpt>
      <trkpt lat="23.030827" lon="109.560802">
        <ele>67.168983</ele>
        <time>2026-08-15T06:01:34.000Z</time>
      </trkpt>
      <trkpt lat="23.030872" lon="109.560851">
        <ele>67.131859</ele>
        <time>2026-08-15T06:01:35.000Z</time>
      </trkpt>
      <trkpt lat="23.030919" lon="109.560894">
        <ele>67.096056</ele>
        <time>2026-08-15T06:01:36.000Z</time>
      </trkpt>
      <trkpt lat="23.030965" lon="109.560935">
        <ele>67.061386</ele>
        <time>2026-08-15T06:01:37.000Z</time>
      </trkpt>
      <trkpt lat="23.031012" lon="109.560972">
        <ele>67.027564</ele>
        <time>2026-08-15T06:01:38.000Z</time>
      </trkpt>
      <trkpt lat="23.031063" lon="109.561010">
        <ele>66.991529</ele>
        <time>2026-08-15T06:01:39.000Z</time>
      </trkpt>
      <trkpt lat="23.031116" lon="109.561042">
        <ele>66.956196</ele>
        <time>2026-08-15T06:01:40.000Z</time>
      </trkpt>
      <trkpt lat="23.031172" lon="109.561064">
        <ele>66.921496</ele>
        <time>2026-08-15T06:01:41.000Z</time>
      </trkpt>
      <trkpt lat="23.031232" lon="109.561079">
        <ele>66.885618</ele>
        <time>2026-08-15T06:01:42.000Z</time>
      </trkpt>
      <trkpt lat="23.031281" lon="109.561103">
        <ele>66.854298</ele>
        <time>2026-08-15T06:01:43.000Z</time>
      </trkpt>
      <trkpt lat="23.031329" lon="109.561127">
        <ele>66.823507</ele>
        <time>2026-08-15T06:01:44.000Z</time>
      </trkpt>
      <trkpt lat="23.031376" lon="109.561151">
        <ele>66.793245</ele>
        <time>2026-08-15T06:01:45.000Z</time>
      </trkpt>
      <trkpt lat="23.031421" lon="109.561174">
        <ele>66.764266</ele>
        <time>2026-08-15T06:01:46.000Z</time>
      </trkpt>
      <trkpt lat="23.031466" lon="109.561194">
        <ele>66.735934</ele>
        <time>2026-08-15T06:01:47.000Z</time>
      </trkpt>
      <trkpt lat="23.031510" lon="109.561215">
        <ele>66.707929</ele>
        <time>2026-08-15T06:01:48.000Z</time>
      </trkpt>
      <trkpt lat="23.031557" lon="109.561235">
        <ele>66.678515</ele>
        <time>2026-08-15T06:01:49.000Z</time>
      </trkpt>
      <trkpt lat="23.031601" lon="109.561257">
        <ele>66.650291</ele>
        <time>2026-08-15T06:01:50.000Z</time>
      </trkpt>
      <trkpt lat="23.031642" lon="109.561282">
        <ele>66.622894</ele>
        <time>2026-08-15T06:01:51.000Z</time>
      </trkpt>
      <trkpt lat="23.031685" lon="109.561306">
        <ele>66.594724</ele>
        <time>2026-08-15T06:01:52.000Z</time>
      </trkpt>
      <trkpt lat="23.031728" lon="109.561331">
        <ele>66.566305</ele>
        <time>2026-08-15T06:01:53.000Z</time>
      </trkpt>
      <trkpt lat="23.031774" lon="109.561355">
        <ele>66.536570</ele>
        <time>2026-08-15T06:01:54.000Z</time>
      </trkpt>
      <trkpt lat="23.031823" lon="109.561379">
        <ele>66.505249</ele>
        <time>2026-08-15T06:01:55.000Z</time>
      </trkpt>
      <trkpt lat="23.031874" lon="109.561402">
        <ele>66.473071</ele>
        <time>2026-08-15T06:01:56.000Z</time>
      </trkpt>
      <trkpt lat="23.031921" lon="109.561429">
        <ele>66.442091</ele>
        <time>2026-08-15T06:01:57.000Z</time>
      </trkpt>
      <trkpt lat="23.031968" lon="109.561455">
        <ele>66.411357</ele>
        <time>2026-08-15T06:01:58.000Z</time>
      </trkpt>
      <trkpt lat="23.032017" lon="109.561482">
        <ele>66.379342</ele>
        <time>2026-08-15T06:01:59.000Z</time>
      </trkpt>
      <trkpt lat="23.032068" lon="109.561505">
        <ele>66.346841</ele>
        <time>2026-08-15T06:02:00.000Z</time>
      </trkpt>
      <trkpt lat="23.032117" lon="109.561528">
        <ele>66.285085</ele>
        <time>2026-08-15T06:02:01.000Z</time>
      </trkpt>
      <trkpt lat="23.032166" lon="109.561552">
        <ele>66.222899</ele>
        <time>2026-08-15T06:02:02.000Z</time>
      </trkpt>
      <trkpt lat="23.032214" lon="109.561577">
        <ele>66.161314</ele>
        <time>2026-08-15T06:02:03.000Z</time>
      </trkpt>
      <trkpt lat="23.032266" lon="109.561600">
        <ele>66.096358</ele>
        <time>2026-08-15T06:02:04.000Z</time>
      </trkpt>
      <trkpt lat="23.032315" lon="109.561621">
        <ele>66.035415</ele>
        <time>2026-08-15T06:02:05.000Z</time>
      </trkpt>
      <trkpt lat="23.032366" lon="109.561637">
        <ele>65.973999</ele>
        <time>2026-08-15T06:02:06.000Z</time>
      </trkpt>
      <trkpt lat="23.032418" lon="109.561656">
        <ele>65.910525</ele>
        <time>2026-08-15T06:02:07.000Z</time>
      </trkpt>
      <trkpt lat="23.032469" lon="109.561676">
        <ele>65.847794</ele>
        <time>2026-08-15T06:02:08.000Z</time>
      </trkpt>
      <trkpt lat="23.032519" lon="109.561702">
        <ele>65.783662</ele>
        <time>2026-08-15T06:02:09.000Z</time>
      </trkpt>
      <trkpt lat="23.032570" lon="109.561727">
        <ele>65.718929</ele>
        <time>2026-08-15T06:02:10.000Z</time>
      </trkpt>
      <trkpt lat="23.032622" lon="109.561744">
        <ele>65.656102</ele>
        <time>2026-08-15T06:02:11.000Z</time>
      </trkpt>
      <trkpt lat="23.032677" lon="109.561759">
        <ele>65.590494</ele>
        <time>2026-08-15T06:02:12.000Z</time>
      </trkpt>
      <trkpt lat="23.032732" lon="109.561775">
        <ele>65.524619</ele>
        <time>2026-08-15T06:02:13.000Z</time>
      </trkpt>
      <trkpt lat="23.032788" lon="109.561792">
        <ele>65.457347</ele>
        <time>2026-08-15T06:02:14.000Z</time>
      </trkpt>
      <trkpt lat="23.032845" lon="109.561808">
        <ele>65.389233</ele>
        <time>2026-08-15T06:02:15.000Z</time>
      </trkpt>
      <trkpt lat="23.032904" lon="109.561823">
        <ele>65.319128</ele>
        <time>2026-08-15T06:02:16.000Z</time>
      </trkpt>
      <trkpt lat="23.032963" lon="109.561839">
        <ele>65.248772</ele>
        <time>2026-08-15T06:02:17.000Z</time>
      </trkpt>
      <trkpt lat="23.033020" lon="109.561857">
        <ele>65.180095</ele>
        <time>2026-08-15T06:02:18.000Z</time>
      </trkpt>
      <trkpt lat="23.033078" lon="109.561874">
        <ele>65.110592</ele>
        <time>2026-08-15T06:02:19.000Z</time>
      </trkpt>
      <trkpt lat="23.033137" lon="109.561890">
        <ele>65.040236</ele>
        <time>2026-08-15T06:02:20.000Z</time>
      </trkpt>
      <trkpt lat="23.033199" lon="109.561906">
        <ele>64.966507</ele>
        <time>2026-08-15T06:02:21.000Z</time>
      </trkpt>
      <trkpt lat="23.033264" lon="109.561921">
        <ele>64.889626</ele>
        <time>2026-08-15T06:02:22.000Z</time>
      </trkpt>
      <trkpt lat="23.033328" lon="109.561936">
        <ele>64.813876</ele>
        <time>2026-08-15T06:02:23.000Z</time>
      </trkpt>
      <trkpt lat="23.033392" lon="109.561951">
        <ele>64.738126</ele>
        <time>2026-08-15T06:02:24.000Z</time>
      </trkpt>
      <trkpt lat="23.033455" lon="109.561966">
        <ele>64.663507</ele>
        <time>2026-08-15T06:02:25.000Z</time>
      </trkpt>
      <trkpt lat="23.033515" lon="109.561989">
        <ele>64.589895</ele>
        <time>2026-08-15T06:02:26.000Z</time>
      </trkpt>
      <trkpt lat="23.033576" lon="109.562007">
        <ele>64.516762</ele>
        <time>2026-08-15T06:02:27.000Z</time>
      </trkpt>
      <trkpt lat="23.033638" lon="109.562023">
        <ele>64.443034</ele>
        <time>2026-08-15T06:02:28.000Z</time>
      </trkpt>
      <trkpt lat="23.033699" lon="109.562041">
        <ele>64.369902</ele>
        <time>2026-08-15T06:02:29.000Z</time>
      </trkpt>
      <trkpt lat="23.033759" lon="109.562057">
        <ele>64.298423</ele>
        <time>2026-08-15T06:02:30.000Z</time>
      </trkpt>
      <trkpt lat="23.033818" lon="109.562073">
        <ele>64.278919</ele>
        <time>2026-08-15T06:02:31.000Z</time>
      </trkpt>
      <trkpt lat="23.033875" lon="109.562087">
        <ele>64.300797</ele>
        <time>2026-08-15T06:02:32.000Z</time>
      </trkpt>
      <trkpt lat="23.033933" lon="109.562101">
        <ele>64.323040</ele>
        <time>2026-08-15T06:02:33.000Z</time>
      </trkpt>
      <trkpt lat="23.033991" lon="109.562116">
        <ele>64.345361</ele>
        <time>2026-08-15T06:02:34.000Z</time>
      </trkpt>
      <trkpt lat="23.034047" lon="109.562133">
        <ele>64.367129</ele>
        <time>2026-08-15T06:02:35.000Z</time>
      </trkpt>
      <trkpt lat="23.034102" lon="109.562150">
        <ele>64.388537</ele>
        <time>2026-08-15T06:02:36.000Z</time>
      </trkpt>
      <trkpt lat="23.034157" lon="109.562166">
        <ele>64.409853</ele>
        <time>2026-08-15T06:02:37.000Z</time>
      </trkpt>
      <trkpt lat="23.034211" lon="109.562182">
        <ele>64.430808</ele>
        <time>2026-08-15T06:02:38.000Z</time>
      </trkpt>
      <trkpt lat="23.034263" lon="109.562197">
        <ele>64.450950</ele>
        <time>2026-08-15T06:02:39.000Z</time>
      </trkpt>
      <trkpt lat="23.034314" lon="109.562211">
        <ele>64.470643</ele>
        <time>2026-08-15T06:02:40.000Z</time>
      </trkpt>
      <trkpt lat="23.034365" lon="109.562224">
        <ele>64.490255</ele>
        <time>2026-08-15T06:02:41.000Z</time>
      </trkpt>
      <trkpt lat="23.034417" lon="109.562238">
        <ele>64.510311</ele>
        <time>2026-08-15T06:02:42.000Z</time>
      </trkpt>
      <trkpt lat="23.034468" lon="109.562250">
        <ele>64.529847</ele>
        <time>2026-08-15T06:02:43.000Z</time>
      </trkpt>
      <trkpt lat="23.034518" lon="109.562264">
        <ele>64.549178</ele>
        <time>2026-08-15T06:02:44.000Z</time>
      </trkpt>
      <trkpt lat="23.034568" lon="109.562280">
        <ele>64.568692</ele>
        <time>2026-08-15T06:02:45.000Z</time>
      </trkpt>
      <trkpt lat="23.034617" lon="109.562294">
        <ele>64.587660</ele>
        <time>2026-08-15T06:02:46.000Z</time>
      </trkpt>
      <trkpt lat="23.034667" lon="109.562308">
        <ele>64.606991</ele>
        <time>2026-08-15T06:02:47.000Z</time>
      </trkpt>
      <trkpt lat="23.034717" lon="109.562320">
        <ele>64.626161</ele>
        <time>2026-08-15T06:02:48.000Z</time>
      </trkpt>
      <trkpt lat="23.034767" lon="109.562333">
        <ele>64.645408</ele>
        <time>2026-08-15T06:02:49.000Z</time>
      </trkpt>
      <trkpt lat="23.034817" lon="109.562346">
        <ele>64.664656</ele>
        <time>2026-08-15T06:02:50.000Z</time>
      </trkpt>
      <trkpt lat="23.034867" lon="109.562360">
        <ele>64.683986</ele>
        <time>2026-08-15T06:02:51.000Z</time>
      </trkpt>
      <trkpt lat="23.034915" lon="109.562375">
        <ele>64.702685</ele>
        <time>2026-08-15T06:02:52.000Z</time>
      </trkpt>
      <trkpt lat="23.034964" lon="109.562388">
        <ele>64.721569</ele>
        <time>2026-08-15T06:02:53.000Z</time>
      </trkpt>
      <trkpt lat="23.035013" lon="109.562401">
        <ele>64.740452</ele>
        <time>2026-08-15T06:02:54.000Z</time>
      </trkpt>
      <trkpt lat="23.035061" lon="109.562414">
        <ele>64.758972</ele>
        <time>2026-08-15T06:02:55.000Z</time>
      </trkpt>
      <trkpt lat="23.035109" lon="109.562425">
        <ele>64.777338</ele>
        <time>2026-08-15T06:02:56.000Z</time>
      </trkpt>
      <trkpt lat="23.035155" lon="109.562439">
        <ele>64.795222</ele>
        <time>2026-08-15T06:02:57.000Z</time>
      </trkpt>
      <trkpt lat="23.035202" lon="109.562452">
        <ele>64.813379</ele>
        <time>2026-08-15T06:02:58.000Z</time>
      </trkpt>
      <trkpt lat="23.035248" lon="109.562464">
        <ele>64.831090</ele>
        <time>2026-08-15T06:02:59.000Z</time>
      </trkpt>
      <trkpt lat="23.035294" lon="109.562475">
        <ele>64.848724</ele>
        <time>2026-08-15T06:03:00.000Z</time>
      </trkpt>
      <trkpt lat="23.035340" lon="109.562488">
        <ele>64.866518</ele>
        <time>2026-08-15T06:03:01.000Z</time>
      </trkpt>
      <trkpt lat="23.035385" lon="109.562499">
        <ele>64.883787</ele>
        <time>2026-08-15T06:03:02.000Z</time>
      </trkpt>
      <trkpt lat="23.035429" lon="109.562514">
        <ele>64.901051</ele>
        <time>2026-08-15T06:03:03.000Z</time>
      </trkpt>
      <trkpt lat="23.035474" lon="109.562528">
        <ele>64.918575</ele>
        <time>2026-08-15T06:03:04.000Z</time>
      </trkpt>
      <trkpt lat="23.035519" lon="109.562540">
        <ele>64.935922</ele>
        <time>2026-08-15T06:03:05.000Z</time>
      </trkpt>
      <trkpt lat="23.035564" lon="109.562553">
        <ele>65.028296</ele>
        <time>2026-08-15T06:03:06.000Z</time>
      </trkpt>
      <trkpt lat="23.035608" lon="109.562566">
        <ele>65.140215</ele>
        <time>2026-08-15T06:03:07.000Z</time>
      </trkpt>
      <trkpt lat="23.035650" lon="109.562581">
        <ele>65.248729</ele>
        <time>2026-08-15T06:03:08.000Z</time>
      </trkpt>
      <trkpt lat="23.035693" lon="109.562595">
        <ele>65.358908</ele>
        <time>2026-08-15T06:03:09.000Z</time>
      </trkpt>
      <trkpt lat="23.035738" lon="109.562607">
        <ele>65.472638</ele>
        <time>2026-08-15T06:03:10.000Z</time>
      </trkpt>
      <trkpt lat="23.035781" lon="109.562622">
        <ele>65.583486</ele>
        <time>2026-08-15T06:03:11.000Z</time>
      </trkpt>
      <trkpt lat="23.035824" lon="109.562637">
        <ele>65.694334</ele>
        <time>2026-08-15T06:03:12.000Z</time>
      </trkpt>
      <trkpt lat="23.035867" lon="109.562650">
        <ele>65.803886</ele>
        <time>2026-08-15T06:03:13.000Z</time>
      </trkpt>
      <trkpt lat="23.035909" lon="109.562667">
        <ele>65.913895</ele>
        <time>2026-08-15T06:03:14.000Z</time>
      </trkpt>
      <trkpt lat="23.035952" lon="109.562681">
        <ele>66.024074</ele>
        <time>2026-08-15T06:03:15.000Z</time>
      </trkpt>
      <trkpt lat="23.035997" lon="109.562694">
        <ele>66.138363</ele>
        <time>2026-08-15T06:03:16.000Z</time>
      </trkpt>
      <trkpt lat="23.036042" lon="109.562711">
        <ele>66.255299</ele>
        <time>2026-08-15T06:03:17.000Z</time>
      </trkpt>
      <trkpt lat="23.036087" lon="109.562728">
        <ele>66.372236</ele>
        <time>2026-08-15T06:03:18.000Z</time>
      </trkpt>
      <trkpt lat="23.036133" lon="109.562742">
        <ele>66.489488</ele>
        <time>2026-08-15T06:03:19.000Z</time>
      </trkpt>
      <trkpt lat="23.036179" lon="109.562757">
        <ele>66.607369</ele>
        <time>2026-08-15T06:03:20.000Z</time>
      </trkpt>
      <trkpt lat="23.036223" lon="109.562773">
        <ele>66.721253</ele>
        <time>2026-08-15T06:03:21.000Z</time>
      </trkpt>
      <trkpt lat="23.036267" lon="109.562789">
        <ele>66.835138</ele>
        <time>2026-08-15T06:03:22.000Z</time>
      </trkpt>
      <trkpt lat="23.036310" lon="109.562807">
        <ele>66.948241</ele>
        <time>2026-08-15T06:03:23.000Z</time>
      </trkpt>
      <trkpt lat="23.036352" lon="109.562832">
        <ele>67.065783</ele>
        <time>2026-08-15T06:03:24.000Z</time>
      </trkpt>
      <trkpt lat="23.036394" lon="109.562860">
        <ele>67.186726</ele>
        <time>2026-08-15T06:03:25.000Z</time>
      </trkpt>
      <trkpt lat="23.036435" lon="109.562888">
        <ele>67.305585</ele>
        <time>2026-08-15T06:03:26.000Z</time>
      </trkpt>
      <trkpt lat="23.036475" lon="109.562914">
        <ele>67.419989</ele>
        <time>2026-08-15T06:03:27.000Z</time>
      </trkpt>
      <trkpt lat="23.036515" lon="109.562939">
        <ele>67.533250</ele>
        <time>2026-08-15T06:03:28.000Z</time>
      </trkpt>
      <trkpt lat="23.036554" lon="109.562963">
        <ele>67.643259</ele>
        <time>2026-08-15T06:03:29.000Z</time>
      </trkpt>
      <trkpt lat="23.036593" lon="109.562986">
        <ele>67.752173</ele>
        <time>2026-08-15T06:03:30.000Z</time>
      </trkpt>
      <trkpt lat="23.036629" lon="109.563011">
        <ele>67.857038</ele>
        <time>2026-08-15T06:03:31.000Z</time>
      </trkpt>
      <trkpt lat="23.036664" lon="109.563035">
        <ele>67.958620</ele>
        <time>2026-08-15T06:03:32.000Z</time>
      </trkpt>
      <trkpt lat="23.036698" lon="109.563058">
        <ele>68.056922</ele>
        <time>2026-08-15T06:03:33.000Z</time>
      </trkpt>
      <trkpt lat="23.036733" lon="109.563081">
        <ele>68.157316</ele>
        <time>2026-08-15T06:03:34.000Z</time>
      </trkpt>
      <trkpt lat="23.036766" lon="109.563103">
        <ele>68.252343</ele>
        <time>2026-08-15T06:03:35.000Z</time>
      </trkpt>
      <trkpt lat="23.036800" lon="109.563125">
        <ele>68.349471</ele>
        <time>2026-08-15T06:03:36.000Z</time>
      </trkpt>
      <trkpt lat="23.036832" lon="109.563145">
        <ele>68.440079</ele>
        <time>2026-08-15T06:03:37.000Z</time>
      </trkpt>
      <trkpt lat="23.036864" lon="109.563165">
        <ele>68.530688</ele>
        <time>2026-08-15T06:03:38.000Z</time>
      </trkpt>
      <trkpt lat="23.036898" lon="109.563185">
        <ele>68.625584</ele>
        <time>2026-08-15T06:03:39.000Z</time>
      </trkpt>
      <trkpt lat="23.036932" lon="109.563206">
        <ele>68.721575</ele>
        <time>2026-08-15T06:03:40.000Z</time>
      </trkpt>
      <trkpt lat="23.036964" lon="109.563227">
        <ele>68.813331</ele>
        <time>2026-08-15T06:03:41.000Z</time>
      </trkpt>
      <trkpt lat="23.036993" lon="109.563250">
        <ele>68.901454</ele>
        <time>2026-08-15T06:03:42.000Z</time>
      </trkpt>
      <trkpt lat="23.037021" lon="109.563271">
        <ele>68.984959</ele>
        <time>2026-08-15T06:03:43.000Z</time>
      </trkpt>
      <trkpt lat="23.037050" lon="109.563288">
        <ele>69.065837</ele>
        <time>2026-08-15T06:03:44.000Z</time>
      </trkpt>
      <trkpt lat="23.037079" lon="109.563303">
        <ele>69.144669</ele>
        <time>2026-08-15T06:03:45.000Z</time>
      </trkpt>
      <trkpt lat="23.037109" lon="109.563322">
        <ele>69.229898</ele>
        <time>2026-08-15T06:03:46.000Z</time>
      </trkpt>
      <trkpt lat="23.037139" lon="109.563340">
        <ele>69.314012</ele>
        <time>2026-08-15T06:03:47.000Z</time>
      </trkpt>
      <trkpt lat="23.037168" lon="109.563358">
        <ele>69.382618</ele>
        <time>2026-08-15T06:03:48.000Z</time>
      </trkpt>
      <trkpt lat="23.037198" lon="109.563374">
        <ele>69.438131</ele>
        <time>2026-08-15T06:03:49.000Z</time>
      </trkpt>
      <trkpt lat="23.037227" lon="109.563393">
        <ele>69.494382</ele>
        <time>2026-08-15T06:03:50.000Z</time>
      </trkpt>
      <trkpt lat="23.037254" lon="109.563414">
        <ele>69.549537</ele>
        <time>2026-08-15T06:03:51.000Z</time>
      </trkpt>
      <trkpt lat="23.037282" lon="109.563433">
        <ele>69.604372</ele>
        <time>2026-08-15T06:03:52.000Z</time>
      </trkpt>
      <trkpt lat="23.037308" lon="109.563451">
        <ele>69.655582</ele>
        <time>2026-08-15T06:03:53.000Z</time>
      </trkpt>
      <trkpt lat="23.037335" lon="109.563467">
        <ele>69.706668</ele>
        <time>2026-08-15T06:03:54.000Z</time>
      </trkpt>
      <trkpt lat="23.037359" lon="109.563484">
        <ele>69.754258</ele>
        <time>2026-08-15T06:03:55.000Z</time>
      </trkpt>
      <trkpt lat="23.037386" lon="109.563500">
        <ele>69.805344</ele>
        <time>2026-08-15T06:03:56.000Z</time>
      </trkpt>
      <trkpt lat="23.037415" lon="109.563513">
        <ele>69.857454</ele>
        <time>2026-08-15T06:03:57.000Z</time>
      </trkpt>
      <trkpt lat="23.037442" lon="109.563527">
        <ele>69.907149</ele>
        <time>2026-08-15T06:03:58.000Z</time>
      </trkpt>
      <trkpt lat="23.037469" lon="109.563543">
        <ele>69.958235</ele>
        <time>2026-08-15T06:03:59.000Z</time>
      </trkpt>
      <trkpt lat="23.037497" lon="109.563559">
        <ele>70.010786</ele>
        <time>2026-08-15T06:04:00.000Z</time>
      </trkpt>
      <trkpt lat="23.037524" lon="109.563575">
        <ele>70.061872</ele>
        <time>2026-08-15T06:04:01.000Z</time>
      </trkpt>
      <trkpt lat="23.037551" lon="109.563590">
        <ele>70.112244</ele>
        <time>2026-08-15T06:04:02.000Z</time>
      </trkpt>
      <trkpt lat="23.037577" lon="109.563605">
        <ele>70.161143</ele>
        <time>2026-08-15T06:04:03.000Z</time>
      </trkpt>
      <trkpt lat="23.037605" lon="109.563619">
        <ele>70.212342</ele>
        <time>2026-08-15T06:04:04.000Z</time>
      </trkpt>
      <trkpt lat="23.037633" lon="109.563634">
        <ele>70.264199</ele>
        <time>2026-08-15T06:04:05.000Z</time>
      </trkpt>
      <trkpt lat="23.037663" lon="109.563647">
        <ele>70.317849</ele>
        <time>2026-08-15T06:04:06.000Z</time>
      </trkpt>
      <trkpt lat="23.037693" lon="109.563661">
        <ele>70.372084</ele>
        <time>2026-08-15T06:04:07.000Z</time>
      </trkpt>
      <trkpt lat="23.037724" lon="109.563673">
        <ele>70.426749</ele>
        <time>2026-08-15T06:04:08.000Z</time>
      </trkpt>
      <trkpt lat="23.037754" lon="109.563685">
        <ele>70.479852</ele>
        <time>2026-08-15T06:04:09.000Z</time>
      </trkpt>
      <trkpt lat="23.037784" lon="109.563695">
        <ele>70.531977</ele>
        <time>2026-08-15T06:04:10.000Z</time>
      </trkpt>
      <trkpt lat="23.037814" lon="109.563704">
        <ele>70.583676</ele>
        <time>2026-08-15T06:04:11.000Z</time>
      </trkpt>
      <trkpt lat="23.037844" lon="109.563713">
        <ele>70.635374</ele>
        <time>2026-08-15T06:04:12.000Z</time>
      </trkpt>
      <trkpt lat="23.037876" lon="109.563721">
        <ele>70.689919</ele>
        <time>2026-08-15T06:04:13.000Z</time>
      </trkpt>
      <trkpt lat="23.037909" lon="109.563728">
        <ele>70.745770</ele>
        <time>2026-08-15T06:04:14.000Z</time>
      </trkpt>
      <trkpt lat="23.037943" lon="109.563737">
        <ele>70.803900</ele>
        <time>2026-08-15T06:04:15.000Z</time>
      </trkpt>
      <trkpt lat="23.037974" lon="109.563746">
        <ele>70.857202</ele>
        <time>2026-08-15T06:04:16.000Z</time>
      </trkpt>
      <trkpt lat="23.038004" lon="109.563755">
        <ele>70.908900</ele>
        <time>2026-08-15T06:04:17.000Z</time>
      </trkpt>
      <trkpt lat="23.038028" lon="109.563764">
        <ele>70.951074</ele>
        <time>2026-08-15T06:04:18.000Z</time>
      </trkpt>
      <trkpt lat="23.038057" lon="109.563773">
        <ele>71.001173</ele>
        <time>2026-08-15T06:04:19.000Z</time>
      </trkpt>
      <trkpt lat="23.038083" lon="109.563778">
        <ele>71.045034</ele>
        <time>2026-08-15T06:04:20.000Z</time>
      </trkpt>
      <trkpt lat="23.038113" lon="109.563780">
        <ele>71.094961</ele>
        <time>2026-08-15T06:04:21.000Z</time>
      </trkpt>
      <trkpt lat="23.038149" lon="109.563787">
        <ele>71.155712</ele>
        <time>2026-08-15T06:04:22.000Z</time>
      </trkpt>
      <trkpt lat="23.038185" lon="109.563796">
        <ele>71.217075</ele>
        <time>2026-08-15T06:04:23.000Z</time>
      </trkpt>
      <trkpt lat="23.038224" lon="109.563806">
        <ele>71.283638</ele>
        <time>2026-08-15T06:04:24.000Z</time>
      </trkpt>
      <trkpt lat="23.038264" lon="109.563817">
        <ele>71.352178</ele>
        <time>2026-08-15T06:04:25.000Z</time>
      </trkpt>
      <trkpt lat="23.038306" lon="109.563827">
        <ele>71.423600</ele>
        <time>2026-08-15T06:04:26.000Z</time>
      </trkpt>
      <trkpt lat="23.038350" lon="109.563838">
        <ele>71.498599</ele>
        <time>2026-08-15T06:04:27.000Z</time>
      </trkpt>
      <trkpt lat="23.038395" lon="109.563848">
        <ele>71.574897</ele>
        <time>2026-08-15T06:04:28.000Z</time>
      </trkpt>
      <trkpt lat="23.038439" lon="109.563858">
        <ele>71.649569</ele>
        <time>2026-08-15T06:04:29.000Z</time>
      </trkpt>
      <trkpt lat="23.038483" lon="109.563868">
        <ele>71.724240</ele>
        <time>2026-08-15T06:04:30.000Z</time>
      </trkpt>
      <trkpt lat="23.038528" lon="109.563878">
        <ele>71.800538</ele>
        <time>2026-08-15T06:04:31.000Z</time>
      </trkpt>
      <trkpt lat="23.038573" lon="109.563888">
        <ele>71.876836</ele>
        <time>2026-08-15T06:04:32.000Z</time>
      </trkpt>
      <trkpt lat="23.038619" lon="109.563897">
        <ele>71.954476</ele>
        <time>2026-08-15T06:04:33.000Z</time>
      </trkpt>
      <trkpt lat="23.038667" lon="109.563908">
        <ele>72.035965</ele>
        <time>2026-08-15T06:04:34.000Z</time>
      </trkpt>
      <trkpt lat="23.038714" lon="109.563917">
        <ele>72.115241</ele>
        <time>2026-08-15T06:04:35.000Z</time>
      </trkpt>
      <trkpt lat="23.038760" lon="109.563929">
        <ele>72.193824</ele>
        <time>2026-08-15T06:04:36.000Z</time>
      </trkpt>
      <trkpt lat="23.038805" lon="109.563939">
        <ele>72.270122</ele>
        <time>2026-08-15T06:04:37.000Z</time>
      </trkpt>
      <trkpt lat="23.038851" lon="109.563952">
        <ele>72.340426</ele>
        <time>2026-08-15T06:04:38.000Z</time>
      </trkpt>
      <trkpt lat="23.038899" lon="109.563964">
        <ele>72.316025</ele>
        <time>2026-08-15T06:04:39.000Z</time>
      </trkpt>
      <trkpt lat="23.038947" lon="109.563975">
        <ele>72.291723</ele>
        <time>2026-08-15T06:04:40.000Z</time>
      </trkpt>
      <trkpt lat="23.038993" lon="109.563987">
        <ele>72.268286</ele>
        <time>2026-08-15T06:04:41.000Z</time>
      </trkpt>
      <trkpt lat="23.039040" lon="109.564000">
        <ele>72.244260</ele>
        <time>2026-08-15T06:04:42.000Z</time>
      </trkpt>
      <trkpt lat="23.039089" lon="109.564012">
        <ele>72.219376</ele>
        <time>2026-08-15T06:04:43.000Z</time>
      </trkpt>
      <trkpt lat="23.039140" lon="109.564026">
        <ele>72.193316</ele>
        <time>2026-08-15T06:04:44.000Z</time>
      </trkpt>
      <trkpt lat="23.039191" lon="109.564040">
        <ele>72.167257</ele>
        <time>2026-08-15T06:04:45.000Z</time>
      </trkpt>
      <trkpt lat="23.039241" lon="109.564053">
        <ele>72.141787</ele>
        <time>2026-08-15T06:04:46.000Z</time>
      </trkpt>
      <trkpt lat="23.039292" lon="109.564065">
        <ele>72.115936</ele>
        <time>2026-08-15T06:04:47.000Z</time>
      </trkpt>
      <trkpt lat="23.039343" lon="109.564078">
        <ele>72.089984</ele>
        <time>2026-08-15T06:04:48.000Z</time>
      </trkpt>
      <trkpt lat="23.039392" lon="109.564091">
        <ele>72.064996</ele>
        <time>2026-08-15T06:04:49.000Z</time>
      </trkpt>
      <trkpt lat="23.039441" lon="109.564105">
        <ele>72.039896</ele>
        <time>2026-08-15T06:04:50.000Z</time>
      </trkpt>
      <trkpt lat="23.039491" lon="109.564118">
        <ele>72.014427</ele>
        <time>2026-08-15T06:04:51.000Z</time>
      </trkpt>
      <trkpt lat="23.039543" lon="109.564131">
        <ele>71.987992</ele>
        <time>2026-08-15T06:04:52.000Z</time>
      </trkpt>
      <trkpt lat="23.039595" lon="109.564144">
        <ele>71.961558</ele>
        <time>2026-08-15T06:04:53.000Z</time>
      </trkpt>
      <trkpt lat="23.039647" lon="109.564158">
        <ele>71.935018</ele>
        <time>2026-08-15T06:04:54.000Z</time>
      </trkpt>
      <trkpt lat="23.039700" lon="109.564171">
        <ele>71.908101</ele>
        <time>2026-08-15T06:04:55.000Z</time>
      </trkpt>
      <trkpt lat="23.039754" lon="109.564183">
        <ele>71.880795</ele>
        <time>2026-08-15T06:04:56.000Z</time>
      </trkpt>
      <trkpt lat="23.039807" lon="109.564196">
        <ele>71.853878</ele>
        <time>2026-08-15T06:04:57.000Z</time>
      </trkpt>
      <trkpt lat="23.039863" lon="109.564208">
        <ele>71.825601</ele>
        <time>2026-08-15T06:04:58.000Z</time>
      </trkpt>
      <trkpt lat="23.039918" lon="109.564221">
        <ele>71.797716</ele>
        <time>2026-08-15T06:04:59.000Z</time>
      </trkpt>
      <trkpt lat="23.039973" lon="109.564231">
        <ele>71.770090</ele>
        <time>2026-08-15T06:05:00.000Z</time>
      </trkpt>
      <trkpt lat="23.040029" lon="109.564242">
        <ele>71.741897</ele>
        <time>2026-08-15T06:05:01.000Z</time>
      </trkpt>
      <trkpt lat="23.040085" lon="109.564256">
        <ele>71.713430</ele>
        <time>2026-08-15T06:05:02.000Z</time>
      </trkpt>
      <trkpt lat="23.040141" lon="109.564269">
        <ele>71.685061</ele>
        <time>2026-08-15T06:05:03.000Z</time>
      </trkpt>
      <trkpt lat="23.040196" lon="109.564283">
        <ele>71.657076</ele>
        <time>2026-08-15T06:05:04.000Z</time>
      </trkpt>
      <trkpt lat="23.040252" lon="109.564299">
        <ele>71.628390</ele>
        <time>2026-08-15T06:05:05.000Z</time>
      </trkpt>
      <trkpt lat="23.040307" lon="109.564315">
        <ele>71.600183</ele>
        <time>2026-08-15T06:05:06.000Z</time>
      </trkpt>
      <trkpt lat="23.040363" lon="109.564330">
        <ele>71.571610</ele>
        <time>2026-08-15T06:05:07.000Z</time>
      </trkpt>
      <trkpt lat="23.040420" lon="109.564344">
        <ele>71.542659</ele>
        <time>2026-08-15T06:05:08.000Z</time>
      </trkpt>
      <trkpt lat="23.040477" lon="109.564357">
        <ele>71.513806</ele>
        <time>2026-08-15T06:05:09.000Z</time>
      </trkpt>
      <trkpt lat="23.040535" lon="109.564369">
        <ele>71.484556</ele>
        <time>2026-08-15T06:05:10.000Z</time>
      </trkpt>
      <trkpt lat="23.040594" lon="109.564382">
        <ele>71.454732</ele>
        <time>2026-08-15T06:05:11.000Z</time>
      </trkpt>
      <trkpt lat="23.040652" lon="109.564394">
        <ele>71.418874</ele>
        <time>2026-08-15T06:05:12.000Z</time>
      </trkpt>
      <trkpt lat="23.040711" lon="109.564410">
        <ele>71.381053</ele>
        <time>2026-08-15T06:05:13.000Z</time>
      </trkpt>
      <trkpt lat="23.040769" lon="109.564426">
        <ele>71.343835</ele>
        <time>2026-08-15T06:05:14.000Z</time>
      </trkpt>
      <trkpt lat="23.040826" lon="109.564442">
        <ele>71.307220</ele>
        <time>2026-08-15T06:05:15.000Z</time>
      </trkpt>
      <trkpt lat="23.040885" lon="109.564458">
        <ele>71.269399</ele>
        <time>2026-08-15T06:05:16.000Z</time>
      </trkpt>
      <trkpt lat="23.040943" lon="109.564470">
        <ele>71.232677</ele>
        <time>2026-08-15T06:05:17.000Z</time>
      </trkpt>
      <trkpt lat="23.041000" lon="109.564482">
        <ele>71.196566</ele>
        <time>2026-08-15T06:05:18.000Z</time>
      </trkpt>
      <trkpt lat="23.041059" lon="109.564494">
        <ele>71.159233</ele>
        <time>2026-08-15T06:05:19.000Z</time>
      </trkpt>
      <trkpt lat="23.041118" lon="109.564505">
        <ele>71.122002</ele>
        <time>2026-08-15T06:05:20.000Z</time>
      </trkpt>
      <trkpt lat="23.041177" lon="109.564514">
        <ele>71.084946</ele>
        <time>2026-08-15T06:05:21.000Z</time>
      </trkpt>
      <trkpt lat="23.041232" lon="109.564525">
        <ele>71.050164</ele>
        <time>2026-08-15T06:05:22.000Z</time>
      </trkpt>
      <trkpt lat="23.041287" lon="109.564538">
        <ele>71.015156</ele>
        <time>2026-08-15T06:05:23.000Z</time>
      </trkpt>
      <trkpt lat="23.041344" lon="109.564548">
        <ele>70.979245</ele>
        <time>2026-08-15T06:05:24.000Z</time>
      </trkpt>
      <trkpt lat="23.041402" lon="109.564555">
        <ele>70.942950</ele>
        <time>2026-08-15T06:05:25.000Z</time>
      </trkpt>
      <trkpt lat="23.041459" lon="109.564561">
        <ele>70.907332</ele>
        <time>2026-08-15T06:05:26.000Z</time>
      </trkpt>
      <trkpt lat="23.041514" lon="109.564569">
        <ele>70.872819</ele>
        <time>2026-08-15T06:05:27.000Z</time>
      </trkpt>
      <trkpt lat="23.041570" lon="109.564575">
        <ele>70.837821</ele>
        <time>2026-08-15T06:05:28.000Z</time>
      </trkpt>
      <trkpt lat="23.041626" lon="109.564581">
        <ele>70.802822</ele>
        <time>2026-08-15T06:05:29.000Z</time>
      </trkpt>
      <trkpt lat="23.041684" lon="109.564589">
        <ele>70.766459</ele>
        <time>2026-08-15T06:05:30.000Z</time>
      </trkpt>
      <trkpt lat="23.041742" lon="109.564595">
        <ele>70.730222</ele>
        <time>2026-08-15T06:05:31.000Z</time>
      </trkpt>
      <trkpt lat="23.041799" lon="109.564601">
        <ele>70.694604</ele>
        <time>2026-08-15T06:05:32.000Z</time>
      </trkpt>
      <trkpt lat="23.041855" lon="109.564605">
        <ele>70.659699</ele>
        <time>2026-08-15T06:05:33.000Z</time>
      </trkpt>
      <trkpt lat="23.041910" lon="109.564606">
        <ele>70.625487</ele>
        <time>2026-08-15T06:05:34.000Z</time>
      </trkpt>
      <trkpt lat="23.041965" lon="109.564609">
        <ele>70.591236</ele>
        <time>2026-08-15T06:05:35.000Z</time>
      </trkpt>
      <trkpt lat="23.042020" lon="109.564611">
        <ele>70.557009</ele>
        <time>2026-08-15T06:05:36.000Z</time>
      </trkpt>
      <trkpt lat="23.042075" lon="109.564613">
        <ele>70.522782</ele>
        <time>2026-08-15T06:05:37.000Z</time>
      </trkpt>
      <trkpt lat="23.042128" lon="109.564616">
        <ele>70.489773</ele>
        <time>2026-08-15T06:05:38.000Z</time>
      </trkpt>
      <trkpt lat="23.042183" lon="109.564618">
        <ele>70.455546</ele>
        <time>2026-08-15T06:05:39.000Z</time>
      </trkpt>
      <trkpt lat="23.042239" lon="109.564619">
        <ele>70.420712</ele>
        <time>2026-08-15T06:05:40.000Z</time>
      </trkpt>
      <trkpt lat="23.042294" lon="109.564618">
        <ele>70.386499</ele>
        <time>2026-08-15T06:05:41.000Z</time>
      </trkpt>
      <trkpt lat="23.042350" lon="109.564618">
        <ele>70.351669</ele>
        <time>2026-08-15T06:05:42.000Z</time>
      </trkpt>
      <trkpt lat="23.042407" lon="109.564615">
        <ele>70.303098</ele>
        <time>2026-08-15T06:05:43.000Z</time>
      </trkpt>
      <trkpt lat="23.042466" lon="109.564610">
        <ele>70.237095</ele>
        <time>2026-08-15T06:05:44.000Z</time>
      </trkpt>
      <trkpt lat="23.042525" lon="109.564601">
        <ele>70.170648</ele>
        <time>2026-08-15T06:05:45.000Z</time>
      </trkpt>
      <trkpt lat="23.042582" lon="109.564591">
        <ele>70.106253</ele>
        <time>2026-08-15T06:05:46.000Z</time>
      </trkpt>
      <trkpt lat="23.042640" lon="109.564577">
        <ele>70.039989</ele>
        <time>2026-08-15T06:05:47.000Z</time>
      </trkpt>
      <trkpt lat="23.042698" lon="109.564562">
        <ele>69.973495</ele>
        <time>2026-08-15T06:05:48.000Z</time>
      </trkpt>
      <trkpt lat="23.042756" lon="109.564544">
        <ele>69.906221</ele>
        <time>2026-08-15T06:05:49.000Z</time>
      </trkpt>
      <trkpt lat="23.042817" lon="109.564530">
        <ele>69.836687</ele>
        <time>2026-08-15T06:05:50.000Z</time>
      </trkpt>
      <trkpt lat="23.042879" lon="109.564514">
        <ele>69.765616</ele>
        <time>2026-08-15T06:05:51.000Z</time>
      </trkpt>
      <trkpt lat="23.042940" lon="109.564496">
        <ele>69.695119</ele>
        <time>2026-08-15T06:05:52.000Z</time>
      </trkpt>
      <trkpt lat="23.043001" lon="109.564478">
        <ele>69.624622</ele>
        <time>2026-08-15T06:05:53.000Z</time>
      </trkpt>
      <trkpt lat="23.043061" lon="109.564460">
        <ele>69.555201</ele>
        <time>2026-08-15T06:05:54.000Z</time>
      </trkpt>
      <trkpt lat="23.043122" lon="109.564442">
        <ele>69.484704</ele>
        <time>2026-08-15T06:05:55.000Z</time>
      </trkpt>
      <trkpt lat="23.043184" lon="109.564425">
        <ele>69.413388</ele>
        <time>2026-08-15T06:05:56.000Z</time>
      </trkpt>
      <trkpt lat="23.043246" lon="109.564409">
        <ele>69.342317</ele>
        <time>2026-08-15T06:05:57.000Z</time>
      </trkpt>
      <trkpt lat="23.043308" lon="109.564392">
        <ele>69.271001</ele>
        <time>2026-08-15T06:05:58.000Z</time>
      </trkpt>
      <trkpt lat="23.043369" lon="109.564377">
        <ele>69.201248</ele>
        <time>2026-08-15T06:05:59.000Z</time>
      </trkpt>
      <trkpt lat="23.043431" lon="109.564362">
        <ele>69.130406</ele>
        <time>2026-08-15T06:06:00.000Z</time>
      </trkpt>
      <trkpt lat="23.043492" lon="109.564345">
        <ele>69.060172</ele>
        <time>2026-08-15T06:06:01.000Z</time>
      </trkpt>
      <trkpt lat="23.043551" lon="109.564328">
        <ele>68.992095</ele>
        <time>2026-08-15T06:06:02.000Z</time>
      </trkpt>
      <trkpt lat="23.043610" lon="109.564312">
        <ele>68.924275</ele>
        <time>2026-08-15T06:06:03.000Z</time>
      </trkpt>
      <trkpt lat="23.043670" lon="109.564298">
        <ele>68.855831</ele>
        <time>2026-08-15T06:06:04.000Z</time>
      </trkpt>
      <trkpt lat="23.043728" lon="109.564283">
        <ele>68.789338</ele>
        <time>2026-08-15T06:06:05.000Z</time>
      </trkpt>
      <trkpt lat="23.043786" lon="109.564269">
        <ele>68.723074</ele>
        <time>2026-08-15T06:06:06.000Z</time>
      </trkpt>
      <trkpt lat="23.043842" lon="109.564258">
        <ele>68.659605</ele>
        <time>2026-08-15T06:06:07.000Z</time>
      </trkpt>
      <trkpt lat="23.043900" lon="109.564246">
        <ele>68.593756</ele>
        <time>2026-08-15T06:06:08.000Z</time>
      </trkpt>
      <trkpt lat="23.043958" lon="109.564231">
        <ele>68.527262</ele>
        <time>2026-08-15T06:06:09.000Z</time>
      </trkpt>
      <trkpt lat="23.044016" lon="109.564215">
        <ele>68.460523</ele>
        <time>2026-08-15T06:06:10.000Z</time>
      </trkpt>
      <trkpt lat="23.044074" lon="109.564196">
        <ele>68.392960</ele>
        <time>2026-08-15T06:06:11.000Z</time>
      </trkpt>
      <trkpt lat="23.044131" lon="109.564179">
        <ele>68.327037</ele>
        <time>2026-08-15T06:06:12.000Z</time>
      </trkpt>
      <trkpt lat="23.044188" lon="109.564161">
        <ele>68.380572</ele>
        <time>2026-08-15T06:06:13.000Z</time>
      </trkpt>
      <trkpt lat="23.044245" lon="109.564144">
        <ele>68.434602</ele>
        <time>2026-08-15T06:06:14.000Z</time>
      </trkpt>
      <trkpt lat="23.044301" lon="109.564126">
        <ele>68.487984</ele>
        <time>2026-08-15T06:06:15.000Z</time>
      </trkpt>
      <trkpt lat="23.044355" lon="109.564108">
        <ele>68.539615</ele>
        <time>2026-08-15T06:06:16.000Z</time>
      </trkpt>
      <trkpt lat="23.044409" lon="109.564089">
        <ele>68.591500</ele>
        <time>2026-08-15T06:06:17.000Z</time>
      </trkpt>
      <trkpt lat="23.044463" lon="109.564072">
        <ele>68.642891</ele>
        <time>2026-08-15T06:06:18.000Z</time>
      </trkpt>
      <trkpt lat="23.044518" lon="109.564057">
        <ele>68.694725</ele>
        <time>2026-08-15T06:06:19.000Z</time>
      </trkpt>
      <trkpt lat="23.044573" lon="109.564043">
        <ele>68.746362</ele>
        <time>2026-08-15T06:06:20.000Z</time>
      </trkpt>
      <trkpt lat="23.044626" lon="109.564027">
        <ele>68.796644</ele>
        <time>2026-08-15T06:06:21.000Z</time>
      </trkpt>
      <trkpt lat="23.044681" lon="109.564012">
        <ele>68.848478</ele>
        <time>2026-08-15T06:06:22.000Z</time>
      </trkpt>
      <trkpt lat="23.044737" lon="109.563999">
        <ele>68.900823</ele>
        <time>2026-08-15T06:06:23.000Z</time>
      </trkpt>
      <trkpt lat="23.044792" lon="109.563984">
        <ele>68.952658</ele>
        <time>2026-08-15T06:06:24.000Z</time>
      </trkpt>
      <trkpt lat="23.044847" lon="109.563971">
        <ele>69.004109</ele>
        <time>2026-08-15T06:06:25.000Z</time>
      </trkpt>
      <trkpt lat="23.044900" lon="109.563958">
        <ele>69.053775</ele>
        <time>2026-08-15T06:06:26.000Z</time>
      </trkpt>
      <trkpt lat="23.044954" lon="109.563944">
        <ele>69.104522</ele>
        <time>2026-08-15T06:06:27.000Z</time>
      </trkpt>
      <trkpt lat="23.045007" lon="109.563929">
        <ele>69.154585</ele>
        <time>2026-08-15T06:06:28.000Z</time>
      </trkpt>
      <trkpt lat="23.045059" lon="109.563917">
        <ele>69.203178</ele>
        <time>2026-08-15T06:06:29.000Z</time>
      </trkpt>
      <trkpt lat="23.045110" lon="109.563902">
        <ele>69.251475</ele>
        <time>2026-08-15T06:06:30.000Z</time>
      </trkpt>
      <trkpt lat="23.045160" lon="109.563887">
        <ele>69.298889</ele>
        <time>2026-08-15T06:06:31.000Z</time>
      </trkpt>
      <trkpt lat="23.045209" lon="109.563869">
        <ele>69.346170</ele>
        <time>2026-08-15T06:06:32.000Z</time>
      </trkpt>
      <trkpt lat="23.045257" lon="109.563852">
        <ele>69.392318</ele>
        <time>2026-08-15T06:06:33.000Z</time>
      </trkpt>
      <trkpt lat="23.045306" lon="109.563838">
        <ele>69.438631</ele>
        <time>2026-08-15T06:06:34.000Z</time>
      </trkpt>
      <trkpt lat="23.045355" lon="109.563827">
        <ele>69.484368</ele>
        <time>2026-08-15T06:06:35.000Z</time>
      </trkpt>
      <trkpt lat="23.045402" lon="109.563819">
        <ele>69.527855</ele>
        <time>2026-08-15T06:06:36.000Z</time>
      </trkpt>
      <trkpt lat="23.045448" lon="109.563811">
        <ele>69.570438</ele>
        <time>2026-08-15T06:06:37.000Z</time>
      </trkpt>
      <trkpt lat="23.045492" lon="109.563801">
        <ele>69.611529</ele>
        <time>2026-08-15T06:06:38.000Z</time>
      </trkpt>
      <trkpt lat="23.045535" lon="109.563794">
        <ele>69.651274</ele>
        <time>2026-08-15T06:06:39.000Z</time>
      </trkpt>
      <trkpt lat="23.045577" lon="109.563785">
        <ele>69.690406</ele>
        <time>2026-08-15T06:06:40.000Z</time>
      </trkpt>
      <trkpt lat="23.045619" lon="109.563777">
        <ele>69.729383</ele>
        <time>2026-08-15T06:06:41.000Z</time>
      </trkpt>
      <trkpt lat="23.045661" lon="109.563769">
        <ele>69.768361</ele>
        <time>2026-08-15T06:06:42.000Z</time>
      </trkpt>
      <trkpt lat="23.045703" lon="109.563762">
        <ele>69.807202</ele>
        <time>2026-08-15T06:06:43.000Z</time>
      </trkpt>
      <trkpt lat="23.045743" lon="109.563756">
        <ele>69.844112</ele>
        <time>2026-08-15T06:06:44.000Z</time>
      </trkpt>
      <trkpt lat="23.045786" lon="109.563752">
        <ele>69.883563</ele>
        <time>2026-08-15T06:06:45.000Z</time>
      </trkpt>
      <trkpt lat="23.045830" lon="109.563749">
        <ele>69.923862</ele>
        <time>2026-08-15T06:06:46.000Z</time>
      </trkpt>
      <trkpt lat="23.045876" lon="109.563745">
        <ele>69.966045</ele>
        <time>2026-08-15T06:06:47.000Z</time>
      </trkpt>
      <trkpt lat="23.045926" lon="109.563746">
        <ele>69.988824</ele>
        <time>2026-08-15T06:06:48.000Z</time>
      </trkpt>
      <trkpt lat="23.045975" lon="109.563752">
        <ele>70.008672</ele>
        <time>2026-08-15T06:06:49.000Z</time>
      </trkpt>
      <trkpt lat="23.046022" lon="109.563759">
        <ele>70.027766</ele>
        <time>2026-08-15T06:06:50.000Z</time>
      </trkpt>
      <trkpt lat="23.046068" lon="109.563768">
        <ele>70.046579</ele>
        <time>2026-08-15T06:06:51.000Z</time>
      </trkpt>
      <trkpt lat="23.046116" lon="109.563779">
        <ele>70.066324</ele>
        <time>2026-08-15T06:06:52.000Z</time>
      </trkpt>
      <trkpt lat="23.046161" lon="109.563795">
        <ele>70.085381</ele>
        <time>2026-08-15T06:06:53.000Z</time>
      </trkpt>
      <trkpt lat="23.046205" lon="109.563812">
        <ele>70.104177</ele>
        <time>2026-08-15T06:06:54.000Z</time>
      </trkpt>
      <trkpt lat="23.046250" lon="109.563828">
        <ele>70.123235</ele>
        <time>2026-08-15T06:06:55.000Z</time>
      </trkpt>
      <trkpt lat="23.046291" lon="109.563845">
        <ele>70.140897</ele>
        <time>2026-08-15T06:06:56.000Z</time>
      </trkpt>
      <trkpt lat="23.046332" lon="109.563860">
        <ele>70.158310</ele>
        <time>2026-08-15T06:06:57.000Z</time>
      </trkpt>
      <trkpt lat="23.046375" lon="109.563875">
        <ele>70.176487</ele>
        <time>2026-08-15T06:06:58.000Z</time>
      </trkpt>
      <trkpt lat="23.046419" lon="109.563889">
        <ele>70.194941</ele>
        <time>2026-08-15T06:06:59.000Z</time>
      </trkpt>
      <trkpt lat="23.046462" lon="109.563904">
        <ele>70.213118</ele>
        <time>2026-08-15T06:07:00.000Z</time>
      </trkpt>
      <trkpt lat="23.046503" lon="109.563918">
        <ele>70.230416</ele>
        <time>2026-08-15T06:07:01.000Z</time>
      </trkpt>
      <trkpt lat="23.046542" lon="109.563931">
        <ele>70.246836</ele>
        <time>2026-08-15T06:07:02.000Z</time>
      </trkpt>
      <trkpt lat="23.046582" lon="109.563943">
        <ele>70.263538</ele>
        <time>2026-08-15T06:07:03.000Z</time>
      </trkpt>
      <trkpt lat="23.046621" lon="109.563954">
        <ele>70.279756</ele>
        <time>2026-08-15T06:07:04.000Z</time>
      </trkpt>
      <trkpt lat="23.046658" lon="109.563966">
        <ele>70.295297</ele>
        <time>2026-08-15T06:07:05.000Z</time>
      </trkpt>
      <trkpt lat="23.046695" lon="109.563978">
        <ele>70.310839</ele>
        <time>2026-08-15T06:07:06.000Z</time>
      </trkpt>
      <trkpt lat="23.046730" lon="109.563989">
        <ele>70.325504</ele>
        <time>2026-08-15T06:07:07.000Z</time>
      </trkpt>
      <trkpt lat="23.046764" lon="109.564001">
        <ele>70.339892</ele>
        <time>2026-08-15T06:07:08.000Z</time>
      </trkpt>
      <trkpt lat="23.046800" lon="109.564010">
        <ele>70.354761</ele>
        <time>2026-08-15T06:07:09.000Z</time>
      </trkpt>
      <trkpt lat="23.046837" lon="109.564019">
        <ele>70.370022</ele>
        <time>2026-08-15T06:07:10.000Z</time>
      </trkpt>
      <trkpt lat="23.046876" lon="109.564027">
        <ele>70.385997</ele>
        <time>2026-08-15T06:07:11.000Z</time>
      </trkpt>
      <trkpt lat="23.046914" lon="109.564037">
        <ele>70.401734</ele>
        <time>2026-08-15T06:07:12.000Z</time>
      </trkpt>
      <trkpt lat="23.046954" lon="109.564047">
        <ele>70.418254</ele>
        <time>2026-08-15T06:07:13.000Z</time>
      </trkpt>
      <trkpt lat="23.046996" lon="109.564055">
        <ele>70.435417</ele>
        <time>2026-08-15T06:07:14.000Z</time>
      </trkpt>
      <trkpt lat="23.047040" lon="109.564064">
        <ele>70.453438</ele>
        <time>2026-08-15T06:07:15.000Z</time>
      </trkpt>
      <trkpt lat="23.047084" lon="109.564073">
        <ele>70.471459</ele>
        <time>2026-08-15T06:07:16.000Z</time>
      </trkpt>
      <trkpt lat="23.047129" lon="109.564082">
        <ele>70.489876</ele>
        <time>2026-08-15T06:07:17.000Z</time>
      </trkpt>
      <trkpt lat="23.047174" lon="109.564090">
        <ele>70.508229</ele>
        <time>2026-08-15T06:07:18.000Z</time>
      </trkpt>
      <trkpt lat="23.047219" lon="109.564097">
        <ele>70.526526</ele>
        <time>2026-08-15T06:07:19.000Z</time>
      </trkpt>
      <trkpt lat="23.047265" lon="109.564105">
        <ele>70.545277</ele>
        <time>2026-08-15T06:07:20.000Z</time>
      </trkpt>
      <trkpt lat="23.047313" lon="109.564115">
        <ele>70.564949</ele>
        <time>2026-08-15T06:07:21.000Z</time>
      </trkpt>
      <trkpt lat="23.047361" lon="109.564124">
        <ele>70.584554</ele>
        <time>2026-08-15T06:07:22.000Z</time>
      </trkpt>
      <trkpt lat="23.047410" lon="109.564132">
        <ele>70.604498</ele>
        <time>2026-08-15T06:07:23.000Z</time>
      </trkpt>
      <trkpt lat="23.047458" lon="109.564140">
        <ele>70.624044</ele>
        <time>2026-08-15T06:07:24.000Z</time>
      </trkpt>
      <trkpt lat="23.047507" lon="109.564148">
        <ele>70.643988</ele>
        <time>2026-08-15T06:07:25.000Z</time>
      </trkpt>
      <trkpt lat="23.047556" lon="109.564159">
        <ele>70.664127</ele>
        <time>2026-08-15T06:07:26.000Z</time>
      </trkpt>
      <trkpt lat="23.047606" lon="109.564168">
        <ele>70.684526</ele>
        <time>2026-08-15T06:07:27.000Z</time>
      </trkpt>
      <trkpt lat="23.047656" lon="109.564177">
        <ele>70.693646</ele>
        <time>2026-08-15T06:07:28.000Z</time>
      </trkpt>
      <trkpt lat="23.047707" lon="109.564186">
        <ele>70.691418</ele>
        <time>2026-08-15T06:07:29.000Z</time>
      </trkpt>
      <trkpt lat="23.047757" lon="109.564194">
        <ele>70.689239</ele>
        <time>2026-08-15T06:07:30.000Z</time>
      </trkpt>
      <trkpt lat="23.047807" lon="109.564202">
        <ele>70.687059</ele>
        <time>2026-08-15T06:07:31.000Z</time>
      </trkpt>
      <trkpt lat="23.047857" lon="109.564212">
        <ele>70.684867</ele>
        <time>2026-08-15T06:07:32.000Z</time>
      </trkpt>
      <trkpt lat="23.047908" lon="109.564221">
        <ele>70.682639</ele>
        <time>2026-08-15T06:07:33.000Z</time>
      </trkpt>
      <trkpt lat="23.047958" lon="109.564229">
        <ele>70.680460</ele>
        <time>2026-08-15T06:07:34.000Z</time>
      </trkpt>
      <trkpt lat="23.048009" lon="109.564237">
        <ele>70.678238</ele>
        <time>2026-08-15T06:07:35.000Z</time>
      </trkpt>
      <trkpt lat="23.048060" lon="109.564245">
        <ele>70.676017</ele>
        <time>2026-08-15T06:07:36.000Z</time>
      </trkpt>
      <trkpt lat="23.048111" lon="109.564254">
        <ele>70.673789</ele>
        <time>2026-08-15T06:07:37.000Z</time>
      </trkpt>
      <trkpt lat="23.048162" lon="109.564264">
        <ele>70.671554</ele>
        <time>2026-08-15T06:07:38.000Z</time>
      </trkpt>
      <trkpt lat="23.048211" lon="109.564274">
        <ele>70.669404</ele>
        <time>2026-08-15T06:07:39.000Z</time>
      </trkpt>
      <trkpt lat="23.048260" lon="109.564283">
        <ele>70.667262</ele>
        <time>2026-08-15T06:07:40.000Z</time>
      </trkpt>
      <trkpt lat="23.048310" lon="109.564293">
        <ele>70.665069</ele>
        <time>2026-08-15T06:07:41.000Z</time>
      </trkpt>
      <trkpt lat="23.048359" lon="109.564304">
        <ele>70.662912</ele>
        <time>2026-08-15T06:07:42.000Z</time>
      </trkpt>
      <trkpt lat="23.048409" lon="109.564315">
        <ele>70.660712</ele>
        <time>2026-08-15T06:07:43.000Z</time>
      </trkpt>
      <trkpt lat="23.048457" lon="109.564326">
        <ele>70.658597</ele>
        <time>2026-08-15T06:07:44.000Z</time>
      </trkpt>
      <trkpt lat="23.048506" lon="109.564337">
        <ele>70.656440</ele>
        <time>2026-08-15T06:07:45.000Z</time>
      </trkpt>
      <trkpt lat="23.048556" lon="109.564347">
        <ele>70.654248</ele>
        <time>2026-08-15T06:07:46.000Z</time>
      </trkpt>
      <trkpt lat="23.048607" lon="109.564360">
        <ele>70.651989</ele>
        <time>2026-08-15T06:07:47.000Z</time>
      </trkpt>
      <trkpt lat="23.048658" lon="109.564374">
        <ele>70.649721</ele>
        <time>2026-08-15T06:07:48.000Z</time>
      </trkpt>
      <trkpt lat="23.048711" lon="109.564388">
        <ele>70.647369</ele>
        <time>2026-08-15T06:07:49.000Z</time>
      </trkpt>
      <trkpt lat="23.048762" lon="109.564402">
        <ele>70.645101</ele>
        <time>2026-08-15T06:07:50.000Z</time>
      </trkpt>
      <trkpt lat="23.048813" lon="109.564417">
        <ele>70.642823</ele>
        <time>2026-08-15T06:07:51.000Z</time>
      </trkpt>
      <trkpt lat="23.048864" lon="109.564432">
        <ele>70.640544</ele>
        <time>2026-08-15T06:07:52.000Z</time>
      </trkpt>
      <trkpt lat="23.048914" lon="109.564444">
        <ele>70.638336</ele>
        <time>2026-08-15T06:07:53.000Z</time>
      </trkpt>
      <trkpt lat="23.048962" lon="109.564457">
        <ele>70.636203</ele>
        <time>2026-08-15T06:07:54.000Z</time>
      </trkpt>
      <trkpt lat="23.049010" lon="109.564471">
        <ele>70.634061</ele>
        <time>2026-08-15T06:07:55.000Z</time>
      </trkpt>
      <trkpt lat="23.049058" lon="109.564483">
        <ele>70.631937</ele>
        <time>2026-08-15T06:07:56.000Z</time>
      </trkpt>
      <trkpt lat="23.049106" lon="109.564497">
        <ele>70.629794</ele>
        <time>2026-08-15T06:07:57.000Z</time>
      </trkpt>
      <trkpt lat="23.049151" lon="109.564514">
        <ele>70.627740</ele>
        <time>2026-08-15T06:07:58.000Z</time>
      </trkpt>
      <trkpt lat="23.049198" lon="109.564531">
        <ele>70.625604</ele>
        <time>2026-08-15T06:07:59.000Z</time>
      </trkpt>
      <trkpt lat="23.049246" lon="109.564546">
        <ele>70.623450</ele>
        <time>2026-08-15T06:08:00.000Z</time>
      </trkpt>
      <trkpt lat="23.049294" lon="109.564561">
        <ele>70.621297</ele>
        <time>2026-08-15T06:08:01.000Z</time>
      </trkpt>
      <trkpt lat="23.049343" lon="109.564578">
        <ele>70.619079</ele>
        <time>2026-08-15T06:08:02.000Z</time>
      </trkpt>
      <trkpt lat="23.049394" lon="109.564594">
        <ele>70.619039</ele>
        <time>2026-08-15T06:08:03.000Z</time>
      </trkpt>
      <trkpt lat="23.049443" lon="109.564611">
        <ele>70.629549</ele>
        <time>2026-08-15T06:08:04.000Z</time>
      </trkpt>
      <trkpt lat="23.049492" lon="109.564628">
        <ele>70.640058</ele>
        <time>2026-08-15T06:08:05.000Z</time>
      </trkpt>
      <trkpt lat="23.049539" lon="109.564646">
        <ele>70.650240</ele>
        <time>2026-08-15T06:08:06.000Z</time>
      </trkpt>
      <trkpt lat="23.049586" lon="109.564664">
        <ele>70.660423</ele>
        <time>2026-08-15T06:08:07.000Z</time>
      </trkpt>
      <trkpt lat="23.049633" lon="109.564682">
        <ele>70.670605</ele>
        <time>2026-08-15T06:08:08.000Z</time>
      </trkpt>
      <trkpt lat="23.049679" lon="109.564698">
        <ele>70.680473</ele>
        <time>2026-08-15T06:08:09.000Z</time>
      </trkpt>
      <trkpt lat="23.049728" lon="109.564714">
        <ele>70.690927</ele>
        <time>2026-08-15T06:08:10.000Z</time>
      </trkpt>
      <trkpt lat="23.049775" lon="109.564732">
        <ele>70.701110</ele>
        <time>2026-08-15T06:08:11.000Z</time>
      </trkpt>
      <trkpt lat="23.049824" lon="109.564749">
        <ele>70.711619</ele>
        <time>2026-08-15T06:08:12.000Z</time>
      </trkpt>
      <trkpt lat="23.049871" lon="109.564766">
        <ele>70.721740</ele>
        <time>2026-08-15T06:08:13.000Z</time>
      </trkpt>
      <trkpt lat="23.049919" lon="109.564785">
        <ele>70.732178</ele>
        <time>2026-08-15T06:08:14.000Z</time>
      </trkpt>
      <trkpt lat="23.049967" lon="109.564803">
        <ele>70.742553</ele>
        <time>2026-08-15T06:08:15.000Z</time>
      </trkpt>
      <trkpt lat="23.050014" lon="109.564823">
        <ele>70.752867</ele>
        <time>2026-08-15T06:08:16.000Z</time>
      </trkpt>
      <trkpt lat="23.050061" lon="109.564841">
        <ele>70.763049</ele>
        <time>2026-08-15T06:08:17.000Z</time>
      </trkpt>
      <trkpt lat="23.050108" lon="109.564861">
        <ele>70.773362</ele>
        <time>2026-08-15T06:08:18.000Z</time>
      </trkpt>
      <trkpt lat="23.050155" lon="109.564882">
        <ele>70.783745</ele>
        <time>2026-08-15T06:08:19.000Z</time>
      </trkpt>
      <trkpt lat="23.050202" lon="109.564901">
        <ele>70.793991</ele>
        <time>2026-08-15T06:08:20.000Z</time>
      </trkpt>
      <trkpt lat="23.050249" lon="109.564919">
        <ele>70.804173</ele>
        <time>2026-08-15T06:08:21.000Z</time>
      </trkpt>
      <trkpt lat="23.050295" lon="109.564937">
        <ele>70.814163</ele>
        <time>2026-08-15T06:08:22.000Z</time>
      </trkpt>
      <trkpt lat="23.050338" lon="109.564956">
        <ele>70.823648</ele>
        <time>2026-08-15T06:08:23.000Z</time>
      </trkpt>
      <trkpt lat="23.050382" lon="109.564975">
        <ele>70.833322</ele>
        <time>2026-08-15T06:08:24.000Z</time>
      </trkpt>
      <trkpt lat="23.050426" lon="109.564995">
        <ele>70.843067</ele>
        <time>2026-08-15T06:08:25.000Z</time>
      </trkpt>
      <trkpt lat="23.050469" lon="109.565016">
        <ele>70.852699</ele>
        <time>2026-08-15T06:08:26.000Z</time>
      </trkpt>
      <trkpt lat="23.050513" lon="109.565035">
        <ele>70.862373</ele>
        <time>2026-08-15T06:08:27.000Z</time>
      </trkpt>
      <trkpt lat="23.050554" lon="109.565055">
        <ele>70.871555</ele>
        <time>2026-08-15T06:08:28.000Z</time>
      </trkpt>
      <trkpt lat="23.050597" lon="109.565075">
        <ele>70.881112</ele>
        <time>2026-08-15T06:08:29.000Z</time>
      </trkpt>
      <trkpt lat="23.050636" lon="109.565096">
        <ele>70.890005</ele>
        <time>2026-08-15T06:08:30.000Z</time>
      </trkpt>
      <trkpt lat="23.050678" lon="109.565119">
        <ele>70.899615</ele>
        <time>2026-08-15T06:08:31.000Z</time>
      </trkpt>
      <trkpt lat="23.050723" lon="109.565141">
        <ele>70.909697</ele>
        <time>2026-08-15T06:08:32.000Z</time>
      </trkpt>
      <trkpt lat="23.050769" lon="109.565163">
        <ele>70.919966</ele>
        <time>2026-08-15T06:08:33.000Z</time>
      </trkpt>
      <trkpt lat="23.050817" lon="109.565186">
        <ele>70.930685</ele>
        <time>2026-08-15T06:08:34.000Z</time>
      </trkpt>
      <trkpt lat="23.050864" lon="109.565209">
        <ele>70.941216</ele>
        <time>2026-08-15T06:08:35.000Z</time>
      </trkpt>
      <trkpt lat="23.050913" lon="109.565232">
        <ele>70.952122</ele>
        <time>2026-08-15T06:08:36.000Z</time>
      </trkpt>
      <trkpt lat="23.050962" lon="109.565253">
        <ele>70.962885</ele>
        <time>2026-08-15T06:08:37.000Z</time>
      </trkpt>
      <trkpt lat="23.051013" lon="109.565278">
        <ele>70.974316</ele>
        <time>2026-08-15T06:08:38.000Z</time>
      </trkpt>
      <trkpt lat="23.051061" lon="109.565303">
        <ele>70.985325</ele>
        <time>2026-08-15T06:08:39.000Z</time>
      </trkpt>
      <trkpt lat="23.051109" lon="109.565327">
        <ele>70.998987</ele>
        <time>2026-08-15T06:08:40.000Z</time>
      </trkpt>
      <trkpt lat="23.051159" lon="109.565351">
        <ele>71.013119</ele>
        <time>2026-08-15T06:08:41.000Z</time>
      </trkpt>
      <trkpt lat="23.051206" lon="109.565376">
        <ele>71.026649</ele>
        <time>2026-08-15T06:08:42.000Z</time>
      </trkpt>
      <trkpt lat="23.051252" lon="109.565401">
        <ele>71.039947</ele>
        <time>2026-08-15T06:08:43.000Z</time>
      </trkpt>
      <trkpt lat="23.051300" lon="109.565425">
        <ele>71.053609</ele>
        <time>2026-08-15T06:08:44.000Z</time>
      </trkpt>
      <trkpt lat="23.051345" lon="109.565452">
        <ele>71.066899</ele>
        <time>2026-08-15T06:08:45.000Z</time>
      </trkpt>
      <trkpt lat="23.051391" lon="109.565478">
        <ele>71.080305</ele>
        <time>2026-08-15T06:08:46.000Z</time>
      </trkpt>
      <trkpt lat="23.051436" lon="109.565505">
        <ele>71.093596</ele>
        <time>2026-08-15T06:08:47.000Z</time>
      </trkpt>
      <trkpt lat="23.051480" lon="109.565532">
        <ele>71.106661</ele>
        <time>2026-08-15T06:08:48.000Z</time>
      </trkpt>
      <trkpt lat="23.051525" lon="109.565557">
        <ele>71.119728</ele>
        <time>2026-08-15T06:08:49.000Z</time>
      </trkpt>
      <trkpt lat="23.051568" lon="109.565585">
        <ele>71.132689</ele>
        <time>2026-08-15T06:08:50.000Z</time>
      </trkpt>
      <trkpt lat="23.051611" lon="109.565610">
        <ele>71.145298</ele>
        <time>2026-08-15T06:08:51.000Z</time>
      </trkpt>
      <trkpt lat="23.051652" lon="109.565635">
        <ele>71.157453</ele>
        <time>2026-08-15T06:08:52.000Z</time>
      </trkpt>
      <trkpt lat="23.051692" lon="109.565662">
        <ele>71.169628</ele>
        <time>2026-08-15T06:08:53.000Z</time>
      </trkpt>
      <trkpt lat="23.051730" lon="109.565694">
        <ele>71.182058</ele>
        <time>2026-08-15T06:08:54.000Z</time>
      </trkpt>
      <trkpt lat="23.051767" lon="109.565728">
        <ele>71.194586</ele>
        <time>2026-08-15T06:08:55.000Z</time>
      </trkpt>
      <trkpt lat="23.051804" lon="109.565762">
        <ele>71.207114</ele>
        <time>2026-08-15T06:08:56.000Z</time>
      </trkpt>
      <trkpt lat="23.051845" lon="109.565797">
        <ele>71.220594</ele>
        <time>2026-08-15T06:08:57.000Z</time>
      </trkpt>
      <trkpt lat="23.051884" lon="109.565832">
        <ele>71.233672</ele>
        <time>2026-08-15T06:08:58.000Z</time>
      </trkpt>
      <trkpt lat="23.051923" lon="109.565868">
        <ele>71.246902</ele>
        <time>2026-08-15T06:08:59.000Z</time>
      </trkpt>
      <trkpt lat="23.051962" lon="109.565902">
        <ele>71.259830</ele>
        <time>2026-08-15T06:09:00.000Z</time>
      </trkpt>
      <trkpt lat="23.051999" lon="109.565936">
        <ele>71.272358</ele>
        <time>2026-08-15T06:09:01.000Z</time>
      </trkpt>
      <trkpt lat="23.052036" lon="109.565972">
        <ele>71.285198</ele>
        <time>2026-08-15T06:09:02.000Z</time>
      </trkpt>
      <trkpt lat="23.052069" lon="109.566007">
        <ele>71.297120</ele>
        <time>2026-08-15T06:09:03.000Z</time>
      </trkpt>
      <trkpt lat="23.052105" lon="109.566042">
        <ele>71.309610</ele>
        <time>2026-08-15T06:09:04.000Z</time>
      </trkpt>
      <trkpt lat="23.052146" lon="109.566078">
        <ele>71.323238</ele>
        <time>2026-08-15T06:09:05.000Z</time>
      </trkpt>
      <trkpt lat="23.052188" lon="109.566114">
        <ele>71.337069</ele>
        <time>2026-08-15T06:09:06.000Z</time>
      </trkpt>
      <trkpt lat="23.052228" lon="109.566149">
        <ele>71.350346</ele>
        <time>2026-08-15T06:09:07.000Z</time>
      </trkpt>
      <trkpt lat="23.052266" lon="109.566187">
        <ele>71.363698</ele>
        <time>2026-08-15T06:09:08.000Z</time>
      </trkpt>
      <trkpt lat="23.052301" lon="109.566225">
        <ele>71.376490</ele>
        <time>2026-08-15T06:09:09.000Z</time>
      </trkpt>
      <trkpt lat="23.052336" lon="109.566263">
        <ele>71.389282</ele>
        <time>2026-08-15T06:09:10.000Z</time>
      </trkpt>
      <trkpt lat="23.052372" lon="109.566302">
        <ele>71.402424</ele>
        <time>2026-08-15T06:09:11.000Z</time>
      </trkpt>
      <trkpt lat="23.052409" lon="109.566339">
        <ele>71.415425</ele>
        <time>2026-08-15T06:09:12.000Z</time>
      </trkpt>
      <trkpt lat="23.052446" lon="109.566377">
        <ele>71.428587</ele>
        <time>2026-08-15T06:09:13.000Z</time>
      </trkpt>
      <trkpt lat="23.052482" lon="109.566416">
        <ele>71.441730</ele>
        <time>2026-08-15T06:09:14.000Z</time>
      </trkpt>
      <trkpt lat="23.052518" lon="109.566456">
        <ele>71.454128</ele>
        <time>2026-08-15T06:09:15.000Z</time>
      </trkpt>
      <trkpt lat="23.052554" lon="109.566496">
        <ele>71.465142</ele>
        <time>2026-08-15T06:09:16.000Z</time>
      </trkpt>
      <trkpt lat="23.052590" lon="109.566536">
        <ele>71.476157</ele>
        <time>2026-08-15T06:09:17.000Z</time>
      </trkpt>
      <trkpt lat="23.052628" lon="109.566575">
        <ele>71.487338</ele>
        <time>2026-08-15T06:09:18.000Z</time>
      </trkpt>
      <trkpt lat="23.052664" lon="109.566614">
        <ele>71.498213</ele>
        <time>2026-08-15T06:09:19.000Z</time>
      </trkpt>
      <trkpt lat="23.052700" lon="109.566652">
        <ele>71.508949</ele>
        <time>2026-08-15T06:09:20.000Z</time>
      </trkpt>
      <trkpt lat="23.052736" lon="109.566690">
        <ele>71.519686</ele>
        <time>2026-08-15T06:09:21.000Z</time>
      </trkpt>
      <trkpt lat="23.052771" lon="109.566727">
        <ele>71.530132</ele>
        <time>2026-08-15T06:09:22.000Z</time>
      </trkpt>
      <trkpt lat="23.052805" lon="109.566765">
        <ele>71.540566</ele>
        <time>2026-08-15T06:09:23.000Z</time>
      </trkpt>
      <trkpt lat="23.052841" lon="109.566804">
        <ele>71.551440</ele>
        <time>2026-08-15T06:09:24.000Z</time>
      </trkpt>
      <trkpt lat="23.052876" lon="109.566841">
        <ele>71.561886</ele>
        <time>2026-08-15T06:09:25.000Z</time>
      </trkpt>
      <trkpt lat="23.052905" lon="109.566882">
        <ele>71.572066</ele>
        <time>2026-08-15T06:09:26.000Z</time>
      </trkpt>
      <trkpt lat="23.052933" lon="109.566924">
        <ele>71.582276</ele>
        <time>2026-08-15T06:09:27.000Z</time>
      </trkpt>
      <trkpt lat="23.052966" lon="109.566963">
        <ele>71.592706</ele>
        <time>2026-08-15T06:09:28.000Z</time>
      </trkpt>
      <trkpt lat="23.052998" lon="109.567004">
        <ele>71.603289</ele>
        <time>2026-08-15T06:09:29.000Z</time>
      </trkpt>
      <trkpt lat="23.053030" lon="109.567046">
        <ele>71.614023</ele>
        <time>2026-08-15T06:09:30.000Z</time>
      </trkpt>
      <trkpt lat="23.053061" lon="109.567088">
        <ele>71.624623</ele>
        <time>2026-08-15T06:09:31.000Z</time>
      </trkpt>
      <trkpt lat="23.053096" lon="109.567132">
        <ele>71.636072</ele>
        <time>2026-08-15T06:09:32.000Z</time>
      </trkpt>
      <trkpt lat="23.053123" lon="109.567181">
        <ele>71.647315</ele>
        <time>2026-08-15T06:09:33.000Z</time>
      </trkpt>
      <trkpt lat="23.053158" lon="109.567226">
        <ele>71.658914</ele>
        <time>2026-08-15T06:09:34.000Z</time>
      </trkpt>
      <trkpt lat="23.053194" lon="109.567269">
        <ele>71.670358</ele>
        <time>2026-08-15T06:09:35.000Z</time>
      </trkpt>
      <trkpt lat="23.053230" lon="109.567313">
        <ele>71.681948</ele>
        <time>2026-08-15T06:09:36.000Z</time>
      </trkpt>
      <trkpt lat="23.053266" lon="109.567357">
        <ele>71.693539</ele>
        <time>2026-08-15T06:09:37.000Z</time>
      </trkpt>
      <trkpt lat="23.053303" lon="109.567399">
        <ele>71.704985</ele>
        <time>2026-08-15T06:09:38.000Z</time>
      </trkpt>
      <trkpt lat="23.053335" lon="109.567448">
        <ele>71.716813</ele>
        <time>2026-08-15T06:09:39.000Z</time>
      </trkpt>
      <trkpt lat="23.053368" lon="109.567498">
        <ele>71.728926</ele>
        <time>2026-08-15T06:09:40.000Z</time>
      </trkpt>
      <trkpt lat="23.053403" lon="109.567549">
        <ele>71.741450</ele>
        <time>2026-08-15T06:09:41.000Z</time>
      </trkpt>
      <trkpt lat="23.053439" lon="109.567595">
        <ele>71.753338</ele>
        <time>2026-08-15T06:09:42.000Z</time>
      </trkpt>
      <trkpt lat="23.053476" lon="109.567639">
        <ele>71.765071</ele>
        <time>2026-08-15T06:09:43.000Z</time>
      </trkpt>
      <trkpt lat="23.053512" lon="109.567681">
        <ele>71.776371</ele>
        <time>2026-08-15T06:09:44.000Z</time>
      </trkpt>
      <trkpt lat="23.053548" lon="109.567721">
        <ele>71.787385</ele>
        <time>2026-08-15T06:09:45.000Z</time>
      </trkpt>
      <trkpt lat="23.053582" lon="109.567758">
        <ele>71.797679</ele>
        <time>2026-08-15T06:09:46.000Z</time>
      </trkpt>
      <trkpt lat="23.053613" lon="109.567798">
        <ele>71.807974</ele>
        <time>2026-08-15T06:09:47.000Z</time>
      </trkpt>
      <trkpt lat="23.053646" lon="109.567836">
        <ele>71.818259</ele>
        <time>2026-08-15T06:09:48.000Z</time>
      </trkpt>
      <trkpt lat="23.053679" lon="109.567875">
        <ele>71.828689</ele>
        <time>2026-08-15T06:09:49.000Z</time>
      </trkpt>
      <trkpt lat="23.053713" lon="109.567911">
        <ele>71.859604</ele>
        <time>2026-08-15T06:09:50.000Z</time>
      </trkpt>
      <trkpt lat="23.053747" lon="109.567947">
        <ele>71.918735</ele>
        <time>2026-08-15T06:09:51.000Z</time>
      </trkpt>
      <trkpt lat="23.053779" lon="109.567983">
        <ele>71.976107</ele>
        <time>2026-08-15T06:09:52.000Z</time>
      </trkpt>
      <trkpt lat="23.053810" lon="109.568018">
        <ele>72.031790</ele>
        <time>2026-08-15T06:09:53.000Z</time>
      </trkpt>
      <trkpt lat="23.053844" lon="109.568049">
        <ele>72.087073</ele>
        <time>2026-08-15T06:09:54.000Z</time>
      </trkpt>
      <trkpt lat="23.053871" lon="109.568084">
        <ele>72.139424</ele>
        <time>2026-08-15T06:09:55.000Z</time>
      </trkpt>
      <trkpt lat="23.053898" lon="109.568120">
        <ele>72.192657</ele>
        <time>2026-08-15T06:09:56.000Z</time>
      </trkpt>
      <trkpt lat="23.053928" lon="109.568156">
        <ele>72.248328</ele>
        <time>2026-08-15T06:09:57.000Z</time>
      </trkpt>
      <trkpt lat="23.053957" lon="109.568191">
        <ele>72.302312</ele>
        <time>2026-08-15T06:09:58.000Z</time>
      </trkpt>
      <trkpt lat="23.053983" lon="109.568226">
        <ele>72.353871</ele>
        <time>2026-08-15T06:09:59.000Z</time>
      </trkpt>
      <trkpt lat="23.054000" lon="109.568261">
        <ele>72.399234</ele>
        <time>2026-08-15T06:10:00.000Z</time>
      </trkpt>
      <trkpt lat="23.054013" lon="109.568298">
        <ele>72.444630</ele>
        <time>2026-08-15T06:10:01.000Z</time>
      </trkpt>
      <trkpt lat="23.054023" lon="109.568337">
        <ele>72.491034</ele>
        <time>2026-08-15T06:10:02.000Z</time>
      </trkpt>
      <trkpt lat="23.054030" lon="109.568377">
        <ele>72.537704</ele>
        <time>2026-08-15T06:10:03.000Z</time>
      </trkpt>
      <trkpt lat="23.054036" lon="109.568417">
        <ele>72.584157</ele>
        <time>2026-08-15T06:10:04.000Z</time>
      </trkpt>
      <trkpt lat="23.054036" lon="109.568460">
        <ele>72.633443</ele>
        <time>2026-08-15T06:10:05.000Z</time>
      </trkpt>
      <trkpt lat="23.054029" lon="109.568502">
        <ele>72.682366</ele>
        <time>2026-08-15T06:10:06.000Z</time>
      </trkpt>
      <trkpt lat="23.054018" lon="109.568540">
        <ele>72.728026</ele>
        <time>2026-08-15T06:10:07.000Z</time>
      </trkpt>
      <trkpt lat="23.053999" lon="109.568578">
        <ele>72.777597</ele>
        <time>2026-08-15T06:10:08.000Z</time>
      </trkpt>
      <trkpt lat="23.053976" lon="109.568611">
        <ele>72.825047</ele>
        <time>2026-08-15T06:10:09.000Z</time>
      </trkpt>
      <trkpt lat="23.053945" lon="109.568640">
        <ele>72.875999</ele>
        <time>2026-08-15T06:10:10.000Z</time>
      </trkpt>
      <trkpt lat="23.053914" lon="109.568667">
        <ele>72.925485</ele>
        <time>2026-08-15T06:10:11.000Z</time>
      </trkpt>
      <trkpt lat="23.053886" lon="109.568697">
        <ele>72.974464</ele>
        <time>2026-08-15T06:10:12.000Z</time>
      </trkpt>
      <trkpt lat="23.053855" lon="109.568724">
        <ele>73.023951</ele>
        <time>2026-08-15T06:10:13.000Z</time>
      </trkpt>
      <trkpt lat="23.053825" lon="109.568752">
        <ele>73.073210</ele>
        <time>2026-08-15T06:10:14.000Z</time>
      </trkpt>
      <trkpt lat="23.053795" lon="109.568777">
        <ele>73.120302</ele>
        <time>2026-08-15T06:10:15.000Z</time>
      </trkpt>
      <trkpt lat="23.053764" lon="109.568799">
        <ele>73.166422</ele>
        <time>2026-08-15T06:10:16.000Z</time>
      </trkpt>
      <trkpt lat="23.053733" lon="109.568823">
        <ele>73.213834</ele>
        <time>2026-08-15T06:10:17.000Z</time>
      </trkpt>
      <trkpt lat="23.053703" lon="109.568847">
        <ele>73.260238</ele>
        <time>2026-08-15T06:10:18.000Z</time>
      </trkpt>
      <trkpt lat="23.053673" lon="109.568872">
        <ele>73.307330</ele>
        <time>2026-08-15T06:10:19.000Z</time>
      </trkpt>
      <trkpt lat="23.053641" lon="109.568897">
        <ele>73.356422</ele>
        <time>2026-08-15T06:10:20.000Z</time>
      </trkpt>
      <trkpt lat="23.053609" lon="109.568923">
        <ele>73.406192</ele>
        <time>2026-08-15T06:10:21.000Z</time>
      </trkpt>
      <trkpt lat="23.053577" lon="109.568949">
        <ele>73.455962</ele>
        <time>2026-08-15T06:10:22.000Z</time>
      </trkpt>
      <trkpt lat="23.053545" lon="109.568976">
        <ele>73.506427</ele>
        <time>2026-08-15T06:10:23.000Z</time>
      </trkpt>
      <trkpt lat="23.053514" lon="109.569003">
        <ele>73.555913</ele>
        <time>2026-08-15T06:10:24.000Z</time>
      </trkpt>
      <trkpt lat="23.053483" lon="109.569031">
        <ele>73.606125</ele>
        <time>2026-08-15T06:10:25.000Z</time>
      </trkpt>
      <trkpt lat="23.053451" lon="109.569057">
        <ele>73.655895</ele>
        <time>2026-08-15T06:10:26.000Z</time>
      </trkpt>
      <trkpt lat="23.053417" lon="109.569084">
        <ele>73.708350</ele>
        <time>2026-08-15T06:10:27.000Z</time>
      </trkpt>
      <trkpt lat="23.053384" lon="109.569112">
        <ele>73.760501</ele>
        <time>2026-08-15T06:10:28.000Z</time>
      </trkpt>
      <trkpt lat="23.053354" lon="109.569140">
        <ele>73.809761</ele>
        <time>2026-08-15T06:10:29.000Z</time>
      </trkpt>
      <trkpt lat="23.053323" lon="109.569168">
        <ele>73.859973</ele>
        <time>2026-08-15T06:10:30.000Z</time>
      </trkpt>
      <trkpt lat="23.053292" lon="109.569194">
        <ele>73.908751</ele>
        <time>2026-08-15T06:10:31.000Z</time>
      </trkpt>
      <trkpt lat="23.053261" lon="109.569220">
        <ele>73.957529</ele>
        <time>2026-08-15T06:10:32.000Z</time>
      </trkpt>
      <trkpt lat="23.053232" lon="109.569246">
        <ele>74.004359</ele>
        <time>2026-08-15T06:10:33.000Z</time>
      </trkpt>
      <trkpt lat="23.053201" lon="109.569271">
        <ele>74.052446</ele>
        <time>2026-08-15T06:10:34.000Z</time>
      </trkpt>
      <trkpt lat="23.053170" lon="109.569296">
        <ele>74.106281</ele>
        <time>2026-08-15T06:10:35.000Z</time>
      </trkpt>
      <trkpt lat="23.053139" lon="109.569320">
        <ele>74.164397</ele>
        <time>2026-08-15T06:10:36.000Z</time>
      </trkpt>
      <trkpt lat="23.053109" lon="109.569345">
        <ele>74.222120</ele>
        <time>2026-08-15T06:10:37.000Z</time>
      </trkpt>
      <trkpt lat="23.053079" lon="109.569372">
        <ele>74.281595</ele>
        <time>2026-08-15T06:10:38.000Z</time>
      </trkpt>
      <trkpt lat="23.053050" lon="109.569398">
        <ele>74.338998</ele>
        <time>2026-08-15T06:10:39.000Z</time>
      </trkpt>
      <trkpt lat="23.053019" lon="109.569424">
        <ele>74.398788</ele>
        <time>2026-08-15T06:10:40.000Z</time>
      </trkpt>
      <trkpt lat="23.052989" lon="109.569450">
        <ele>74.457377</ele>
        <time>2026-08-15T06:10:41.000Z</time>
      </trkpt>
      <trkpt lat="23.052958" lon="109.569476">
        <ele>74.517167</ele>
        <time>2026-08-15T06:10:42.000Z</time>
      </trkpt>
      <trkpt lat="23.052928" lon="109.569502">
        <ele>74.575756</ele>
        <time>2026-08-15T06:10:43.000Z</time>
      </trkpt>
      <trkpt lat="23.052897" lon="109.569528">
        <ele>74.635546</ele>
        <time>2026-08-15T06:10:44.000Z</time>
      </trkpt>
      <trkpt lat="23.052864" lon="109.569553">
        <ele>74.696968</ele>
        <time>2026-08-15T06:10:45.000Z</time>
      </trkpt>
      <trkpt lat="23.052832" lon="109.569579">
        <ele>74.757974</ele>
        <time>2026-08-15T06:10:46.000Z</time>
      </trkpt>
      <trkpt lat="23.052800" lon="109.569606">
        <ele>74.819831</ele>
        <time>2026-08-15T06:10:47.000Z</time>
      </trkpt>
      <trkpt lat="23.052767" lon="109.569635">
        <ele>74.884631</ele>
        <time>2026-08-15T06:10:48.000Z</time>
      </trkpt>
      <trkpt lat="23.052735" lon="109.569662">
        <ele>74.946489</ele>
        <time>2026-08-15T06:10:49.000Z</time>
      </trkpt>
      <trkpt lat="23.052703" lon="109.569688">
        <ele>75.007495</ele>
        <time>2026-08-15T06:10:50.000Z</time>
      </trkpt>
      <trkpt lat="23.052672" lon="109.569714">
        <ele>75.067285</ele>
        <time>2026-08-15T06:10:51.000Z</time>
      </trkpt>
      <trkpt lat="23.052640" lon="109.569742">
        <ele>75.130014</ele>
        <time>2026-08-15T06:10:52.000Z</time>
      </trkpt>
      <trkpt lat="23.052609" lon="109.569768">
        <ele>75.189804</ele>
        <time>2026-08-15T06:10:53.000Z</time>
      </trkpt>
      <trkpt lat="23.052578" lon="109.569795">
        <ele>75.250463</ele>
        <time>2026-08-15T06:10:54.000Z</time>
      </trkpt>
      <trkpt lat="23.052547" lon="109.569823">
        <ele>75.312010</ele>
        <time>2026-08-15T06:10:55.000Z</time>
      </trkpt>
      <trkpt lat="23.052515" lon="109.569850">
        <ele>75.373868</ele>
        <time>2026-08-15T06:10:56.000Z</time>
      </trkpt>
      <trkpt lat="23.052484" lon="109.569877">
        <ele>75.434527</ele>
        <time>2026-08-15T06:10:57.000Z</time>
      </trkpt>
      <trkpt lat="23.052453" lon="109.569902">
        <ele>75.493469</ele>
        <time>2026-08-15T06:10:58.000Z</time>
      </trkpt>
      <trkpt lat="23.052421" lon="109.569928">
        <ele>75.554475</ele>
        <time>2026-08-15T06:10:59.000Z</time>
      </trkpt>
      <trkpt lat="23.052389" lon="109.569955">
        <ele>75.616333</ele>
        <time>2026-08-15T06:11:00.000Z</time>
      </trkpt>
      <trkpt lat="23.052358" lon="109.569982">
        <ele>75.676992</ele>
        <time>2026-08-15T06:11:01.000Z</time>
      </trkpt>
      <trkpt lat="23.052328" lon="109.570010">
        <ele>75.737372</ele>
        <time>2026-08-15T06:11:02.000Z</time>
      </trkpt>
      <trkpt lat="23.052296" lon="109.570037">
        <ele>75.799230</ele>
        <time>2026-08-15T06:11:03.000Z</time>
      </trkpt>
      <trkpt lat="23.052264" lon="109.570065">
        <ele>75.861959</ele>
        <time>2026-08-15T06:11:04.000Z</time>
      </trkpt>
      <trkpt lat="23.052233" lon="109.570095">
        <ele>75.925339</ele>
        <time>2026-08-15T06:11:05.000Z</time>
      </trkpt>
      <trkpt lat="23.052202" lon="109.570124">
        <ele>75.987794</ele>
        <time>2026-08-15T06:11:06.000Z</time>
      </trkpt>
      <trkpt lat="23.052169" lon="109.570151">
        <ele>76.050865</ele>
        <time>2026-08-15T06:11:07.000Z</time>
      </trkpt>
      <trkpt lat="23.052137" lon="109.570178">
        <ele>76.112723</ele>
        <time>2026-08-15T06:11:08.000Z</time>
      </trkpt>
      <trkpt lat="23.052104" lon="109.570206">
        <ele>76.176648</ele>
        <time>2026-08-15T06:11:09.000Z</time>
      </trkpt>
      <trkpt lat="23.052072" lon="109.570234">
        <ele>76.239377</ele>
        <time>2026-08-15T06:11:10.000Z</time>
      </trkpt>
      <trkpt lat="23.052040" lon="109.570261">
        <ele>76.301235</ele>
        <time>2026-08-15T06:11:11.000Z</time>
      </trkpt>
      <trkpt lat="23.052008" lon="109.570288">
        <ele>76.363093</ele>
        <time>2026-08-15T06:11:12.000Z</time>
      </trkpt>
      <trkpt lat="23.051977" lon="109.570314">
        <ele>76.422883</ele>
        <time>2026-08-15T06:11:13.000Z</time>
      </trkpt>
      <trkpt lat="23.051945" lon="109.570341">
        <ele>76.484741</ele>
        <time>2026-08-15T06:11:14.000Z</time>
      </trkpt>
      <trkpt lat="23.051912" lon="109.570368">
        <ele>76.547812</ele>
        <time>2026-08-15T06:11:15.000Z</time>
      </trkpt>
      <trkpt lat="23.051880" lon="109.570395">
        <ele>76.609669</ele>
        <time>2026-08-15T06:11:16.000Z</time>
      </trkpt>
      <trkpt lat="23.051847" lon="109.570423">
        <ele>76.673595</ele>
        <time>2026-08-15T06:11:17.000Z</time>
      </trkpt>
      <trkpt lat="23.051813" lon="109.570450">
        <ele>76.737892</ele>
        <time>2026-08-15T06:11:18.000Z</time>
      </trkpt>
      <trkpt lat="23.051781" lon="109.570478">
        <ele>76.800622</ele>
        <time>2026-08-15T06:11:19.000Z</time>
      </trkpt>
      <trkpt lat="23.051748" lon="109.570507">
        <ele>76.875115</ele>
        <time>2026-08-15T06:11:20.000Z</time>
      </trkpt>
      <trkpt lat="23.051716" lon="109.570535">
        <ele>76.951660</ele>
        <time>2026-08-15T06:11:21.000Z</time>
      </trkpt>
      <trkpt lat="23.051684" lon="109.570565">
        <ele>77.030401</ele>
        <time>2026-08-15T06:11:22.000Z</time>
      </trkpt>
      <trkpt lat="23.051649" lon="109.570593">
        <ele>77.111376</ele>
        <time>2026-08-15T06:11:23.000Z</time>
      </trkpt>
      <trkpt lat="23.051612" lon="109.570622">
        <ele>77.196372</ele>
        <time>2026-08-15T06:11:24.000Z</time>
      </trkpt>
      <trkpt lat="23.051575" lon="109.570654">
        <ele>77.284476</ele>
        <time>2026-08-15T06:11:25.000Z</time>
      </trkpt>
      <trkpt lat="23.051539" lon="109.570686">
        <ele>77.371130</ele>
        <time>2026-08-15T06:11:26.000Z</time>
      </trkpt>
      <trkpt lat="23.051505" lon="109.570716">
        <ele>77.452729</ele>
        <time>2026-08-15T06:11:27.000Z</time>
      </trkpt>
      <trkpt lat="23.051471" lon="109.570746">
        <ele>77.534328</ele>
        <time>2026-08-15T06:11:28.000Z</time>
      </trkpt>
      <trkpt lat="23.051437" lon="109.570777">
        <ele>77.617018</ele>
        <time>2026-08-15T06:11:29.000Z</time>
      </trkpt>
      <trkpt lat="23.051402" lon="109.570808">
        <ele>77.701144</ele>
        <time>2026-08-15T06:11:30.000Z</time>
      </trkpt>
      <trkpt lat="23.051368" lon="109.570838">
        <ele>77.782743</ele>
        <time>2026-08-15T06:11:31.000Z</time>
      </trkpt>
      <trkpt lat="23.051334" lon="109.570867">
        <ele>77.863272</ele>
        <time>2026-08-15T06:11:32.000Z</time>
      </trkpt>
      <trkpt lat="23.051299" lon="109.570895">
        <ele>77.944247</ele>
        <time>2026-08-15T06:11:33.000Z</time>
      </trkpt>
      <trkpt lat="23.051265" lon="109.570923">
        <ele>78.023730</ele>
        <time>2026-08-15T06:11:34.000Z</time>
      </trkpt>
      <trkpt lat="23.051231" lon="109.570953">
        <ele>78.105329</ele>
        <time>2026-08-15T06:11:35.000Z</time>
      </trkpt>
      <trkpt lat="23.051198" lon="109.570982">
        <ele>78.184401</ele>
        <time>2026-08-15T06:11:36.000Z</time>
      </trkpt>
      <trkpt lat="23.051165" lon="109.571011">
        <ele>78.263473</ele>
        <time>2026-08-15T06:11:37.000Z</time>
      </trkpt>
      <trkpt lat="23.051134" lon="109.571040">
        <ele>78.339683</ele>
        <time>2026-08-15T06:11:38.000Z</time>
      </trkpt>
      <trkpt lat="23.051102" lon="109.571068">
        <ele>78.416229</ele>
        <time>2026-08-15T06:11:39.000Z</time>
      </trkpt>
      <trkpt lat="23.051070" lon="109.571097">
        <ele>78.493861</ele>
        <time>2026-08-15T06:11:40.000Z</time>
      </trkpt>
      <trkpt lat="23.051040" lon="109.571127">
        <ele>78.569819</ele>
        <time>2026-08-15T06:11:41.000Z</time>
      </trkpt>
      <trkpt lat="23.051009" lon="109.571157">
        <ele>78.647159</ele>
        <time>2026-08-15T06:11:42.000Z</time>
      </trkpt>
      <trkpt lat="23.050979" lon="109.571189">
        <ele>78.725480</ele>
        <time>2026-08-15T06:11:43.000Z</time>
      </trkpt>
      <trkpt lat="23.050949" lon="109.571220">
        <ele>78.802610</ele>
        <time>2026-08-15T06:11:44.000Z</time>
      </trkpt>
      <trkpt lat="23.050920" lon="109.571250">
        <ele>78.877208</ele>
        <time>2026-08-15T06:11:45.000Z</time>
      </trkpt>
      <trkpt lat="23.050889" lon="109.571277">
        <ele>78.951227</ele>
        <time>2026-08-15T06:11:46.000Z</time>
      </trkpt>
      <trkpt lat="23.050857" lon="109.571304">
        <ele>79.026710</ele>
        <time>2026-08-15T06:11:47.000Z</time>
      </trkpt>
      <trkpt lat="23.050824" lon="109.571329">
        <ele>79.101660</ele>
        <time>2026-08-15T06:11:48.000Z</time>
      </trkpt>
      <trkpt lat="23.050794" lon="109.571357">
        <ele>79.175340</ele>
        <time>2026-08-15T06:11:49.000Z</time>
      </trkpt>
      <trkpt lat="23.050765" lon="109.571387">
        <ele>79.249938</ele>
        <time>2026-08-15T06:11:50.000Z</time>
      </trkpt>
      <trkpt lat="23.050738" lon="109.571419">
        <ele>79.324373</ele>
        <time>2026-08-15T06:11:51.000Z</time>
      </trkpt>
      <trkpt lat="23.050713" lon="109.571453">
        <ele>79.398989</ele>
        <time>2026-08-15T06:11:52.000Z</time>
      </trkpt>
      <trkpt lat="23.050688" lon="109.571485">
        <ele>79.470957</ele>
        <time>2026-08-15T06:11:53.000Z</time>
      </trkpt>
      <trkpt lat="23.050663" lon="109.571516">
        <ele>79.541628</ele>
        <time>2026-08-15T06:11:54.000Z</time>
      </trkpt>
      <trkpt lat="23.050640" lon="109.571546">
        <ele>79.608574</ele>
        <time>2026-08-15T06:11:55.000Z</time>
      </trkpt>
      <trkpt lat="23.050617" lon="109.571576">
        <ele>79.675520</ele>
        <time>2026-08-15T06:11:56.000Z</time>
      </trkpt>
      <trkpt lat="23.050594" lon="109.571606">
        <ele>79.742467</ele>
        <time>2026-08-15T06:11:57.000Z</time>
      </trkpt>
      <trkpt lat="23.050571" lon="109.571635">
        <ele>79.808105</ele>
        <time>2026-08-15T06:11:58.000Z</time>
      </trkpt>
      <trkpt lat="23.050549" lon="109.571666">
        <ele>79.875223</ele>
        <time>2026-08-15T06:11:59.000Z</time>
      </trkpt>
      <trkpt lat="23.050526" lon="109.571699">
        <ele>79.946197</ele>
        <time>2026-08-15T06:12:00.000Z</time>
      </trkpt>
      <trkpt lat="23.050505" lon="109.571732">
        <ele>80.014985</ele>
        <time>2026-08-15T06:12:01.000Z</time>
      </trkpt>
      <trkpt lat="23.050484" lon="109.571764">
        <ele>80.082371</ele>
        <time>2026-08-15T06:12:02.000Z</time>
      </trkpt>
      <trkpt lat="23.050462" lon="109.571796">
        <ele>80.150855</ele>
        <time>2026-08-15T06:12:03.000Z</time>
      </trkpt>
      <trkpt lat="23.050441" lon="109.571828">
        <ele>80.240656</ele>
        <time>2026-08-15T06:12:04.000Z</time>
      </trkpt>
      <trkpt lat="23.050420" lon="109.571863">
        <ele>80.347501</ele>
        <time>2026-08-15T06:12:05.000Z</time>
      </trkpt>
      <trkpt lat="23.050399" lon="109.571897">
        <ele>80.452214</ele>
        <time>2026-08-15T06:12:06.000Z</time>
      </trkpt>
      <trkpt lat="23.050379" lon="109.571930">
        <ele>80.553259</ele>
        <time>2026-08-15T06:12:07.000Z</time>
      </trkpt>
      <trkpt lat="23.050359" lon="109.571966">
        <ele>80.660794</ele>
        <time>2026-08-15T06:12:08.000Z</time>
      </trkpt>
      <trkpt lat="23.050338" lon="109.572001">
        <ele>80.767639</ele>
        <time>2026-08-15T06:12:09.000Z</time>
      </trkpt>
      <trkpt lat="23.050315" lon="109.572039">
        <ele>80.883948</ele>
        <time>2026-08-15T06:12:10.000Z</time>
      </trkpt>
      <trkpt lat="23.050293" lon="109.572076">
        <ele>80.996596</ele>
        <time>2026-08-15T06:12:11.000Z</time>
      </trkpt>
      <trkpt lat="23.050272" lon="109.572113">
        <ele>81.107761</ele>
        <time>2026-08-15T06:12:12.000Z</time>
      </trkpt>
      <trkpt lat="23.050251" lon="109.572149">
        <ele>81.216758</ele>
        <time>2026-08-15T06:12:13.000Z</time>
      </trkpt>
      <trkpt lat="23.050231" lon="109.572186">
        <ele>81.326490</ele>
        <time>2026-08-15T06:12:14.000Z</time>
      </trkpt>
      <trkpt lat="23.050210" lon="109.572222">
        <ele>81.435486</ele>
        <time>2026-08-15T06:12:15.000Z</time>
      </trkpt>
      <trkpt lat="23.050188" lon="109.572256">
        <ele>81.541773</ele>
        <time>2026-08-15T06:12:16.000Z</time>
      </trkpt>
      <trkpt lat="23.050167" lon="109.572290">
        <ele>81.646486</ele>
        <time>2026-08-15T06:12:17.000Z</time>
      </trkpt>
      <trkpt lat="23.050147" lon="109.572322">
        <ele>81.745406</ele>
        <time>2026-08-15T06:12:18.000Z</time>
      </trkpt>
      <trkpt lat="23.050125" lon="109.572357">
        <ele>81.853795</ele>
        <time>2026-08-15T06:12:19.000Z</time>
      </trkpt>
      <trkpt lat="23.050106" lon="109.572392">
        <ele>81.957709</ele>
        <time>2026-08-15T06:12:20.000Z</time>
      </trkpt>
      <trkpt lat="23.050088" lon="109.572429">
        <ele>82.064733</ele>
        <time>2026-08-15T06:12:21.000Z</time>
      </trkpt>
      <trkpt lat="23.050070" lon="109.572466">
        <ele>82.171757</ele>
        <time>2026-08-15T06:12:22.000Z</time>
      </trkpt>
      <trkpt lat="23.050053" lon="109.572503">
        <ele>82.277510</ele>
        <time>2026-08-15T06:12:23.000Z</time>
      </trkpt>
      <trkpt lat="23.050035" lon="109.572541">
        <ele>82.386801</ele>
        <time>2026-08-15T06:12:24.000Z</time>
      </trkpt>
      <trkpt lat="23.050017" lon="109.572578">
        <ele>82.493825</ele>
        <time>2026-08-15T06:12:25.000Z</time>
      </trkpt>
      <trkpt lat="23.050000" lon="109.572616">
        <ele>82.601872</ele>
        <time>2026-08-15T06:12:26.000Z</time>
      </trkpt>
      <trkpt lat="23.049983" lon="109.572652">
        <ele>82.705344</ele>
        <time>2026-08-15T06:12:27.000Z</time>
      </trkpt>
      <trkpt lat="23.049966" lon="109.572689">
        <ele>82.811097</ele>
        <time>2026-08-15T06:12:28.000Z</time>
      </trkpt>
      <trkpt lat="23.049950" lon="109.572727">
        <ele>82.917959</ele>
        <time>2026-08-15T06:12:29.000Z</time>
      </trkpt>
      <trkpt lat="23.049934" lon="109.572764">
        <ele>83.022500</ele>
        <time>2026-08-15T06:12:30.000Z</time>
      </trkpt>
      <trkpt lat="23.049917" lon="109.572802">
        <ele>83.130548</ele>
        <time>2026-08-15T06:12:31.000Z</time>
      </trkpt>
      <trkpt lat="23.049899" lon="109.572839">
        <ele>83.237571</ele>
        <time>2026-08-15T06:12:32.000Z</time>
      </trkpt>
      <trkpt lat="23.049883" lon="109.572878">
        <ele>83.346763</ele>
        <time>2026-08-15T06:12:33.000Z</time>
      </trkpt>
      <trkpt lat="23.049866" lon="109.572915">
        <ele>83.452517</ele>
        <time>2026-08-15T06:12:34.000Z</time>
      </trkpt>
      <trkpt lat="23.049848" lon="109.572953">
        <ele>83.561808</ele>
        <time>2026-08-15T06:12:35.000Z</time>
      </trkpt>
      <trkpt lat="23.049833" lon="109.572990">
        <ele>83.665198</ele>
        <time>2026-08-15T06:12:36.000Z</time>
      </trkpt>
      <trkpt lat="23.049818" lon="109.573026">
        <ele>83.766254</ele>
        <time>2026-08-15T06:12:37.000Z</time>
      </trkpt>
      <trkpt lat="23.049802" lon="109.573063">
        <ele>83.870795</ele>
        <time>2026-08-15T06:12:38.000Z</time>
      </trkpt>
      <trkpt lat="23.049786" lon="109.573100">
        <ele>83.975337</ele>
        <time>2026-08-15T06:12:39.000Z</time>
      </trkpt>
      <trkpt lat="23.049771" lon="109.573137">
        <ele>84.078727</ele>
        <time>2026-08-15T06:12:40.000Z</time>
      </trkpt>
      <trkpt lat="23.049756" lon="109.573174">
        <ele>84.182117</ele>
        <time>2026-08-15T06:12:41.000Z</time>
      </trkpt>
      <trkpt lat="23.049741" lon="109.573211">
        <ele>84.285508</ele>
        <time>2026-08-15T06:12:42.000Z</time>
      </trkpt>
      <trkpt lat="23.049726" lon="109.573249">
        <ele>84.391243</ele>
        <time>2026-08-15T06:12:43.000Z</time>
      </trkpt>
      <trkpt lat="23.049711" lon="109.573286">
        <ele>84.494634</ele>
        <time>2026-08-15T06:12:44.000Z</time>
      </trkpt>
      <trkpt lat="23.049697" lon="109.573321">
        <ele>84.592224</ele>
        <time>2026-08-15T06:12:45.000Z</time>
      </trkpt>
      <trkpt lat="23.049683" lon="109.573356">
        <ele>84.689815</ele>
        <time>2026-08-15T06:12:46.000Z</time>
      </trkpt>
      <trkpt lat="23.049668" lon="109.573390">
        <ele>84.786235</ele>
        <time>2026-08-15T06:12:47.000Z</time>
      </trkpt>
      <trkpt lat="23.049654" lon="109.573424">
        <ele>84.881486</ele>
        <time>2026-08-15T06:12:48.000Z</time>
      </trkpt>
      <trkpt lat="23.049640" lon="109.573455">
        <ele>84.969791</ele>
        <time>2026-08-15T06:12:49.000Z</time>
      </trkpt>
      <trkpt lat="23.049626" lon="109.573485">
        <ele>85.055807</ele>
        <time>2026-08-15T06:12:50.000Z</time>
      </trkpt>
      <trkpt lat="23.049614" lon="109.573517">
        <ele>85.144170</ele>
        <time>2026-08-15T06:12:51.000Z</time>
      </trkpt>
      <trkpt lat="23.049602" lon="109.573549">
        <ele>85.205571</ele>
        <time>2026-08-15T06:12:52.000Z</time>
      </trkpt>
      <trkpt lat="23.049589" lon="109.573581">
        <ele>85.255773</ele>
        <time>2026-08-15T06:12:53.000Z</time>
      </trkpt>
      <trkpt lat="23.049576" lon="109.573613">
        <ele>85.305974</ele>
        <time>2026-08-15T06:12:54.000Z</time>
      </trkpt>
      <trkpt lat="23.049563" lon="109.573645">
        <ele>85.356176</ele>
        <time>2026-08-15T06:12:55.000Z</time>
      </trkpt>
      <trkpt lat="23.049549" lon="109.573676">
        <ele>85.405735</ele>
        <time>2026-08-15T06:12:56.000Z</time>
      </trkpt>
      <trkpt lat="23.049535" lon="109.573707">
        <ele>85.455294</ele>
        <time>2026-08-15T06:12:57.000Z</time>
      </trkpt>
      <trkpt lat="23.049520" lon="109.573739">
        <ele>85.506834</ele>
        <time>2026-08-15T06:12:58.000Z</time>
      </trkpt>
      <trkpt lat="23.049504" lon="109.573772">
        <ele>85.560367</ele>
        <time>2026-08-15T06:12:59.000Z</time>
      </trkpt>
      <trkpt lat="23.049490" lon="109.573804">
        <ele>85.611218</ele>
        <time>2026-08-15T06:13:00.000Z</time>
      </trkpt>
      <trkpt lat="23.049476" lon="109.573838">
        <ele>85.664676</ele>
        <time>2026-08-15T06:13:01.000Z</time>
      </trkpt>
      <trkpt lat="23.049463" lon="109.573872">
        <ele>85.717516</ele>
        <time>2026-08-15T06:13:02.000Z</time>
      </trkpt>
      <trkpt lat="23.049450" lon="109.573906">
        <ele>85.770356</ele>
        <time>2026-08-15T06:13:03.000Z</time>
      </trkpt>
      <trkpt lat="23.049436" lon="109.573939">
        <ele>85.822507</ele>
        <time>2026-08-15T06:13:04.000Z</time>
      </trkpt>
      <trkpt lat="23.049423" lon="109.573972">
        <ele>85.874025</ele>
        <time>2026-08-15T06:13:05.000Z</time>
      </trkpt>
      <trkpt lat="23.049410" lon="109.574007">
        <ele>85.928193</ele>
        <time>2026-08-15T06:13:06.000Z</time>
      </trkpt>
      <trkpt lat="23.049396" lon="109.574040">
        <ele>85.980344</ele>
        <time>2026-08-15T06:13:07.000Z</time>
      </trkpt>
      <trkpt lat="23.049382" lon="109.574073">
        <ele>86.032496</ele>
        <time>2026-08-15T06:13:08.000Z</time>
      </trkpt>
      <trkpt lat="23.049369" lon="109.574106">
        <ele>86.084013</ele>
        <time>2026-08-15T06:13:09.000Z</time>
      </trkpt>
      <trkpt lat="23.049356" lon="109.574139">
        <ele>86.135531</ele>
        <time>2026-08-15T06:13:10.000Z</time>
      </trkpt>
      <trkpt lat="23.049342" lon="109.574172">
        <ele>86.187682</ele>
        <time>2026-08-15T06:13:11.000Z</time>
      </trkpt>
      <trkpt lat="23.049327" lon="109.574205">
        <ele>86.240505</ele>
        <time>2026-08-15T06:13:12.000Z</time>
      </trkpt>
      <trkpt lat="23.049312" lon="109.574238">
        <ele>86.293329</ele>
        <time>2026-08-15T06:13:13.000Z</time>
      </trkpt>
      <trkpt lat="23.049298" lon="109.574271">
        <ele>86.345480</ele>
        <time>2026-08-15T06:13:14.000Z</time>
      </trkpt>
      <trkpt lat="23.049284" lon="109.574305">
        <ele>86.398938</ele>
        <time>2026-08-15T06:13:15.000Z</time>
      </trkpt>
      <trkpt lat="23.049271" lon="109.574339">
        <ele>86.451778</ele>
        <time>2026-08-15T06:13:16.000Z</time>
      </trkpt>
      <trkpt lat="23.049257" lon="109.574374">
        <ele>86.506549</ele>
        <time>2026-08-15T06:13:17.000Z</time>
      </trkpt>
      <trkpt lat="23.049243" lon="109.574409">
        <ele>86.561320</ele>
        <time>2026-08-15T06:13:18.000Z</time>
      </trkpt>
      <trkpt lat="23.049229" lon="109.574444">
        <ele>86.616091</ele>
        <time>2026-08-15T06:13:19.000Z</time>
      </trkpt>
      <trkpt lat="23.049214" lon="109.574479">
        <ele>86.671503</ele>
        <time>2026-08-15T06:13:20.000Z</time>
      </trkpt>
      <trkpt lat="23.049199" lon="109.574512">
        <ele>86.724326</ele>
        <time>2026-08-15T06:13:21.000Z</time>
      </trkpt>
      <trkpt lat="23.049184" lon="109.574546">
        <ele>86.778440</ele>
        <time>2026-08-15T06:13:22.000Z</time>
      </trkpt>
      <trkpt lat="23.049169" lon="109.574579">
        <ele>86.831263</ele>
        <time>2026-08-15T06:13:23.000Z</time>
      </trkpt>
      <trkpt lat="23.049155" lon="109.574612">
        <ele>86.883414</ele>
        <time>2026-08-15T06:13:24.000Z</time>
      </trkpt>
      <trkpt lat="23.049140" lon="109.574647">
        <ele>86.938826</ele>
        <time>2026-08-15T06:13:25.000Z</time>
      </trkpt>
      <trkpt lat="23.049125" lon="109.574683">
        <ele>86.995541</ele>
        <time>2026-08-15T06:13:26.000Z</time>
      </trkpt>
      <trkpt lat="23.049111" lon="109.574721">
        <ele>87.054286</ele>
        <time>2026-08-15T06:13:27.000Z</time>
      </trkpt>
      <trkpt lat="23.049096" lon="109.574758">
        <ele>87.112312</ele>
        <time>2026-08-15T06:13:28.000Z</time>
      </trkpt>
      <trkpt lat="23.049080" lon="109.574795">
        <ele>87.170984</ele>
        <time>2026-08-15T06:13:29.000Z</time>
      </trkpt>
      <trkpt lat="23.049064" lon="109.574832">
        <ele>87.229656</ele>
        <time>2026-08-15T06:13:30.000Z</time>
      </trkpt>
      <trkpt lat="23.049050" lon="109.574869">
        <ele>87.287071</ele>
        <time>2026-08-15T06:13:31.000Z</time>
      </trkpt>
      <trkpt lat="23.049035" lon="109.574907">
        <ele>87.346413</ele>
        <time>2026-08-15T06:13:32.000Z</time>
      </trkpt>
      <trkpt lat="23.049019" lon="109.574945">
        <ele>87.406387</ele>
        <time>2026-08-15T06:13:33.000Z</time>
      </trkpt>
      <trkpt lat="23.049003" lon="109.574984">
        <ele>87.467670</ele>
        <time>2026-08-15T06:13:34.000Z</time>
      </trkpt>
      <trkpt lat="23.048986" lon="109.575022">
        <ele>87.528309</ele>
        <time>2026-08-15T06:13:35.000Z</time>
      </trkpt>
      <trkpt lat="23.048969" lon="109.575063">
        <ele>87.592849</ele>
        <time>2026-08-15T06:13:36.000Z</time>
      </trkpt>
      <trkpt lat="23.048953" lon="109.575103">
        <ele>87.655444</ele>
        <time>2026-08-15T06:13:37.000Z</time>
      </trkpt>
      <trkpt lat="23.048936" lon="109.575145">
        <ele>87.721295</ele>
        <time>2026-08-15T06:13:38.000Z</time>
      </trkpt>
      <trkpt lat="23.048919" lon="109.575187">
        <ele>87.787145</ele>
        <time>2026-08-15T06:13:39.000Z</time>
      </trkpt>
      <trkpt lat="23.048901" lon="109.575228">
        <ele>87.852341</ele>
        <time>2026-08-15T06:13:40.000Z</time>
      </trkpt>
      <trkpt lat="23.048882" lon="109.575270">
        <ele>87.919508</ele>
        <time>2026-08-15T06:13:41.000Z</time>
      </trkpt>
      <trkpt lat="23.048863" lon="109.575314">
        <ele>87.955957</ele>
        <time>2026-08-15T06:13:42.000Z</time>
      </trkpt>
      <trkpt lat="23.048845" lon="109.575357">
        <ele>87.848711</ele>
        <time>2026-08-15T06:13:43.000Z</time>
      </trkpt>
      <trkpt lat="23.048827" lon="109.575402">
        <ele>87.737316</ele>
        <time>2026-08-15T06:13:44.000Z</time>
      </trkpt>
      <trkpt lat="23.048807" lon="109.575447">
        <ele>87.623863</ele>
        <time>2026-08-15T06:13:45.000Z</time>
      </trkpt>
      <trkpt lat="23.048789" lon="109.575494">
        <ele>87.508290</ele>
        <time>2026-08-15T06:13:46.000Z</time>
      </trkpt>
      <trkpt lat="23.048770" lon="109.575541">
        <ele>87.391746</ele>
        <time>2026-08-15T06:13:47.000Z</time>
      </trkpt>
      <trkpt lat="23.048750" lon="109.575590">
        <ele>87.270052</ele>
        <time>2026-08-15T06:13:48.000Z</time>
      </trkpt>
      <trkpt lat="23.048731" lon="109.575639">
        <ele>87.149338</ele>
        <time>2026-08-15T06:13:49.000Z</time>
      </trkpt>
      <trkpt lat="23.048710" lon="109.575687">
        <ele>87.028677</ele>
        <time>2026-08-15T06:13:50.000Z</time>
      </trkpt>
      <trkpt lat="23.048688" lon="109.575736">
        <ele>86.904901</ele>
        <time>2026-08-15T06:13:51.000Z</time>
      </trkpt>
      <trkpt lat="23.048666" lon="109.575786">
        <ele>86.779079</ele>
        <time>2026-08-15T06:13:52.000Z</time>
      </trkpt>
      <trkpt lat="23.048644" lon="109.575837">
        <ele>86.651207</ele>
        <time>2026-08-15T06:13:53.000Z</time>
      </trkpt>
      <trkpt lat="23.048622" lon="109.575888">
        <ele>86.523334</ele>
        <time>2026-08-15T06:13:54.000Z</time>
      </trkpt>
      <trkpt lat="23.048600" lon="109.575942">
        <ele>86.389263</ele>
        <time>2026-08-15T06:13:55.000Z</time>
      </trkpt>
      <trkpt lat="23.048577" lon="109.575996">
        <ele>86.254174</ele>
        <time>2026-08-15T06:13:56.000Z</time>
      </trkpt>
      <trkpt lat="23.048554" lon="109.576051">
        <ele>86.117022</ele>
        <time>2026-08-15T06:13:57.000Z</time>
      </trkpt>
      <trkpt lat="23.048530" lon="109.576107">
        <ele>85.976777</ele>
        <time>2026-08-15T06:13:58.000Z</time>
      </trkpt>
      <trkpt lat="23.048506" lon="109.576165">
        <ele>85.832402</ele>
        <time>2026-08-15T06:13:59.000Z</time>
      </trkpt>
      <trkpt lat="23.048481" lon="109.576223">
        <ele>85.686999</ele>
        <time>2026-08-15T06:14:00.000Z</time>
      </trkpt>
      <trkpt lat="23.048456" lon="109.576283">
        <ele>85.537471</ele>
        <time>2026-08-15T06:14:01.000Z</time>
      </trkpt>
      <trkpt lat="23.048430" lon="109.576344">
        <ele>85.384851</ele>
        <time>2026-08-15T06:14:02.000Z</time>
      </trkpt>
      <trkpt lat="23.048405" lon="109.576408">
        <ele>85.227007</ele>
        <time>2026-08-15T06:14:03.000Z</time>
      </trkpt>
      <trkpt lat="23.048379" lon="109.576472">
        <ele>85.068182</ele>
        <time>2026-08-15T06:14:04.000Z</time>
      </trkpt>
      <trkpt lat="23.048351" lon="109.576537">
        <ele>84.905247</ele>
        <time>2026-08-15T06:14:05.000Z</time>
      </trkpt>
      <trkpt lat="23.048323" lon="109.576603">
        <ele>84.740254</ele>
        <time>2026-08-15T06:14:06.000Z</time>
      </trkpt>
      <trkpt lat="23.048295" lon="109.576670">
        <ele>84.573196</ele>
        <time>2026-08-15T06:14:07.000Z</time>
      </trkpt>
      <trkpt lat="23.048267" lon="109.576739">
        <ele>84.401994</ele>
        <time>2026-08-15T06:14:08.000Z</time>
      </trkpt>
      <trkpt lat="23.048240" lon="109.576808">
        <ele>84.231772</ele>
        <time>2026-08-15T06:14:09.000Z</time>
      </trkpt>
      <trkpt lat="23.048214" lon="109.576878">
        <ele>84.060397</ele>
        <time>2026-08-15T06:14:10.000Z</time>
      </trkpt>
      <trkpt lat="23.048185" lon="109.576949">
        <ele>83.884045</ele>
        <time>2026-08-15T06:14:11.000Z</time>
      </trkpt>
      <trkpt lat="23.048154" lon="109.577021">
        <ele>83.703579</ele>
        <time>2026-08-15T06:14:12.000Z</time>
      </trkpt>
      <trkpt lat="23.048123" lon="109.577096">
        <ele>83.505434</ele>
        <time>2026-08-15T06:14:13.000Z</time>
      </trkpt>
      <trkpt lat="23.048093" lon="109.577170">
        <ele>83.225416</ele>
        <time>2026-08-15T06:14:14.000Z</time>
      </trkpt>
      <trkpt lat="23.048062" lon="109.577246">
        <ele>82.937542</ele>
        <time>2026-08-15T06:14:15.000Z</time>
      </trkpt>
      <trkpt lat="23.048034" lon="109.577322">
        <ele>82.654055</ele>
        <time>2026-08-15T06:14:16.000Z</time>
      </trkpt>
      <trkpt lat="23.048006" lon="109.577399">
        <ele>82.367351</ele>
        <time>2026-08-15T06:14:17.000Z</time>
      </trkpt>
      <trkpt lat="23.047979" lon="109.577478">
        <ele>82.075526</ele>
        <time>2026-08-15T06:14:18.000Z</time>
      </trkpt>
      <trkpt lat="23.047952" lon="109.577557">
        <ele>81.783701</ele>
        <time>2026-08-15T06:14:19.000Z</time>
      </trkpt>
      <trkpt lat="23.047927" lon="109.577638">
        <ele>81.487852</ele>
        <time>2026-08-15T06:14:20.000Z</time>
      </trkpt>
      <trkpt lat="23.047902" lon="109.577720">
        <ele>81.188719</ele>
        <time>2026-08-15T06:14:21.000Z</time>
      </trkpt>
      <trkpt lat="23.047877" lon="109.577802">
        <ele>80.889585</ele>
        <time>2026-08-15T06:14:22.000Z</time>
      </trkpt>
      <trkpt lat="23.047853" lon="109.577882">
        <ele>80.598206</ele>
        <time>2026-08-15T06:14:23.000Z</time>
      </trkpt>
      <trkpt lat="23.047832" lon="109.577962">
        <ele>80.310126</ele>
        <time>2026-08-15T06:14:24.000Z</time>
      </trkpt>
      <trkpt lat="23.047812" lon="109.578046">
        <ele>80.009667</ele>
        <time>2026-08-15T06:14:25.000Z</time>
      </trkpt>
      <trkpt lat="23.047791" lon="109.578131">
        <ele>79.704900</ele>
        <time>2026-08-15T06:14:26.000Z</time>
      </trkpt>
      <trkpt lat="23.047769" lon="109.578217">
        <ele>79.395801</ele>
        <time>2026-08-15T06:14:27.000Z</time>
      </trkpt>
      <trkpt lat="23.047744" lon="109.578304">
        <ele>79.080184</ele>
        <time>2026-08-15T06:14:28.000Z</time>
      </trkpt>
      <trkpt lat="23.047722" lon="109.578393">
        <ele>78.761063</ele>
        <time>2026-08-15T06:14:29.000Z</time>
      </trkpt>
      <trkpt lat="23.047712" lon="109.578483">
        <ele>78.447143</ele>
        <time>2026-08-15T06:14:30.000Z</time>
      </trkpt>
      <trkpt lat="23.047698" lon="109.578573">
        <ele>78.131064</ele>
        <time>2026-08-15T06:14:31.000Z</time>
      </trkpt>
      <trkpt lat="23.047690" lon="109.578667">
        <ele>77.804166</ele>
        <time>2026-08-15T06:14:32.000Z</time>
      </trkpt>
      <trkpt lat="23.047681" lon="109.578759">
        <ele>77.483788</ele>
        <time>2026-08-15T06:14:33.000Z</time>
      </trkpt>
      <trkpt lat="23.047677" lon="109.578851">
        <ele>77.164850</ele>
        <time>2026-08-15T06:14:34.000Z</time>
      </trkpt>
      <trkpt lat="23.047688" lon="109.578952">
        <ele>76.812661</ele>
        <time>2026-08-15T06:14:35.000Z</time>
      </trkpt>
      <trkpt lat="23.047684" lon="109.579053">
        <ele>76.522691</ele>
        <time>2026-08-15T06:14:36.000Z</time>
      </trkpt>
      <trkpt lat="23.047677" lon="109.579153">
        <ele>76.243289</ele>
        <time>2026-08-15T06:14:37.000Z</time>
      </trkpt>
      <trkpt lat="23.047669" lon="109.579254">
        <ele>75.960865</ele>
        <time>2026-08-15T06:14:38.000Z</time>
      </trkpt>
      <trkpt lat="23.047662" lon="109.579355">
        <ele>75.678684</ele>
        <time>2026-08-15T06:14:39.000Z</time>
      </trkpt>
      <trkpt lat="23.047657" lon="109.579456">
        <ele>75.396894</ele>
        <time>2026-08-15T06:14:40.000Z</time>
      </trkpt>
      <trkpt lat="23.047653" lon="109.579557">
        <ele>75.115250</ele>
        <time>2026-08-15T06:14:41.000Z</time>
      </trkpt>
      <trkpt lat="23.047652" lon="109.579657">
        <ele>74.836636</ele>
        <time>2026-08-15T06:14:42.000Z</time>
      </trkpt>
      <trkpt lat="23.047648" lon="109.579758">
        <ele>74.554992</ele>
        <time>2026-08-15T06:14:43.000Z</time>
      </trkpt>
      <trkpt lat="23.047647" lon="109.579857">
        <ele>74.279164</ele>
        <time>2026-08-15T06:14:44.000Z</time>
      </trkpt>
      <trkpt lat="23.047646" lon="109.579956">
        <ele>74.003336</ele>
        <time>2026-08-15T06:14:45.000Z</time>
      </trkpt>
      <trkpt lat="23.047646" lon="109.580056">
        <ele>73.724738</ele>
        <time>2026-08-15T06:14:46.000Z</time>
      </trkpt>
      <trkpt lat="23.047645" lon="109.580157">
        <ele>73.443339</ele>
        <time>2026-08-15T06:14:47.000Z</time>
      </trkpt>
      <trkpt lat="23.047647" lon="109.580259">
        <ele>73.159105</ele>
        <time>2026-08-15T06:14:48.000Z</time>
      </trkpt>
      <trkpt lat="23.047649" lon="109.580362">
        <ele>72.872085</ele>
        <time>2026-08-15T06:14:49.000Z</time>
      </trkpt>
      <trkpt lat="23.047650" lon="109.580467">
        <ele>72.579542</ele>
        <time>2026-08-15T06:14:50.000Z</time>
      </trkpt>
      <trkpt lat="23.047653" lon="109.580570">
        <ele>72.292443</ele>
        <time>2026-08-15T06:14:51.000Z</time>
      </trkpt>
      <trkpt lat="23.047655" lon="109.580671">
        <ele>72.010995</ele>
        <time>2026-08-15T06:14:52.000Z</time>
      </trkpt>
      <trkpt lat="23.047654" lon="109.580770">
        <ele>71.735166</ele>
        <time>2026-08-15T06:14:53.000Z</time>
      </trkpt>
      <trkpt lat="23.047656" lon="109.580871">
        <ele>71.453718</ele>
        <time>2026-08-15T06:14:54.000Z</time>
      </trkpt>
      <trkpt lat="23.047659" lon="109.580967">
        <ele>71.278085</ele>
        <time>2026-08-15T06:14:55.000Z</time>
      </trkpt>
      <trkpt lat="23.047661" lon="109.581062">
        <ele>71.189398</ele>
        <time>2026-08-15T06:14:56.000Z</time>
      </trkpt>
      <trkpt lat="23.047661" lon="109.581155">
        <ele>71.102601</ele>
        <time>2026-08-15T06:14:57.000Z</time>
      </trkpt>
      <trkpt lat="23.047659" lon="109.581248">
        <ele>71.015780</ele>
        <time>2026-08-15T06:14:58.000Z</time>
      </trkpt>
      <trkpt lat="23.047659" lon="109.581339">
        <ele>70.930849</ele>
        <time>2026-08-15T06:14:59.000Z</time>
      </trkpt>
      <trkpt lat="23.047655" lon="109.581428">
        <ele>70.847686</ele>
        <time>2026-08-15T06:15:00.000Z</time>
      </trkpt>
      <trkpt lat="23.047650" lon="109.581517">
        <ele>70.764467</ele>
        <time>2026-08-15T06:15:01.000Z</time>
      </trkpt>
      <trkpt lat="23.047645" lon="109.581608">
        <ele>70.679385</ele>
        <time>2026-08-15T06:15:02.000Z</time>
      </trkpt>
      <trkpt lat="23.047639" lon="109.581695">
        <ele>70.597960</ele>
        <time>2026-08-15T06:15:03.000Z</time>
      </trkpt>
      <trkpt lat="23.047634" lon="109.581783">
        <ele>70.515672</ele>
        <time>2026-08-15T06:15:04.000Z</time>
      </trkpt>
      <trkpt lat="23.047628" lon="109.581870">
        <ele>70.434247</ele>
        <time>2026-08-15T06:15:05.000Z</time>
      </trkpt>
      <trkpt lat="23.047622" lon="109.581958">
        <ele>70.351891</ele>
        <time>2026-08-15T06:15:06.000Z</time>
      </trkpt>
      <trkpt lat="23.047618" lon="109.582044">
        <ele>70.271524</ele>
        <time>2026-08-15T06:15:07.000Z</time>
      </trkpt>
      <trkpt lat="23.047615" lon="109.582131">
        <ele>70.190270</ele>
        <time>2026-08-15T06:15:08.000Z</time>
      </trkpt>
      <trkpt lat="23.047612" lon="109.582216">
        <ele>70.110881</ele>
        <time>2026-08-15T06:15:09.000Z</time>
      </trkpt>
      <trkpt lat="23.047611" lon="109.582298">
        <ele>70.034343</ele>
        <time>2026-08-15T06:15:10.000Z</time>
      </trkpt>
      <trkpt lat="23.047611" lon="109.582381">
        <ele>69.956878</ele>
        <time>2026-08-15T06:15:11.000Z</time>
      </trkpt>
      <trkpt lat="23.047608" lon="109.582462">
        <ele>69.881220</ele>
        <time>2026-08-15T06:15:12.000Z</time>
      </trkpt>
      <trkpt lat="23.047604" lon="109.582543">
        <ele>69.805513</ele>
        <time>2026-08-15T06:15:13.000Z</time>
      </trkpt>
      <trkpt lat="23.047600" lon="109.582625">
        <ele>69.728875</ele>
        <time>2026-08-15T06:15:14.000Z</time>
      </trkpt>
      <trkpt lat="23.047596" lon="109.582705">
        <ele>69.654100</ele>
        <time>2026-08-15T06:15:15.000Z</time>
      </trkpt>
      <trkpt lat="23.047591" lon="109.582783">
        <ele>69.581126</ele>
        <time>2026-08-15T06:15:16.000Z</time>
      </trkpt>
      <trkpt lat="23.047589" lon="109.582855">
        <ele>69.513897</ele>
        <time>2026-08-15T06:15:17.000Z</time>
      </trkpt>
      <trkpt lat="23.047592" lon="109.582927">
        <ele>69.512354</ele>
        <time>2026-08-15T06:15:18.000Z</time>
      </trkpt>
      <trkpt lat="23.047594" lon="109.582997">
        <ele>69.527304</ele>
        <time>2026-08-15T06:15:19.000Z</time>
      </trkpt>
      <trkpt lat="23.047596" lon="109.583067">
        <ele>69.542254</ele>
        <time>2026-08-15T06:15:20.000Z</time>
      </trkpt>
      <trkpt lat="23.047598" lon="109.583139">
        <ele>69.557631</ele>
        <time>2026-08-15T06:15:21.000Z</time>
      </trkpt>
      <trkpt lat="23.047598" lon="109.583207">
        <ele>69.572146</ele>
        <time>2026-08-15T06:15:22.000Z</time>
      </trkpt>
      <trkpt lat="23.047598" lon="109.583274">
        <ele>69.586449</ele>
        <time>2026-08-15T06:15:23.000Z</time>
      </trkpt>
      <trkpt lat="23.047601" lon="109.583339">
        <ele>69.600341</ele>
        <time>2026-08-15T06:15:24.000Z</time>
      </trkpt>
      <trkpt lat="23.047600" lon="109.583406">
        <ele>69.614646</ele>
        <time>2026-08-15T06:15:25.000Z</time>
      </trkpt>
      <trkpt lat="23.047597" lon="109.583472">
        <ele>69.628752</ele>
        <time>2026-08-15T06:15:26.000Z</time>
      </trkpt>
      <trkpt lat="23.047596" lon="109.583536">
        <ele>69.642416</ele>
        <time>2026-08-15T06:15:27.000Z</time>
      </trkpt>
      <trkpt lat="23.047596" lon="109.583599">
        <ele>69.655864</ele>
        <time>2026-08-15T06:15:28.000Z</time>
      </trkpt>
      <trkpt lat="23.047593" lon="109.583664">
        <ele>69.669757</ele>
        <time>2026-08-15T06:15:29.000Z</time>
      </trkpt>
      <trkpt lat="23.047590" lon="109.583727">
        <ele>69.683223</ele>
        <time>2026-08-15T06:15:30.000Z</time>
      </trkpt>
      <trkpt lat="23.047589" lon="109.583790">
        <ele>69.696674</ele>
        <time>2026-08-15T06:15:31.000Z</time>
      </trkpt>
      <trkpt lat="23.047589" lon="109.583853">
        <ele>69.710122</ele>
        <time>2026-08-15T06:15:32.000Z</time>
      </trkpt>
      <trkpt lat="23.047586" lon="109.583915">
        <ele>69.723376</ele>
        <time>2026-08-15T06:15:33.000Z</time>
      </trkpt>
      <trkpt lat="23.047582" lon="109.583977">
        <ele>69.736643</ele>
        <time>2026-08-15T06:15:34.000Z</time>
      </trkpt>
      <trkpt lat="23.047578" lon="109.584037">
        <ele>69.749485</ele>
        <time>2026-08-15T06:15:35.000Z</time>
      </trkpt>
      <trkpt lat="23.047577" lon="109.584096">
        <ele>69.762081</ele>
        <time>2026-08-15T06:15:36.000Z</time>
      </trkpt>
      <trkpt lat="23.047577" lon="109.584154">
        <ele>69.774462</ele>
        <time>2026-08-15T06:15:37.000Z</time>
      </trkpt>
      <trkpt lat="23.047578" lon="109.584214">
        <ele>69.787273</ele>
        <time>2026-08-15T06:15:38.000Z</time>
      </trkpt>
      <trkpt lat="23.047576" lon="109.584274">
        <ele>69.800089</ele>
        <time>2026-08-15T06:15:39.000Z</time>
      </trkpt>
      <trkpt lat="23.047576" lon="109.584331">
        <ele>69.812257</ele>
        <time>2026-08-15T06:15:40.000Z</time>
      </trkpt>
      <trkpt lat="23.047574" lon="109.584389">
        <ele>69.824647</ele>
        <time>2026-08-15T06:15:41.000Z</time>
      </trkpt>
      <trkpt lat="23.047573" lon="109.584448">
        <ele>69.837243</ele>
        <time>2026-08-15T06:15:42.000Z</time>
      </trkpt>
      <trkpt lat="23.047571" lon="109.584506">
        <ele>69.849633</ele>
        <time>2026-08-15T06:15:43.000Z</time>
      </trkpt>
      <trkpt lat="23.047572" lon="109.584562">
        <ele>69.861589</ele>
        <time>2026-08-15T06:15:44.000Z</time>
      </trkpt>
      <trkpt lat="23.047577" lon="109.584618">
        <ele>69.873600</ele>
        <time>2026-08-15T06:15:45.000Z</time>
      </trkpt>
      <trkpt lat="23.047581" lon="109.584675">
        <ele>69.885803</ele>
        <time>2026-08-15T06:15:46.000Z</time>
      </trkpt>
      <trkpt lat="23.047578" lon="109.584734">
        <ele>69.898417</ele>
        <time>2026-08-15T06:15:47.000Z</time>
      </trkpt>
      <trkpt lat="23.047575" lon="109.584791">
        <ele>69.910604</ele>
        <time>2026-08-15T06:15:48.000Z</time>
      </trkpt>
      <trkpt lat="23.047575" lon="109.584848">
        <ele>69.921015</ele>
        <time>2026-08-15T06:15:49.000Z</time>
      </trkpt>
      <trkpt lat="23.047576" lon="109.584905">
        <ele>69.929222</ele>
        <time>2026-08-15T06:15:50.000Z</time>
      </trkpt>
      <trkpt lat="23.047576" lon="109.584965">
        <ele>69.937860</ele>
        <time>2026-08-15T06:15:51.000Z</time>
      </trkpt>
      <trkpt lat="23.047577" lon="109.585026">
        <ele>69.946642</ele>
        <time>2026-08-15T06:15:52.000Z</time>
      </trkpt>
      <trkpt lat="23.047574" lon="109.585085">
        <ele>69.955149</ele>
        <time>2026-08-15T06:15:53.000Z</time>
      </trkpt>
      <trkpt lat="23.047570" lon="109.585143">
        <ele>69.963522</ele>
        <time>2026-08-15T06:15:54.000Z</time>
      </trkpt>
      <trkpt lat="23.047566" lon="109.585202">
        <ele>69.972038</ele>
        <time>2026-08-15T06:15:55.000Z</time>
      </trkpt>
      <trkpt lat="23.047565" lon="109.585263">
        <ele>69.980821</ele>
        <time>2026-08-15T06:15:56.000Z</time>
      </trkpt>
      <trkpt lat="23.047567" lon="109.585323">
        <ele>69.989464</ele>
        <time>2026-08-15T06:15:57.000Z</time>
      </trkpt>
      <trkpt lat="23.047569" lon="109.585383">
        <ele>69.998107</ele>
        <time>2026-08-15T06:15:58.000Z</time>
      </trkpt>
      <trkpt lat="23.047573" lon="109.585445">
        <ele>70.007054</ele>
        <time>2026-08-15T06:15:59.000Z</time>
      </trkpt>
      <trkpt lat="23.047578" lon="109.585504">
        <ele>70.015584</ele>
        <time>2026-08-15T06:16:00.000Z</time>
      </trkpt>
      <trkpt lat="23.047581" lon="109.585562">
        <ele>70.023946</ele>
        <time>2026-08-15T06:16:01.000Z</time>
      </trkpt>
      <trkpt lat="23.047582" lon="109.585620">
        <ele>70.032297</ele>
        <time>2026-08-15T06:16:02.000Z</time>
      </trkpt>
      <trkpt lat="23.047582" lon="109.585680">
        <ele>70.040935</ele>
        <time>2026-08-15T06:16:03.000Z</time>
      </trkpt>
      <trkpt lat="23.047583" lon="109.585740">
        <ele>70.049574</ele>
        <time>2026-08-15T06:16:04.000Z</time>
      </trkpt>
      <trkpt lat="23.047585" lon="109.585798">
        <ele>70.057929</ele>
        <time>2026-08-15T06:16:05.000Z</time>
      </trkpt>
      <trkpt lat="23.047591" lon="109.585855">
        <ele>70.066188</ele>
        <time>2026-08-15T06:16:06.000Z</time>
      </trkpt>
      <trkpt lat="23.047596" lon="109.585914">
        <ele>70.074717</ele>
        <time>2026-08-15T06:16:07.000Z</time>
      </trkpt>
      <trkpt lat="23.047598" lon="109.585974">
        <ele>70.083361</ele>
        <time>2026-08-15T06:16:08.000Z</time>
      </trkpt>
      <trkpt lat="23.047599" lon="109.586033">
        <ele>70.091855</ele>
        <time>2026-08-15T06:16:09.000Z</time>
      </trkpt>
      <trkpt lat="23.047598" lon="109.586095">
        <ele>70.100782</ele>
        <time>2026-08-15T06:16:10.000Z</time>
      </trkpt>
      <trkpt lat="23.047598" lon="109.586155">
        <ele>70.109420</ele>
        <time>2026-08-15T06:16:11.000Z</time>
      </trkpt>
      <trkpt lat="23.047598" lon="109.586213">
        <ele>70.117769</ele>
        <time>2026-08-15T06:16:12.000Z</time>
      </trkpt>
      <trkpt lat="23.047600" lon="109.586272">
        <ele>70.126268</ele>
        <time>2026-08-15T06:16:13.000Z</time>
      </trkpt>
      <trkpt lat="23.047599" lon="109.586331">
        <ele>70.134763</ele>
        <time>2026-08-15T06:16:14.000Z</time>
      </trkpt>
      <trkpt lat="23.047599" lon="109.586393">
        <ele>70.143688</ele>
        <time>2026-08-15T06:16:15.000Z</time>
      </trkpt>
      <trkpt lat="23.047601" lon="109.586454">
        <ele>70.152475</ele>
        <time>2026-08-15T06:16:16.000Z</time>
      </trkpt>
      <trkpt lat="23.047603" lon="109.586514">
        <ele>70.161118</ele>
        <time>2026-08-15T06:16:17.000Z</time>
      </trkpt>
      <trkpt lat="23.047607" lon="109.586573">
        <ele>70.169635</ele>
        <time>2026-08-15T06:16:18.000Z</time>
      </trkpt>
      <trkpt lat="23.047610" lon="109.586630">
        <ele>70.177854</ele>
        <time>2026-08-15T06:16:19.000Z</time>
      </trkpt>
      <trkpt lat="23.047612" lon="109.586686">
        <ele>70.185922</ele>
        <time>2026-08-15T06:16:20.000Z</time>
      </trkpt>
      <trkpt lat="23.047615" lon="109.586741">
        <ele>70.193853</ele>
        <time>2026-08-15T06:16:21.000Z</time>
      </trkpt>
      <trkpt lat="23.047618" lon="109.586794">
        <ele>70.199456</ele>
        <time>2026-08-15T06:16:22.000Z</time>
      </trkpt>
      <trkpt lat="23.047622" lon="109.586847">
        <ele>70.201391</ele>
        <time>2026-08-15T06:16:23.000Z</time>
      </trkpt>
      <trkpt lat="23.047624" lon="109.586901">
        <ele>70.203359</ele>
        <time>2026-08-15T06:16:24.000Z</time>
      </trkpt>
      <trkpt lat="23.047626" lon="109.586954">
        <ele>70.205290</ele>
        <time>2026-08-15T06:16:25.000Z</time>
      </trkpt>
      <trkpt lat="23.047628" lon="109.587008">
        <ele>70.207257</ele>
        <time>2026-08-15T06:16:26.000Z</time>
      </trkpt>
      <trkpt lat="23.047629" lon="109.587061">
        <ele>70.209187</ele>
        <time>2026-08-15T06:16:27.000Z</time>
      </trkpt>
      <trkpt lat="23.047633" lon="109.587112">
        <ele>70.211051</ele>
        <time>2026-08-15T06:16:28.000Z</time>
      </trkpt>
      <trkpt lat="23.047637" lon="109.587163">
        <ele>70.212914</ele>
        <time>2026-08-15T06:16:29.000Z</time>
      </trkpt>
      <trkpt lat="23.047640" lon="109.587216">
        <ele>70.214847</ele>
        <time>2026-08-15T06:16:30.000Z</time>
      </trkpt>
      <trkpt lat="23.047643" lon="109.587266">
        <ele>70.216671</ele>
        <time>2026-08-15T06:16:31.000Z</time>
      </trkpt>
      <trkpt lat="23.047645" lon="109.587318">
        <ele>70.218566</ele>
        <time>2026-08-15T06:16:32.000Z</time>
      </trkpt>
      <trkpt lat="23.047646" lon="109.587370">
        <ele>70.220459</ele>
        <time>2026-08-15T06:16:33.000Z</time>
      </trkpt>
      <trkpt lat="23.047647" lon="109.587423">
        <ele>70.222389</ele>
        <time>2026-08-15T06:16:34.000Z</time>
      </trkpt>
      <trkpt lat="23.047654" lon="109.587475">
        <ele>70.224302</ele>
        <time>2026-08-15T06:16:35.000Z</time>
      </trkpt>
      <trkpt lat="23.047665" lon="109.587528">
        <ele>70.226280</ele>
        <time>2026-08-15T06:16:36.000Z</time>
      </trkpt>
      <trkpt lat="23.047671" lon="109.587581">
        <ele>70.228224</ele>
        <time>2026-08-15T06:16:37.000Z</time>
      </trkpt>
      <trkpt lat="23.047676" lon="109.587634">
        <ele>70.230163</ele>
        <time>2026-08-15T06:16:38.000Z</time>
      </trkpt>
      <trkpt lat="23.047679" lon="109.587688">
        <ele>70.232133</ele>
        <time>2026-08-15T06:16:39.000Z</time>
      </trkpt>
      <trkpt lat="23.047679" lon="109.587740">
        <ele>70.234026</ele>
        <time>2026-08-15T06:16:40.000Z</time>
      </trkpt>
      <trkpt lat="23.047681" lon="109.587793">
        <ele>70.235957</ele>
        <time>2026-08-15T06:16:41.000Z</time>
      </trkpt>
      <trkpt lat="23.047683" lon="109.587845">
        <ele>70.237852</ele>
        <time>2026-08-15T06:16:42.000Z</time>
      </trkpt>
      <trkpt lat="23.047689" lon="109.587895">
        <ele>70.239687</ele>
        <time>2026-08-15T06:16:43.000Z</time>
      </trkpt>
      <trkpt lat="23.047694" lon="109.587949">
        <ele>70.241663</ele>
        <time>2026-08-15T06:16:44.000Z</time>
      </trkpt>
      <trkpt lat="23.047696" lon="109.588005">
        <ele>70.243703</ele>
        <time>2026-08-15T06:16:45.000Z</time>
      </trkpt>
      <trkpt lat="23.047699" lon="109.588062">
        <ele>70.245781</ele>
        <time>2026-08-15T06:16:46.000Z</time>
      </trkpt>
      <trkpt lat="23.047702" lon="109.588119">
        <ele>70.247860</ele>
        <time>2026-08-15T06:16:47.000Z</time>
      </trkpt>
      <trkpt lat="23.047708" lon="109.588176">
        <ele>70.249948</ele>
        <time>2026-08-15T06:16:48.000Z</time>
      </trkpt>
      <trkpt lat="23.047714" lon="109.588236">
        <ele>70.252146</ele>
        <time>2026-08-15T06:16:49.000Z</time>
      </trkpt>
      <trkpt lat="23.047721" lon="109.588294">
        <ele>70.254275</ele>
        <time>2026-08-15T06:16:50.000Z</time>
      </trkpt>
      <trkpt lat="23.047728" lon="109.588350">
        <ele>70.256332</ele>
        <time>2026-08-15T06:16:51.000Z</time>
      </trkpt>
      <trkpt lat="23.047733" lon="109.588405">
        <ele>70.258344</ele>
        <time>2026-08-15T06:16:52.000Z</time>
      </trkpt>
      <trkpt lat="23.047735" lon="109.588463">
        <ele>70.260457</ele>
        <time>2026-08-15T06:16:53.000Z</time>
      </trkpt>
      <trkpt lat="23.047739" lon="109.588520">
        <ele>70.262538</ele>
        <time>2026-08-15T06:16:54.000Z</time>
      </trkpt>
      <trkpt lat="23.047746" lon="109.588576">
        <ele>70.264596</ele>
        <time>2026-08-15T06:16:55.000Z</time>
      </trkpt>
      <trkpt lat="23.047751" lon="109.588632">
        <ele>70.266644</ele>
        <time>2026-08-15T06:16:56.000Z</time>
      </trkpt>
      <trkpt lat="23.047757" lon="109.588692">
        <ele>70.268841</ele>
        <time>2026-08-15T06:16:57.000Z</time>
      </trkpt>
      <trkpt lat="23.047763" lon="109.588749">
        <ele>70.273018</ele>
        <time>2026-08-15T06:16:58.000Z</time>
      </trkpt>
      <trkpt lat="23.047767" lon="109.588807">
        <ele>70.279525</ele>
        <time>2026-08-15T06:16:59.000Z</time>
      </trkpt>
      <trkpt lat="23.047771" lon="109.588864">
        <ele>70.285920</ele>
        <time>2026-08-15T06:17:00.000Z</time>
      </trkpt>
      <trkpt lat="23.047776" lon="109.588922">
        <ele>70.292438</ele>
        <time>2026-08-15T06:17:01.000Z</time>
      </trkpt>
      <trkpt lat="23.047784" lon="109.588979">
        <ele>70.298889</ele>
        <time>2026-08-15T06:17:02.000Z</time>
      </trkpt>
      <trkpt lat="23.047791" lon="109.589036">
        <ele>70.305322</ele>
        <time>2026-08-15T06:17:03.000Z</time>
      </trkpt>
      <trkpt lat="23.047796" lon="109.589095">
        <ele>70.311951</ele>
        <time>2026-08-15T06:17:04.000Z</time>
      </trkpt>
      <trkpt lat="23.047801" lon="109.589153">
        <ele>70.318468</ele>
        <time>2026-08-15T06:17:05.000Z</time>
      </trkpt>
      <trkpt lat="23.047806" lon="109.589210">
        <ele>70.324874</ele>
        <time>2026-08-15T06:17:06.000Z</time>
      </trkpt>
      <trkpt lat="23.047815" lon="109.589268">
        <ele>70.331455</ele>
        <time>2026-08-15T06:17:07.000Z</time>
      </trkpt>
      <trkpt lat="23.047824" lon="109.589325">
        <ele>70.337925</ele>
        <time>2026-08-15T06:17:08.000Z</time>
      </trkpt>
      <trkpt lat="23.047829" lon="109.589382">
        <ele>70.344331</ele>
        <time>2026-08-15T06:17:09.000Z</time>
      </trkpt>
      <trkpt lat="23.047836" lon="109.589439">
        <ele>70.350764</ele>
        <time>2026-08-15T06:17:10.000Z</time>
      </trkpt>
      <trkpt lat="23.047842" lon="109.589499">
        <ele>70.357517</ele>
        <time>2026-08-15T06:17:11.000Z</time>
      </trkpt>
      <trkpt lat="23.047846" lon="109.589555">
        <ele>70.363801</ele>
        <time>2026-08-15T06:17:12.000Z</time>
      </trkpt>
      <trkpt lat="23.047851" lon="109.589611">
        <ele>70.370095</ele>
        <time>2026-08-15T06:17:13.000Z</time>
      </trkpt>
      <trkpt lat="23.047857" lon="109.589668">
        <ele>70.376514</ele>
        <time>2026-08-15T06:17:14.000Z</time>
      </trkpt>
      <trkpt lat="23.047864" lon="109.589726">
        <ele>70.383058</ele>
        <time>2026-08-15T06:17:15.000Z</time>
      </trkpt>
      <trkpt lat="23.047871" lon="109.589783">
        <ele>70.389492</ele>
        <time>2026-08-15T06:17:16.000Z</time>
      </trkpt>
      <trkpt lat="23.047876" lon="109.589842">
        <ele>70.396120</ele>
        <time>2026-08-15T06:17:17.000Z</time>
      </trkpt>
      <trkpt lat="23.047881" lon="109.589901">
        <ele>70.402749</ele>
        <time>2026-08-15T06:17:18.000Z</time>
      </trkpt>
      <trkpt lat="23.047888" lon="109.589958">
        <ele>70.409183</ele>
        <time>2026-08-15T06:17:19.000Z</time>
      </trkpt>
      <trkpt lat="23.047894" lon="109.590015">
        <ele>70.415601</ele>
        <time>2026-08-15T06:17:20.000Z</time>
      </trkpt>
      <trkpt lat="23.047900" lon="109.590072">
        <ele>70.422020</ele>
        <time>2026-08-15T06:17:21.000Z</time>
      </trkpt>
      <trkpt lat="23.047907" lon="109.590127">
        <ele>70.428232</ele>
        <time>2026-08-15T06:17:22.000Z</time>
      </trkpt>
      <trkpt lat="23.047915" lon="109.590180">
        <ele>70.434240</ele>
        <time>2026-08-15T06:17:23.000Z</time>
      </trkpt>
      <trkpt lat="23.047925" lon="109.590231">
        <ele>70.440074</ele>
        <time>2026-08-15T06:17:24.000Z</time>
      </trkpt>
      <trkpt lat="23.047933" lon="109.590280">
        <ele>70.445642</ele>
        <time>2026-08-15T06:17:25.000Z</time>
      </trkpt>
      <trkpt lat="23.047940" lon="109.590328">
        <ele>70.451079</ele>
        <time>2026-08-15T06:17:26.000Z</time>
      </trkpt>
      <trkpt lat="23.047948" lon="109.590375">
        <ele>70.456427</ele>
        <time>2026-08-15T06:17:27.000Z</time>
      </trkpt>
      <trkpt lat="23.047957" lon="109.590423">
        <ele>70.461907</ele>
        <time>2026-08-15T06:17:28.000Z</time>
      </trkpt>
      <trkpt lat="23.047965" lon="109.590467">
        <ele>70.466925</ele>
        <time>2026-08-15T06:17:29.000Z</time>
      </trkpt>
      <trkpt lat="23.047973" lon="109.590511">
        <ele>70.471943</ele>
        <time>2026-08-15T06:17:30.000Z</time>
      </trkpt>
      <trkpt lat="23.047982" lon="109.590555">
        <ele>70.476985</ele>
        <time>2026-08-15T06:17:31.000Z</time>
      </trkpt>
      <trkpt lat="23.047990" lon="109.590599">
        <ele>70.482003</ele>
        <time>2026-08-15T06:17:32.000Z</time>
      </trkpt>
      <trkpt lat="23.047995" lon="109.590643">
        <ele>70.486963</ele>
        <time>2026-08-15T06:17:33.000Z</time>
      </trkpt>
      <trkpt lat="23.048000" lon="109.590686">
        <ele>70.488620</ele>
        <time>2026-08-15T06:17:34.000Z</time>
      </trkpt>
      <trkpt lat="23.048006" lon="109.590728">
        <ele>70.488642</ele>
        <time>2026-08-15T06:17:35.000Z</time>
      </trkpt>
      <trkpt lat="23.048012" lon="109.590768">
        <ele>70.488662</ele>
        <time>2026-08-15T06:17:36.000Z</time>
      </trkpt>
      <trkpt lat="23.048019" lon="109.590808">
        <ele>70.488683</ele>
        <time>2026-08-15T06:17:37.000Z</time>
      </trkpt>
      <trkpt lat="23.048029" lon="109.590847">
        <ele>70.488703</ele>
        <time>2026-08-15T06:17:38.000Z</time>
      </trkpt>
      <trkpt lat="23.048035" lon="109.590884">
        <ele>70.488722</ele>
        <time>2026-08-15T06:17:39.000Z</time>
      </trkpt>
      <trkpt lat="23.048036" lon="109.590919">
        <ele>70.488740</ele>
        <time>2026-08-15T06:17:40.000Z</time>
      </trkpt>
      <trkpt lat="23.048037" lon="109.590949">
        <ele>70.488755</ele>
        <time>2026-08-15T06:17:41.000Z</time>
      </trkpt>
      <trkpt lat="23.048033" lon="109.590965">
        <ele>70.488763</ele>
        <time>2026-08-15T06:17:42.000Z</time>
      </trkpt>
      <trkpt lat="23.048031" lon="109.590969">
        <ele>70.488765</ele>
        <time>2026-08-15T06:17:43.000Z</time>
      </trkpt>
      <trkpt lat="23.048024" lon="109.591001">
        <ele>70.488782</ele>
        <time>2026-08-15T06:18:05.000Z</time>
      </trkpt>
      <trkpt lat="23.048031" lon="109.591023">
        <ele>70.488794</ele>
        <time>2026-08-15T06:18:06.000Z</time>
      </trkpt>
      <trkpt lat="23.048031" lon="109.591042">
        <ele>70.488803</ele>
        <time>2026-08-15T06:18:07.000Z</time>
      </trkpt>
      <trkpt lat="23.048033" lon="109.591065">
        <ele>70.488815</ele>
        <time>2026-08-15T06:18:08.000Z</time>
      </trkpt>
      <trkpt lat="23.048038" lon="109.591093">
        <ele>70.488829</ele>
        <time>2026-08-15T06:18:09.000Z</time>
      </trkpt>
      <trkpt lat="23.048048" lon="109.591124">
        <ele>70.488846</ele>
        <time>2026-08-15T06:18:10.000Z</time>
      </trkpt>
      <trkpt lat="23.048056" lon="109.591156">
        <ele>70.488863</ele>
        <time>2026-08-15T06:18:11.000Z</time>
      </trkpt>
      <trkpt lat="23.048061" lon="109.591191">
        <ele>70.488881</ele>
        <time>2026-08-15T06:18:12.000Z</time>
      </trkpt>
      <trkpt lat="23.048066" lon="109.591229">
        <ele>70.488900</ele>
        <time>2026-08-15T06:18:13.000Z</time>
      </trkpt>
      <trkpt lat="23.048074" lon="109.591268">
        <ele>70.488920</ele>
        <time>2026-08-15T06:18:14.000Z</time>
      </trkpt>
      <trkpt lat="23.048082" lon="109.591311">
        <ele>70.488942</ele>
        <time>2026-08-15T06:18:15.000Z</time>
      </trkpt>
      <trkpt lat="23.048090" lon="109.591354">
        <ele>70.488964</ele>
        <time>2026-08-15T06:18:16.000Z</time>
      </trkpt>
      <trkpt lat="23.048097" lon="109.591395">
        <ele>70.488985</ele>
        <time>2026-08-15T06:18:17.000Z</time>
      </trkpt>
      <trkpt lat="23.048106" lon="109.591438">
        <ele>70.489008</ele>
        <time>2026-08-15T06:18:18.000Z</time>
      </trkpt>
      <trkpt lat="23.048112" lon="109.591483">
        <ele>70.489031</ele>
        <time>2026-08-15T06:18:19.000Z</time>
      </trkpt>
      <trkpt lat="23.048117" lon="109.591528">
        <ele>70.489053</ele>
        <time>2026-08-15T06:18:20.000Z</time>
      </trkpt>
      <trkpt lat="23.048123" lon="109.591573">
        <ele>70.489076</ele>
        <time>2026-08-15T06:18:21.000Z</time>
      </trkpt>
      <trkpt lat="23.048130" lon="109.591619">
        <ele>70.489100</ele>
        <time>2026-08-15T06:18:22.000Z</time>
      </trkpt>
      <trkpt lat="23.048139" lon="109.591665">
        <ele>70.489124</ele>
        <time>2026-08-15T06:18:23.000Z</time>
      </trkpt>
      <trkpt lat="23.048148" lon="109.591712">
        <ele>70.489148</ele>
        <time>2026-08-15T06:18:24.000Z</time>
      </trkpt>
      <trkpt lat="23.048158" lon="109.591757">
        <ele>70.489171</ele>
        <time>2026-08-15T06:18:25.000Z</time>
      </trkpt>
      <trkpt lat="23.048167" lon="109.591803">
        <ele>70.489195</ele>
        <time>2026-08-15T06:18:26.000Z</time>
      </trkpt>
      <trkpt lat="23.048175" lon="109.591849">
        <ele>70.489218</ele>
        <time>2026-08-15T06:18:27.000Z</time>
      </trkpt>
      <trkpt lat="23.048183" lon="109.591897">
        <ele>70.489243</ele>
        <time>2026-08-15T06:18:28.000Z</time>
      </trkpt>
      <trkpt lat="23.048191" lon="109.591946">
        <ele>70.489268</ele>
        <time>2026-08-15T06:18:29.000Z</time>
      </trkpt>
      <trkpt lat="23.048200" lon="109.591993">
        <ele>70.489292</ele>
        <time>2026-08-15T06:18:30.000Z</time>
      </trkpt>
      <trkpt lat="23.048210" lon="109.592041">
        <ele>70.489317</ele>
        <time>2026-08-15T06:18:31.000Z</time>
      </trkpt>
      <trkpt lat="23.048218" lon="109.592091">
        <ele>70.489343</ele>
        <time>2026-08-15T06:18:32.000Z</time>
      </trkpt>
      <trkpt lat="23.048225" lon="109.592138">
        <ele>70.489367</ele>
        <time>2026-08-15T06:18:33.000Z</time>
      </trkpt>
      <trkpt lat="23.048232" lon="109.592187">
        <ele>70.489392</ele>
        <time>2026-08-15T06:18:34.000Z</time>
      </trkpt>
      <trkpt lat="23.048240" lon="109.592235">
        <ele>70.489416</ele>
        <time>2026-08-15T06:18:35.000Z</time>
      </trkpt>
      <trkpt lat="23.048249" lon="109.592283">
        <ele>70.489441</ele>
        <time>2026-08-15T06:18:36.000Z</time>
      </trkpt>
      <trkpt lat="23.048257" lon="109.592329">
        <ele>70.489465</ele>
        <time>2026-08-15T06:18:37.000Z</time>
      </trkpt>
      <trkpt lat="23.048262" lon="109.592379">
        <ele>70.489490</ele>
        <time>2026-08-15T06:18:38.000Z</time>
      </trkpt>
      <trkpt lat="23.048270" lon="109.592429">
        <ele>70.489516</ele>
        <time>2026-08-15T06:18:39.000Z</time>
      </trkpt>
      <trkpt lat="23.048281" lon="109.592478">
        <ele>70.489541</ele>
        <time>2026-08-15T06:18:40.000Z</time>
      </trkpt>
      <trkpt lat="23.048290" lon="109.592527">
        <ele>70.489566</ele>
        <time>2026-08-15T06:18:41.000Z</time>
      </trkpt>
      <trkpt lat="23.048298" lon="109.592575">
        <ele>70.489591</ele>
        <time>2026-08-15T06:18:42.000Z</time>
      </trkpt>
      <trkpt lat="23.048305" lon="109.592625">
        <ele>70.493640</ele>
        <time>2026-08-15T06:18:43.000Z</time>
      </trkpt>
      <trkpt lat="23.048311" lon="109.592675">
        <ele>70.497786</ele>
        <time>2026-08-15T06:18:44.000Z</time>
      </trkpt>
      <trkpt lat="23.048317" lon="109.592726">
        <ele>70.502014</ele>
        <time>2026-08-15T06:18:45.000Z</time>
      </trkpt>
      <trkpt lat="23.048327" lon="109.592776">
        <ele>70.506221</ele>
        <time>2026-08-15T06:18:46.000Z</time>
      </trkpt>
      <trkpt lat="23.048337" lon="109.592826">
        <ele>70.510428</ele>
        <time>2026-08-15T06:18:47.000Z</time>
      </trkpt>
      <trkpt lat="23.048345" lon="109.592877">
        <ele>70.514682</ele>
        <time>2026-08-15T06:18:48.000Z</time>
      </trkpt>
      <trkpt lat="23.048355" lon="109.592929">
        <ele>70.519051</ele>
        <time>2026-08-15T06:18:49.000Z</time>
      </trkpt>
      <trkpt lat="23.048367" lon="109.592979">
        <ele>70.523300</ele>
        <time>2026-08-15T06:18:50.000Z</time>
      </trkpt>
      <trkpt lat="23.048377" lon="109.593030">
        <ele>70.527587</ele>
        <time>2026-08-15T06:18:51.000Z</time>
      </trkpt>
      <trkpt lat="23.048387" lon="109.593080">
        <ele>70.531795</ele>
        <time>2026-08-15T06:18:52.000Z</time>
      </trkpt>
      <trkpt lat="23.048398" lon="109.593130">
        <ele>70.536022</ele>
        <time>2026-08-15T06:18:53.000Z</time>
      </trkpt>
      <trkpt lat="23.048407" lon="109.593180">
        <ele>70.540211</ele>
        <time>2026-08-15T06:18:54.000Z</time>
      </trkpt>
      <trkpt lat="23.048418" lon="109.593230">
        <ele>70.544438</ele>
        <time>2026-08-15T06:18:55.000Z</time>
      </trkpt>
      <trkpt lat="23.048429" lon="109.593279">
        <ele>70.548586</ele>
        <time>2026-08-15T06:18:56.000Z</time>
      </trkpt>
      <trkpt lat="23.048440" lon="109.593328">
        <ele>70.552733</ele>
        <time>2026-08-15T06:18:57.000Z</time>
      </trkpt>
      <trkpt lat="23.048452" lon="109.593378">
        <ele>70.556982</ele>
        <time>2026-08-15T06:18:58.000Z</time>
      </trkpt>
      <trkpt lat="23.048463" lon="109.593428">
        <ele>70.561209</ele>
        <time>2026-08-15T06:18:59.000Z</time>
      </trkpt>
      <trkpt lat="23.048474" lon="109.593477">
        <ele>70.565356</ele>
        <time>2026-08-15T06:19:00.000Z</time>
      </trkpt>
      <trkpt lat="23.048483" lon="109.593528">
        <ele>70.569626</ele>
        <time>2026-08-15T06:19:01.000Z</time>
      </trkpt>
      <trkpt lat="23.048494" lon="109.593577">
        <ele>70.573773</ele>
        <time>2026-08-15T06:19:02.000Z</time>
      </trkpt>
      <trkpt lat="23.048504" lon="109.593627">
        <ele>70.577981</ele>
        <time>2026-08-15T06:19:03.000Z</time>
      </trkpt>
      <trkpt lat="23.048514" lon="109.593676">
        <ele>70.582108</ele>
        <time>2026-08-15T06:19:04.000Z</time>
      </trkpt>
      <trkpt lat="23.048526" lon="109.593727">
        <ele>70.586436</ele>
        <time>2026-08-15T06:19:05.000Z</time>
      </trkpt>
      <trkpt lat="23.048538" lon="109.593779">
        <ele>70.590844</ele>
        <time>2026-08-15T06:19:06.000Z</time>
      </trkpt>
      <trkpt lat="23.048548" lon="109.593830">
        <ele>70.595132</ele>
        <time>2026-08-15T06:19:07.000Z</time>
      </trkpt>
      <trkpt lat="23.048559" lon="109.593880">
        <ele>70.599359</ele>
        <time>2026-08-15T06:19:08.000Z</time>
      </trkpt>
      <trkpt lat="23.048568" lon="109.593931">
        <ele>70.603629</ele>
        <time>2026-08-15T06:19:09.000Z</time>
      </trkpt>
      <trkpt lat="23.048580" lon="109.593984">
        <ele>70.608117</ele>
        <time>2026-08-15T06:19:10.000Z</time>
      </trkpt>
      <trkpt lat="23.048594" lon="109.594037">
        <ele>70.612651</ele>
        <time>2026-08-15T06:19:11.000Z</time>
      </trkpt>
      <trkpt lat="23.048607" lon="109.594091">
        <ele>70.617241</ele>
        <time>2026-08-15T06:19:12.000Z</time>
      </trkpt>
      <trkpt lat="23.048619" lon="109.594145">
        <ele>70.621809</ele>
        <time>2026-08-15T06:19:13.000Z</time>
      </trkpt>
      <trkpt lat="23.048632" lon="109.594201">
        <ele>70.626558</ele>
        <time>2026-08-15T06:19:14.000Z</time>
      </trkpt>
      <trkpt lat="23.048643" lon="109.594257">
        <ele>70.631266</ele>
        <time>2026-08-15T06:19:15.000Z</time>
      </trkpt>
      <trkpt lat="23.048654" lon="109.594313">
        <ele>70.635975</ele>
        <time>2026-08-15T06:19:16.000Z</time>
      </trkpt>
      <trkpt lat="23.048665" lon="109.594370">
        <ele>70.640764</ele>
        <time>2026-08-15T06:19:17.000Z</time>
      </trkpt>
      <trkpt lat="23.048675" lon="109.594428">
        <ele>70.645616</ele>
        <time>2026-08-15T06:19:18.000Z</time>
      </trkpt>
      <trkpt lat="23.048684" lon="109.594487">
        <ele>70.650328</ele>
        <time>2026-08-15T06:19:19.000Z</time>
      </trkpt>
      <trkpt lat="23.048691" lon="109.594546">
        <ele>70.650549</ele>
        <time>2026-08-15T06:19:20.000Z</time>
      </trkpt>
      <trkpt lat="23.048698" lon="109.594603">
        <ele>70.650762</ele>
        <time>2026-08-15T06:19:21.000Z</time>
      </trkpt>
      <trkpt lat="23.048707" lon="109.594661">
        <ele>70.650980</ele>
        <time>2026-08-15T06:19:22.000Z</time>
      </trkpt>
      <trkpt lat="23.048719" lon="109.594719">
        <ele>70.651201</ele>
        <time>2026-08-15T06:19:23.000Z</time>
      </trkpt>
      <trkpt lat="23.048731" lon="109.594774">
        <ele>70.651410</ele>
        <time>2026-08-15T06:19:24.000Z</time>
      </trkpt>
      <trkpt lat="23.048741" lon="109.594832">
        <ele>70.651629</ele>
        <time>2026-08-15T06:19:25.000Z</time>
      </trkpt>
      <trkpt lat="23.048749" lon="109.594889">
        <ele>70.651843</ele>
        <time>2026-08-15T06:19:26.000Z</time>
      </trkpt>
      <trkpt lat="23.048756" lon="109.594946">
        <ele>70.652056</ele>
        <time>2026-08-15T06:19:27.000Z</time>
      </trkpt>
      <trkpt lat="23.048764" lon="109.595001">
        <ele>70.652263</ele>
        <time>2026-08-15T06:19:28.000Z</time>
      </trkpt>
      <trkpt lat="23.048772" lon="109.595057">
        <ele>70.652473</ele>
        <time>2026-08-15T06:19:29.000Z</time>
      </trkpt>
      <trkpt lat="23.048780" lon="109.595111">
        <ele>70.652676</ele>
        <time>2026-08-15T06:19:30.000Z</time>
      </trkpt>
      <trkpt lat="23.048789" lon="109.595166">
        <ele>70.652883</ele>
        <time>2026-08-15T06:19:31.000Z</time>
      </trkpt>
      <trkpt lat="23.048799" lon="109.595222">
        <ele>70.653094</ele>
        <time>2026-08-15T06:19:32.000Z</time>
      </trkpt>
      <trkpt lat="23.048810" lon="109.595278">
        <ele>70.653307</ele>
        <time>2026-08-15T06:19:33.000Z</time>
      </trkpt>
      <trkpt lat="23.048820" lon="109.595334">
        <ele>70.653518</ele>
        <time>2026-08-15T06:19:34.000Z</time>
      </trkpt>
      <trkpt lat="23.048830" lon="109.595389">
        <ele>70.653726</ele>
        <time>2026-08-15T06:19:35.000Z</time>
      </trkpt>
      <trkpt lat="23.048837" lon="109.595446">
        <ele>70.653940</ele>
        <time>2026-08-15T06:19:36.000Z</time>
      </trkpt>
      <trkpt lat="23.048845" lon="109.595503">
        <ele>70.654153</ele>
        <time>2026-08-15T06:19:37.000Z</time>
      </trkpt>
      <trkpt lat="23.048855" lon="109.595559">
        <ele>70.654365</ele>
        <time>2026-08-15T06:19:38.000Z</time>
      </trkpt>
      <trkpt lat="23.048866" lon="109.595615">
        <ele>70.654577</ele>
        <time>2026-08-15T06:19:39.000Z</time>
      </trkpt>
      <trkpt lat="23.048875" lon="109.595668">
        <ele>70.654777</ele>
        <time>2026-08-15T06:19:40.000Z</time>
      </trkpt>
      <trkpt lat="23.048883" lon="109.595722">
        <ele>70.654980</ele>
        <time>2026-08-15T06:19:41.000Z</time>
      </trkpt>
      <trkpt lat="23.048889" lon="109.595778">
        <ele>70.655189</ele>
        <time>2026-08-15T06:19:42.000Z</time>
      </trkpt>
      <trkpt lat="23.048896" lon="109.595832">
        <ele>70.655391</ele>
        <time>2026-08-15T06:19:43.000Z</time>
      </trkpt>
      <trkpt lat="23.048903" lon="109.595887">
        <ele>70.655597</ele>
        <time>2026-08-15T06:19:44.000Z</time>
      </trkpt>
      <trkpt lat="23.048911" lon="109.595943">
        <ele>70.655808</ele>
        <time>2026-08-15T06:19:45.000Z</time>
      </trkpt>
      <trkpt lat="23.048922" lon="109.595997">
        <ele>70.656013</ele>
        <time>2026-08-15T06:19:46.000Z</time>
      </trkpt>
      <trkpt lat="23.048930" lon="109.596052">
        <ele>70.656219</ele>
        <time>2026-08-15T06:19:47.000Z</time>
      </trkpt>
      <trkpt lat="23.048940" lon="109.596107">
        <ele>70.656427</ele>
        <time>2026-08-15T06:19:48.000Z</time>
      </trkpt>
      <trkpt lat="23.048949" lon="109.596162">
        <ele>70.656634</ele>
        <time>2026-08-15T06:19:49.000Z</time>
      </trkpt>
      <trkpt lat="23.048958" lon="109.596217">
        <ele>70.656841</ele>
        <time>2026-08-15T06:19:50.000Z</time>
      </trkpt>
      <trkpt lat="23.048966" lon="109.596272">
        <ele>70.657048</ele>
        <time>2026-08-15T06:19:51.000Z</time>
      </trkpt>
      <trkpt lat="23.048973" lon="109.596327">
        <ele>70.657254</ele>
        <time>2026-08-15T06:19:52.000Z</time>
      </trkpt>
      <trkpt lat="23.048981" lon="109.596383">
        <ele>70.657464</ele>
        <time>2026-08-15T06:19:53.000Z</time>
      </trkpt>
      <trkpt lat="23.048989" lon="109.596439">
        <ele>70.659452</ele>
        <time>2026-08-15T06:19:54.000Z</time>
      </trkpt>
      <trkpt lat="23.048996" lon="109.596494">
        <ele>70.663095</ele>
        <time>2026-08-15T06:19:55.000Z</time>
      </trkpt>
      <trkpt lat="23.049004" lon="109.596549">
        <ele>70.666749</ele>
        <time>2026-08-15T06:19:56.000Z</time>
      </trkpt>
      <trkpt lat="23.049012" lon="109.596604">
        <ele>70.670403</ele>
        <time>2026-08-15T06:19:57.000Z</time>
      </trkpt>
      <trkpt lat="23.049022" lon="109.596660">
        <ele>70.674146</ele>
        <time>2026-08-15T06:19:58.000Z</time>
      </trkpt>
      <trkpt lat="23.049030" lon="109.596717">
        <ele>70.677930</ele>
        <time>2026-08-15T06:19:59.000Z</time>
      </trkpt>
      <trkpt lat="23.049036" lon="109.596773">
        <ele>70.681629</ele>
        <time>2026-08-15T06:20:00.000Z</time>
      </trkpt>
      <trkpt lat="23.049045" lon="109.596825">
        <ele>70.685101</ele>
        <time>2026-08-15T06:20:01.000Z</time>
      </trkpt>
      <trkpt lat="23.049055" lon="109.596878">
        <ele>70.688651</ele>
        <time>2026-08-15T06:20:02.000Z</time>
      </trkpt>
      <trkpt lat="23.049062" lon="109.596932">
        <ele>70.692230</ele>
        <time>2026-08-15T06:20:03.000Z</time>
      </trkpt>
      <trkpt lat="23.049068" lon="109.596988">
        <ele>70.695929</ele>
        <time>2026-08-15T06:20:04.000Z</time>
      </trkpt>
      <trkpt lat="23.049073" lon="109.597043">
        <ele>70.699556</ele>
        <time>2026-08-15T06:20:05.000Z</time>
      </trkpt>
      <trkpt lat="23.049080" lon="109.597099">
        <ele>70.703264</ele>
        <time>2026-08-15T06:20:06.000Z</time>
      </trkpt>
      <trkpt lat="23.049089" lon="109.597154">
        <ele>70.706930</ele>
        <time>2026-08-15T06:20:07.000Z</time>
      </trkpt>
      <trkpt lat="23.049098" lon="109.597209">
        <ele>70.710595</ele>
        <time>2026-08-15T06:20:08.000Z</time>
      </trkpt>
      <trkpt lat="23.049107" lon="109.597265">
        <ele>70.714325</ele>
        <time>2026-08-15T06:20:09.000Z</time>
      </trkpt>
      <trkpt lat="23.049113" lon="109.597320">
        <ele>70.717960</ele>
        <time>2026-08-15T06:20:10.000Z</time>
      </trkpt>
      <trkpt lat="23.049117" lon="109.597374">
        <ele>70.721515</ele>
        <time>2026-08-15T06:20:11.000Z</time>
      </trkpt>
      <trkpt lat="23.049122" lon="109.597431">
        <ele>70.725272</ele>
        <time>2026-08-15T06:20:12.000Z</time>
      </trkpt>
      <trkpt lat="23.049126" lon="109.597487">
        <ele>70.728957</ele>
        <time>2026-08-15T06:20:13.000Z</time>
      </trkpt>
      <trkpt lat="23.049134" lon="109.597542">
        <ele>70.732611</ele>
        <time>2026-08-15T06:20:14.000Z</time>
      </trkpt>
      <trkpt lat="23.049141" lon="109.597598">
        <ele>70.736320</ele>
        <time>2026-08-15T06:20:15.000Z</time>
      </trkpt>
      <trkpt lat="23.049148" lon="109.597654">
        <ele>70.740028</ele>
        <time>2026-08-15T06:20:16.000Z</time>
      </trkpt>
      <trkpt lat="23.049154" lon="109.597710">
        <ele>70.743727</ele>
        <time>2026-08-15T06:20:17.000Z</time>
      </trkpt>
      <trkpt lat="23.049161" lon="109.597768">
        <ele>70.747566</ele>
        <time>2026-08-15T06:20:18.000Z</time>
      </trkpt>
      <trkpt lat="23.049168" lon="109.597824">
        <ele>70.751274</ele>
        <time>2026-08-15T06:20:19.000Z</time>
      </trkpt>
      <trkpt lat="23.049175" lon="109.597878">
        <ele>70.754853</ele>
        <time>2026-08-15T06:20:20.000Z</time>
      </trkpt>
      <trkpt lat="23.049182" lon="109.597934">
        <ele>70.758561</ele>
        <time>2026-08-15T06:20:21.000Z</time>
      </trkpt>
      <trkpt lat="23.049187" lon="109.597990">
        <ele>70.762253</ele>
        <time>2026-08-15T06:20:22.000Z</time>
      </trkpt>
      <trkpt lat="23.049192" lon="109.598047">
        <ele>70.766010</ele>
        <time>2026-08-15T06:20:23.000Z</time>
      </trkpt>
      <trkpt lat="23.049196" lon="109.598105">
        <ele>70.769826</ele>
        <time>2026-08-15T06:20:24.000Z</time>
      </trkpt>
      <trkpt lat="23.049201" lon="109.598163">
        <ele>70.773649</ele>
        <time>2026-08-15T06:20:25.000Z</time>
      </trkpt>
      <trkpt lat="23.049206" lon="109.598219">
        <ele>70.777341</ele>
        <time>2026-08-15T06:20:26.000Z</time>
      </trkpt>
      <trkpt lat="23.049212" lon="109.598276">
        <ele>70.781105</ele>
        <time>2026-08-15T06:20:27.000Z</time>
      </trkpt>
      <trkpt lat="23.049219" lon="109.598332">
        <ele>70.784814</ele>
        <time>2026-08-15T06:20:28.000Z</time>
      </trkpt>
      <trkpt lat="23.049226" lon="109.598389">
        <ele>70.787765</ele>
        <time>2026-08-15T06:20:29.000Z</time>
      </trkpt>
      <trkpt lat="23.049234" lon="109.598444">
        <ele>70.790328</ele>
        <time>2026-08-15T06:20:30.000Z</time>
      </trkpt>
      <trkpt lat="23.049241" lon="109.598500">
        <ele>70.792930</ele>
        <time>2026-08-15T06:20:31.000Z</time>
      </trkpt>
      <trkpt lat="23.049246" lon="109.598557">
        <ele>70.795566</ele>
        <time>2026-08-15T06:20:32.000Z</time>
      </trkpt>
      <trkpt lat="23.049252" lon="109.598614">
        <ele>70.798207</ele>
        <time>2026-08-15T06:20:33.000Z</time>
      </trkpt>
      <trkpt lat="23.049256" lon="109.598673">
        <ele>70.800931</ele>
        <time>2026-08-15T06:20:34.000Z</time>
      </trkpt>
      <trkpt lat="23.049261" lon="109.598729">
        <ele>70.803521</ele>
        <time>2026-08-15T06:20:35.000Z</time>
      </trkpt>
      <trkpt lat="23.049266" lon="109.598784">
        <ele>70.806066</ele>
        <time>2026-08-15T06:20:36.000Z</time>
      </trkpt>
      <trkpt lat="23.049271" lon="109.598841">
        <ele>70.808702</ele>
        <time>2026-08-15T06:20:37.000Z</time>
      </trkpt>
      <trkpt lat="23.049276" lon="109.598899">
        <ele>70.811384</ele>
        <time>2026-08-15T06:20:38.000Z</time>
      </trkpt>
      <trkpt lat="23.049279" lon="109.598955">
        <ele>70.813966</ele>
        <time>2026-08-15T06:20:39.000Z</time>
      </trkpt>
      <trkpt lat="23.049281" lon="109.599011">
        <ele>70.816546</ele>
        <time>2026-08-15T06:20:40.000Z</time>
      </trkpt>
      <trkpt lat="23.049284" lon="109.599068">
        <ele>70.819175</ele>
        <time>2026-08-15T06:20:41.000Z</time>
      </trkpt>
      <trkpt lat="23.049286" lon="109.599124">
        <ele>70.821755</ele>
        <time>2026-08-15T06:20:42.000Z</time>
      </trkpt>
      <trkpt lat="23.049292" lon="109.599180">
        <ele>70.824350</ele>
        <time>2026-08-15T06:20:43.000Z</time>
      </trkpt>
      <trkpt lat="23.049302" lon="109.599233">
        <ele>70.826841</ele>
        <time>2026-08-15T06:20:44.000Z</time>
      </trkpt>
      <trkpt lat="23.049309" lon="109.599287">
        <ele>70.829352</ele>
        <time>2026-08-15T06:20:45.000Z</time>
      </trkpt>
      <trkpt lat="23.049314" lon="109.599345">
        <ele>70.832034</ele>
        <time>2026-08-15T06:20:46.000Z</time>
      </trkpt>
      <trkpt lat="23.049317" lon="109.599402">
        <ele>70.834662</ele>
        <time>2026-08-15T06:20:47.000Z</time>
      </trkpt>
      <trkpt lat="23.049319" lon="109.599458">
        <ele>70.837242</ele>
        <time>2026-08-15T06:20:48.000Z</time>
      </trkpt>
      <trkpt lat="23.049323" lon="109.599515">
        <ele>70.839874</ele>
        <time>2026-08-15T06:20:49.000Z</time>
      </trkpt>
      <trkpt lat="23.049328" lon="109.599571">
        <ele>70.842464</ele>
        <time>2026-08-15T06:20:50.000Z</time>
      </trkpt>
      <trkpt lat="23.049334" lon="109.599627">
        <ele>70.845060</ele>
        <time>2026-08-15T06:20:51.000Z</time>
      </trkpt>
      <trkpt lat="23.049337" lon="109.599681">
        <ele>70.847550</ele>
        <time>2026-08-15T06:20:52.000Z</time>
      </trkpt>
      <trkpt lat="23.049341" lon="109.599737">
        <ele>70.850136</ele>
        <time>2026-08-15T06:20:53.000Z</time>
      </trkpt>
      <trkpt lat="23.049345" lon="109.599794">
        <ele>70.852768</ele>
        <time>2026-08-15T06:20:54.000Z</time>
      </trkpt>
      <trkpt lat="23.049348" lon="109.599850">
        <ele>70.855350</ele>
        <time>2026-08-15T06:20:55.000Z</time>
      </trkpt>
      <trkpt lat="23.049349" lon="109.599906">
        <ele>70.857929</ele>
        <time>2026-08-15T06:20:56.000Z</time>
      </trkpt>
      <trkpt lat="23.049352" lon="109.599963">
        <ele>70.860557</ele>
        <time>2026-08-15T06:20:57.000Z</time>
      </trkpt>
      <trkpt lat="23.049364" lon="109.600007">
        <ele>70.862670</ele>
        <time>2026-08-15T06:20:58.000Z</time>
      </trkpt>
      <trkpt lat="23.049365" lon="109.600058">
        <ele>70.865019</ele>
        <time>2026-08-15T06:20:59.000Z</time>
      </trkpt>
      <trkpt lat="23.049366" lon="109.600111">
        <ele>70.867459</ele>
        <time>2026-08-15T06:21:00.000Z</time>
      </trkpt>
      <trkpt lat="23.049368" lon="109.600165">
        <ele>70.869947</ele>
        <time>2026-08-15T06:21:01.000Z</time>
      </trkpt>
      <trkpt lat="23.049369" lon="109.600221">
        <ele>70.872526</ele>
        <time>2026-08-15T06:21:02.000Z</time>
      </trkpt>
      <trkpt lat="23.049366" lon="109.600278">
        <ele>70.875154</ele>
        <time>2026-08-15T06:21:03.000Z</time>
      </trkpt>
      <trkpt lat="23.049362" lon="109.600337">
        <ele>70.877758</ele>
        <time>2026-08-15T06:21:04.000Z</time>
      </trkpt>
      <trkpt lat="23.049363" lon="109.600395">
        <ele>70.880272</ele>
        <time>2026-08-15T06:21:05.000Z</time>
      </trkpt>
      <trkpt lat="23.049364" lon="109.600454">
        <ele>70.882830</ele>
        <time>2026-08-15T06:21:06.000Z</time>
      </trkpt>
      <trkpt lat="23.049367" lon="109.600512">
        <ele>70.885348</ele>
        <time>2026-08-15T06:21:07.000Z</time>
      </trkpt>
      <trkpt lat="23.049370" lon="109.600571">
        <ele>70.887910</ele>
        <time>2026-08-15T06:21:08.000Z</time>
      </trkpt>
      <trkpt lat="23.049372" lon="109.600631">
        <ele>70.890512</ele>
        <time>2026-08-15T06:21:09.000Z</time>
      </trkpt>
      <trkpt lat="23.049373" lon="109.600690">
        <ele>70.893070</ele>
        <time>2026-08-15T06:21:10.000Z</time>
      </trkpt>
      <trkpt lat="23.049373" lon="109.600747">
        <ele>70.895541</ele>
        <time>2026-08-15T06:21:11.000Z</time>
      </trkpt>
      <trkpt lat="23.049376" lon="109.600807">
        <ele>70.898145</ele>
        <time>2026-08-15T06:21:12.000Z</time>
      </trkpt>
      <trkpt lat="23.049379" lon="109.600865">
        <ele>70.900663</ele>
        <time>2026-08-15T06:21:13.000Z</time>
      </trkpt>
      <trkpt lat="23.049379" lon="109.600922">
        <ele>70.903134</ele>
        <time>2026-08-15T06:21:14.000Z</time>
      </trkpt>
      <trkpt lat="23.049383" lon="109.600979">
        <ele>70.905612</ele>
        <time>2026-08-15T06:21:15.000Z</time>
      </trkpt>
      <trkpt lat="23.049386" lon="109.601035">
        <ele>70.908044</ele>
        <time>2026-08-15T06:21:16.000Z</time>
      </trkpt>
      <trkpt lat="23.049388" lon="109.601091">
        <ele>70.910473</ele>
        <time>2026-08-15T06:21:17.000Z</time>
      </trkpt>
      <trkpt lat="23.049391" lon="109.601149">
        <ele>70.912991</ele>
        <time>2026-08-15T06:21:18.000Z</time>
      </trkpt>
      <trkpt lat="23.049394" lon="109.601209">
        <ele>70.915596</ele>
        <time>2026-08-15T06:21:19.000Z</time>
      </trkpt>
      <trkpt lat="23.049400" lon="109.601265">
        <ele>70.918039</ele>
        <time>2026-08-15T06:21:20.000Z</time>
      </trkpt>
      <trkpt lat="23.049405" lon="109.601324">
        <ele>70.920608</ele>
        <time>2026-08-15T06:21:21.000Z</time>
      </trkpt>
      <trkpt lat="23.049406" lon="109.601383">
        <ele>70.923165</ele>
        <time>2026-08-15T06:21:22.000Z</time>
      </trkpt>
      <trkpt lat="23.049408" lon="109.601446">
        <ele>70.925898</ele>
        <time>2026-08-15T06:21:23.000Z</time>
      </trkpt>
      <trkpt lat="23.049410" lon="109.601509">
        <ele>70.928630</ele>
        <time>2026-08-15T06:21:24.000Z</time>
      </trkpt>
      <trkpt lat="23.049413" lon="109.601570">
        <ele>70.931278</ele>
        <time>2026-08-15T06:21:25.000Z</time>
      </trkpt>
      <trkpt lat="23.049415" lon="109.601629">
        <ele>70.933837</ele>
        <time>2026-08-15T06:21:26.000Z</time>
      </trkpt>
      <trkpt lat="23.049418" lon="109.601687">
        <ele>70.936356</ele>
        <time>2026-08-15T06:21:27.000Z</time>
      </trkpt>
      <trkpt lat="23.049418" lon="109.601742">
        <ele>70.938740</ele>
        <time>2026-08-15T06:21:28.000Z</time>
      </trkpt>
      <trkpt lat="23.049418" lon="109.601798">
        <ele>70.941167</ele>
        <time>2026-08-15T06:21:29.000Z</time>
      </trkpt>
      <trkpt lat="23.049417" lon="109.601858">
        <ele>70.943768</ele>
        <time>2026-08-15T06:21:30.000Z</time>
      </trkpt>
      <trkpt lat="23.049416" lon="109.601918">
        <ele>70.946369</ele>
        <time>2026-08-15T06:21:31.000Z</time>
      </trkpt>
      <trkpt lat="23.049418" lon="109.601978">
        <ele>70.948972</ele>
        <time>2026-08-15T06:21:32.000Z</time>
      </trkpt>
      <trkpt lat="23.049421" lon="109.602037">
        <ele>70.951533</ele>
        <time>2026-08-15T06:21:33.000Z</time>
      </trkpt>
      <trkpt lat="23.049428" lon="109.602098">
        <ele>70.954198</ele>
        <time>2026-08-15T06:21:34.000Z</time>
      </trkpt>
      <trkpt lat="23.049433" lon="109.602158">
        <ele>70.956809</ele>
        <time>2026-08-15T06:21:35.000Z</time>
      </trkpt>
      <trkpt lat="23.049437" lon="109.602217">
        <ele>70.959374</ele>
        <time>2026-08-15T06:21:36.000Z</time>
      </trkpt>
      <trkpt lat="23.049442" lon="109.602277">
        <ele>70.965961</ele>
        <time>2026-08-15T06:21:37.000Z</time>
      </trkpt>
      <trkpt lat="23.049446" lon="109.602334">
        <ele>70.975303</ele>
        <time>2026-08-15T06:21:38.000Z</time>
      </trkpt>
      <trkpt lat="23.049448" lon="109.602390">
        <ele>70.984461</ele>
        <time>2026-08-15T06:21:39.000Z</time>
      </trkpt>
      <trkpt lat="23.049450" lon="109.602450">
        <ele>70.994273</ele>
        <time>2026-08-15T06:21:40.000Z</time>
      </trkpt>
      <trkpt lat="23.049447" lon="109.602512">
        <ele>71.004419</ele>
        <time>2026-08-15T06:21:41.000Z</time>
      </trkpt>
      <trkpt lat="23.049448" lon="109.602572">
        <ele>71.014225</ele>
        <time>2026-08-15T06:21:42.000Z</time>
      </trkpt>
      <trkpt lat="23.049450" lon="109.602634">
        <ele>71.024363</ele>
        <time>2026-08-15T06:21:43.000Z</time>
      </trkpt>
      <trkpt lat="23.049455" lon="109.602695">
        <ele>71.034371</ele>
        <time>2026-08-15T06:21:44.000Z</time>
      </trkpt>
      <trkpt lat="23.049458" lon="109.602755">
        <ele>71.044191</ele>
        <time>2026-08-15T06:21:45.000Z</time>
      </trkpt>
      <trkpt lat="23.049459" lon="109.602818">
        <ele>71.054488</ele>
        <time>2026-08-15T06:21:46.000Z</time>
      </trkpt>
      <trkpt lat="23.049463" lon="109.602880">
        <ele>71.064644</ele>
        <time>2026-08-15T06:21:47.000Z</time>
      </trkpt>
      <trkpt lat="23.049467" lon="109.602941">
        <ele>71.074638</ele>
        <time>2026-08-15T06:21:48.000Z</time>
      </trkpt>
      <trkpt lat="23.049473" lon="109.603000">
        <ele>71.084339</ele>
        <time>2026-08-15T06:21:49.000Z</time>
      </trkpt>
      <trkpt lat="23.049481" lon="109.603060">
        <ele>71.094246</ele>
        <time>2026-08-15T06:21:50.000Z</time>
      </trkpt>
      <trkpt lat="23.049485" lon="109.603118">
        <ele>71.103751</ele>
        <time>2026-08-15T06:21:51.000Z</time>
      </trkpt>
      <trkpt lat="23.049489" lon="109.603177">
        <ele>71.113419</ele>
        <time>2026-08-15T06:21:52.000Z</time>
      </trkpt>
      <trkpt lat="23.049491" lon="109.603233">
        <ele>71.122577</ele>
        <time>2026-08-15T06:21:53.000Z</time>
      </trkpt>
      <trkpt lat="23.049494" lon="109.603293">
        <ele>71.132396</ele>
        <time>2026-08-15T06:21:54.000Z</time>
      </trkpt>
      <trkpt lat="23.049496" lon="109.603354">
        <ele>71.142371</ele>
        <time>2026-08-15T06:21:55.000Z</time>
      </trkpt>
      <trkpt lat="23.049498" lon="109.603416">
        <ele>71.152509</ele>
        <time>2026-08-15T06:21:56.000Z</time>
      </trkpt>
      <trkpt lat="23.049502" lon="109.603476">
        <ele>71.162340</ele>
        <time>2026-08-15T06:21:57.000Z</time>
      </trkpt>
      <trkpt lat="23.049505" lon="109.603534">
        <ele>71.171833</ele>
        <time>2026-08-15T06:21:58.000Z</time>
      </trkpt>
      <trkpt lat="23.049508" lon="109.603593">
        <ele>71.181490</ele>
        <time>2026-08-15T06:21:59.000Z</time>
      </trkpt>
      <trkpt lat="23.049510" lon="109.603651">
        <ele>71.190975</ele>
        <time>2026-08-15T06:22:00.000Z</time>
      </trkpt>
      <trkpt lat="23.049514" lon="109.603708">
        <ele>71.200316</ele>
        <time>2026-08-15T06:22:01.000Z</time>
      </trkpt>
      <trkpt lat="23.049517" lon="109.603767">
        <ele>71.209973</ele>
        <time>2026-08-15T06:22:02.000Z</time>
      </trkpt>
      <trkpt lat="23.049519" lon="109.603826">
        <ele>71.219621</ele>
        <time>2026-08-15T06:22:03.000Z</time>
      </trkpt>
      <trkpt lat="23.049521" lon="109.603883">
        <ele>71.228943</ele>
        <time>2026-08-15T06:22:04.000Z</time>
      </trkpt>
      <trkpt lat="23.049521" lon="109.603943">
        <ele>71.238748</ele>
        <time>2026-08-15T06:22:05.000Z</time>
      </trkpt>
      <trkpt lat="23.049522" lon="109.604003">
        <ele>71.248554</ele>
        <time>2026-08-15T06:22:06.000Z</time>
      </trkpt>
      <trkpt lat="23.049524" lon="109.604063">
        <ele>71.258366</ele>
        <time>2026-08-15T06:22:07.000Z</time>
      </trkpt>
      <trkpt lat="23.049526" lon="109.604121">
        <ele>71.267851</ele>
        <time>2026-08-15T06:22:08.000Z</time>
      </trkpt>
      <trkpt lat="23.049529" lon="109.604178">
        <ele>71.277181</ele>
        <time>2026-08-15T06:22:09.000Z</time>
      </trkpt>
      <trkpt lat="23.049530" lon="109.604237">
        <ele>71.275761</ele>
        <time>2026-08-15T06:22:10.000Z</time>
      </trkpt>
      <trkpt lat="23.049530" lon="109.604295">
        <ele>71.269916</ele>
        <time>2026-08-15T06:22:11.000Z</time>
      </trkpt>
      <trkpt lat="23.049532" lon="109.604353">
        <ele>71.264066</ele>
        <time>2026-08-15T06:22:12.000Z</time>
      </trkpt>
      <trkpt lat="23.049534" lon="109.604411">
        <ele>71.258217</ele>
        <time>2026-08-15T06:22:13.000Z</time>
      </trkpt>
      <trkpt lat="23.049535" lon="109.604468">
        <ele>71.252471</ele>
        <time>2026-08-15T06:22:14.000Z</time>
      </trkpt>
      <trkpt lat="23.049534" lon="109.604526">
        <ele>71.246625</ele>
        <time>2026-08-15T06:22:15.000Z</time>
      </trkpt>
      <trkpt lat="23.049533" lon="109.604585">
        <ele>71.240678</ele>
        <time>2026-08-15T06:22:16.000Z</time>
      </trkpt>
      <trkpt lat="23.049537" lon="109.604644">
        <ele>71.234715</ele>
        <time>2026-08-15T06:22:17.000Z</time>
      </trkpt>
      <trkpt lat="23.049542" lon="109.604702">
        <ele>71.228844</ele>
        <time>2026-08-15T06:22:18.000Z</time>
      </trkpt>
      <trkpt lat="23.049544" lon="109.604761">
        <ele>71.222894</ele>
        <time>2026-08-15T06:22:19.000Z</time>
      </trkpt>
      <trkpt lat="23.049545" lon="109.604819">
        <ele>71.217048</ele>
        <time>2026-08-15T06:22:20.000Z</time>
      </trkpt>
      <trkpt lat="23.049546" lon="109.604876">
        <ele>71.211302</ele>
        <time>2026-08-15T06:22:21.000Z</time>
      </trkpt>
      <trkpt lat="23.049552" lon="109.604935">
        <ele>71.205320</ele>
        <time>2026-08-15T06:22:22.000Z</time>
      </trkpt>
      <trkpt lat="23.049557" lon="109.604991">
        <ele>71.199649</ele>
        <time>2026-08-15T06:22:23.000Z</time>
      </trkpt>
      <trkpt lat="23.049561" lon="109.605048">
        <ele>71.193888</ele>
        <time>2026-08-15T06:22:24.000Z</time>
      </trkpt>
      <trkpt lat="23.049563" lon="109.605105">
        <ele>71.188139</ele>
        <time>2026-08-15T06:22:25.000Z</time>
      </trkpt>
      <trkpt lat="23.049562" lon="109.605164">
        <ele>71.182192</ele>
        <time>2026-08-15T06:22:26.000Z</time>
      </trkpt>
      <trkpt lat="23.049564" lon="109.605226">
        <ele>71.175940</ele>
        <time>2026-08-15T06:22:27.000Z</time>
      </trkpt>
      <trkpt lat="23.049568" lon="109.605285">
        <ele>71.169977</ele>
        <time>2026-08-15T06:22:28.000Z</time>
      </trkpt>
      <trkpt lat="23.049571" lon="109.605344">
        <ele>71.164022</ele>
        <time>2026-08-15T06:22:29.000Z</time>
      </trkpt>
      <trkpt lat="23.049573" lon="109.605403">
        <ele>71.158072</ele>
        <time>2026-08-15T06:22:30.000Z</time>
      </trkpt>
      <trkpt lat="23.049576" lon="109.605463">
        <ele>71.152016</ele>
        <time>2026-08-15T06:22:31.000Z</time>
      </trkpt>
      <trkpt lat="23.049578" lon="109.605524">
        <ele>71.145865</ele>
        <time>2026-08-15T06:22:32.000Z</time>
      </trkpt>
      <trkpt lat="23.049580" lon="109.605584">
        <ele>71.139814</ele>
        <time>2026-08-15T06:22:33.000Z</time>
      </trkpt>
      <trkpt lat="23.049583" lon="109.605644">
        <ele>71.133758</ele>
        <time>2026-08-15T06:22:34.000Z</time>
      </trkpt>
      <trkpt lat="23.049586" lon="109.605704">
        <ele>71.127702</ele>
        <time>2026-08-15T06:22:35.000Z</time>
      </trkpt>
      <trkpt lat="23.049586" lon="109.605765">
        <ele>71.121554</ele>
        <time>2026-08-15T06:22:36.000Z</time>
      </trkpt>
      <trkpt lat="23.049588" lon="109.605826">
        <ele>71.115403</ele>
        <time>2026-08-15T06:22:37.000Z</time>
      </trkpt>
      <trkpt lat="23.049592" lon="109.605887">
        <ele>71.109239</ele>
        <time>2026-08-15T06:22:38.000Z</time>
      </trkpt>
      <trkpt lat="23.049597" lon="109.605948">
        <ele>71.103067</ele>
        <time>2026-08-15T06:22:39.000Z</time>
      </trkpt>
      <trkpt lat="23.049598" lon="109.606009">
        <ele>71.096918</ele>
        <time>2026-08-15T06:22:40.000Z</time>
      </trkpt>
      <trkpt lat="23.049599" lon="109.606070">
        <ele>71.090770</ele>
        <time>2026-08-15T06:22:41.000Z</time>
      </trkpt>
      <trkpt lat="23.049604" lon="109.606131">
        <ele>71.084598</ele>
        <time>2026-08-15T06:22:42.000Z</time>
      </trkpt>
      <trkpt lat="23.049610" lon="109.606192">
        <ele>71.084183</ele>
        <time>2026-08-15T06:22:43.000Z</time>
      </trkpt>
      <trkpt lat="23.049613" lon="109.606253">
        <ele>71.085802</ele>
        <time>2026-08-15T06:22:44.000Z</time>
      </trkpt>
      <trkpt lat="23.049617" lon="109.606312">
        <ele>71.087370</ele>
        <time>2026-08-15T06:22:45.000Z</time>
      </trkpt>
      <trkpt lat="23.049622" lon="109.606371">
        <ele>71.088940</ele>
        <time>2026-08-15T06:22:46.000Z</time>
      </trkpt>
      <trkpt lat="23.049626" lon="109.606431">
        <ele>71.090535</ele>
        <time>2026-08-15T06:22:47.000Z</time>
      </trkpt>
      <trkpt lat="23.049628" lon="109.606491">
        <ele>71.092126</ele>
        <time>2026-08-15T06:22:48.000Z</time>
      </trkpt>
      <trkpt lat="23.049631" lon="109.606552">
        <ele>71.093745</ele>
        <time>2026-08-15T06:22:49.000Z</time>
      </trkpt>
      <trkpt lat="23.049633" lon="109.606610">
        <ele>71.095283</ele>
        <time>2026-08-15T06:22:50.000Z</time>
      </trkpt>
      <trkpt lat="23.049635" lon="109.606669">
        <ele>71.096848</ele>
        <time>2026-08-15T06:22:51.000Z</time>
      </trkpt>
      <trkpt lat="23.049636" lon="109.606729">
        <ele>71.098438</ele>
        <time>2026-08-15T06:22:52.000Z</time>
      </trkpt>
      <trkpt lat="23.049638" lon="109.606790">
        <ele>71.100056</ele>
        <time>2026-08-15T06:22:53.000Z</time>
      </trkpt>
      <trkpt lat="23.049639" lon="109.606851">
        <ele>71.101672</ele>
        <time>2026-08-15T06:22:54.000Z</time>
      </trkpt>
      <trkpt lat="23.049641" lon="109.606910">
        <ele>71.103237</ele>
        <time>2026-08-15T06:22:55.000Z</time>
      </trkpt>
      <trkpt lat="23.049644" lon="109.606968">
        <ele>71.104777</ele>
        <time>2026-08-15T06:22:56.000Z</time>
      </trkpt>
      <trkpt lat="23.049646" lon="109.607025">
        <ele>71.106288</ele>
        <time>2026-08-15T06:22:57.000Z</time>
      </trkpt>
      <trkpt lat="23.049647" lon="109.607082">
        <ele>71.107799</ele>
        <time>2026-08-15T06:22:58.000Z</time>
      </trkpt>
      <trkpt lat="23.049649" lon="109.607141">
        <ele>71.109364</ele>
        <time>2026-08-15T06:22:59.000Z</time>
      </trkpt>
      <trkpt lat="23.049654" lon="109.607200">
        <ele>71.110934</ele>
        <time>2026-08-15T06:23:00.000Z</time>
      </trkpt>
      <trkpt lat="23.049661" lon="109.607257">
        <ele>71.112458</ele>
        <time>2026-08-15T06:23:01.000Z</time>
      </trkpt>
      <trkpt lat="23.049666" lon="109.607315">
        <ele>71.114002</ele>
        <time>2026-08-15T06:23:02.000Z</time>
      </trkpt>
      <trkpt lat="23.049669" lon="109.607374">
        <ele>71.115568</ele>
        <time>2026-08-15T06:23:03.000Z</time>
      </trkpt>
      <trkpt lat="23.049672" lon="109.607433">
        <ele>71.117134</ele>
        <time>2026-08-15T06:23:04.000Z</time>
      </trkpt>
      <trkpt lat="23.049675" lon="109.607489">
        <ele>71.118620</ele>
        <time>2026-08-15T06:23:05.000Z</time>
      </trkpt>
      <trkpt lat="23.049674" lon="109.607544">
        <ele>71.120078</ele>
        <time>2026-08-15T06:23:06.000Z</time>
      </trkpt>
      <trkpt lat="23.049675" lon="109.607599">
        <ele>71.121536</ele>
        <time>2026-08-15T06:23:07.000Z</time>
      </trkpt>
      <trkpt lat="23.049678" lon="109.607656">
        <ele>71.123049</ele>
        <time>2026-08-15T06:23:08.000Z</time>
      </trkpt>
      <trkpt lat="23.049681" lon="109.607714">
        <ele>71.124589</ele>
        <time>2026-08-15T06:23:09.000Z</time>
      </trkpt>
      <trkpt lat="23.049685" lon="109.607772">
        <ele>71.126130</ele>
        <time>2026-08-15T06:23:10.000Z</time>
      </trkpt>
      <trkpt lat="23.049689" lon="109.607828">
        <ele>71.127619</ele>
        <time>2026-08-15T06:23:11.000Z</time>
      </trkpt>
      <trkpt lat="23.049693" lon="109.607886">
        <ele>71.129160</ele>
        <time>2026-08-15T06:23:12.000Z</time>
      </trkpt>
      <trkpt lat="23.049698" lon="109.607943">
        <ele>71.130678</ele>
        <time>2026-08-15T06:23:13.000Z</time>
      </trkpt>
      <trkpt lat="23.049701" lon="109.608002">
        <ele>71.132244</ele>
        <time>2026-08-15T06:23:14.000Z</time>
      </trkpt>
      <trkpt lat="23.049704" lon="109.608062">
        <ele>71.133836</ele>
        <time>2026-08-15T06:23:15.000Z</time>
      </trkpt>
      <trkpt lat="23.049708" lon="109.608122">
        <ele>71.136242</ele>
        <time>2026-08-15T06:23:16.000Z</time>
      </trkpt>
      <trkpt lat="23.049711" lon="109.608183">
        <ele>71.139899</ele>
        <time>2026-08-15T06:23:17.000Z</time>
      </trkpt>
      <trkpt lat="23.049715" lon="109.608245">
        <ele>71.143620</ele>
        <time>2026-08-15T06:23:18.000Z</time>
      </trkpt>
      <trkpt lat="23.049718" lon="109.608307">
        <ele>71.147336</ele>
        <time>2026-08-15T06:23:19.000Z</time>
      </trkpt>
      <trkpt lat="23.049722" lon="109.608370">
        <ele>71.151116</ele>
        <time>2026-08-15T06:23:20.000Z</time>
      </trkpt>
      <trkpt lat="23.049725" lon="109.608433">
        <ele>71.154893</ele>
        <time>2026-08-15T06:23:21.000Z</time>
      </trkpt>
      <trkpt lat="23.049728" lon="109.608495">
        <ele>71.158609</ele>
        <time>2026-08-15T06:23:22.000Z</time>
      </trkpt>
      <trkpt lat="23.049730" lon="109.608557">
        <ele>71.162323</ele>
        <time>2026-08-15T06:23:23.000Z</time>
      </trkpt>
      <trkpt lat="23.049733" lon="109.608618">
        <ele>71.165980</ele>
        <time>2026-08-15T06:23:24.000Z</time>
      </trkpt>
      <trkpt lat="23.049734" lon="109.608681">
        <ele>71.169752</ele>
        <time>2026-08-15T06:23:25.000Z</time>
      </trkpt>
      <trkpt lat="23.049734" lon="109.608745">
        <ele>71.173583</ele>
        <time>2026-08-15T06:23:26.000Z</time>
      </trkpt>
      <trkpt lat="23.049734" lon="109.608808">
        <ele>71.177354</ele>
        <time>2026-08-15T06:23:27.000Z</time>
      </trkpt>
      <trkpt lat="23.049733" lon="109.608874">
        <ele>71.181305</ele>
        <time>2026-08-15T06:23:28.000Z</time>
      </trkpt>
      <trkpt lat="23.049731" lon="109.608939">
        <ele>71.185199</ele>
        <time>2026-08-15T06:23:29.000Z</time>
      </trkpt>
      <trkpt lat="23.049731" lon="109.609005">
        <ele>71.189149</ele>
        <time>2026-08-15T06:23:30.000Z</time>
      </trkpt>
      <trkpt lat="23.049730" lon="109.609069">
        <ele>71.192981</ele>
        <time>2026-08-15T06:23:31.000Z</time>
      </trkpt>
      <trkpt lat="23.049730" lon="109.609133">
        <ele>71.196812</ele>
        <time>2026-08-15T06:23:32.000Z</time>
      </trkpt>
      <trkpt lat="23.049732" lon="109.609196">
        <ele>71.200586</ele>
        <time>2026-08-15T06:23:33.000Z</time>
      </trkpt>
      <trkpt lat="23.049734" lon="109.609260">
        <ele>71.204419</ele>
        <time>2026-08-15T06:23:34.000Z</time>
      </trkpt>
      <trkpt lat="23.049736" lon="109.609323">
        <ele>71.208193</ele>
        <time>2026-08-15T06:23:35.000Z</time>
      </trkpt>
      <trkpt lat="23.049739" lon="109.609385">
        <ele>71.211909</ele>
        <time>2026-08-15T06:23:36.000Z</time>
      </trkpt>
      <trkpt lat="23.049741" lon="109.609447">
        <ele>71.215623</ele>
        <time>2026-08-15T06:23:37.000Z</time>
      </trkpt>
      <trkpt lat="23.049742" lon="109.609507">
        <ele>71.219215</ele>
        <time>2026-08-15T06:23:38.000Z</time>
      </trkpt>
      <trkpt lat="23.049746" lon="109.609565">
        <ele>71.222697</ele>
        <time>2026-08-15T06:23:39.000Z</time>
      </trkpt>
      <trkpt lat="23.049750" lon="109.609619">
        <ele>71.225940</ele>
        <time>2026-08-15T06:23:40.000Z</time>
      </trkpt>
      <trkpt lat="23.049755" lon="109.609671">
        <ele>71.229069</ele>
        <time>2026-08-15T06:23:41.000Z</time>
      </trkpt>
      <trkpt lat="23.049757" lon="109.609719">
        <ele>71.231946</ele>
        <time>2026-08-15T06:23:42.000Z</time>
      </trkpt>
      <trkpt lat="23.049759" lon="109.609764">
        <ele>71.234643</ele>
        <time>2026-08-15T06:23:43.000Z</time>
      </trkpt>
      <trkpt lat="23.049760" lon="109.609808">
        <ele>71.237277</ele>
        <time>2026-08-15T06:23:44.000Z</time>
      </trkpt>
      <trkpt lat="23.049762" lon="109.609853">
        <ele>71.239974</ele>
        <time>2026-08-15T06:23:45.000Z</time>
      </trkpt>
      <trkpt lat="23.049766" lon="109.609903">
        <ele>71.242979</ele>
        <time>2026-08-15T06:23:46.000Z</time>
      </trkpt>
      <trkpt lat="23.049772" lon="109.609954">
        <ele>71.246056</ele>
        <time>2026-08-15T06:23:47.000Z</time>
      </trkpt>
      <trkpt lat="23.049776" lon="109.610006">
        <ele>71.249180</ele>
        <time>2026-08-15T06:23:48.000Z</time>
      </trkpt>
      <trkpt lat="23.049778" lon="109.610058">
        <ele>71.251476</ele>
        <time>2026-08-15T06:23:49.000Z</time>
      </trkpt>
      <trkpt lat="23.049778" lon="109.610112">
        <ele>71.249409</ele>
        <time>2026-08-15T06:23:50.000Z</time>
      </trkpt>
      <trkpt lat="23.049779" lon="109.610167">
        <ele>71.247303</ele>
        <time>2026-08-15T06:23:51.000Z</time>
      </trkpt>
      <trkpt lat="23.049783" lon="109.610223">
        <ele>71.245153</ele>
        <time>2026-08-15T06:23:52.000Z</time>
      </trkpt>
      <trkpt lat="23.049786" lon="109.610278">
        <ele>71.243044</ele>
        <time>2026-08-15T06:23:53.000Z</time>
      </trkpt>
      <trkpt lat="23.049789" lon="109.610335">
        <ele>71.240858</ele>
        <time>2026-08-15T06:23:54.000Z</time>
      </trkpt>
      <trkpt lat="23.049789" lon="109.610392">
        <ele>71.238676</ele>
        <time>2026-08-15T06:23:55.000Z</time>
      </trkpt>
      <trkpt lat="23.049790" lon="109.610449">
        <ele>71.236494</ele>
        <time>2026-08-15T06:23:56.000Z</time>
      </trkpt>
      <trkpt lat="23.049795" lon="109.610507">
        <ele>71.234264</ele>
        <time>2026-08-15T06:23:57.000Z</time>
      </trkpt>
      <trkpt lat="23.049800" lon="109.610566">
        <ele>71.231995</ele>
        <time>2026-08-15T06:23:58.000Z</time>
      </trkpt>
      <trkpt lat="23.049802" lon="109.610625">
        <ele>71.229735</ele>
        <time>2026-08-15T06:23:59.000Z</time>
      </trkpt>
      <trkpt lat="23.049804" lon="109.610684">
        <ele>71.227475</ele>
        <time>2026-08-15T06:24:00.000Z</time>
      </trkpt>
      <trkpt lat="23.049806" lon="109.610742">
        <ele>71.225253</ele>
        <time>2026-08-15T06:24:01.000Z</time>
      </trkpt>
      <trkpt lat="23.049808" lon="109.610801">
        <ele>71.222993</ele>
        <time>2026-08-15T06:24:02.000Z</time>
      </trkpt>
      <trkpt lat="23.049811" lon="109.610860">
        <ele>71.220731</ele>
        <time>2026-08-15T06:24:03.000Z</time>
      </trkpt>
      <trkpt lat="23.049813" lon="109.610920">
        <ele>71.218433</ele>
        <time>2026-08-15T06:24:04.000Z</time>
      </trkpt>
      <trkpt lat="23.049816" lon="109.610981">
        <ele>71.216094</ele>
        <time>2026-08-15T06:24:05.000Z</time>
      </trkpt>
      <trkpt lat="23.049820" lon="109.611042">
        <ele>71.213753</ele>
        <time>2026-08-15T06:24:06.000Z</time>
      </trkpt>
      <trkpt lat="23.049824" lon="109.611101">
        <ele>71.211489</ele>
        <time>2026-08-15T06:24:07.000Z</time>
      </trkpt>
      <trkpt lat="23.049828" lon="109.611159">
        <ele>71.209262</ele>
        <time>2026-08-15T06:24:08.000Z</time>
      </trkpt>
      <trkpt lat="23.049833" lon="109.611216">
        <ele>71.207070</ele>
        <time>2026-08-15T06:24:09.000Z</time>
      </trkpt>
      <trkpt lat="23.049838" lon="109.611272">
        <ele>71.204916</ele>
        <time>2026-08-15T06:24:10.000Z</time>
      </trkpt>
      <trkpt lat="23.049842" lon="109.611329">
        <ele>71.202728</ele>
        <time>2026-08-15T06:24:11.000Z</time>
      </trkpt>
      <trkpt lat="23.049845" lon="109.611385">
        <ele>71.200581</ele>
        <time>2026-08-15T06:24:12.000Z</time>
      </trkpt>
      <trkpt lat="23.049847" lon="109.611441">
        <ele>71.198435</ele>
        <time>2026-08-15T06:24:13.000Z</time>
      </trkpt>
      <trkpt lat="23.049849" lon="109.611497">
        <ele>71.196290</ele>
        <time>2026-08-15T06:24:14.000Z</time>
      </trkpt>
      <trkpt lat="23.049852" lon="109.611552">
        <ele>71.194181</ele>
        <time>2026-08-15T06:24:15.000Z</time>
      </trkpt>
      <trkpt lat="23.049852" lon="109.611608">
        <ele>71.192037</ele>
        <time>2026-08-15T06:24:16.000Z</time>
      </trkpt>
      <trkpt lat="23.049853" lon="109.611663">
        <ele>71.189931</ele>
        <time>2026-08-15T06:24:17.000Z</time>
      </trkpt>
      <trkpt lat="23.049856" lon="109.611718">
        <ele>71.187822</ele>
        <time>2026-08-15T06:24:18.000Z</time>
      </trkpt>
      <trkpt lat="23.049858" lon="109.611772">
        <ele>71.185753</ele>
        <time>2026-08-15T06:24:19.000Z</time>
      </trkpt>
      <trkpt lat="23.049860" lon="109.611827">
        <ele>71.183646</ele>
        <time>2026-08-15T06:24:20.000Z</time>
      </trkpt>
      <trkpt lat="23.049862" lon="109.611881">
        <ele>71.181577</ele>
        <time>2026-08-15T06:24:21.000Z</time>
      </trkpt>
      <trkpt lat="23.049866" lon="109.611936">
        <ele>71.179465</ele>
        <time>2026-08-15T06:24:22.000Z</time>
      </trkpt>
      <trkpt lat="23.049867" lon="109.611992">
        <ele>71.177321</ele>
        <time>2026-08-15T06:24:23.000Z</time>
      </trkpt>
      <trkpt lat="23.049869" lon="109.612046">
        <ele>71.181271</ele>
        <time>2026-08-15T06:24:24.000Z</time>
      </trkpt>
      <trkpt lat="23.049872" lon="109.612101">
        <ele>71.186562</ele>
        <time>2026-08-15T06:24:25.000Z</time>
      </trkpt>
      <trkpt lat="23.049873" lon="109.612155">
        <ele>71.191748</ele>
        <time>2026-08-15T06:24:26.000Z</time>
      </trkpt>
      <trkpt lat="23.049873" lon="109.612209">
        <ele>71.196933</ele>
        <time>2026-08-15T06:24:27.000Z</time>
      </trkpt>
      <trkpt lat="23.049874" lon="109.612263">
        <ele>71.202120</ele>
        <time>2026-08-15T06:24:28.000Z</time>
      </trkpt>
      <trkpt lat="23.049877" lon="109.612315">
        <ele>71.207123</ele>
        <time>2026-08-15T06:24:29.000Z</time>
      </trkpt>
      <trkpt lat="23.049879" lon="109.612367">
        <ele>71.212120</ele>
        <time>2026-08-15T06:24:30.000Z</time>
      </trkpt>
      <trkpt lat="23.049881" lon="109.612417">
        <ele>71.216926</ele>
        <time>2026-08-15T06:24:31.000Z</time>
      </trkpt>
      <trkpt lat="23.049884" lon="109.612468">
        <ele>71.221833</ele>
        <time>2026-08-15T06:24:32.000Z</time>
      </trkpt>
      <trkpt lat="23.049886" lon="109.612521">
        <ele>71.226927</ele>
        <time>2026-08-15T06:24:33.000Z</time>
      </trkpt>
      <trkpt lat="23.049886" lon="109.612574">
        <ele>71.232016</ele>
        <time>2026-08-15T06:24:34.000Z</time>
      </trkpt>
      <trkpt lat="23.049888" lon="109.612628">
        <ele>71.237205</ele>
        <time>2026-08-15T06:24:35.000Z</time>
      </trkpt>
      <trkpt lat="23.049890" lon="109.612681">
        <ele>71.242299</ele>
        <time>2026-08-15T06:24:36.000Z</time>
      </trkpt>
      <trkpt lat="23.049893" lon="109.612736">
        <ele>71.247589</ele>
        <time>2026-08-15T06:24:37.000Z</time>
      </trkpt>
      <trkpt lat="23.049897" lon="109.612791">
        <ele>71.252887</ele>
        <time>2026-08-15T06:24:38.000Z</time>
      </trkpt>
      <trkpt lat="23.049899" lon="109.612847">
        <ele>71.258268</ele>
        <time>2026-08-15T06:24:39.000Z</time>
      </trkpt>
      <trkpt lat="23.049903" lon="109.612901">
        <ele>71.263471</ele>
        <time>2026-08-15T06:24:40.000Z</time>
      </trkpt>
      <trkpt lat="23.049907" lon="109.612956">
        <ele>71.268768</ele>
        <time>2026-08-15T06:24:41.000Z</time>
      </trkpt>
      <trkpt lat="23.049911" lon="109.613010">
        <ele>71.273970</ele>
        <time>2026-08-15T06:24:42.000Z</time>
      </trkpt>
      <trkpt lat="23.049915" lon="109.613064">
        <ele>71.279172</ele>
        <time>2026-08-15T06:24:43.000Z</time>
      </trkpt>
      <trkpt lat="23.049918" lon="109.613118">
        <ele>71.284367</ele>
        <time>2026-08-15T06:24:44.000Z</time>
      </trkpt>
      <trkpt lat="23.049921" lon="109.613171">
        <ele>71.289466</ele>
        <time>2026-08-15T06:24:45.000Z</time>
      </trkpt>
      <trkpt lat="23.049927" lon="109.613225">
        <ele>71.294689</ele>
        <time>2026-08-15T06:24:46.000Z</time>
      </trkpt>
      <trkpt lat="23.049930" lon="109.613279">
        <ele>71.299884</ele>
        <time>2026-08-15T06:24:47.000Z</time>
      </trkpt>
      <trkpt lat="23.049934" lon="109.613334">
        <ele>71.305181</ele>
        <time>2026-08-15T06:24:48.000Z</time>
      </trkpt>
      <trkpt lat="23.049935" lon="109.613390">
        <ele>71.310560</ele>
        <time>2026-08-15T06:24:49.000Z</time>
      </trkpt>
      <trkpt lat="23.049937" lon="109.613447">
        <ele>71.316037</ele>
        <time>2026-08-15T06:24:50.000Z</time>
      </trkpt>
      <trkpt lat="23.049940" lon="109.613504">
        <ele>71.321519</ele>
        <time>2026-08-15T06:24:51.000Z</time>
      </trkpt>
      <trkpt lat="23.049943" lon="109.613560">
        <ele>71.326906</ele>
        <time>2026-08-15T06:24:52.000Z</time>
      </trkpt>
      <trkpt lat="23.049945" lon="109.613615">
        <ele>71.332191</ele>
        <time>2026-08-15T06:24:53.000Z</time>
      </trkpt>
      <trkpt lat="23.049949" lon="109.613670">
        <ele>71.337489</ele>
        <time>2026-08-15T06:24:54.000Z</time>
      </trkpt>
      <trkpt lat="23.049953" lon="109.613728">
        <ele>71.343074</ele>
        <time>2026-08-15T06:24:55.000Z</time>
      </trkpt>
      <trkpt lat="23.049954" lon="109.613786">
        <ele>71.348644</ele>
        <time>2026-08-15T06:24:56.000Z</time>
      </trkpt>
      <trkpt lat="23.049957" lon="109.613844">
        <ele>71.354222</ele>
        <time>2026-08-15T06:24:57.000Z</time>
      </trkpt>
      <trkpt lat="23.049957" lon="109.613904">
        <ele>71.359984</ele>
        <time>2026-08-15T06:24:58.000Z</time>
      </trkpt>
      <trkpt lat="23.049956" lon="109.613964">
        <ele>71.364536</ele>
        <time>2026-08-15T06:24:59.000Z</time>
      </trkpt>
      <trkpt lat="23.049958" lon="109.614023">
        <ele>71.363862</ele>
        <time>2026-08-15T06:25:00.000Z</time>
      </trkpt>
      <trkpt lat="23.049961" lon="109.614083">
        <ele>71.363175</ele>
        <time>2026-08-15T06:25:01.000Z</time>
      </trkpt>
      <trkpt lat="23.049965" lon="109.614144">
        <ele>71.362477</ele>
        <time>2026-08-15T06:25:02.000Z</time>
      </trkpt>
      <trkpt lat="23.049970" lon="109.614205">
        <ele>71.361777</ele>
        <time>2026-08-15T06:25:03.000Z</time>
      </trkpt>
      <trkpt lat="23.049976" lon="109.614264">
        <ele>71.361099</ele>
        <time>2026-08-15T06:25:04.000Z</time>
      </trkpt>
      <trkpt lat="23.049981" lon="109.614325">
        <ele>71.360400</ele>
        <time>2026-08-15T06:25:05.000Z</time>
      </trkpt>
      <trkpt lat="23.049985" lon="109.614387">
        <ele>71.359690</ele>
        <time>2026-08-15T06:25:06.000Z</time>
      </trkpt>
      <trkpt lat="23.049988" lon="109.614451">
        <ele>71.358958</ele>
        <time>2026-08-15T06:25:07.000Z</time>
      </trkpt>
      <trkpt lat="23.049989" lon="109.614514">
        <ele>71.358238</ele>
        <time>2026-08-15T06:25:08.000Z</time>
      </trkpt>
      <trkpt lat="23.049992" lon="109.614575">
        <ele>71.357541</ele>
        <time>2026-08-15T06:25:09.000Z</time>
      </trkpt>
      <trkpt lat="23.049993" lon="109.614636">
        <ele>71.356844</ele>
        <time>2026-08-15T06:25:10.000Z</time>
      </trkpt>
      <trkpt lat="23.049995" lon="109.614698">
        <ele>71.356135</ele>
        <time>2026-08-15T06:25:11.000Z</time>
      </trkpt>
      <trkpt lat="23.049998" lon="109.614759">
        <ele>71.355437</ele>
        <time>2026-08-15T06:25:12.000Z</time>
      </trkpt>
      <trkpt lat="23.050001" lon="109.614820">
        <ele>71.354740</ele>
        <time>2026-08-15T06:25:13.000Z</time>
      </trkpt>
      <trkpt lat="23.050004" lon="109.614881">
        <ele>71.354042</ele>
        <time>2026-08-15T06:25:14.000Z</time>
      </trkpt>
      <trkpt lat="23.050008" lon="109.614942">
        <ele>71.353343</ele>
        <time>2026-08-15T06:25:15.000Z</time>
      </trkpt>
      <trkpt lat="23.050011" lon="109.615003">
        <ele>71.352646</ele>
        <time>2026-08-15T06:25:16.000Z</time>
      </trkpt>
      <trkpt lat="23.050011" lon="109.615066">
        <ele>71.351926</ele>
        <time>2026-08-15T06:25:17.000Z</time>
      </trkpt>
      <trkpt lat="23.050013" lon="109.615129">
        <ele>71.351206</ele>
        <time>2026-08-15T06:25:18.000Z</time>
      </trkpt>
      <trkpt lat="23.050016" lon="109.615190">
        <ele>71.350508</ele>
        <time>2026-08-15T06:25:19.000Z</time>
      </trkpt>
      <trkpt lat="23.050020" lon="109.615252">
        <ele>71.349798</ele>
        <time>2026-08-15T06:25:20.000Z</time>
      </trkpt>
      <trkpt lat="23.050022" lon="109.615314">
        <ele>71.349090</ele>
        <time>2026-08-15T06:25:21.000Z</time>
      </trkpt>
      <trkpt lat="23.050024" lon="109.615376">
        <ele>71.348381</ele>
        <time>2026-08-15T06:25:22.000Z</time>
      </trkpt>
      <trkpt lat="23.050026" lon="109.615439">
        <ele>71.347661</ele>
        <time>2026-08-15T06:25:23.000Z</time>
      </trkpt>
      <trkpt lat="23.050028" lon="109.615501">
        <ele>71.346953</ele>
        <time>2026-08-15T06:25:24.000Z</time>
      </trkpt>
      <trkpt lat="23.050030" lon="109.615561">
        <ele>71.346267</ele>
        <time>2026-08-15T06:25:25.000Z</time>
      </trkpt>
      <trkpt lat="23.050032" lon="109.615623">
        <ele>71.345558</ele>
        <time>2026-08-15T06:25:26.000Z</time>
      </trkpt>
      <trkpt lat="23.050035" lon="109.615684">
        <ele>71.344861</ele>
        <time>2026-08-15T06:25:27.000Z</time>
      </trkpt>
      <trkpt lat="23.050037" lon="109.615744">
        <ele>71.344175</ele>
        <time>2026-08-15T06:25:28.000Z</time>
      </trkpt>
      <trkpt lat="23.050040" lon="109.615805">
        <ele>71.343477</ele>
        <time>2026-08-15T06:25:29.000Z</time>
      </trkpt>
      <trkpt lat="23.050041" lon="109.615866">
        <ele>71.342780</ele>
        <time>2026-08-15T06:25:30.000Z</time>
      </trkpt>
      <trkpt lat="23.050042" lon="109.615927">
        <ele>71.344305</ele>
        <time>2026-08-15T06:25:31.000Z</time>
      </trkpt>
      <trkpt lat="23.050044" lon="109.615989">
        <ele>71.349773</ele>
        <time>2026-08-15T06:25:32.000Z</time>
      </trkpt>
      <trkpt lat="23.050046" lon="109.616051">
        <ele>71.355241</ele>
        <time>2026-08-15T06:25:33.000Z</time>
      </trkpt>
      <trkpt lat="23.050047" lon="109.616113">
        <ele>71.360707</ele>
        <time>2026-08-15T06:25:34.000Z</time>
      </trkpt>
      <trkpt lat="23.050049" lon="109.616175">
        <ele>71.366175</ele>
        <time>2026-08-15T06:25:35.000Z</time>
      </trkpt>
      <trkpt lat="23.050051" lon="109.616236">
        <ele>71.371555</ele>
        <time>2026-08-15T06:25:36.000Z</time>
      </trkpt>
      <trkpt lat="23.050053" lon="109.616297">
        <ele>71.376935</ele>
        <time>2026-08-15T06:25:37.000Z</time>
      </trkpt>
      <trkpt lat="23.050054" lon="109.616359">
        <ele>71.382401</ele>
        <time>2026-08-15T06:25:38.000Z</time>
      </trkpt>
      <trkpt lat="23.050056" lon="109.616422">
        <ele>71.387957</ele>
        <time>2026-08-15T06:25:39.000Z</time>
      </trkpt>
      <trkpt lat="23.050057" lon="109.616486">
        <ele>71.393599</ele>
        <time>2026-08-15T06:25:40.000Z</time>
      </trkpt>
      <trkpt lat="23.050059" lon="109.616548">
        <ele>71.399067</ele>
        <time>2026-08-15T06:25:41.000Z</time>
      </trkpt>
      <trkpt lat="23.050062" lon="109.616611">
        <ele>71.404628</ele>
        <time>2026-08-15T06:25:42.000Z</time>
      </trkpt>
      <trkpt lat="23.050064" lon="109.616674">
        <ele>71.410184</ele>
        <time>2026-08-15T06:25:43.000Z</time>
      </trkpt>
      <trkpt lat="23.050068" lon="109.616738">
        <ele>71.415838</ele>
        <time>2026-08-15T06:25:44.000Z</time>
      </trkpt>
      <trkpt lat="23.050070" lon="109.616804">
        <ele>71.421659</ele>
        <time>2026-08-15T06:25:45.000Z</time>
      </trkpt>
      <trkpt lat="23.050074" lon="109.616869">
        <ele>71.427401</ele>
        <time>2026-08-15T06:25:46.000Z</time>
      </trkpt>
      <trkpt lat="23.050078" lon="109.616935">
        <ele>71.433231</ele>
        <time>2026-08-15T06:25:47.000Z</time>
      </trkpt>
      <trkpt lat="23.050082" lon="109.617003">
        <ele>71.439237</ele>
        <time>2026-08-15T06:25:48.000Z</time>
      </trkpt>
      <trkpt lat="23.050086" lon="109.617069">
        <ele>71.445067</ele>
        <time>2026-08-15T06:25:49.000Z</time>
      </trkpt>
      <trkpt lat="23.050089" lon="109.617136">
        <ele>71.450979</ele>
        <time>2026-08-15T06:25:50.000Z</time>
      </trkpt>
      <trkpt lat="23.050093" lon="109.617203">
        <ele>71.456897</ele>
        <time>2026-08-15T06:25:51.000Z</time>
      </trkpt>
      <trkpt lat="23.050099" lon="109.617270">
        <ele>71.462831</ele>
        <time>2026-08-15T06:25:52.000Z</time>
      </trkpt>
      <trkpt lat="23.050104" lon="109.617337">
        <ele>71.468756</ele>
        <time>2026-08-15T06:25:53.000Z</time>
      </trkpt>
      <trkpt lat="23.050107" lon="109.617404">
        <ele>71.474668</ele>
        <time>2026-08-15T06:25:54.000Z</time>
      </trkpt>
      <trkpt lat="23.050112" lon="109.617471">
        <ele>71.480593</ele>
        <time>2026-08-15T06:25:55.000Z</time>
      </trkpt>
      <trkpt lat="23.050116" lon="109.617537">
        <ele>71.486423</ele>
        <time>2026-08-15T06:25:56.000Z</time>
      </trkpt>
      <trkpt lat="23.050118" lon="109.617605">
        <ele>71.492420</ele>
        <time>2026-08-15T06:25:57.000Z</time>
      </trkpt>
      <trkpt lat="23.050120" lon="109.617673">
        <ele>71.498417</ele>
        <time>2026-08-15T06:25:58.000Z</time>
      </trkpt>
      <trkpt lat="23.050121" lon="109.617742">
        <ele>71.504499</ele>
        <time>2026-08-15T06:25:59.000Z</time>
      </trkpt>
      <trkpt lat="23.050124" lon="109.617811">
        <ele>71.510588</ele>
        <time>2026-08-15T06:26:00.000Z</time>
      </trkpt>
      <trkpt lat="23.050129" lon="109.617882">
        <ele>71.514353</ele>
        <time>2026-08-15T06:26:01.000Z</time>
      </trkpt>
      <trkpt lat="23.050135" lon="109.617952">
        <ele>71.513584</ele>
        <time>2026-08-15T06:26:02.000Z</time>
      </trkpt>
      <trkpt lat="23.050141" lon="109.618022">
        <ele>71.512814</ele>
        <time>2026-08-15T06:26:03.000Z</time>
      </trkpt>
      <trkpt lat="23.050149" lon="109.618093">
        <ele>71.512031</ele>
        <time>2026-08-15T06:26:04.000Z</time>
      </trkpt>
      <trkpt lat="23.050157" lon="109.618163">
        <ele>71.511258</ele>
        <time>2026-08-15T06:26:05.000Z</time>
      </trkpt>
      <trkpt lat="23.050165" lon="109.618234">
        <ele>71.510475</ele>
        <time>2026-08-15T06:26:06.000Z</time>
      </trkpt>
      <trkpt lat="23.050170" lon="109.618306">
        <ele>71.509685</ele>
        <time>2026-08-15T06:26:07.000Z</time>
      </trkpt>
      <trkpt lat="23.050172" lon="109.618377">
        <ele>71.508907</ele>
        <time>2026-08-15T06:26:08.000Z</time>
      </trkpt>
      <trkpt lat="23.050170" lon="109.618447">
        <ele>71.508140</ele>
        <time>2026-08-15T06:26:09.000Z</time>
      </trkpt>
      <trkpt lat="23.050166" lon="109.618516">
        <ele>71.507383</ele>
        <time>2026-08-15T06:26:10.000Z</time>
      </trkpt>
      <trkpt lat="23.050164" lon="109.618587">
        <ele>71.506605</ele>
        <time>2026-08-15T06:26:11.000Z</time>
      </trkpt>
      <trkpt lat="23.050163" lon="109.618658">
        <ele>71.505828</ele>
        <time>2026-08-15T06:26:12.000Z</time>
      </trkpt>
      <trkpt lat="23.050163" lon="109.618727">
        <ele>71.505072</ele>
        <time>2026-08-15T06:26:13.000Z</time>
      </trkpt>
      <trkpt lat="23.050163" lon="109.618797">
        <ele>71.504306</ele>
        <time>2026-08-15T06:26:14.000Z</time>
      </trkpt>
      <trkpt lat="23.050164" lon="109.618868">
        <ele>71.503529</ele>
        <time>2026-08-15T06:26:15.000Z</time>
      </trkpt>
      <trkpt lat="23.050168" lon="109.618938">
        <ele>71.502761</ele>
        <time>2026-08-15T06:26:16.000Z</time>
      </trkpt>
      <trkpt lat="23.050171" lon="109.619007">
        <ele>71.502004</ele>
        <time>2026-08-15T06:26:17.000Z</time>
      </trkpt>
      <trkpt lat="23.050173" lon="109.619076">
        <ele>71.501248</ele>
        <time>2026-08-15T06:26:18.000Z</time>
      </trkpt>
      <trkpt lat="23.050176" lon="109.619145">
        <ele>71.500492</ele>
        <time>2026-08-15T06:26:19.000Z</time>
      </trkpt>
      <trkpt lat="23.050179" lon="109.619214">
        <ele>71.499736</ele>
        <time>2026-08-15T06:26:20.000Z</time>
      </trkpt>
      <trkpt lat="23.050182" lon="109.619284">
        <ele>71.498969</ele>
        <time>2026-08-15T06:26:21.000Z</time>
      </trkpt>
      <trkpt lat="23.050184" lon="109.619354">
        <ele>71.498202</ele>
        <time>2026-08-15T06:26:22.000Z</time>
      </trkpt>
      <trkpt lat="23.050186" lon="109.619423">
        <ele>71.497446</ele>
        <time>2026-08-15T06:26:23.000Z</time>
      </trkpt>
      <trkpt lat="23.050189" lon="109.619490">
        <ele>71.496712</ele>
        <time>2026-08-15T06:26:24.000Z</time>
      </trkpt>
      <trkpt lat="23.050192" lon="109.619558">
        <ele>71.495966</ele>
        <time>2026-08-15T06:26:25.000Z</time>
      </trkpt>
      <trkpt lat="23.050194" lon="109.619625">
        <ele>71.495232</ele>
        <time>2026-08-15T06:26:26.000Z</time>
      </trkpt>
      <trkpt lat="23.050196" lon="109.619692">
        <ele>71.494498</ele>
        <time>2026-08-15T06:26:27.000Z</time>
      </trkpt>
      <trkpt lat="23.050199" lon="109.619759">
        <ele>71.493764</ele>
        <time>2026-08-15T06:26:28.000Z</time>
      </trkpt>
      <trkpt lat="23.050202" lon="109.619825">
        <ele>71.491624</ele>
        <time>2026-08-15T06:26:29.000Z</time>
      </trkpt>
      <trkpt lat="23.050206" lon="109.619891">
        <ele>71.485465</ele>
        <time>2026-08-15T06:26:30.000Z</time>
      </trkpt>
      <trkpt lat="23.050210" lon="109.619957">
        <ele>71.479305</ele>
        <time>2026-08-15T06:26:31.000Z</time>
      </trkpt>
      <trkpt lat="23.050214" lon="109.620023">
        <ele>71.473146</ele>
        <time>2026-08-15T06:26:32.000Z</time>
      </trkpt>
      <trkpt lat="23.050216" lon="109.620089">
        <ele>71.466997</ele>
        <time>2026-08-15T06:26:33.000Z</time>
      </trkpt>
      <trkpt lat="23.050218" lon="109.620154">
        <ele>71.460940</ele>
        <time>2026-08-15T06:26:34.000Z</time>
      </trkpt>
      <trkpt lat="23.050222" lon="109.620218">
        <ele>71.454967</ele>
        <time>2026-08-15T06:26:35.000Z</time>
      </trkpt>
      <trkpt lat="23.050226" lon="109.620282">
        <ele>71.448993</ele>
        <time>2026-08-15T06:26:36.000Z</time>
      </trkpt>
      <trkpt lat="23.050229" lon="109.620346">
        <ele>71.443026</ele>
        <time>2026-08-15T06:26:37.000Z</time>
      </trkpt>
      <trkpt lat="23.050231" lon="109.620410">
        <ele>71.437063</ele>
        <time>2026-08-15T06:26:38.000Z</time>
      </trkpt>
      <trkpt lat="23.050234" lon="109.620475">
        <ele>71.431002</ele>
        <time>2026-08-15T06:26:39.000Z</time>
      </trkpt>
      <trkpt lat="23.050236" lon="109.620538">
        <ele>71.425132</ele>
        <time>2026-08-15T06:26:40.000Z</time>
      </trkpt>
      <trkpt lat="23.050239" lon="109.620601">
        <ele>71.419258</ele>
        <time>2026-08-15T06:26:41.000Z</time>
      </trkpt>
      <trkpt lat="23.050243" lon="109.620664">
        <ele>71.413377</ele>
        <time>2026-08-15T06:26:42.000Z</time>
      </trkpt>
      <trkpt lat="23.050246" lon="109.620729">
        <ele>71.407316</ele>
        <time>2026-08-15T06:26:43.000Z</time>
      </trkpt>
      <trkpt lat="23.050248" lon="109.620794">
        <ele>71.401260</ele>
        <time>2026-08-15T06:26:44.000Z</time>
      </trkpt>
      <trkpt lat="23.050251" lon="109.620857">
        <ele>71.395386</ele>
        <time>2026-08-15T06:26:45.000Z</time>
      </trkpt>
      <trkpt lat="23.050251" lon="109.620919">
        <ele>71.389612</ele>
        <time>2026-08-15T06:26:46.000Z</time>
      </trkpt>
      <trkpt lat="23.050249" lon="109.620979">
        <ele>71.384021</ele>
        <time>2026-08-15T06:26:47.000Z</time>
      </trkpt>
      <trkpt lat="23.050249" lon="109.621038">
        <ele>71.378527</ele>
        <time>2026-08-15T06:26:48.000Z</time>
      </trkpt>
      <trkpt lat="23.050249" lon="109.621099">
        <ele>71.372846</ele>
        <time>2026-08-15T06:26:49.000Z</time>
      </trkpt>
      <trkpt lat="23.050251" lon="109.621160">
        <ele>71.367162</ele>
        <time>2026-08-15T06:26:50.000Z</time>
      </trkpt>
      <trkpt lat="23.050253" lon="109.621223">
        <ele>71.361292</ele>
        <time>2026-08-15T06:26:51.000Z</time>
      </trkpt>
      <trkpt lat="23.050257" lon="109.621288">
        <ele>71.355226</ele>
        <time>2026-08-15T06:26:52.000Z</time>
      </trkpt>
      <trkpt lat="23.050262" lon="109.621356">
        <ele>71.348873</ele>
        <time>2026-08-15T06:26:53.000Z</time>
      </trkpt>
      <trkpt lat="23.050267" lon="109.621423">
        <ele>71.342614</ele>
        <time>2026-08-15T06:26:54.000Z</time>
      </trkpt>
      <trkpt lat="23.050272" lon="109.621489">
        <ele>71.336447</ele>
        <time>2026-08-15T06:26:55.000Z</time>
      </trkpt>
      <trkpt lat="23.050276" lon="109.621556">
        <ele>71.330195</ele>
        <time>2026-08-15T06:26:56.000Z</time>
      </trkpt>
      <trkpt lat="23.050278" lon="109.621623">
        <ele>71.323952</ele>
        <time>2026-08-15T06:26:57.000Z</time>
      </trkpt>
      <trkpt lat="23.050279" lon="109.621688">
        <ele>71.317899</ele>
        <time>2026-08-15T06:26:58.000Z</time>
      </trkpt>
      <trkpt lat="23.050281" lon="109.621753">
        <ele>71.311842</ele>
        <time>2026-08-15T06:26:59.000Z</time>
      </trkpt>
      <trkpt lat="23.050283" lon="109.621821">
        <ele>71.318631</ele>
        <time>2026-08-15T06:27:00.000Z</time>
      </trkpt>
      <trkpt lat="23.050286" lon="109.621889">
        <ele>71.326896</ele>
        <time>2026-08-15T06:27:01.000Z</time>
      </trkpt>
      <trkpt lat="23.050291" lon="109.621958">
        <ele>71.335298</ele>
        <time>2026-08-15T06:27:02.000Z</time>
      </trkpt>
      <trkpt lat="23.050295" lon="109.622027">
        <ele>71.343692</ele>
        <time>2026-08-15T06:27:03.000Z</time>
      </trkpt>
      <trkpt lat="23.050298" lon="109.622096">
        <ele>71.352078</ele>
        <time>2026-08-15T06:27:04.000Z</time>
      </trkpt>
      <trkpt lat="23.050301" lon="109.622165">
        <ele>71.360464</ele>
        <time>2026-08-15T06:27:05.000Z</time>
      </trkpt>
      <trkpt lat="23.050308" lon="109.622235">
        <ele>71.369012</ele>
        <time>2026-08-15T06:27:06.000Z</time>
      </trkpt>
      <trkpt lat="23.050313" lon="109.622303">
        <ele>71.377294</ele>
        <time>2026-08-15T06:27:07.000Z</time>
      </trkpt>
      <trkpt lat="23.050315" lon="109.622371">
        <ele>71.385553</ele>
        <time>2026-08-15T06:27:08.000Z</time>
      </trkpt>
      <trkpt lat="23.050319" lon="109.622439">
        <ele>71.393825</ele>
        <time>2026-08-15T06:27:09.000Z</time>
      </trkpt>
      <trkpt lat="23.050321" lon="109.622510">
        <ele>71.402449</ele>
        <time>2026-08-15T06:27:10.000Z</time>
      </trkpt>
      <trkpt lat="23.050322" lon="109.622581">
        <ele>71.411069</ele>
        <time>2026-08-15T06:27:11.000Z</time>
      </trkpt>
      <trkpt lat="23.050324" lon="109.622651">
        <ele>71.419571</ele>
        <time>2026-08-15T06:27:12.000Z</time>
      </trkpt>
      <trkpt lat="23.050327" lon="109.622718">
        <ele>71.427715</ele>
        <time>2026-08-15T06:27:13.000Z</time>
      </trkpt>
      <trkpt lat="23.050329" lon="109.622786">
        <ele>71.435974</ele>
        <time>2026-08-15T06:27:14.000Z</time>
      </trkpt>
      <trkpt lat="23.050330" lon="109.622855">
        <ele>71.444352</ele>
        <time>2026-08-15T06:27:15.000Z</time>
      </trkpt>
      <trkpt lat="23.050330" lon="109.622924">
        <ele>71.452729</ele>
        <time>2026-08-15T06:27:16.000Z</time>
      </trkpt>
      <trkpt lat="23.050327" lon="109.622990">
        <ele>71.460751</ele>
        <time>2026-08-15T06:27:17.000Z</time>
      </trkpt>
      <trkpt lat="23.050330" lon="109.623056">
        <ele>71.468773</ele>
        <time>2026-08-15T06:27:18.000Z</time>
      </trkpt>
      <trkpt lat="23.050335" lon="109.623122">
        <ele>71.476813</ele>
        <time>2026-08-15T06:27:19.000Z</time>
      </trkpt>
      <trkpt lat="23.050340" lon="109.623188">
        <ele>71.484852</ele>
        <time>2026-08-15T06:27:20.000Z</time>
      </trkpt>
      <trkpt lat="23.050343" lon="109.623254">
        <ele>71.492875</ele>
        <time>2026-08-15T06:27:21.000Z</time>
      </trkpt>
      <trkpt lat="23.050347" lon="109.623319">
        <ele>71.500783</ele>
        <time>2026-08-15T06:27:22.000Z</time>
      </trkpt>
      <trkpt lat="23.050351" lon="109.623383">
        <ele>71.508571</ele>
        <time>2026-08-15T06:27:23.000Z</time>
      </trkpt>
      <trkpt lat="23.050355" lon="109.623446">
        <ele>71.516238</ele>
        <time>2026-08-15T06:27:24.000Z</time>
      </trkpt>
      <trkpt lat="23.050359" lon="109.623510">
        <ele>71.524025</ele>
        <time>2026-08-15T06:27:25.000Z</time>
      </trkpt>
      <trkpt lat="23.050364" lon="109.623573">
        <ele>71.531702</ele>
        <time>2026-08-15T06:27:26.000Z</time>
      </trkpt>
      <trkpt lat="23.050368" lon="109.623635">
        <ele>71.539247</ele>
        <time>2026-08-15T06:27:27.000Z</time>
      </trkpt>
      <trkpt lat="23.050372" lon="109.623699">
        <ele>71.547035</ele>
        <time>2026-08-15T06:27:28.000Z</time>
      </trkpt>
      <trkpt lat="23.050377" lon="109.623763">
        <ele>71.538706</ele>
        <time>2026-08-15T06:27:29.000Z</time>
      </trkpt>
      <trkpt lat="23.050382" lon="109.623826">
        <ele>71.526810</ele>
        <time>2026-08-15T06:27:30.000Z</time>
      </trkpt>
      <trkpt lat="23.050385" lon="109.623890">
        <ele>71.514754</ele>
        <time>2026-08-15T06:27:31.000Z</time>
      </trkpt>
      <trkpt lat="23.050388" lon="109.623954">
        <ele>71.502699</ele>
        <time>2026-08-15T06:27:32.000Z</time>
      </trkpt>
      <trkpt lat="23.050392" lon="109.624018">
        <ele>71.490631</ele>
        <time>2026-08-15T06:27:33.000Z</time>
      </trkpt>
      <trkpt lat="23.050400" lon="109.624079">
        <ele>71.479039</ele>
        <time>2026-08-15T06:27:34.000Z</time>
      </trkpt>
      <trkpt lat="23.050405" lon="109.624142">
        <ele>71.467143</ele>
        <time>2026-08-15T06:27:35.000Z</time>
      </trkpt>
      <trkpt lat="23.050408" lon="109.624205">
        <ele>71.455275</ele>
        <time>2026-08-15T06:27:36.000Z</time>
      </trkpt>
      <trkpt lat="23.050413" lon="109.624270">
        <ele>71.443005</ele>
        <time>2026-08-15T06:27:37.000Z</time>
      </trkpt>
      <trkpt lat="23.050416" lon="109.624336">
        <ele>71.430573</ele>
        <time>2026-08-15T06:27:38.000Z</time>
      </trkpt>
      <trkpt lat="23.050418" lon="109.624400">
        <ele>71.418526</ele>
        <time>2026-08-15T06:27:39.000Z</time>
      </trkpt>
      <trkpt lat="23.050420" lon="109.624463">
        <ele>71.406667</ele>
        <time>2026-08-15T06:27:40.000Z</time>
      </trkpt>
      <trkpt lat="23.050423" lon="109.624528">
        <ele>71.394423</ele>
        <time>2026-08-15T06:27:41.000Z</time>
      </trkpt>
      <trkpt lat="23.050427" lon="109.624588">
        <ele>71.383106</ele>
        <time>2026-08-15T06:27:42.000Z</time>
      </trkpt>
      <trkpt lat="23.050435" lon="109.624649">
        <ele>71.371515</ele>
        <time>2026-08-15T06:27:43.000Z</time>
      </trkpt>
      <trkpt lat="23.050438" lon="109.624713">
        <ele>71.359459</ele>
        <time>2026-08-15T06:27:44.000Z</time>
      </trkpt>
      <trkpt lat="23.050438" lon="109.624778">
        <ele>71.347231</ele>
        <time>2026-08-15T06:27:45.000Z</time>
      </trkpt>
      <trkpt lat="23.050436" lon="109.624842">
        <ele>71.335184</ele>
        <time>2026-08-15T06:27:46.000Z</time>
      </trkpt>
      <trkpt lat="23.050436" lon="109.624907">
        <ele>71.322955</ele>
        <time>2026-08-15T06:27:47.000Z</time>
      </trkpt>
      <trkpt lat="23.050437" lon="109.624972">
        <ele>71.310725</ele>
        <time>2026-08-15T06:27:48.000Z</time>
      </trkpt>
      <trkpt lat="23.050441" lon="109.625036">
        <ele>71.298658</ele>
        <time>2026-08-15T06:27:49.000Z</time>
      </trkpt>
      <trkpt lat="23.050446" lon="109.625099">
        <ele>71.286762</ele>
        <time>2026-08-15T06:27:50.000Z</time>
      </trkpt>
      <trkpt lat="23.050448" lon="109.625164">
        <ele>71.274527</ele>
        <time>2026-08-15T06:27:51.000Z</time>
      </trkpt>
      <trkpt lat="23.050450" lon="109.625229">
        <ele>71.262292</ele>
        <time>2026-08-15T06:27:52.000Z</time>
      </trkpt>
      <trkpt lat="23.050453" lon="109.625294">
        <ele>71.250048</ele>
        <time>2026-08-15T06:27:53.000Z</time>
      </trkpt>
      <trkpt lat="23.050457" lon="109.625359">
        <ele>71.237792</ele>
        <time>2026-08-15T06:27:54.000Z</time>
      </trkpt>
      <trkpt lat="23.050459" lon="109.625424">
        <ele>71.225557</ele>
        <time>2026-08-15T06:27:55.000Z</time>
      </trkpt>
      <trkpt lat="23.050462" lon="109.625488">
        <ele>71.213502</ele>
        <time>2026-08-15T06:27:56.000Z</time>
      </trkpt>
      <trkpt lat="23.050467" lon="109.625553">
        <ele>71.201231</ele>
        <time>2026-08-15T06:27:57.000Z</time>
      </trkpt>
      <trkpt lat="23.050474" lon="109.625618">
        <ele>71.188919</ele>
        <time>2026-08-15T06:27:58.000Z</time>
      </trkpt>
      <trkpt lat="23.050480" lon="109.625681">
        <ele>71.180881</ele>
        <time>2026-08-15T06:27:59.000Z</time>
      </trkpt>
      <trkpt lat="23.050487" lon="109.625744">
        <ele>71.181216</ele>
        <time>2026-08-15T06:28:00.000Z</time>
      </trkpt>
      <trkpt lat="23.050490" lon="109.625807">
        <ele>71.181548</ele>
        <time>2026-08-15T06:28:01.000Z</time>
      </trkpt>
      <trkpt lat="23.050494" lon="109.625871">
        <ele>71.181887</ele>
        <time>2026-08-15T06:28:02.000Z</time>
      </trkpt>
      <trkpt lat="23.050499" lon="109.625934">
        <ele>71.182220</ele>
        <time>2026-08-15T06:28:03.000Z</time>
      </trkpt>
      <trkpt lat="23.050503" lon="109.625997">
        <ele>71.182553</ele>
        <time>2026-08-15T06:28:04.000Z</time>
      </trkpt>
      <trkpt lat="23.050510" lon="109.626059">
        <ele>71.182882</ele>
        <time>2026-08-15T06:28:05.000Z</time>
      </trkpt>
      <trkpt lat="23.050514" lon="109.626120">
        <ele>71.183205</ele>
        <time>2026-08-15T06:28:06.000Z</time>
      </trkpt>
      <trkpt lat="23.050514" lon="109.626183">
        <ele>71.183537</ele>
        <time>2026-08-15T06:28:07.000Z</time>
      </trkpt>
      <trkpt lat="23.050514" lon="109.626243">
        <ele>71.183853</ele>
        <time>2026-08-15T06:28:08.000Z</time>
      </trkpt>
      <trkpt lat="23.050514" lon="109.626300">
        <ele>71.184154</ele>
        <time>2026-08-15T06:28:09.000Z</time>
      </trkpt>
      <trkpt lat="23.050519" lon="109.626354">
        <ele>71.184440</ele>
        <time>2026-08-15T06:28:10.000Z</time>
      </trkpt>
      <trkpt lat="23.050526" lon="109.626408">
        <ele>71.184727</ele>
        <time>2026-08-15T06:28:11.000Z</time>
      </trkpt>
      <trkpt lat="23.050526" lon="109.626463">
        <ele>71.185017</ele>
        <time>2026-08-15T06:28:12.000Z</time>
      </trkpt>
      <trkpt lat="23.050524" lon="109.626514">
        <ele>71.185286</ele>
        <time>2026-08-15T06:28:13.000Z</time>
      </trkpt>
      <trkpt lat="23.050521" lon="109.626566">
        <ele>71.185561</ele>
        <time>2026-08-15T06:28:14.000Z</time>
      </trkpt>
      <trkpt lat="23.050519" lon="109.626618">
        <ele>71.185835</ele>
        <time>2026-08-15T06:28:15.000Z</time>
      </trkpt>
      <trkpt lat="23.050517" lon="109.626669">
        <ele>71.186105</ele>
        <time>2026-08-15T06:28:16.000Z</time>
      </trkpt>
      <trkpt lat="23.050517" lon="109.626721">
        <ele>71.186379</ele>
        <time>2026-08-15T06:28:17.000Z</time>
      </trkpt>
      <trkpt lat="23.050516" lon="109.626774">
        <ele>71.186658</ele>
        <time>2026-08-15T06:28:18.000Z</time>
      </trkpt>
      <trkpt lat="23.050515" lon="109.626827">
        <ele>71.186938</ele>
        <time>2026-08-15T06:28:19.000Z</time>
      </trkpt>
      <trkpt lat="23.050514" lon="109.626881">
        <ele>71.187222</ele>
        <time>2026-08-15T06:28:20.000Z</time>
      </trkpt>
      <trkpt lat="23.050514" lon="109.626934">
        <ele>71.187502</ele>
        <time>2026-08-15T06:28:21.000Z</time>
      </trkpt>
      <trkpt lat="23.050515" lon="109.626986">
        <ele>71.187776</ele>
        <time>2026-08-15T06:28:22.000Z</time>
      </trkpt>
      <trkpt lat="23.050517" lon="109.627037">
        <ele>71.188045</ele>
        <time>2026-08-15T06:28:23.000Z</time>
      </trkpt>
      <trkpt lat="23.050518" lon="109.627088">
        <ele>71.188314</ele>
        <time>2026-08-15T06:28:24.000Z</time>
      </trkpt>
      <trkpt lat="23.050518" lon="109.627142">
        <ele>71.188599</ele>
        <time>2026-08-15T06:28:25.000Z</time>
      </trkpt>
      <trkpt lat="23.050519" lon="109.627195">
        <ele>71.188878</ele>
        <time>2026-08-15T06:28:26.000Z</time>
      </trkpt>
      <trkpt lat="23.050522" lon="109.627250">
        <ele>71.189169</ele>
        <time>2026-08-15T06:28:27.000Z</time>
      </trkpt>
      <trkpt lat="23.050525" lon="109.627305">
        <ele>71.189459</ele>
        <time>2026-08-15T06:28:28.000Z</time>
      </trkpt>
      <trkpt lat="23.050527" lon="109.627362">
        <ele>71.189760</ele>
        <time>2026-08-15T06:28:29.000Z</time>
      </trkpt>
      <trkpt lat="23.050527" lon="109.627419">
        <ele>71.190060</ele>
        <time>2026-08-15T06:28:30.000Z</time>
      </trkpt>
      <trkpt lat="23.050528" lon="109.627475">
        <ele>71.190356</ele>
        <time>2026-08-15T06:28:31.000Z</time>
      </trkpt>
      <trkpt lat="23.050529" lon="109.627531">
        <ele>71.190651</ele>
        <time>2026-08-15T06:28:32.000Z</time>
      </trkpt>
      <trkpt lat="23.050527" lon="109.627589">
        <ele>71.190957</ele>
        <time>2026-08-15T06:28:33.000Z</time>
      </trkpt>
      <trkpt lat="23.050526" lon="109.627648">
        <ele>71.198562</ele>
        <time>2026-08-15T06:28:34.000Z</time>
      </trkpt>
      <trkpt lat="23.050527" lon="109.627705">
        <ele>71.210575</ele>
        <time>2026-08-15T06:28:35.000Z</time>
      </trkpt>
      <trkpt lat="23.050527" lon="109.627762">
        <ele>71.222587</ele>
        <time>2026-08-15T06:28:36.000Z</time>
      </trkpt>
      <trkpt lat="23.050527" lon="109.627822">
        <ele>71.235230</ele>
        <time>2026-08-15T06:28:37.000Z</time>
      </trkpt>
      <trkpt lat="23.050528" lon="109.627882">
        <ele>71.247876</ele>
        <time>2026-08-15T06:28:38.000Z</time>
      </trkpt>
      <trkpt lat="23.050529" lon="109.627940">
        <ele>71.260100</ele>
        <time>2026-08-15T06:28:39.000Z</time>
      </trkpt>
      <trkpt lat="23.050531" lon="109.627999">
        <ele>71.272541</ele>
        <time>2026-08-15T06:28:40.000Z</time>
      </trkpt>
      <trkpt lat="23.050531" lon="109.628056">
        <ele>71.284553</ele>
        <time>2026-08-15T06:28:41.000Z</time>
      </trkpt>
      <trkpt lat="23.050534" lon="109.628112">
        <ele>71.296373</ele>
        <time>2026-08-15T06:28:42.000Z</time>
      </trkpt>
      <trkpt lat="23.050536" lon="109.628171">
        <ele>71.308815</ele>
        <time>2026-08-15T06:28:43.000Z</time>
      </trkpt>
      <trkpt lat="23.050539" lon="109.628230">
        <ele>71.321267</ele>
        <time>2026-08-15T06:28:44.000Z</time>
      </trkpt>
      <trkpt lat="23.050542" lon="109.628286">
        <ele>71.333087</ele>
        <time>2026-08-15T06:28:45.000Z</time>
      </trkpt>
      <trkpt lat="23.050542" lon="109.628344">
        <ele>71.345309</ele>
        <time>2026-08-15T06:28:46.000Z</time>
      </trkpt>
      <trkpt lat="23.050543" lon="109.628402">
        <ele>71.357533</ele>
        <time>2026-08-15T06:28:47.000Z</time>
      </trkpt>
      <trkpt lat="23.050544" lon="109.628461">
        <ele>71.369968</ele>
        <time>2026-08-15T06:28:48.000Z</time>
      </trkpt>
      <trkpt lat="23.050545" lon="109.628520">
        <ele>71.382403</ele>
        <time>2026-08-15T06:28:49.000Z</time>
      </trkpt>
      <trkpt lat="23.050544" lon="109.628579">
        <ele>71.394838</ele>
        <time>2026-08-15T06:28:50.000Z</time>
      </trkpt>
      <trkpt lat="23.050543" lon="109.628639">
        <ele>71.407484</ele>
        <time>2026-08-15T06:28:51.000Z</time>
      </trkpt>
      <trkpt lat="23.050541" lon="109.628699">
        <ele>71.420136</ele>
        <time>2026-08-15T06:28:52.000Z</time>
      </trkpt>
      <trkpt lat="23.050540" lon="109.628761">
        <ele>71.433203</ele>
        <time>2026-08-15T06:28:53.000Z</time>
      </trkpt>
      <trkpt lat="23.050540" lon="109.628824">
        <ele>71.446478</ele>
        <time>2026-08-15T06:28:54.000Z</time>
      </trkpt>
      <trkpt lat="23.050540" lon="109.628886">
        <ele>71.459543</ele>
        <time>2026-08-15T06:28:55.000Z</time>
      </trkpt>
      <trkpt lat="23.050541" lon="109.628948">
        <ele>71.472610</ele>
        <time>2026-08-15T06:28:56.000Z</time>
      </trkpt>
      <trkpt lat="23.050539" lon="109.629011">
        <ele>71.485894</ele>
        <time>2026-08-15T06:28:57.000Z</time>
      </trkpt>
      <trkpt lat="23.050539" lon="109.629072">
        <ele>71.498748</ele>
        <time>2026-08-15T06:28:58.000Z</time>
      </trkpt>
      <trkpt lat="23.050540" lon="109.629133">
        <ele>71.511605</ele>
        <time>2026-08-15T06:28:59.000Z</time>
      </trkpt>
      <trkpt lat="23.050540" lon="109.629192">
        <ele>71.524037</ele>
        <time>2026-08-15T06:29:00.000Z</time>
      </trkpt>
      <trkpt lat="23.050539" lon="109.629252">
        <ele>71.536683</ele>
        <time>2026-08-15T06:29:01.000Z</time>
      </trkpt>
      <trkpt lat="23.050539" lon="109.629314">
        <ele>71.549748</ele>
        <time>2026-08-15T06:29:02.000Z</time>
      </trkpt>
      <trkpt lat="23.050540" lon="109.629376">
        <ele>71.562815</ele>
        <time>2026-08-15T06:29:03.000Z</time>
      </trkpt>
      <trkpt lat="23.050541" lon="109.629438">
        <ele>71.575882</ele>
        <time>2026-08-15T06:29:04.000Z</time>
      </trkpt>
      <trkpt lat="23.050543" lon="109.629500">
        <ele>71.588955</ele>
        <time>2026-08-15T06:29:05.000Z</time>
      </trkpt>
      <trkpt lat="23.050545" lon="109.629559">
        <ele>71.601396</ele>
        <time>2026-08-15T06:29:06.000Z</time>
      </trkpt>
      <trkpt lat="23.050548" lon="109.629621">
        <ele>71.601671</ele>
        <time>2026-08-15T06:29:07.000Z</time>
      </trkpt>
      <trkpt lat="23.050548" lon="109.629683">
        <ele>71.600173</ele>
        <time>2026-08-15T06:29:08.000Z</time>
      </trkpt>
      <trkpt lat="23.050548" lon="109.629744">
        <ele>71.598700</ele>
        <time>2026-08-15T06:29:09.000Z</time>
      </trkpt>
      <trkpt lat="23.050547" lon="109.629804">
        <ele>71.597250</ele>
        <time>2026-08-15T06:29:10.000Z</time>
      </trkpt>
      <trkpt lat="23.050546" lon="109.629864">
        <ele>71.595800</ele>
        <time>2026-08-15T06:29:11.000Z</time>
      </trkpt>
      <trkpt lat="23.050546" lon="109.629924">
        <ele>71.594351</ele>
        <time>2026-08-15T06:29:12.000Z</time>
      </trkpt>
      <trkpt lat="23.050545" lon="109.629985">
        <ele>71.592877</ele>
        <time>2026-08-15T06:29:13.000Z</time>
      </trkpt>
      <trkpt lat="23.050542" lon="109.630046">
        <ele>71.591401</ele>
        <time>2026-08-15T06:29:14.000Z</time>
      </trkpt>
      <trkpt lat="23.050542" lon="109.630106">
        <ele>71.589952</ele>
        <time>2026-08-15T06:29:15.000Z</time>
      </trkpt>
      <trkpt lat="23.050544" lon="109.630166">
        <ele>71.588502</ele>
        <time>2026-08-15T06:29:16.000Z</time>
      </trkpt>
      <trkpt lat="23.050544" lon="109.630227">
        <ele>71.587028</ele>
        <time>2026-08-15T06:29:17.000Z</time>
      </trkpt>
      <trkpt lat="23.050545" lon="109.630287">
        <ele>71.585579</ele>
        <time>2026-08-15T06:29:18.000Z</time>
      </trkpt>
      <trkpt lat="23.050545" lon="109.630347">
        <ele>71.584129</ele>
        <time>2026-08-15T06:29:19.000Z</time>
      </trkpt>
      <trkpt lat="23.050545" lon="109.630403">
        <ele>71.582776</ele>
        <time>2026-08-15T06:29:20.000Z</time>
      </trkpt>
      <trkpt lat="23.050546" lon="109.630463">
        <ele>71.581327</ele>
        <time>2026-08-15T06:29:21.000Z</time>
      </trkpt>
      <trkpt lat="23.050546" lon="109.630524">
        <ele>71.579853</ele>
        <time>2026-08-15T06:29:22.000Z</time>
      </trkpt>
      <trkpt lat="23.050544" lon="109.630582">
        <ele>71.578451</ele>
        <time>2026-08-15T06:29:23.000Z</time>
      </trkpt>
      <trkpt lat="23.050541" lon="109.630644">
        <ele>71.576951</ele>
        <time>2026-08-15T06:29:24.000Z</time>
      </trkpt>
      <trkpt lat="23.050538" lon="109.630706">
        <ele>71.575451</ele>
        <time>2026-08-15T06:29:25.000Z</time>
      </trkpt>
      <trkpt lat="23.050537" lon="109.630765">
        <ele>71.574026</ele>
        <time>2026-08-15T06:29:26.000Z</time>
      </trkpt>
      <trkpt lat="23.050537" lon="109.630825">
        <ele>71.572577</ele>
        <time>2026-08-15T06:29:27.000Z</time>
      </trkpt>
      <trkpt lat="23.050535" lon="109.630886">
        <ele>71.571102</ele>
        <time>2026-08-15T06:29:28.000Z</time>
      </trkpt>
      <trkpt lat="23.050533" lon="109.630948">
        <ele>71.569603</ele>
        <time>2026-08-15T06:29:29.000Z</time>
      </trkpt>
      <trkpt lat="23.050534" lon="109.631010">
        <ele>71.568106</ele>
        <time>2026-08-15T06:29:30.000Z</time>
      </trkpt>
      <trkpt lat="23.050535" lon="109.631070">
        <ele>71.566656</ele>
        <time>2026-08-15T06:29:31.000Z</time>
      </trkpt>
      <trkpt lat="23.050536" lon="109.631131">
        <ele>71.565182</ele>
        <time>2026-08-15T06:29:32.000Z</time>
      </trkpt>
      <trkpt lat="23.050537" lon="109.631192">
        <ele>71.563708</ele>
        <time>2026-08-15T06:29:33.000Z</time>
      </trkpt>
      <trkpt lat="23.050535" lon="109.631253">
        <ele>71.562234</ele>
        <time>2026-08-15T06:29:34.000Z</time>
      </trkpt>
      <trkpt lat="23.050537" lon="109.631314">
        <ele>71.560759</ele>
        <time>2026-08-15T06:29:35.000Z</time>
      </trkpt>
      <trkpt lat="23.050539" lon="109.631377">
        <ele>71.559237</ele>
        <time>2026-08-15T06:29:36.000Z</time>
      </trkpt>
      <trkpt lat="23.050541" lon="109.631438">
        <ele>71.557762</ele>
        <time>2026-08-15T06:29:37.000Z</time>
      </trkpt>
      <trkpt lat="23.050541" lon="109.631499">
        <ele>71.556289</ele>
        <time>2026-08-15T06:29:38.000Z</time>
      </trkpt>
      <trkpt lat="23.050539" lon="109.631559">
        <ele>71.554839</ele>
        <time>2026-08-15T06:29:39.000Z</time>
      </trkpt>
      <trkpt lat="23.050535" lon="109.631618">
        <ele>71.553410</ele>
        <time>2026-08-15T06:29:40.000Z</time>
      </trkpt>
      <trkpt lat="23.050529" lon="109.631680">
        <ele>71.551905</ele>
        <time>2026-08-15T06:29:41.000Z</time>
      </trkpt>
      <trkpt lat="23.050528" lon="109.631743">
        <ele>71.550384</ele>
        <time>2026-08-15T06:29:42.000Z</time>
      </trkpt>
      <trkpt lat="23.050527" lon="109.631806">
        <ele>71.548862</ele>
        <time>2026-08-15T06:29:43.000Z</time>
      </trkpt>
      <trkpt lat="23.050525" lon="109.631869">
        <ele>71.547340</ele>
        <time>2026-08-15T06:29:44.000Z</time>
      </trkpt>
      <trkpt lat="23.050521" lon="109.631931">
        <ele>71.545840</ele>
        <time>2026-08-15T06:29:45.000Z</time>
      </trkpt>
      <trkpt lat="23.050517" lon="109.631992">
        <ele>71.544363</ele>
        <time>2026-08-15T06:29:46.000Z</time>
      </trkpt>
      <trkpt lat="23.050512" lon="109.632055">
        <ele>71.542837</ele>
        <time>2026-08-15T06:29:47.000Z</time>
      </trkpt>
      <trkpt lat="23.050508" lon="109.632116">
        <ele>71.541360</ele>
        <time>2026-08-15T06:29:48.000Z</time>
      </trkpt>
      <trkpt lat="23.050506" lon="109.632179">
        <ele>71.539838</ele>
        <time>2026-08-15T06:29:49.000Z</time>
      </trkpt>
      <trkpt lat="23.050503" lon="109.632242">
        <ele>71.538315</ele>
        <time>2026-08-15T06:29:50.000Z</time>
      </trkpt>
      <trkpt lat="23.050499" lon="109.632305">
        <ele>71.536790</ele>
        <time>2026-08-15T06:29:51.000Z</time>
      </trkpt>
      <trkpt lat="23.050496" lon="109.632369">
        <ele>71.535243</ele>
        <time>2026-08-15T06:29:52.000Z</time>
      </trkpt>
      <trkpt lat="23.050494" lon="109.632433">
        <ele>71.533697</ele>
        <time>2026-08-15T06:29:53.000Z</time>
      </trkpt>
      <trkpt lat="23.050493" lon="109.632495">
        <ele>71.532200</ele>
        <time>2026-08-15T06:29:54.000Z</time>
      </trkpt>
      <trkpt lat="23.050491" lon="109.632558">
        <ele>71.530678</ele>
        <time>2026-08-15T06:29:55.000Z</time>
      </trkpt>
      <trkpt lat="23.050487" lon="109.632620">
        <ele>71.529177</ele>
        <time>2026-08-15T06:29:56.000Z</time>
      </trkpt>
      <trkpt lat="23.050484" lon="109.632683">
        <ele>71.527654</ele>
        <time>2026-08-15T06:29:57.000Z</time>
      </trkpt>
      <trkpt lat="23.050482" lon="109.632746">
        <ele>71.526132</ele>
        <time>2026-08-15T06:29:58.000Z</time>
      </trkpt>
      <trkpt lat="23.050479" lon="109.632810">
        <ele>71.524585</ele>
        <time>2026-08-15T06:29:59.000Z</time>
      </trkpt>
      <trkpt lat="23.050476" lon="109.632874">
        <ele>71.523038</ele>
        <time>2026-08-15T06:30:00.000Z</time>
      </trkpt>
      <trkpt lat="23.050473" lon="109.632934">
        <ele>71.521587</ele>
        <time>2026-08-15T06:30:01.000Z</time>
      </trkpt>
      <trkpt lat="23.050469" lon="109.632996">
        <ele>71.520086</ele>
        <time>2026-08-15T06:30:02.000Z</time>
      </trkpt>
      <trkpt lat="23.050466" lon="109.633059">
        <ele>71.518563</ele>
        <time>2026-08-15T06:30:03.000Z</time>
      </trkpt>
      <trkpt lat="23.050462" lon="109.633121">
        <ele>71.517062</ele>
        <time>2026-08-15T06:30:04.000Z</time>
      </trkpt>
      <trkpt lat="23.050458" lon="109.633184">
        <ele>71.515538</ele>
        <time>2026-08-15T06:30:05.000Z</time>
      </trkpt>
      <trkpt lat="23.050456" lon="109.633243">
        <ele>71.514112</ele>
        <time>2026-08-15T06:30:06.000Z</time>
      </trkpt>
      <trkpt lat="23.050455" lon="109.633301">
        <ele>71.512712</ele>
        <time>2026-08-15T06:30:07.000Z</time>
      </trkpt>
      <trkpt lat="23.050452" lon="109.633359">
        <ele>71.511309</ele>
        <time>2026-08-15T06:30:08.000Z</time>
      </trkpt>
      <trkpt lat="23.050449" lon="109.633418">
        <ele>71.509882</ele>
        <time>2026-08-15T06:30:09.000Z</time>
      </trkpt>
      <trkpt lat="23.050446" lon="109.633476">
        <ele>71.509709</ele>
        <time>2026-08-15T06:30:10.000Z</time>
      </trkpt>
      <trkpt lat="23.050441" lon="109.633534">
        <ele>71.526630</ele>
        <time>2026-08-15T06:30:11.000Z</time>
      </trkpt>
      <trkpt lat="23.050437" lon="109.633592">
        <ele>71.543525</ele>
        <time>2026-08-15T06:30:12.000Z</time>
      </trkpt>
      <trkpt lat="23.050435" lon="109.633651">
        <ele>71.560675</ele>
        <time>2026-08-15T06:30:13.000Z</time>
      </trkpt>
      <trkpt lat="23.050433" lon="109.633708">
        <ele>71.577244</ele>
        <time>2026-08-15T06:30:14.000Z</time>
      </trkpt>
      <trkpt lat="23.050432" lon="109.633766">
        <ele>71.594095</ele>
        <time>2026-08-15T06:30:15.000Z</time>
      </trkpt>
      <trkpt lat="23.050433" lon="109.633824">
        <ele>71.610946</ele>
        <time>2026-08-15T06:30:16.000Z</time>
      </trkpt>
      <trkpt lat="23.050432" lon="109.633881">
        <ele>71.627506</ele>
        <time>2026-08-15T06:30:17.000Z</time>
      </trkpt>
      <trkpt lat="23.050431" lon="109.633937">
        <ele>71.643776</ele>
        <time>2026-08-15T06:30:18.000Z</time>
      </trkpt>
      <trkpt lat="23.050425" lon="109.633994">
        <ele>71.660441</ele>
        <time>2026-08-15T06:30:19.000Z</time>
      </trkpt>
      <trkpt lat="23.050419" lon="109.634054">
        <ele>71.677973</ele>
        <time>2026-08-15T06:30:20.000Z</time>
      </trkpt>
      <trkpt lat="23.050410" lon="109.634114">
        <ele>71.695631</ele>
        <time>2026-08-15T06:30:21.000Z</time>
      </trkpt>
      <trkpt lat="23.050403" lon="109.634173">
        <ele>71.712911</ele>
        <time>2026-08-15T06:30:22.000Z</time>
      </trkpt>
      <trkpt lat="23.050398" lon="109.634231">
        <ele>71.729833</ele>
        <time>2026-08-15T06:30:23.000Z</time>
      </trkpt>
      <trkpt lat="23.050394" lon="109.634291">
        <ele>71.747307</ele>
        <time>2026-08-15T06:30:24.000Z</time>
      </trkpt>
      <trkpt lat="23.050391" lon="109.634354">
        <ele>71.765632</ele>
        <time>2026-08-15T06:30:25.000Z</time>
      </trkpt>
      <trkpt lat="23.050387" lon="109.634416">
        <ele>71.783686</ele>
        <time>2026-08-15T06:30:26.000Z</time>
      </trkpt>
      <trkpt lat="23.050383" lon="109.634477">
        <ele>71.801450</ele>
        <time>2026-08-15T06:30:27.000Z</time>
      </trkpt>
      <trkpt lat="23.050380" lon="109.634538">
        <ele>71.819194</ele>
        <time>2026-08-15T06:30:28.000Z</time>
      </trkpt>
      <trkpt lat="23.050377" lon="109.634600">
        <ele>71.837229</ele>
        <time>2026-08-15T06:30:29.000Z</time>
      </trkpt>
      <trkpt lat="23.050373" lon="109.634664">
        <ele>71.855863</ele>
        <time>2026-08-15T06:30:30.000Z</time>
      </trkpt>
      <trkpt lat="23.050369" lon="109.634728">
        <ele>71.874496</ele>
        <time>2026-08-15T06:30:31.000Z</time>
      </trkpt>
      <trkpt lat="23.050365" lon="109.634792">
        <ele>71.893129</ele>
        <time>2026-08-15T06:30:32.000Z</time>
      </trkpt>
      <trkpt lat="23.050363" lon="109.634854">
        <ele>71.911150</ele>
        <time>2026-08-15T06:30:33.000Z</time>
      </trkpt>
      <trkpt lat="23.050360" lon="109.634915">
        <ele>71.928895</ele>
        <time>2026-08-15T06:30:34.000Z</time>
      </trkpt>
      <trkpt lat="23.050356" lon="109.634975">
        <ele>71.946369</ele>
        <time>2026-08-15T06:30:35.000Z</time>
      </trkpt>
      <trkpt lat="23.050353" lon="109.635036">
        <ele>71.964114</ele>
        <time>2026-08-15T06:30:36.000Z</time>
      </trkpt>
      <trkpt lat="23.050350" lon="109.635095">
        <ele>71.981278</ele>
        <time>2026-08-15T06:30:37.000Z</time>
      </trkpt>
      <trkpt lat="23.050347" lon="109.635156">
        <ele>71.999022</ele>
        <time>2026-08-15T06:30:38.000Z</time>
      </trkpt>
      <trkpt lat="23.050341" lon="109.635217">
        <ele>72.016843</ele>
        <time>2026-08-15T06:30:39.000Z</time>
      </trkpt>
      <trkpt lat="23.050337" lon="109.635279">
        <ele>72.034896</ele>
        <time>2026-08-15T06:30:40.000Z</time>
      </trkpt>
      <trkpt lat="23.050333" lon="109.635341">
        <ele>72.052950</ele>
        <time>2026-08-15T06:30:41.000Z</time>
      </trkpt>
      <trkpt lat="23.050330" lon="109.635401">
        <ele>72.070405</ele>
        <time>2026-08-15T06:30:42.000Z</time>
      </trkpt>
      <trkpt lat="23.050326" lon="109.635461">
        <ele>72.085264</ele>
        <time>2026-08-15T06:30:43.000Z</time>
      </trkpt>
      <trkpt lat="23.050327" lon="109.635522">
        <ele>72.098957</ele>
        <time>2026-08-15T06:30:44.000Z</time>
      </trkpt>
      <trkpt lat="23.050325" lon="109.635583">
        <ele>72.112657</ele>
        <time>2026-08-15T06:30:45.000Z</time>
      </trkpt>
      <trkpt lat="23.050322" lon="109.635644">
        <ele>72.126368</ele>
        <time>2026-08-15T06:30:46.000Z</time>
      </trkpt>
      <trkpt lat="23.050318" lon="109.635709">
        <ele>72.140989</ele>
        <time>2026-08-15T06:30:47.000Z</time>
      </trkpt>
      <trkpt lat="23.050313" lon="109.635774">
        <ele>72.155629</ele>
        <time>2026-08-15T06:30:48.000Z</time>
      </trkpt>
      <trkpt lat="23.050307" lon="109.635840">
        <ele>72.170515</ele>
        <time>2026-08-15T06:30:49.000Z</time>
      </trkpt>
      <trkpt lat="23.050301" lon="109.635904">
        <ele>72.184954</ele>
        <time>2026-08-15T06:30:50.000Z</time>
      </trkpt>
      <trkpt lat="23.050298" lon="109.635967">
        <ele>72.199113</ele>
        <time>2026-08-15T06:30:51.000Z</time>
      </trkpt>
      <trkpt lat="23.050294" lon="109.636029">
        <ele>72.213063</ele>
        <time>2026-08-15T06:30:52.000Z</time>
      </trkpt>
      <trkpt lat="23.050287" lon="109.636092">
        <ele>72.227306</ele>
        <time>2026-08-15T06:30:53.000Z</time>
      </trkpt>
      <trkpt lat="23.050282" lon="109.636154">
        <ele>72.241275</ele>
        <time>2026-08-15T06:30:54.000Z</time>
      </trkpt>
      <trkpt lat="23.050276" lon="109.636216">
        <ele>72.255267</ele>
        <time>2026-08-15T06:30:55.000Z</time>
      </trkpt>
      <trkpt lat="23.050270" lon="109.636279">
        <ele>72.269483</ele>
        <time>2026-08-15T06:30:56.000Z</time>
      </trkpt>
      <trkpt lat="23.050265" lon="109.636342">
        <ele>72.283675</ele>
        <time>2026-08-15T06:30:57.000Z</time>
      </trkpt>
      <trkpt lat="23.050261" lon="109.636403">
        <ele>72.297401</ele>
        <time>2026-08-15T06:30:58.000Z</time>
      </trkpt>
      <trkpt lat="23.050256" lon="109.636466">
        <ele>72.311594</ele>
        <time>2026-08-15T06:30:59.000Z</time>
      </trkpt>
      <trkpt lat="23.050250" lon="109.636529">
        <ele>72.325810</ele>
        <time>2026-08-15T06:31:00.000Z</time>
      </trkpt>
      <trkpt lat="23.050245" lon="109.636590">
        <ele>72.339555</ele>
        <time>2026-08-15T06:31:01.000Z</time>
      </trkpt>
      <trkpt lat="23.050237" lon="109.636651">
        <ele>72.353385</ele>
        <time>2026-08-15T06:31:02.000Z</time>
      </trkpt>
      <trkpt lat="23.050230" lon="109.636715">
        <ele>72.367850</ele>
        <time>2026-08-15T06:31:03.000Z</time>
      </trkpt>
      <trkpt lat="23.050221" lon="109.636778">
        <ele>72.382160</ele>
        <time>2026-08-15T06:31:04.000Z</time>
      </trkpt>
      <trkpt lat="23.050214" lon="109.636840">
        <ele>72.396180</ele>
        <time>2026-08-15T06:31:05.000Z</time>
      </trkpt>
      <trkpt lat="23.050207" lon="109.636904">
        <ele>72.410646</ele>
        <time>2026-08-15T06:31:06.000Z</time>
      </trkpt>
      <trkpt lat="23.050199" lon="109.636967">
        <ele>72.424920</ele>
        <time>2026-08-15T06:31:07.000Z</time>
      </trkpt>
      <trkpt lat="23.050191" lon="109.637028">
        <ele>72.438749</ele>
        <time>2026-08-15T06:31:08.000Z</time>
      </trkpt>
      <trkpt lat="23.050182" lon="109.637090">
        <ele>72.452837</ele>
        <time>2026-08-15T06:31:09.000Z</time>
      </trkpt>
      <trkpt lat="23.050176" lon="109.637152">
        <ele>72.466830</ele>
        <time>2026-08-15T06:31:10.000Z</time>
      </trkpt>
      <trkpt lat="23.050170" lon="109.637214">
        <ele>72.480822</ele>
        <time>2026-08-15T06:31:11.000Z</time>
      </trkpt>
      <trkpt lat="23.050163" lon="109.637275">
        <ele>72.494619</ele>
        <time>2026-08-15T06:31:12.000Z</time>
      </trkpt>
      <trkpt lat="23.050155" lon="109.637338">
        <ele>72.508894</ele>
        <time>2026-08-15T06:31:13.000Z</time>
      </trkpt>
      <trkpt lat="23.050150" lon="109.637401">
        <ele>72.525026</ele>
        <time>2026-08-15T06:31:14.000Z</time>
      </trkpt>
      <trkpt lat="23.050145" lon="109.637466">
        <ele>72.543221</ele>
        <time>2026-08-15T06:31:15.000Z</time>
      </trkpt>
      <trkpt lat="23.050138" lon="109.637530">
        <ele>72.561200</ele>
        <time>2026-08-15T06:31:16.000Z</time>
      </trkpt>
      <trkpt lat="23.050132" lon="109.637595">
        <ele>72.579423</ele>
        <time>2026-08-15T06:31:17.000Z</time>
      </trkpt>
      <trkpt lat="23.050127" lon="109.637661">
        <ele>72.597896</ele>
        <time>2026-08-15T06:31:18.000Z</time>
      </trkpt>
      <trkpt lat="23.050125" lon="109.637729">
        <ele>72.616874</ele>
        <time>2026-08-15T06:31:19.000Z</time>
      </trkpt>
      <trkpt lat="23.050121" lon="109.637797">
        <ele>72.635882</ele>
        <time>2026-08-15T06:31:20.000Z</time>
      </trkpt>
      <trkpt lat="23.050114" lon="109.637863">
        <ele>72.654415</ele>
        <time>2026-08-15T06:31:21.000Z</time>
      </trkpt>
      <trkpt lat="23.050107" lon="109.637933">
        <ele>72.674056</ele>
        <time>2026-08-15T06:31:22.000Z</time>
      </trkpt>
      <trkpt lat="23.050100" lon="109.638002">
        <ele>72.693421</ele>
        <time>2026-08-15T06:31:23.000Z</time>
      </trkpt>
      <trkpt lat="23.050093" lon="109.638070">
        <ele>72.712508</ele>
        <time>2026-08-15T06:31:24.000Z</time>
      </trkpt>
      <trkpt lat="23.050087" lon="109.638139">
        <ele>72.731842</ele>
        <time>2026-08-15T06:31:25.000Z</time>
      </trkpt>
      <trkpt lat="23.050081" lon="109.638204">
        <ele>72.750065</ele>
        <time>2026-08-15T06:31:26.000Z</time>
      </trkpt>
      <trkpt lat="23.050074" lon="109.638271">
        <ele>72.768875</ele>
        <time>2026-08-15T06:31:27.000Z</time>
      </trkpt>
      <trkpt lat="23.050064" lon="109.638339">
        <ele>72.788084</ele>
        <time>2026-08-15T06:31:28.000Z</time>
      </trkpt>
      <trkpt lat="23.050056" lon="109.638408">
        <ele>72.807484</ele>
        <time>2026-08-15T06:31:29.000Z</time>
      </trkpt>
      <trkpt lat="23.050048" lon="109.638478">
        <ele>72.827161</ele>
        <time>2026-08-15T06:31:30.000Z</time>
      </trkpt>
      <trkpt lat="23.050041" lon="109.638547">
        <ele>72.846525</ele>
        <time>2026-08-15T06:31:31.000Z</time>
      </trkpt>
      <trkpt lat="23.050033" lon="109.638615">
        <ele>72.865649</ele>
        <time>2026-08-15T06:31:32.000Z</time>
      </trkpt>
      <trkpt lat="23.050026" lon="109.638682">
        <ele>72.884459</ele>
        <time>2026-08-15T06:31:33.000Z</time>
      </trkpt>
      <trkpt lat="23.050018" lon="109.638748">
        <ele>72.903029</ele>
        <time>2026-08-15T06:31:34.000Z</time>
      </trkpt>
      <trkpt lat="23.050010" lon="109.638818">
        <ele>72.922706</ele>
        <time>2026-08-15T06:31:35.000Z</time>
      </trkpt>
      <trkpt lat="23.050001" lon="109.638885">
        <ele>72.941594</ele>
        <time>2026-08-15T06:31:36.000Z</time>
      </trkpt>
      <trkpt lat="23.049993" lon="109.638954">
        <ele>72.960994</ele>
        <time>2026-08-15T06:31:37.000Z</time>
      </trkpt>
      <trkpt lat="23.049984" lon="109.639024">
        <ele>72.980710</ele>
        <time>2026-08-15T06:31:38.000Z</time>
      </trkpt>
      <trkpt lat="23.049974" lon="109.639094">
        <ele>73.000471</ele>
        <time>2026-08-15T06:31:39.000Z</time>
      </trkpt>
      <trkpt lat="23.049965" lon="109.639163">
        <ele>73.019911</ele>
        <time>2026-08-15T06:31:40.000Z</time>
      </trkpt>
      <trkpt lat="23.049956" lon="109.639233">
        <ele>73.039627</ele>
        <time>2026-08-15T06:31:41.000Z</time>
      </trkpt>
      <trkpt lat="23.049950" lon="109.639302">
        <ele>73.058961</ele>
        <time>2026-08-15T06:31:42.000Z</time>
      </trkpt>
      <trkpt lat="23.049943" lon="109.639370">
        <ele>73.068517</ele>
        <time>2026-08-15T06:31:43.000Z</time>
      </trkpt>
      <trkpt lat="23.049936" lon="109.639437">
        <ele>73.077184</ele>
        <time>2026-08-15T06:31:44.000Z</time>
      </trkpt>
      <trkpt lat="23.049928" lon="109.639504">
        <ele>73.085868</ele>
        <time>2026-08-15T06:31:45.000Z</time>
      </trkpt>
      <trkpt lat="23.049919" lon="109.639571">
        <ele>73.094571</ele>
        <time>2026-08-15T06:31:46.000Z</time>
      </trkpt>
      <trkpt lat="23.049910" lon="109.639637">
        <ele>73.103147</ele>
        <time>2026-08-15T06:31:47.000Z</time>
      </trkpt>
      <trkpt lat="23.049901" lon="109.639705">
        <ele>73.111978</ele>
        <time>2026-08-15T06:31:48.000Z</time>
      </trkpt>
      <trkpt lat="23.049894" lon="109.639773">
        <ele>73.120773</ele>
        <time>2026-08-15T06:31:49.000Z</time>
      </trkpt>
      <trkpt lat="23.049888" lon="109.639841">
        <ele>73.129554</ele>
        <time>2026-08-15T06:31:50.000Z</time>
      </trkpt>
      <trkpt lat="23.049881" lon="109.639910">
        <ele>73.138476</ele>
        <time>2026-08-15T06:31:51.000Z</time>
      </trkpt>
      <trkpt lat="23.049873" lon="109.639977">
        <ele>73.147160</ele>
        <time>2026-08-15T06:31:52.000Z</time>
      </trkpt>
      <trkpt lat="23.049864" lon="109.640045">
        <ele>73.155991</ele>
        <time>2026-08-15T06:31:53.000Z</time>
      </trkpt>
      <trkpt lat="23.049854" lon="109.640112">
        <ele>73.164715</ele>
        <time>2026-08-15T06:31:54.000Z</time>
      </trkpt>
      <trkpt lat="23.049844" lon="109.640179">
        <ele>73.173440</ele>
        <time>2026-08-15T06:31:55.000Z</time>
      </trkpt>
      <trkpt lat="23.049836" lon="109.640247">
        <ele>73.182252</ele>
        <time>2026-08-15T06:31:56.000Z</time>
      </trkpt>
      <trkpt lat="23.049829" lon="109.640316">
        <ele>73.191174</ele>
        <time>2026-08-15T06:31:57.000Z</time>
      </trkpt>
      <trkpt lat="23.049820" lon="109.640383">
        <ele>73.199878</ele>
        <time>2026-08-15T06:31:58.000Z</time>
      </trkpt>
      <trkpt lat="23.049810" lon="109.640450">
        <ele>73.208602</ele>
        <time>2026-08-15T06:31:59.000Z</time>
      </trkpt>
      <trkpt lat="23.049800" lon="109.640517">
        <ele>73.217327</ele>
        <time>2026-08-15T06:32:00.000Z</time>
      </trkpt>
      <trkpt lat="23.049792" lon="109.640583">
        <ele>73.225884</ele>
        <time>2026-08-15T06:32:01.000Z</time>
      </trkpt>
      <trkpt lat="23.049782" lon="109.640649">
        <ele>73.234481</ele>
        <time>2026-08-15T06:32:02.000Z</time>
      </trkpt>
      <trkpt lat="23.049772" lon="109.640715">
        <ele>73.243079</ele>
        <time>2026-08-15T06:32:03.000Z</time>
      </trkpt>
      <trkpt lat="23.049764" lon="109.640784">
        <ele>73.252018</ele>
        <time>2026-08-15T06:32:04.000Z</time>
      </trkpt>
      <trkpt lat="23.049757" lon="109.640852">
        <ele>73.260813</ele>
        <time>2026-08-15T06:32:05.000Z</time>
      </trkpt>
      <trkpt lat="23.049748" lon="109.640919">
        <ele>73.269516</ele>
        <time>2026-08-15T06:32:06.000Z</time>
      </trkpt>
      <trkpt lat="23.049738" lon="109.640986">
        <ele>73.278241</ele>
        <time>2026-08-15T06:32:07.000Z</time>
      </trkpt>
      <trkpt lat="23.049728" lon="109.641053">
        <ele>73.286965</ele>
        <time>2026-08-15T06:32:08.000Z</time>
      </trkpt>
      <trkpt lat="23.049719" lon="109.641119">
        <ele>73.295542</ele>
        <time>2026-08-15T06:32:09.000Z</time>
      </trkpt>
      <trkpt lat="23.049710" lon="109.641185">
        <ele>73.304118</ele>
        <time>2026-08-15T06:32:10.000Z</time>
      </trkpt>
      <trkpt lat="23.049699" lon="109.641251">
        <ele>73.312231</ele>
        <time>2026-08-15T06:32:11.000Z</time>
      </trkpt>
      <trkpt lat="23.049691" lon="109.641318">
        <ele>73.316966</ele>
        <time>2026-08-15T06:32:12.000Z</time>
      </trkpt>
      <trkpt lat="23.049683" lon="109.641384">
        <ele>73.321631</ele>
        <time>2026-08-15T06:32:13.000Z</time>
      </trkpt>
      <trkpt lat="23.049674" lon="109.641449">
        <ele>73.326237</ele>
        <time>2026-08-15T06:32:14.000Z</time>
      </trkpt>
      <trkpt lat="23.049664" lon="109.641514">
        <ele>73.330855</ele>
        <time>2026-08-15T06:32:15.000Z</time>
      </trkpt>
      <trkpt lat="23.049654" lon="109.641580">
        <ele>73.335542</ele>
        <time>2026-08-15T06:32:16.000Z</time>
      </trkpt>
      <trkpt lat="23.049645" lon="109.641647">
        <ele>73.340287</ele>
        <time>2026-08-15T06:32:17.000Z</time>
      </trkpt>
      <trkpt lat="23.049637" lon="109.641714">
        <ele>73.345021</ele>
        <time>2026-08-15T06:32:18.000Z</time>
      </trkpt>
      <trkpt lat="23.049629" lon="109.641779">
        <ele>73.349617</ele>
        <time>2026-08-15T06:32:19.000Z</time>
      </trkpt>
      <trkpt lat="23.049621" lon="109.641844">
        <ele>73.354212</ele>
        <time>2026-08-15T06:32:20.000Z</time>
      </trkpt>
      <trkpt lat="23.049613" lon="109.641909">
        <ele>73.358808</ele>
        <time>2026-08-15T06:32:21.000Z</time>
      </trkpt>
      <trkpt lat="23.049604" lon="109.641975">
        <ele>73.363483</ele>
        <time>2026-08-15T06:32:22.000Z</time>
      </trkpt>
      <trkpt lat="23.049593" lon="109.642040">
        <ele>73.368115</ele>
        <time>2026-08-15T06:32:23.000Z</time>
      </trkpt>
      <trkpt lat="23.049582" lon="109.642106">
        <ele>73.372815</ele>
        <time>2026-08-15T06:32:24.000Z</time>
      </trkpt>
      <trkpt lat="23.049572" lon="109.642172">
        <ele>73.377502</ele>
        <time>2026-08-15T06:32:25.000Z</time>
      </trkpt>
      <trkpt lat="23.049561" lon="109.642239">
        <ele>73.382271</ele>
        <time>2026-08-15T06:32:26.000Z</time>
      </trkpt>
      <trkpt lat="23.049550" lon="109.642306">
        <ele>73.387041</ele>
        <time>2026-08-15T06:32:27.000Z</time>
      </trkpt>
      <trkpt lat="23.049539" lon="109.642371">
        <ele>73.391672</ele>
        <time>2026-08-15T06:32:28.000Z</time>
      </trkpt>
      <trkpt lat="23.049528" lon="109.642436">
        <ele>73.396303</ele>
        <time>2026-08-15T06:32:29.000Z</time>
      </trkpt>
      <trkpt lat="23.049517" lon="109.642502">
        <ele>73.401004</ele>
        <time>2026-08-15T06:32:30.000Z</time>
      </trkpt>
      <trkpt lat="23.049506" lon="109.642567">
        <ele>73.405635</ele>
        <time>2026-08-15T06:32:31.000Z</time>
      </trkpt>
      <trkpt lat="23.049496" lon="109.642632">
        <ele>73.410253</ele>
        <time>2026-08-15T06:32:32.000Z</time>
      </trkpt>
      <trkpt lat="23.049485" lon="109.642697">
        <ele>73.414884</ele>
        <time>2026-08-15T06:32:33.000Z</time>
      </trkpt>
      <trkpt lat="23.049473" lon="109.642763">
        <ele>73.419599</ele>
        <time>2026-08-15T06:32:34.000Z</time>
      </trkpt>
      <trkpt lat="23.049462" lon="109.642829">
        <ele>73.424299</ele>
        <time>2026-08-15T06:32:35.000Z</time>
      </trkpt>
      <trkpt lat="23.049450" lon="109.642896">
        <ele>73.429082</ele>
        <time>2026-08-15T06:32:36.000Z</time>
      </trkpt>
      <trkpt lat="23.049439" lon="109.642963">
        <ele>73.433851</ele>
        <time>2026-08-15T06:32:37.000Z</time>
      </trkpt>
      <trkpt lat="23.049429" lon="109.643029">
        <ele>73.438539</ele>
        <time>2026-08-15T06:32:38.000Z</time>
      </trkpt>
      <trkpt lat="23.049420" lon="109.643095">
        <ele>73.443214</ele>
        <time>2026-08-15T06:32:39.000Z</time>
      </trkpt>
      <trkpt lat="23.049410" lon="109.643161">
        <ele>73.447901</ele>
        <time>2026-08-15T06:32:40.000Z</time>
      </trkpt>
      <trkpt lat="23.049399" lon="109.643227">
        <ele>73.439661</ele>
        <time>2026-08-15T06:32:41.000Z</time>
      </trkpt>
      <trkpt lat="23.049387" lon="109.643294">
        <ele>73.428982</ele>
        <time>2026-08-15T06:32:42.000Z</time>
      </trkpt>
      <trkpt lat="23.049375" lon="109.643360">
        <ele>73.418456</ele>
        <time>2026-08-15T06:32:43.000Z</time>
      </trkpt>
      <trkpt lat="23.049363" lon="109.643427">
        <ele>73.407776</ele>
        <time>2026-08-15T06:32:44.000Z</time>
      </trkpt>
      <trkpt lat="23.049351" lon="109.643494">
        <ele>73.397097</ele>
        <time>2026-08-15T06:32:45.000Z</time>
      </trkpt>
      <trkpt lat="23.049340" lon="109.643560">
        <ele>73.386603</ele>
        <time>2026-08-15T06:32:46.000Z</time>
      </trkpt>
      <trkpt lat="23.049330" lon="109.643626">
        <ele>73.376137</ele>
        <time>2026-08-15T06:32:47.000Z</time>
      </trkpt>
      <trkpt lat="23.049319" lon="109.643689">
        <ele>73.366104</ele>
        <time>2026-08-15T06:32:48.000Z</time>
      </trkpt>
      <trkpt lat="23.049307" lon="109.643752">
        <ele>73.356039</ele>
        <time>2026-08-15T06:32:49.000Z</time>
      </trkpt>
      <trkpt lat="23.049296" lon="109.643816">
        <ele>73.345852</ele>
        <time>2026-08-15T06:32:50.000Z</time>
      </trkpt>
      <trkpt lat="23.049285" lon="109.643879">
        <ele>73.335819</ele>
        <time>2026-08-15T06:32:51.000Z</time>
      </trkpt>
      <trkpt lat="23.049273" lon="109.643942">
        <ele>73.325753</ele>
        <time>2026-08-15T06:32:52.000Z</time>
      </trkpt>
      <trkpt lat="23.049262" lon="109.644006">
        <ele>73.315567</ele>
        <time>2026-08-15T06:32:53.000Z</time>
      </trkpt>
      <trkpt lat="23.049250" lon="109.644069">
        <ele>73.305501</ele>
        <time>2026-08-15T06:32:54.000Z</time>
      </trkpt>
      <trkpt lat="23.049237" lon="109.644132">
        <ele>73.295399</ele>
        <time>2026-08-15T06:32:55.000Z</time>
      </trkpt>
      <trkpt lat="23.049222" lon="109.644193">
        <ele>73.285520</ele>
        <time>2026-08-15T06:32:56.000Z</time>
      </trkpt>
      <trkpt lat="23.049203" lon="109.644255">
        <ele>73.275296</ele>
        <time>2026-08-15T06:32:57.000Z</time>
      </trkpt>
      <trkpt lat="23.049190" lon="109.644317">
        <ele>73.265347</ele>
        <time>2026-08-15T06:32:58.000Z</time>
      </trkpt>
      <trkpt lat="23.049180" lon="109.644383">
        <ele>73.254881</ele>
        <time>2026-08-15T06:32:59.000Z</time>
      </trkpt>
      <trkpt lat="23.049170" lon="109.644445">
        <ele>73.245033</ele>
        <time>2026-08-15T06:33:00.000Z</time>
      </trkpt>
      <trkpt lat="23.049159" lon="109.644508">
        <ele>73.235000</ele>
        <time>2026-08-15T06:33:01.000Z</time>
      </trkpt>
      <trkpt lat="23.049146" lon="109.644572">
        <ele>73.224745</ele>
        <time>2026-08-15T06:33:02.000Z</time>
      </trkpt>
      <trkpt lat="23.049132" lon="109.644633">
        <ele>73.214909</ele>
        <time>2026-08-15T06:33:03.000Z</time>
      </trkpt>
      <trkpt lat="23.049118" lon="109.644696">
        <ele>73.204769</ele>
        <time>2026-08-15T06:33:04.000Z</time>
      </trkpt>
      <trkpt lat="23.049107" lon="109.644759">
        <ele>73.194736</ele>
        <time>2026-08-15T06:33:05.000Z</time>
      </trkpt>
      <trkpt lat="23.049100" lon="109.644823">
        <ele>73.184652</ele>
        <time>2026-08-15T06:33:06.000Z</time>
      </trkpt>
      <trkpt lat="23.049091" lon="109.644891">
        <ele>73.173903</ele>
        <time>2026-08-15T06:33:07.000Z</time>
      </trkpt>
      <trkpt lat="23.049078" lon="109.644954">
        <ele>73.163801</ele>
        <time>2026-08-15T06:33:08.000Z</time>
      </trkpt>
      <trkpt lat="23.049065" lon="109.645019">
        <ele>73.153394</ele>
        <time>2026-08-15T06:33:09.000Z</time>
      </trkpt>
      <trkpt lat="23.049053" lon="109.645084">
        <ele>73.143022</ele>
        <time>2026-08-15T06:33:10.000Z</time>
      </trkpt>
      <trkpt lat="23.049041" lon="109.645147">
        <ele>73.135598</ele>
        <time>2026-08-15T06:33:11.000Z</time>
      </trkpt>
      <trkpt lat="23.049031" lon="109.645212">
        <ele>73.128063</ele>
        <time>2026-08-15T06:33:12.000Z</time>
      </trkpt>
      <trkpt lat="23.049019" lon="109.645275">
        <ele>73.120707</ele>
        <time>2026-08-15T06:33:13.000Z</time>
      </trkpt>
      <trkpt lat="23.049008" lon="109.645340">
        <ele>73.113150</ele>
        <time>2026-08-15T06:33:14.000Z</time>
      </trkpt>
      <trkpt lat="23.048999" lon="109.645405">
        <ele>73.105635</ele>
        <time>2026-08-15T06:33:15.000Z</time>
      </trkpt>
      <trkpt lat="23.048990" lon="109.645471">
        <ele>73.098006</ele>
        <time>2026-08-15T06:33:16.000Z</time>
      </trkpt>
      <trkpt lat="23.048978" lon="109.645537">
        <ele>73.090314</ele>
        <time>2026-08-15T06:33:17.000Z</time>
      </trkpt>
      <trkpt lat="23.048966" lon="109.645602">
        <ele>73.082734</ele>
        <time>2026-08-15T06:33:18.000Z</time>
      </trkpt>
      <trkpt lat="23.048952" lon="109.645668">
        <ele>73.074990</ele>
        <time>2026-08-15T06:33:19.000Z</time>
      </trkpt>
      <trkpt lat="23.048940" lon="109.645732">
        <ele>73.067522</ele>
        <time>2026-08-15T06:33:20.000Z</time>
      </trkpt>
      <trkpt lat="23.048928" lon="109.645796">
        <ele>73.060054</ele>
        <time>2026-08-15T06:33:21.000Z</time>
      </trkpt>
      <trkpt lat="23.048916" lon="109.645861">
        <ele>73.052474</ele>
        <time>2026-08-15T06:33:22.000Z</time>
      </trkpt>
      <trkpt lat="23.048905" lon="109.645925">
        <ele>73.045030</ele>
        <time>2026-08-15T06:33:23.000Z</time>
      </trkpt>
      <trkpt lat="23.048897" lon="109.645989">
        <ele>73.037646</ele>
        <time>2026-08-15T06:33:24.000Z</time>
      </trkpt>
      <trkpt lat="23.048887" lon="109.646052">
        <ele>73.030336</ele>
        <time>2026-08-15T06:33:25.000Z</time>
      </trkpt>
      <trkpt lat="23.048879" lon="109.646115">
        <ele>73.023065</ele>
        <time>2026-08-15T06:33:26.000Z</time>
      </trkpt>
      <trkpt lat="23.048871" lon="109.646178">
        <ele>73.015793</ele>
        <time>2026-08-15T06:33:27.000Z</time>
      </trkpt>
      <trkpt lat="23.048862" lon="109.646242">
        <ele>73.008391</ele>
        <time>2026-08-15T06:33:28.000Z</time>
      </trkpt>
      <trkpt lat="23.048847" lon="109.646304">
        <ele>73.001061</ele>
        <time>2026-08-15T06:33:29.000Z</time>
      </trkpt>
      <trkpt lat="23.048832" lon="109.646363">
        <ele>72.994062</ele>
        <time>2026-08-15T06:33:30.000Z</time>
      </trkpt>
      <trkpt lat="23.048817" lon="109.646424">
        <ele>72.986843</ele>
        <time>2026-08-15T06:33:31.000Z</time>
      </trkpt>
      <trkpt lat="23.048801" lon="109.646487">
        <ele>72.979370</ele>
        <time>2026-08-15T06:33:32.000Z</time>
      </trkpt>
      <trkpt lat="23.048785" lon="109.646550">
        <ele>72.971898</ele>
        <time>2026-08-15T06:33:33.000Z</time>
      </trkpt>
      <trkpt lat="23.048772" lon="109.646614">
        <ele>72.964404</ele>
        <time>2026-08-15T06:33:34.000Z</time>
      </trkpt>
      <trkpt lat="23.048760" lon="109.646677">
        <ele>72.957048</ele>
        <time>2026-08-15T06:33:35.000Z</time>
      </trkpt>
      <trkpt lat="23.048749" lon="109.646739">
        <ele>72.949829</ele>
        <time>2026-08-15T06:33:36.000Z</time>
      </trkpt>
      <trkpt lat="23.048736" lon="109.646800">
        <ele>72.942670</ele>
        <time>2026-08-15T06:33:37.000Z</time>
      </trkpt>
      <trkpt lat="23.048725" lon="109.646862">
        <ele>72.935450</ele>
        <time>2026-08-15T06:33:38.000Z</time>
      </trkpt>
      <trkpt lat="23.048714" lon="109.646924">
        <ele>72.928231</ele>
        <time>2026-08-15T06:33:39.000Z</time>
      </trkpt>
      <trkpt lat="23.048703" lon="109.646986">
        <ele>72.921012</ele>
        <time>2026-08-15T06:33:40.000Z</time>
      </trkpt>
      <trkpt lat="23.048692" lon="109.647049">
        <ele>72.915497</ele>
        <time>2026-08-15T06:33:41.000Z</time>
      </trkpt>
      <trkpt lat="23.048683" lon="109.647110">
        <ele>72.910725</ele>
        <time>2026-08-15T06:33:42.000Z</time>
      </trkpt>
      <trkpt lat="23.048671" lon="109.647172">
        <ele>72.905832</ele>
        <time>2026-08-15T06:33:43.000Z</time>
      </trkpt>
      <trkpt lat="23.048659" lon="109.647233">
        <ele>72.901014</ele>
        <time>2026-08-15T06:33:44.000Z</time>
      </trkpt>
      <trkpt lat="23.048648" lon="109.647294">
        <ele>72.896214</ele>
        <time>2026-08-15T06:33:45.000Z</time>
      </trkpt>
      <trkpt lat="23.048636" lon="109.647353">
        <ele>72.891547</ele>
        <time>2026-08-15T06:33:46.000Z</time>
      </trkpt>
      <trkpt lat="23.048625" lon="109.647412">
        <ele>72.886898</ele>
        <time>2026-08-15T06:33:47.000Z</time>
      </trkpt>
      <trkpt lat="23.048615" lon="109.647473">
        <ele>72.882112</ele>
        <time>2026-08-15T06:33:48.000Z</time>
      </trkpt>
      <trkpt lat="23.048606" lon="109.647533">
        <ele>72.877417</ele>
        <time>2026-08-15T06:33:49.000Z</time>
      </trkpt>
      <trkpt lat="23.048596" lon="109.647593">
        <ele>72.872708</ele>
        <time>2026-08-15T06:33:50.000Z</time>
      </trkpt>
      <trkpt lat="23.048585" lon="109.647655">
        <ele>72.867831</ele>
        <time>2026-08-15T06:33:51.000Z</time>
      </trkpt>
      <trkpt lat="23.048574" lon="109.647719">
        <ele>72.862803</ele>
        <time>2026-08-15T06:33:52.000Z</time>
      </trkpt>
      <trkpt lat="23.048561" lon="109.647780">
        <ele>72.857967</ele>
        <time>2026-08-15T06:33:53.000Z</time>
      </trkpt>
      <trkpt lat="23.048549" lon="109.647841">
        <ele>72.853150</ele>
        <time>2026-08-15T06:33:54.000Z</time>
      </trkpt>
      <trkpt lat="23.048539" lon="109.647903">
        <ele>72.848288</ele>
        <time>2026-08-15T06:33:55.000Z</time>
      </trkpt>
      <trkpt lat="23.048528" lon="109.647965">
        <ele>72.843412</ele>
        <time>2026-08-15T06:33:56.000Z</time>
      </trkpt>
      <trkpt lat="23.048516" lon="109.648027">
        <ele>72.838518</ele>
        <time>2026-08-15T06:33:57.000Z</time>
      </trkpt>
      <trkpt lat="23.048506" lon="109.648090">
        <ele>72.833581</ele>
        <time>2026-08-15T06:33:58.000Z</time>
      </trkpt>
      <trkpt lat="23.048496" lon="109.648154">
        <ele>72.828567</ele>
        <time>2026-08-15T06:33:59.000Z</time>
      </trkpt>
      <trkpt lat="23.048485" lon="109.648218">
        <ele>72.823539</ele>
        <time>2026-08-15T06:34:00.000Z</time>
      </trkpt>
      <trkpt lat="23.048475" lon="109.648282">
        <ele>72.818525</ele>
        <time>2026-08-15T06:34:01.000Z</time>
      </trkpt>
      <trkpt lat="23.048464" lon="109.648346">
        <ele>72.813497</ele>
        <time>2026-08-15T06:34:02.000Z</time>
      </trkpt>
      <trkpt lat="23.048452" lon="109.648412">
        <ele>72.808301</ele>
        <time>2026-08-15T06:34:03.000Z</time>
      </trkpt>
      <trkpt lat="23.048441" lon="109.648476">
        <ele>72.803273</ele>
        <time>2026-08-15T06:34:04.000Z</time>
      </trkpt>
      <trkpt lat="23.048430" lon="109.648539">
        <ele>72.798320</ele>
        <time>2026-08-15T06:34:05.000Z</time>
      </trkpt>
      <trkpt lat="23.048419" lon="109.648604">
        <ele>72.793216</ele>
        <time>2026-08-15T06:34:06.000Z</time>
      </trkpt>
      <trkpt lat="23.048409" lon="109.648667">
        <ele>72.788279</ele>
        <time>2026-08-15T06:34:07.000Z</time>
      </trkpt>
      <trkpt lat="23.048398" lon="109.648728">
        <ele>72.783478</ele>
        <time>2026-08-15T06:34:08.000Z</time>
      </trkpt>
      <trkpt lat="23.048385" lon="109.648789">
        <ele>72.778642</ele>
        <time>2026-08-15T06:34:09.000Z</time>
      </trkpt>
      <trkpt lat="23.048374" lon="109.648849">
        <ele>72.773917</ele>
        <time>2026-08-15T06:34:10.000Z</time>
      </trkpt>
      <trkpt lat="23.048364" lon="109.648911">
        <ele>72.769056</ele>
        <time>2026-08-15T06:34:11.000Z</time>
      </trkpt>
      <trkpt lat="23.048354" lon="109.648974">
        <ele>72.750426</ele>
        <time>2026-08-15T06:34:12.000Z</time>
      </trkpt>
      <trkpt lat="23.048344" lon="109.649037">
        <ele>72.729377</ele>
        <time>2026-08-15T06:34:13.000Z</time>
      </trkpt>
      <trkpt lat="23.048335" lon="109.649099">
        <ele>72.708712</ele>
        <time>2026-08-15T06:34:14.000Z</time>
      </trkpt>
      <trkpt lat="23.048326" lon="109.649160">
        <ele>72.688371</ele>
        <time>2026-08-15T06:34:15.000Z</time>
      </trkpt>
      <trkpt lat="23.048318" lon="109.649221">
        <ele>72.668084</ele>
        <time>2026-08-15T06:34:16.000Z</time>
      </trkpt>
      <trkpt lat="23.048311" lon="109.649282">
        <ele>72.647845</ele>
        <time>2026-08-15T06:34:17.000Z</time>
      </trkpt>
      <trkpt lat="23.048303" lon="109.649343">
        <ele>72.627558</ele>
        <time>2026-08-15T06:34:18.000Z</time>
      </trkpt>
      <trkpt lat="23.048294" lon="109.649406">
        <ele>72.606567</ele>
        <time>2026-08-15T06:34:19.000Z</time>
      </trkpt>
      <trkpt lat="23.048284" lon="109.649469">
        <ele>72.585519</ele>
        <time>2026-08-15T06:34:20.000Z</time>
      </trkpt>
      <trkpt lat="23.048275" lon="109.649531">
        <ele>72.564853</ele>
        <time>2026-08-15T06:34:21.000Z</time>
      </trkpt>
      <trkpt lat="23.048264" lon="109.649593">
        <ele>72.544064</ele>
        <time>2026-08-15T06:34:22.000Z</time>
      </trkpt>
      <trkpt lat="23.048254" lon="109.649656">
        <ele>72.523015</ele>
        <time>2026-08-15T06:34:23.000Z</time>
      </trkpt>
      <trkpt lat="23.048244" lon="109.649718">
        <ele>72.502291</ele>
        <time>2026-08-15T06:34:24.000Z</time>
      </trkpt>
      <trkpt lat="23.048232" lon="109.649781">
        <ele>72.481109</ele>
        <time>2026-08-15T06:34:25.000Z</time>
      </trkpt>
      <trkpt lat="23.048221" lon="109.649844">
        <ele>72.459996</ele>
        <time>2026-08-15T06:34:26.000Z</time>
      </trkpt>
      <trkpt lat="23.048212" lon="109.649907">
        <ele>72.439005</ele>
        <time>2026-08-15T06:34:27.000Z</time>
      </trkpt>
      <trkpt lat="23.048203" lon="109.649970">
        <ele>72.418014</ele>
        <time>2026-08-15T06:34:28.000Z</time>
      </trkpt>
      <trkpt lat="23.048195" lon="109.650033">
        <ele>72.397075</ele>
        <time>2026-08-15T06:34:29.000Z</time>
      </trkpt>
      <trkpt lat="23.048186" lon="109.650097">
        <ele>72.375759</ele>
        <time>2026-08-15T06:34:30.000Z</time>
      </trkpt>
      <trkpt lat="23.048176" lon="109.650159">
        <ele>72.355035</ele>
        <time>2026-08-15T06:34:31.000Z</time>
      </trkpt>
      <trkpt lat="23.048167" lon="109.650221">
        <ele>72.334369</ele>
        <time>2026-08-15T06:34:32.000Z</time>
      </trkpt>
      <trkpt lat="23.048157" lon="109.650283">
        <ele>72.313645</ele>
        <time>2026-08-15T06:34:33.000Z</time>
      </trkpt>
      <trkpt lat="23.048149" lon="109.650345">
        <ele>72.293032</ele>
        <time>2026-08-15T06:34:34.000Z</time>
      </trkpt>
      <trkpt lat="23.048140" lon="109.650404">
        <ele>72.273341</ele>
        <time>2026-08-15T06:34:35.000Z</time>
      </trkpt>
      <trkpt lat="23.048131" lon="109.650466">
        <ele>72.252675</ele>
        <time>2026-08-15T06:34:36.000Z</time>
      </trkpt>
      <trkpt lat="23.048122" lon="109.650528">
        <ele>72.232010</ele>
        <time>2026-08-15T06:34:37.000Z</time>
      </trkpt>
      <trkpt lat="23.048113" lon="109.650589">
        <ele>72.211669</ele>
        <time>2026-08-15T06:34:38.000Z</time>
      </trkpt>
      <trkpt lat="23.048105" lon="109.650649">
        <ele>72.191708</ele>
        <time>2026-08-15T06:34:39.000Z</time>
      </trkpt>
      <trkpt lat="23.048096" lon="109.650710">
        <ele>72.171368</ele>
        <time>2026-08-15T06:34:40.000Z</time>
      </trkpt>
      <trkpt lat="23.048085" lon="109.650771">
        <ele>72.150902</ele>
        <time>2026-08-15T06:34:41.000Z</time>
      </trkpt>
      <trkpt lat="23.048076" lon="109.650830">
        <ele>72.131211</ele>
        <time>2026-08-15T06:34:42.000Z</time>
      </trkpt>
      <trkpt lat="23.048067" lon="109.650889">
        <ele>72.136989</ele>
        <time>2026-08-15T06:34:43.000Z</time>
      </trkpt>
      <trkpt lat="23.048059" lon="109.650948">
        <ele>72.155159</ele>
        <time>2026-08-15T06:34:44.000Z</time>
      </trkpt>
      <trkpt lat="23.048051" lon="109.651009">
        <ele>72.173933</ele>
        <time>2026-08-15T06:34:45.000Z</time>
      </trkpt>
      <trkpt lat="23.048043" lon="109.651070">
        <ele>72.192706</ele>
        <time>2026-08-15T06:34:46.000Z</time>
      </trkpt>
      <trkpt lat="23.048036" lon="109.651132">
        <ele>72.211738</ele>
        <time>2026-08-15T06:34:47.000Z</time>
      </trkpt>
      <trkpt lat="23.048028" lon="109.651194">
        <ele>72.230813</ele>
        <time>2026-08-15T06:34:48.000Z</time>
      </trkpt>
      <trkpt lat="23.048019" lon="109.651255">
        <ele>72.249636</ele>
        <time>2026-08-15T06:34:49.000Z</time>
      </trkpt>
      <trkpt lat="23.048011" lon="109.651316">
        <ele>72.268409</ele>
        <time>2026-08-15T06:34:50.000Z</time>
      </trkpt>
      <trkpt lat="23.048003" lon="109.651376">
        <ele>72.286881</ele>
        <time>2026-08-15T06:34:51.000Z</time>
      </trkpt>
      <trkpt lat="23.047996" lon="109.651434">
        <ele>72.304704</ele>
        <time>2026-08-15T06:34:52.000Z</time>
      </trkpt>
      <trkpt lat="23.047989" lon="109.651494">
        <ele>72.323131</ele>
        <time>2026-08-15T06:34:53.000Z</time>
      </trkpt>
      <trkpt lat="23.047981" lon="109.651554">
        <ele>72.341603</ele>
        <time>2026-08-15T06:34:54.000Z</time>
      </trkpt>
      <trkpt lat="23.047976" lon="109.651614">
        <ele>72.359959</ele>
        <time>2026-08-15T06:34:55.000Z</time>
      </trkpt>
      <trkpt lat="23.047970" lon="109.651673">
        <ele>72.378044</ele>
        <time>2026-08-15T06:34:56.000Z</time>
      </trkpt>
      <trkpt lat="23.047963" lon="109.651732">
        <ele>72.396169</ele>
        <time>2026-08-15T06:34:57.000Z</time>
      </trkpt>
      <trkpt lat="23.047956" lon="109.651792">
        <ele>72.414597</ele>
        <time>2026-08-15T06:34:58.000Z</time>
      </trkpt>
      <trkpt lat="23.047946" lon="109.651851">
        <ele>72.432875</ele>
        <time>2026-08-15T06:34:59.000Z</time>
      </trkpt>
      <trkpt lat="23.047937" lon="109.651910">
        <ele>72.451097</ele>
        <time>2026-08-15T06:35:00.000Z</time>
      </trkpt>
      <trkpt lat="23.047928" lon="109.651972">
        <ele>72.470220</ele>
        <time>2026-08-15T06:35:01.000Z</time>
      </trkpt>
      <trkpt lat="23.047921" lon="109.652034">
        <ele>72.489252</ele>
        <time>2026-08-15T06:35:02.000Z</time>
      </trkpt>
      <trkpt lat="23.047916" lon="109.652095">
        <ele>72.507912</ele>
        <time>2026-08-15T06:35:03.000Z</time>
      </trkpt>
      <trkpt lat="23.047913" lon="109.652158">
        <ele>72.527132</ele>
        <time>2026-08-15T06:35:04.000Z</time>
      </trkpt>
      <trkpt lat="23.047907" lon="109.652221">
        <ele>72.546430</ele>
        <time>2026-08-15T06:35:05.000Z</time>
      </trkpt>
      <trkpt lat="23.047900" lon="109.652283">
        <ele>72.565462</ele>
        <time>2026-08-15T06:35:06.000Z</time>
      </trkpt>
      <trkpt lat="23.047890" lon="109.652344">
        <ele>72.584340</ele>
        <time>2026-08-15T06:35:07.000Z</time>
      </trkpt>
      <trkpt lat="23.047882" lon="109.652404">
        <ele>72.602812</ele>
        <time>2026-08-15T06:35:08.000Z</time>
      </trkpt>
      <trkpt lat="23.047873" lon="109.652464">
        <ele>72.621334</ele>
        <time>2026-08-15T06:35:09.000Z</time>
      </trkpt>
      <trkpt lat="23.047865" lon="109.652523">
        <ele>72.639504</ele>
        <time>2026-08-15T06:35:10.000Z</time>
      </trkpt>
      <trkpt lat="23.047861" lon="109.652585">
        <ele>72.658441</ele>
        <time>2026-08-15T06:35:11.000Z</time>
      </trkpt>
      <trkpt lat="23.047860" lon="109.652645">
        <ele>72.676725</ele>
        <time>2026-08-15T06:35:12.000Z</time>
      </trkpt>
      <trkpt lat="23.047859" lon="109.652706">
        <ele>72.695313</ele>
        <time>2026-08-15T06:35:13.000Z</time>
      </trkpt>
      <trkpt lat="23.047856" lon="109.652767">
        <ele>72.713925</ele>
        <time>2026-08-15T06:35:14.000Z</time>
      </trkpt>
      <trkpt lat="23.047850" lon="109.652828">
        <ele>72.713279</ele>
        <time>2026-08-15T06:35:15.000Z</time>
      </trkpt>
      <trkpt lat="23.047845" lon="109.652891">
        <ele>72.702297</ele>
        <time>2026-08-15T06:35:16.000Z</time>
      </trkpt>
      <trkpt lat="23.047837" lon="109.652955">
        <ele>72.691080</ele>
        <time>2026-08-15T06:35:17.000Z</time>
      </trkpt>
      <trkpt lat="23.047829" lon="109.653016">
        <ele>72.680380</ele>
        <time>2026-08-15T06:35:18.000Z</time>
      </trkpt>
      <trkpt lat="23.047826" lon="109.653077">
        <ele>72.669771</ele>
        <time>2026-08-15T06:35:19.000Z</time>
      </trkpt>
      <trkpt lat="23.047823" lon="109.653137">
        <ele>72.659335</ele>
        <time>2026-08-15T06:35:20.000Z</time>
      </trkpt>
      <trkpt lat="23.047818" lon="109.653197">
        <ele>72.648873</ele>
        <time>2026-08-15T06:35:21.000Z</time>
      </trkpt>
      <trkpt lat="23.047812" lon="109.653256">
        <ele>72.638564</ele>
        <time>2026-08-15T06:35:22.000Z</time>
      </trkpt>
      <trkpt lat="23.047805" lon="109.653316">
        <ele>72.628060</ele>
        <time>2026-08-15T06:35:23.000Z</time>
      </trkpt>
      <trkpt lat="23.047799" lon="109.653375">
        <ele>72.617751</ele>
        <time>2026-08-15T06:35:24.000Z</time>
      </trkpt>
      <trkpt lat="23.047794" lon="109.653436">
        <ele>72.607116</ele>
        <time>2026-08-15T06:35:25.000Z</time>
      </trkpt>
      <trkpt lat="23.047786" lon="109.653496">
        <ele>72.596587</ele>
        <time>2026-08-15T06:35:26.000Z</time>
      </trkpt>
      <trkpt lat="23.047781" lon="109.653555">
        <ele>72.586297</ele>
        <time>2026-08-15T06:35:27.000Z</time>
      </trkpt>
      <trkpt lat="23.047776" lon="109.653616">
        <ele>72.575661</ele>
        <time>2026-08-15T06:35:28.000Z</time>
      </trkpt>
      <trkpt lat="23.047768" lon="109.653676">
        <ele>72.565132</ele>
        <time>2026-08-15T06:35:29.000Z</time>
      </trkpt>
      <trkpt lat="23.047763" lon="109.653736">
        <ele>72.554670</ele>
        <time>2026-08-15T06:35:30.000Z</time>
      </trkpt>
      <trkpt lat="23.047757" lon="109.653796">
        <ele>72.544188</ele>
        <time>2026-08-15T06:35:31.000Z</time>
      </trkpt>
      <trkpt lat="23.047751" lon="109.653856">
        <ele>72.533707</ele>
        <time>2026-08-15T06:35:32.000Z</time>
      </trkpt>
      <trkpt lat="23.047745" lon="109.653917">
        <ele>72.523053</ele>
        <time>2026-08-15T06:35:33.000Z</time>
      </trkpt>
      <trkpt lat="23.047738" lon="109.653979">
        <ele>72.512205</ele>
        <time>2026-08-15T06:35:34.000Z</time>
      </trkpt>
      <trkpt lat="23.047731" lon="109.654041">
        <ele>72.501356</ele>
        <time>2026-08-15T06:35:35.000Z</time>
      </trkpt>
      <trkpt lat="23.047726" lon="109.654103">
        <ele>72.490548</ele>
        <time>2026-08-15T06:35:36.000Z</time>
      </trkpt>
      <trkpt lat="23.047721" lon="109.654166">
        <ele>72.479566</ele>
        <time>2026-08-15T06:35:37.000Z</time>
      </trkpt>
      <trkpt lat="23.047718" lon="109.654226">
        <ele>72.469130</ele>
        <time>2026-08-15T06:35:38.000Z</time>
      </trkpt>
      <trkpt lat="23.047713" lon="109.654287">
        <ele>72.458495</ele>
        <time>2026-08-15T06:35:39.000Z</time>
      </trkpt>
      <trkpt lat="23.047709" lon="109.654349">
        <ele>72.447701</ele>
        <time>2026-08-15T06:35:40.000Z</time>
      </trkpt>
      <trkpt lat="23.047704" lon="109.654410">
        <ele>72.437065</ele>
        <time>2026-08-15T06:35:41.000Z</time>
      </trkpt>
      <trkpt lat="23.047701" lon="109.654473">
        <ele>72.426109</ele>
        <time>2026-08-15T06:35:42.000Z</time>
      </trkpt>
      <trkpt lat="23.047698" lon="109.654535">
        <ele>72.415327</ele>
        <time>2026-08-15T06:35:43.000Z</time>
      </trkpt>
      <trkpt lat="23.047692" lon="109.654598">
        <ele>72.404328</ele>
        <time>2026-08-15T06:35:44.000Z</time>
      </trkpt>
      <trkpt lat="23.047686" lon="109.654661">
        <ele>72.393328</ele>
        <time>2026-08-15T06:35:45.000Z</time>
      </trkpt>
      <trkpt lat="23.047683" lon="109.654725">
        <ele>72.382199</ele>
        <time>2026-08-15T06:35:46.000Z</time>
      </trkpt>
      <trkpt lat="23.047678" lon="109.654789">
        <ele>72.384441</ele>
        <time>2026-08-15T06:35:47.000Z</time>
      </trkpt>
      <trkpt lat="23.047675" lon="109.654853">
        <ele>72.388539</ele>
        <time>2026-08-15T06:35:48.000Z</time>
      </trkpt>
      <trkpt lat="23.047669" lon="109.654917">
        <ele>72.392652</ele>
        <time>2026-08-15T06:35:49.000Z</time>
      </trkpt>
      <trkpt lat="23.047663" lon="109.654980">
        <ele>72.396702</ele>
        <time>2026-08-15T06:35:50.000Z</time>
      </trkpt>
      <trkpt lat="23.047656" lon="109.655044">
        <ele>72.400823</ele>
        <time>2026-08-15T06:35:51.000Z</time>
      </trkpt>
      <trkpt lat="23.047652" lon="109.655110">
        <ele>72.405052</ele>
        <time>2026-08-15T06:35:52.000Z</time>
      </trkpt>
      <trkpt lat="23.047648" lon="109.655176">
        <ele>72.409281</ele>
        <time>2026-08-15T06:35:53.000Z</time>
      </trkpt>
      <trkpt lat="23.047641" lon="109.655244">
        <ele>72.413657</ele>
        <time>2026-08-15T06:35:54.000Z</time>
      </trkpt>
      <trkpt lat="23.047637" lon="109.655308">
        <ele>72.417758</ele>
        <time>2026-08-15T06:35:55.000Z</time>
      </trkpt>
      <trkpt lat="23.047637" lon="109.655371">
        <ele>72.421786</ele>
        <time>2026-08-15T06:35:56.000Z</time>
      </trkpt>
      <trkpt lat="23.047634" lon="109.655435">
        <ele>72.425884</ele>
        <time>2026-08-15T06:35:57.000Z</time>
      </trkpt>
      <trkpt lat="23.047628" lon="109.655501">
        <ele>72.430125</ele>
        <time>2026-08-15T06:35:58.000Z</time>
      </trkpt>
      <trkpt lat="23.047619" lon="109.655566">
        <ele>72.434327</ele>
        <time>2026-08-15T06:35:59.000Z</time>
      </trkpt>
      <trkpt lat="23.047612" lon="109.655629">
        <ele>72.438385</ele>
        <time>2026-08-15T06:36:00.000Z</time>
      </trkpt>
      <trkpt lat="23.047609" lon="109.655695">
        <ele>72.442610</ele>
        <time>2026-08-15T06:36:01.000Z</time>
      </trkpt>
      <trkpt lat="23.047606" lon="109.655761">
        <ele>72.446835</ele>
        <time>2026-08-15T06:36:02.000Z</time>
      </trkpt>
      <trkpt lat="23.047605" lon="109.655828">
        <ele>72.451120</ele>
        <time>2026-08-15T06:36:03.000Z</time>
      </trkpt>
      <trkpt lat="23.047601" lon="109.655893">
        <ele>72.455285</ele>
        <time>2026-08-15T06:36:04.000Z</time>
      </trkpt>
      <trkpt lat="23.047600" lon="109.655959">
        <ele>72.459506</ele>
        <time>2026-08-15T06:36:05.000Z</time>
      </trkpt>
      <trkpt lat="23.047599" lon="109.656024">
        <ele>72.463663</ele>
        <time>2026-08-15T06:36:06.000Z</time>
      </trkpt>
      <trkpt lat="23.047598" lon="109.656087">
        <ele>72.467692</ele>
        <time>2026-08-15T06:36:07.000Z</time>
      </trkpt>
      <trkpt lat="23.047596" lon="109.656152">
        <ele>72.471850</ele>
        <time>2026-08-15T06:36:08.000Z</time>
      </trkpt>
      <trkpt lat="23.047593" lon="109.656217">
        <ele>72.476012</ele>
        <time>2026-08-15T06:36:09.000Z</time>
      </trkpt>
      <trkpt lat="23.047591" lon="109.656282">
        <ele>72.480170</ele>
        <time>2026-08-15T06:36:10.000Z</time>
      </trkpt>
      <trkpt lat="23.047589" lon="109.656345">
        <ele>72.484201</ele>
        <time>2026-08-15T06:36:11.000Z</time>
      </trkpt>
      <trkpt lat="23.047586" lon="109.656409">
        <ele>72.488298</ele>
        <time>2026-08-15T06:36:12.000Z</time>
      </trkpt>
      <trkpt lat="23.047583" lon="109.656472">
        <ele>72.492332</ele>
        <time>2026-08-15T06:36:13.000Z</time>
      </trkpt>
      <trkpt lat="23.047576" lon="109.656534">
        <ele>72.496326</ele>
        <time>2026-08-15T06:36:14.000Z</time>
      </trkpt>
      <trkpt lat="23.047567" lon="109.656596">
        <ele>72.500339</ele>
        <time>2026-08-15T06:36:15.000Z</time>
      </trkpt>
      <trkpt lat="23.047564" lon="109.656656">
        <ele>72.504181</ele>
        <time>2026-08-15T06:36:16.000Z</time>
      </trkpt>
      <trkpt lat="23.047564" lon="109.656719">
        <ele>72.506265</ele>
        <time>2026-08-15T06:36:17.000Z</time>
      </trkpt>
      <trkpt lat="23.047562" lon="109.656778">
        <ele>72.506970</ele>
        <time>2026-08-15T06:36:18.000Z</time>
      </trkpt>
      <trkpt lat="23.047561" lon="109.656835">
        <ele>72.507651</ele>
        <time>2026-08-15T06:36:19.000Z</time>
      </trkpt>
      <trkpt lat="23.047554" lon="109.656890">
        <ele>72.508313</ele>
        <time>2026-08-15T06:36:20.000Z</time>
      </trkpt>
      <trkpt lat="23.047541" lon="109.656947">
        <ele>72.509015</ele>
        <time>2026-08-15T06:36:21.000Z</time>
      </trkpt>
      <trkpt lat="23.047534" lon="109.657002">
        <ele>72.509678</ele>
        <time>2026-08-15T06:36:22.000Z</time>
      </trkpt>
      <trkpt lat="23.047525" lon="109.657055">
        <ele>72.510321</ele>
        <time>2026-08-15T06:36:23.000Z</time>
      </trkpt>
      <trkpt lat="23.047519" lon="109.657107">
        <ele>72.510947</ele>
        <time>2026-08-15T06:36:24.000Z</time>
      </trkpt>
      <trkpt lat="23.047513" lon="109.657153">
        <ele>72.511501</ele>
        <time>2026-08-15T06:36:25.000Z</time>
      </trkpt>
      <trkpt lat="23.047512" lon="109.657199">
        <ele>72.512051</ele>
        <time>2026-08-15T06:36:26.000Z</time>
      </trkpt>
      <trkpt lat="23.047511" lon="109.657242">
        <ele>72.512564</ele>
        <time>2026-08-15T06:36:27.000Z</time>
      </trkpt>
      <trkpt lat="23.047507" lon="109.657277">
        <ele>72.512985</ele>
        <time>2026-08-15T06:36:28.000Z</time>
      </trkpt>
      <trkpt lat="23.047506" lon="109.657301">
        <ele>72.513272</ele>
        <time>2026-08-15T06:36:29.000Z</time>
      </trkpt>
      <trkpt lat="23.047507" lon="109.657313">
        <ele>72.513416</ele>
        <time>2026-08-15T06:36:30.000Z</time>
      </trkpt>
      <trkpt lat="23.047507" lon="109.657317">
        <ele>72.513464</ele>
        <time>2026-08-15T06:36:31.000Z</time>
      </trkpt>
      <trkpt lat="23.047530" lon="109.657405">
        <ele>72.514556</ele>
        <time>2026-08-15T06:41:02.000Z</time>
      </trkpt>
      <trkpt lat="23.047531" lon="109.657427">
        <ele>72.514819</ele>
        <time>2026-08-15T06:41:03.000Z</time>
      </trkpt>
      <trkpt lat="23.047532" lon="109.657454">
        <ele>72.515142</ele>
        <time>2026-08-15T06:41:04.000Z</time>
      </trkpt>
      <trkpt lat="23.047533" lon="109.657483">
        <ele>72.515488</ele>
        <time>2026-08-15T06:41:05.000Z</time>
      </trkpt>
      <trkpt lat="23.047533" lon="109.657515">
        <ele>72.515870</ele>
        <time>2026-08-15T06:41:06.000Z</time>
      </trkpt>
      <trkpt lat="23.047530" lon="109.657548">
        <ele>72.516266</ele>
        <time>2026-08-15T06:41:07.000Z</time>
      </trkpt>
      <trkpt lat="23.047527" lon="109.657582">
        <ele>72.516674</ele>
        <time>2026-08-15T06:41:08.000Z</time>
      </trkpt>
      <trkpt lat="23.047525" lon="109.657618">
        <ele>72.517104</ele>
        <time>2026-08-15T06:41:09.000Z</time>
      </trkpt>
      <trkpt lat="23.047524" lon="109.657656">
        <ele>72.517558</ele>
        <time>2026-08-15T06:41:10.000Z</time>
      </trkpt>
      <trkpt lat="23.047523" lon="109.657696">
        <ele>72.518036</ele>
        <time>2026-08-15T06:41:11.000Z</time>
      </trkpt>
      <trkpt lat="23.047519" lon="109.657736">
        <ele>72.518516</ele>
        <time>2026-08-15T06:41:12.000Z</time>
      </trkpt>
      <trkpt lat="23.047515" lon="109.657777">
        <ele>72.519009</ele>
        <time>2026-08-15T06:41:13.000Z</time>
      </trkpt>
      <trkpt lat="23.047509" lon="109.657818">
        <ele>72.519504</ele>
        <time>2026-08-15T06:41:14.000Z</time>
      </trkpt>
      <trkpt lat="23.047504" lon="109.657860">
        <ele>72.520010</ele>
        <time>2026-08-15T06:41:15.000Z</time>
      </trkpt>
      <trkpt lat="23.047499" lon="109.657901">
        <ele>72.520504</ele>
        <time>2026-08-15T06:41:16.000Z</time>
      </trkpt>
      <trkpt lat="23.047495" lon="109.657942">
        <ele>72.520996</ele>
        <time>2026-08-15T06:41:17.000Z</time>
      </trkpt>
      <trkpt lat="23.047491" lon="109.657984">
        <ele>72.521500</ele>
        <time>2026-08-15T06:41:18.000Z</time>
      </trkpt>
      <trkpt lat="23.047486" lon="109.658026">
        <ele>72.522006</ele>
        <time>2026-08-15T06:41:19.000Z</time>
      </trkpt>
      <trkpt lat="23.047483" lon="109.658069">
        <ele>72.522520</ele>
        <time>2026-08-15T06:41:20.000Z</time>
      </trkpt>
      <trkpt lat="23.047480" lon="109.658112">
        <ele>72.523035</ele>
        <time>2026-08-15T06:41:21.000Z</time>
      </trkpt>
      <trkpt lat="23.047476" lon="109.658155">
        <ele>72.523551</ele>
        <time>2026-08-15T06:41:22.000Z</time>
      </trkpt>
      <trkpt lat="23.047471" lon="109.658199">
        <ele>72.524081</ele>
        <time>2026-08-15T06:41:23.000Z</time>
      </trkpt>
      <trkpt lat="23.047466" lon="109.658243">
        <ele>72.524610</ele>
        <time>2026-08-15T06:41:24.000Z</time>
      </trkpt>
      <trkpt lat="23.047462" lon="109.658288">
        <ele>72.525150</ele>
        <time>2026-08-15T06:41:25.000Z</time>
      </trkpt>
      <trkpt lat="23.047457" lon="109.658333">
        <ele>72.525691</ele>
        <time>2026-08-15T06:41:26.000Z</time>
      </trkpt>
      <trkpt lat="23.047453" lon="109.658377">
        <ele>72.526219</ele>
        <time>2026-08-15T06:41:27.000Z</time>
      </trkpt>
      <trkpt lat="23.047449" lon="109.658424">
        <ele>72.526782</ele>
        <time>2026-08-15T06:41:28.000Z</time>
      </trkpt>
      <trkpt lat="23.047444" lon="109.658470">
        <ele>72.527335</ele>
        <time>2026-08-15T06:41:29.000Z</time>
      </trkpt>
      <trkpt lat="23.047439" lon="109.658516">
        <ele>72.527888</ele>
        <time>2026-08-15T06:41:30.000Z</time>
      </trkpt>
      <trkpt lat="23.047436" lon="109.658562">
        <ele>72.528439</ele>
        <time>2026-08-15T06:41:31.000Z</time>
      </trkpt>
      <trkpt lat="23.047435" lon="109.658610">
        <ele>72.529012</ele>
        <time>2026-08-15T06:41:32.000Z</time>
      </trkpt>
      <trkpt lat="23.047430" lon="109.658657">
        <ele>72.522662</ele>
        <time>2026-08-15T06:41:33.000Z</time>
      </trkpt>
      <trkpt lat="23.047423" lon="109.658704">
        <ele>72.513904</ele>
        <time>2026-08-15T06:41:34.000Z</time>
      </trkpt>
      <trkpt lat="23.047417" lon="109.658750">
        <ele>72.505359</ele>
        <time>2026-08-15T06:41:35.000Z</time>
      </trkpt>
      <trkpt lat="23.047415" lon="109.658797">
        <ele>72.496705</ele>
        <time>2026-08-15T06:41:36.000Z</time>
      </trkpt>
      <trkpt lat="23.047411" lon="109.658844">
        <ele>72.488023</ele>
        <time>2026-08-15T06:41:37.000Z</time>
      </trkpt>
      <trkpt lat="23.047407" lon="109.658892">
        <ele>72.479159</ele>
        <time>2026-08-15T06:41:38.000Z</time>
      </trkpt>
      <trkpt lat="23.047404" lon="109.658941">
        <ele>72.470126</ele>
        <time>2026-08-15T06:41:39.000Z</time>
      </trkpt>
      <trkpt lat="23.047400" lon="109.658990">
        <ele>72.461078</ele>
        <time>2026-08-15T06:41:40.000Z</time>
      </trkpt>
      <trkpt lat="23.047395" lon="109.659038">
        <ele>72.452193</ele>
        <time>2026-08-15T06:41:41.000Z</time>
      </trkpt>
      <trkpt lat="23.047389" lon="109.659086">
        <ele>72.443283</ele>
        <time>2026-08-15T06:41:42.000Z</time>
      </trkpt>
      <trkpt lat="23.047384" lon="109.659134">
        <ele>72.434398</ele>
        <time>2026-08-15T06:41:43.000Z</time>
      </trkpt>
      <trkpt lat="23.047382" lon="109.659183">
        <ele>72.425377</ele>
        <time>2026-08-15T06:41:44.000Z</time>
      </trkpt>
      <trkpt lat="23.047378" lon="109.659231">
        <ele>72.416512</ele>
        <time>2026-08-15T06:41:45.000Z</time>
      </trkpt>
      <trkpt lat="23.047374" lon="109.659280">
        <ele>72.407464</ele>
        <time>2026-08-15T06:41:46.000Z</time>
      </trkpt>
      <trkpt lat="23.047371" lon="109.659329">
        <ele>72.398431</ele>
        <time>2026-08-15T06:41:47.000Z</time>
      </trkpt>
      <trkpt lat="23.047368" lon="109.659378">
        <ele>72.389399</ele>
        <time>2026-08-15T06:41:48.000Z</time>
      </trkpt>
      <trkpt lat="23.047364" lon="109.659426">
        <ele>72.380534</ele>
        <time>2026-08-15T06:41:49.000Z</time>
      </trkpt>
      <trkpt lat="23.047361" lon="109.659474">
        <ele>72.371685</ele>
        <time>2026-08-15T06:41:50.000Z</time>
      </trkpt>
      <trkpt lat="23.047358" lon="109.659524">
        <ele>72.362469</ele>
        <time>2026-08-15T06:41:51.000Z</time>
      </trkpt>
      <trkpt lat="23.047355" lon="109.659573">
        <ele>72.353436</ele>
        <time>2026-08-15T06:41:52.000Z</time>
      </trkpt>
      <trkpt lat="23.047352" lon="109.659622">
        <ele>72.344403</ele>
        <time>2026-08-15T06:41:53.000Z</time>
      </trkpt>
      <trkpt lat="23.047350" lon="109.659672">
        <ele>72.335198</ele>
        <time>2026-08-15T06:41:54.000Z</time>
      </trkpt>
      <trkpt lat="23.047351" lon="109.659722">
        <ele>72.325999</ele>
        <time>2026-08-15T06:41:55.000Z</time>
      </trkpt>
      <trkpt lat="23.047351" lon="109.659771">
        <ele>72.316987</ele>
        <time>2026-08-15T06:41:56.000Z</time>
      </trkpt>
      <trkpt lat="23.047349" lon="109.659821">
        <ele>72.307782</ele>
        <time>2026-08-15T06:41:57.000Z</time>
      </trkpt>
      <trkpt lat="23.047347" lon="109.659871">
        <ele>72.298576</ele>
        <time>2026-08-15T06:41:58.000Z</time>
      </trkpt>
      <trkpt lat="23.047345" lon="109.659921">
        <ele>72.289371</ele>
        <time>2026-08-15T06:41:59.000Z</time>
      </trkpt>
      <trkpt lat="23.047343" lon="109.659970">
        <ele>72.280350</ele>
        <time>2026-08-15T06:42:00.000Z</time>
      </trkpt>
      <trkpt lat="23.047340" lon="109.660019">
        <ele>72.271317</ele>
        <time>2026-08-15T06:42:01.000Z</time>
      </trkpt>
      <trkpt lat="23.047338" lon="109.660070">
        <ele>72.261928</ele>
        <time>2026-08-15T06:42:02.000Z</time>
      </trkpt>
      <trkpt lat="23.047336" lon="109.660120">
        <ele>72.252723</ele>
        <time>2026-08-15T06:42:03.000Z</time>
      </trkpt>
      <trkpt lat="23.047335" lon="109.660170">
        <ele>72.243524</ele>
        <time>2026-08-15T06:42:04.000Z</time>
      </trkpt>
      <trkpt lat="23.047335" lon="109.660221">
        <ele>72.234144</ele>
        <time>2026-08-15T06:42:05.000Z</time>
      </trkpt>
      <trkpt lat="23.047333" lon="109.660272">
        <ele>72.224755</ele>
        <time>2026-08-15T06:42:06.000Z</time>
      </trkpt>
      <trkpt lat="23.047331" lon="109.660323">
        <ele>72.215366</ele>
        <time>2026-08-15T06:42:07.000Z</time>
      </trkpt>
      <trkpt lat="23.047326" lon="109.660374">
        <ele>72.205932</ele>
        <time>2026-08-15T06:42:08.000Z</time>
      </trkpt>
      <trkpt lat="23.047323" lon="109.660425">
        <ele>72.196532</ele>
        <time>2026-08-15T06:42:09.000Z</time>
      </trkpt>
      <trkpt lat="23.047320" lon="109.660476">
        <ele>72.187133</ele>
        <time>2026-08-15T06:42:10.000Z</time>
      </trkpt>
      <trkpt lat="23.047318" lon="109.660527">
        <ele>72.177744</ele>
        <time>2026-08-15T06:42:11.000Z</time>
      </trkpt>
      <trkpt lat="23.047316" lon="109.660579">
        <ele>72.168765</ele>
        <time>2026-08-15T06:42:12.000Z</time>
      </trkpt>
      <trkpt lat="23.047313" lon="109.660630">
        <ele>72.163186</ele>
        <time>2026-08-15T06:42:13.000Z</time>
      </trkpt>
      <trkpt lat="23.047310" lon="109.660681">
        <ele>72.157608</ele>
        <time>2026-08-15T06:42:14.000Z</time>
      </trkpt>
      <trkpt lat="23.047309" lon="109.660733">
        <ele>72.151930</ele>
        <time>2026-08-15T06:42:15.000Z</time>
      </trkpt>
      <trkpt lat="23.047307" lon="109.660784">
        <ele>72.146358</ele>
        <time>2026-08-15T06:42:16.000Z</time>
      </trkpt>
      <trkpt lat="23.047304" lon="109.660835">
        <ele>72.140779</ele>
        <time>2026-08-15T06:42:17.000Z</time>
      </trkpt>
      <trkpt lat="23.047300" lon="109.660887">
        <ele>72.135083</ele>
        <time>2026-08-15T06:42:18.000Z</time>
      </trkpt>
      <trkpt lat="23.047299" lon="109.660938">
        <ele>72.129515</ele>
        <time>2026-08-15T06:42:19.000Z</time>
      </trkpt>
      <trkpt lat="23.047298" lon="109.660990">
        <ele>72.123837</ele>
        <time>2026-08-15T06:42:20.000Z</time>
      </trkpt>
      <trkpt lat="23.047293" lon="109.661043">
        <ele>72.118021</ele>
        <time>2026-08-15T06:42:21.000Z</time>
      </trkpt>
      <trkpt lat="23.047289" lon="109.661095">
        <ele>72.112325</ele>
        <time>2026-08-15T06:42:22.000Z</time>
      </trkpt>
      <trkpt lat="23.047287" lon="109.661148">
        <ele>72.106535</ele>
        <time>2026-08-15T06:42:23.000Z</time>
      </trkpt>
      <trkpt lat="23.047285" lon="109.661201">
        <ele>72.100744</ele>
        <time>2026-08-15T06:42:24.000Z</time>
      </trkpt>
      <trkpt lat="23.047284" lon="109.661253">
        <ele>72.095067</ele>
        <time>2026-08-15T06:42:25.000Z</time>
      </trkpt>
      <trkpt lat="23.047283" lon="109.661306">
        <ele>72.089280</ele>
        <time>2026-08-15T06:42:26.000Z</time>
      </trkpt>
      <trkpt lat="23.047283" lon="109.661358">
        <ele>72.083604</ele>
        <time>2026-08-15T06:42:27.000Z</time>
      </trkpt>
      <trkpt lat="23.047282" lon="109.661412">
        <ele>72.077708</ele>
        <time>2026-08-15T06:42:28.000Z</time>
      </trkpt>
      <trkpt lat="23.047279" lon="109.661466">
        <ele>72.071802</ele>
        <time>2026-08-15T06:42:29.000Z</time>
      </trkpt>
      <trkpt lat="23.047277" lon="109.661519">
        <ele>72.066012</ele>
        <time>2026-08-15T06:42:30.000Z</time>
      </trkpt>
      <trkpt lat="23.047274" lon="109.661572">
        <ele>72.060216</ele>
        <time>2026-08-15T06:42:31.000Z</time>
      </trkpt>
      <trkpt lat="23.047269" lon="109.661625">
        <ele>72.054400</ele>
        <time>2026-08-15T06:42:32.000Z</time>
      </trkpt>
      <trkpt lat="23.047267" lon="109.661677">
        <ele>72.048718</ele>
        <time>2026-08-15T06:42:33.000Z</time>
      </trkpt>
      <trkpt lat="23.047262" lon="109.661729">
        <ele>72.043011</ele>
        <time>2026-08-15T06:42:34.000Z</time>
      </trkpt>
      <trkpt lat="23.047258" lon="109.661781">
        <ele>72.037315</ele>
        <time>2026-08-15T06:42:35.000Z</time>
      </trkpt>
      <trkpt lat="23.047256" lon="109.661832">
        <ele>72.031743</ele>
        <time>2026-08-15T06:42:36.000Z</time>
      </trkpt>
      <trkpt lat="23.047254" lon="109.661884">
        <ele>72.026061</ele>
        <time>2026-08-15T06:42:37.000Z</time>
      </trkpt>
      <trkpt lat="23.047252" lon="109.661937">
        <ele>72.020271</ele>
        <time>2026-08-15T06:42:38.000Z</time>
      </trkpt>
      <trkpt lat="23.047249" lon="109.661989">
        <ele>72.014583</ele>
        <time>2026-08-15T06:42:39.000Z</time>
      </trkpt>
      <trkpt lat="23.047247" lon="109.662041">
        <ele>72.008902</ele>
        <time>2026-08-15T06:42:40.000Z</time>
      </trkpt>
      <trkpt lat="23.047244" lon="109.662093">
        <ele>72.003215</ele>
        <time>2026-08-15T06:42:41.000Z</time>
      </trkpt>
      <trkpt lat="23.047243" lon="109.662143">
        <ele>71.997755</ele>
        <time>2026-08-15T06:42:42.000Z</time>
      </trkpt>
      <trkpt lat="23.047240" lon="109.662193">
        <ele>71.992286</ele>
        <time>2026-08-15T06:42:43.000Z</time>
      </trkpt>
      <trkpt lat="23.047236" lon="109.662244">
        <ele>71.986698</ele>
        <time>2026-08-15T06:42:44.000Z</time>
      </trkpt>
      <trkpt lat="23.047234" lon="109.662295">
        <ele>71.981126</ele>
        <time>2026-08-15T06:42:45.000Z</time>
      </trkpt>
      <trkpt lat="23.047233" lon="109.662347">
        <ele>71.975448</ele>
        <time>2026-08-15T06:42:46.000Z</time>
      </trkpt>
      <trkpt lat="23.047233" lon="109.662398">
        <ele>71.969881</ele>
        <time>2026-08-15T06:42:47.000Z</time>
      </trkpt>
      <trkpt lat="23.047228" lon="109.662450">
        <ele>71.964174</ele>
        <time>2026-08-15T06:42:48.000Z</time>
      </trkpt>
      <trkpt lat="23.047225" lon="109.662502">
        <ele>71.958486</ele>
        <time>2026-08-15T06:42:49.000Z</time>
      </trkpt>
      <trkpt lat="23.047223" lon="109.662553">
        <ele>71.965369</ele>
        <time>2026-08-15T06:42:50.000Z</time>
      </trkpt>
      <trkpt lat="23.047219" lon="109.662605">
        <ele>71.980876</ele>
        <time>2026-08-15T06:42:51.000Z</time>
      </trkpt>
      <trkpt lat="23.047215" lon="109.662656">
        <ele>71.996088</ele>
        <time>2026-08-15T06:42:52.000Z</time>
      </trkpt>
      <trkpt lat="23.047210" lon="109.662707">
        <ele>72.011331</ele>
        <time>2026-08-15T06:42:53.000Z</time>
      </trkpt>
      <trkpt lat="23.047203" lon="109.662757">
        <ele>72.026361</ele>
        <time>2026-08-15T06:42:54.000Z</time>
      </trkpt>
      <trkpt lat="23.047198" lon="109.662807">
        <ele>72.041308</ele>
        <time>2026-08-15T06:42:55.000Z</time>
      </trkpt>
      <trkpt lat="23.047193" lon="109.662857">
        <ele>72.056255</ele>
        <time>2026-08-15T06:42:56.000Z</time>
      </trkpt>
      <trkpt lat="23.047188" lon="109.662906">
        <ele>72.070907</ele>
        <time>2026-08-15T06:42:57.000Z</time>
      </trkpt>
      <trkpt lat="23.047182" lon="109.662956">
        <ele>72.085892</ele>
        <time>2026-08-15T06:42:58.000Z</time>
      </trkpt>
      <trkpt lat="23.047176" lon="109.663006">
        <ele>72.100877</ele>
        <time>2026-08-15T06:42:59.000Z</time>
      </trkpt>
      <trkpt lat="23.047169" lon="109.663054">
        <ele>72.115321</ele>
        <time>2026-08-15T06:43:00.000Z</time>
      </trkpt>
      <trkpt lat="23.047165" lon="109.663100">
        <ele>72.129052</ele>
        <time>2026-08-15T06:43:01.000Z</time>
      </trkpt>
      <trkpt lat="23.047163" lon="109.663146">
        <ele>72.142738</ele>
        <time>2026-08-15T06:43:02.000Z</time>
      </trkpt>
      <trkpt lat="23.047160" lon="109.663191">
        <ele>72.156147</ele>
        <time>2026-08-15T06:43:03.000Z</time>
      </trkpt>
      <trkpt lat="23.047156" lon="109.663236">
        <ele>72.169583</ele>
        <time>2026-08-15T06:43:04.000Z</time>
      </trkpt>
      <trkpt lat="23.047151" lon="109.663279">
        <ele>72.182463</ele>
        <time>2026-08-15T06:43:05.000Z</time>
      </trkpt>
      <trkpt lat="23.047143" lon="109.663320">
        <ele>72.194919</ele>
        <time>2026-08-15T06:43:06.000Z</time>
      </trkpt>
      <trkpt lat="23.047133" lon="109.663360">
        <ele>72.207238</ele>
        <time>2026-08-15T06:43:07.000Z</time>
      </trkpt>
      <trkpt lat="23.047123" lon="109.663397">
        <ele>72.218698</ele>
        <time>2026-08-15T06:43:08.000Z</time>
      </trkpt>
      <trkpt lat="23.047112" lon="109.663432">
        <ele>72.229690</ele>
        <time>2026-08-15T06:43:09.000Z</time>
      </trkpt>
      <trkpt lat="23.047100" lon="109.663467">
        <ele>72.240790</ele>
        <time>2026-08-15T06:43:10.000Z</time>
      </trkpt>
      <trkpt lat="23.047089" lon="109.663502">
        <ele>72.251782</ele>
        <time>2026-08-15T06:43:11.000Z</time>
      </trkpt>
      <trkpt lat="23.047077" lon="109.663539">
        <ele>72.263441</ele>
        <time>2026-08-15T06:43:12.000Z</time>
      </trkpt>
      <trkpt lat="23.047063" lon="109.663579">
        <ele>72.276159</ele>
        <time>2026-08-15T06:43:13.000Z</time>
      </trkpt>
      <trkpt lat="23.047048" lon="109.663619">
        <ele>72.288996</ele>
        <time>2026-08-15T06:43:14.000Z</time>
      </trkpt>
      <trkpt lat="23.047033" lon="109.663659">
        <ele>72.301833</ele>
        <time>2026-08-15T06:43:15.000Z</time>
      </trkpt>
      <trkpt lat="23.047016" lon="109.663698">
        <ele>72.314658</ele>
        <time>2026-08-15T06:43:16.000Z</time>
      </trkpt>
      <trkpt lat="23.046998" lon="109.663738">
        <ele>72.327891</ele>
        <time>2026-08-15T06:43:17.000Z</time>
      </trkpt>
      <trkpt lat="23.046980" lon="109.663778">
        <ele>72.341124</ele>
        <time>2026-08-15T06:43:18.000Z</time>
      </trkpt>
      <trkpt lat="23.046963" lon="109.663818">
        <ele>72.354219</ele>
        <time>2026-08-15T06:43:19.000Z</time>
      </trkpt>
      <trkpt lat="23.046946" lon="109.663859">
        <ele>72.367583</ele>
        <time>2026-08-15T06:43:20.000Z</time>
      </trkpt>
      <trkpt lat="23.046929" lon="109.663899">
        <ele>72.380678</ele>
        <time>2026-08-15T06:43:21.000Z</time>
      </trkpt>
      <trkpt lat="23.046911" lon="109.663940">
        <ele>72.394178</ele>
        <time>2026-08-15T06:43:22.000Z</time>
      </trkpt>
      <trkpt lat="23.046893" lon="109.663980">
        <ele>72.407411</ele>
        <time>2026-08-15T06:43:23.000Z</time>
      </trkpt>
      <trkpt lat="23.046873" lon="109.664019">
        <ele>72.420680</ele>
        <time>2026-08-15T06:43:24.000Z</time>
      </trkpt>
      <trkpt lat="23.046850" lon="109.664056">
        <ele>72.433950</ele>
        <time>2026-08-15T06:43:25.000Z</time>
      </trkpt>
      <trkpt lat="23.046826" lon="109.664091">
        <ele>72.446922</ele>
        <time>2026-08-15T06:43:26.000Z</time>
      </trkpt>
      <trkpt lat="23.046799" lon="109.664125">
        <ele>72.460269</ele>
        <time>2026-08-15T06:43:27.000Z</time>
      </trkpt>
      <trkpt lat="23.046771" lon="109.664159">
        <ele>72.473829</ele>
        <time>2026-08-15T06:43:28.000Z</time>
      </trkpt>
      <trkpt lat="23.046742" lon="109.664192">
        <ele>72.487391</ele>
        <time>2026-08-15T06:43:29.000Z</time>
      </trkpt>
      <trkpt lat="23.046716" lon="109.664228">
        <ele>72.500991</ele>
        <time>2026-08-15T06:43:30.000Z</time>
      </trkpt>
      <trkpt lat="23.046692" lon="109.664265">
        <ele>72.514445</ele>
        <time>2026-08-15T06:43:31.000Z</time>
      </trkpt>
      <trkpt lat="23.046669" lon="109.664302">
        <ele>72.527715</ele>
        <time>2026-08-15T06:43:32.000Z</time>
      </trkpt>
      <trkpt lat="23.046645" lon="109.664338">
        <ele>72.537332</ele>
        <time>2026-08-15T06:43:33.000Z</time>
      </trkpt>
      <trkpt lat="23.046621" lon="109.664376">
        <ele>72.537935</ele>
        <time>2026-08-15T06:43:34.000Z</time>
      </trkpt>
      <trkpt lat="23.046597" lon="109.664415">
        <ele>72.538550</ele>
        <time>2026-08-15T06:43:35.000Z</time>
      </trkpt>
      <trkpt lat="23.046571" lon="109.664454">
        <ele>72.539180</ele>
        <time>2026-08-15T06:43:36.000Z</time>
      </trkpt>
      <trkpt lat="23.046544" lon="109.664492">
        <ele>72.539809</ele>
        <time>2026-08-15T06:43:37.000Z</time>
      </trkpt>
      <trkpt lat="23.046514" lon="109.664529">
        <ele>72.540455</ele>
        <time>2026-08-15T06:43:38.000Z</time>
      </trkpt>
      <trkpt lat="23.046484" lon="109.664566">
        <ele>72.541101</ele>
        <time>2026-08-15T06:43:39.000Z</time>
      </trkpt>
      <trkpt lat="23.046454" lon="109.664602">
        <ele>72.541737</ele>
        <time>2026-08-15T06:43:40.000Z</time>
      </trkpt>
      <trkpt lat="23.046425" lon="109.664638">
        <ele>72.542364</ele>
        <time>2026-08-15T06:43:41.000Z</time>
      </trkpt>
      <trkpt lat="23.046397" lon="109.664675">
        <ele>72.542991</ele>
        <time>2026-08-15T06:43:42.000Z</time>
      </trkpt>
      <trkpt lat="23.046369" lon="109.664711">
        <ele>72.543608</ele>
        <time>2026-08-15T06:43:43.000Z</time>
      </trkpt>
      <trkpt lat="23.046339" lon="109.664749">
        <ele>72.544264</ele>
        <time>2026-08-15T06:43:44.000Z</time>
      </trkpt>
      <trkpt lat="23.046309" lon="109.664786">
        <ele>72.544910</ele>
        <time>2026-08-15T06:43:45.000Z</time>
      </trkpt>
      <trkpt lat="23.046280" lon="109.664821">
        <ele>72.545527</ele>
        <time>2026-08-15T06:43:46.000Z</time>
      </trkpt>
      <trkpt lat="23.046252" lon="109.664856">
        <ele>72.546134</ele>
        <time>2026-08-15T06:43:47.000Z</time>
      </trkpt>
      <trkpt lat="23.046226" lon="109.664896">
        <ele>72.546775</ele>
        <time>2026-08-15T06:43:48.000Z</time>
      </trkpt>
      <trkpt lat="23.046204" lon="109.664939">
        <ele>72.547420</ele>
        <time>2026-08-15T06:43:49.000Z</time>
      </trkpt>
      <trkpt lat="23.046183" lon="109.664982">
        <ele>72.548057</ele>
        <time>2026-08-15T06:43:50.000Z</time>
      </trkpt>
      <trkpt lat="23.046159" lon="109.665026">
        <ele>72.548727</ele>
        <time>2026-08-15T06:43:51.000Z</time>
      </trkpt>
      <trkpt lat="23.046133" lon="109.665071">
        <ele>72.549423</ele>
        <time>2026-08-15T06:43:52.000Z</time>
      </trkpt>
      <trkpt lat="23.046105" lon="109.665112">
        <ele>72.550092</ele>
        <time>2026-08-15T06:43:53.000Z</time>
      </trkpt>
      <trkpt lat="23.046073" lon="109.665151">
        <ele>72.550776</ele>
        <time>2026-08-15T06:43:54.000Z</time>
      </trkpt>
      <trkpt lat="23.046040" lon="109.665191">
        <ele>72.551480</ele>
        <time>2026-08-15T06:43:55.000Z</time>
      </trkpt>
      <trkpt lat="23.046008" lon="109.665231">
        <ele>72.552174</ele>
        <time>2026-08-15T06:43:56.000Z</time>
      </trkpt>
      <trkpt lat="23.045975" lon="109.665272">
        <ele>72.552887</ele>
        <time>2026-08-15T06:43:57.000Z</time>
      </trkpt>
      <trkpt lat="23.045941" lon="109.665312">
        <ele>72.553600</ele>
        <time>2026-08-15T06:43:58.000Z</time>
      </trkpt>
      <trkpt lat="23.045907" lon="109.665351">
        <ele>72.554304</ele>
        <time>2026-08-15T06:43:59.000Z</time>
      </trkpt>
      <trkpt lat="23.045874" lon="109.665391">
        <ele>72.555007</ele>
        <time>2026-08-15T06:44:00.000Z</time>
      </trkpt>
      <trkpt lat="23.045840" lon="109.665430">
        <ele>72.555711</ele>
        <time>2026-08-15T06:44:01.000Z</time>
      </trkpt>
      <trkpt lat="23.045807" lon="109.665470">
        <ele>72.556415</ele>
        <time>2026-08-15T06:44:02.000Z</time>
      </trkpt>
      <trkpt lat="23.045775" lon="109.665511">
        <ele>72.557119</ele>
        <time>2026-08-15T06:44:03.000Z</time>
      </trkpt>
      <trkpt lat="23.045741" lon="109.665551">
        <ele>72.557832</ele>
        <time>2026-08-15T06:44:04.000Z</time>
      </trkpt>
      <trkpt lat="23.045707" lon="109.665591">
        <ele>72.558545</ele>
        <time>2026-08-15T06:44:05.000Z</time>
      </trkpt>
      <trkpt lat="23.045675" lon="109.665632">
        <ele>72.559249</ele>
        <time>2026-08-15T06:44:06.000Z</time>
      </trkpt>
      <trkpt lat="23.045641" lon="109.665674">
        <ele>72.559982</ele>
        <time>2026-08-15T06:44:07.000Z</time>
      </trkpt>
      <trkpt lat="23.045608" lon="109.665715">
        <ele>72.560695</ele>
        <time>2026-08-15T06:44:08.000Z</time>
      </trkpt>
      <trkpt lat="23.045578" lon="109.665755">
        <ele>72.561371</ele>
        <time>2026-08-15T06:44:09.000Z</time>
      </trkpt>
      <trkpt lat="23.045549" lon="109.665795">
        <ele>72.562038</ele>
        <time>2026-08-15T06:44:10.000Z</time>
      </trkpt>
      <trkpt lat="23.045520" lon="109.665837">
        <ele>72.562726</ele>
        <time>2026-08-15T06:44:11.000Z</time>
      </trkpt>
      <trkpt lat="23.045492" lon="109.665882">
        <ele>72.571132</ele>
        <time>2026-08-15T06:44:12.000Z</time>
      </trkpt>
      <trkpt lat="23.045460" lon="109.665928">
        <ele>72.580533</ele>
        <time>2026-08-15T06:44:13.000Z</time>
      </trkpt>
      <trkpt lat="23.045430" lon="109.665974">
        <ele>72.589725</ele>
        <time>2026-08-15T06:44:14.000Z</time>
      </trkpt>
      <trkpt lat="23.045399" lon="109.666018">
        <ele>72.598759</ele>
        <time>2026-08-15T06:44:15.000Z</time>
      </trkpt>
      <trkpt lat="23.045366" lon="109.666063">
        <ele>72.608140</ele>
        <time>2026-08-15T06:44:16.000Z</time>
      </trkpt>
      <trkpt lat="23.045331" lon="109.666106">
        <ele>72.617499</ele>
        <time>2026-08-15T06:44:17.000Z</time>
      </trkpt>
      <trkpt lat="23.045298" lon="109.666149">
        <ele>72.626628</ele>
        <time>2026-08-15T06:44:18.000Z</time>
      </trkpt>
      <trkpt lat="23.045266" lon="109.666192">
        <ele>72.635644</ele>
        <time>2026-08-15T06:44:19.000Z</time>
      </trkpt>
      <trkpt lat="23.045236" lon="109.666235">
        <ele>72.644441</ele>
        <time>2026-08-15T06:44:20.000Z</time>
      </trkpt>
      <trkpt lat="23.045205" lon="109.666277">
        <ele>72.653219</ele>
        <time>2026-08-15T06:44:21.000Z</time>
      </trkpt>
      <trkpt lat="23.045174" lon="109.666320">
        <ele>72.662125</ele>
        <time>2026-08-15T06:44:22.000Z</time>
      </trkpt>
      <trkpt lat="23.045140" lon="109.666361">
        <ele>72.671123</ele>
        <time>2026-08-15T06:44:23.000Z</time>
      </trkpt>
      <trkpt lat="23.045105" lon="109.666403">
        <ele>72.680360</ele>
        <time>2026-08-15T06:44:24.000Z</time>
      </trkpt>
      <trkpt lat="23.045067" lon="109.666442">
        <ele>72.689621</ele>
        <time>2026-08-15T06:44:25.000Z</time>
      </trkpt>
      <trkpt lat="23.045027" lon="109.666480">
        <ele>72.699033</ele>
        <time>2026-08-15T06:44:26.000Z</time>
      </trkpt>
      <trkpt lat="23.044990" lon="109.666513">
        <ele>72.707514</ele>
        <time>2026-08-15T06:44:27.000Z</time>
      </trkpt>
      <trkpt lat="23.044955" lon="109.666547">
        <ele>72.715831</ele>
        <time>2026-08-15T06:44:28.000Z</time>
      </trkpt>
      <trkpt lat="23.044922" lon="109.666584">
        <ele>72.724232</ele>
        <time>2026-08-15T06:44:29.000Z</time>
      </trkpt>
      <trkpt lat="23.044889" lon="109.666621">
        <ele>72.732632</ele>
        <time>2026-08-15T06:44:30.000Z</time>
      </trkpt>
      <trkpt lat="23.044855" lon="109.666663">
        <ele>72.741752</ele>
        <time>2026-08-15T06:44:31.000Z</time>
      </trkpt>
      <trkpt lat="23.044823" lon="109.666704">
        <ele>72.750517</ele>
        <time>2026-08-15T06:44:32.000Z</time>
      </trkpt>
      <trkpt lat="23.044789" lon="109.666744">
        <ele>72.759394</ele>
        <time>2026-08-15T06:44:33.000Z</time>
      </trkpt>
      <trkpt lat="23.044762" lon="109.666782">
        <ele>72.767221</ele>
        <time>2026-08-15T06:44:34.000Z</time>
      </trkpt>
      <trkpt lat="23.044742" lon="109.666820">
        <ele>72.774358</ele>
        <time>2026-08-15T06:44:35.000Z</time>
      </trkpt>
      <trkpt lat="23.044710" lon="109.666859">
        <ele>72.782877</ele>
        <time>2026-08-15T06:44:36.000Z</time>
      </trkpt>
      <trkpt lat="23.044675" lon="109.666898">
        <ele>72.791758</ele>
        <time>2026-08-15T06:44:37.000Z</time>
      </trkpt>
      <trkpt lat="23.044645" lon="109.666934">
        <ele>72.799676</ele>
        <time>2026-08-15T06:44:38.000Z</time>
      </trkpt>
      <trkpt lat="23.044617" lon="109.666974">
        <ele>72.807870</ele>
        <time>2026-08-15T06:44:39.000Z</time>
      </trkpt>
      <trkpt lat="23.044586" lon="109.667009">
        <ele>72.815790</ele>
        <time>2026-08-15T06:44:40.000Z</time>
      </trkpt>
      <trkpt lat="23.044555" lon="109.667043">
        <ele>72.823593</ele>
        <time>2026-08-15T06:44:41.000Z</time>
      </trkpt>
      <trkpt lat="23.044525" lon="109.667078">
        <ele>72.831391</ele>
        <time>2026-08-15T06:44:42.000Z</time>
      </trkpt>
      <trkpt lat="23.044495" lon="109.667116">
        <ele>72.839554</ele>
        <time>2026-08-15T06:44:43.000Z</time>
      </trkpt>
      <trkpt lat="23.044459" lon="109.667152">
        <ele>72.848221</ele>
        <time>2026-08-15T06:44:44.000Z</time>
      </trkpt>
      <trkpt lat="23.044425" lon="109.667190">
        <ele>72.856862</ele>
        <time>2026-08-15T06:44:45.000Z</time>
      </trkpt>
      <trkpt lat="23.044392" lon="109.667228">
        <ele>72.865381</ele>
        <time>2026-08-15T06:44:46.000Z</time>
      </trkpt>
      <trkpt lat="23.044357" lon="109.667262">
        <ele>72.873698</ele>
        <time>2026-08-15T06:44:47.000Z</time>
      </trkpt>
      <trkpt lat="23.044321" lon="109.667299">
        <ele>72.878835</ele>
        <time>2026-08-15T06:44:48.000Z</time>
      </trkpt>
      <trkpt lat="23.044282" lon="109.667337">
        <ele>72.855871</ele>
        <time>2026-08-15T06:44:49.000Z</time>
      </trkpt>
      <trkpt lat="23.044248" lon="109.667377">
        <ele>72.833903</ele>
        <time>2026-08-15T06:44:50.000Z</time>
      </trkpt>
      <trkpt lat="23.044210" lon="109.667415">
        <ele>72.811263</ele>
        <time>2026-08-15T06:44:51.000Z</time>
      </trkpt>
      <trkpt lat="23.044179" lon="109.667459">
        <ele>72.788907</ele>
        <time>2026-08-15T06:44:52.000Z</time>
      </trkpt>
      <trkpt lat="23.044145" lon="109.667500">
        <ele>72.766640</ele>
        <time>2026-08-15T06:44:53.000Z</time>
      </trkpt>
      <trkpt lat="23.044112" lon="109.667544">
        <ele>72.743741</ele>
        <time>2026-08-15T06:44:54.000Z</time>
      </trkpt>
      <trkpt lat="23.044077" lon="109.667581">
        <ele>72.722333</ele>
        <time>2026-08-15T06:44:55.000Z</time>
      </trkpt>
      <trkpt lat="23.044045" lon="109.667621">
        <ele>72.700951</ele>
        <time>2026-08-15T06:44:56.000Z</time>
      </trkpt>
      <trkpt lat="23.044009" lon="109.667662">
        <ele>72.678088</ele>
        <time>2026-08-15T06:44:57.000Z</time>
      </trkpt>
      <trkpt lat="23.043972" lon="109.667703">
        <ele>72.654921</ele>
        <time>2026-08-15T06:44:58.000Z</time>
      </trkpt>
      <trkpt lat="23.043935" lon="109.667745">
        <ele>72.631464</ele>
        <time>2026-08-15T06:44:59.000Z</time>
      </trkpt>
      <trkpt lat="23.043895" lon="109.667786">
        <ele>72.607357</ele>
        <time>2026-08-15T06:45:00.000Z</time>
      </trkpt>
      <trkpt lat="23.043856" lon="109.667826">
        <ele>72.583847</ele>
        <time>2026-08-15T06:45:01.000Z</time>
      </trkpt>
      <trkpt lat="23.043818" lon="109.667870">
        <ele>72.559502</ele>
        <time>2026-08-15T06:45:02.000Z</time>
      </trkpt>
      <trkpt lat="23.043778" lon="109.667917">
        <ele>72.533675</ele>
        <time>2026-08-15T06:45:03.000Z</time>
      </trkpt>
      <trkpt lat="23.043739" lon="109.667962">
        <ele>72.508737</ele>
        <time>2026-08-15T06:45:04.000Z</time>
      </trkpt>
      <trkpt lat="23.043699" lon="109.668004">
        <ele>72.484352</ele>
        <time>2026-08-15T06:45:05.000Z</time>
      </trkpt>
      <trkpt lat="23.043659" lon="109.668047">
        <ele>72.459684</ele>
        <time>2026-08-15T06:45:06.000Z</time>
      </trkpt>
      <trkpt lat="23.043620" lon="109.668088">
        <ele>72.435895</ele>
        <time>2026-08-15T06:45:07.000Z</time>
      </trkpt>
      <trkpt lat="23.043581" lon="109.668129">
        <ele>72.412106</ele>
        <time>2026-08-15T06:45:08.000Z</time>
      </trkpt>
      <trkpt lat="23.043543" lon="109.668170">
        <ele>72.388629</ele>
        <time>2026-08-15T06:45:09.000Z</time>
      </trkpt>
      <trkpt lat="23.043504" lon="109.668212">
        <ele>72.364557</ele>
        <time>2026-08-15T06:45:10.000Z</time>
      </trkpt>
      <trkpt lat="23.043462" lon="109.668254">
        <ele>72.339534</ele>
        <time>2026-08-15T06:45:11.000Z</time>
      </trkpt>
      <trkpt lat="23.043419" lon="109.668296">
        <ele>72.314187</ele>
        <time>2026-08-15T06:45:12.000Z</time>
      </trkpt>
      <trkpt lat="23.043378" lon="109.668339">
        <ele>72.289206</ele>
        <time>2026-08-15T06:45:13.000Z</time>
      </trkpt>
      <trkpt lat="23.043335" lon="109.668379">
        <ele>72.264391</ele>
        <time>2026-08-15T06:45:14.000Z</time>
      </trkpt>
      <trkpt lat="23.043289" lon="109.668418">
        <ele>72.238812</ele>
        <time>2026-08-15T06:45:15.000Z</time>
      </trkpt>
      <trkpt lat="23.043247" lon="109.668457">
        <ele>72.214593</ele>
        <time>2026-08-15T06:45:16.000Z</time>
      </trkpt>
      <trkpt lat="23.043205" lon="109.668496">
        <ele>72.190373</ele>
        <time>2026-08-15T06:45:17.000Z</time>
      </trkpt>
      <trkpt lat="23.043161" lon="109.668533">
        <ele>72.165982</ele>
        <time>2026-08-15T06:45:18.000Z</time>
      </trkpt>
      <trkpt lat="23.043120" lon="109.668570">
        <ele>72.142617</ele>
        <time>2026-08-15T06:45:19.000Z</time>
      </trkpt>
      <trkpt lat="23.043079" lon="109.668606">
        <ele>72.119508</ele>
        <time>2026-08-15T06:45:20.000Z</time>
      </trkpt>
      <trkpt lat="23.043038" lon="109.668643">
        <ele>72.096143</ele>
        <time>2026-08-15T06:45:21.000Z</time>
      </trkpt>
      <trkpt lat="23.042993" lon="109.668682">
        <ele>72.070937</ele>
        <time>2026-08-15T06:45:22.000Z</time>
      </trkpt>
      <trkpt lat="23.042949" lon="109.668719">
        <ele>72.046577</ele>
        <time>2026-08-15T06:45:23.000Z</time>
      </trkpt>
      <trkpt lat="23.042904" lon="109.668756">
        <ele>72.021870</ele>
        <time>2026-08-15T06:45:24.000Z</time>
      </trkpt>
      <trkpt lat="23.042862" lon="109.668794">
        <ele>71.997940</ele>
        <time>2026-08-15T06:45:25.000Z</time>
      </trkpt>
      <trkpt lat="23.042820" lon="109.668838">
        <ele>71.972397</ele>
        <time>2026-08-15T06:45:26.000Z</time>
      </trkpt>
      <trkpt lat="23.042782" lon="109.668883">
        <ele>71.947789</ele>
        <time>2026-08-15T06:45:27.000Z</time>
      </trkpt>
      <trkpt lat="23.042744" lon="109.668926">
        <ele>71.923768</ele>
        <time>2026-08-15T06:45:28.000Z</time>
      </trkpt>
      <trkpt lat="23.042703" lon="109.668965">
        <ele>71.899910</ele>
        <time>2026-08-15T06:45:29.000Z</time>
      </trkpt>
      <trkpt lat="23.042660" lon="109.669002">
        <ele>71.875895</ele>
        <time>2026-08-15T06:45:30.000Z</time>
      </trkpt>
      <trkpt lat="23.042615" lon="109.669038">
        <ele>71.851429</ele>
        <time>2026-08-15T06:45:31.000Z</time>
      </trkpt>
      <trkpt lat="23.042568" lon="109.669072">
        <ele>71.826707</ele>
        <time>2026-08-15T06:45:32.000Z</time>
      </trkpt>
      <trkpt lat="23.042522" lon="109.669103">
        <ele>71.803007</ele>
        <time>2026-08-15T06:45:33.000Z</time>
      </trkpt>
      <trkpt lat="23.042476" lon="109.669137">
        <ele>71.778649</ele>
        <time>2026-08-15T06:45:34.000Z</time>
      </trkpt>
      <trkpt lat="23.042430" lon="109.669172">
        <ele>71.754062</ele>
        <time>2026-08-15T06:45:35.000Z</time>
      </trkpt>
      <trkpt lat="23.042381" lon="109.669206">
        <ele>71.728607</ele>
        <time>2026-08-15T06:45:36.000Z</time>
      </trkpt>
      <trkpt lat="23.042332" lon="109.669240">
        <ele>71.703152</ele>
        <time>2026-08-15T06:45:37.000Z</time>
      </trkpt>
      <trkpt lat="23.042282" lon="109.669276">
        <ele>71.676890</ele>
        <time>2026-08-15T06:45:38.000Z</time>
      </trkpt>
      <trkpt lat="23.042230" lon="109.669311">
        <ele>71.650108</ele>
        <time>2026-08-15T06:45:39.000Z</time>
      </trkpt>
      <trkpt lat="23.042177" lon="109.669345">
        <ele>71.623160</ele>
        <time>2026-08-15T06:45:40.000Z</time>
      </trkpt>
      <trkpt lat="23.042124" lon="109.669379">
        <ele>71.596213</ele>
        <time>2026-08-15T06:45:41.000Z</time>
      </trkpt>
      <trkpt lat="23.042072" lon="109.669415">
        <ele>71.569217</ele>
        <time>2026-08-15T06:45:42.000Z</time>
      </trkpt>
      <trkpt lat="23.042020" lon="109.669448">
        <ele>71.542850</ele>
        <time>2026-08-15T06:45:43.000Z</time>
      </trkpt>
      <trkpt lat="23.041968" lon="109.669481">
        <ele>71.516484</ele>
        <time>2026-08-15T06:45:44.000Z</time>
      </trkpt>
      <trkpt lat="23.041918" lon="109.669515">
        <ele>71.490659</ele>
        <time>2026-08-15T06:45:45.000Z</time>
      </trkpt>
      <trkpt lat="23.041867" lon="109.669549">
        <ele>71.464461</ele>
        <time>2026-08-15T06:45:46.000Z</time>
      </trkpt>
      <trkpt lat="23.041816" lon="109.669582">
        <ele>71.438472</ele>
        <time>2026-08-15T06:45:47.000Z</time>
      </trkpt>
      <trkpt lat="23.041766" lon="109.669614">
        <ele>71.413065</ele>
        <time>2026-08-15T06:45:48.000Z</time>
      </trkpt>
      <trkpt lat="23.041716" lon="109.669648">
        <ele>71.387240</ele>
        <time>2026-08-15T06:45:49.000Z</time>
      </trkpt>
      <trkpt lat="23.041666" lon="109.669679">
        <ele>71.362035</ele>
        <time>2026-08-15T06:45:50.000Z</time>
      </trkpt>
      <trkpt lat="23.041617" lon="109.669708">
        <ele>71.337604</ele>
        <time>2026-08-15T06:45:51.000Z</time>
      </trkpt>
      <trkpt lat="23.041568" lon="109.669739">
        <ele>71.312779</ele>
        <time>2026-08-15T06:45:52.000Z</time>
      </trkpt>
      <trkpt lat="23.041521" lon="109.669771">
        <ele>71.301777</ele>
        <time>2026-08-15T06:45:53.000Z</time>
      </trkpt>
      <trkpt lat="23.041473" lon="109.669801">
        <ele>71.296643</ele>
        <time>2026-08-15T06:45:54.000Z</time>
      </trkpt>
      <trkpt lat="23.041426" lon="109.669832">
        <ele>71.291546</ele>
        <time>2026-08-15T06:45:55.000Z</time>
      </trkpt>
      <trkpt lat="23.041380" lon="109.669861">
        <ele>71.286615</ele>
        <time>2026-08-15T06:45:56.000Z</time>
      </trkpt>
      <trkpt lat="23.041333" lon="109.669890">
        <ele>71.281604</ele>
        <time>2026-08-15T06:45:57.000Z</time>
      </trkpt>
      <trkpt lat="23.041287" lon="109.669918">
        <ele>71.276715</ele>
        <time>2026-08-15T06:45:58.000Z</time>
      </trkpt>
      <trkpt lat="23.041240" lon="109.669948">
        <ele>71.271661</ele>
        <time>2026-08-15T06:45:59.000Z</time>
      </trkpt>
      <trkpt lat="23.041193" lon="109.669978">
        <ele>71.266607</ele>
        <time>2026-08-15T06:46:00.000Z</time>
      </trkpt>
      <trkpt lat="23.041147" lon="109.670008">
        <ele>71.261633</ele>
        <time>2026-08-15T06:46:01.000Z</time>
      </trkpt>
      <trkpt lat="23.041101" lon="109.670040">
        <ele>71.256569</ele>
        <time>2026-08-15T06:46:02.000Z</time>
      </trkpt>
      <trkpt lat="23.041055" lon="109.670070">
        <ele>71.251595</ele>
        <time>2026-08-15T06:46:03.000Z</time>
      </trkpt>
      <trkpt lat="23.041010" lon="109.670099">
        <ele>71.246744</ele>
        <time>2026-08-15T06:46:04.000Z</time>
      </trkpt>
      <trkpt lat="23.040965" lon="109.670129">
        <ele>71.241849</ele>
        <time>2026-08-15T06:46:05.000Z</time>
      </trkpt>
      <trkpt lat="23.040922" lon="109.670159">
        <ele>71.237111</ele>
        <time>2026-08-15T06:46:06.000Z</time>
      </trkpt>
      <trkpt lat="23.040879" lon="109.670188">
        <ele>71.232419</ele>
        <time>2026-08-15T06:46:07.000Z</time>
      </trkpt>
      <trkpt lat="23.040835" lon="109.670216">
        <ele>71.227691</ele>
        <time>2026-08-15T06:46:08.000Z</time>
      </trkpt>
      <trkpt lat="23.040793" lon="109.670245">
        <ele>71.223077</ele>
        <time>2026-08-15T06:46:09.000Z</time>
      </trkpt>
      <trkpt lat="23.040750" lon="109.670274">
        <ele>71.218385</ele>
        <time>2026-08-15T06:46:10.000Z</time>
      </trkpt>
      <trkpt lat="23.040706" lon="109.670304">
        <ele>71.213569</ele>
        <time>2026-08-15T06:46:11.000Z</time>
      </trkpt>
      <trkpt lat="23.040664" lon="109.670334">
        <ele>71.208909</ele>
        <time>2026-08-15T06:46:12.000Z</time>
      </trkpt>
      <trkpt lat="23.040623" lon="109.670364">
        <ele>71.204326</ele>
        <time>2026-08-15T06:46:13.000Z</time>
      </trkpt>
      <trkpt lat="23.040581" lon="109.670398">
        <ele>71.199470</ele>
        <time>2026-08-15T06:46:14.000Z</time>
      </trkpt>
      <trkpt lat="23.040538" lon="109.670431">
        <ele>71.194589</ele>
        <time>2026-08-15T06:46:15.000Z</time>
      </trkpt>
      <trkpt lat="23.040497" lon="109.670465">
        <ele>71.189807</ele>
        <time>2026-08-15T06:46:16.000Z</time>
      </trkpt>
      <trkpt lat="23.040456" lon="109.670501">
        <ele>71.184920</ele>
        <time>2026-08-15T06:46:17.000Z</time>
      </trkpt>
      <trkpt lat="23.040416" lon="109.670538">
        <ele>71.180050</ele>
        <time>2026-08-15T06:46:18.000Z</time>
      </trkpt>
      <trkpt lat="23.040375" lon="109.670577">
        <ele>71.174997</ele>
        <time>2026-08-15T06:46:19.000Z</time>
      </trkpt>
      <trkpt lat="23.040335" lon="109.670616">
        <ele>71.170015</ele>
        <time>2026-08-15T06:46:20.000Z</time>
      </trkpt>
      <trkpt lat="23.040296" lon="109.670656">
        <ele>71.165042</ele>
        <time>2026-08-15T06:46:21.000Z</time>
      </trkpt>
      <trkpt lat="23.040258" lon="109.670697">
        <ele>71.160077</ele>
        <time>2026-08-15T06:46:22.000Z</time>
      </trkpt>
      <trkpt lat="23.040220" lon="109.670738">
        <ele>71.155112</ele>
        <time>2026-08-15T06:46:23.000Z</time>
      </trkpt>
      <trkpt lat="23.040182" lon="109.670781">
        <ele>71.150026</ele>
        <time>2026-08-15T06:46:24.000Z</time>
      </trkpt>
      <trkpt lat="23.040144" lon="109.670824">
        <ele>71.144939</ele>
        <time>2026-08-15T06:46:25.000Z</time>
      </trkpt>
      <trkpt lat="23.040106" lon="109.670867">
        <ele>71.139852</ele>
        <time>2026-08-15T06:46:26.000Z</time>
      </trkpt>
      <trkpt lat="23.040067" lon="109.670912">
        <ele>71.122744</ele>
        <time>2026-08-15T06:46:27.000Z</time>
      </trkpt>
      <trkpt lat="23.040027" lon="109.670958">
        <ele>71.101368</ele>
        <time>2026-08-15T06:46:28.000Z</time>
      </trkpt>
      <trkpt lat="23.039988" lon="109.671005">
        <ele>71.079993</ele>
        <time>2026-08-15T06:46:29.000Z</time>
      </trkpt>
      <trkpt lat="23.039948" lon="109.671052">
        <ele>71.058370</ele>
        <time>2026-08-15T06:46:30.000Z</time>
      </trkpt>
      <trkpt lat="23.039908" lon="109.671101">
        <ele>71.036247</ele>
        <time>2026-08-15T06:46:31.000Z</time>
      </trkpt>
      <trkpt lat="23.039866" lon="109.671151">
        <ele>71.013381</ele>
        <time>2026-08-15T06:46:32.000Z</time>
      </trkpt>
      <trkpt lat="23.039826" lon="109.671200">
        <ele>70.991258</ele>
        <time>2026-08-15T06:46:33.000Z</time>
      </trkpt>
      <trkpt lat="23.039784" lon="109.671248">
        <ele>70.968887</ele>
        <time>2026-08-15T06:46:34.000Z</time>
      </trkpt>
      <trkpt lat="23.039744" lon="109.671295">
        <ele>70.947264</ele>
        <time>2026-08-15T06:46:35.000Z</time>
      </trkpt>
      <trkpt lat="23.039705" lon="109.671342">
        <ele>70.925889</ele>
        <time>2026-08-15T06:46:36.000Z</time>
      </trkpt>
      <trkpt lat="23.039666" lon="109.671391">
        <ele>70.904007</ele>
        <time>2026-08-15T06:46:37.000Z</time>
      </trkpt>
      <trkpt lat="23.039627" lon="109.671437">
        <ele>70.882882</ele>
        <time>2026-08-15T06:46:38.000Z</time>
      </trkpt>
      <trkpt lat="23.039589" lon="109.671483">
        <ele>70.862003</ele>
        <time>2026-08-15T06:46:39.000Z</time>
      </trkpt>
      <trkpt lat="23.039551" lon="109.671528">
        <ele>70.841375</ele>
        <time>2026-08-15T06:46:40.000Z</time>
      </trkpt>
      <trkpt lat="23.039513" lon="109.671574">
        <ele>70.820496</ele>
        <time>2026-08-15T06:46:41.000Z</time>
      </trkpt>
      <trkpt lat="23.039477" lon="109.671618">
        <ele>70.800610</ele>
        <time>2026-08-15T06:46:42.000Z</time>
      </trkpt>
      <trkpt lat="23.039440" lon="109.671661">
        <ele>70.780727</ele>
        <time>2026-08-15T06:46:43.000Z</time>
      </trkpt>
      <trkpt lat="23.039405" lon="109.671704">
        <ele>70.761337</ele>
        <time>2026-08-15T06:46:44.000Z</time>
      </trkpt>
      <trkpt lat="23.039370" lon="109.671747">
        <ele>70.741948</ele>
        <time>2026-08-15T06:46:45.000Z</time>
      </trkpt>
      <trkpt lat="23.039334" lon="109.671790">
        <ele>70.722313</ele>
        <time>2026-08-15T06:46:46.000Z</time>
      </trkpt>
      <trkpt lat="23.039299" lon="109.671831">
        <ele>70.703424</ele>
        <time>2026-08-15T06:46:47.000Z</time>
      </trkpt>
      <trkpt lat="23.039264" lon="109.671871">
        <ele>70.684781</ele>
        <time>2026-08-15T06:46:48.000Z</time>
      </trkpt>
      <trkpt lat="23.039229" lon="109.671911">
        <ele>70.666139</ele>
        <time>2026-08-15T06:46:49.000Z</time>
      </trkpt>
      <trkpt lat="23.039193" lon="109.671952">
        <ele>70.646998</ele>
        <time>2026-08-15T06:46:50.000Z</time>
      </trkpt>
      <trkpt lat="23.039157" lon="109.671994">
        <ele>70.627612</ele>
        <time>2026-08-15T06:46:51.000Z</time>
      </trkpt>
      <trkpt lat="23.039121" lon="109.672035">
        <ele>70.608472</ele>
        <time>2026-08-15T06:46:52.000Z</time>
      </trkpt>
      <trkpt lat="23.039086" lon="109.672076">
        <ele>70.589583</ele>
        <time>2026-08-15T06:46:53.000Z</time>
      </trkpt>
      <trkpt lat="23.039050" lon="109.672118">
        <ele>70.570197</ele>
        <time>2026-08-15T06:46:54.000Z</time>
      </trkpt>
      <trkpt lat="23.039016" lon="109.672161">
        <ele>70.551048</ele>
        <time>2026-08-15T06:46:55.000Z</time>
      </trkpt>
      <trkpt lat="23.038982" lon="109.672202">
        <ele>70.532407</ele>
        <time>2026-08-15T06:46:56.000Z</time>
      </trkpt>
      <trkpt lat="23.038947" lon="109.672244">
        <ele>70.513269</ele>
        <time>2026-08-15T06:46:57.000Z</time>
      </trkpt>
      <trkpt lat="23.038913" lon="109.672287">
        <ele>70.494121</ele>
        <time>2026-08-15T06:46:58.000Z</time>
      </trkpt>
      <trkpt lat="23.038878" lon="109.672329">
        <ele>70.477881</ele>
        <time>2026-08-15T06:46:59.000Z</time>
      </trkpt>
      <trkpt lat="23.038842" lon="109.672370">
        <ele>70.474890</ele>
        <time>2026-08-15T06:47:00.000Z</time>
      </trkpt>
      <trkpt lat="23.038806" lon="109.672413">
        <ele>70.471821</ele>
        <time>2026-08-15T06:47:01.000Z</time>
      </trkpt>
      <trkpt lat="23.038770" lon="109.672456">
        <ele>70.468752</ele>
        <time>2026-08-15T06:47:02.000Z</time>
      </trkpt>
      <trkpt lat="23.038733" lon="109.672501">
        <ele>70.465566</ele>
        <time>2026-08-15T06:47:03.000Z</time>
      </trkpt>
      <trkpt lat="23.038696" lon="109.672545">
        <ele>70.462419</ele>
        <time>2026-08-15T06:47:04.000Z</time>
      </trkpt>
      <trkpt lat="23.038659" lon="109.672590">
        <ele>70.459233</ele>
        <time>2026-08-15T06:47:05.000Z</time>
      </trkpt>
      <trkpt lat="23.038621" lon="109.672636">
        <ele>70.455970</ele>
        <time>2026-08-15T06:47:06.000Z</time>
      </trkpt>
      <trkpt lat="23.038583" lon="109.672681">
        <ele>70.452746</ele>
        <time>2026-08-15T06:47:07.000Z</time>
      </trkpt>
      <trkpt lat="23.038546" lon="109.672727">
        <ele>70.449520</ele>
        <time>2026-08-15T06:47:08.000Z</time>
      </trkpt>
      <trkpt lat="23.038508" lon="109.672773">
        <ele>70.446257</ele>
        <time>2026-08-15T06:47:09.000Z</time>
      </trkpt>
      <trkpt lat="23.038469" lon="109.672819">
        <ele>70.442955</ele>
        <time>2026-08-15T06:47:10.000Z</time>
      </trkpt>
      <trkpt lat="23.038429" lon="109.672867">
        <ele>70.439536</ele>
        <time>2026-08-15T06:47:11.000Z</time>
      </trkpt>
      <trkpt lat="23.038390" lon="109.672913">
        <ele>70.436234</ele>
        <time>2026-08-15T06:47:12.000Z</time>
      </trkpt>
      <trkpt lat="23.038352" lon="109.672960">
        <ele>70.432931</ele>
        <time>2026-08-15T06:47:13.000Z</time>
      </trkpt>
      <trkpt lat="23.038314" lon="109.673006">
        <ele>70.429668</ele>
        <time>2026-08-15T06:47:14.000Z</time>
      </trkpt>
      <trkpt lat="23.038275" lon="109.673051">
        <ele>70.426404</ele>
        <time>2026-08-15T06:47:15.000Z</time>
      </trkpt>
      <trkpt lat="23.038236" lon="109.673097">
        <ele>70.423102</ele>
        <time>2026-08-15T06:47:16.000Z</time>
      </trkpt>
      <trkpt lat="23.038197" lon="109.673143">
        <ele>70.419800</ele>
        <time>2026-08-15T06:47:17.000Z</time>
      </trkpt>
      <trkpt lat="23.038159" lon="109.673189">
        <ele>70.416537</ele>
        <time>2026-08-15T06:47:18.000Z</time>
      </trkpt>
      <trkpt lat="23.038123" lon="109.673233">
        <ele>70.413429</ele>
        <time>2026-08-15T06:47:19.000Z</time>
      </trkpt>
      <trkpt lat="23.038088" lon="109.673277">
        <ele>70.410358</ele>
        <time>2026-08-15T06:47:20.000Z</time>
      </trkpt>
      <trkpt lat="23.038053" lon="109.673321">
        <ele>70.407288</ele>
        <time>2026-08-15T06:47:21.000Z</time>
      </trkpt>
      <trkpt lat="23.038019" lon="109.673366">
        <ele>70.404214</ele>
        <time>2026-08-15T06:47:22.000Z</time>
      </trkpt>
      <trkpt lat="23.037986" lon="109.673410">
        <ele>70.401217</ele>
        <time>2026-08-15T06:47:23.000Z</time>
      </trkpt>
      <trkpt lat="23.037953" lon="109.673454">
        <ele>70.398221</ele>
        <time>2026-08-15T06:47:24.000Z</time>
      </trkpt>
      <trkpt lat="23.037920" lon="109.673497">
        <ele>70.395265</ele>
        <time>2026-08-15T06:47:25.000Z</time>
      </trkpt>
      <trkpt lat="23.037886" lon="109.673541">
        <ele>70.392232</ele>
        <time>2026-08-15T06:47:26.000Z</time>
      </trkpt>
      <trkpt lat="23.037853" lon="109.673585">
        <ele>70.389235</ele>
        <time>2026-08-15T06:47:27.000Z</time>
      </trkpt>
      <trkpt lat="23.037822" lon="109.673629">
        <ele>70.386310</ele>
        <time>2026-08-15T06:47:28.000Z</time>
      </trkpt>
      <trkpt lat="23.037789" lon="109.673674">
        <ele>70.383272</ele>
        <time>2026-08-15T06:47:29.000Z</time>
      </trkpt>
      <trkpt lat="23.037758" lon="109.673720">
        <ele>70.380262</ele>
        <time>2026-08-15T06:47:30.000Z</time>
      </trkpt>
      <trkpt lat="23.037728" lon="109.673767">
        <ele>70.377242</ele>
        <time>2026-08-15T06:47:31.000Z</time>
      </trkpt>
      <trkpt lat="23.037702" lon="109.673816">
        <ele>70.376799</ele>
        <time>2026-08-15T06:47:32.000Z</time>
      </trkpt>
      <trkpt lat="23.037674" lon="109.673868">
        <ele>70.381898</ele>
        <time>2026-08-15T06:47:33.000Z</time>
      </trkpt>
      <trkpt lat="23.037646" lon="109.673919">
        <ele>70.386923</ele>
        <time>2026-08-15T06:47:34.000Z</time>
      </trkpt>
      <trkpt lat="23.037616" lon="109.673970">
        <ele>70.392046</ele>
        <time>2026-08-15T06:47:35.000Z</time>
      </trkpt>
      <trkpt lat="23.037586" lon="109.674020">
        <ele>70.397097</ele>
        <time>2026-08-15T06:47:36.000Z</time>
      </trkpt>
      <trkpt lat="23.037555" lon="109.674071">
        <ele>70.402270</ele>
        <time>2026-08-15T06:47:37.000Z</time>
      </trkpt>
      <trkpt lat="23.037525" lon="109.674123">
        <ele>70.407463</ele>
        <time>2026-08-15T06:47:38.000Z</time>
      </trkpt>
      <trkpt lat="23.037493" lon="109.674172">
        <ele>70.412548</ele>
        <time>2026-08-15T06:47:39.000Z</time>
      </trkpt>
      <trkpt lat="23.037461" lon="109.674220">
        <ele>70.417564</ele>
        <time>2026-08-15T06:47:40.000Z</time>
      </trkpt>
      <trkpt lat="23.037431" lon="109.674268">
        <ele>70.422475</ele>
        <time>2026-08-15T06:47:41.000Z</time>
      </trkpt>
      <trkpt lat="23.037398" lon="109.674316">
        <ele>70.427545</ele>
        <time>2026-08-15T06:47:42.000Z</time>
      </trkpt>
      <trkpt lat="23.037367" lon="109.674366">
        <ele>70.432647</ele>
        <time>2026-08-15T06:47:43.000Z</time>
      </trkpt>
      <trkpt lat="23.037337" lon="109.674416">
        <ele>70.437699</ele>
        <time>2026-08-15T06:47:44.000Z</time>
      </trkpt>
      <trkpt lat="23.037308" lon="109.674468">
        <ele>70.442844</ele>
        <time>2026-08-15T06:47:45.000Z</time>
      </trkpt>
      <trkpt lat="23.037281" lon="109.674520">
        <ele>70.447897</ele>
        <time>2026-08-15T06:47:46.000Z</time>
      </trkpt>
      <trkpt lat="23.037254" lon="109.674571">
        <ele>70.452876</ele>
        <time>2026-08-15T06:47:47.000Z</time>
      </trkpt>
      <trkpt lat="23.037226" lon="109.674622">
        <ele>70.457902</ele>
        <time>2026-08-15T06:47:48.000Z</time>
      </trkpt>
      <trkpt lat="23.037198" lon="109.674672">
        <ele>70.462855</ele>
        <time>2026-08-15T06:47:49.000Z</time>
      </trkpt>
      <trkpt lat="23.037169" lon="109.674723">
        <ele>70.467929</ele>
        <time>2026-08-15T06:47:50.000Z</time>
      </trkpt>
      <trkpt lat="23.037140" lon="109.674774">
        <ele>70.473002</ele>
        <time>2026-08-15T06:47:51.000Z</time>
      </trkpt>
      <trkpt lat="23.037114" lon="109.674824">
        <ele>70.477862</ele>
        <time>2026-08-15T06:47:52.000Z</time>
      </trkpt>
      <trkpt lat="23.037089" lon="109.674876">
        <ele>70.482827</ele>
        <time>2026-08-15T06:47:53.000Z</time>
      </trkpt>
      <trkpt lat="23.037062" lon="109.674927">
        <ele>70.487806</ele>
        <time>2026-08-15T06:47:54.000Z</time>
      </trkpt>
      <trkpt lat="23.037035" lon="109.674977">
        <ele>70.492712</ele>
        <time>2026-08-15T06:47:55.000Z</time>
      </trkpt>
      <trkpt lat="23.037007" lon="109.675027">
        <ele>70.497666</ele>
        <time>2026-08-15T06:47:56.000Z</time>
      </trkpt>
      <trkpt lat="23.036979" lon="109.675079">
        <ele>70.502764</ele>
        <time>2026-08-15T06:47:57.000Z</time>
      </trkpt>
      <trkpt lat="23.036954" lon="109.675130">
        <ele>70.507654</ele>
        <time>2026-08-15T06:47:58.000Z</time>
      </trkpt>
      <trkpt lat="23.036927" lon="109.675181">
        <ele>70.512634</ele>
        <time>2026-08-15T06:47:59.000Z</time>
      </trkpt>
      <trkpt lat="23.036898" lon="109.675231">
        <ele>70.517635</ele>
        <time>2026-08-15T06:48:00.000Z</time>
      </trkpt>
      <trkpt lat="23.036869" lon="109.675280">
        <ele>70.522566</ele>
        <time>2026-08-15T06:48:01.000Z</time>
      </trkpt>
      <trkpt lat="23.036841" lon="109.675328">
        <ele>70.527375</ele>
        <time>2026-08-15T06:48:02.000Z</time>
      </trkpt>
      <trkpt lat="23.036814" lon="109.675376">
        <ele>70.532136</ele>
        <time>2026-08-15T06:48:03.000Z</time>
      </trkpt>
      <trkpt lat="23.036789" lon="109.675425">
        <ele>70.536877</ele>
        <time>2026-08-15T06:48:04.000Z</time>
      </trkpt>
      <trkpt lat="23.036764" lon="109.675472">
        <ele>70.548660</ele>
        <time>2026-08-15T06:48:05.000Z</time>
      </trkpt>
      <trkpt lat="23.036736" lon="109.675519">
        <ele>70.594263</ele>
        <time>2026-08-15T06:48:06.000Z</time>
      </trkpt>
      <trkpt lat="23.036710" lon="109.675566">
        <ele>70.638928</ele>
        <time>2026-08-15T06:48:07.000Z</time>
      </trkpt>
      <trkpt lat="23.036685" lon="109.675613">
        <ele>70.683144</ele>
        <time>2026-08-15T06:48:08.000Z</time>
      </trkpt>
      <trkpt lat="23.036661" lon="109.675659">
        <ele>70.726214</ele>
        <time>2026-08-15T06:48:09.000Z</time>
      </trkpt>
      <trkpt lat="23.036637" lon="109.675704">
        <ele>70.768576</ele>
        <time>2026-08-15T06:48:10.000Z</time>
      </trkpt>
      <trkpt lat="23.036613" lon="109.675748">
        <ele>70.810236</ele>
        <time>2026-08-15T06:48:11.000Z</time>
      </trkpt>
      <trkpt lat="23.036589" lon="109.675793">
        <ele>70.852599</ele>
        <time>2026-08-15T06:48:12.000Z</time>
      </trkpt>
      <trkpt lat="23.036565" lon="109.675838">
        <ele>70.894962</ele>
        <time>2026-08-15T06:48:13.000Z</time>
      </trkpt>
      <trkpt lat="23.036541" lon="109.675881">
        <ele>70.935924</ele>
        <time>2026-08-15T06:48:14.000Z</time>
      </trkpt>
      <trkpt lat="23.036515" lon="109.675925">
        <ele>70.978513</ele>
        <time>2026-08-15T06:48:15.000Z</time>
      </trkpt>
      <trkpt lat="23.036490" lon="109.675970">
        <ele>71.021327</ele>
        <time>2026-08-15T06:48:16.000Z</time>
      </trkpt>
      <trkpt lat="23.036468" lon="109.676013">
        <ele>71.061399</ele>
        <time>2026-08-15T06:48:17.000Z</time>
      </trkpt>
      <trkpt lat="23.036447" lon="109.676055">
        <ele>71.100331</ele>
        <time>2026-08-15T06:48:18.000Z</time>
      </trkpt>
      <trkpt lat="23.036424" lon="109.676097">
        <ele>71.140139</ele>
        <time>2026-08-15T06:48:19.000Z</time>
      </trkpt>
      <trkpt lat="23.036401" lon="109.676139">
        <ele>71.179946</ele>
        <time>2026-08-15T06:48:20.000Z</time>
      </trkpt>
      <trkpt lat="23.036380" lon="109.676180">
        <ele>71.218165</ele>
        <time>2026-08-15T06:48:21.000Z</time>
      </trkpt>
      <trkpt lat="23.036357" lon="109.676222">
        <ele>71.257972</ele>
        <time>2026-08-15T06:48:22.000Z</time>
      </trkpt>
      <trkpt lat="23.036336" lon="109.676263">
        <ele>71.296191</ele>
        <time>2026-08-15T06:48:23.000Z</time>
      </trkpt>
      <trkpt lat="23.036314" lon="109.676304">
        <ele>71.334847</ele>
        <time>2026-08-15T06:48:24.000Z</time>
      </trkpt>
      <trkpt lat="23.036291" lon="109.676343">
        <ele>71.372576</ele>
        <time>2026-08-15T06:48:25.000Z</time>
      </trkpt>
      <trkpt lat="23.036269" lon="109.676383">
        <ele>71.410531</ele>
        <time>2026-08-15T06:48:26.000Z</time>
      </trkpt>
      <trkpt lat="23.036248" lon="109.676420">
        <ele>71.445938</ele>
        <time>2026-08-15T06:48:27.000Z</time>
      </trkpt>
      <trkpt lat="23.036227" lon="109.676457">
        <ele>71.481345</ele>
        <time>2026-08-15T06:48:28.000Z</time>
      </trkpt>
      <trkpt lat="23.036206" lon="109.676496">
        <ele>71.518149</ele>
        <time>2026-08-15T06:48:29.000Z</time>
      </trkpt>
      <trkpt lat="23.036185" lon="109.676535">
        <ele>71.554952</ele>
        <time>2026-08-15T06:48:30.000Z</time>
      </trkpt>
      <trkpt lat="23.036167" lon="109.676575">
        <ele>71.591219</ele>
        <time>2026-08-15T06:48:31.000Z</time>
      </trkpt>
      <trkpt lat="23.036147" lon="109.676615">
        <ele>71.628297</ele>
        <time>2026-08-15T06:48:32.000Z</time>
      </trkpt>
      <trkpt lat="23.036128" lon="109.676654">
        <ele>71.664239</ele>
        <time>2026-08-15T06:48:33.000Z</time>
      </trkpt>
      <trkpt lat="23.036108" lon="109.676694">
        <ele>71.701318</ele>
        <time>2026-08-15T06:48:34.000Z</time>
      </trkpt>
      <trkpt lat="23.036088" lon="109.676733">
        <ele>71.737682</ele>
        <time>2026-08-15T06:48:35.000Z</time>
      </trkpt>
      <trkpt lat="23.036067" lon="109.676773">
        <ele>71.775191</ele>
        <time>2026-08-15T06:48:36.000Z</time>
      </trkpt>
      <trkpt lat="23.036047" lon="109.676812">
        <ele>71.811556</ele>
        <time>2026-08-15T06:48:37.000Z</time>
      </trkpt>
      <trkpt lat="23.036026" lon="109.676853">
        <ele>71.849774</ele>
        <time>2026-08-15T06:48:38.000Z</time>
      </trkpt>
      <trkpt lat="23.036006" lon="109.676895">
        <ele>71.888292</ele>
        <time>2026-08-15T06:48:39.000Z</time>
      </trkpt>
      <trkpt lat="23.035985" lon="109.676937">
        <ele>71.927224</ele>
        <time>2026-08-15T06:48:40.000Z</time>
      </trkpt>
      <trkpt lat="23.035962" lon="109.676978">
        <ele>71.966334</ele>
        <time>2026-08-15T06:48:41.000Z</time>
      </trkpt>
      <trkpt lat="23.035938" lon="109.677021">
        <ele>72.007296</ele>
        <time>2026-08-15T06:48:42.000Z</time>
      </trkpt>
      <trkpt lat="23.035916" lon="109.677065">
        <ele>72.048082</ele>
        <time>2026-08-15T06:48:43.000Z</time>
      </trkpt>
      <trkpt lat="23.035893" lon="109.677108">
        <ele>72.088591</ele>
        <time>2026-08-15T06:48:44.000Z</time>
      </trkpt>
      <trkpt lat="23.035871" lon="109.677152">
        <ele>72.129378</ele>
        <time>2026-08-15T06:48:45.000Z</time>
      </trkpt>
      <trkpt lat="23.035848" lon="109.677194">
        <ele>72.155139</ele>
        <time>2026-08-15T06:48:46.000Z</time>
      </trkpt>
      <trkpt lat="23.035825" lon="109.677237">
        <ele>72.180106</ele>
        <time>2026-08-15T06:48:47.000Z</time>
      </trkpt>
      <trkpt lat="23.035802" lon="109.677282">
        <ele>72.205947</ele>
        <time>2026-08-15T06:48:48.000Z</time>
      </trkpt>
      <trkpt lat="23.035781" lon="109.677325">
        <ele>72.230384</ele>
        <time>2026-08-15T06:48:49.000Z</time>
      </trkpt>
      <trkpt lat="23.035758" lon="109.677369">
        <ele>72.255787</ele>
        <time>2026-08-15T06:48:50.000Z</time>
      </trkpt>
      <trkpt lat="23.035736" lon="109.677412">
        <ele>72.280485</ele>
        <time>2026-08-15T06:48:51.000Z</time>
      </trkpt>
      <trkpt lat="23.035713" lon="109.677454">
        <ele>72.305020</ele>
        <time>2026-08-15T06:48:52.000Z</time>
      </trkpt>
      <trkpt lat="23.035690" lon="109.677497">
        <ele>72.329988</ele>
        <time>2026-08-15T06:48:53.000Z</time>
      </trkpt>
      <trkpt lat="23.035668" lon="109.677540">
        <ele>72.354686</ele>
        <time>2026-08-15T06:48:54.000Z</time>
      </trkpt>
      <trkpt lat="23.035646" lon="109.677582">
        <ele>72.378946</ele>
        <time>2026-08-15T06:48:55.000Z</time>
      </trkpt>
      <trkpt lat="23.035624" lon="109.677623">
        <ele>72.402772</ele>
        <time>2026-08-15T06:48:56.000Z</time>
      </trkpt>
      <trkpt lat="23.035602" lon="109.677663">
        <ele>72.426165</ele>
        <time>2026-08-15T06:48:57.000Z</time>
      </trkpt>
      <trkpt lat="23.035582" lon="109.677702">
        <ele>72.448578</ele>
        <time>2026-08-15T06:48:58.000Z</time>
      </trkpt>
      <trkpt lat="23.035562" lon="109.677741">
        <ele>72.470991</ele>
        <time>2026-08-15T06:48:59.000Z</time>
      </trkpt>
      <trkpt lat="23.035541" lon="109.677778">
        <ele>72.492813</ele>
        <time>2026-08-15T06:49:00.000Z</time>
      </trkpt>
      <trkpt lat="23.035520" lon="109.677816">
        <ele>72.515065</ele>
        <time>2026-08-15T06:49:01.000Z</time>
      </trkpt>
      <trkpt lat="23.035501" lon="109.677854">
        <ele>72.536775</ele>
        <time>2026-08-15T06:49:02.000Z</time>
      </trkpt>
      <trkpt lat="23.035482" lon="109.677893">
        <ele>72.558927</ele>
        <time>2026-08-15T06:49:03.000Z</time>
      </trkpt>
      <trkpt lat="23.035462" lon="109.677932">
        <ele>72.581340</ele>
        <time>2026-08-15T06:49:04.000Z</time>
      </trkpt>
      <trkpt lat="23.035442" lon="109.677971">
        <ele>72.603753</ele>
        <time>2026-08-15T06:49:05.000Z</time>
      </trkpt>
      <trkpt lat="23.035424" lon="109.678010">
        <ele>72.625656</ele>
        <time>2026-08-15T06:49:06.000Z</time>
      </trkpt>
      <trkpt lat="23.035406" lon="109.678047">
        <ele>72.646665</ele>
        <time>2026-08-15T06:49:07.000Z</time>
      </trkpt>
      <trkpt lat="23.035387" lon="109.678083">
        <ele>72.667499</ele>
        <time>2026-08-15T06:49:08.000Z</time>
      </trkpt>
      <trkpt lat="23.035367" lon="109.678120">
        <ele>72.689040</ele>
        <time>2026-08-15T06:49:09.000Z</time>
      </trkpt>
      <trkpt lat="23.035348" lon="109.678158">
        <ele>72.710750</ele>
        <time>2026-08-15T06:49:10.000Z</time>
      </trkpt>
      <trkpt lat="23.035328" lon="109.678196">
        <ele>72.732726</ele>
        <time>2026-08-15T06:49:11.000Z</time>
      </trkpt>
      <trkpt lat="23.035307" lon="109.678232">
        <ele>72.754123</ele>
        <time>2026-08-15T06:49:12.000Z</time>
      </trkpt>
      <trkpt lat="23.035286" lon="109.678269">
        <ele>72.775946</ele>
        <time>2026-08-15T06:49:13.000Z</time>
      </trkpt>
      <trkpt lat="23.035265" lon="109.678306">
        <ele>72.797769</ele>
        <time>2026-08-15T06:49:14.000Z</time>
      </trkpt>
      <trkpt lat="23.035242" lon="109.678345">
        <ele>72.821022</ele>
        <time>2026-08-15T06:49:15.000Z</time>
      </trkpt>
      <trkpt lat="23.035218" lon="109.678383">
        <ele>72.844159</ele>
        <time>2026-08-15T06:49:16.000Z</time>
      </trkpt>
      <trkpt lat="23.035197" lon="109.678423">
        <ele>72.867277</ele>
        <time>2026-08-15T06:49:17.000Z</time>
      </trkpt>
      <trkpt lat="23.035175" lon="109.678462">
        <ele>72.890241</ele>
        <time>2026-08-15T06:49:18.000Z</time>
      </trkpt>
      <trkpt lat="23.035154" lon="109.678503">
        <ele>72.913796</ele>
        <time>2026-08-15T06:49:19.000Z</time>
      </trkpt>
      <trkpt lat="23.035131" lon="109.678544">
        <ele>72.937901</ele>
        <time>2026-08-15T06:49:20.000Z</time>
      </trkpt>
      <trkpt lat="23.035108" lon="109.678588">
        <ele>72.963304</ele>
        <time>2026-08-15T06:49:21.000Z</time>
      </trkpt>
      <trkpt lat="23.035085" lon="109.678631">
        <ele>72.988272</ele>
        <time>2026-08-15T06:49:22.000Z</time>
      </trkpt>
      <trkpt lat="23.035061" lon="109.678675">
        <ele>73.013948</ele>
        <time>2026-08-15T06:49:23.000Z</time>
      </trkpt>
      <trkpt lat="23.035038" lon="109.678719">
        <ele>73.039351</ele>
        <time>2026-08-15T06:49:24.000Z</time>
      </trkpt>
      <trkpt lat="23.035012" lon="109.678763">
        <ele>73.065601</ele>
        <time>2026-08-15T06:49:25.000Z</time>
      </trkpt>
      <trkpt lat="23.034987" lon="109.678807">
        <ele>73.091560</ele>
        <time>2026-08-15T06:49:26.000Z</time>
      </trkpt>
      <trkpt lat="23.034962" lon="109.678851">
        <ele>73.111110</ele>
        <time>2026-08-15T06:49:27.000Z</time>
      </trkpt>
      <trkpt lat="23.034937" lon="109.678897">
        <ele>73.092466</ele>
        <time>2026-08-15T06:49:28.000Z</time>
      </trkpt>
      <trkpt lat="23.034911" lon="109.678942">
        <ele>73.073923</ele>
        <time>2026-08-15T06:49:29.000Z</time>
      </trkpt>
      <trkpt lat="23.034886" lon="109.678988">
        <ele>73.055278</ele>
        <time>2026-08-15T06:49:30.000Z</time>
      </trkpt>
      <trkpt lat="23.034860" lon="109.679037">
        <ele>73.035538</ele>
        <time>2026-08-15T06:49:31.000Z</time>
      </trkpt>
      <trkpt lat="23.034834" lon="109.679086">
        <ele>73.015799</ele>
        <time>2026-08-15T06:49:32.000Z</time>
      </trkpt>
      <trkpt lat="23.034807" lon="109.679136">
        <ele>72.995566</ele>
        <time>2026-08-15T06:49:33.000Z</time>
      </trkpt>
      <trkpt lat="23.034779" lon="109.679186">
        <ele>72.975140</ele>
        <time>2026-08-15T06:49:34.000Z</time>
      </trkpt>
      <trkpt lat="23.034751" lon="109.679236">
        <ele>72.954713</ele>
        <time>2026-08-15T06:49:35.000Z</time>
      </trkpt>
      <trkpt lat="23.034724" lon="109.679287">
        <ele>72.934179</ele>
        <time>2026-08-15T06:49:36.000Z</time>
      </trkpt>
      <trkpt lat="23.034695" lon="109.679338">
        <ele>72.913257</ele>
        <time>2026-08-15T06:49:37.000Z</time>
      </trkpt>
      <trkpt lat="23.034666" lon="109.679389">
        <ele>72.892334</ele>
        <time>2026-08-15T06:49:38.000Z</time>
      </trkpt>
      <trkpt lat="23.034637" lon="109.679443">
        <ele>72.870514</ele>
        <time>2026-08-15T06:49:39.000Z</time>
      </trkpt>
      <trkpt lat="23.034607" lon="109.679497">
        <ele>72.848500</ele>
        <time>2026-08-15T06:49:40.000Z</time>
      </trkpt>
      <trkpt lat="23.034576" lon="109.679552">
        <ele>72.825991</ele>
        <time>2026-08-15T06:49:41.000Z</time>
      </trkpt>
      <trkpt lat="23.034545" lon="109.679608">
        <ele>72.803184</ele>
        <time>2026-08-15T06:49:42.000Z</time>
      </trkpt>
      <trkpt lat="23.034515" lon="109.679662">
        <ele>72.781170</ele>
        <time>2026-08-15T06:49:43.000Z</time>
      </trkpt>
      <trkpt lat="23.034483" lon="109.679715">
        <ele>72.759048</ele>
        <time>2026-08-15T06:49:44.000Z</time>
      </trkpt>
      <trkpt lat="23.034453" lon="109.679768">
        <ele>72.737332</ele>
        <time>2026-08-15T06:49:45.000Z</time>
      </trkpt>
      <trkpt lat="23.034422" lon="109.679821">
        <ele>72.715416</ele>
        <time>2026-08-15T06:49:46.000Z</time>
      </trkpt>
      <trkpt lat="23.034393" lon="109.679874">
        <ele>72.693896</ele>
        <time>2026-08-15T06:49:47.000Z</time>
      </trkpt>
      <trkpt lat="23.034364" lon="109.679928">
        <ele>72.672076</ele>
        <time>2026-08-15T06:49:48.000Z</time>
      </trkpt>
      <trkpt lat="23.034332" lon="109.679981">
        <ele>72.649954</ele>
        <time>2026-08-15T06:49:49.000Z</time>
      </trkpt>
      <trkpt lat="23.034299" lon="109.680034">
        <ele>72.627621</ele>
        <time>2026-08-15T06:49:50.000Z</time>
      </trkpt>
      <trkpt lat="23.034263" lon="109.680084">
        <ele>72.605465</ele>
        <time>2026-08-15T06:49:51.000Z</time>
      </trkpt>
      <trkpt lat="23.034228" lon="109.680135">
        <ele>72.583262</ele>
        <time>2026-08-15T06:49:52.000Z</time>
      </trkpt>
      <trkpt lat="23.034195" lon="109.680188">
        <ele>72.560929</ele>
        <time>2026-08-15T06:49:53.000Z</time>
      </trkpt>
      <trkpt lat="23.034163" lon="109.680240">
        <ele>72.539097</ele>
        <time>2026-08-15T06:49:54.000Z</time>
      </trkpt>
      <trkpt lat="23.034133" lon="109.680292">
        <ele>72.517678</ele>
        <time>2026-08-15T06:49:55.000Z</time>
      </trkpt>
      <trkpt lat="23.034102" lon="109.680344">
        <ele>72.496055</ele>
        <time>2026-08-15T06:49:56.000Z</time>
      </trkpt>
      <trkpt lat="23.034069" lon="109.680394">
        <ele>72.474581</ele>
        <time>2026-08-15T06:49:57.000Z</time>
      </trkpt>
      <trkpt lat="23.034036" lon="109.680443">
        <ele>72.453390</ele>
        <time>2026-08-15T06:49:58.000Z</time>
      </trkpt>
      <trkpt lat="23.034004" lon="109.680494">
        <ele>72.431848</ele>
        <time>2026-08-15T06:49:59.000Z</time>
      </trkpt>
      <trkpt lat="23.033974" lon="109.680545">
        <ele>72.399037</ele>
        <time>2026-08-15T06:50:00.000Z</time>
      </trkpt>
      <trkpt lat="23.033942" lon="109.680596">
        <ele>72.365454</ele>
        <time>2026-08-15T06:50:01.000Z</time>
      </trkpt>
      <trkpt lat="23.033911" lon="109.680647">
        <ele>72.332200</ele>
        <time>2026-08-15T06:50:02.000Z</time>
      </trkpt>
      <trkpt lat="23.033879" lon="109.680695">
        <ele>72.299953</ele>
        <time>2026-08-15T06:50:03.000Z</time>
      </trkpt>
      <trkpt lat="23.033849" lon="109.680744">
        <ele>72.267932</ele>
        <time>2026-08-15T06:50:04.000Z</time>
      </trkpt>
      <trkpt lat="23.033818" lon="109.680793">
        <ele>72.235581</ele>
        <time>2026-08-15T06:50:05.000Z</time>
      </trkpt>
      <trkpt lat="23.033788" lon="109.680843">
        <ele>72.203107</ele>
        <time>2026-08-15T06:50:06.000Z</time>
      </trkpt>
      <trkpt lat="23.033756" lon="109.680893">
        <ele>72.169972</ele>
        <time>2026-08-15T06:50:07.000Z</time>
      </trkpt>
      <trkpt lat="23.033724" lon="109.680943">
        <ele>72.136837</ele>
        <time>2026-08-15T06:50:08.000Z</time>
      </trkpt>
      <trkpt lat="23.033691" lon="109.680993">
        <ele>72.103360</ele>
        <time>2026-08-15T06:50:09.000Z</time>
      </trkpt>
      <trkpt lat="23.033660" lon="109.681044">
        <ele>72.070107</ele>
        <time>2026-08-15T06:50:10.000Z</time>
      </trkpt>
      <trkpt lat="23.033628" lon="109.681098">
        <ele>72.035163</ele>
        <time>2026-08-15T06:50:11.000Z</time>
      </trkpt>
      <trkpt lat="23.033595" lon="109.681151">
        <ele>72.000347</ele>
        <time>2026-08-15T06:50:12.000Z</time>
      </trkpt>
      <trkpt lat="23.033563" lon="109.681205">
        <ele>71.965404</ele>
        <time>2026-08-15T06:50:13.000Z</time>
      </trkpt>
      <trkpt lat="23.033531" lon="109.681260">
        <ele>71.930001</ele>
        <time>2026-08-15T06:50:14.000Z</time>
      </trkpt>
      <trkpt lat="23.033499" lon="109.681315">
        <ele>71.894598</ele>
        <time>2026-08-15T06:50:15.000Z</time>
      </trkpt>
      <trkpt lat="23.033465" lon="109.681369">
        <ele>71.859001</ele>
        <time>2026-08-15T06:50:16.000Z</time>
      </trkpt>
      <trkpt lat="23.033433" lon="109.681424">
        <ele>71.823598</ele>
        <time>2026-08-15T06:50:17.000Z</time>
      </trkpt>
      <trkpt lat="23.033400" lon="109.681477">
        <ele>71.788782</ele>
        <time>2026-08-15T06:50:18.000Z</time>
      </trkpt>
      <trkpt lat="23.033367" lon="109.681530">
        <ele>71.753967</ele>
        <time>2026-08-15T06:50:19.000Z</time>
      </trkpt>
      <trkpt lat="23.033334" lon="109.681583">
        <ele>71.719151</ele>
        <time>2026-08-15T06:50:20.000Z</time>
      </trkpt>
      <trkpt lat="23.033300" lon="109.681634">
        <ele>71.684888</ele>
        <time>2026-08-15T06:50:21.000Z</time>
      </trkpt>
      <trkpt lat="23.033266" lon="109.681686">
        <ele>71.650183</ele>
        <time>2026-08-15T06:50:22.000Z</time>
      </trkpt>
      <trkpt lat="23.033234" lon="109.681740">
        <ele>71.615239</ele>
        <time>2026-08-15T06:50:23.000Z</time>
      </trkpt>
      <trkpt lat="23.033201" lon="109.681793">
        <ele>71.580423</ele>
        <time>2026-08-15T06:50:24.000Z</time>
      </trkpt>
      <trkpt lat="23.033167" lon="109.681846">
        <ele>71.545273</ele>
        <time>2026-08-15T06:50:25.000Z</time>
      </trkpt>
      <trkpt lat="23.033135" lon="109.681900">
        <ele>71.510329</ele>
        <time>2026-08-15T06:50:26.000Z</time>
      </trkpt>
      <trkpt lat="23.033102" lon="109.681954">
        <ele>71.475061</ele>
        <time>2026-08-15T06:50:27.000Z</time>
      </trkpt>
      <trkpt lat="23.033069" lon="109.682007">
        <ele>71.440246</ele>
        <time>2026-08-15T06:50:28.000Z</time>
      </trkpt>
      <trkpt lat="23.033037" lon="109.682060">
        <ele>71.405758</ele>
        <time>2026-08-15T06:50:29.000Z</time>
      </trkpt>
      <trkpt lat="23.033005" lon="109.682112">
        <ele>71.371724</ele>
        <time>2026-08-15T06:50:30.000Z</time>
      </trkpt>
      <trkpt lat="23.032971" lon="109.682166">
        <ele>71.343813</ele>
        <time>2026-08-15T06:50:31.000Z</time>
      </trkpt>
      <trkpt lat="23.032936" lon="109.682219">
        <ele>71.316810</ele>
        <time>2026-08-15T06:50:32.000Z</time>
      </trkpt>
      <trkpt lat="23.032902" lon="109.682272">
        <ele>71.290065</ele>
        <time>2026-08-15T06:50:33.000Z</time>
      </trkpt>
      <trkpt lat="23.032867" lon="109.682325">
        <ele>71.263061</ele>
        <time>2026-08-15T06:50:34.000Z</time>
      </trkpt>
      <trkpt lat="23.032832" lon="109.682378">
        <ele>71.236057</ele>
        <time>2026-08-15T06:50:35.000Z</time>
      </trkpt>
      <trkpt lat="23.032798" lon="109.682432">
        <ele>71.208973</ele>
        <time>2026-08-15T06:50:36.000Z</time>
      </trkpt>
      <trkpt lat="23.032764" lon="109.682486">
        <ele>71.181888</ele>
        <time>2026-08-15T06:50:37.000Z</time>
      </trkpt>
      <trkpt lat="23.032730" lon="109.682540">
        <ele>71.154803</ele>
        <time>2026-08-15T06:50:38.000Z</time>
      </trkpt>
      <trkpt lat="23.032695" lon="109.682596">
        <ele>71.126781</ele>
        <time>2026-08-15T06:50:39.000Z</time>
      </trkpt>
      <trkpt lat="23.032662" lon="109.682651">
        <ele>71.099601</ele>
        <time>2026-08-15T06:50:40.000Z</time>
      </trkpt>
      <trkpt lat="23.032628" lon="109.682706">
        <ele>71.072174</ele>
        <time>2026-08-15T06:50:41.000Z</time>
      </trkpt>
      <trkpt lat="23.032593" lon="109.682760">
        <ele>71.044833</ele>
        <time>2026-08-15T06:50:42.000Z</time>
      </trkpt>
      <trkpt lat="23.032559" lon="109.682816">
        <ele>71.017060</ele>
        <time>2026-08-15T06:50:43.000Z</time>
      </trkpt>
      <trkpt lat="23.032525" lon="109.682871">
        <ele>70.989633</ele>
        <time>2026-08-15T06:50:44.000Z</time>
      </trkpt>
      <trkpt lat="23.032491" lon="109.682925">
        <ele>70.962548</ele>
        <time>2026-08-15T06:50:45.000Z</time>
      </trkpt>
      <trkpt lat="23.032458" lon="109.682978">
        <ele>70.936058</ele>
        <time>2026-08-15T06:50:46.000Z</time>
      </trkpt>
      <trkpt lat="23.032425" lon="109.683031">
        <ele>70.909569</ele>
        <time>2026-08-15T06:50:47.000Z</time>
      </trkpt>
      <trkpt lat="23.032391" lon="109.683084">
        <ele>70.882825</ele>
        <time>2026-08-15T06:50:48.000Z</time>
      </trkpt>
      <trkpt lat="23.032356" lon="109.683137">
        <ele>70.855821</ele>
        <time>2026-08-15T06:50:49.000Z</time>
      </trkpt>
      <trkpt lat="23.032321" lon="109.683190">
        <ele>70.828817</ele>
        <time>2026-08-15T06:50:50.000Z</time>
      </trkpt>
      <trkpt lat="23.032287" lon="109.683245">
        <ele>70.801389</ele>
        <time>2026-08-15T06:50:51.000Z</time>
      </trkpt>
      <trkpt lat="23.032252" lon="109.683300">
        <ele>70.773708</ele>
        <time>2026-08-15T06:50:52.000Z</time>
      </trkpt>
      <trkpt lat="23.032219" lon="109.683354">
        <ele>70.746875</ele>
        <time>2026-08-15T06:50:53.000Z</time>
      </trkpt>
      <trkpt lat="23.032186" lon="109.683409">
        <ele>70.719695</ele>
        <time>2026-08-15T06:50:54.000Z</time>
      </trkpt>
      <trkpt lat="23.032152" lon="109.683463">
        <ele>70.692610</ele>
        <time>2026-08-15T06:50:55.000Z</time>
      </trkpt>
      <trkpt lat="23.032118" lon="109.683516">
        <ele>70.665866</ele>
        <time>2026-08-15T06:50:56.000Z</time>
      </trkpt>
      <trkpt lat="23.032082" lon="109.683569">
        <ele>70.638597</ele>
        <time>2026-08-15T06:50:57.000Z</time>
      </trkpt>
      <trkpt lat="23.032049" lon="109.683622">
        <ele>70.612108</ele>
        <time>2026-08-15T06:50:58.000Z</time>
      </trkpt>
      <trkpt lat="23.032016" lon="109.683675">
        <ele>70.585618</ele>
        <time>2026-08-15T06:50:59.000Z</time>
      </trkpt>
      <trkpt lat="23.031983" lon="109.683727">
        <ele>70.559470</ele>
        <time>2026-08-15T06:51:00.000Z</time>
      </trkpt>
      <trkpt lat="23.031950" lon="109.683779">
        <ele>70.574537</ele>
        <time>2026-08-15T06:51:01.000Z</time>
      </trkpt>
      <trkpt lat="23.031918" lon="109.683830">
        <ele>70.589663</ele>
        <time>2026-08-15T06:51:02.000Z</time>
      </trkpt>
      <trkpt lat="23.031887" lon="109.683883">
        <ele>70.605051</ele>
        <time>2026-08-15T06:51:03.000Z</time>
      </trkpt>
      <trkpt lat="23.031856" lon="109.683935">
        <ele>70.620233</ele>
        <time>2026-08-15T06:51:04.000Z</time>
      </trkpt>
      <trkpt lat="23.031825" lon="109.683985">
        <ele>70.635007</ele>
        <time>2026-08-15T06:51:05.000Z</time>
      </trkpt>
      <trkpt lat="23.031795" lon="109.684037">
        <ele>70.650046</ele>
        <time>2026-08-15T06:51:06.000Z</time>
      </trkpt>
      <trkpt lat="23.031764" lon="109.684090">
        <ele>70.665434</ele>
        <time>2026-08-15T06:51:07.000Z</time>
      </trkpt>
      <trkpt lat="23.031731" lon="109.684142">
        <ele>70.680913</ele>
        <time>2026-08-15T06:51:08.000Z</time>
      </trkpt>
      <trkpt lat="23.031696" lon="109.684193">
        <ele>70.696502</ele>
        <time>2026-08-15T06:51:09.000Z</time>
      </trkpt>
      <trkpt lat="23.031664" lon="109.684246">
        <ele>70.712035</ele>
        <time>2026-08-15T06:51:10.000Z</time>
      </trkpt>
      <trkpt lat="23.031633" lon="109.684298">
        <ele>70.727217</ele>
        <time>2026-08-15T06:51:11.000Z</time>
      </trkpt>
      <trkpt lat="23.031600" lon="109.684348">
        <ele>70.742295</ele>
        <time>2026-08-15T06:51:12.000Z</time>
      </trkpt>
      <trkpt lat="23.031568" lon="109.684399">
        <ele>70.757420</ele>
        <time>2026-08-15T06:51:13.000Z</time>
      </trkpt>
      <trkpt lat="23.031536" lon="109.684450">
        <ele>70.772546</ele>
        <time>2026-08-15T06:51:14.000Z</time>
      </trkpt>
      <trkpt lat="23.031505" lon="109.684501">
        <ele>70.787523</ele>
        <time>2026-08-15T06:51:15.000Z</time>
      </trkpt>
      <trkpt lat="23.031473" lon="109.684551">
        <ele>70.802447</ele>
        <time>2026-08-15T06:51:16.000Z</time>
      </trkpt>
      <trkpt lat="23.031442" lon="109.684600">
        <ele>70.817017</ele>
        <time>2026-08-15T06:51:17.000Z</time>
      </trkpt>
      <trkpt lat="23.031412" lon="109.684650">
        <ele>70.831644</ele>
        <time>2026-08-15T06:51:18.000Z</time>
      </trkpt>
      <trkpt lat="23.031383" lon="109.684701">
        <ele>70.846334</ele>
        <time>2026-08-15T06:51:19.000Z</time>
      </trkpt>
      <trkpt lat="23.031354" lon="109.684752">
        <ele>70.861025</ele>
        <time>2026-08-15T06:51:20.000Z</time>
      </trkpt>
      <trkpt lat="23.031324" lon="109.684804">
        <ele>70.876064</ele>
        <time>2026-08-15T06:51:21.000Z</time>
      </trkpt>
      <trkpt lat="23.031293" lon="109.684855">
        <ele>70.891041</ele>
        <time>2026-08-15T06:51:22.000Z</time>
      </trkpt>
      <trkpt lat="23.031264" lon="109.684906">
        <ele>70.905731</ele>
        <time>2026-08-15T06:51:23.000Z</time>
      </trkpt>
      <trkpt lat="23.031236" lon="109.684955">
        <ele>70.919865</ele>
        <time>2026-08-15T06:51:24.000Z</time>
      </trkpt>
      <trkpt lat="23.031206" lon="109.685005">
        <ele>70.934491</ele>
        <time>2026-08-15T06:51:25.000Z</time>
      </trkpt>
      <trkpt lat="23.031175" lon="109.685055">
        <ele>70.949265</ele>
        <time>2026-08-15T06:51:26.000Z</time>
      </trkpt>
      <trkpt lat="23.031144" lon="109.685105">
        <ele>70.964038</ele>
        <time>2026-08-15T06:51:27.000Z</time>
      </trkpt>
      <trkpt lat="23.031115" lon="109.685156">
        <ele>70.978728</ele>
        <time>2026-08-15T06:51:28.000Z</time>
      </trkpt>
      <trkpt lat="23.031081" lon="109.685203">
        <ele>70.993378</ele>
        <time>2026-08-15T06:51:29.000Z</time>
      </trkpt>
      <trkpt lat="23.031047" lon="109.685250">
        <ele>71.008027</ele>
        <time>2026-08-15T06:51:30.000Z</time>
      </trkpt>
      <trkpt lat="23.031012" lon="109.685297">
        <ele>71.022843</ele>
        <time>2026-08-15T06:51:31.000Z</time>
      </trkpt>
      <trkpt lat="23.030977" lon="109.685347">
        <ele>71.038534</ele>
        <time>2026-08-15T06:51:32.000Z</time>
      </trkpt>
      <trkpt lat="23.030946" lon="109.685396">
        <ele>71.095897</ele>
        <time>2026-08-15T06:51:33.000Z</time>
      </trkpt>
      <trkpt lat="23.030916" lon="109.685446">
        <ele>71.153478</ele>
        <time>2026-08-15T06:51:34.000Z</time>
      </trkpt>
      <trkpt lat="23.030886" lon="109.685496">
        <ele>71.211059</ele>
        <time>2026-08-15T06:51:35.000Z</time>
      </trkpt>
      <trkpt lat="23.030855" lon="109.685545">
        <ele>71.268422</ele>
        <time>2026-08-15T06:51:36.000Z</time>
      </trkpt>
      <trkpt lat="23.030824" lon="109.685592">
        <ele>71.324206</ele>
        <time>2026-08-15T06:51:37.000Z</time>
      </trkpt>
      <trkpt lat="23.030793" lon="109.685639">
        <ele>71.379989</ele>
        <time>2026-08-15T06:51:38.000Z</time>
      </trkpt>
      <trkpt lat="23.030763" lon="109.685686">
        <ele>71.435169</ele>
        <time>2026-08-15T06:51:39.000Z</time>
      </trkpt>
      <trkpt lat="23.030734" lon="109.685732">
        <ele>71.488959</ele>
        <time>2026-08-15T06:51:40.000Z</time>
      </trkpt>
      <trkpt lat="23.030704" lon="109.685777">
        <ele>71.542565</ele>
        <time>2026-08-15T06:51:41.000Z</time>
      </trkpt>
      <trkpt lat="23.030674" lon="109.685822">
        <ele>71.596170</ele>
        <time>2026-08-15T06:51:42.000Z</time>
      </trkpt>
      <trkpt lat="23.030643" lon="109.685865">
        <ele>71.648865</ele>
        <time>2026-08-15T06:51:43.000Z</time>
      </trkpt>
      <trkpt lat="23.030613" lon="109.685910">
        <ele>71.702471</ele>
        <time>2026-08-15T06:51:44.000Z</time>
      </trkpt>
      <trkpt lat="23.030580" lon="109.685952">
        <ele>71.755747</ele>
        <time>2026-08-15T06:51:45.000Z</time>
      </trkpt>
      <trkpt lat="23.030549" lon="109.685994">
        <ele>71.807686</ele>
        <time>2026-08-15T06:51:46.000Z</time>
      </trkpt>
      <trkpt lat="23.030518" lon="109.686038">
        <ele>71.861144</ele>
        <time>2026-08-15T06:51:47.000Z</time>
      </trkpt>
      <trkpt lat="23.030489" lon="109.686083">
        <ele>71.914141</ele>
        <time>2026-08-15T06:51:48.000Z</time>
      </trkpt>
      <trkpt lat="23.030460" lon="109.686125">
        <ele>71.964795</ele>
        <time>2026-08-15T06:51:49.000Z</time>
      </trkpt>
      <trkpt lat="23.030425" lon="109.686164">
        <ele>72.017347</ele>
        <time>2026-08-15T06:51:50.000Z</time>
      </trkpt>
      <trkpt lat="23.030392" lon="109.686203">
        <ele>72.068456</ele>
        <time>2026-08-15T06:51:51.000Z</time>
      </trkpt>
      <trkpt lat="23.030358" lon="109.686237">
        <ele>72.116893</ele>
        <time>2026-08-15T06:51:52.000Z</time>
      </trkpt>
      <trkpt lat="23.030322" lon="109.686271">
        <ele>72.166892</ele>
        <time>2026-08-15T06:51:53.000Z</time>
      </trkpt>
      <trkpt lat="23.030285" lon="109.686303">
        <ele>72.216464</ele>
        <time>2026-08-15T06:51:54.000Z</time>
      </trkpt>
      <trkpt lat="23.030246" lon="109.686323">
        <ele>72.261670</ele>
        <time>2026-08-15T06:51:55.000Z</time>
      </trkpt>
      <trkpt lat="23.030208" lon="109.686351">
        <ele>72.309799</ele>
        <time>2026-08-15T06:51:56.000Z</time>
      </trkpt>
      <trkpt lat="23.030173" lon="109.686379">
        <ele>72.355359</ele>
        <time>2026-08-15T06:51:57.000Z</time>
      </trkpt>
      <trkpt lat="23.030137" lon="109.686405">
        <ele>72.400671</ele>
        <time>2026-08-15T06:51:58.000Z</time>
      </trkpt>
      <trkpt lat="23.030095" lon="109.686432">
        <ele>72.451826</ele>
        <time>2026-08-15T06:51:59.000Z</time>
      </trkpt>
      <trkpt lat="23.030057" lon="109.686461">
        <ele>72.500503</ele>
        <time>2026-08-15T06:52:00.000Z</time>
      </trkpt>
      <trkpt lat="23.030018" lon="109.686491">
        <ele>72.550592</ele>
        <time>2026-08-15T06:52:01.000Z</time>
      </trkpt>
      <trkpt lat="23.029978" lon="109.686519">
        <ele>72.600470</ele>
        <time>2026-08-15T06:52:02.000Z</time>
      </trkpt>
      <trkpt lat="23.029938" lon="109.686548">
        <ele>72.650877</ele>
        <time>2026-08-15T06:52:03.000Z</time>
      </trkpt>
      <trkpt lat="23.029898" lon="109.686581">
        <ele>72.703524</ele>
        <time>2026-08-15T06:52:04.000Z</time>
      </trkpt>
      <trkpt lat="23.029859" lon="109.686611">
        <ele>72.753613</ele>
        <time>2026-08-15T06:52:05.000Z</time>
      </trkpt>
      <trkpt lat="23.029821" lon="109.686643">
        <ele>72.804009</ele>
        <time>2026-08-15T06:52:06.000Z</time>
      </trkpt>
      <trkpt lat="23.029780" lon="109.686671">
        <ele>72.854771</ele>
        <time>2026-08-15T06:52:07.000Z</time>
      </trkpt>
      <trkpt lat="23.029739" lon="109.686700">
        <ele>72.906053</ele>
        <time>2026-08-15T06:52:08.000Z</time>
      </trkpt>
      <trkpt lat="23.029699" lon="109.686729">
        <ele>72.934050</ele>
        <time>2026-08-15T06:52:09.000Z</time>
      </trkpt>
      <trkpt lat="23.029655" lon="109.686756">
        <ele>72.950919</ele>
        <time>2026-08-15T06:52:10.000Z</time>
      </trkpt>
      <trkpt lat="23.029613" lon="109.686785">
        <ele>72.967532</ele>
        <time>2026-08-15T06:52:11.000Z</time>
      </trkpt>
      <trkpt lat="23.029572" lon="109.686815">
        <ele>72.984034</ele>
        <time>2026-08-15T06:52:12.000Z</time>
      </trkpt>
      <trkpt lat="23.029529" lon="109.686846">
        <ele>73.001261</ele>
        <time>2026-08-15T06:52:13.000Z</time>
      </trkpt>
      <trkpt lat="23.029486" lon="109.686876">
        <ele>73.018321</ele>
        <time>2026-08-15T06:52:14.000Z</time>
      </trkpt>
      <trkpt lat="23.029443" lon="109.686906">
        <ele>73.035380</ele>
        <time>2026-08-15T06:52:15.000Z</time>
      </trkpt>
      <trkpt lat="23.029400" lon="109.686933">
        <ele>73.051960</ele>
        <time>2026-08-15T06:52:16.000Z</time>
      </trkpt>
      <trkpt lat="23.029357" lon="109.686963">
        <ele>73.069019</ele>
        <time>2026-08-15T06:52:17.000Z</time>
      </trkpt>
      <trkpt lat="23.029313" lon="109.686994">
        <ele>73.086526</ele>
        <time>2026-08-15T06:52:18.000Z</time>
      </trkpt>
      <trkpt lat="23.029267" lon="109.687024">
        <ele>73.104436</ele>
        <time>2026-08-15T06:52:19.000Z</time>
      </trkpt>
      <trkpt lat="23.029219" lon="109.687055">
        <ele>73.123077</ele>
        <time>2026-08-15T06:52:20.000Z</time>
      </trkpt>
      <trkpt lat="23.029171" lon="109.687088">
        <ele>73.142040</ele>
        <time>2026-08-15T06:52:21.000Z</time>
      </trkpt>
      <trkpt lat="23.029122" lon="109.687123">
        <ele>73.161616</ele>
        <time>2026-08-15T06:52:22.000Z</time>
      </trkpt>
      <trkpt lat="23.029072" lon="109.687156">
        <ele>73.181146</ele>
        <time>2026-08-15T06:52:23.000Z</time>
      </trkpt>
      <trkpt lat="23.029023" lon="109.687192">
        <ele>73.200893</ele>
        <time>2026-08-15T06:52:24.000Z</time>
      </trkpt>
      <trkpt lat="23.028973" lon="109.687228">
        <ele>73.220917</ele>
        <time>2026-08-15T06:52:25.000Z</time>
      </trkpt>
      <trkpt lat="23.028923" lon="109.687260">
        <ele>73.240289</ele>
        <time>2026-08-15T06:52:26.000Z</time>
      </trkpt>
      <trkpt lat="23.028873" lon="109.687296">
        <ele>73.260313</ele>
        <time>2026-08-15T06:52:27.000Z</time>
      </trkpt>
      <trkpt lat="23.028821" lon="109.687335">
        <ele>73.281406</ele>
        <time>2026-08-15T06:52:28.000Z</time>
      </trkpt>
      <trkpt lat="23.028771" lon="109.687372">
        <ele>73.301602</ele>
        <time>2026-08-15T06:52:29.000Z</time>
      </trkpt>
      <trkpt lat="23.028719" lon="109.687408">
        <ele>73.322186</ele>
        <time>2026-08-15T06:52:30.000Z</time>
      </trkpt>
      <trkpt lat="23.028666" lon="109.687443">
        <ele>73.342891</ele>
        <time>2026-08-15T06:52:31.000Z</time>
      </trkpt>
      <trkpt lat="23.028611" lon="109.687477">
        <ele>73.364015</ele>
        <time>2026-08-15T06:52:32.000Z</time>
      </trkpt>
      <trkpt lat="23.028561" lon="109.687516">
        <ele>73.384563</ele>
        <time>2026-08-15T06:52:33.000Z</time>
      </trkpt>
      <trkpt lat="23.028509" lon="109.687551">
        <ele>73.404983</ele>
        <time>2026-08-15T06:52:34.000Z</time>
      </trkpt>
      <trkpt lat="23.028458" lon="109.687588">
        <ele>73.425455</ele>
        <time>2026-08-15T06:52:35.000Z</time>
      </trkpt>
      <trkpt lat="23.028407" lon="109.687623">
        <ele>73.445593</ele>
        <time>2026-08-15T06:52:36.000Z</time>
      </trkpt>
      <trkpt lat="23.028356" lon="109.687659">
        <ele>73.465896</ele>
        <time>2026-08-15T06:52:37.000Z</time>
      </trkpt>
      <trkpt lat="23.028306" lon="109.687692">
        <ele>73.485426</ele>
        <time>2026-08-15T06:52:38.000Z</time>
      </trkpt>
      <trkpt lat="23.028255" lon="109.687730">
        <ele>73.506070</ele>
        <time>2026-08-15T06:52:39.000Z</time>
      </trkpt>
      <trkpt lat="23.028203" lon="109.687767">
        <ele>73.520668</ele>
        <time>2026-08-15T06:52:40.000Z</time>
      </trkpt>
      <trkpt lat="23.028157" lon="109.687802">
        <ele>73.497944</ele>
        <time>2026-08-15T06:52:41.000Z</time>
      </trkpt>
      <trkpt lat="23.028107" lon="109.687839">
        <ele>73.473464</ele>
        <time>2026-08-15T06:52:42.000Z</time>
      </trkpt>
      <trkpt lat="23.028057" lon="109.687878">
        <ele>73.448558</ele>
        <time>2026-08-15T06:52:43.000Z</time>
      </trkpt>
      <trkpt lat="23.028007" lon="109.687912">
        <ele>73.424689</ele>
        <time>2026-08-15T06:52:44.000Z</time>
      </trkpt>
      <trkpt lat="23.027955" lon="109.687945">
        <ele>73.400321</ele>
        <time>2026-08-15T06:52:45.000Z</time>
      </trkpt>
      <trkpt lat="23.027904" lon="109.687980">
        <ele>73.375911</ele>
        <time>2026-08-15T06:52:46.000Z</time>
      </trkpt>
      <trkpt lat="23.027855" lon="109.688011">
        <ele>73.352967</ele>
        <time>2026-08-15T06:52:47.000Z</time>
      </trkpt>
      <trkpt lat="23.027807" lon="109.688044">
        <ele>73.329982</ele>
        <time>2026-08-15T06:52:48.000Z</time>
      </trkpt>
      <trkpt lat="23.027758" lon="109.688076">
        <ele>73.306848</ele>
        <time>2026-08-15T06:52:49.000Z</time>
      </trkpt>
      <trkpt lat="23.027707" lon="109.688107">
        <ele>73.283200</ele>
        <time>2026-08-15T06:52:50.000Z</time>
      </trkpt>
      <trkpt lat="23.027653" lon="109.688138">
        <ele>73.258486</ele>
        <time>2026-08-15T06:52:51.000Z</time>
      </trkpt>
      <trkpt lat="23.027599" lon="109.688171">
        <ele>73.233415</ele>
        <time>2026-08-15T06:52:52.000Z</time>
      </trkpt>
      <trkpt lat="23.027546" lon="109.688206">
        <ele>73.208318</ele>
        <time>2026-08-15T06:52:53.000Z</time>
      </trkpt>
      <trkpt lat="23.027496" lon="109.688243">
        <ele>73.183839</ele>
        <time>2026-08-15T06:52:54.000Z</time>
      </trkpt>
      <trkpt lat="23.027440" lon="109.688277">
        <ele>73.157880</ele>
        <time>2026-08-15T06:52:55.000Z</time>
      </trkpt>
      <trkpt lat="23.027384" lon="109.688316">
        <ele>73.130964</ele>
        <time>2026-08-15T06:52:56.000Z</time>
      </trkpt>
      <trkpt lat="23.027327" lon="109.688354">
        <ele>73.103903</ele>
        <time>2026-08-15T06:52:57.000Z</time>
      </trkpt>
      <trkpt lat="23.027272" lon="109.688395">
        <ele>73.076912</ele>
        <time>2026-08-15T06:52:58.000Z</time>
      </trkpt>
      <trkpt lat="23.027217" lon="109.688434">
        <ele>73.050336</ele>
        <time>2026-08-15T06:52:59.000Z</time>
      </trkpt>
      <trkpt lat="23.027161" lon="109.688472">
        <ele>73.023619</ele>
        <time>2026-08-15T06:53:00.000Z</time>
      </trkpt>
      <trkpt lat="23.027107" lon="109.688512">
        <ele>72.997172</ele>
        <time>2026-08-15T06:53:01.000Z</time>
      </trkpt>
      <trkpt lat="23.027054" lon="109.688552">
        <ele>72.971059</ele>
        <time>2026-08-15T06:53:02.000Z</time>
      </trkpt>
      <trkpt lat="23.026998" lon="109.688591">
        <ele>72.944143</ele>
        <time>2026-08-15T06:53:03.000Z</time>
      </trkpt>
      <trkpt lat="23.026942" lon="109.688632">
        <ele>72.916818</ele>
        <time>2026-08-15T06:53:04.000Z</time>
      </trkpt>
      <trkpt lat="23.026884" lon="109.688676">
        <ele>72.888193</ele>
        <time>2026-08-15T06:53:05.000Z</time>
      </trkpt>
      <trkpt lat="23.026824" lon="109.688716">
        <ele>72.859708</ele>
        <time>2026-08-15T06:53:06.000Z</time>
      </trkpt>
      <trkpt lat="23.026765" lon="109.688758">
        <ele>72.831165</ele>
        <time>2026-08-15T06:53:07.000Z</time>
      </trkpt>
      <trkpt lat="23.026705" lon="109.688800">
        <ele>72.802283</ele>
        <time>2026-08-15T06:53:08.000Z</time>
      </trkpt>
      <trkpt lat="23.026644" lon="109.688840">
        <ele>72.763903</ele>
        <time>2026-08-15T06:53:09.000Z</time>
      </trkpt>
      <trkpt lat="23.026584" lon="109.688880">
        <ele>72.723459</ele>
        <time>2026-08-15T06:53:10.000Z</time>
      </trkpt>
      <trkpt lat="23.026521" lon="109.688917">
        <ele>72.682313</ele>
        <time>2026-08-15T06:53:11.000Z</time>
      </trkpt>
      <trkpt lat="23.026460" lon="109.688954">
        <ele>72.642174</ele>
        <time>2026-08-15T06:53:12.000Z</time>
      </trkpt>
      <trkpt lat="23.026401" lon="109.688996">
        <ele>72.601649</ele>
        <time>2026-08-15T06:53:13.000Z</time>
      </trkpt>
      <trkpt lat="23.026344" lon="109.689032">
        <ele>72.563769</ele>
        <time>2026-08-15T06:53:14.000Z</time>
      </trkpt>
      <trkpt lat="23.026283" lon="109.689065">
        <ele>72.524618</ele>
        <time>2026-08-15T06:53:15.000Z</time>
      </trkpt>
      <trkpt lat="23.026226" lon="109.689104">
        <ele>72.485916</ele>
        <time>2026-08-15T06:53:16.000Z</time>
      </trkpt>
      <trkpt lat="23.026166" lon="109.689145">
        <ele>72.445193</ele>
        <time>2026-08-15T06:53:17.000Z</time>
      </trkpt>
      <trkpt lat="23.026107" lon="109.689188">
        <ele>72.404375</ele>
        <time>2026-08-15T06:53:18.000Z</time>
      </trkpt>
      <trkpt lat="23.026046" lon="109.689227">
        <ele>72.363711</ele>
        <time>2026-08-15T06:53:19.000Z</time>
      </trkpt>
      <trkpt lat="23.025988" lon="109.689271">
        <ele>72.323068</ele>
        <time>2026-08-15T06:53:20.000Z</time>
      </trkpt>
      <trkpt lat="23.025928" lon="109.689308">
        <ele>72.283430</ele>
        <time>2026-08-15T06:53:21.000Z</time>
      </trkpt>
      <trkpt lat="23.025863" lon="109.689335">
        <ele>72.243449</ele>
        <time>2026-08-15T06:53:22.000Z</time>
      </trkpt>
      <trkpt lat="23.025804" lon="109.689374">
        <ele>72.203770</ele>
        <time>2026-08-15T06:53:23.000Z</time>
      </trkpt>
      <trkpt lat="23.025742" lon="109.689415">
        <ele>72.162070</ele>
        <time>2026-08-15T06:53:24.000Z</time>
      </trkpt>
      <trkpt lat="23.025680" lon="109.689453">
        <ele>72.121171</ele>
        <time>2026-08-15T06:53:25.000Z</time>
      </trkpt>
      <trkpt lat="23.025625" lon="109.689494">
        <ele>72.082849</ele>
        <time>2026-08-15T06:53:26.000Z</time>
      </trkpt>
      <trkpt lat="23.025567" lon="109.689539">
        <ele>72.041902</ele>
        <time>2026-08-15T06:53:27.000Z</time>
      </trkpt>
      <trkpt lat="23.025506" lon="109.689586">
        <ele>71.998937</ele>
        <time>2026-08-15T06:53:28.000Z</time>
      </trkpt>
      <trkpt lat="23.025447" lon="109.689631">
        <ele>71.957521</ele>
        <time>2026-08-15T06:53:29.000Z</time>
      </trkpt>
      <trkpt lat="23.025386" lon="109.689680">
        <ele>71.913935</ele>
        <time>2026-08-15T06:53:30.000Z</time>
      </trkpt>
      <trkpt lat="23.025324" lon="109.689726">
        <ele>71.870801</ele>
        <time>2026-08-15T06:53:31.000Z</time>
      </trkpt>
      <trkpt lat="23.025260" lon="109.689768">
        <ele>71.827844</ele>
        <time>2026-08-15T06:53:32.000Z</time>
      </trkpt>
      <trkpt lat="23.025197" lon="109.689812">
        <ele>71.784814</ele>
        <time>2026-08-15T06:53:33.000Z</time>
      </trkpt>
      <trkpt lat="23.025135" lon="109.689858">
        <ele>71.756612</ele>
        <time>2026-08-15T06:53:34.000Z</time>
      </trkpt>
      <trkpt lat="23.025074" lon="109.689904">
        <ele>71.744131</ele>
        <time>2026-08-15T06:53:35.000Z</time>
      </trkpt>
      <trkpt lat="23.025014" lon="109.689951">
        <ele>71.731697</ele>
        <time>2026-08-15T06:53:36.000Z</time>
      </trkpt>
      <trkpt lat="23.024953" lon="109.690000">
        <ele>71.718946</ele>
        <time>2026-08-15T06:53:37.000Z</time>
      </trkpt>
      <trkpt lat="23.024893" lon="109.690048">
        <ele>71.706422</ele>
        <time>2026-08-15T06:53:38.000Z</time>
      </trkpt>
      <trkpt lat="23.024833" lon="109.690096">
        <ele>71.693897</ele>
        <time>2026-08-15T06:53:39.000Z</time>
      </trkpt>
      <trkpt lat="23.024772" lon="109.690142">
        <ele>71.681416</ele>
        <time>2026-08-15T06:53:40.000Z</time>
      </trkpt>
      <trkpt lat="23.024713" lon="109.690190">
        <ele>71.669027</ele>
        <time>2026-08-15T06:53:41.000Z</time>
      </trkpt>
      <trkpt lat="23.024653" lon="109.690235">
        <ele>71.656772</ele>
        <time>2026-08-15T06:53:42.000Z</time>
      </trkpt>
      <trkpt lat="23.024594" lon="109.690281">
        <ele>71.644566</ele>
        <time>2026-08-15T06:53:43.000Z</time>
      </trkpt>
      <trkpt lat="23.024535" lon="109.690327">
        <ele>71.632359</ele>
        <time>2026-08-15T06:53:44.000Z</time>
      </trkpt>
      <trkpt lat="23.024478" lon="109.690377">
        <ele>71.620046</ele>
        <time>2026-08-15T06:53:45.000Z</time>
      </trkpt>
      <trkpt lat="23.024419" lon="109.690423">
        <ele>71.607839</ele>
        <time>2026-08-15T06:53:46.000Z</time>
      </trkpt>
      <trkpt lat="23.024362" lon="109.690465">
        <ele>71.596263</ele>
        <time>2026-08-15T06:53:47.000Z</time>
      </trkpt>
      <trkpt lat="23.024305" lon="109.690512">
        <ele>71.584235</ele>
        <time>2026-08-15T06:53:48.000Z</time>
      </trkpt>
      <trkpt lat="23.024247" lon="109.690556">
        <ele>71.572344</ele>
        <time>2026-08-15T06:53:49.000Z</time>
      </trkpt>
      <trkpt lat="23.024191" lon="109.690603">
        <ele>71.560450</ele>
        <time>2026-08-15T06:53:50.000Z</time>
      </trkpt>
      <trkpt lat="23.024137" lon="109.690650">
        <ele>71.548820</ele>
        <time>2026-08-15T06:53:51.000Z</time>
      </trkpt>
      <trkpt lat="23.024085" lon="109.690698">
        <ele>71.537351</ele>
        <time>2026-08-15T06:53:52.000Z</time>
      </trkpt>
      <trkpt lat="23.024033" lon="109.690748">
        <ele>71.525679</ele>
        <time>2026-08-15T06:53:53.000Z</time>
      </trkpt>
      <trkpt lat="23.023980" lon="109.690797">
        <ele>71.513981</ele>
        <time>2026-08-15T06:53:54.000Z</time>
      </trkpt>
      <trkpt lat="23.023927" lon="109.690844">
        <ele>71.502482</ele>
        <time>2026-08-15T06:53:55.000Z</time>
      </trkpt>
      <trkpt lat="23.023875" lon="109.690892">
        <ele>71.491013</ele>
        <time>2026-08-15T06:53:56.000Z</time>
      </trkpt>
      <trkpt lat="23.023823" lon="109.690940">
        <ele>71.479544</ele>
        <time>2026-08-15T06:53:57.000Z</time>
      </trkpt>
      <trkpt lat="23.023772" lon="109.690990">
        <ele>71.467997</ele>
        <time>2026-08-15T06:53:58.000Z</time>
      </trkpt>
      <trkpt lat="23.023720" lon="109.691041">
        <ele>71.454958</ele>
        <time>2026-08-15T06:53:59.000Z</time>
      </trkpt>
      <trkpt lat="23.023668" lon="109.691091">
        <ele>71.439796</ele>
        <time>2026-08-15T06:54:00.000Z</time>
      </trkpt>
      <trkpt lat="23.023616" lon="109.691140">
        <ele>71.424766</ele>
        <time>2026-08-15T06:54:01.000Z</time>
      </trkpt>
      <trkpt lat="23.023564" lon="109.691194">
        <ele>71.409059</ele>
        <time>2026-08-15T06:54:02.000Z</time>
      </trkpt>
      <trkpt lat="23.023512" lon="109.691245">
        <ele>71.393763</ele>
        <time>2026-08-15T06:54:03.000Z</time>
      </trkpt>
      <trkpt lat="23.023459" lon="109.691295">
        <ele>71.378436</ele>
        <time>2026-08-15T06:54:04.000Z</time>
      </trkpt>
      <trkpt lat="23.023404" lon="109.691344">
        <ele>71.362905</ele>
        <time>2026-08-15T06:54:05.000Z</time>
      </trkpt>
      <trkpt lat="23.023347" lon="109.691392">
        <ele>71.347158</ele>
        <time>2026-08-15T06:54:06.000Z</time>
      </trkpt>
      <trkpt lat="23.023292" lon="109.691441">
        <ele>71.331627</ele>
        <time>2026-08-15T06:54:07.000Z</time>
      </trkpt>
      <trkpt lat="23.023239" lon="109.691491">
        <ele>71.316301</ele>
        <time>2026-08-15T06:54:08.000Z</time>
      </trkpt>
      <trkpt lat="23.023185" lon="109.691542">
        <ele>71.300678</ele>
        <time>2026-08-15T06:54:09.000Z</time>
      </trkpt>
      <trkpt lat="23.023130" lon="109.691592">
        <ele>71.285019</ele>
        <time>2026-08-15T06:54:10.000Z</time>
      </trkpt>
      <trkpt lat="23.023078" lon="109.691643">
        <ele>71.269722</ele>
        <time>2026-08-15T06:54:11.000Z</time>
      </trkpt>
      <trkpt lat="23.023026" lon="109.691696">
        <ele>71.254154</ele>
        <time>2026-08-15T06:54:12.000Z</time>
      </trkpt>
      <trkpt lat="23.022973" lon="109.691748">
        <ele>71.238561</ele>
        <time>2026-08-15T06:54:13.000Z</time>
      </trkpt>
      <trkpt lat="23.022921" lon="109.691800">
        <ele>71.223129</ele>
        <time>2026-08-15T06:54:14.000Z</time>
      </trkpt>
      <trkpt lat="23.022867" lon="109.691852">
        <ele>71.207373</ele>
        <time>2026-08-15T06:54:15.000Z</time>
      </trkpt>
      <trkpt lat="23.022815" lon="109.691903">
        <ele>71.192077</ele>
        <time>2026-08-15T06:54:16.000Z</time>
      </trkpt>
      <trkpt lat="23.022763" lon="109.691954">
        <ele>71.176780</ele>
        <time>2026-08-15T06:54:17.000Z</time>
      </trkpt>
      <trkpt lat="23.022711" lon="109.692006">
        <ele>71.161349</ele>
        <time>2026-08-15T06:54:18.000Z</time>
      </trkpt>
      <trkpt lat="23.022658" lon="109.692057">
        <ele>71.145890</ele>
        <time>2026-08-15T06:54:19.000Z</time>
      </trkpt>
      <trkpt lat="23.022607" lon="109.692109">
        <ele>71.130618</ele>
        <time>2026-08-15T06:54:20.000Z</time>
      </trkpt>
      <trkpt lat="23.022556" lon="109.692161">
        <ele>71.115346</ele>
        <time>2026-08-15T06:54:21.000Z</time>
      </trkpt>
      <trkpt lat="23.022504" lon="109.692214">
        <ele>71.099777</ele>
        <time>2026-08-15T06:54:22.000Z</time>
      </trkpt>
      <trkpt lat="23.022454" lon="109.692268">
        <ele>71.084383</ele>
        <time>2026-08-15T06:54:23.000Z</time>
      </trkpt>
      <trkpt lat="23.022402" lon="109.692322">
        <ele>71.068677</ele>
        <time>2026-08-15T06:54:24.000Z</time>
      </trkpt>
      <trkpt lat="23.022352" lon="109.692375">
        <ele>71.079149</ele>
        <time>2026-08-15T06:54:25.000Z</time>
      </trkpt>
      <trkpt lat="23.022302" lon="109.692428">
        <ele>71.091385</ele>
        <time>2026-08-15T06:54:26.000Z</time>
      </trkpt>
      <trkpt lat="23.022248" lon="109.692479">
        <ele>71.103918</ele>
        <time>2026-08-15T06:54:27.000Z</time>
      </trkpt>
      <trkpt lat="23.022198" lon="109.692530">
        <ele>71.115931</ele>
        <time>2026-08-15T06:54:28.000Z</time>
      </trkpt>
      <trkpt lat="23.022149" lon="109.692580">
        <ele>71.127705</ele>
        <time>2026-08-15T06:54:29.000Z</time>
      </trkpt>
      <trkpt lat="23.022099" lon="109.692629">
        <ele>71.139500</ele>
        <time>2026-08-15T06:54:30.000Z</time>
      </trkpt>
      <trkpt lat="23.022053" lon="109.692677">
        <ele>71.150672</ele>
        <time>2026-08-15T06:54:31.000Z</time>
      </trkpt>
      <trkpt lat="23.022007" lon="109.692724">
        <ele>71.161733</ele>
        <time>2026-08-15T06:54:32.000Z</time>
      </trkpt>
      <trkpt lat="23.021962" lon="109.692772">
        <ele>71.172779</ele>
        <time>2026-08-15T06:54:33.000Z</time>
      </trkpt>
      <trkpt lat="23.021917" lon="109.692819">
        <ele>71.183713</ele>
        <time>2026-08-15T06:54:34.000Z</time>
      </trkpt>
      <trkpt lat="23.021874" lon="109.692866">
        <ele>71.194397</ele>
        <time>2026-08-15T06:54:35.000Z</time>
      </trkpt>
      <trkpt lat="23.021831" lon="109.692911">
        <ele>71.204855</ele>
        <time>2026-08-15T06:54:36.000Z</time>
      </trkpt>
      <trkpt lat="23.021790" lon="109.692953">
        <ele>71.214725</ele>
        <time>2026-08-15T06:54:37.000Z</time>
      </trkpt>
      <trkpt lat="23.021747" lon="109.692993">
        <ele>71.224641</ele>
        <time>2026-08-15T06:54:38.000Z</time>
      </trkpt>
      <trkpt lat="23.021707" lon="109.693037">
        <ele>71.234611</ele>
        <time>2026-08-15T06:54:39.000Z</time>
      </trkpt>
      <trkpt lat="23.021665" lon="109.693080">
        <ele>71.244720</ele>
        <time>2026-08-15T06:54:40.000Z</time>
      </trkpt>
      <trkpt lat="23.021623" lon="109.693123">
        <ele>71.254828</ele>
        <time>2026-08-15T06:54:41.000Z</time>
      </trkpt>
      <trkpt lat="23.021580" lon="109.693169">
        <ele>71.265399</ele>
        <time>2026-08-15T06:54:42.000Z</time>
      </trkpt>
      <trkpt lat="23.021537" lon="109.693217">
        <ele>71.276198</ele>
        <time>2026-08-15T06:54:43.000Z</time>
      </trkpt>
      <trkpt lat="23.021493" lon="109.693263">
        <ele>71.286894</ele>
        <time>2026-08-15T06:54:44.000Z</time>
      </trkpt>
      <trkpt lat="23.021451" lon="109.693306">
        <ele>71.297002</ele>
        <time>2026-08-15T06:54:45.000Z</time>
      </trkpt>
      <trkpt lat="23.021409" lon="109.693352">
        <ele>71.307448</ele>
        <time>2026-08-15T06:54:46.000Z</time>
      </trkpt>
      <trkpt lat="23.021367" lon="109.693398">
        <ele>71.317895</ele>
        <time>2026-08-15T06:54:47.000Z</time>
      </trkpt>
      <trkpt lat="23.021326" lon="109.693444">
        <ele>71.328218</ele>
        <time>2026-08-15T06:54:48.000Z</time>
      </trkpt>
      <trkpt lat="23.021285" lon="109.693489">
        <ele>71.338427</ele>
        <time>2026-08-15T06:54:49.000Z</time>
      </trkpt>
      <trkpt lat="23.021243" lon="109.693535">
        <ele>71.348873</ele>
        <time>2026-08-15T06:54:50.000Z</time>
      </trkpt>
      <trkpt lat="23.021202" lon="109.693582">
        <ele>71.359313</ele>
        <time>2026-08-15T06:54:51.000Z</time>
      </trkpt>
      <trkpt lat="23.021158" lon="109.693627">
        <ele>71.369898</ele>
        <time>2026-08-15T06:54:52.000Z</time>
      </trkpt>
      <trkpt lat="23.021113" lon="109.693668">
        <ele>71.380185</ele>
        <time>2026-08-15T06:54:53.000Z</time>
      </trkpt>
      <trkpt lat="23.021068" lon="109.693712">
        <ele>71.377492</ele>
        <time>2026-08-15T06:54:54.000Z</time>
      </trkpt>
      <trkpt lat="23.021023" lon="109.693758">
        <ele>71.370384</ele>
        <time>2026-08-15T06:54:55.000Z</time>
      </trkpt>
      <trkpt lat="23.020978" lon="109.693803">
        <ele>71.363348</ele>
        <time>2026-08-15T06:54:56.000Z</time>
      </trkpt>
      <trkpt lat="23.020934" lon="109.693849">
        <ele>71.356324</ele>
        <time>2026-08-15T06:54:57.000Z</time>
      </trkpt>
      <trkpt lat="23.020891" lon="109.693898">
        <ele>71.349156</ele>
        <time>2026-08-15T06:54:58.000Z</time>
      </trkpt>
      <trkpt lat="23.020845" lon="109.693944">
        <ele>71.341964</ele>
        <time>2026-08-15T06:54:59.000Z</time>
      </trkpt>
      <trkpt lat="23.020801" lon="109.693991">
        <ele>71.334866</ele>
        <time>2026-08-15T06:55:00.000Z</time>
      </trkpt>
      <trkpt lat="23.020758" lon="109.694039">
        <ele>71.327774</ele>
        <time>2026-08-15T06:55:01.000Z</time>
      </trkpt>
      <trkpt lat="23.020714" lon="109.694087">
        <ele>71.320601</ele>
        <time>2026-08-15T06:55:02.000Z</time>
      </trkpt>
      <trkpt lat="23.020669" lon="109.694135">
        <ele>71.313347</ele>
        <time>2026-08-15T06:55:03.000Z</time>
      </trkpt>
      <trkpt lat="23.020625" lon="109.694181">
        <ele>71.306323</ele>
        <time>2026-08-15T06:55:04.000Z</time>
      </trkpt>
      <trkpt lat="23.020580" lon="109.694227">
        <ele>71.299215</ele>
        <time>2026-08-15T06:55:05.000Z</time>
      </trkpt>
      <trkpt lat="23.020536" lon="109.694275">
        <ele>71.292042</ele>
        <time>2026-08-15T06:55:06.000Z</time>
      </trkpt>
      <trkpt lat="23.020493" lon="109.694322">
        <ele>71.285026</ele>
        <time>2026-08-15T06:55:07.000Z</time>
      </trkpt>
      <trkpt lat="23.020449" lon="109.694369">
        <ele>71.277928</ele>
        <time>2026-08-15T06:55:08.000Z</time>
      </trkpt>
      <trkpt lat="23.020403" lon="109.694416">
        <ele>71.270664</ele>
        <time>2026-08-15T06:55:09.000Z</time>
      </trkpt>
      <trkpt lat="23.020358" lon="109.694464">
        <ele>71.263409</ele>
        <time>2026-08-15T06:55:10.000Z</time>
      </trkpt>
      <trkpt lat="23.020314" lon="109.694510">
        <ele>71.256385</ele>
        <time>2026-08-15T06:55:11.000Z</time>
      </trkpt>
      <trkpt lat="23.020269" lon="109.694554">
        <ele>71.249421</ele>
        <time>2026-08-15T06:55:12.000Z</time>
      </trkpt>
      <trkpt lat="23.020224" lon="109.694600">
        <ele>71.242313</ele>
        <time>2026-08-15T06:55:13.000Z</time>
      </trkpt>
      <trkpt lat="23.020180" lon="109.694647">
        <ele>71.235215</ele>
        <time>2026-08-15T06:55:14.000Z</time>
      </trkpt>
      <trkpt lat="23.020137" lon="109.694696">
        <ele>71.228047</ele>
        <time>2026-08-15T06:55:15.000Z</time>
      </trkpt>
      <trkpt lat="23.020094" lon="109.694745">
        <ele>71.220879</ele>
        <time>2026-08-15T06:55:16.000Z</time>
      </trkpt>
      <trkpt lat="23.020049" lon="109.694793">
        <ele>71.213624</ele>
        <time>2026-08-15T06:55:17.000Z</time>
      </trkpt>
      <trkpt lat="23.020003" lon="109.694841">
        <ele>71.206287</ele>
        <time>2026-08-15T06:55:18.000Z</time>
      </trkpt>
      <trkpt lat="23.019956" lon="109.694889">
        <ele>71.198867</ele>
        <time>2026-08-15T06:55:19.000Z</time>
      </trkpt>
      <trkpt lat="23.019910" lon="109.694937">
        <ele>71.191530</ele>
        <time>2026-08-15T06:55:20.000Z</time>
      </trkpt>
      <trkpt lat="23.019863" lon="109.694985">
        <ele>71.184110</ele>
        <time>2026-08-15T06:55:21.000Z</time>
      </trkpt>
      <trkpt lat="23.019818" lon="109.695035">
        <ele>71.176705</ele>
        <time>2026-08-15T06:55:22.000Z</time>
      </trkpt>
      <trkpt lat="23.019772" lon="109.695084">
        <ele>71.174770</ele>
        <time>2026-08-15T06:55:23.000Z</time>
      </trkpt>
      <trkpt lat="23.019726" lon="109.695132">
        <ele>71.173561</ele>
        <time>2026-08-15T06:55:24.000Z</time>
      </trkpt>
      <trkpt lat="23.019680" lon="109.695180">
        <ele>71.172351</ele>
        <time>2026-08-15T06:55:25.000Z</time>
      </trkpt>
      <trkpt lat="23.019634" lon="109.695230">
        <ele>71.171118</ele>
        <time>2026-08-15T06:55:26.000Z</time>
      </trkpt>
      <trkpt lat="23.019587" lon="109.695280">
        <ele>71.169870</ele>
        <time>2026-08-15T06:55:27.000Z</time>
      </trkpt>
      <trkpt lat="23.019540" lon="109.695330">
        <ele>71.168623</ele>
        <time>2026-08-15T06:55:28.000Z</time>
      </trkpt>
      <trkpt lat="23.019493" lon="109.695378">
        <ele>71.167400</ele>
        <time>2026-08-15T06:55:29.000Z</time>
      </trkpt>
      <trkpt lat="23.019447" lon="109.695426">
        <ele>71.166190</ele>
        <time>2026-08-15T06:55:30.000Z</time>
      </trkpt>
      <trkpt lat="23.019401" lon="109.695474">
        <ele>71.164981</ele>
        <time>2026-08-15T06:55:31.000Z</time>
      </trkpt>
      <trkpt lat="23.019356" lon="109.695522">
        <ele>71.163785</ele>
        <time>2026-08-15T06:55:32.000Z</time>
      </trkpt>
      <trkpt lat="23.019309" lon="109.695568">
        <ele>71.162586</ele>
        <time>2026-08-15T06:55:33.000Z</time>
      </trkpt>
      <trkpt lat="23.019264" lon="109.695614">
        <ele>71.161414</ele>
        <time>2026-08-15T06:55:34.000Z</time>
      </trkpt>
      <trkpt lat="23.019219" lon="109.695661">
        <ele>71.160231</ele>
        <time>2026-08-15T06:55:35.000Z</time>
      </trkpt>
      <trkpt lat="23.019175" lon="109.695709">
        <ele>71.159048</ele>
        <time>2026-08-15T06:55:36.000Z</time>
      </trkpt>
      <trkpt lat="23.019130" lon="109.695756">
        <ele>71.157865</ele>
        <time>2026-08-15T06:55:37.000Z</time>
      </trkpt>
      <trkpt lat="23.019086" lon="109.695804">
        <ele>71.156682</ele>
        <time>2026-08-15T06:55:38.000Z</time>
      </trkpt>
      <trkpt lat="23.019043" lon="109.695852">
        <ele>71.155513</ele>
        <time>2026-08-15T06:55:39.000Z</time>
      </trkpt>
      <trkpt lat="23.019000" lon="109.695898">
        <ele>71.154369</ele>
        <time>2026-08-15T06:55:40.000Z</time>
      </trkpt>
      <trkpt lat="23.018956" lon="109.695943">
        <ele>71.153223</ele>
        <time>2026-08-15T06:55:41.000Z</time>
      </trkpt>
      <trkpt lat="23.018911" lon="109.695990">
        <ele>71.152039</ele>
        <time>2026-08-15T06:55:42.000Z</time>
      </trkpt>
      <trkpt lat="23.018866" lon="109.696035">
        <ele>71.150880</ele>
        <time>2026-08-15T06:55:43.000Z</time>
      </trkpt>
      <trkpt lat="23.018822" lon="109.696081">
        <ele>71.149722</ele>
        <time>2026-08-15T06:55:44.000Z</time>
      </trkpt>
      <trkpt lat="23.018778" lon="109.696126">
        <ele>71.148576</ele>
        <time>2026-08-15T06:55:45.000Z</time>
      </trkpt>
      <trkpt lat="23.018735" lon="109.696174">
        <ele>71.147407</ele>
        <time>2026-08-15T06:55:46.000Z</time>
      </trkpt>
      <trkpt lat="23.018692" lon="109.696224">
        <ele>71.146213</ele>
        <time>2026-08-15T06:55:47.000Z</time>
      </trkpt>
      <trkpt lat="23.018650" lon="109.696270">
        <ele>71.145082</ele>
        <time>2026-08-15T06:55:48.000Z</time>
      </trkpt>
      <trkpt lat="23.018609" lon="109.696316">
        <ele>71.143964</ele>
        <time>2026-08-15T06:55:49.000Z</time>
      </trkpt>
      <trkpt lat="23.018566" lon="109.696361">
        <ele>71.142832</ele>
        <time>2026-08-15T06:55:50.000Z</time>
      </trkpt>
      <trkpt lat="23.018525" lon="109.696404">
        <ele>71.141752</ele>
        <time>2026-08-15T06:55:51.000Z</time>
      </trkpt>
      <trkpt lat="23.018482" lon="109.696446">
        <ele>71.133048</ele>
        <time>2026-08-15T06:55:52.000Z</time>
      </trkpt>
      <trkpt lat="23.018440" lon="109.696491">
        <ele>71.124117</ele>
        <time>2026-08-15T06:55:53.000Z</time>
      </trkpt>
      <trkpt lat="23.018399" lon="109.696536">
        <ele>71.115293</ele>
        <time>2026-08-15T06:55:54.000Z</time>
      </trkpt>
      <trkpt lat="23.018357" lon="109.696581">
        <ele>71.106361</ele>
        <time>2026-08-15T06:55:55.000Z</time>
      </trkpt>
      <trkpt lat="23.018317" lon="109.696627">
        <ele>71.097542</ele>
        <time>2026-08-15T06:55:56.000Z</time>
      </trkpt>
      <trkpt lat="23.018275" lon="109.696675">
        <ele>71.088312</ele>
        <time>2026-08-15T06:55:57.000Z</time>
      </trkpt>
      <trkpt lat="23.018233" lon="109.696722">
        <ele>71.079183</ele>
        <time>2026-08-15T06:55:58.000Z</time>
      </trkpt>
      <trkpt lat="23.018188" lon="109.696766">
        <ele>71.070016</ele>
        <time>2026-08-15T06:55:59.000Z</time>
      </trkpt>
      <trkpt lat="23.018143" lon="109.696811">
        <ele>71.060756</ele>
        <time>2026-08-15T06:56:00.000Z</time>
      </trkpt>
      <trkpt lat="23.018097" lon="109.696855">
        <ele>71.051476</ele>
        <time>2026-08-15T06:56:01.000Z</time>
      </trkpt>
      <trkpt lat="23.018052" lon="109.696898">
        <ele>71.042402</ele>
        <time>2026-08-15T06:56:02.000Z</time>
      </trkpt>
      <trkpt lat="23.018010" lon="109.696943">
        <ele>71.033471</ele>
        <time>2026-08-15T06:56:03.000Z</time>
      </trkpt>
      <trkpt lat="23.017967" lon="109.696988">
        <ele>71.024431</ele>
        <time>2026-08-15T06:56:04.000Z</time>
      </trkpt>
      <trkpt lat="23.017925" lon="109.697030">
        <ele>71.015788</ele>
        <time>2026-08-15T06:56:05.000Z</time>
      </trkpt>
      <trkpt lat="23.017883" lon="109.697072">
        <ele>71.007145</ele>
        <time>2026-08-15T06:56:06.000Z</time>
      </trkpt>
      <trkpt lat="23.017841" lon="109.697114">
        <ele>70.998502</ele>
        <time>2026-08-15T06:56:07.000Z</time>
      </trkpt>
      <trkpt lat="23.017799" lon="109.697158">
        <ele>70.989667</ele>
        <time>2026-08-15T06:56:08.000Z</time>
      </trkpt>
      <trkpt lat="23.017759" lon="109.697202">
        <ele>70.981049</ele>
        <time>2026-08-15T06:56:09.000Z</time>
      </trkpt>
      <trkpt lat="23.017717" lon="109.697246">
        <ele>70.972215</ele>
        <time>2026-08-15T06:56:10.000Z</time>
      </trkpt>
      <trkpt lat="23.017677" lon="109.697290">
        <ele>70.963596</ele>
        <time>2026-08-15T06:56:11.000Z</time>
      </trkpt>
      <trkpt lat="23.017636" lon="109.697335">
        <ele>70.954771</ele>
        <time>2026-08-15T06:56:12.000Z</time>
      </trkpt>
      <trkpt lat="23.017595" lon="109.697378">
        <ele>70.946143</ele>
        <time>2026-08-15T06:56:13.000Z</time>
      </trkpt>
      <trkpt lat="23.017555" lon="109.697420">
        <ele>70.937720</ele>
        <time>2026-08-15T06:56:14.000Z</time>
      </trkpt>
      <trkpt lat="23.017514" lon="109.697461">
        <ele>70.929283</ele>
        <time>2026-08-15T06:56:15.000Z</time>
      </trkpt>
      <trkpt lat="23.017470" lon="109.697503">
        <ele>70.920415</ele>
        <time>2026-08-15T06:56:16.000Z</time>
      </trkpt>
      <trkpt lat="23.017432" lon="109.697544">
        <ele>70.912306</ele>
        <time>2026-08-15T06:56:17.000Z</time>
      </trkpt>
      <trkpt lat="23.017393" lon="109.697585">
        <ele>70.904089</ele>
        <time>2026-08-15T06:56:18.000Z</time>
      </trkpt>
      <trkpt lat="23.017354" lon="109.697626">
        <ele>70.895872</ele>
        <time>2026-08-15T06:56:19.000Z</time>
      </trkpt>
      <trkpt lat="23.017314" lon="109.697667">
        <ele>70.887545</ele>
        <time>2026-08-15T06:56:20.000Z</time>
      </trkpt>
      <trkpt lat="23.017274" lon="109.697707">
        <ele>70.879314</ele>
        <time>2026-08-15T06:56:21.000Z</time>
      </trkpt>
      <trkpt lat="23.017234" lon="109.697747">
        <ele>70.871082</ele>
        <time>2026-08-15T06:56:22.000Z</time>
      </trkpt>
      <trkpt lat="23.017197" lon="109.697790">
        <ele>70.873568</ele>
        <time>2026-08-15T06:56:23.000Z</time>
      </trkpt>
      <trkpt lat="23.017159" lon="109.697832">
        <ele>70.878813</ele>
        <time>2026-08-15T06:56:24.000Z</time>
      </trkpt>
      <trkpt lat="23.017121" lon="109.697871">
        <ele>70.883871</ele>
        <time>2026-08-15T06:56:25.000Z</time>
      </trkpt>
      <trkpt lat="23.017080" lon="109.697910">
        <ele>70.889144</ele>
        <time>2026-08-15T06:56:26.000Z</time>
      </trkpt>
      <trkpt lat="23.017042" lon="109.697948">
        <ele>70.894141</ele>
        <time>2026-08-15T06:56:27.000Z</time>
      </trkpt>
      <trkpt lat="23.017004" lon="109.697985">
        <ele>70.899078</ele>
        <time>2026-08-15T06:56:28.000Z</time>
      </trkpt>
      <trkpt lat="23.016967" lon="109.698023">
        <ele>70.904004</ele>
        <time>2026-08-15T06:56:29.000Z</time>
      </trkpt>
      <trkpt lat="23.016929" lon="109.698059">
        <ele>70.908883</ele>
        <time>2026-08-15T06:56:30.000Z</time>
      </trkpt>
      <trkpt lat="23.016893" lon="109.698096">
        <ele>70.913677</ele>
        <time>2026-08-15T06:56:31.000Z</time>
      </trkpt>
      <trkpt lat="23.016858" lon="109.698132">
        <ele>70.918341</ele>
        <time>2026-08-15T06:56:32.000Z</time>
      </trkpt>
      <trkpt lat="23.016822" lon="109.698169">
        <ele>70.923136</ele>
        <time>2026-08-15T06:56:33.000Z</time>
      </trkpt>
      <trkpt lat="23.016783" lon="109.698206">
        <ele>70.928145</ele>
        <time>2026-08-15T06:56:34.000Z</time>
      </trkpt>
      <trkpt lat="23.016745" lon="109.698243">
        <ele>70.933082</ele>
        <time>2026-08-15T06:56:35.000Z</time>
      </trkpt>
      <trkpt lat="23.016707" lon="109.698281">
        <ele>70.938079</ele>
        <time>2026-08-15T06:56:36.000Z</time>
      </trkpt>
      <trkpt lat="23.016669" lon="109.698319">
        <ele>70.943077</ele>
        <time>2026-08-15T06:56:37.000Z</time>
      </trkpt>
      <trkpt lat="23.016633" lon="109.698359">
        <ele>70.948059</ele>
        <time>2026-08-15T06:56:38.000Z</time>
      </trkpt>
      <trkpt lat="23.016598" lon="109.698399">
        <ele>70.952974</ele>
        <time>2026-08-15T06:56:39.000Z</time>
      </trkpt>
      <trkpt lat="23.016561" lon="109.698439">
        <ele>70.958024</ele>
        <time>2026-08-15T06:56:40.000Z</time>
      </trkpt>
      <trkpt lat="23.016524" lon="109.698477">
        <ele>70.962951</ele>
        <time>2026-08-15T06:56:41.000Z</time>
      </trkpt>
      <trkpt lat="23.016487" lon="109.698516">
        <ele>70.967938</ele>
        <time>2026-08-15T06:56:42.000Z</time>
      </trkpt>
      <trkpt lat="23.016450" lon="109.698556">
        <ele>70.972989</ele>
        <time>2026-08-15T06:56:43.000Z</time>
      </trkpt>
      <trkpt lat="23.016411" lon="109.698595">
        <ele>70.978117</ele>
        <time>2026-08-15T06:56:44.000Z</time>
      </trkpt>
      <trkpt lat="23.016373" lon="109.698634">
        <ele>70.983175</ele>
        <time>2026-08-15T06:56:45.000Z</time>
      </trkpt>
      <trkpt lat="23.016336" lon="109.698675">
        <ele>70.988289</ele>
        <time>2026-08-15T06:56:46.000Z</time>
      </trkpt>
      <trkpt lat="23.016298" lon="109.698715">
        <ele>70.993408</ele>
        <time>2026-08-15T06:56:47.000Z</time>
      </trkpt>
      <trkpt lat="23.016260" lon="109.698754">
        <ele>70.998466</ele>
        <time>2026-08-15T06:56:48.000Z</time>
      </trkpt>
      <trkpt lat="23.016222" lon="109.698794">
        <ele>71.003585</ele>
        <time>2026-08-15T06:56:49.000Z</time>
      </trkpt>
      <trkpt lat="23.016184" lon="109.698834">
        <ele>71.008705</ele>
        <time>2026-08-15T06:56:50.000Z</time>
      </trkpt>
      <trkpt lat="23.016146" lon="109.698874">
        <ele>71.013824</ele>
        <time>2026-08-15T06:56:51.000Z</time>
      </trkpt>
      <trkpt lat="23.016110" lon="109.698913">
        <ele>71.018743</ele>
        <time>2026-08-15T06:56:52.000Z</time>
      </trkpt>
      <trkpt lat="23.016073" lon="109.698953">
        <ele>71.023793</ele>
        <time>2026-08-15T06:56:53.000Z</time>
      </trkpt>
      <trkpt lat="23.016033" lon="109.698990">
        <ele>71.028876</ele>
        <time>2026-08-15T06:56:54.000Z</time>
      </trkpt>
      <trkpt lat="23.015993" lon="109.699026">
        <ele>71.033902</ele>
        <time>2026-08-15T06:56:55.000Z</time>
      </trkpt>
      <trkpt lat="23.015955" lon="109.699064">
        <ele>71.038899</ele>
        <time>2026-08-15T06:56:56.000Z</time>
      </trkpt>
      <trkpt lat="23.015917" lon="109.699103">
        <ele>71.045228</ele>
        <time>2026-08-15T06:56:57.000Z</time>
      </trkpt>
      <trkpt lat="23.015880" lon="109.699142">
        <ele>71.062319</ele>
        <time>2026-08-15T06:56:58.000Z</time>
      </trkpt>
      <trkpt lat="23.015844" lon="109.699182">
        <ele>71.079392</ele>
        <time>2026-08-15T06:56:59.000Z</time>
      </trkpt>
      <trkpt lat="23.015808" lon="109.699222">
        <ele>71.096464</ele>
        <time>2026-08-15T06:57:00.000Z</time>
      </trkpt>
      <trkpt lat="23.015771" lon="109.699260">
        <ele>71.113344</ele>
        <time>2026-08-15T06:57:01.000Z</time>
      </trkpt>
      <trkpt lat="23.015734" lon="109.699299">
        <ele>71.130436</ele>
        <time>2026-08-15T06:57:02.000Z</time>
      </trkpt>
      <trkpt lat="23.015695" lon="109.699337">
        <ele>71.147805</ele>
        <time>2026-08-15T06:57:03.000Z</time>
      </trkpt>
      <trkpt lat="23.015660" lon="109.699377">
        <ele>71.164647</ele>
        <time>2026-08-15T06:57:04.000Z</time>
      </trkpt>
      <trkpt lat="23.015624" lon="109.699417">
        <ele>71.181719</ele>
        <time>2026-08-15T06:57:05.000Z</time>
      </trkpt>
      <trkpt lat="23.015588" lon="109.699457">
        <ele>71.198791</ele>
        <time>2026-08-15T06:57:06.000Z</time>
      </trkpt>
      <trkpt lat="23.015552" lon="109.699496">
        <ele>71.215647</ele>
        <time>2026-08-15T06:57:07.000Z</time>
      </trkpt>
      <trkpt lat="23.015514" lon="109.699535">
        <ele>71.232978</ele>
        <time>2026-08-15T06:57:08.000Z</time>
      </trkpt>
      <trkpt lat="23.015477" lon="109.699574">
        <ele>71.250070</ele>
        <time>2026-08-15T06:57:09.000Z</time>
      </trkpt>
      <trkpt lat="23.015440" lon="109.699613">
        <ele>71.267161</ele>
        <time>2026-08-15T06:57:10.000Z</time>
      </trkpt>
      <trkpt lat="23.015404" lon="109.699653">
        <ele>71.284234</ele>
        <time>2026-08-15T06:57:11.000Z</time>
      </trkpt>
      <trkpt lat="23.015366" lon="109.699693">
        <ele>71.301776</ele>
        <time>2026-08-15T06:57:12.000Z</time>
      </trkpt>
      <trkpt lat="23.015327" lon="109.699733">
        <ele>71.319558</ele>
        <time>2026-08-15T06:57:13.000Z</time>
      </trkpt>
      <trkpt lat="23.015288" lon="109.699773">
        <ele>71.337339</ele>
        <time>2026-08-15T06:57:14.000Z</time>
      </trkpt>
      <trkpt lat="23.015250" lon="109.699814">
        <ele>71.355095</ele>
        <time>2026-08-15T06:57:15.000Z</time>
      </trkpt>
      <trkpt lat="23.015211" lon="109.699857">
        <ele>71.373518</ele>
        <time>2026-08-15T06:57:16.000Z</time>
      </trkpt>
      <trkpt lat="23.015172" lon="109.699898">
        <ele>71.391510</ele>
        <time>2026-08-15T06:57:17.000Z</time>
      </trkpt>
      <trkpt lat="23.015133" lon="109.699938">
        <ele>71.409292</ele>
        <time>2026-08-15T06:57:18.000Z</time>
      </trkpt>
      <trkpt lat="23.015092" lon="109.699978">
        <ele>71.427562</ele>
        <time>2026-08-15T06:57:19.000Z</time>
      </trkpt>
      <trkpt lat="23.015046" lon="109.700020">
        <ele>71.447484</ele>
        <time>2026-08-15T06:57:20.000Z</time>
      </trkpt>
      <trkpt lat="23.015004" lon="109.700062">
        <ele>71.466409</ele>
        <time>2026-08-15T06:57:21.000Z</time>
      </trkpt>
      <trkpt lat="23.014963" lon="109.700102">
        <ele>71.484679</ele>
        <time>2026-08-15T06:57:22.000Z</time>
      </trkpt>
      <trkpt lat="23.014924" lon="109.700144">
        <ele>71.502885</ele>
        <time>2026-08-15T06:57:23.000Z</time>
      </trkpt>
      <trkpt lat="23.014886" lon="109.700187">
        <ele>71.521076</ele>
        <time>2026-08-15T06:57:24.000Z</time>
      </trkpt>
      <trkpt lat="23.014847" lon="109.700226">
        <ele>71.538650</ele>
        <time>2026-08-15T06:57:25.000Z</time>
      </trkpt>
      <trkpt lat="23.014807" lon="109.700265">
        <ele>71.556469</ele>
        <time>2026-08-15T06:57:26.000Z</time>
      </trkpt>
      <trkpt lat="23.014768" lon="109.700305">
        <ele>71.574251</ele>
        <time>2026-08-15T06:57:27.000Z</time>
      </trkpt>
      <trkpt lat="23.014729" lon="109.700346">
        <ele>71.592244</ele>
        <time>2026-08-15T06:57:28.000Z</time>
      </trkpt>
      <trkpt lat="23.014689" lon="109.700388">
        <ele>71.610687</ele>
        <time>2026-08-15T06:57:29.000Z</time>
      </trkpt>
      <trkpt lat="23.014648" lon="109.700429">
        <ele>71.629162</ele>
        <time>2026-08-15T06:57:30.000Z</time>
      </trkpt>
      <trkpt lat="23.014608" lon="109.700469">
        <ele>71.648278</ele>
        <time>2026-08-15T06:57:31.000Z</time>
      </trkpt>
      <trkpt lat="23.014569" lon="109.700510">
        <ele>71.668919</ele>
        <time>2026-08-15T06:57:32.000Z</time>
      </trkpt>
      <trkpt lat="23.014531" lon="109.700551">
        <ele>71.689290</ele>
        <time>2026-08-15T06:57:33.000Z</time>
      </trkpt>
      <trkpt lat="23.014493" lon="109.700594">
        <ele>71.710159</ele>
        <time>2026-08-15T06:57:34.000Z</time>
      </trkpt>
      <trkpt lat="23.014454" lon="109.700635">
        <ele>71.730801</ele>
        <time>2026-08-15T06:57:35.000Z</time>
      </trkpt>
      <trkpt lat="23.014414" lon="109.700676">
        <ele>71.751718</ele>
        <time>2026-08-15T06:57:36.000Z</time>
      </trkpt>
      <trkpt lat="23.014375" lon="109.700717">
        <ele>71.772360</ele>
        <time>2026-08-15T06:57:37.000Z</time>
      </trkpt>
      <trkpt lat="23.014335" lon="109.700758">
        <ele>71.793277</ele>
        <time>2026-08-15T06:57:38.000Z</time>
      </trkpt>
      <trkpt lat="23.014297" lon="109.700799">
        <ele>71.813647</ele>
        <time>2026-08-15T06:57:39.000Z</time>
      </trkpt>
      <trkpt lat="23.014257" lon="109.700840">
        <ele>71.834564</ele>
        <time>2026-08-15T06:57:40.000Z</time>
      </trkpt>
      <trkpt lat="23.014217" lon="109.700882">
        <ele>71.855723</ele>
        <time>2026-08-15T06:57:41.000Z</time>
      </trkpt>
      <trkpt lat="23.014177" lon="109.700925">
        <ele>71.877126</ele>
        <time>2026-08-15T06:57:42.000Z</time>
      </trkpt>
      <trkpt lat="23.014137" lon="109.700967">
        <ele>71.898285</ele>
        <time>2026-08-15T06:57:43.000Z</time>
      </trkpt>
      <trkpt lat="23.014098" lon="109.701009">
        <ele>71.919172</ele>
        <time>2026-08-15T06:57:44.000Z</time>
      </trkpt>
      <trkpt lat="23.014058" lon="109.701051">
        <ele>71.940331</ele>
        <time>2026-08-15T06:57:45.000Z</time>
      </trkpt>
      <trkpt lat="23.014015" lon="109.701093">
        <ele>71.962324</ele>
        <time>2026-08-15T06:57:46.000Z</time>
      </trkpt>
      <trkpt lat="23.013973" lon="109.701136">
        <ele>71.984275</ele>
        <time>2026-08-15T06:57:47.000Z</time>
      </trkpt>
      <trkpt lat="23.013932" lon="109.701179">
        <ele>72.005950</ele>
        <time>2026-08-15T06:57:48.000Z</time>
      </trkpt>
      <trkpt lat="23.013890" lon="109.701220">
        <ele>72.027427</ele>
        <time>2026-08-15T06:57:49.000Z</time>
      </trkpt>
      <trkpt lat="23.013849" lon="109.701263">
        <ele>72.049103</ele>
        <time>2026-08-15T06:57:50.000Z</time>
      </trkpt>
      <trkpt lat="23.013808" lon="109.701306">
        <ele>72.070778</ele>
        <time>2026-08-15T06:57:51.000Z</time>
      </trkpt>
      <trkpt lat="23.013769" lon="109.701349">
        <ele>72.091913</ele>
        <time>2026-08-15T06:57:52.000Z</time>
      </trkpt>
      <trkpt lat="23.013726" lon="109.701390">
        <ele>72.113674</ele>
        <time>2026-08-15T06:57:53.000Z</time>
      </trkpt>
      <trkpt lat="23.013686" lon="109.701432">
        <ele>72.134833</ele>
        <time>2026-08-15T06:57:54.000Z</time>
      </trkpt>
      <trkpt lat="23.013647" lon="109.701473">
        <ele>72.155475</ele>
        <time>2026-08-15T06:57:55.000Z</time>
      </trkpt>
      <trkpt lat="23.013605" lon="109.701516">
        <ele>72.177426</ele>
        <time>2026-08-15T06:57:56.000Z</time>
      </trkpt>
      <trkpt lat="23.013563" lon="109.701556">
        <ele>72.198670</ele>
        <time>2026-08-15T06:57:57.000Z</time>
      </trkpt>
      <trkpt lat="23.013522" lon="109.701599">
        <ele>72.220345</ele>
        <time>2026-08-15T06:57:58.000Z</time>
      </trkpt>
      <trkpt lat="23.013482" lon="109.701642">
        <ele>72.241749</ele>
        <time>2026-08-15T06:57:59.000Z</time>
      </trkpt>
      <trkpt lat="23.013442" lon="109.701684">
        <ele>72.262908</ele>
        <time>2026-08-15T06:58:00.000Z</time>
      </trkpt>
      <trkpt lat="23.013401" lon="109.701724">
        <ele>72.283867</ele>
        <time>2026-08-15T06:58:01.000Z</time>
      </trkpt>
      <trkpt lat="23.013358" lon="109.701766">
        <ele>72.305861</ele>
        <time>2026-08-15T06:58:02.000Z</time>
      </trkpt>
      <trkpt lat="23.013319" lon="109.701809">
        <ele>72.328658</ele>
        <time>2026-08-15T06:58:03.000Z</time>
      </trkpt>
      <trkpt lat="23.013280" lon="109.701851">
        <ele>72.360831</ele>
        <time>2026-08-15T06:58:04.000Z</time>
      </trkpt>
      <trkpt lat="23.013242" lon="109.701892">
        <ele>72.392209</ele>
        <time>2026-08-15T06:58:05.000Z</time>
      </trkpt>
      <trkpt lat="23.013203" lon="109.701933">
        <ele>72.424004</ele>
        <time>2026-08-15T06:58:06.000Z</time>
      </trkpt>
      <trkpt lat="23.013165" lon="109.701972">
        <ele>72.454631</ele>
        <time>2026-08-15T06:58:07.000Z</time>
      </trkpt>
      <trkpt lat="23.013128" lon="109.702011">
        <ele>72.484835</ele>
        <time>2026-08-15T06:58:08.000Z</time>
      </trkpt>
      <trkpt lat="23.013089" lon="109.702049">
        <ele>72.515528</ele>
        <time>2026-08-15T06:58:09.000Z</time>
      </trkpt>
      <trkpt lat="23.013050" lon="109.702089">
        <ele>72.546951</ele>
        <time>2026-08-15T06:58:10.000Z</time>
      </trkpt>
      <trkpt lat="23.013013" lon="109.702129">
        <ele>72.577533</ele>
        <time>2026-08-15T06:58:11.000Z</time>
      </trkpt>
      <trkpt lat="23.012976" lon="109.702171">
        <ele>72.608885</ele>
        <time>2026-08-15T06:58:12.000Z</time>
      </trkpt>
      <trkpt lat="23.012939" lon="109.702211">
        <ele>72.639467</ele>
        <time>2026-08-15T06:58:13.000Z</time>
      </trkpt>
      <trkpt lat="23.012901" lon="109.702253">
        <ele>72.671227</ele>
        <time>2026-08-15T06:58:14.000Z</time>
      </trkpt>
      <trkpt lat="23.012862" lon="109.702293">
        <ele>72.702650</ele>
        <time>2026-08-15T06:58:15.000Z</time>
      </trkpt>
      <trkpt lat="23.012825" lon="109.702333">
        <ele>72.733232</ele>
        <time>2026-08-15T06:58:16.000Z</time>
      </trkpt>
      <trkpt lat="23.012788" lon="109.702372">
        <ele>72.763436</ele>
        <time>2026-08-15T06:58:17.000Z</time>
      </trkpt>
      <trkpt lat="23.012751" lon="109.702410">
        <ele>72.793266</ele>
        <time>2026-08-15T06:58:18.000Z</time>
      </trkpt>
      <trkpt lat="23.012713" lon="109.702448">
        <ele>72.823526</ele>
        <time>2026-08-15T06:58:19.000Z</time>
      </trkpt>
      <trkpt lat="23.012674" lon="109.702487">
        <ele>72.854581</ele>
        <time>2026-08-15T06:58:20.000Z</time>
      </trkpt>
      <trkpt lat="23.012637" lon="109.702529">
        <ele>72.885933</ele>
        <time>2026-08-15T06:58:21.000Z</time>
      </trkpt>
      <trkpt lat="23.012598" lon="109.702570">
        <ele>72.917729</ele>
        <time>2026-08-15T06:58:22.000Z</time>
      </trkpt>
      <trkpt lat="23.012558" lon="109.702610">
        <ele>72.949581</ele>
        <time>2026-08-15T06:58:23.000Z</time>
      </trkpt>
      <trkpt lat="23.012518" lon="109.702649">
        <ele>72.981070</ele>
        <time>2026-08-15T06:58:24.000Z</time>
      </trkpt>
      <trkpt lat="23.012479" lon="109.702690">
        <ele>73.012866</ele>
        <time>2026-08-15T06:58:25.000Z</time>
      </trkpt>
      <trkpt lat="23.012442" lon="109.702733">
        <ele>73.044610</ele>
        <time>2026-08-15T06:58:26.000Z</time>
      </trkpt>
      <trkpt lat="23.012403" lon="109.702775">
        <ele>73.076783</ele>
        <time>2026-08-15T06:58:27.000Z</time>
      </trkpt>
      <trkpt lat="23.012363" lon="109.702815">
        <ele>73.108635</ele>
        <time>2026-08-15T06:58:28.000Z</time>
      </trkpt>
      <trkpt lat="23.012323" lon="109.702856">
        <ele>73.140855</ele>
        <time>2026-08-15T06:58:29.000Z</time>
      </trkpt>
      <trkpt lat="23.012283" lon="109.702898">
        <ele>73.173447</ele>
        <time>2026-08-15T06:58:30.000Z</time>
      </trkpt>
      <trkpt lat="23.012243" lon="109.702939">
        <ele>73.205666</ele>
        <time>2026-08-15T06:58:31.000Z</time>
      </trkpt>
      <trkpt lat="23.012204" lon="109.702981">
        <ele>73.237840</ele>
        <time>2026-08-15T06:58:32.000Z</time>
      </trkpt>
      <trkpt lat="23.012166" lon="109.703023">
        <ele>73.269600</ele>
        <time>2026-08-15T06:58:33.000Z</time>
      </trkpt>
      <trkpt lat="23.012128" lon="109.703066">
        <ele>73.301746</ele>
        <time>2026-08-15T06:58:34.000Z</time>
      </trkpt>
      <trkpt lat="23.012091" lon="109.703107">
        <ele>73.332711</ele>
        <time>2026-08-15T06:58:35.000Z</time>
      </trkpt>
      <trkpt lat="23.012052" lon="109.703148">
        <ele>73.364507</ele>
        <time>2026-08-15T06:58:36.000Z</time>
      </trkpt>
      <trkpt lat="23.012013" lon="109.703188">
        <ele>73.393622</ele>
        <time>2026-08-15T06:58:37.000Z</time>
      </trkpt>
      <trkpt lat="23.011974" lon="109.703227">
        <ele>73.420737</ele>
        <time>2026-08-15T06:58:38.000Z</time>
      </trkpt>
      <trkpt lat="23.011935" lon="109.703268">
        <ele>73.448499</ele>
        <time>2026-08-15T06:58:39.000Z</time>
      </trkpt>
      <trkpt lat="23.011894" lon="109.703307">
        <ele>73.476375</ele>
        <time>2026-08-15T06:58:40.000Z</time>
      </trkpt>
      <trkpt lat="23.011853" lon="109.703346">
        <ele>73.504252</ele>
        <time>2026-08-15T06:58:41.000Z</time>
      </trkpt>
      <trkpt lat="23.011814" lon="109.703384">
        <ele>73.531050</ele>
        <time>2026-08-15T06:58:42.000Z</time>
      </trkpt>
      <trkpt lat="23.011776" lon="109.703424">
        <ele>73.558117</ele>
        <time>2026-08-15T06:58:43.000Z</time>
      </trkpt>
      <trkpt lat="23.011737" lon="109.703465">
        <ele>73.585878</ele>
        <time>2026-08-15T06:58:44.000Z</time>
      </trkpt>
      <trkpt lat="23.011698" lon="109.703505">
        <ele>73.613315</ele>
        <time>2026-08-15T06:58:45.000Z</time>
      </trkpt>
      <trkpt lat="23.011659" lon="109.703547">
        <ele>73.641406</ele>
        <time>2026-08-15T06:58:46.000Z</time>
      </trkpt>
      <trkpt lat="23.011620" lon="109.703589">
        <ele>73.669497</ele>
        <time>2026-08-15T06:58:47.000Z</time>
      </trkpt>
      <trkpt lat="23.011583" lon="109.703632">
        <ele>73.697212</ele>
        <time>2026-08-15T06:58:48.000Z</time>
      </trkpt>
      <trkpt lat="23.011546" lon="109.703674">
        <ele>73.724586</ele>
        <time>2026-08-15T06:58:49.000Z</time>
      </trkpt>
      <trkpt lat="23.011507" lon="109.703716">
        <ele>73.752677</ele>
        <time>2026-08-15T06:58:50.000Z</time>
      </trkpt>
      <trkpt lat="23.011468" lon="109.703756">
        <ele>73.780114</ele>
        <time>2026-08-15T06:58:51.000Z</time>
      </trkpt>
      <trkpt lat="23.011428" lon="109.703797">
        <ele>73.808245</ele>
        <time>2026-08-15T06:58:52.000Z</time>
      </trkpt>
      <trkpt lat="23.011389" lon="109.703837">
        <ele>73.835681</ele>
        <time>2026-08-15T06:58:53.000Z</time>
      </trkpt>
      <trkpt lat="23.011348" lon="109.703876">
        <ele>73.863558</ele>
        <time>2026-08-15T06:58:54.000Z</time>
      </trkpt>
      <trkpt lat="23.011306" lon="109.703916">
        <ele>73.892129</ele>
        <time>2026-08-15T06:58:55.000Z</time>
      </trkpt>
      <trkpt lat="23.011266" lon="109.703957">
        <ele>73.920261</ele>
        <time>2026-08-15T06:58:56.000Z</time>
      </trkpt>
      <trkpt lat="23.011227" lon="109.704000">
        <ele>73.948685</ele>
        <time>2026-08-15T06:58:57.000Z</time>
      </trkpt>
      <trkpt lat="23.011186" lon="109.704042">
        <ele>73.977512</ele>
        <time>2026-08-15T06:58:58.000Z</time>
      </trkpt>
      <trkpt lat="23.011146" lon="109.704085">
        <ele>74.006298</ele>
        <time>2026-08-15T06:58:59.000Z</time>
      </trkpt>
      <trkpt lat="23.011105" lon="109.704129">
        <ele>74.035778</ele>
        <time>2026-08-15T06:59:00.000Z</time>
      </trkpt>
      <trkpt lat="23.011065" lon="109.704173">
        <ele>74.064897</ele>
        <time>2026-08-15T06:59:01.000Z</time>
      </trkpt>
      <trkpt lat="23.011026" lon="109.704218">
        <ele>74.094000</ele>
        <time>2026-08-15T06:59:02.000Z</time>
      </trkpt>
      <trkpt lat="23.010986" lon="109.704265">
        <ele>74.124140</ele>
        <time>2026-08-15T06:59:03.000Z</time>
      </trkpt>
      <trkpt lat="23.010943" lon="109.704309">
        <ele>74.154357</ele>
        <time>2026-08-15T06:59:04.000Z</time>
      </trkpt>
      <trkpt lat="23.010894" lon="109.704353">
        <ele>74.186877</ele>
        <time>2026-08-15T06:59:05.000Z</time>
      </trkpt>
      <trkpt lat="23.010853" lon="109.704397">
        <ele>74.216358</ele>
        <time>2026-08-15T06:59:06.000Z</time>
      </trkpt>
      <trkpt lat="23.010813" lon="109.704443">
        <ele>74.246154</ele>
        <time>2026-08-15T06:59:07.000Z</time>
      </trkpt>
      <trkpt lat="23.010772" lon="109.704487">
        <ele>74.275635</ele>
        <time>2026-08-15T06:59:08.000Z</time>
      </trkpt>
      <trkpt lat="23.010728" lon="109.704531">
        <ele>74.298132</ele>
        <time>2026-08-15T06:59:09.000Z</time>
      </trkpt>
      <trkpt lat="23.010684" lon="109.704576">
        <ele>74.299187</ele>
        <time>2026-08-15T06:59:10.000Z</time>
      </trkpt>
      <trkpt lat="23.010640" lon="109.704620">
        <ele>74.300232</ele>
        <time>2026-08-15T06:59:11.000Z</time>
      </trkpt>
      <trkpt lat="23.010597" lon="109.704667">
        <ele>74.301297</ele>
        <time>2026-08-15T06:59:12.000Z</time>
      </trkpt>
      <trkpt lat="23.010553" lon="109.704713">
        <ele>74.302363</ele>
        <time>2026-08-15T06:59:13.000Z</time>
      </trkpt>
      <trkpt lat="23.010509" lon="109.704759">
        <ele>74.303430</ele>
        <time>2026-08-15T06:59:14.000Z</time>
      </trkpt>
      <trkpt lat="23.010466" lon="109.704803">
        <ele>74.304461</ele>
        <time>2026-08-15T06:59:15.000Z</time>
      </trkpt>
      <trkpt lat="23.010421" lon="109.704847">
        <ele>74.305518</ele>
        <time>2026-08-15T06:59:16.000Z</time>
      </trkpt>
      <trkpt lat="23.010377" lon="109.704892">
        <ele>74.306573</ele>
        <time>2026-08-15T06:59:17.000Z</time>
      </trkpt>
      <trkpt lat="23.010332" lon="109.704937">
        <ele>74.307641</ele>
        <time>2026-08-15T06:59:18.000Z</time>
      </trkpt>
      <trkpt lat="23.010288" lon="109.704984">
        <ele>74.308719</ele>
        <time>2026-08-15T06:59:19.000Z</time>
      </trkpt>
      <trkpt lat="23.010246" lon="109.705031">
        <ele>74.309772</ele>
        <time>2026-08-15T06:59:20.000Z</time>
      </trkpt>
      <trkpt lat="23.010206" lon="109.705087">
        <ele>74.310911</ele>
        <time>2026-08-15T06:59:21.000Z</time>
      </trkpt>
      <trkpt lat="23.010165" lon="109.705140">
        <ele>74.312024</ele>
        <time>2026-08-15T06:59:22.000Z</time>
      </trkpt>
      <trkpt lat="23.010121" lon="109.705191">
        <ele>74.313148</ele>
        <time>2026-08-15T06:59:23.000Z</time>
      </trkpt>
      <trkpt lat="23.010080" lon="109.705240">
        <ele>74.314212</ele>
        <time>2026-08-15T06:59:24.000Z</time>
      </trkpt>
      <trkpt lat="23.010036" lon="109.705287">
        <ele>74.315289</ele>
        <time>2026-08-15T06:59:25.000Z</time>
      </trkpt>
      <trkpt lat="23.009990" lon="109.705330">
        <ele>74.316349</ele>
        <time>2026-08-15T06:59:26.000Z</time>
      </trkpt>
      <trkpt lat="23.009945" lon="109.705374">
        <ele>74.317406</ele>
        <time>2026-08-15T06:59:27.000Z</time>
      </trkpt>
      <trkpt lat="23.009902" lon="109.705419">
        <ele>74.318449</ele>
        <time>2026-08-15T06:59:28.000Z</time>
      </trkpt>
      <trkpt lat="23.009857" lon="109.705467">
        <ele>74.319550</ele>
        <time>2026-08-15T06:59:29.000Z</time>
      </trkpt>
      <trkpt lat="23.009812" lon="109.705513">
        <ele>74.320629</ele>
        <time>2026-08-15T06:59:30.000Z</time>
      </trkpt>
      <trkpt lat="23.009764" lon="109.705558">
        <ele>74.321736</ele>
        <time>2026-08-15T06:59:31.000Z</time>
      </trkpt>
      <trkpt lat="23.009719" lon="109.705602">
        <ele>74.322794</ele>
        <time>2026-08-15T06:59:32.000Z</time>
      </trkpt>
      <trkpt lat="23.009675" lon="109.705647">
        <ele>74.323849</ele>
        <time>2026-08-15T06:59:33.000Z</time>
      </trkpt>
      <trkpt lat="23.009631" lon="109.705694">
        <ele>74.324926</ele>
        <time>2026-08-15T06:59:34.000Z</time>
      </trkpt>
      <trkpt lat="23.009587" lon="109.705739">
        <ele>74.325982</ele>
        <time>2026-08-15T06:59:35.000Z</time>
      </trkpt>
      <trkpt lat="23.009543" lon="109.705786">
        <ele>74.327059</ele>
        <time>2026-08-15T06:59:36.000Z</time>
      </trkpt>
      <trkpt lat="23.009499" lon="109.705831">
        <ele>74.328114</ele>
        <time>2026-08-15T06:59:37.000Z</time>
      </trkpt>
      <trkpt lat="23.009455" lon="109.705876">
        <ele>74.329170</ele>
        <time>2026-08-15T06:59:38.000Z</time>
      </trkpt>
      <trkpt lat="23.009411" lon="109.705920">
        <ele>74.319382</ele>
        <time>2026-08-15T06:59:39.000Z</time>
      </trkpt>
      <trkpt lat="23.009365" lon="109.705965">
        <ele>74.308249</ele>
        <time>2026-08-15T06:59:40.000Z</time>
      </trkpt>
      <trkpt lat="23.009321" lon="109.706011">
        <ele>74.297267</ele>
        <time>2026-08-15T06:59:41.000Z</time>
      </trkpt>
      <trkpt lat="23.009278" lon="109.706059">
        <ele>74.286178</ele>
        <time>2026-08-15T06:59:42.000Z</time>
      </trkpt>
      <trkpt lat="23.009234" lon="109.706108">
        <ele>74.274846</ele>
        <time>2026-08-15T06:59:43.000Z</time>
      </trkpt>
      <trkpt lat="23.009191" lon="109.706155">
        <ele>74.263876</ele>
        <time>2026-08-15T06:59:44.000Z</time>
      </trkpt>
      <trkpt lat="23.009148" lon="109.706201">
        <ele>74.253022</ele>
        <time>2026-08-15T06:59:45.000Z</time>
      </trkpt>
      <trkpt lat="23.009103" lon="109.706249">
        <ele>74.241680</ele>
        <time>2026-08-15T06:59:46.000Z</time>
      </trkpt>
      <trkpt lat="23.009059" lon="109.706298">
        <ele>74.230348</ele>
        <time>2026-08-15T06:59:47.000Z</time>
      </trkpt>
      <trkpt lat="23.009014" lon="109.706348">
        <ele>74.218771</ele>
        <time>2026-08-15T06:59:48.000Z</time>
      </trkpt>
      <trkpt lat="23.008969" lon="109.706397">
        <ele>74.207312</ele>
        <time>2026-08-15T06:59:49.000Z</time>
      </trkpt>
      <trkpt lat="23.008924" lon="109.706447">
        <ele>74.195736</ele>
        <time>2026-08-15T06:59:50.000Z</time>
      </trkpt>
      <trkpt lat="23.008882" lon="109.706498">
        <ele>74.184407</ele>
        <time>2026-08-15T06:59:51.000Z</time>
      </trkpt>
      <trkpt lat="23.008837" lon="109.706547">
        <ele>74.172948</ele>
        <time>2026-08-15T06:59:52.000Z</time>
      </trkpt>
      <trkpt lat="23.008795" lon="109.706597">
        <ele>74.161742</ele>
        <time>2026-08-15T06:59:53.000Z</time>
      </trkpt>
      <trkpt lat="23.008753" lon="109.706647">
        <ele>74.150536</ele>
        <time>2026-08-15T06:59:54.000Z</time>
      </trkpt>
      <trkpt lat="23.008710" lon="109.706695">
        <ele>74.139448</ele>
        <time>2026-08-15T06:59:55.000Z</time>
      </trkpt>
      <trkpt lat="23.008667" lon="109.706744">
        <ele>74.128241</ele>
        <time>2026-08-15T06:59:56.000Z</time>
      </trkpt>
      <trkpt lat="23.008625" lon="109.706794">
        <ele>74.117035</ele>
        <time>2026-08-15T06:59:57.000Z</time>
      </trkpt>
      <trkpt lat="23.008584" lon="109.706844">
        <ele>74.105949</ele>
        <time>2026-08-15T06:59:58.000Z</time>
      </trkpt>
      <trkpt lat="23.008543" lon="109.706893">
        <ele>74.094987</ele>
        <time>2026-08-15T06:59:59.000Z</time>
      </trkpt>
      <trkpt lat="23.008503" lon="109.706943">
        <ele>74.084020</ele>
        <time>2026-08-15T07:00:00.000Z</time>
      </trkpt>
      <trkpt lat="23.008465" lon="109.706993">
        <ele>74.073286</ele>
        <time>2026-08-15T07:00:01.000Z</time>
      </trkpt>
      <trkpt lat="23.008425" lon="109.707041">
        <ele>74.062567</ele>
        <time>2026-08-15T07:00:02.000Z</time>
      </trkpt>
      <trkpt lat="23.008386" lon="109.707089">
        <ele>74.051968</ele>
        <time>2026-08-15T07:00:03.000Z</time>
      </trkpt>
      <trkpt lat="23.008346" lon="109.707137">
        <ele>74.041249</ele>
        <time>2026-08-15T07:00:04.000Z</time>
      </trkpt>
      <trkpt lat="23.008308" lon="109.707185">
        <ele>74.030768</ele>
        <time>2026-08-15T07:00:05.000Z</time>
      </trkpt>
      <trkpt lat="23.008270" lon="109.707234">
        <ele>74.020161</ele>
        <time>2026-08-15T07:00:06.000Z</time>
      </trkpt>
      <trkpt lat="23.008231" lon="109.707284">
        <ele>74.009311</ele>
        <time>2026-08-15T07:00:07.000Z</time>
      </trkpt>
      <trkpt lat="23.008190" lon="109.707333">
        <ele>73.993470</ele>
        <time>2026-08-15T07:00:08.000Z</time>
      </trkpt>
      <trkpt lat="23.008149" lon="109.707382">
        <ele>73.975295</ele>
        <time>2026-08-15T07:00:09.000Z</time>
      </trkpt>
      <trkpt lat="23.008109" lon="109.707432">
        <ele>73.957113</ele>
        <time>2026-08-15T07:00:10.000Z</time>
      </trkpt>
      <trkpt lat="23.008069" lon="109.707482">
        <ele>73.938931</ele>
        <time>2026-08-15T07:00:11.000Z</time>
      </trkpt>
      <trkpt lat="23.008029" lon="109.707530">
        <ele>73.921159</ele>
        <time>2026-08-15T07:00:12.000Z</time>
      </trkpt>
      <trkpt lat="23.007989" lon="109.707579">
        <ele>73.903183</ele>
        <time>2026-08-15T07:00:13.000Z</time>
      </trkpt>
      <trkpt lat="23.007951" lon="109.707628">
        <ele>73.885598</ele>
        <time>2026-08-15T07:00:14.000Z</time>
      </trkpt>
      <trkpt lat="23.007913" lon="109.707676">
        <ele>73.868221</ele>
        <time>2026-08-15T07:00:15.000Z</time>
      </trkpt>
      <trkpt lat="23.007875" lon="109.707726">
        <ele>73.850424</ele>
        <time>2026-08-15T07:00:16.000Z</time>
      </trkpt>
      <trkpt lat="23.007840" lon="109.707776">
        <ele>73.833183</ele>
        <time>2026-08-15T07:00:17.000Z</time>
      </trkpt>
      <trkpt lat="23.007804" lon="109.707826">
        <ele>73.815760</ele>
        <time>2026-08-15T07:00:18.000Z</time>
      </trkpt>
      <trkpt lat="23.007769" lon="109.707873">
        <ele>73.799167</ele>
        <time>2026-08-15T07:00:19.000Z</time>
      </trkpt>
      <trkpt lat="23.007735" lon="109.707921">
        <ele>73.782544</ele>
        <time>2026-08-15T07:00:20.000Z</time>
      </trkpt>
      <trkpt lat="23.007700" lon="109.707967">
        <ele>73.766163</ele>
        <time>2026-08-15T07:00:21.000Z</time>
      </trkpt>
      <trkpt lat="23.007664" lon="109.708013">
        <ele>73.749591</ele>
        <time>2026-08-15T07:00:22.000Z</time>
      </trkpt>
      <trkpt lat="23.007630" lon="109.708060">
        <ele>73.733184</ele>
        <time>2026-08-15T07:00:23.000Z</time>
      </trkpt>
      <trkpt lat="23.007597" lon="109.708108">
        <ele>73.716740</ele>
        <time>2026-08-15T07:00:24.000Z</time>
      </trkpt>
      <trkpt lat="23.007564" lon="109.708158">
        <ele>73.699854</ele>
        <time>2026-08-15T07:00:25.000Z</time>
      </trkpt>
      <trkpt lat="23.007530" lon="109.708207">
        <ele>73.683012</ele>
        <time>2026-08-15T07:00:26.000Z</time>
      </trkpt>
      <trkpt lat="23.007493" lon="109.708254">
        <ele>73.666037</ele>
        <time>2026-08-15T07:00:27.000Z</time>
      </trkpt>
      <trkpt lat="23.007459" lon="109.708303">
        <ele>73.649195</ele>
        <time>2026-08-15T07:00:28.000Z</time>
      </trkpt>
      <trkpt lat="23.007425" lon="109.708352">
        <ele>73.632353</ele>
        <time>2026-08-15T07:00:29.000Z</time>
      </trkpt>
      <trkpt lat="23.007393" lon="109.708400">
        <ele>73.616086</ele>
        <time>2026-08-15T07:00:30.000Z</time>
      </trkpt>
      <trkpt lat="23.007360" lon="109.708449">
        <ele>73.599422</ele>
        <time>2026-08-15T07:00:31.000Z</time>
      </trkpt>
      <trkpt lat="23.007326" lon="109.708499">
        <ele>73.582360</ele>
        <time>2026-08-15T07:00:32.000Z</time>
      </trkpt>
      <trkpt lat="23.007291" lon="109.708549">
        <ele>73.565119</ele>
        <time>2026-08-15T07:00:33.000Z</time>
      </trkpt>
      <trkpt lat="23.007257" lon="109.708598">
        <ele>73.548277</ele>
        <time>2026-08-15T07:00:34.000Z</time>
      </trkpt>
      <trkpt lat="23.007222" lon="109.708648">
        <ele>73.531036</ele>
        <time>2026-08-15T07:00:35.000Z</time>
      </trkpt>
      <trkpt lat="23.007188" lon="109.708698">
        <ele>73.513974</ele>
        <time>2026-08-15T07:00:36.000Z</time>
      </trkpt>
      <trkpt lat="23.007154" lon="109.708750">
        <ele>73.496468</ele>
        <time>2026-08-15T07:00:37.000Z</time>
      </trkpt>
      <trkpt lat="23.007121" lon="109.708803">
        <ele>73.478905</ele>
        <time>2026-08-15T07:00:38.000Z</time>
      </trkpt>
      <trkpt lat="23.007089" lon="109.708856">
        <ele>73.469508</ele>
        <time>2026-08-15T07:00:39.000Z</time>
      </trkpt>
      <trkpt lat="23.007055" lon="109.708905">
        <ele>73.469662</ele>
        <time>2026-08-15T07:00:40.000Z</time>
      </trkpt>
      <trkpt lat="23.007020" lon="109.708955">
        <ele>73.469819</ele>
        <time>2026-08-15T07:00:41.000Z</time>
      </trkpt>
      <trkpt lat="23.006987" lon="109.709005">
        <ele>73.469973</ele>
        <time>2026-08-15T07:00:42.000Z</time>
      </trkpt>
      <trkpt lat="23.006954" lon="109.709056">
        <ele>73.470130</ele>
        <time>2026-08-15T07:00:43.000Z</time>
      </trkpt>
      <trkpt lat="23.006921" lon="109.709106">
        <ele>73.470284</ele>
        <time>2026-08-15T07:00:44.000Z</time>
      </trkpt>
      <trkpt lat="23.006889" lon="109.709158">
        <ele>73.470441</ele>
        <time>2026-08-15T07:00:45.000Z</time>
      </trkpt>
      <trkpt lat="23.006859" lon="109.709209">
        <ele>73.470593</ele>
        <time>2026-08-15T07:00:46.000Z</time>
      </trkpt>
      <trkpt lat="23.006829" lon="109.709260">
        <ele>73.470744</ele>
        <time>2026-08-15T07:00:47.000Z</time>
      </trkpt>
      <trkpt lat="23.006799" lon="109.709309">
        <ele>73.470892</ele>
        <time>2026-08-15T07:00:48.000Z</time>
      </trkpt>
      <trkpt lat="23.006769" lon="109.709358">
        <ele>73.471039</ele>
        <time>2026-08-15T07:00:49.000Z</time>
      </trkpt>
      <trkpt lat="23.006740" lon="109.709407">
        <ele>73.471186</ele>
        <time>2026-08-15T07:00:50.000Z</time>
      </trkpt>
      <trkpt lat="23.006711" lon="109.709456">
        <ele>73.471332</ele>
        <time>2026-08-15T07:00:51.000Z</time>
      </trkpt>
      <trkpt lat="23.006683" lon="109.709503">
        <ele>73.471472</ele>
        <time>2026-08-15T07:00:52.000Z</time>
      </trkpt>
      <trkpt lat="23.006653" lon="109.709550">
        <ele>73.471615</ele>
        <time>2026-08-15T07:00:53.000Z</time>
      </trkpt>
      <trkpt lat="23.006623" lon="109.709598">
        <ele>73.471761</ele>
        <time>2026-08-15T07:00:54.000Z</time>
      </trkpt>
      <trkpt lat="23.006594" lon="109.709645">
        <ele>73.471903</ele>
        <time>2026-08-15T07:00:55.000Z</time>
      </trkpt>
      <trkpt lat="23.006565" lon="109.709694">
        <ele>73.472049</ele>
        <time>2026-08-15T07:00:56.000Z</time>
      </trkpt>
      <trkpt lat="23.006536" lon="109.709742">
        <ele>73.472193</ele>
        <time>2026-08-15T07:00:57.000Z</time>
      </trkpt>
      <trkpt lat="23.006509" lon="109.709791">
        <ele>73.472336</ele>
        <time>2026-08-15T07:00:58.000Z</time>
      </trkpt>
      <trkpt lat="23.006482" lon="109.709841">
        <ele>73.472481</ele>
        <time>2026-08-15T07:00:59.000Z</time>
      </trkpt>
      <trkpt lat="23.006452" lon="109.709890">
        <ele>73.472629</ele>
        <time>2026-08-15T07:01:00.000Z</time>
      </trkpt>
      <trkpt lat="23.006423" lon="109.709939">
        <ele>73.472775</ele>
        <time>2026-08-15T07:01:01.000Z</time>
      </trkpt>
      <trkpt lat="23.006391" lon="109.709985">
        <ele>73.472919</ele>
        <time>2026-08-15T07:01:02.000Z</time>
      </trkpt>
      <trkpt lat="23.006359" lon="109.710031">
        <ele>73.473064</ele>
        <time>2026-08-15T07:01:03.000Z</time>
      </trkpt>
      <trkpt lat="23.006329" lon="109.710078">
        <ele>73.473207</ele>
        <time>2026-08-15T07:01:04.000Z</time>
      </trkpt>
      <trkpt lat="23.006297" lon="109.710125">
        <ele>73.473354</ele>
        <time>2026-08-15T07:01:05.000Z</time>
      </trkpt>
      <trkpt lat="23.006262" lon="109.710168">
        <ele>73.473498</ele>
        <time>2026-08-15T07:01:06.000Z</time>
      </trkpt>
      <trkpt lat="23.006226" lon="109.710212">
        <ele>73.473645</ele>
        <time>2026-08-15T07:01:07.000Z</time>
      </trkpt>
      <trkpt lat="23.006198" lon="109.710260">
        <ele>73.473788</ele>
        <time>2026-08-15T07:01:08.000Z</time>
      </trkpt>
      <trkpt lat="23.006171" lon="109.710314">
        <ele>73.473942</ele>
        <time>2026-08-15T07:01:09.000Z</time>
      </trkpt>
      <trkpt lat="23.006142" lon="109.710367">
        <ele>73.474097</ele>
        <time>2026-08-15T07:01:10.000Z</time>
      </trkpt>
      <trkpt lat="23.006112" lon="109.710418">
        <ele>73.474248</ele>
        <time>2026-08-15T07:01:11.000Z</time>
      </trkpt>
      <trkpt lat="23.006083" lon="109.710471">
        <ele>73.491184</ele>
        <time>2026-08-15T07:01:12.000Z</time>
      </trkpt>
      <trkpt lat="23.006055" lon="109.710525">
        <ele>73.529586</ele>
        <time>2026-08-15T07:01:13.000Z</time>
      </trkpt>
      <trkpt lat="23.006025" lon="109.710580">
        <ele>73.569199</ele>
        <time>2026-08-15T07:01:14.000Z</time>
      </trkpt>
      <trkpt lat="23.005997" lon="109.710635">
        <ele>73.608143</ele>
        <time>2026-08-15T07:01:15.000Z</time>
      </trkpt>
      <trkpt lat="23.005967" lon="109.710690">
        <ele>73.647756</ele>
        <time>2026-08-15T07:01:16.000Z</time>
      </trkpt>
      <trkpt lat="23.005938" lon="109.710743">
        <ele>73.685960</ele>
        <time>2026-08-15T07:01:17.000Z</time>
      </trkpt>
      <trkpt lat="23.005912" lon="109.710797">
        <ele>73.723720</ele>
        <time>2026-08-15T07:01:18.000Z</time>
      </trkpt>
      <trkpt lat="23.005883" lon="109.710851">
        <ele>73.762458</ele>
        <time>2026-08-15T07:01:19.000Z</time>
      </trkpt>
      <trkpt lat="23.005854" lon="109.710905">
        <ele>73.801195</ele>
        <time>2026-08-15T07:01:20.000Z</time>
      </trkpt>
      <trkpt lat="23.005828" lon="109.710957">
        <ele>73.837862</ele>
        <time>2026-08-15T07:01:21.000Z</time>
      </trkpt>
      <trkpt lat="23.005801" lon="109.711009">
        <ele>73.874855</ele>
        <time>2026-08-15T07:01:22.000Z</time>
      </trkpt>
      <trkpt lat="23.005773" lon="109.711061">
        <ele>73.912183</ele>
        <time>2026-08-15T07:01:23.000Z</time>
      </trkpt>
      <trkpt lat="23.005744" lon="109.711111">
        <ele>73.948801</ele>
        <time>2026-08-15T07:01:24.000Z</time>
      </trkpt>
      <trkpt lat="23.005716" lon="109.711162">
        <ele>73.985596</ele>
        <time>2026-08-15T07:01:25.000Z</time>
      </trkpt>
      <trkpt lat="23.005688" lon="109.711213">
        <ele>74.022390</ele>
        <time>2026-08-15T07:01:26.000Z</time>
      </trkpt>
      <trkpt lat="23.005659" lon="109.711264">
        <ele>74.059534</ele>
        <time>2026-08-15T07:01:27.000Z</time>
      </trkpt>
      <trkpt lat="23.005630" lon="109.711313">
        <ele>74.095630</ele>
        <time>2026-08-15T07:01:28.000Z</time>
      </trkpt>
      <trkpt lat="23.005600" lon="109.711361">
        <ele>74.131580</ele>
        <time>2026-08-15T07:01:29.000Z</time>
      </trkpt>
      <trkpt lat="23.005570" lon="109.711409">
        <ele>74.167529</ele>
        <time>2026-08-15T07:01:30.000Z</time>
      </trkpt>
      <trkpt lat="23.005544" lon="109.711458">
        <ele>74.202574</ele>
        <time>2026-08-15T07:01:31.000Z</time>
      </trkpt>
      <trkpt lat="23.005517" lon="109.711509">
        <ele>74.239028</ele>
        <time>2026-08-15T07:01:32.000Z</time>
      </trkpt>
      <trkpt lat="23.005489" lon="109.711557">
        <ele>74.274240</ele>
        <time>2026-08-15T07:01:33.000Z</time>
      </trkpt>
      <trkpt lat="23.005459" lon="109.711604">
        <ele>74.309678</ele>
        <time>2026-08-15T07:01:34.000Z</time>
      </trkpt>
      <trkpt lat="23.005430" lon="109.711650">
        <ele>74.344225</ele>
        <time>2026-08-15T07:01:35.000Z</time>
      </trkpt>
      <trkpt lat="23.005402" lon="109.711696">
        <ele>74.378396</ele>
        <time>2026-08-15T07:01:36.000Z</time>
      </trkpt>
      <trkpt lat="23.005374" lon="109.711741">
        <ele>74.412052</ele>
        <time>2026-08-15T07:01:37.000Z</time>
      </trkpt>
      <trkpt lat="23.005349" lon="109.711786">
        <ele>74.444619</ele>
        <time>2026-08-15T07:01:38.000Z</time>
      </trkpt>
      <trkpt lat="23.005324" lon="109.711831">
        <ele>74.477187</ele>
        <time>2026-08-15T07:01:39.000Z</time>
      </trkpt>
      <trkpt lat="23.005297" lon="109.711876">
        <ele>74.510471</ele>
        <time>2026-08-15T07:01:40.000Z</time>
      </trkpt>
      <trkpt lat="23.005270" lon="109.711921">
        <ele>74.543754</ele>
        <time>2026-08-15T07:01:41.000Z</time>
      </trkpt>
      <trkpt lat="23.005244" lon="109.711964">
        <ele>74.575632</ele>
        <time>2026-08-15T07:01:42.000Z</time>
      </trkpt>
      <trkpt lat="23.005217" lon="109.712007">
        <ele>74.607884</ele>
        <time>2026-08-15T07:01:43.000Z</time>
      </trkpt>
      <trkpt lat="23.005192" lon="109.712051">
        <ele>74.639923</ele>
        <time>2026-08-15T07:01:44.000Z</time>
      </trkpt>
      <trkpt lat="23.005167" lon="109.712095">
        <ele>74.671962</ele>
        <time>2026-08-15T07:01:45.000Z</time>
      </trkpt>
      <trkpt lat="23.005141" lon="109.712138">
        <ele>74.722764</ele>
        <time>2026-08-15T07:01:46.000Z</time>
      </trkpt>
      <trkpt lat="23.005116" lon="109.712182">
        <ele>74.787154</ele>
        <time>2026-08-15T07:01:47.000Z</time>
      </trkpt>
      <trkpt lat="23.005092" lon="109.712227">
        <ele>74.851918</ele>
        <time>2026-08-15T07:01:48.000Z</time>
      </trkpt>
      <trkpt lat="23.005067" lon="109.712271">
        <ele>74.916308</ele>
        <time>2026-08-15T07:01:49.000Z</time>
      </trkpt>
      <trkpt lat="23.005043" lon="109.712315">
        <ele>74.979998</ele>
        <time>2026-08-15T07:01:50.000Z</time>
      </trkpt>
      <trkpt lat="23.005019" lon="109.712358">
        <ele>75.042620</ele>
        <time>2026-08-15T07:01:51.000Z</time>
      </trkpt>
      <trkpt lat="23.004993" lon="109.712401">
        <ele>75.106686</ele>
        <time>2026-08-15T07:01:52.000Z</time>
      </trkpt>
      <trkpt lat="23.004964" lon="109.712444">
        <ele>75.173068</ele>
        <time>2026-08-15T07:01:53.000Z</time>
      </trkpt>
      <trkpt lat="23.004939" lon="109.712487">
        <ele>75.236402</ele>
        <time>2026-08-15T07:01:54.000Z</time>
      </trkpt>
      <trkpt lat="23.004914" lon="109.712530">
        <ele>75.299736</ele>
        <time>2026-08-15T07:01:55.000Z</time>
      </trkpt>
      <trkpt lat="23.004890" lon="109.712573">
        <ele>75.362358</ele>
        <time>2026-08-15T07:01:56.000Z</time>
      </trkpt>
      <trkpt lat="23.004866" lon="109.712615">
        <ele>75.423918</ele>
        <time>2026-08-15T07:01:57.000Z</time>
      </trkpt>
      <trkpt lat="23.004841" lon="109.712658">
        <ele>75.487252</ele>
        <time>2026-08-15T07:01:58.000Z</time>
      </trkpt>
      <trkpt lat="23.004816" lon="109.712702">
        <ele>75.551642</ele>
        <time>2026-08-15T07:01:59.000Z</time>
      </trkpt>
      <trkpt lat="23.004791" lon="109.712746">
        <ele>75.616033</ele>
        <time>2026-08-15T07:02:00.000Z</time>
      </trkpt>
      <trkpt lat="23.004765" lon="109.712789">
        <ele>75.680099</ele>
        <time>2026-08-15T07:02:01.000Z</time>
      </trkpt>
      <trkpt lat="23.004739" lon="109.712833">
        <ele>75.745210</ele>
        <time>2026-08-15T07:02:02.000Z</time>
      </trkpt>
      <trkpt lat="23.004714" lon="109.712876">
        <ele>75.808544</ele>
        <time>2026-08-15T07:02:03.000Z</time>
      </trkpt>
      <trkpt lat="23.004688" lon="109.712920">
        <ele>75.873655</ele>
        <time>2026-08-15T07:02:04.000Z</time>
      </trkpt>
      <trkpt lat="23.004661" lon="109.712964">
        <ele>75.939507</ele>
        <time>2026-08-15T07:02:05.000Z</time>
      </trkpt>
      <trkpt lat="23.004635" lon="109.713008">
        <ele>76.004618</ele>
        <time>2026-08-15T07:02:06.000Z</time>
      </trkpt>
      <trkpt lat="23.004608" lon="109.713053">
        <ele>76.071510</ele>
        <time>2026-08-15T07:02:07.000Z</time>
      </trkpt>
      <trkpt lat="23.004582" lon="109.713099">
        <ele>76.138730</ele>
        <time>2026-08-15T07:02:08.000Z</time>
      </trkpt>
      <trkpt lat="23.004555" lon="109.713144">
        <ele>76.205621</ele>
        <time>2026-08-15T07:02:09.000Z</time>
      </trkpt>
      <trkpt lat="23.004529" lon="109.713189">
        <ele>76.271784</ele>
        <time>2026-08-15T07:02:10.000Z</time>
      </trkpt>
      <trkpt lat="23.004501" lon="109.713233">
        <ele>76.338396</ele>
        <time>2026-08-15T07:02:11.000Z</time>
      </trkpt>
      <trkpt lat="23.004475" lon="109.713278">
        <ele>76.404558</ele>
        <time>2026-08-15T07:02:12.000Z</time>
      </trkpt>
      <trkpt lat="23.004449" lon="109.713324">
        <ele>76.471779</ele>
        <time>2026-08-15T07:02:13.000Z</time>
      </trkpt>
      <trkpt lat="23.004423" lon="109.713370">
        <ele>76.538999</ele>
        <time>2026-08-15T07:02:14.000Z</time>
      </trkpt>
      <trkpt lat="23.004395" lon="109.713416">
        <ele>76.607674</ele>
        <time>2026-08-15T07:02:15.000Z</time>
      </trkpt>
      <trkpt lat="23.004369" lon="109.713462">
        <ele>76.674895</ele>
        <time>2026-08-15T07:02:16.000Z</time>
      </trkpt>
      <trkpt lat="23.004342" lon="109.713508">
        <ele>76.742833</ele>
        <time>2026-08-15T07:02:17.000Z</time>
      </trkpt>
      <trkpt lat="23.004316" lon="109.713553">
        <ele>76.808995</ele>
        <time>2026-08-15T07:02:18.000Z</time>
      </trkpt>
      <trkpt lat="23.004289" lon="109.713599">
        <ele>76.876934</ele>
        <time>2026-08-15T07:02:19.000Z</time>
      </trkpt>
      <trkpt lat="23.004263" lon="109.713644">
        <ele>76.943096</ele>
        <time>2026-08-15T07:02:20.000Z</time>
      </trkpt>
      <trkpt lat="23.004236" lon="109.713690">
        <ele>77.011034</ele>
        <time>2026-08-15T07:02:21.000Z</time>
      </trkpt>
      <trkpt lat="23.004210" lon="109.713735">
        <ele>77.077197</ele>
        <time>2026-08-15T07:02:22.000Z</time>
      </trkpt>
      <trkpt lat="23.004183" lon="109.713779">
        <ele>77.138773</ele>
        <time>2026-08-15T07:02:23.000Z</time>
      </trkpt>
      <trkpt lat="23.004156" lon="109.713824">
        <ele>77.194049</ele>
        <time>2026-08-15T07:02:24.000Z</time>
      </trkpt>
      <trkpt lat="23.004129" lon="109.713868">
        <ele>77.248466</ele>
        <time>2026-08-15T07:02:25.000Z</time>
      </trkpt>
      <trkpt lat="23.004103" lon="109.713912">
        <ele>77.302271</ele>
        <time>2026-08-15T07:02:26.000Z</time>
      </trkpt>
      <trkpt lat="23.004077" lon="109.713957">
        <ele>77.356944</ele>
        <time>2026-08-15T07:02:27.000Z</time>
      </trkpt>
      <trkpt lat="23.004051" lon="109.714002">
        <ele>77.411618</ele>
        <time>2026-08-15T07:02:28.000Z</time>
      </trkpt>
      <trkpt lat="23.004024" lon="109.714047">
        <ele>77.466894</ele>
        <time>2026-08-15T07:02:29.000Z</time>
      </trkpt>
      <trkpt lat="23.003998" lon="109.714091">
        <ele>77.520699</ele>
        <time>2026-08-15T07:02:30.000Z</time>
      </trkpt>
      <trkpt lat="23.003970" lon="109.714136">
        <ele>77.576593</ele>
        <time>2026-08-15T07:02:31.000Z</time>
      </trkpt>
      <trkpt lat="23.003943" lon="109.714181">
        <ele>77.631869</ele>
        <time>2026-08-15T07:02:32.000Z</time>
      </trkpt>
      <trkpt lat="23.003915" lon="109.714226">
        <ele>77.687763</ele>
        <time>2026-08-15T07:02:33.000Z</time>
      </trkpt>
      <trkpt lat="23.003887" lon="109.714271">
        <ele>77.743658</ele>
        <time>2026-08-15T07:02:34.000Z</time>
      </trkpt>
      <trkpt lat="23.003860" lon="109.714316">
        <ele>77.798934</ele>
        <time>2026-08-15T07:02:35.000Z</time>
      </trkpt>
      <trkpt lat="23.003835" lon="109.714361">
        <ele>77.853021</ele>
        <time>2026-08-15T07:02:36.000Z</time>
      </trkpt>
      <trkpt lat="23.003809" lon="109.714405">
        <ele>77.906826</ele>
        <time>2026-08-15T07:02:37.000Z</time>
      </trkpt>
      <trkpt lat="23.003783" lon="109.714450">
        <ele>77.961500</ele>
        <time>2026-08-15T07:02:38.000Z</time>
      </trkpt>
      <trkpt lat="23.003757" lon="109.714497">
        <ele>78.017927</ele>
        <time>2026-08-15T07:02:39.000Z</time>
      </trkpt>
      <trkpt lat="23.003731" lon="109.714542">
        <ele>78.072601</ele>
        <time>2026-08-15T07:02:40.000Z</time>
      </trkpt>
      <trkpt lat="23.003704" lon="109.714587">
        <ele>78.127877</ele>
        <time>2026-08-15T07:02:41.000Z</time>
      </trkpt>
      <trkpt lat="23.003677" lon="109.714631">
        <ele>78.182294</ele>
        <time>2026-08-15T07:02:42.000Z</time>
      </trkpt>
      <trkpt lat="23.003650" lon="109.714676">
        <ele>78.237570</ele>
        <time>2026-08-15T07:02:43.000Z</time>
      </trkpt>
      <trkpt lat="23.003623" lon="109.714720">
        <ele>78.291987</ele>
        <time>2026-08-15T07:02:44.000Z</time>
      </trkpt>
      <trkpt lat="23.003596" lon="109.714765">
        <ele>78.347263</ele>
        <time>2026-08-15T07:02:45.000Z</time>
      </trkpt>
      <trkpt lat="23.003570" lon="109.714810">
        <ele>78.401937</ele>
        <time>2026-08-15T07:02:46.000Z</time>
      </trkpt>
      <trkpt lat="23.003545" lon="109.714856">
        <ele>78.456908</ele>
        <time>2026-08-15T07:02:47.000Z</time>
      </trkpt>
      <trkpt lat="23.003519" lon="109.714900">
        <ele>78.510713</ele>
        <time>2026-08-15T07:02:48.000Z</time>
      </trkpt>
      <trkpt lat="23.003494" lon="109.714943">
        <ele>78.563049</ele>
        <time>2026-08-15T07:02:49.000Z</time>
      </trkpt>
      <trkpt lat="23.003470" lon="109.714986">
        <ele>78.614797</ele>
        <time>2026-08-15T07:02:50.000Z</time>
      </trkpt>
      <trkpt lat="23.003445" lon="109.715029">
        <ele>78.667134</ele>
        <time>2026-08-15T07:02:51.000Z</time>
      </trkpt>
      <trkpt lat="23.003420" lon="109.715071">
        <ele>78.718603</ele>
        <time>2026-08-15T07:02:52.000Z</time>
      </trkpt>
      <trkpt lat="23.003395" lon="109.715113">
        <ele>78.770072</ele>
        <time>2026-08-15T07:02:53.000Z</time>
      </trkpt>
      <trkpt lat="23.003370" lon="109.715154">
        <ele>78.820680</ele>
        <time>2026-08-15T07:02:54.000Z</time>
      </trkpt>
      <trkpt lat="23.003344" lon="109.715195">
        <ele>78.871915</ele>
        <time>2026-08-15T07:02:55.000Z</time>
      </trkpt>
      <trkpt lat="23.003321" lon="109.715235">
        <ele>78.920448</ele>
        <time>2026-08-15T07:02:56.000Z</time>
      </trkpt>
      <trkpt lat="23.003297" lon="109.715276">
        <ele>78.970447</ele>
        <time>2026-08-15T07:02:57.000Z</time>
      </trkpt>
      <trkpt lat="23.003273" lon="109.715317">
        <ele>79.020447</ele>
        <time>2026-08-15T07:02:58.000Z</time>
      </trkpt>
      <trkpt lat="23.003248" lon="109.715358">
        <ele>79.071055</ele>
        <time>2026-08-15T07:02:59.000Z</time>
      </trkpt>
      <trkpt lat="23.003224" lon="109.715398">
        <ele>79.120190</ele>
        <time>2026-08-15T07:03:00.000Z</time>
      </trkpt>
      <trkpt lat="23.003200" lon="109.715437">
        <ele>79.150589</ele>
        <time>2026-08-15T07:03:01.000Z</time>
      </trkpt>
      <trkpt lat="23.003175" lon="109.715475">
        <ele>79.176764</ele>
        <time>2026-08-15T07:03:02.000Z</time>
      </trkpt>
      <trkpt lat="23.003152" lon="109.715513">
        <ele>79.202251</ele>
        <time>2026-08-15T07:03:03.000Z</time>
      </trkpt>
      <trkpt lat="23.003129" lon="109.715550">
        <ele>79.227272</ele>
        <time>2026-08-15T07:03:04.000Z</time>
      </trkpt>
      <trkpt lat="23.003106" lon="109.715587">
        <ele>79.252292</ele>
        <time>2026-08-15T07:03:05.000Z</time>
      </trkpt>
      <trkpt lat="23.003084" lon="109.715626">
        <ele>79.277926</ele>
        <time>2026-08-15T07:03:06.000Z</time>
      </trkpt>
      <trkpt lat="23.003062" lon="109.715663">
        <ele>79.302611</ele>
        <time>2026-08-15T07:03:07.000Z</time>
      </trkpt>
      <trkpt lat="23.003040" lon="109.715701">
        <ele>79.327769</ele>
        <time>2026-08-15T07:03:08.000Z</time>
      </trkpt>
      <trkpt lat="23.003019" lon="109.715739">
        <ele>79.352607</ele>
        <time>2026-08-15T07:03:09.000Z</time>
      </trkpt>
      <trkpt lat="23.002998" lon="109.715776">
        <ele>79.376967</ele>
        <time>2026-08-15T07:03:10.000Z</time>
      </trkpt>
      <trkpt lat="23.002975" lon="109.715812">
        <ele>79.401526</ele>
        <time>2026-08-15T07:03:11.000Z</time>
      </trkpt>
      <trkpt lat="23.002952" lon="109.715849">
        <ele>79.426546</ele>
        <time>2026-08-15T07:03:12.000Z</time>
      </trkpt>
      <trkpt lat="23.002927" lon="109.715885">
        <ele>79.451818</ele>
        <time>2026-08-15T07:03:13.000Z</time>
      </trkpt>
      <trkpt lat="23.002901" lon="109.715923">
        <ele>79.478353</ele>
        <time>2026-08-15T07:03:14.000Z</time>
      </trkpt>
      <trkpt lat="23.002877" lon="109.715961">
        <ele>79.504179</ele>
        <time>2026-08-15T07:03:15.000Z</time>
      </trkpt>
      <trkpt lat="23.002854" lon="109.716002">
        <ele>79.531087</ele>
        <time>2026-08-15T07:03:16.000Z</time>
      </trkpt>
      <trkpt lat="23.002830" lon="109.716042">
        <ele>79.557845</ele>
        <time>2026-08-15T07:03:17.000Z</time>
      </trkpt>
      <trkpt lat="23.002805" lon="109.716081">
        <ele>79.584478</ele>
        <time>2026-08-15T07:03:18.000Z</time>
      </trkpt>
      <trkpt lat="23.002778" lon="109.716119">
        <ele>79.611380</ele>
        <time>2026-08-15T07:03:19.000Z</time>
      </trkpt>
      <trkpt lat="23.002750" lon="109.716158">
        <ele>79.639098</ele>
        <time>2026-08-15T07:03:20.000Z</time>
      </trkpt>
      <trkpt lat="23.002723" lon="109.716196">
        <ele>79.666000</ele>
        <time>2026-08-15T07:03:21.000Z</time>
      </trkpt>
      <trkpt lat="23.002694" lon="109.716234">
        <ele>79.693663</ele>
        <time>2026-08-15T07:03:22.000Z</time>
      </trkpt>
      <trkpt lat="23.002667" lon="109.716272">
        <ele>79.720565</ele>
        <time>2026-08-15T07:03:23.000Z</time>
      </trkpt>
      <trkpt lat="23.002639" lon="109.716311">
        <ele>79.748283</ele>
        <time>2026-08-15T07:03:24.000Z</time>
      </trkpt>
      <trkpt lat="23.002610" lon="109.716352">
        <ele>79.777260</ele>
        <time>2026-08-15T07:03:25.000Z</time>
      </trkpt>
      <trkpt lat="23.002581" lon="109.716393">
        <ele>79.806237</ele>
        <time>2026-08-15T07:03:26.000Z</time>
      </trkpt>
      <trkpt lat="23.002552" lon="109.716434">
        <ele>79.835214</ele>
        <time>2026-08-15T07:03:27.000Z</time>
      </trkpt>
      <trkpt lat="23.002522" lon="109.716476">
        <ele>79.865007</ele>
        <time>2026-08-15T07:03:28.000Z</time>
      </trkpt>
      <trkpt lat="23.002492" lon="109.716517">
        <ele>79.894359</ele>
        <time>2026-08-15T07:03:29.000Z</time>
      </trkpt>
      <trkpt lat="23.002462" lon="109.716557">
        <ele>79.923274</ele>
        <time>2026-08-15T07:03:30.000Z</time>
      </trkpt>
      <trkpt lat="23.002433" lon="109.716596">
        <ele>79.951370</ele>
        <time>2026-08-15T07:03:31.000Z</time>
      </trkpt>
      <trkpt lat="23.002404" lon="109.716635">
        <ele>79.979467</ele>
        <time>2026-08-15T07:03:32.000Z</time>
      </trkpt>
      <trkpt lat="23.002377" lon="109.716673">
        <ele>80.006369</ele>
        <time>2026-08-15T07:03:33.000Z</time>
      </trkpt>
      <trkpt lat="23.002351" lon="109.716710">
        <ele>80.032456</ele>
        <time>2026-08-15T07:03:34.000Z</time>
      </trkpt>
      <trkpt lat="23.002325" lon="109.716744">
        <ele>80.057227</ele>
        <time>2026-08-15T07:03:35.000Z</time>
      </trkpt>
      <trkpt lat="23.002299" lon="109.716779">
        <ele>80.082432</ele>
        <time>2026-08-15T07:03:36.000Z</time>
      </trkpt>
      <trkpt lat="23.002273" lon="109.716814">
        <ele>80.107637</ele>
        <time>2026-08-15T07:03:37.000Z</time>
      </trkpt>
      <trkpt lat="23.002248" lon="109.716851">
        <ele>80.133359</ele>
        <time>2026-08-15T07:03:38.000Z</time>
      </trkpt>
      <trkpt lat="23.002222" lon="109.716889">
        <ele>80.159894</ele>
        <time>2026-08-15T07:03:39.000Z</time>
      </trkpt>
      <trkpt lat="23.002193" lon="109.716928">
        <ele>80.187990</ele>
        <time>2026-08-15T07:03:40.000Z</time>
      </trkpt>
      <trkpt lat="23.002164" lon="109.716968">
        <ele>80.216525</ele>
        <time>2026-08-15T07:03:41.000Z</time>
      </trkpt>
      <trkpt lat="23.002135" lon="109.717007">
        <ele>80.179399</ele>
        <time>2026-08-15T07:03:42.000Z</time>
      </trkpt>
      <trkpt lat="23.002106" lon="109.717046">
        <ele>80.117481</ele>
        <time>2026-08-15T07:03:43.000Z</time>
      </trkpt>
      <trkpt lat="23.002077" lon="109.717087">
        <ele>80.053623</ele>
        <time>2026-08-15T07:03:44.000Z</time>
      </trkpt>
      <trkpt lat="23.002048" lon="109.717128">
        <ele>79.989765</ele>
        <time>2026-08-15T07:03:45.000Z</time>
      </trkpt>
      <trkpt lat="23.002019" lon="109.717169">
        <ele>79.925907</ele>
        <time>2026-08-15T07:03:46.000Z</time>
      </trkpt>
      <trkpt lat="23.001990" lon="109.717212">
        <ele>79.860073</ele>
        <time>2026-08-15T07:03:47.000Z</time>
      </trkpt>
      <trkpt lat="23.001959" lon="109.717256">
        <ele>79.791642</ele>
        <time>2026-08-15T07:03:48.000Z</time>
      </trkpt>
      <trkpt lat="23.001927" lon="109.717300">
        <ele>79.722387</ele>
        <time>2026-08-15T07:03:49.000Z</time>
      </trkpt>
      <trkpt lat="23.001896" lon="109.717345">
        <ele>79.652971</ele>
        <time>2026-08-15T07:03:50.000Z</time>
      </trkpt>
      <trkpt lat="23.001864" lon="109.717390">
        <ele>79.582743</ele>
        <time>2026-08-15T07:03:51.000Z</time>
      </trkpt>
      <trkpt lat="23.001830" lon="109.717434">
        <ele>79.511794</ele>
        <time>2026-08-15T07:03:52.000Z</time>
      </trkpt>
      <trkpt lat="23.001797" lon="109.717481">
        <ele>79.438789</ele>
        <time>2026-08-15T07:03:53.000Z</time>
      </trkpt>
      <trkpt lat="23.001762" lon="109.717526">
        <ele>79.366031</ele>
        <time>2026-08-15T07:03:54.000Z</time>
      </trkpt>
      <trkpt lat="23.001728" lon="109.717572">
        <ele>79.293172</ele>
        <time>2026-08-15T07:03:55.000Z</time>
      </trkpt>
      <trkpt lat="23.001693" lon="109.717615">
        <ele>79.222282</ele>
        <time>2026-08-15T07:03:56.000Z</time>
      </trkpt>
      <trkpt lat="23.001657" lon="109.717659">
        <ele>79.149578</ele>
        <time>2026-08-15T07:03:57.000Z</time>
      </trkpt>
      <trkpt lat="23.001619" lon="109.717703">
        <ele>79.075065</ele>
        <time>2026-08-15T07:03:58.000Z</time>
      </trkpt>
      <trkpt lat="23.001582" lon="109.717748">
        <ele>79.000546</ele>
        <time>2026-08-15T07:03:59.000Z</time>
      </trkpt>
      <trkpt lat="23.001544" lon="109.717792">
        <ele>78.926032</ele>
        <time>2026-08-15T07:04:00.000Z</time>
      </trkpt>
      <trkpt lat="23.001505" lon="109.717835">
        <ele>78.851479</ele>
        <time>2026-08-15T07:04:01.000Z</time>
      </trkpt>
      <trkpt lat="23.001463" lon="109.717878">
        <ele>78.774047</ele>
        <time>2026-08-15T07:04:02.000Z</time>
      </trkpt>
      <trkpt lat="23.001420" lon="109.717920">
        <ele>78.696465</ele>
        <time>2026-08-15T07:04:03.000Z</time>
      </trkpt>
      <trkpt lat="23.001376" lon="109.717960">
        <ele>78.619488</ele>
        <time>2026-08-15T07:04:04.000Z</time>
      </trkpt>
      <trkpt lat="23.001330" lon="109.717996">
        <ele>78.543424</ele>
        <time>2026-08-15T07:04:05.000Z</time>
      </trkpt>
      <trkpt lat="23.001284" lon="109.718032">
        <ele>78.467359</ele>
        <time>2026-08-15T07:04:06.000Z</time>
      </trkpt>
      <trkpt lat="23.001237" lon="109.718067">
        <ele>78.390907</ele>
        <time>2026-08-15T07:04:07.000Z</time>
      </trkpt>
      <trkpt lat="23.001188" lon="109.718103">
        <ele>78.311542</ele>
        <time>2026-08-15T07:04:08.000Z</time>
      </trkpt>
      <trkpt lat="23.001137" lon="109.718140">
        <ele>78.229260</ele>
        <time>2026-08-15T07:04:09.000Z</time>
      </trkpt>
      <trkpt lat="23.001085" lon="109.718175">
        <ele>78.147187</ele>
        <time>2026-08-15T07:04:10.000Z</time>
      </trkpt>
      <trkpt lat="23.001031" lon="109.718210">
        <ele>78.062821</ele>
        <time>2026-08-15T07:04:11.000Z</time>
      </trkpt>
      <trkpt lat="23.000975" lon="109.718243">
        <ele>77.977345</ele>
        <time>2026-08-15T07:04:12.000Z</time>
      </trkpt>
      <trkpt lat="23.000916" lon="109.718274">
        <ele>77.889413</ele>
        <time>2026-08-15T07:04:13.000Z</time>
      </trkpt>
      <trkpt lat="23.000855" lon="109.718303">
        <ele>77.807285</ele>
        <time>2026-08-15T07:04:14.000Z</time>
      </trkpt>
      <trkpt lat="23.000793" lon="109.718330">
        <ele>77.776562</ele>
        <time>2026-08-15T07:04:15.000Z</time>
      </trkpt>
      <trkpt lat="23.000729" lon="109.718355">
        <ele>77.745279</ele>
        <time>2026-08-15T07:04:16.000Z</time>
      </trkpt>
      <trkpt lat="23.000665" lon="109.718378">
        <ele>77.714273</ele>
        <time>2026-08-15T07:04:17.000Z</time>
      </trkpt>
      <trkpt lat="23.000600" lon="109.718400">
        <ele>77.682958</ele>
        <time>2026-08-15T07:04:18.000Z</time>
      </trkpt>
      <trkpt lat="23.000534" lon="109.718423">
        <ele>77.651077</ele>
        <time>2026-08-15T07:04:19.000Z</time>
      </trkpt>
      <trkpt lat="23.000468" lon="109.718445">
        <ele>77.619323</ele>
        <time>2026-08-15T07:04:20.000Z</time>
      </trkpt>
      <trkpt lat="23.000406" lon="109.718468">
        <ele>77.589189</ele>
        <time>2026-08-15T07:04:21.000Z</time>
      </trkpt>
      <trkpt lat="23.000341" lon="109.718488">
        <ele>77.558116</ele>
        <time>2026-08-15T07:04:22.000Z</time>
      </trkpt>
      <trkpt lat="23.000275" lon="109.718506">
        <ele>77.526816</ele>
        <time>2026-08-15T07:04:23.000Z</time>
      </trkpt>
      <trkpt lat="23.000209" lon="109.718522">
        <ele>77.495712</ele>
        <time>2026-08-15T07:04:24.000Z</time>
      </trkpt>
      <trkpt lat="23.000145" lon="109.718539">
        <ele>77.465408</ele>
        <time>2026-08-15T07:04:25.000Z</time>
      </trkpt>
      <trkpt lat="23.000081" lon="109.718555">
        <ele>77.435201</ele>
        <time>2026-08-15T07:04:26.000Z</time>
      </trkpt>
      <trkpt lat="23.000019" lon="109.718572">
        <ele>77.405789</ele>
        <time>2026-08-15T07:04:27.000Z</time>
      </trkpt>
      <trkpt lat="22.999959" lon="109.718587">
        <ele>77.377470</ele>
        <time>2026-08-15T07:04:28.000Z</time>
      </trkpt>
      <trkpt lat="22.999898" lon="109.718604">
        <ele>77.348504</ele>
        <time>2026-08-15T07:04:29.000Z</time>
      </trkpt>
      <trkpt lat="22.999838" lon="109.718620">
        <ele>77.320087</ele>
        <time>2026-08-15T07:04:30.000Z</time>
      </trkpt>
      <trkpt lat="22.999777" lon="109.718636">
        <ele>77.291224</ele>
        <time>2026-08-15T07:04:31.000Z</time>
      </trkpt>
      <trkpt lat="22.999717" lon="109.718652">
        <ele>77.262807</ele>
        <time>2026-08-15T07:04:32.000Z</time>
      </trkpt>
      <trkpt lat="22.999657" lon="109.718669">
        <ele>77.234286</ele>
        <time>2026-08-15T07:04:33.000Z</time>
      </trkpt>
      <trkpt lat="22.999598" lon="109.718685">
        <ele>77.206316</ele>
        <time>2026-08-15T07:04:34.000Z</time>
      </trkpt>
      <trkpt lat="22.999540" lon="109.718700">
        <ele>77.178893</ele>
        <time>2026-08-15T07:04:35.000Z</time>
      </trkpt>
      <trkpt lat="22.999481" lon="109.718715">
        <ele>77.151022</ele>
        <time>2026-08-15T07:04:36.000Z</time>
      </trkpt>
      <trkpt lat="22.999423" lon="109.718731">
        <ele>77.123497</ele>
        <time>2026-08-15T07:04:37.000Z</time>
      </trkpt>
      <trkpt lat="22.999365" lon="109.718744">
        <ele>77.096258</ele>
        <time>2026-08-15T07:04:38.000Z</time>
      </trkpt>
      <trkpt lat="22.999308" lon="109.718759">
        <ele>77.069282</ele>
        <time>2026-08-15T07:04:39.000Z</time>
      </trkpt>
      <trkpt lat="22.999251" lon="109.718774">
        <ele>77.042306</ele>
        <time>2026-08-15T07:04:40.000Z</time>
      </trkpt>
      <trkpt lat="22.999196" lon="109.718788">
        <ele>77.016323</ele>
        <time>2026-08-15T07:04:41.000Z</time>
      </trkpt>
      <trkpt lat="22.999141" lon="109.718801">
        <ele>76.990434</ele>
        <time>2026-08-15T07:04:42.000Z</time>
      </trkpt>
      <trkpt lat="22.999087" lon="109.718814">
        <ele>77.023205</ele>
        <time>2026-08-15T07:04:43.000Z</time>
      </trkpt>
      <trkpt lat="22.999034" lon="109.718828">
        <ele>77.076004</ele>
        <time>2026-08-15T07:04:44.000Z</time>
      </trkpt>
      <trkpt lat="22.998982" lon="109.718842">
        <ele>77.127863</ele>
        <time>2026-08-15T07:04:45.000Z</time>
      </trkpt>
      <trkpt lat="22.998930" lon="109.718856">
        <ele>77.179721</ele>
        <time>2026-08-15T07:04:46.000Z</time>
      </trkpt>
      <trkpt lat="22.998879" lon="109.718869">
        <ele>77.230430</ele>
        <time>2026-08-15T07:04:47.000Z</time>
      </trkpt>
      <trkpt lat="22.998827" lon="109.718882">
        <ele>77.282082</ele>
        <time>2026-08-15T07:04:48.000Z</time>
      </trkpt>
      <trkpt lat="22.998777" lon="109.718896">
        <ele>77.332064</ele>
        <time>2026-08-15T07:04:49.000Z</time>
      </trkpt>
      <trkpt lat="22.998738" lon="109.718899">
        <ele>77.369910</ele>
        <time>2026-08-15T07:04:50.000Z</time>
      </trkpt>
      <trkpt lat="22.998716" lon="109.718893">
        <ele>77.391867</ele>
        <time>2026-08-15T07:04:51.000Z</time>
      </trkpt>
      <trkpt lat="22.998708" lon="109.718881">
        <ele>77.405070</ele>
        <time>2026-08-15T07:04:52.000Z</time>
      </trkpt>
      <trkpt lat="22.998709" lon="109.718871">
        <ele>77.414033</ele>
        <time>2026-08-15T07:04:53.000Z</time>
      </trkpt>
      <trkpt lat="22.998717" lon="109.718862">
        <ele>77.425181</ele>
        <time>2026-08-15T07:04:54.000Z</time>
      </trkpt>
      <trkpt lat="22.998731" lon="109.718857">
        <ele>77.439446</ele>
        <time>2026-08-15T07:04:55.000Z</time>
      </trkpt>
      <trkpt lat="22.998739" lon="109.718855">
        <ele>77.447393</ele>
        <time>2026-08-15T07:04:56.000Z</time>
      </trkpt>
      <trkpt lat="22.998741" lon="109.718849">
        <ele>77.453079</ele>
        <time>2026-08-15T07:04:57.000Z</time>
      </trkpt>
      <trkpt lat="22.998746" lon="109.718844">
        <ele>77.459657</ele>
        <time>2026-08-15T07:04:58.000Z</time>
      </trkpt>
      <trkpt lat="22.998724" lon="109.718905">
        <ele>77.518035</ele>
        <time>2026-08-15T07:20:58.000Z</time>
      </trkpt>
      <trkpt lat="22.998709" lon="109.718912">
        <ele>77.533838</ele>
        <time>2026-08-15T07:20:59.000Z</time>
      </trkpt>
      <trkpt lat="22.998692" lon="109.718915">
        <ele>77.550510</ele>
        <time>2026-08-15T07:21:00.000Z</time>
      </trkpt>
      <trkpt lat="22.998675" lon="109.718920">
        <ele>77.567558</ele>
        <time>2026-08-15T07:21:01.000Z</time>
      </trkpt>
      <trkpt lat="22.998656" lon="109.718924">
        <ele>77.586292</ele>
        <time>2026-08-15T07:21:02.000Z</time>
      </trkpt>
      <trkpt lat="22.998634" lon="109.718930">
        <ele>77.608249</ele>
        <time>2026-08-15T07:21:03.000Z</time>
      </trkpt>
      <trkpt lat="22.998612" lon="109.718935">
        <ele>77.630006</ele>
        <time>2026-08-15T07:21:04.000Z</time>
      </trkpt>
      <trkpt lat="22.998588" lon="109.718941">
        <ele>77.653845</ele>
        <time>2026-08-15T07:21:05.000Z</time>
      </trkpt>
      <trkpt lat="22.998562" lon="109.718947">
        <ele>77.679575</ele>
        <time>2026-08-15T07:21:06.000Z</time>
      </trkpt>
      <trkpt lat="22.998534" lon="109.718954">
        <ele>77.707388</ele>
        <time>2026-08-15T07:21:07.000Z</time>
      </trkpt>
      <trkpt lat="22.998505" lon="109.718961">
        <ele>77.736144</ele>
        <time>2026-08-15T07:21:08.000Z</time>
      </trkpt>
      <trkpt lat="22.998474" lon="109.718969">
        <ele>77.766987</ele>
        <time>2026-08-15T07:21:09.000Z</time>
      </trkpt>
      <trkpt lat="22.998442" lon="109.718978">
        <ele>77.798985</ele>
        <time>2026-08-15T07:21:10.000Z</time>
      </trkpt>
      <trkpt lat="22.998410" lon="109.718988">
        <ele>77.831217</ele>
        <time>2026-08-15T07:21:11.000Z</time>
      </trkpt>
      <trkpt lat="22.998377" lon="109.718997">
        <ele>77.864152</ele>
        <time>2026-08-15T07:21:12.000Z</time>
      </trkpt>
      <trkpt lat="22.998343" lon="109.719006">
        <ele>77.898027</ele>
        <time>2026-08-15T07:21:13.000Z</time>
      </trkpt>
      <trkpt lat="22.998308" lon="109.719016">
        <ele>77.933059</ele>
        <time>2026-08-15T07:21:14.000Z</time>
      </trkpt>
      <trkpt lat="22.998272" lon="109.719025">
        <ele>77.968818</ele>
        <time>2026-08-15T07:21:15.000Z</time>
      </trkpt>
      <trkpt lat="22.998235" lon="109.719032">
        <ele>78.005173</ele>
        <time>2026-08-15T07:21:16.000Z</time>
      </trkpt>
      <trkpt lat="22.998199" lon="109.719042">
        <ele>78.041142</ele>
        <time>2026-08-15T07:21:17.000Z</time>
      </trkpt>
      <trkpt lat="22.998163" lon="109.719053">
        <ele>78.077343</ele>
        <time>2026-08-15T07:21:18.000Z</time>
      </trkpt>
      <trkpt lat="22.998126" lon="109.719063">
        <ele>78.114251</ele>
        <time>2026-08-15T07:21:19.000Z</time>
      </trkpt>
      <trkpt lat="22.998088" lon="109.719073">
        <ele>78.152098</ele>
        <time>2026-08-15T07:21:20.000Z</time>
      </trkpt>
      <trkpt lat="22.998049" lon="109.719083">
        <ele>78.190888</ele>
        <time>2026-08-15T07:21:21.000Z</time>
      </trkpt>
      <trkpt lat="22.998009" lon="109.719093">
        <ele>78.230620</ele>
        <time>2026-08-15T07:21:22.000Z</time>
      </trkpt>
      <trkpt lat="22.997969" lon="109.719102">
        <ele>78.270162</ele>
        <time>2026-08-15T07:21:23.000Z</time>
      </trkpt>
      <trkpt lat="22.997929" lon="109.719112">
        <ele>78.309894</ele>
        <time>2026-08-15T07:21:24.000Z</time>
      </trkpt>
      <trkpt lat="22.997889" lon="109.719123">
        <ele>78.349835</ele>
        <time>2026-08-15T07:21:25.000Z</time>
      </trkpt>
      <trkpt lat="22.997850" lon="109.719133">
        <ele>78.388625</ele>
        <time>2026-08-15T07:21:26.000Z</time>
      </trkpt>
      <trkpt lat="22.997810" lon="109.719142">
        <ele>78.428166</ele>
        <time>2026-08-15T07:21:27.000Z</time>
      </trkpt>
      <trkpt lat="22.997771" lon="109.719151">
        <ele>78.466761</ele>
        <time>2026-08-15T07:21:28.000Z</time>
      </trkpt>
      <trkpt lat="22.997731" lon="109.719161">
        <ele>78.506493</ele>
        <time>2026-08-15T07:21:29.000Z</time>
      </trkpt>
      <trkpt lat="22.997692" lon="109.719172">
        <ele>78.545497</ele>
        <time>2026-08-15T07:21:30.000Z</time>
      </trkpt>
      <trkpt lat="22.997654" lon="109.719182">
        <ele>78.583345</ele>
        <time>2026-08-15T07:21:31.000Z</time>
      </trkpt>
      <trkpt lat="22.997615" lon="109.719193">
        <ele>78.622348</ele>
        <time>2026-08-15T07:21:32.000Z</time>
      </trkpt>
      <trkpt lat="22.997575" lon="109.719202">
        <ele>78.661890</ele>
        <time>2026-08-15T07:21:33.000Z</time>
      </trkpt>
      <trkpt lat="22.997534" lon="109.719214">
        <ele>78.702993</ele>
        <time>2026-08-15T07:21:34.000Z</time>
      </trkpt>
      <trkpt lat="22.997493" lon="109.719225">
        <ele>78.762820</ele>
        <time>2026-08-15T07:21:35.000Z</time>
      </trkpt>
      <trkpt lat="22.997451" lon="109.719236">
        <ele>78.846253</ele>
        <time>2026-08-15T07:21:36.000Z</time>
      </trkpt>
      <trkpt lat="22.997409" lon="109.719246">
        <ele>78.929287</ele>
        <time>2026-08-15T07:21:37.000Z</time>
      </trkpt>
      <trkpt lat="22.997368" lon="109.719255">
        <ele>79.010065</ele>
        <time>2026-08-15T07:21:38.000Z</time>
      </trkpt>
      <trkpt lat="22.997326" lon="109.719264">
        <ele>79.092737</ele>
        <time>2026-08-15T07:21:39.000Z</time>
      </trkpt>
      <trkpt lat="22.997286" lon="109.719274">
        <ele>79.172002</ele>
        <time>2026-08-15T07:21:40.000Z</time>
      </trkpt>
      <trkpt lat="22.997245" lon="109.719284">
        <ele>79.253151</ele>
        <time>2026-08-15T07:21:41.000Z</time>
      </trkpt>
      <trkpt lat="22.997206" lon="109.719295">
        <ele>79.330963</ele>
        <time>2026-08-15T07:21:42.000Z</time>
      </trkpt>
      <trkpt lat="22.997168" lon="109.719306">
        <ele>79.406908</ele>
        <time>2026-08-15T07:21:43.000Z</time>
      </trkpt>
      <trkpt lat="22.997129" lon="109.719318">
        <ele>79.485186</ele>
        <time>2026-08-15T07:21:44.000Z</time>
      </trkpt>
      <trkpt lat="22.997091" lon="109.719329">
        <ele>79.561131</ele>
        <time>2026-08-15T07:21:45.000Z</time>
      </trkpt>
      <trkpt lat="22.997054" lon="109.719340">
        <ele>79.635211</ele>
        <time>2026-08-15T07:21:46.000Z</time>
      </trkpt>
      <trkpt lat="22.997014" lon="109.719350">
        <ele>79.714477</ele>
        <time>2026-08-15T07:21:47.000Z</time>
      </trkpt>
      <trkpt lat="22.996975" lon="109.719358">
        <ele>79.791123</ele>
        <time>2026-08-15T07:21:48.000Z</time>
      </trkpt>
      <trkpt lat="22.996935" lon="109.719367">
        <ele>79.870009</ele>
        <time>2026-08-15T07:21:49.000Z</time>
      </trkpt>
      <trkpt lat="22.996896" lon="109.719376">
        <ele>79.947005</ele>
        <time>2026-08-15T07:21:50.000Z</time>
      </trkpt>
      <trkpt lat="22.996858" lon="109.719388">
        <ele>80.023427</ele>
        <time>2026-08-15T07:21:51.000Z</time>
      </trkpt>
      <trkpt lat="22.996820" lon="109.719401">
        <ele>80.100364</ele>
        <time>2026-08-15T07:21:52.000Z</time>
      </trkpt>
      <trkpt lat="22.996783" lon="109.719414">
        <ele>80.175461</ele>
        <time>2026-08-15T07:21:53.000Z</time>
      </trkpt>
      <trkpt lat="22.996748" lon="109.719426">
        <ele>80.246338</ele>
        <time>2026-08-15T07:21:54.000Z</time>
      </trkpt>
      <trkpt lat="22.996713" lon="109.719437">
        <ele>80.316701</ele>
        <time>2026-08-15T07:21:55.000Z</time>
      </trkpt>
      <trkpt lat="22.996678" lon="109.719447">
        <ele>80.386590</ele>
        <time>2026-08-15T07:21:56.000Z</time>
      </trkpt>
      <trkpt lat="22.996642" lon="109.719456">
        <ele>80.457929</ele>
        <time>2026-08-15T07:21:57.000Z</time>
      </trkpt>
      <trkpt lat="22.996606" lon="109.719463">
        <ele>80.528556</ele>
        <time>2026-08-15T07:21:58.000Z</time>
      </trkpt>
      <trkpt lat="22.996568" lon="109.719470">
        <ele>80.602987</ele>
        <time>2026-08-15T07:21:59.000Z</time>
      </trkpt>
      <trkpt lat="22.996532" lon="109.719480">
        <ele>80.674746</ele>
        <time>2026-08-15T07:22:00.000Z</time>
      </trkpt>
      <trkpt lat="22.996496" lon="109.719490">
        <ele>80.746505</ele>
        <time>2026-08-15T07:22:01.000Z</time>
      </trkpt>
      <trkpt lat="22.996459" lon="109.719500">
        <ele>80.820136</ele>
        <time>2026-08-15T07:22:02.000Z</time>
      </trkpt>
      <trkpt lat="22.996422" lon="109.719510">
        <ele>80.893767</ele>
        <time>2026-08-15T07:22:03.000Z</time>
      </trkpt>
      <trkpt lat="22.996385" lon="109.719521">
        <ele>80.967847</ele>
        <time>2026-08-15T07:22:04.000Z</time>
      </trkpt>
      <trkpt lat="22.996351" lon="109.719534">
        <ele>81.037455</ele>
        <time>2026-08-15T07:22:05.000Z</time>
      </trkpt>
      <trkpt lat="22.996316" lon="109.719547">
        <ele>81.108887</ele>
        <time>2026-08-15T07:22:06.000Z</time>
      </trkpt>
      <trkpt lat="22.996282" lon="109.719559">
        <ele>81.177925</ele>
        <time>2026-08-15T07:22:07.000Z</time>
      </trkpt>
      <trkpt lat="22.996247" lon="109.719570">
        <ele>81.248288</ele>
        <time>2026-08-15T07:22:08.000Z</time>
      </trkpt>
      <trkpt lat="22.996211" lon="109.719582">
        <ele>81.321009</ele>
        <time>2026-08-15T07:22:09.000Z</time>
      </trkpt>
      <trkpt lat="22.996176" lon="109.719594">
        <ele>81.391886</ele>
        <time>2026-08-15T07:22:10.000Z</time>
      </trkpt>
      <trkpt lat="22.996142" lon="109.719606">
        <ele>81.460924</ele>
        <time>2026-08-15T07:22:11.000Z</time>
      </trkpt>
      <trkpt lat="22.996109" lon="109.719618">
        <ele>81.528128</ele>
        <time>2026-08-15T07:22:12.000Z</time>
      </trkpt>
      <trkpt lat="22.996078" lon="109.719632">
        <ele>81.592961</ele>
        <time>2026-08-15T07:22:13.000Z</time>
      </trkpt>
      <trkpt lat="22.996045" lon="109.719645">
        <ele>81.660750</ele>
        <time>2026-08-15T07:22:14.000Z</time>
      </trkpt>
      <trkpt lat="22.996012" lon="109.719657">
        <ele>81.727954</ele>
        <time>2026-08-15T07:22:15.000Z</time>
      </trkpt>
      <trkpt lat="22.995979" lon="109.719669">
        <ele>81.795158</ele>
        <time>2026-08-15T07:22:16.000Z</time>
      </trkpt>
      <trkpt lat="22.995946" lon="109.719681">
        <ele>81.862362</ele>
        <time>2026-08-15T07:22:17.000Z</time>
      </trkpt>
      <trkpt lat="22.995912" lon="109.719691">
        <ele>81.930386</ele>
        <time>2026-08-15T07:22:18.000Z</time>
      </trkpt>
      <trkpt lat="22.995880" lon="109.719703">
        <ele>81.995761</ele>
        <time>2026-08-15T07:22:19.000Z</time>
      </trkpt>
      <trkpt lat="22.995849" lon="109.719715">
        <ele>82.059314</ele>
        <time>2026-08-15T07:22:20.000Z</time>
      </trkpt>
      <trkpt lat="22.995817" lon="109.719726">
        <ele>82.124132</ele>
        <time>2026-08-15T07:22:21.000Z</time>
      </trkpt>
      <trkpt lat="22.995785" lon="109.719737">
        <ele>82.188949</ele>
        <time>2026-08-15T07:22:22.000Z</time>
      </trkpt>
      <trkpt lat="22.995753" lon="109.719749">
        <ele>82.290361</ele>
        <time>2026-08-15T07:22:23.000Z</time>
      </trkpt>
      <trkpt lat="22.995720" lon="109.719762">
        <ele>82.401757</ele>
        <time>2026-08-15T07:22:24.000Z</time>
      </trkpt>
      <trkpt lat="22.995688" lon="109.719775">
        <ele>82.510175</ele>
        <time>2026-08-15T07:22:25.000Z</time>
      </trkpt>
      <trkpt lat="22.995657" lon="109.719789">
        <ele>82.616713</ele>
        <time>2026-08-15T07:22:26.000Z</time>
      </trkpt>
      <trkpt lat="22.995624" lon="109.719801">
        <ele>82.727147</ele>
        <time>2026-08-15T07:22:27.000Z</time>
      </trkpt>
      <trkpt lat="22.995590" lon="109.719814">
        <ele>82.841531</ele>
        <time>2026-08-15T07:22:28.000Z</time>
      </trkpt>
      <trkpt lat="22.995556" lon="109.719826">
        <ele>82.954979</ele>
        <time>2026-08-15T07:22:29.000Z</time>
      </trkpt>
      <trkpt lat="22.995522" lon="109.719836">
        <ele>83.066760</ele>
        <time>2026-08-15T07:22:30.000Z</time>
      </trkpt>
      <trkpt lat="22.995488" lon="109.719847">
        <ele>83.179339</ele>
        <time>2026-08-15T07:22:31.000Z</time>
      </trkpt>
      <trkpt lat="22.995454" lon="109.719858">
        <ele>83.291919</ele>
        <time>2026-08-15T07:22:32.000Z</time>
      </trkpt>
      <trkpt lat="22.995421" lon="109.719870">
        <ele>83.402353</ele>
        <time>2026-08-15T07:22:33.000Z</time>
      </trkpt>
      <trkpt lat="22.995389" lon="109.719880">
        <ele>83.508020</ele>
        <time>2026-08-15T07:22:34.000Z</time>
      </trkpt>
      <trkpt lat="22.995359" lon="109.719892">
        <ele>83.609471</ele>
        <time>2026-08-15T07:22:35.000Z</time>
      </trkpt>
      <trkpt lat="22.995329" lon="109.719905">
        <ele>83.711969</ele>
        <time>2026-08-15T07:22:36.000Z</time>
      </trkpt>
      <trkpt lat="22.995297" lon="109.719918">
        <ele>83.820386</ele>
        <time>2026-08-15T07:22:37.000Z</time>
      </trkpt>
      <trkpt lat="22.995268" lon="109.719930">
        <ele>83.918866</ele>
        <time>2026-08-15T07:22:38.000Z</time>
      </trkpt>
      <trkpt lat="22.995236" lon="109.719941">
        <ele>84.025378</ele>
        <time>2026-08-15T07:22:39.000Z</time>
      </trkpt>
      <trkpt lat="22.995205" lon="109.719952">
        <ele>84.128869</ele>
        <time>2026-08-15T07:22:40.000Z</time>
      </trkpt>
      <trkpt lat="22.995174" lon="109.719964">
        <ele>84.233304</ele>
        <time>2026-08-15T07:22:41.000Z</time>
      </trkpt>
      <trkpt lat="22.995143" lon="109.719974">
        <ele>84.335925</ele>
        <time>2026-08-15T07:22:42.000Z</time>
      </trkpt>
      <trkpt lat="22.995112" lon="109.719984">
        <ele>84.438547</ele>
        <time>2026-08-15T07:22:43.000Z</time>
      </trkpt>
      <trkpt lat="22.995081" lon="109.719995">
        <ele>84.542038</ele>
        <time>2026-08-15T07:22:44.000Z</time>
      </trkpt>
      <trkpt lat="22.995052" lon="109.720006">
        <ele>84.639515</ele>
        <time>2026-08-15T07:22:45.000Z</time>
      </trkpt>
      <trkpt lat="22.995022" lon="109.720017">
        <ele>84.739995</ele>
        <time>2026-08-15T07:22:46.000Z</time>
      </trkpt>
      <trkpt lat="22.994994" lon="109.720028">
        <ele>84.834482</ele>
        <time>2026-08-15T07:22:47.000Z</time>
      </trkpt>
      <trkpt lat="22.994965" lon="109.720038">
        <ele>84.931036</ele>
        <time>2026-08-15T07:22:48.000Z</time>
      </trkpt>
      <trkpt lat="22.994938" lon="109.720050">
        <ele>85.023612</ele>
        <time>2026-08-15T07:22:49.000Z</time>
      </trkpt>
      <trkpt lat="22.994910" lon="109.720061">
        <ele>85.118100</ele>
        <time>2026-08-15T07:22:50.000Z</time>
      </trkpt>
      <trkpt lat="22.994882" lon="109.720069">
        <ele>85.209977</ele>
        <time>2026-08-15T07:22:51.000Z</time>
      </trkpt>
      <trkpt lat="22.994852" lon="109.720079">
        <ele>85.309560</ele>
        <time>2026-08-15T07:22:52.000Z</time>
      </trkpt>
      <trkpt lat="22.994824" lon="109.720089">
        <ele>85.403095</ele>
        <time>2026-08-15T07:22:53.000Z</time>
      </trkpt>
      <trkpt lat="22.994795" lon="109.720099">
        <ele>85.499649</ele>
        <time>2026-08-15T07:22:54.000Z</time>
      </trkpt>
      <trkpt lat="22.994767" lon="109.720110">
        <ele>85.594137</ele>
        <time>2026-08-15T07:22:55.000Z</time>
      </trkpt>
      <trkpt lat="22.994738" lon="109.720121">
        <ele>85.691614</ele>
        <time>2026-08-15T07:22:56.000Z</time>
      </trkpt>
      <trkpt lat="22.994710" lon="109.720132">
        <ele>85.786102</ele>
        <time>2026-08-15T07:22:57.000Z</time>
      </trkpt>
      <trkpt lat="22.994682" lon="109.720141">
        <ele>85.878765</ele>
        <time>2026-08-15T07:22:58.000Z</time>
      </trkpt>
      <trkpt lat="22.994653" lon="109.720151">
        <ele>85.975320</ele>
        <time>2026-08-15T07:22:59.000Z</time>
      </trkpt>
      <trkpt lat="22.994625" lon="109.720162">
        <ele>86.069807</ele>
        <time>2026-08-15T07:23:00.000Z</time>
      </trkpt>
      <trkpt lat="22.994597" lon="109.720173">
        <ele>86.164295</ele>
        <time>2026-08-15T07:23:01.000Z</time>
      </trkpt>
      <trkpt lat="22.994568" lon="109.720184">
        <ele>86.261773</ele>
        <time>2026-08-15T07:23:02.000Z</time>
      </trkpt>
      <trkpt lat="22.994540" lon="109.720194">
        <ele>86.355307</ele>
        <time>2026-08-15T07:23:03.000Z</time>
      </trkpt>
      <trkpt lat="22.994510" lon="109.720204">
        <ele>86.454890</ele>
        <time>2026-08-15T07:23:04.000Z</time>
      </trkpt>
      <trkpt lat="22.994481" lon="109.720215">
        <ele>86.552368</ele>
        <time>2026-08-15T07:23:05.000Z</time>
      </trkpt>
      <trkpt lat="22.994452" lon="109.720226">
        <ele>86.649846</ele>
        <time>2026-08-15T07:23:06.000Z</time>
      </trkpt>
      <trkpt lat="22.994422" lon="109.720237">
        <ele>86.750325</ele>
        <time>2026-08-15T07:23:07.000Z</time>
      </trkpt>
      <trkpt lat="22.994392" lon="109.720247">
        <ele>86.849909</ele>
        <time>2026-08-15T07:23:08.000Z</time>
      </trkpt>
      <trkpt lat="22.994362" lon="109.720259">
        <ele>86.951360</ele>
        <time>2026-08-15T07:23:09.000Z</time>
      </trkpt>
      <trkpt lat="22.994333" lon="109.720271">
        <ele>87.049839</ele>
        <time>2026-08-15T07:23:10.000Z</time>
      </trkpt>
      <trkpt lat="22.994304" lon="109.720282">
        <ele>87.147317</ele>
        <time>2026-08-15T07:23:11.000Z</time>
      </trkpt>
      <trkpt lat="22.994274" lon="109.720292">
        <ele>87.246901</ele>
        <time>2026-08-15T07:23:12.000Z</time>
      </trkpt>
      <trkpt lat="22.994243" lon="109.720301">
        <ele>87.348729</ele>
        <time>2026-08-15T07:23:13.000Z</time>
      </trkpt>
      <trkpt lat="22.994212" lon="109.720312">
        <ele>87.452220</ele>
        <time>2026-08-15T07:23:14.000Z</time>
      </trkpt>
      <trkpt lat="22.994182" lon="109.720324">
        <ele>87.553672</ele>
        <time>2026-08-15T07:23:15.000Z</time>
      </trkpt>
      <trkpt lat="22.994152" lon="109.720335">
        <ele>87.654151</ele>
        <time>2026-08-15T07:23:16.000Z</time>
      </trkpt>
      <trkpt lat="22.994123" lon="109.720346">
        <ele>87.751629</ele>
        <time>2026-08-15T07:23:17.000Z</time>
      </trkpt>
      <trkpt lat="22.994093" lon="109.720358">
        <ele>87.853080</ele>
        <time>2026-08-15T07:23:18.000Z</time>
      </trkpt>
      <trkpt lat="22.994062" lon="109.720370">
        <ele>87.902937</ele>
        <time>2026-08-15T07:23:19.000Z</time>
      </trkpt>
      <trkpt lat="22.994031" lon="109.720381">
        <ele>87.896483</ele>
        <time>2026-08-15T07:23:20.000Z</time>
      </trkpt>
      <trkpt lat="22.993999" lon="109.720392">
        <ele>87.889840</ele>
        <time>2026-08-15T07:23:21.000Z</time>
      </trkpt>
      <trkpt lat="22.993967" lon="109.720403">
        <ele>87.883198</ele>
        <time>2026-08-15T07:23:22.000Z</time>
      </trkpt>
      <trkpt lat="22.993935" lon="109.720415">
        <ele>87.876498</ele>
        <time>2026-08-15T07:23:23.000Z</time>
      </trkpt>
      <trkpt lat="22.993903" lon="109.720427">
        <ele>87.869798</ele>
        <time>2026-08-15T07:23:24.000Z</time>
      </trkpt>
      <trkpt lat="22.993868" lon="109.720440">
        <ele>87.862478</ele>
        <time>2026-08-15T07:23:25.000Z</time>
      </trkpt>
      <trkpt lat="22.993832" lon="109.720455">
        <ele>87.854847</ele>
        <time>2026-08-15T07:23:26.000Z</time>
      </trkpt>
      <trkpt lat="22.993795" lon="109.720470">
        <ele>87.847031</ele>
        <time>2026-08-15T07:23:27.000Z</time>
      </trkpt>
      <trkpt lat="22.993760" lon="109.720486">
        <ele>87.839516</ele>
        <time>2026-08-15T07:23:28.000Z</time>
      </trkpt>
      <trkpt lat="22.993725" lon="109.720501">
        <ele>87.832070</ele>
        <time>2026-08-15T07:23:29.000Z</time>
      </trkpt>
      <trkpt lat="22.993689" lon="109.720515">
        <ele>87.824503</ele>
        <time>2026-08-15T07:23:30.000Z</time>
      </trkpt>
      <trkpt lat="22.993654" lon="109.720527">
        <ele>87.817239</ele>
        <time>2026-08-15T07:23:31.000Z</time>
      </trkpt>
      <trkpt lat="22.993616" lon="109.720539">
        <ele>87.809407</ele>
        <time>2026-08-15T07:23:32.000Z</time>
      </trkpt>
      <trkpt lat="22.993578" lon="109.720552">
        <ele>87.801523</ele>
        <time>2026-08-15T07:23:33.000Z</time>
      </trkpt>
      <trkpt lat="22.993541" lon="109.720565">
        <ele>87.793827</ele>
        <time>2026-08-15T07:23:34.000Z</time>
      </trkpt>
      <trkpt lat="22.993504" lon="109.720578">
        <ele>87.786131</ele>
        <time>2026-08-15T07:23:35.000Z</time>
      </trkpt>
      <trkpt lat="22.993467" lon="109.720592">
        <ele>87.778377</ele>
        <time>2026-08-15T07:23:36.000Z</time>
      </trkpt>
      <trkpt lat="22.993430" lon="109.720607">
        <ele>87.770561</ele>
        <time>2026-08-15T07:23:37.000Z</time>
      </trkpt>
      <trkpt lat="22.993391" lon="109.720621">
        <ele>87.762432</ele>
        <time>2026-08-15T07:23:38.000Z</time>
      </trkpt>
      <trkpt lat="22.993350" lon="109.720633">
        <ele>87.754029</ele>
        <time>2026-08-15T07:23:39.000Z</time>
      </trkpt>
      <trkpt lat="22.993308" lon="109.720647">
        <ele>87.745334</ele>
        <time>2026-08-15T07:23:40.000Z</time>
      </trkpt>
      <trkpt lat="22.993267" lon="109.720662">
        <ele>87.736772</ele>
        <time>2026-08-15T07:23:41.000Z</time>
      </trkpt>
      <trkpt lat="22.993225" lon="109.720676">
        <ele>87.728078</ele>
        <time>2026-08-15T07:23:42.000Z</time>
      </trkpt>
      <trkpt lat="22.993183" lon="109.720692">
        <ele>87.719269</ele>
        <time>2026-08-15T07:23:43.000Z</time>
      </trkpt>
      <trkpt lat="22.993141" lon="109.720708">
        <ele>87.710461</ele>
        <time>2026-08-15T07:23:44.000Z</time>
      </trkpt>
      <trkpt lat="22.993098" lon="109.720724">
        <ele>87.701466</ele>
        <time>2026-08-15T07:23:45.000Z</time>
      </trkpt>
      <trkpt lat="22.993054" lon="109.720742">
        <ele>87.692161</ele>
        <time>2026-08-15T07:23:46.000Z</time>
      </trkpt>
      <trkpt lat="22.993010" lon="109.720759">
        <ele>87.682919</ele>
        <time>2026-08-15T07:23:47.000Z</time>
      </trkpt>
      <trkpt lat="22.992965" lon="109.720775">
        <ele>87.673548</ele>
        <time>2026-08-15T07:23:48.000Z</time>
      </trkpt>
      <trkpt lat="22.992919" lon="109.720790">
        <ele>87.664043</ele>
        <time>2026-08-15T07:23:49.000Z</time>
      </trkpt>
      <trkpt lat="22.992873" lon="109.720805">
        <ele>87.654538</ele>
        <time>2026-08-15T07:23:50.000Z</time>
      </trkpt>
      <trkpt lat="22.992826" lon="109.720821">
        <ele>87.644791</ele>
        <time>2026-08-15T07:23:51.000Z</time>
      </trkpt>
      <trkpt lat="22.992779" lon="109.720837">
        <ele>87.635043</ele>
        <time>2026-08-15T07:23:52.000Z</time>
      </trkpt>
      <trkpt lat="22.992733" lon="109.720854">
        <ele>87.625427</ele>
        <time>2026-08-15T07:23:53.000Z</time>
      </trkpt>
      <trkpt lat="22.992686" lon="109.720871">
        <ele>87.615623</ele>
        <time>2026-08-15T07:23:54.000Z</time>
      </trkpt>
      <trkpt lat="22.992638" lon="109.720888">
        <ele>87.605632</ele>
        <time>2026-08-15T07:23:55.000Z</time>
      </trkpt>
      <trkpt lat="22.992589" lon="109.720905">
        <ele>87.595452</ele>
        <time>2026-08-15T07:23:56.000Z</time>
      </trkpt>
      <trkpt lat="22.992538" lon="109.720922">
        <ele>87.584894</ele>
        <time>2026-08-15T07:23:57.000Z</time>
      </trkpt>
      <trkpt lat="22.992485" lon="109.720940">
        <ele>87.573904</ele>
        <time>2026-08-15T07:23:58.000Z</time>
      </trkpt>
      <trkpt lat="22.992429" lon="109.720959">
        <ele>87.562294</ele>
        <time>2026-08-15T07:23:59.000Z</time>
      </trkpt>
      <trkpt lat="22.992372" lon="109.720979">
        <ele>87.550439</ele>
        <time>2026-08-15T07:24:00.000Z</time>
      </trkpt>
      <trkpt lat="22.992314" lon="109.721000">
        <ele>87.415958</ele>
        <time>2026-08-15T07:24:01.000Z</time>
      </trkpt>
      <trkpt lat="22.992254" lon="109.721021">
        <ele>87.274524</ele>
        <time>2026-08-15T07:24:02.000Z</time>
      </trkpt>
      <trkpt lat="22.992192" lon="109.721042">
        <ele>87.128813</ele>
        <time>2026-08-15T07:24:03.000Z</time>
      </trkpt>
      <trkpt lat="22.992129" lon="109.721064">
        <ele>86.980338</ele>
        <time>2026-08-15T07:24:04.000Z</time>
      </trkpt>
      <trkpt lat="22.992064" lon="109.721088">
        <ele>86.826307</ele>
        <time>2026-08-15T07:24:05.000Z</time>
      </trkpt>
      <trkpt lat="22.991999" lon="109.721111">
        <ele>86.672928</ele>
        <time>2026-08-15T07:24:06.000Z</time>
      </trkpt>
      <trkpt lat="22.991932" lon="109.721134">
        <ele>86.515275</ele>
        <time>2026-08-15T07:24:07.000Z</time>
      </trkpt>
      <trkpt lat="22.991865" lon="109.721160">
        <ele>86.355647</ele>
        <time>2026-08-15T07:24:08.000Z</time>
      </trkpt>
      <trkpt lat="22.991797" lon="109.721183">
        <ele>86.195854</ele>
        <time>2026-08-15T07:24:09.000Z</time>
      </trkpt>
      <trkpt lat="22.991728" lon="109.721207">
        <ele>86.033300</ele>
        <time>2026-08-15T07:24:10.000Z</time>
      </trkpt>
      <trkpt lat="22.991659" lon="109.721232">
        <ele>85.870103</ele>
        <time>2026-08-15T07:24:11.000Z</time>
      </trkpt>
      <trkpt lat="22.991590" lon="109.721258">
        <ele>85.706242</ele>
        <time>2026-08-15T07:24:12.000Z</time>
      </trkpt>
      <trkpt lat="22.991520" lon="109.721284">
        <ele>85.540259</ele>
        <time>2026-08-15T07:24:13.000Z</time>
      </trkpt>
      <trkpt lat="22.991450" lon="109.721309">
        <ele>85.374933</ele>
        <time>2026-08-15T07:24:14.000Z</time>
      </trkpt>
      <trkpt lat="22.991379" lon="109.721334">
        <ele>85.207474</ele>
        <time>2026-08-15T07:24:15.000Z</time>
      </trkpt>
      <trkpt lat="22.991307" lon="109.721359">
        <ele>85.037880</ele>
        <time>2026-08-15T07:24:16.000Z</time>
      </trkpt>
      <trkpt lat="22.991236" lon="109.721383">
        <ele>84.871046</ele>
        <time>2026-08-15T07:24:17.000Z</time>
      </trkpt>
      <trkpt lat="22.991164" lon="109.721407">
        <ele>84.702069</ele>
        <time>2026-08-15T07:24:18.000Z</time>
      </trkpt>
      <trkpt lat="22.991092" lon="109.721432">
        <ele>84.532474</ele>
        <time>2026-08-15T07:24:19.000Z</time>
      </trkpt>
      <trkpt lat="22.991019" lon="109.721458">
        <ele>84.360109</ele>
        <time>2026-08-15T07:24:20.000Z</time>
      </trkpt>
      <trkpt lat="22.990945" lon="109.721484">
        <ele>84.185610</ele>
        <time>2026-08-15T07:24:21.000Z</time>
      </trkpt>
      <trkpt lat="22.990870" lon="109.721511">
        <ele>84.008336</ele>
        <time>2026-08-15T07:24:22.000Z</time>
      </trkpt>
      <trkpt lat="22.990795" lon="109.721539">
        <ele>83.830401</ele>
        <time>2026-08-15T07:24:23.000Z</time>
      </trkpt>
      <trkpt lat="22.990721" lon="109.721566">
        <ele>83.655256</ele>
        <time>2026-08-15T07:24:24.000Z</time>
      </trkpt>
      <trkpt lat="22.990645" lon="109.721593">
        <ele>83.512223</ele>
        <time>2026-08-15T07:24:25.000Z</time>
      </trkpt>
      <trkpt lat="22.990570" lon="109.721618">
        <ele>83.501212</ele>
        <time>2026-08-15T07:24:26.000Z</time>
      </trkpt>
      <trkpt lat="22.990494" lon="109.721643">
        <ele>83.490067</ele>
        <time>2026-08-15T07:24:27.000Z</time>
      </trkpt>
      <trkpt lat="22.990417" lon="109.721669">
        <ele>83.478750</ele>
        <time>2026-08-15T07:24:28.000Z</time>
      </trkpt>
      <trkpt lat="22.990342" lon="109.721695">
        <ele>83.467701</ele>
        <time>2026-08-15T07:24:29.000Z</time>
      </trkpt>
      <trkpt lat="22.990266" lon="109.721721">
        <ele>83.456518</ele>
        <time>2026-08-15T07:24:30.000Z</time>
      </trkpt>
      <trkpt lat="22.990192" lon="109.721747">
        <ele>83.445602</ele>
        <time>2026-08-15T07:24:31.000Z</time>
      </trkpt>
      <trkpt lat="22.990118" lon="109.721772">
        <ele>83.434726</ele>
        <time>2026-08-15T07:24:32.000Z</time>
      </trkpt>
      <trkpt lat="22.990045" lon="109.721798">
        <ele>83.423944</ele>
        <time>2026-08-15T07:24:33.000Z</time>
      </trkpt>
      <trkpt lat="22.989973" lon="109.721824">
        <ele>83.413295</ele>
        <time>2026-08-15T07:24:34.000Z</time>
      </trkpt>
      <trkpt lat="22.989901" lon="109.721850">
        <ele>83.402646</ele>
        <time>2026-08-15T07:24:35.000Z</time>
      </trkpt>
      <trkpt lat="22.989830" lon="109.721875">
        <ele>83.392171</ele>
        <time>2026-08-15T07:24:36.000Z</time>
      </trkpt>
      <trkpt lat="22.989761" lon="109.721901">
        <ele>83.381920</ele>
        <time>2026-08-15T07:24:37.000Z</time>
      </trkpt>
      <trkpt lat="22.989693" lon="109.721927">
        <ele>83.371803</ele>
        <time>2026-08-15T07:24:38.000Z</time>
      </trkpt>
      <trkpt lat="22.989625" lon="109.721951">
        <ele>83.361768</ele>
        <time>2026-08-15T07:24:39.000Z</time>
      </trkpt>
      <trkpt lat="22.989557" lon="109.721975">
        <ele>83.351733</ele>
        <time>2026-08-15T07:24:40.000Z</time>
      </trkpt>
      <trkpt lat="22.989490" lon="109.722000">
        <ele>83.341790</ele>
        <time>2026-08-15T07:24:41.000Z</time>
      </trkpt>
      <trkpt lat="22.989424" lon="109.722025">
        <ele>83.331980</ele>
        <time>2026-08-15T07:24:42.000Z</time>
      </trkpt>
      <trkpt lat="22.989358" lon="109.722049">
        <ele>83.322212</ele>
        <time>2026-08-15T07:24:43.000Z</time>
      </trkpt>
      <trkpt lat="22.989293" lon="109.722072">
        <ele>83.312617</ele>
        <time>2026-08-15T07:24:44.000Z</time>
      </trkpt>
      <trkpt lat="22.989227" lon="109.722096">
        <ele>83.302849</ele>
        <time>2026-08-15T07:24:45.000Z</time>
      </trkpt>
      <trkpt lat="22.989162" lon="109.722120">
        <ele>83.293214</ele>
        <time>2026-08-15T07:24:46.000Z</time>
      </trkpt>
      <trkpt lat="22.989096" lon="109.722143">
        <ele>83.283485</ele>
        <time>2026-08-15T07:24:47.000Z</time>
      </trkpt>
      <trkpt lat="22.989030" lon="109.722166">
        <ele>83.273757</ele>
        <time>2026-08-15T07:24:48.000Z</time>
      </trkpt>
      <trkpt lat="22.988964" lon="109.722189">
        <ele>83.264029</ele>
        <time>2026-08-15T07:24:49.000Z</time>
      </trkpt>
      <trkpt lat="22.988899" lon="109.722215">
        <ele>83.273679</ele>
        <time>2026-08-15T07:24:50.000Z</time>
      </trkpt>
      <trkpt lat="22.988835" lon="109.722239">
        <ele>83.287467</ele>
        <time>2026-08-15T07:24:51.000Z</time>
      </trkpt>
      <trkpt lat="22.988772" lon="109.722262">
        <ele>83.301003</ele>
        <time>2026-08-15T07:24:52.000Z</time>
      </trkpt>
      <trkpt lat="22.988707" lon="109.722284">
        <ele>83.314868</ele>
        <time>2026-08-15T07:24:53.000Z</time>
      </trkpt>
      <trkpt lat="22.988644" lon="109.722307">
        <ele>83.328404</ele>
        <time>2026-08-15T07:24:54.000Z</time>
      </trkpt>
      <trkpt lat="22.988581" lon="109.722331">
        <ele>83.342000</ele>
        <time>2026-08-15T07:24:55.000Z</time>
      </trkpt>
      <trkpt lat="22.988518" lon="109.722356">
        <ele>83.355659</ele>
        <time>2026-08-15T07:24:56.000Z</time>
      </trkpt>
      <trkpt lat="22.988456" lon="109.722380">
        <ele>83.369064</ele>
        <time>2026-08-15T07:24:57.000Z</time>
      </trkpt>
      <trkpt lat="22.988394" lon="109.722402">
        <ele>83.382347</ele>
        <time>2026-08-15T07:24:58.000Z</time>
      </trkpt>
      <trkpt lat="22.988334" lon="109.722425">
        <ele>83.395305</ele>
        <time>2026-08-15T07:24:59.000Z</time>
      </trkpt>
      <trkpt lat="22.988274" lon="109.722447">
        <ele>83.408201</ele>
        <time>2026-08-15T07:25:00.000Z</time>
      </trkpt>
      <trkpt lat="22.988215" lon="109.722468">
        <ele>83.420846</ele>
        <time>2026-08-15T07:25:01.000Z</time>
      </trkpt>
      <trkpt lat="22.988158" lon="109.722489">
        <ele>83.433103</ele>
        <time>2026-08-15T07:25:02.000Z</time>
      </trkpt>
      <trkpt lat="22.988102" lon="109.722512">
        <ele>83.445296</ele>
        <time>2026-08-15T07:25:03.000Z</time>
      </trkpt>
      <trkpt lat="22.988046" lon="109.722534">
        <ele>83.457424</ele>
        <time>2026-08-15T07:25:04.000Z</time>
      </trkpt>
      <trkpt lat="22.987991" lon="109.722555">
        <ele>83.469296</ele>
        <time>2026-08-15T07:25:05.000Z</time>
      </trkpt>
      <trkpt lat="22.987935" lon="109.722575">
        <ele>83.481302</ele>
        <time>2026-08-15T07:25:06.000Z</time>
      </trkpt>
      <trkpt lat="22.987880" lon="109.722595">
        <ele>83.493114</ele>
        <time>2026-08-15T07:25:07.000Z</time>
      </trkpt>
      <trkpt lat="22.987825" lon="109.722614">
        <ele>83.504867</ele>
        <time>2026-08-15T07:25:08.000Z</time>
      </trkpt>
      <trkpt lat="22.987771" lon="109.722633">
        <ele>83.516427</ele>
        <time>2026-08-15T07:25:09.000Z</time>
      </trkpt>
      <trkpt lat="22.987717" lon="109.722653">
        <ele>83.528046</ele>
        <time>2026-08-15T07:25:10.000Z</time>
      </trkpt>
      <trkpt lat="22.987664" lon="109.722673">
        <ele>83.539473</ele>
        <time>2026-08-15T07:25:11.000Z</time>
      </trkpt>
      <trkpt lat="22.987610" lon="109.722693">
        <ele>83.551092</ele>
        <time>2026-08-15T07:25:12.000Z</time>
      </trkpt>
      <trkpt lat="22.987558" lon="109.722712">
        <ele>83.562265</ele>
        <time>2026-08-15T07:25:13.000Z</time>
      </trkpt>
      <trkpt lat="22.987505" lon="109.722729">
        <ele>83.573519</ele>
        <time>2026-08-15T07:25:14.000Z</time>
      </trkpt>
      <trkpt lat="22.987449" lon="109.722744">
        <ele>83.585265</ele>
        <time>2026-08-15T07:25:15.000Z</time>
      </trkpt>
      <trkpt lat="22.987393" lon="109.722760">
        <ele>83.597058</ele>
        <time>2026-08-15T07:25:16.000Z</time>
      </trkpt>
      <trkpt lat="22.987338" lon="109.722774">
        <ele>83.608562</ele>
        <time>2026-08-15T07:25:17.000Z</time>
      </trkpt>
      <trkpt lat="22.987282" lon="109.722788">
        <ele>83.620265</ele>
        <time>2026-08-15T07:25:18.000Z</time>
      </trkpt>
      <trkpt lat="22.987226" lon="109.722803">
        <ele>83.640286</ele>
        <time>2026-08-15T07:25:19.000Z</time>
      </trkpt>
      <trkpt lat="22.987169" lon="109.722816">
        <ele>83.680199</ele>
        <time>2026-08-15T07:25:20.000Z</time>
      </trkpt>
      <trkpt lat="22.987113" lon="109.722830">
        <ele>83.719577</ele>
        <time>2026-08-15T07:25:21.000Z</time>
      </trkpt>
      <trkpt lat="22.987058" lon="109.722839">
        <ele>83.757693</ele>
        <time>2026-08-15T07:25:22.000Z</time>
      </trkpt>
      <trkpt lat="22.987002" lon="109.722850">
        <ele>83.796691</ele>
        <time>2026-08-15T07:25:23.000Z</time>
      </trkpt>
      <trkpt lat="22.986946" lon="109.722862">
        <ele>83.835806</ele>
        <time>2026-08-15T07:25:24.000Z</time>
      </trkpt>
      <trkpt lat="22.986890" lon="109.722873">
        <ele>83.874804</ele>
        <time>2026-08-15T07:25:25.000Z</time>
      </trkpt>
      <trkpt lat="22.986835" lon="109.722884">
        <ele>83.913128</ele>
        <time>2026-08-15T07:25:26.000Z</time>
      </trkpt>
      <trkpt lat="22.986779" lon="109.722897">
        <ele>83.952370</ele>
        <time>2026-08-15T07:25:27.000Z</time>
      </trkpt>
      <trkpt lat="22.986723" lon="109.722909">
        <ele>83.991485</ele>
        <time>2026-08-15T07:25:28.000Z</time>
      </trkpt>
      <trkpt lat="22.986666" lon="109.722920">
        <ele>84.031157</ele>
        <time>2026-08-15T07:25:29.000Z</time>
      </trkpt>
      <trkpt lat="22.986609" lon="109.722929">
        <ele>84.070628</ele>
        <time>2026-08-15T07:25:30.000Z</time>
      </trkpt>
      <trkpt lat="22.986552" lon="109.722937">
        <ele>84.110014</ele>
        <time>2026-08-15T07:25:31.000Z</time>
      </trkpt>
      <trkpt lat="22.986495" lon="109.722946">
        <ele>84.149485</ele>
        <time>2026-08-15T07:25:32.000Z</time>
      </trkpt>
      <trkpt lat="22.986437" lon="109.722954">
        <ele>84.189551</ele>
        <time>2026-08-15T07:25:33.000Z</time>
      </trkpt>
      <trkpt lat="22.986379" lon="109.722962">
        <ele>84.229616</ele>
        <time>2026-08-15T07:25:34.000Z</time>
      </trkpt>
      <trkpt lat="22.986321" lon="109.722969">
        <ele>84.269606</ele>
        <time>2026-08-15T07:25:35.000Z</time>
      </trkpt>
      <trkpt lat="22.986263" lon="109.722977">
        <ele>84.309672</ele>
        <time>2026-08-15T07:25:36.000Z</time>
      </trkpt>
      <trkpt lat="22.986206" lon="109.722986">
        <ele>84.349143</ele>
        <time>2026-08-15T07:25:37.000Z</time>
      </trkpt>
      <trkpt lat="22.986148" lon="109.722993">
        <ele>84.389134</ele>
        <time>2026-08-15T07:25:38.000Z</time>
      </trkpt>
      <trkpt lat="22.986092" lon="109.723001">
        <ele>84.427840</ele>
        <time>2026-08-15T07:25:39.000Z</time>
      </trkpt>
      <trkpt lat="22.986034" lon="109.723011">
        <ele>84.468083</ele>
        <time>2026-08-15T07:25:40.000Z</time>
      </trkpt>
      <trkpt lat="22.985979" lon="109.723024">
        <ele>84.506655</ele>
        <time>2026-08-15T07:25:41.000Z</time>
      </trkpt>
      <trkpt lat="22.985922" lon="109.723032">
        <ele>84.546041</ele>
        <time>2026-08-15T07:25:42.000Z</time>
      </trkpt>
      <trkpt lat="22.985865" lon="109.723042">
        <ele>84.585608</ele>
        <time>2026-08-15T07:25:43.000Z</time>
      </trkpt>
      <trkpt lat="22.985809" lon="109.723050">
        <ele>84.624314</ele>
        <time>2026-08-15T07:25:44.000Z</time>
      </trkpt>
      <trkpt lat="22.985756" lon="109.723059">
        <ele>84.661075</ele>
        <time>2026-08-15T07:25:45.000Z</time>
      </trkpt>
      <trkpt lat="22.985703" lon="109.723070">
        <ele>84.698052</ele>
        <time>2026-08-15T07:25:46.000Z</time>
      </trkpt>
      <trkpt lat="22.985651" lon="109.723080">
        <ele>84.734240</ele>
        <time>2026-08-15T07:25:47.000Z</time>
      </trkpt>
      <trkpt lat="22.985599" lon="109.723089">
        <ele>84.770324</ele>
        <time>2026-08-15T07:25:48.000Z</time>
      </trkpt>
      <trkpt lat="22.985547" lon="109.723099">
        <ele>84.806513</ele>
        <time>2026-08-15T07:25:49.000Z</time>
      </trkpt>
      <trkpt lat="22.985494" lon="109.723111">
        <ele>84.843613</ele>
        <time>2026-08-15T07:25:50.000Z</time>
      </trkpt>
      <trkpt lat="22.985443" lon="109.723122">
        <ele>84.875488</ele>
        <time>2026-08-15T07:25:51.000Z</time>
      </trkpt>
      <trkpt lat="22.985390" lon="109.723135">
        <ele>84.905022</ele>
        <time>2026-08-15T07:25:52.000Z</time>
      </trkpt>
      <trkpt lat="22.985338" lon="109.723148">
        <ele>84.934026</ele>
        <time>2026-08-15T07:25:53.000Z</time>
      </trkpt>
      <trkpt lat="22.985286" lon="109.723162">
        <ele>84.963146</ele>
        <time>2026-08-15T07:25:54.000Z</time>
      </trkpt>
      <trkpt lat="22.985235" lon="109.723177">
        <ele>84.991866</ele>
        <time>2026-08-15T07:25:55.000Z</time>
      </trkpt>
      <trkpt lat="22.985185" lon="109.723191">
        <ele>85.019932</ele>
        <time>2026-08-15T07:25:56.000Z</time>
      </trkpt>
      <trkpt lat="22.985136" lon="109.723204">
        <ele>85.047350</ele>
        <time>2026-08-15T07:25:57.000Z</time>
      </trkpt>
      <trkpt lat="22.985087" lon="109.723219">
        <ele>85.075021</ele>
        <time>2026-08-15T07:25:58.000Z</time>
      </trkpt>
      <trkpt lat="22.985041" lon="109.723234">
        <ele>85.101127</ele>
        <time>2026-08-15T07:25:59.000Z</time>
      </trkpt>
      <trkpt lat="22.984995" lon="109.723249">
        <ele>85.127233</ele>
        <time>2026-08-15T07:26:00.000Z</time>
      </trkpt>
      <trkpt lat="22.984949" lon="109.723266">
        <ele>85.153645</ele>
        <time>2026-08-15T07:26:01.000Z</time>
      </trkpt>
      <trkpt lat="22.984904" lon="109.723285">
        <ele>85.179888</ele>
        <time>2026-08-15T07:26:02.000Z</time>
      </trkpt>
      <trkpt lat="22.984859" lon="109.723303">
        <ele>85.205953</ele>
        <time>2026-08-15T07:26:03.000Z</time>
      </trkpt>
      <trkpt lat="22.984815" lon="109.723322">
        <ele>85.231690</ele>
        <time>2026-08-15T07:26:04.000Z</time>
      </trkpt>
      <trkpt lat="22.984770" lon="109.723340">
        <ele>85.257756</ele>
        <time>2026-08-15T07:26:05.000Z</time>
      </trkpt>
      <trkpt lat="22.984726" lon="109.723360">
        <ele>85.283682</ele>
        <time>2026-08-15T07:26:06.000Z</time>
      </trkpt>
      <trkpt lat="22.984682" lon="109.723380">
        <ele>85.309608</ele>
        <time>2026-08-15T07:26:07.000Z</time>
      </trkpt>
      <trkpt lat="22.984639" lon="109.723402">
        <ele>85.335444</ele>
        <time>2026-08-15T07:26:08.000Z</time>
      </trkpt>
      <trkpt lat="22.984595" lon="109.723425">
        <ele>85.361986</ele>
        <time>2026-08-15T07:26:09.000Z</time>
      </trkpt>
      <trkpt lat="22.984551" lon="109.723449">
        <ele>85.388749</ele>
        <time>2026-08-15T07:26:10.000Z</time>
      </trkpt>
      <trkpt lat="22.984509" lon="109.723472">
        <ele>85.414315</ele>
        <time>2026-08-15T07:26:11.000Z</time>
      </trkpt>
      <trkpt lat="22.984468" lon="109.723494">
        <ele>85.439172</ele>
        <time>2026-08-15T07:26:12.000Z</time>
      </trkpt>
      <trkpt lat="22.984427" lon="109.723518">
        <ele>85.464488</ele>
        <time>2026-08-15T07:26:13.000Z</time>
      </trkpt>
      <trkpt lat="22.984386" lon="109.723542">
        <ele>85.489804</ele>
        <time>2026-08-15T07:26:14.000Z</time>
      </trkpt>
      <trkpt lat="22.984345" lon="109.723566">
        <ele>85.515120</ele>
        <time>2026-08-15T07:26:15.000Z</time>
      </trkpt>
      <trkpt lat="22.984304" lon="109.723590">
        <ele>85.540435</ele>
        <time>2026-08-15T07:26:16.000Z</time>
      </trkpt>
      <trkpt lat="22.984262" lon="109.723615">
        <ele>85.566468</ele>
        <time>2026-08-15T07:26:17.000Z</time>
      </trkpt>
      <trkpt lat="22.984223" lon="109.723637">
        <ele>85.590355</ele>
        <time>2026-08-15T07:26:18.000Z</time>
      </trkpt>
      <trkpt lat="22.984186" lon="109.723663">
        <ele>85.614308</ele>
        <time>2026-08-15T07:26:19.000Z</time>
      </trkpt>
      <trkpt lat="22.984146" lon="109.723688">
        <ele>85.639392</ele>
        <time>2026-08-15T07:26:20.000Z</time>
      </trkpt>
      <trkpt lat="22.984103" lon="109.723712">
        <ele>85.665670</ele>
        <time>2026-08-15T07:26:21.000Z</time>
      </trkpt>
      <trkpt lat="22.984059" lon="109.723736">
        <ele>85.692433</ele>
        <time>2026-08-15T07:26:22.000Z</time>
      </trkpt>
      <trkpt lat="22.984014" lon="109.723759">
        <ele>85.719466</ele>
        <time>2026-08-15T07:26:23.000Z</time>
      </trkpt>
      <trkpt lat="22.983971" lon="109.723782">
        <ele>85.745519</ele>
        <time>2026-08-15T07:26:24.000Z</time>
      </trkpt>
      <trkpt lat="22.983937" lon="109.723809">
        <ele>85.768412</ele>
        <time>2026-08-15T07:26:25.000Z</time>
      </trkpt>
      <trkpt lat="22.983902" lon="109.723837">
        <ele>85.792039</ele>
        <time>2026-08-15T07:26:26.000Z</time>
      </trkpt>
      <trkpt lat="22.983857" lon="109.723863">
        <ele>85.819744</ele>
        <time>2026-08-15T07:26:27.000Z</time>
      </trkpt>
      <trkpt lat="22.983810" lon="109.723889">
        <ele>85.827394</ele>
        <time>2026-08-15T07:26:28.000Z</time>
      </trkpt>
      <trkpt lat="22.983760" lon="109.723915">
        <ele>85.791995</ele>
        <time>2026-08-15T07:26:29.000Z</time>
      </trkpt>
      <trkpt lat="22.983711" lon="109.723943">
        <ele>85.756639</ele>
        <time>2026-08-15T07:26:30.000Z</time>
      </trkpt>
      <trkpt lat="22.983663" lon="109.723972">
        <ele>85.721564</ele>
        <time>2026-08-15T07:26:31.000Z</time>
      </trkpt>
      <trkpt lat="22.983614" lon="109.724002">
        <ele>85.685645</ele>
        <time>2026-08-15T07:26:32.000Z</time>
      </trkpt>
      <trkpt lat="22.983563" lon="109.724033">
        <ele>85.648325</ele>
        <time>2026-08-15T07:26:33.000Z</time>
      </trkpt>
      <trkpt lat="22.983512" lon="109.724062">
        <ele>85.611564</ele>
        <time>2026-08-15T07:26:34.000Z</time>
      </trkpt>
      <trkpt lat="22.983463" lon="109.724094">
        <ele>85.575054</ele>
        <time>2026-08-15T07:26:35.000Z</time>
      </trkpt>
      <trkpt lat="22.983410" lon="109.724121">
        <ele>85.537671</ele>
        <time>2026-08-15T07:26:36.000Z</time>
      </trkpt>
      <trkpt lat="22.983358" lon="109.724149">
        <ele>85.500609</ele>
        <time>2026-08-15T07:26:37.000Z</time>
      </trkpt>
      <trkpt lat="22.983306" lon="109.724178">
        <ele>85.463281</ele>
        <time>2026-08-15T07:26:38.000Z</time>
      </trkpt>
      <trkpt lat="22.983251" lon="109.724207">
        <ele>85.424240</ele>
        <time>2026-08-15T07:26:39.000Z</time>
      </trkpt>
      <trkpt lat="22.983198" lon="109.724237">
        <ele>85.386075</ele>
        <time>2026-08-15T07:26:40.000Z</time>
      </trkpt>
      <trkpt lat="22.983143" lon="109.724268">
        <ele>85.346506</ele>
        <time>2026-08-15T07:26:41.000Z</time>
      </trkpt>
      <trkpt lat="22.983087" lon="109.724298">
        <ele>85.306632</ele>
        <time>2026-08-15T07:26:42.000Z</time>
      </trkpt>
      <trkpt lat="22.983032" lon="109.724327">
        <ele>85.267591</ele>
        <time>2026-08-15T07:26:43.000Z</time>
      </trkpt>
      <trkpt lat="22.982978" lon="109.724360">
        <ele>85.228024</ele>
        <time>2026-08-15T07:26:44.000Z</time>
      </trkpt>
      <trkpt lat="22.982924" lon="109.724395">
        <ele>85.187868</ele>
        <time>2026-08-15T07:26:45.000Z</time>
      </trkpt>
      <trkpt lat="22.982870" lon="109.724427">
        <ele>85.148587</ele>
        <time>2026-08-15T07:26:46.000Z</time>
      </trkpt>
      <trkpt lat="22.982815" lon="109.724456">
        <ele>85.109545</ele>
        <time>2026-08-15T07:26:47.000Z</time>
      </trkpt>
      <trkpt lat="22.982757" lon="109.724480">
        <ele>85.069911</ele>
        <time>2026-08-15T07:26:48.000Z</time>
      </trkpt>
      <trkpt lat="22.982698" lon="109.724497">
        <ele>85.030931</ele>
        <time>2026-08-15T07:26:49.000Z</time>
      </trkpt>
      <trkpt lat="22.982639" lon="109.724517">
        <ele>84.991462</ele>
        <time>2026-08-15T07:26:50.000Z</time>
      </trkpt>
      <trkpt lat="22.982579" lon="109.724540">
        <ele>84.950831</ele>
        <time>2026-08-15T07:26:51.000Z</time>
      </trkpt>
      <trkpt lat="22.982519" lon="109.724563">
        <ele>84.910200</ele>
        <time>2026-08-15T07:26:52.000Z</time>
      </trkpt>
      <trkpt lat="22.982460" lon="109.724585">
        <ele>84.870365</ele>
        <time>2026-08-15T07:26:53.000Z</time>
      </trkpt>
      <trkpt lat="22.982404" lon="109.724610">
        <ele>84.831702</ele>
        <time>2026-08-15T07:26:54.000Z</time>
      </trkpt>
      <trkpt lat="22.982347" lon="109.724638">
        <ele>84.791754</ele>
        <time>2026-08-15T07:26:55.000Z</time>
      </trkpt>
      <trkpt lat="22.982290" lon="109.724667">
        <ele>84.751559</ele>
        <time>2026-08-15T07:26:56.000Z</time>
      </trkpt>
      <trkpt lat="22.982233" lon="109.724692">
        <ele>84.712304</ele>
        <time>2026-08-15T07:26:57.000Z</time>
      </trkpt>
      <trkpt lat="22.982176" lon="109.724720">
        <ele>84.677911</ele>
        <time>2026-08-15T07:26:58.000Z</time>
      </trkpt>
      <trkpt lat="22.982120" lon="109.724750">
        <ele>84.650479</ele>
        <time>2026-08-15T07:26:59.000Z</time>
      </trkpt>
      <trkpt lat="22.982064" lon="109.724782">
        <ele>84.622680</ele>
        <time>2026-08-15T07:27:00.000Z</time>
      </trkpt>
      <trkpt lat="22.982009" lon="109.724816">
        <ele>84.594878</ele>
        <time>2026-08-15T07:27:01.000Z</time>
      </trkpt>
      <trkpt lat="22.981952" lon="109.724848">
        <ele>84.566690</ele>
        <time>2026-08-15T07:27:02.000Z</time>
      </trkpt>
      <trkpt lat="22.981896" lon="109.724880">
        <ele>84.538891</ele>
        <time>2026-08-15T07:27:03.000Z</time>
      </trkpt>
      <trkpt lat="22.981838" lon="109.724910">
        <ele>84.510668</ele>
        <time>2026-08-15T07:27:04.000Z</time>
      </trkpt>
      <trkpt lat="22.981786" lon="109.724950">
        <ele>84.482675</ele>
        <time>2026-08-15T07:27:05.000Z</time>
      </trkpt>
      <trkpt lat="22.981731" lon="109.724988">
        <ele>84.454038</ele>
        <time>2026-08-15T07:27:06.000Z</time>
      </trkpt>
      <trkpt lat="22.981675" lon="109.725023">
        <ele>84.425654</ele>
        <time>2026-08-15T07:27:07.000Z</time>
      </trkpt>
      <trkpt lat="22.981617" lon="109.725053">
        <ele>84.397431</ele>
        <time>2026-08-15T07:27:08.000Z</time>
      </trkpt>
      <trkpt lat="22.981558" lon="109.725086">
        <ele>84.368276</ele>
        <time>2026-08-15T07:27:09.000Z</time>
      </trkpt>
      <trkpt lat="22.981497" lon="109.725117">
        <ele>84.338689</ele>
        <time>2026-08-15T07:27:10.000Z</time>
      </trkpt>
      <trkpt lat="22.981435" lon="109.725144">
        <ele>84.309344</ele>
        <time>2026-08-15T07:27:11.000Z</time>
      </trkpt>
      <trkpt lat="22.981371" lon="109.725172">
        <ele>84.279032</ele>
        <time>2026-08-15T07:27:12.000Z</time>
      </trkpt>
      <trkpt lat="22.981306" lon="109.725202">
        <ele>84.248004</ele>
        <time>2026-08-15T07:27:13.000Z</time>
      </trkpt>
      <trkpt lat="22.981244" lon="109.725236">
        <ele>84.217492</ele>
        <time>2026-08-15T07:27:14.000Z</time>
      </trkpt>
      <trkpt lat="22.981185" lon="109.725269">
        <ele>84.188337</ele>
        <time>2026-08-15T07:27:15.000Z</time>
      </trkpt>
      <trkpt lat="22.981124" lon="109.725301">
        <ele>84.158576</ele>
        <time>2026-08-15T07:27:16.000Z</time>
      </trkpt>
      <trkpt lat="22.981063" lon="109.725334">
        <ele>84.128637</ele>
        <time>2026-08-15T07:27:17.000Z</time>
      </trkpt>
      <trkpt lat="22.981005" lon="109.725369">
        <ele>84.099488</ele>
        <time>2026-08-15T07:27:18.000Z</time>
      </trkpt>
      <trkpt lat="22.980948" lon="109.725402">
        <ele>84.071111</ele>
        <time>2026-08-15T07:27:19.000Z</time>
      </trkpt>
      <trkpt lat="22.980888" lon="109.725429">
        <ele>84.042579</ele>
        <time>2026-08-15T07:27:20.000Z</time>
      </trkpt>
      <trkpt lat="22.980825" lon="109.725453">
        <ele>84.013249</ele>
        <time>2026-08-15T07:27:21.000Z</time>
      </trkpt>
      <trkpt lat="22.980762" lon="109.725479">
        <ele>83.983641</ele>
        <time>2026-08-15T07:27:22.000Z</time>
      </trkpt>
      <trkpt lat="22.980699" lon="109.725505">
        <ele>83.954033</ele>
        <time>2026-08-15T07:27:23.000Z</time>
      </trkpt>
      <trkpt lat="22.980640" lon="109.725536">
        <ele>83.925239</ele>
        <time>2026-08-15T07:27:24.000Z</time>
      </trkpt>
      <trkpt lat="22.980582" lon="109.725567">
        <ele>83.900517</ele>
        <time>2026-08-15T07:27:25.000Z</time>
      </trkpt>
      <trkpt lat="22.980532" lon="109.725609">
        <ele>83.905403</ele>
        <time>2026-08-15T07:27:26.000Z</time>
      </trkpt>
      <trkpt lat="22.980477" lon="109.725641">
        <ele>83.910227</ele>
        <time>2026-08-15T07:27:27.000Z</time>
      </trkpt>
      <trkpt lat="22.980418" lon="109.725667">
        <ele>83.915149</ele>
        <time>2026-08-15T07:27:28.000Z</time>
      </trkpt>
      <trkpt lat="22.980361" lon="109.725695">
        <ele>83.919985</ele>
        <time>2026-08-15T07:27:29.000Z</time>
      </trkpt>
      <trkpt lat="22.980304" lon="109.725721">
        <ele>83.924764</ele>
        <time>2026-08-15T07:27:30.000Z</time>
      </trkpt>
      <trkpt lat="22.980244" lon="109.725746">
        <ele>83.929732</ele>
        <time>2026-08-15T07:27:31.000Z</time>
      </trkpt>
      <trkpt lat="22.980182" lon="109.725770">
        <ele>83.934821</ele>
        <time>2026-08-15T07:27:32.000Z</time>
      </trkpt>
      <trkpt lat="22.980124" lon="109.725799">
        <ele>83.939757</ele>
        <time>2026-08-15T07:27:33.000Z</time>
      </trkpt>
      <trkpt lat="22.980067" lon="109.725829">
        <ele>83.944653</ele>
        <time>2026-08-15T07:27:34.000Z</time>
      </trkpt>
      <trkpt lat="22.980009" lon="109.725854">
        <ele>83.949477</ele>
        <time>2026-08-15T07:27:35.000Z</time>
      </trkpt>
      <trkpt lat="22.979950" lon="109.725880">
        <ele>83.954399</ele>
        <time>2026-08-15T07:27:36.000Z</time>
      </trkpt>
      <trkpt lat="22.979896" lon="109.725914">
        <ele>83.959225</ele>
        <time>2026-08-15T07:27:37.000Z</time>
      </trkpt>
      <trkpt lat="22.979845" lon="109.725948">
        <ele>83.963851</ele>
        <time>2026-08-15T07:27:38.000Z</time>
      </trkpt>
      <trkpt lat="22.979793" lon="109.725982">
        <ele>83.968543</ele>
        <time>2026-08-15T07:27:39.000Z</time>
      </trkpt>
      <trkpt lat="22.979741" lon="109.726015">
        <ele>83.973199</ele>
        <time>2026-08-15T07:27:40.000Z</time>
      </trkpt>
      <trkpt lat="22.979690" lon="109.726050">
        <ele>83.977862</ele>
        <time>2026-08-15T07:27:41.000Z</time>
      </trkpt>
      <trkpt lat="22.979642" lon="109.726087">
        <ele>83.982413</ele>
        <time>2026-08-15T07:27:42.000Z</time>
      </trkpt>
      <trkpt lat="22.979597" lon="109.726128">
        <ele>83.986953</ele>
        <time>2026-08-15T07:27:43.000Z</time>
      </trkpt>
      <trkpt lat="22.979546" lon="109.726166">
        <ele>83.991734</ele>
        <time>2026-08-15T07:27:44.000Z</time>
      </trkpt>
      <trkpt lat="22.979495" lon="109.726205">
        <ele>83.996556</ele>
        <time>2026-08-15T07:27:45.000Z</time>
      </trkpt>
      <trkpt lat="22.979445" lon="109.726241">
        <ele>84.001193</ele>
        <time>2026-08-15T07:27:46.000Z</time>
      </trkpt>
      <trkpt lat="22.979394" lon="109.726276">
        <ele>84.005857</ele>
        <time>2026-08-15T07:27:47.000Z</time>
      </trkpt>
      <trkpt lat="22.979343" lon="109.726312">
        <ele>84.010559</ele>
        <time>2026-08-15T07:27:48.000Z</time>
      </trkpt>
      <trkpt lat="22.979297" lon="109.726349">
        <ele>84.014984</ele>
        <time>2026-08-15T07:27:49.000Z</time>
      </trkpt>
      <trkpt lat="22.979251" lon="109.726387">
        <ele>84.019452</ele>
        <time>2026-08-15T07:27:50.000Z</time>
      </trkpt>
      <trkpt lat="22.979206" lon="109.726427">
        <ele>84.023947</ele>
        <time>2026-08-15T07:27:51.000Z</time>
      </trkpt>
      <trkpt lat="22.979162" lon="109.726467">
        <ele>84.028383</ele>
        <time>2026-08-15T07:27:52.000Z</time>
      </trkpt>
      <trkpt lat="22.979119" lon="109.726507">
        <ele>84.032760</ele>
        <time>2026-08-15T07:27:53.000Z</time>
      </trkpt>
      <trkpt lat="22.979078" lon="109.726550">
        <ele>84.037166</ele>
        <time>2026-08-15T07:27:54.000Z</time>
      </trkpt>
      <trkpt lat="22.979038" lon="109.726595">
        <ele>84.047316</ele>
        <time>2026-08-15T07:27:55.000Z</time>
      </trkpt>
      <trkpt lat="22.978999" lon="109.726638">
        <ele>84.061019</ele>
        <time>2026-08-15T07:27:56.000Z</time>
      </trkpt>
      <trkpt lat="22.978959" lon="109.726681">
        <ele>84.074897</ele>
        <time>2026-08-15T07:27:57.000Z</time>
      </trkpt>
      <trkpt lat="22.978920" lon="109.726722">
        <ele>84.088280</ele>
        <time>2026-08-15T07:27:58.000Z</time>
      </trkpt>
      <trkpt lat="22.978880" lon="109.726763">
        <ele>84.101842</ele>
        <time>2026-08-15T07:27:59.000Z</time>
      </trkpt>
      <trkpt lat="22.978841" lon="109.726804">
        <ele>84.115225</ele>
        <time>2026-08-15T07:28:00.000Z</time>
      </trkpt>
      <trkpt lat="22.978804" lon="109.726844">
        <ele>84.128097</ele>
        <time>2026-08-15T07:28:01.000Z</time>
      </trkpt>
      <trkpt lat="22.978766" lon="109.726885">
        <ele>84.141305</ele>
        <time>2026-08-15T07:28:02.000Z</time>
      </trkpt>
      <trkpt lat="22.978731" lon="109.726927">
        <ele>84.154165</ele>
        <time>2026-08-15T07:28:03.000Z</time>
      </trkpt>
      <trkpt lat="22.978696" lon="109.726969">
        <ele>84.167026</ele>
        <time>2026-08-15T07:28:04.000Z</time>
      </trkpt>
      <trkpt lat="22.978662" lon="109.727011">
        <ele>84.179722</ele>
        <time>2026-08-15T07:28:05.000Z</time>
      </trkpt>
      <trkpt lat="22.978627" lon="109.727052">
        <ele>84.192415</ele>
        <time>2026-08-15T07:28:06.000Z</time>
      </trkpt>
      <trkpt lat="22.978593" lon="109.727092">
        <ele>84.204775</ele>
        <time>2026-08-15T07:28:07.000Z</time>
      </trkpt>
      <trkpt lat="22.978560" lon="109.727131">
        <ele>84.216800</ele>
        <time>2026-08-15T07:28:08.000Z</time>
      </trkpt>
      <trkpt lat="22.978526" lon="109.727169">
        <ele>84.228829</ele>
        <time>2026-08-15T07:28:09.000Z</time>
      </trkpt>
      <trkpt lat="22.978492" lon="109.727208">
        <ele>84.241022</ele>
        <time>2026-08-15T07:28:10.000Z</time>
      </trkpt>
      <trkpt lat="22.978459" lon="109.727248">
        <ele>84.253215</ele>
        <time>2026-08-15T07:28:11.000Z</time>
      </trkpt>
      <trkpt lat="22.978427" lon="109.727286">
        <ele>84.264907</ele>
        <time>2026-08-15T07:28:12.000Z</time>
      </trkpt>
      <trkpt lat="22.978396" lon="109.727324">
        <ele>84.276433</ele>
        <time>2026-08-15T07:28:13.000Z</time>
      </trkpt>
      <trkpt lat="22.978365" lon="109.727361">
        <ele>84.287790</ele>
        <time>2026-08-15T07:28:14.000Z</time>
      </trkpt>
      <trkpt lat="22.978335" lon="109.727398">
        <ele>84.298983</ele>
        <time>2026-08-15T07:28:15.000Z</time>
      </trkpt>
      <trkpt lat="22.978307" lon="109.727434">
        <ele>84.309681</ele>
        <time>2026-08-15T07:28:16.000Z</time>
      </trkpt>
      <trkpt lat="22.978279" lon="109.727472">
        <ele>84.320731</ele>
        <time>2026-08-15T07:28:17.000Z</time>
      </trkpt>
      <trkpt lat="22.978251" lon="109.727511">
        <ele>84.331958</ele>
        <time>2026-08-15T07:28:18.000Z</time>
      </trkpt>
      <trkpt lat="22.978224" lon="109.727549">
        <ele>84.342855</ele>
        <time>2026-08-15T07:28:19.000Z</time>
      </trkpt>
      <trkpt lat="22.978197" lon="109.727587">
        <ele>84.353752</ele>
        <time>2026-08-15T07:28:20.000Z</time>
      </trkpt>
      <trkpt lat="22.978171" lon="109.727625">
        <ele>84.364500</ele>
        <time>2026-08-15T07:28:21.000Z</time>
      </trkpt>
      <trkpt lat="22.978144" lon="109.727664">
        <ele>84.375578</ele>
        <time>2026-08-15T07:28:22.000Z</time>
      </trkpt>
      <trkpt lat="22.978116" lon="109.727703">
        <ele>84.386805</ele>
        <time>2026-08-15T07:28:23.000Z</time>
      </trkpt>
      <trkpt lat="22.978089" lon="109.727742">
        <ele>84.397883</ele>
        <time>2026-08-15T07:28:24.000Z</time>
      </trkpt>
      <trkpt lat="22.978061" lon="109.727782">
        <ele>84.409290</ele>
        <time>2026-08-15T07:28:25.000Z</time>
      </trkpt>
      <trkpt lat="22.978032" lon="109.727821">
        <ele>84.420671</ele>
        <time>2026-08-15T07:28:26.000Z</time>
      </trkpt>
      <trkpt lat="22.978002" lon="109.727860">
        <ele>84.432209</ele>
        <time>2026-08-15T07:28:27.000Z</time>
      </trkpt>
      <trkpt lat="22.977973" lon="109.727898">
        <ele>84.443414</ele>
        <time>2026-08-15T07:28:28.000Z</time>
      </trkpt>
      <trkpt lat="22.977944" lon="109.727937">
        <ele>84.454795</ele>
        <time>2026-08-15T07:28:29.000Z</time>
      </trkpt>
      <trkpt lat="22.977912" lon="109.727975">
        <ele>84.466486</ele>
        <time>2026-08-15T07:28:30.000Z</time>
      </trkpt>
      <trkpt lat="22.977879" lon="109.728015">
        <ele>84.478679</ele>
        <time>2026-08-15T07:28:31.000Z</time>
      </trkpt>
      <trkpt lat="22.977847" lon="109.728058">
        <ele>84.460727</ele>
        <time>2026-08-15T07:28:32.000Z</time>
      </trkpt>
      <trkpt lat="22.977816" lon="109.728103">
        <ele>84.428758</ele>
        <time>2026-08-15T07:28:33.000Z</time>
      </trkpt>
      <trkpt lat="22.977785" lon="109.728149">
        <ele>84.396330</ele>
        <time>2026-08-15T07:28:34.000Z</time>
      </trkpt>
      <trkpt lat="22.977753" lon="109.728195">
        <ele>84.363535</ele>
        <time>2026-08-15T07:28:35.000Z</time>
      </trkpt>
      <trkpt lat="22.977722" lon="109.728242">
        <ele>84.330647</ele>
        <time>2026-08-15T07:28:36.000Z</time>
      </trkpt>
      <trkpt lat="22.977692" lon="109.728288">
        <ele>84.298581</ele>
        <time>2026-08-15T07:28:37.000Z</time>
      </trkpt>
      <trkpt lat="22.977663" lon="109.728334">
        <ele>84.266868</ele>
        <time>2026-08-15T07:28:38.000Z</time>
      </trkpt>
      <trkpt lat="22.977636" lon="109.728381">
        <ele>84.235355</ele>
        <time>2026-08-15T07:28:39.000Z</time>
      </trkpt>
      <trkpt lat="22.977610" lon="109.728426">
        <ele>84.205135</ele>
        <time>2026-08-15T07:28:40.000Z</time>
      </trkpt>
      <trkpt lat="22.977585" lon="109.728472">
        <ele>84.174750</ele>
        <time>2026-08-15T07:28:41.000Z</time>
      </trkpt>
      <trkpt lat="22.977561" lon="109.728518">
        <ele>84.144674</ele>
        <time>2026-08-15T07:28:42.000Z</time>
      </trkpt>
      <trkpt lat="22.977538" lon="109.728565">
        <ele>84.114397</ele>
        <time>2026-08-15T07:28:43.000Z</time>
      </trkpt>
      <trkpt lat="22.977518" lon="109.728612">
        <ele>84.084944</ele>
        <time>2026-08-15T07:28:44.000Z</time>
      </trkpt>
      <trkpt lat="22.977500" lon="109.728659">
        <ele>84.055988</ele>
        <time>2026-08-15T07:28:45.000Z</time>
      </trkpt>
      <trkpt lat="22.977481" lon="109.728706">
        <ele>84.026790</ele>
        <time>2026-08-15T07:28:46.000Z</time>
      </trkpt>
      <trkpt lat="22.977465" lon="109.728754">
        <ele>83.997751</ele>
        <time>2026-08-15T07:28:47.000Z</time>
      </trkpt>
      <trkpt lat="22.977450" lon="109.728806">
        <ele>83.966754</ele>
        <time>2026-08-15T07:28:48.000Z</time>
      </trkpt>
      <trkpt lat="22.977435" lon="109.728861">
        <ele>83.934125</ele>
        <time>2026-08-15T07:28:49.000Z</time>
      </trkpt>
      <trkpt lat="22.977418" lon="109.728913">
        <ele>83.902736</ele>
        <time>2026-08-15T07:28:50.000Z</time>
      </trkpt>
      <trkpt lat="22.977400" lon="109.728957">
        <ele>83.875348</ele>
        <time>2026-08-15T07:28:51.000Z</time>
      </trkpt>
      <trkpt lat="22.977387" lon="109.728984">
        <ele>83.858016</ele>
        <time>2026-08-15T07:28:52.000Z</time>
      </trkpt>
      <trkpt lat="22.977378" lon="109.729003">
        <ele>83.845862</ele>
        <time>2026-08-15T07:28:53.000Z</time>
      </trkpt>
      <trkpt lat="22.977375" lon="109.729009">
        <ele>83.841978</ele>
        <time>2026-08-15T07:28:54.000Z</time>
      </trkpt>
      <trkpt lat="22.977330" lon="109.729145">
        <ele>83.759773</ele>
        <time>2026-08-15T07:29:19.000Z</time>
      </trkpt>
      <trkpt lat="22.977323" lon="109.729159">
        <ele>83.750710</ele>
        <time>2026-08-15T07:29:20.000Z</time>
      </trkpt>
      <trkpt lat="22.977319" lon="109.729173">
        <ele>83.742372</ele>
        <time>2026-08-15T07:29:21.000Z</time>
      </trkpt>
      <trkpt lat="22.977316" lon="109.729190">
        <ele>83.732526</ele>
        <time>2026-08-15T07:29:22.000Z</time>
      </trkpt>
      <trkpt lat="22.977315" lon="109.729210">
        <ele>83.721132</ele>
        <time>2026-08-15T07:29:23.000Z</time>
      </trkpt>
      <trkpt lat="22.977314" lon="109.729236">
        <ele>83.706330</ele>
        <time>2026-08-15T07:29:24.000Z</time>
      </trkpt>
      <trkpt lat="22.977316" lon="109.729267">
        <ele>83.688653</ele>
        <time>2026-08-15T07:29:25.000Z</time>
      </trkpt>
      <trkpt lat="22.977321" lon="109.729299">
        <ele>83.670190</ele>
        <time>2026-08-15T07:29:26.000Z</time>
      </trkpt>
      <trkpt lat="22.977327" lon="109.729334">
        <ele>83.649939</ele>
        <time>2026-08-15T07:29:27.000Z</time>
      </trkpt>
      <trkpt lat="22.977331" lon="109.729372">
        <ele>83.628183</ele>
        <time>2026-08-15T07:29:28.000Z</time>
      </trkpt>
      <trkpt lat="22.977332" lon="109.729410">
        <ele>83.606558</ele>
        <time>2026-08-15T07:29:29.000Z</time>
      </trkpt>
      <trkpt lat="22.977332" lon="109.729452">
        <ele>83.582667</ele>
        <time>2026-08-15T07:29:30.000Z</time>
      </trkpt>
      <trkpt lat="22.977329" lon="109.729499">
        <ele>83.555868</ele>
        <time>2026-08-15T07:29:31.000Z</time>
      </trkpt>
      <trkpt lat="22.977324" lon="109.729548">
        <ele>83.527825</ele>
        <time>2026-08-15T07:29:32.000Z</time>
      </trkpt>
      <trkpt lat="22.977319" lon="109.729599">
        <ele>83.498650</ele>
        <time>2026-08-15T07:29:33.000Z</time>
      </trkpt>
      <trkpt lat="22.977313" lon="109.729652">
        <ele>83.468275</ele>
        <time>2026-08-15T07:29:34.000Z</time>
      </trkpt>
      <trkpt lat="22.977308" lon="109.729708">
        <ele>83.436271</ele>
        <time>2026-08-15T07:29:35.000Z</time>
      </trkpt>
      <trkpt lat="22.977303" lon="109.729763">
        <ele>83.404834</ele>
        <time>2026-08-15T07:29:36.000Z</time>
      </trkpt>
      <trkpt lat="22.977298" lon="109.729822">
        <ele>83.371246</ele>
        <time>2026-08-15T07:29:37.000Z</time>
      </trkpt>
      <trkpt lat="22.977293" lon="109.729882">
        <ele>83.374413</ele>
        <time>2026-08-15T07:29:38.000Z</time>
      </trkpt>
      <trkpt lat="22.977287" lon="109.729942">
        <ele>83.377585</ele>
        <time>2026-08-15T07:29:39.000Z</time>
      </trkpt>
      <trkpt lat="22.977281" lon="109.730003">
        <ele>83.380810</ele>
        <time>2026-08-15T07:29:40.000Z</time>
      </trkpt>
      <trkpt lat="22.977273" lon="109.730065">
        <ele>83.384100</ele>
        <time>2026-08-15T07:29:41.000Z</time>
      </trkpt>
      <trkpt lat="22.977265" lon="109.730128">
        <ele>83.387443</ele>
        <time>2026-08-15T07:29:42.000Z</time>
      </trkpt>
      <trkpt lat="22.977256" lon="109.730189">
        <ele>83.390690</ele>
        <time>2026-08-15T07:29:43.000Z</time>
      </trkpt>
      <trkpt lat="22.977247" lon="109.730250">
        <ele>83.393937</ele>
        <time>2026-08-15T07:29:44.000Z</time>
      </trkpt>
      <trkpt lat="22.977241" lon="109.730311">
        <ele>83.397162</ele>
        <time>2026-08-15T07:29:45.000Z</time>
      </trkpt>
      <trkpt lat="22.977232" lon="109.730371">
        <ele>83.400357</ele>
        <time>2026-08-15T07:29:46.000Z</time>
      </trkpt>
      <trkpt lat="22.977222" lon="109.730430">
        <ele>83.403510</ele>
        <time>2026-08-15T07:29:47.000Z</time>
      </trkpt>
      <trkpt lat="22.977214" lon="109.730490">
        <ele>83.406697</ele>
        <time>2026-08-15T07:29:48.000Z</time>
      </trkpt>
      <trkpt lat="22.977204" lon="109.730550">
        <ele>83.409902</ele>
        <time>2026-08-15T07:29:49.000Z</time>
      </trkpt>
      <trkpt lat="22.977194" lon="109.730609">
        <ele>83.413055</ele>
        <time>2026-08-15T07:29:50.000Z</time>
      </trkpt>
      <trkpt lat="22.977184" lon="109.730669">
        <ele>83.416260</ele>
        <time>2026-08-15T07:29:51.000Z</time>
      </trkpt>
      <trkpt lat="22.977173" lon="109.730728">
        <ele>83.419424</ele>
        <time>2026-08-15T07:29:52.000Z</time>
      </trkpt>
      <trkpt lat="22.977161" lon="109.730787">
        <ele>83.422600</ele>
        <time>2026-08-15T07:29:53.000Z</time>
      </trkpt>
      <trkpt lat="22.977149" lon="109.730845">
        <ele>83.425725</ele>
        <time>2026-08-15T07:29:54.000Z</time>
      </trkpt>
      <trkpt lat="22.977135" lon="109.730902">
        <ele>83.428825</ele>
        <time>2026-08-15T07:29:55.000Z</time>
      </trkpt>
      <trkpt lat="22.977122" lon="109.730958">
        <ele>83.431861</ele>
        <time>2026-08-15T07:29:56.000Z</time>
      </trkpt>
      <trkpt lat="22.977109" lon="109.731014">
        <ele>83.434897</ele>
        <time>2026-08-15T07:29:57.000Z</time>
      </trkpt>
      <trkpt lat="22.977096" lon="109.731070">
        <ele>83.437932</ele>
        <time>2026-08-15T07:29:58.000Z</time>
      </trkpt>
      <trkpt lat="22.977081" lon="109.731124">
        <ele>83.440897</ele>
        <time>2026-08-15T07:29:59.000Z</time>
      </trkpt>
      <trkpt lat="22.977068" lon="109.731175">
        <ele>83.443678</ele>
        <time>2026-08-15T07:30:00.000Z</time>
      </trkpt>
      <trkpt lat="22.977054" lon="109.731226">
        <ele>83.446476</ele>
        <time>2026-08-15T07:30:01.000Z</time>
      </trkpt>
      <trkpt lat="22.977039" lon="109.731278">
        <ele>83.449340</ele>
        <time>2026-08-15T07:30:02.000Z</time>
      </trkpt>
      <trkpt lat="22.977022" lon="109.731329">
        <ele>83.452191</ele>
        <time>2026-08-15T07:30:03.000Z</time>
      </trkpt>
      <trkpt lat="22.977007" lon="109.731377">
        <ele>83.454855</ele>
        <time>2026-08-15T07:30:04.000Z</time>
      </trkpt>
      <trkpt lat="22.976993" lon="109.731423">
        <ele>83.457402</ele>
        <time>2026-08-15T07:30:05.000Z</time>
      </trkpt>
      <trkpt lat="22.976977" lon="109.731468">
        <ele>83.459937</ele>
        <time>2026-08-15T07:30:06.000Z</time>
      </trkpt>
      <trkpt lat="22.976963" lon="109.731514">
        <ele>83.462484</ele>
        <time>2026-08-15T07:30:07.000Z</time>
      </trkpt>
      <trkpt lat="22.976948" lon="109.731558">
        <ele>83.464950</ele>
        <time>2026-08-15T07:30:08.000Z</time>
      </trkpt>
      <trkpt lat="22.976933" lon="109.731601">
        <ele>83.467367</ele>
        <time>2026-08-15T07:30:09.000Z</time>
      </trkpt>
      <trkpt lat="22.976917" lon="109.731643">
        <ele>83.469756</ele>
        <time>2026-08-15T07:30:10.000Z</time>
      </trkpt>
      <trkpt lat="22.976902" lon="109.731685">
        <ele>83.472124</ele>
        <time>2026-08-15T07:30:11.000Z</time>
      </trkpt>
      <trkpt lat="22.976888" lon="109.731727">
        <ele>83.481055</ele>
        <time>2026-08-15T07:30:12.000Z</time>
      </trkpt>
      <trkpt lat="22.976872" lon="109.731769">
        <ele>83.512115</ele>
        <time>2026-08-15T07:30:13.000Z</time>
      </trkpt>
      <trkpt lat="22.976857" lon="109.731810">
        <ele>83.542264</ele>
        <time>2026-08-15T07:30:14.000Z</time>
      </trkpt>
      <trkpt lat="22.976841" lon="109.731850">
        <ele>83.572066</ele>
        <time>2026-08-15T07:30:15.000Z</time>
      </trkpt>
      <trkpt lat="22.976824" lon="109.731890">
        <ele>83.602172</ele>
        <time>2026-08-15T07:30:16.000Z</time>
      </trkpt>
      <trkpt lat="22.976806" lon="109.731930">
        <ele>83.632597</ele>
        <time>2026-08-15T07:30:17.000Z</time>
      </trkpt>
      <trkpt lat="22.976788" lon="109.731970">
        <ele>83.663021</ele>
        <time>2026-08-15T07:30:18.000Z</time>
      </trkpt>
      <trkpt lat="22.976770" lon="109.732009">
        <ele>83.692834</ele>
        <time>2026-08-15T07:30:19.000Z</time>
      </trkpt>
      <trkpt lat="22.976752" lon="109.732049">
        <ele>83.723258</ele>
        <time>2026-08-15T07:30:20.000Z</time>
      </trkpt>
      <trkpt lat="22.976734" lon="109.732088">
        <ele>83.753070</ele>
        <time>2026-08-15T07:30:21.000Z</time>
      </trkpt>
      <trkpt lat="22.976716" lon="109.732128">
        <ele>83.783495</ele>
        <time>2026-08-15T07:30:22.000Z</time>
      </trkpt>
      <trkpt lat="22.976698" lon="109.732167">
        <ele>83.813307</ele>
        <time>2026-08-15T07:30:23.000Z</time>
      </trkpt>
      <trkpt lat="22.976678" lon="109.732206">
        <ele>83.843813</ele>
        <time>2026-08-15T07:30:24.000Z</time>
      </trkpt>
      <trkpt lat="22.976658" lon="109.732245">
        <ele>83.874320</ele>
        <time>2026-08-15T07:30:25.000Z</time>
      </trkpt>
      <trkpt lat="22.976637" lon="109.732284">
        <ele>83.905194</ele>
        <time>2026-08-15T07:30:26.000Z</time>
      </trkpt>
      <trkpt lat="22.976615" lon="109.732324">
        <ele>83.937034</ele>
        <time>2026-08-15T07:30:27.000Z</time>
      </trkpt>
      <trkpt lat="22.976593" lon="109.732364">
        <ele>83.968874</ele>
        <time>2026-08-15T07:30:28.000Z</time>
      </trkpt>
      <trkpt lat="22.976571" lon="109.732404">
        <ele>84.000715</ele>
        <time>2026-08-15T07:30:29.000Z</time>
      </trkpt>
      <trkpt lat="22.976548" lon="109.732445">
        <ele>84.033523</ele>
        <time>2026-08-15T07:30:30.000Z</time>
      </trkpt>
      <trkpt lat="22.976526" lon="109.732485">
        <ele>84.065364</ele>
        <time>2026-08-15T07:30:31.000Z</time>
      </trkpt>
      <trkpt lat="22.976502" lon="109.732525">
        <ele>84.097990</ele>
        <time>2026-08-15T07:30:32.000Z</time>
      </trkpt>
      <trkpt lat="22.976477" lon="109.732565">
        <ele>84.131028</ele>
        <time>2026-08-15T07:30:33.000Z</time>
      </trkpt>
      <trkpt lat="22.976451" lon="109.732605">
        <ele>84.164488</ele>
        <time>2026-08-15T07:30:34.000Z</time>
      </trkpt>
      <trkpt lat="22.976427" lon="109.732647">
        <ele>84.198268</ele>
        <time>2026-08-15T07:30:35.000Z</time>
      </trkpt>
      <trkpt lat="22.976401" lon="109.732687">
        <ele>84.231728</ele>
        <time>2026-08-15T07:30:36.000Z</time>
      </trkpt>
      <trkpt lat="22.976374" lon="109.732728">
        <ele>84.266175</ele>
        <time>2026-08-15T07:30:37.000Z</time>
      </trkpt>
      <trkpt lat="22.976347" lon="109.732769">
        <ele>84.300622</ele>
        <time>2026-08-15T07:30:38.000Z</time>
      </trkpt>
      <trkpt lat="22.976321" lon="109.732809">
        <ele>84.334082</ele>
        <time>2026-08-15T07:30:39.000Z</time>
      </trkpt>
      <trkpt lat="22.976293" lon="109.732848">
        <ele>84.367879</ele>
        <time>2026-08-15T07:30:40.000Z</time>
      </trkpt>
      <trkpt lat="22.976263" lon="109.732888">
        <ele>84.403135</ele>
        <time>2026-08-15T07:30:41.000Z</time>
      </trkpt>
      <trkpt lat="22.976234" lon="109.732927">
        <ele>84.437392</ele>
        <time>2026-08-15T07:30:42.000Z</time>
      </trkpt>
      <trkpt lat="22.976206" lon="109.732966">
        <ele>84.471189</ele>
        <time>2026-08-15T07:30:43.000Z</time>
      </trkpt>
      <trkpt lat="22.976179" lon="109.733005">
        <ele>84.504534</ele>
        <time>2026-08-15T07:30:44.000Z</time>
      </trkpt>
      <trkpt lat="22.976150" lon="109.733043">
        <ele>84.538263</ele>
        <time>2026-08-15T07:30:45.000Z</time>
      </trkpt>
      <trkpt lat="22.976121" lon="109.733081">
        <ele>84.571991</ele>
        <time>2026-08-15T07:30:46.000Z</time>
      </trkpt>
      <trkpt lat="22.976093" lon="109.733119">
        <ele>84.605252</ele>
        <time>2026-08-15T07:30:47.000Z</time>
      </trkpt>
      <trkpt lat="22.976063" lon="109.733157">
        <ele>84.639459</ele>
        <time>2026-08-15T07:30:48.000Z</time>
      </trkpt>
      <trkpt lat="22.976032" lon="109.733193">
        <ele>84.673143</ele>
        <time>2026-08-15T07:30:49.000Z</time>
      </trkpt>
      <trkpt lat="22.976002" lon="109.733231">
        <ele>84.707351</ele>
        <time>2026-08-15T07:30:50.000Z</time>
      </trkpt>
      <trkpt lat="22.975969" lon="109.733267">
        <ele>84.742066</ele>
        <time>2026-08-15T07:30:51.000Z</time>
      </trkpt>
      <trkpt lat="22.975937" lon="109.733303">
        <ele>84.776262</ele>
        <time>2026-08-15T07:30:52.000Z</time>
      </trkpt>
      <trkpt lat="22.975905" lon="109.733340">
        <ele>84.810552</ele>
        <time>2026-08-15T07:30:53.000Z</time>
      </trkpt>
      <trkpt lat="22.975873" lon="109.733377">
        <ele>84.838319</ele>
        <time>2026-08-15T07:30:54.000Z</time>
      </trkpt>
      <trkpt lat="22.975841" lon="109.733413">
        <ele>84.865689</ele>
        <time>2026-08-15T07:30:55.000Z</time>
      </trkpt>
      <trkpt lat="22.975808" lon="109.733447">
        <ele>84.892711</ele>
        <time>2026-08-15T07:30:56.000Z</time>
      </trkpt>
      <trkpt lat="22.975775" lon="109.733482">
        <ele>84.920113</ele>
        <time>2026-08-15T07:30:57.000Z</time>
      </trkpt>
      <trkpt lat="22.975741" lon="109.733517">
        <ele>84.947942</ele>
        <time>2026-08-15T07:30:58.000Z</time>
      </trkpt>
      <trkpt lat="22.975707" lon="109.733552">
        <ele>84.975772</ele>
        <time>2026-08-15T07:30:59.000Z</time>
      </trkpt>
      <trkpt lat="22.975674" lon="109.733589">
        <ele>85.003948</ele>
        <time>2026-08-15T07:31:00.000Z</time>
      </trkpt>
      <trkpt lat="22.975640" lon="109.733626">
        <ele>85.032541</ele>
        <time>2026-08-15T07:31:01.000Z</time>
      </trkpt>
      <trkpt lat="22.975606" lon="109.733662">
        <ele>85.060750</ele>
        <time>2026-08-15T07:31:02.000Z</time>
      </trkpt>
      <trkpt lat="22.975572" lon="109.733699">
        <ele>85.089343</ele>
        <time>2026-08-15T07:31:03.000Z</time>
      </trkpt>
      <trkpt lat="22.975539" lon="109.733735">
        <ele>85.117129</ele>
        <time>2026-08-15T07:31:04.000Z</time>
      </trkpt>
      <trkpt lat="22.975505" lon="109.733771">
        <ele>85.145338</ele>
        <time>2026-08-15T07:31:05.000Z</time>
      </trkpt>
      <trkpt lat="22.975471" lon="109.733806">
        <ele>85.173168</ele>
        <time>2026-08-15T07:31:06.000Z</time>
      </trkpt>
      <trkpt lat="22.975438" lon="109.733841">
        <ele>85.200569</ele>
        <time>2026-08-15T07:31:07.000Z</time>
      </trkpt>
      <trkpt lat="22.975406" lon="109.733876">
        <ele>85.227549</ele>
        <time>2026-08-15T07:31:08.000Z</time>
      </trkpt>
      <trkpt lat="22.975373" lon="109.733911">
        <ele>85.254950</ele>
        <time>2026-08-15T07:31:09.000Z</time>
      </trkpt>
      <trkpt lat="22.975341" lon="109.733947">
        <ele>85.282321</ele>
        <time>2026-08-15T07:31:10.000Z</time>
      </trkpt>
      <trkpt lat="22.975308" lon="109.733983">
        <ele>85.310107</ele>
        <time>2026-08-15T07:31:11.000Z</time>
      </trkpt>
      <trkpt lat="22.975274" lon="109.734017">
        <ele>85.337563</ele>
        <time>2026-08-15T07:31:12.000Z</time>
      </trkpt>
      <trkpt lat="22.975241" lon="109.734051">
        <ele>85.364585</ele>
        <time>2026-08-15T07:31:13.000Z</time>
      </trkpt>
      <trkpt lat="22.975208" lon="109.734089">
        <ele>85.393157</ele>
        <time>2026-08-15T07:31:14.000Z</time>
      </trkpt>
      <trkpt lat="22.975173" lon="109.734125">
        <ele>85.421794</ele>
        <time>2026-08-15T07:31:15.000Z</time>
      </trkpt>
      <trkpt lat="22.975139" lon="109.734163">
        <ele>85.450777</ele>
        <time>2026-08-15T07:31:16.000Z</time>
      </trkpt>
      <trkpt lat="22.975105" lon="109.734200">
        <ele>85.479370</ele>
        <time>2026-08-15T07:31:17.000Z</time>
      </trkpt>
      <trkpt lat="22.975070" lon="109.734238">
        <ele>85.508770</ele>
        <time>2026-08-15T07:31:18.000Z</time>
      </trkpt>
      <trkpt lat="22.975036" lon="109.734277">
        <ele>85.538148</ele>
        <time>2026-08-15T07:31:19.000Z</time>
      </trkpt>
      <trkpt lat="22.975002" lon="109.734315">
        <ele>85.567131</ele>
        <time>2026-08-15T07:31:20.000Z</time>
      </trkpt>
      <trkpt lat="22.974969" lon="109.734352">
        <ele>85.595307</ele>
        <time>2026-08-15T07:31:21.000Z</time>
      </trkpt>
      <trkpt lat="22.974935" lon="109.734388">
        <ele>85.623516</ele>
        <time>2026-08-15T07:31:22.000Z</time>
      </trkpt>
      <trkpt lat="22.974901" lon="109.734423">
        <ele>85.651346</ele>
        <time>2026-08-15T07:31:23.000Z</time>
      </trkpt>
      <trkpt lat="22.974868" lon="109.734459">
        <ele>85.679132</ele>
        <time>2026-08-15T07:31:24.000Z</time>
      </trkpt>
      <trkpt lat="22.974833" lon="109.734496">
        <ele>85.708148</ele>
        <time>2026-08-15T07:31:25.000Z</time>
      </trkpt>
      <trkpt lat="22.974796" lon="109.734533">
        <ele>85.738027</ele>
        <time>2026-08-15T07:31:26.000Z</time>
      </trkpt>
      <trkpt lat="22.974760" lon="109.734569">
        <ele>85.767098</ele>
        <time>2026-08-15T07:31:27.000Z</time>
      </trkpt>
      <trkpt lat="22.974725" lon="109.734610">
        <ele>85.797680</ele>
        <time>2026-08-15T07:31:28.000Z</time>
      </trkpt>
      <trkpt lat="22.974690" lon="109.734648">
        <ele>85.827080</ele>
        <time>2026-08-15T07:31:29.000Z</time>
      </trkpt>
      <trkpt lat="22.974655" lon="109.734689">
        <ele>85.857663</ele>
        <time>2026-08-15T07:31:30.000Z</time>
      </trkpt>
      <trkpt lat="22.974619" lon="109.734727">
        <ele>85.891507</ele>
        <time>2026-08-15T07:31:31.000Z</time>
      </trkpt>
      <trkpt lat="22.974582" lon="109.734764">
        <ele>85.933428</ele>
        <time>2026-08-15T07:31:32.000Z</time>
      </trkpt>
      <trkpt lat="22.974543" lon="109.734803">
        <ele>85.977614</ele>
        <time>2026-08-15T07:31:33.000Z</time>
      </trkpt>
      <trkpt lat="22.974504" lon="109.734843">
        <ele>86.022324</ele>
        <time>2026-08-15T07:31:34.000Z</time>
      </trkpt>
      <trkpt lat="22.974466" lon="109.734883">
        <ele>86.066432</ele>
        <time>2026-08-15T07:31:35.000Z</time>
      </trkpt>
      <trkpt lat="22.974428" lon="109.734923">
        <ele>86.110540</ele>
        <time>2026-08-15T07:31:36.000Z</time>
      </trkpt>
      <trkpt lat="22.974389" lon="109.734963">
        <ele>86.155250</ele>
        <time>2026-08-15T07:31:37.000Z</time>
      </trkpt>
      <trkpt lat="22.974351" lon="109.735003">
        <ele>86.199357</ele>
        <time>2026-08-15T07:31:38.000Z</time>
      </trkpt>
      <trkpt lat="22.974314" lon="109.735041">
        <ele>86.241801</ele>
        <time>2026-08-15T07:31:39.000Z</time>
      </trkpt>
      <trkpt lat="22.974277" lon="109.735082">
        <ele>86.285859</ele>
        <time>2026-08-15T07:31:40.000Z</time>
      </trkpt>
      <trkpt lat="22.974240" lon="109.735122">
        <ele>86.329372</ele>
        <time>2026-08-15T07:31:41.000Z</time>
      </trkpt>
      <trkpt lat="22.974205" lon="109.735161">
        <ele>86.371167</ele>
        <time>2026-08-15T07:31:42.000Z</time>
      </trkpt>
      <trkpt lat="22.974168" lon="109.735201">
        <ele>86.414680</ele>
        <time>2026-08-15T07:31:43.000Z</time>
      </trkpt>
      <trkpt lat="22.974131" lon="109.735239">
        <ele>86.457124</ele>
        <time>2026-08-15T07:31:44.000Z</time>
      </trkpt>
      <trkpt lat="22.974095" lon="109.735278">
        <ele>86.499505</ele>
        <time>2026-08-15T07:31:45.000Z</time>
      </trkpt>
      <trkpt lat="22.974058" lon="109.735315">
        <ele>86.541426</ele>
        <time>2026-08-15T07:31:46.000Z</time>
      </trkpt>
      <trkpt lat="22.974023" lon="109.735352">
        <ele>86.582135</ele>
        <time>2026-08-15T07:31:47.000Z</time>
      </trkpt>
      <trkpt lat="22.973986" lon="109.735391">
        <ele>86.625111</ele>
        <time>2026-08-15T07:31:48.000Z</time>
      </trkpt>
      <trkpt lat="22.973950" lon="109.735428">
        <ele>86.666422</ele>
        <time>2026-08-15T07:31:49.000Z</time>
      </trkpt>
      <trkpt lat="22.973915" lon="109.735466">
        <ele>86.707671</ele>
        <time>2026-08-15T07:31:50.000Z</time>
      </trkpt>
      <trkpt lat="22.973880" lon="109.735504">
        <ele>86.748920</ele>
        <time>2026-08-15T07:31:51.000Z</time>
      </trkpt>
      <trkpt lat="22.973844" lon="109.735541">
        <ele>86.790231</ele>
        <time>2026-08-15T07:31:52.000Z</time>
      </trkpt>
      <trkpt lat="22.973808" lon="109.735577">
        <ele>86.831019</ele>
        <time>2026-08-15T07:31:53.000Z</time>
      </trkpt>
      <trkpt lat="22.973772" lon="109.735614">
        <ele>86.872330</ele>
        <time>2026-08-15T07:31:54.000Z</time>
      </trkpt>
      <trkpt lat="22.973737" lon="109.735653">
        <ele>86.914125</ele>
        <time>2026-08-15T07:31:55.000Z</time>
      </trkpt>
      <trkpt lat="22.973700" lon="109.735692">
        <ele>86.957100</ele>
        <time>2026-08-15T07:31:56.000Z</time>
      </trkpt>
      <trkpt lat="22.973664" lon="109.735731">
        <ele>86.999481</ele>
        <time>2026-08-15T07:31:57.000Z</time>
      </trkpt>
      <trkpt lat="22.973628" lon="109.735771">
        <ele>87.042407</ele>
        <time>2026-08-15T07:31:58.000Z</time>
      </trkpt>
      <trkpt lat="22.973591" lon="109.735810">
        <ele>87.085382</ele>
        <time>2026-08-15T07:31:59.000Z</time>
      </trkpt>
      <trkpt lat="22.973553" lon="109.735848">
        <ele>87.128436</ele>
        <time>2026-08-15T07:32:00.000Z</time>
      </trkpt>
      <trkpt lat="22.973516" lon="109.735885">
        <ele>87.170357</ele>
        <time>2026-08-15T07:32:01.000Z</time>
      </trkpt>
      <trkpt lat="22.973477" lon="109.735922">
        <ele>87.213519</ele>
        <time>2026-08-15T07:32:02.000Z</time>
      </trkpt>
      <trkpt lat="22.973439" lon="109.735961">
        <ele>87.257096</ele>
        <time>2026-08-15T07:32:03.000Z</time>
      </trkpt>
      <trkpt lat="22.973401" lon="109.735999">
        <ele>87.300150</ele>
        <time>2026-08-15T07:32:04.000Z</time>
      </trkpt>
      <trkpt lat="22.973363" lon="109.736038">
        <ele>87.343727</ele>
        <time>2026-08-15T07:32:05.000Z</time>
      </trkpt>
      <trkpt lat="22.973325" lon="109.736075">
        <ele>87.366066</ele>
        <time>2026-08-15T07:32:06.000Z</time>
      </trkpt>
      <trkpt lat="22.973285" lon="109.736111">
        <ele>87.317812</ele>
        <time>2026-08-15T07:32:07.000Z</time>
      </trkpt>
      <trkpt lat="22.973246" lon="109.736146">
        <ele>87.270819</ele>
        <time>2026-08-15T07:32:08.000Z</time>
      </trkpt>
      <trkpt lat="22.973207" lon="109.736182">
        <ele>87.223277</ele>
        <time>2026-08-15T07:32:09.000Z</time>
      </trkpt>
      <trkpt lat="22.973166" lon="109.736218">
        <ele>87.174304</ele>
        <time>2026-08-15T07:32:10.000Z</time>
      </trkpt>
      <trkpt lat="22.973126" lon="109.736254">
        <ele>87.126050</ele>
        <time>2026-08-15T07:32:11.000Z</time>
      </trkpt>
      <trkpt lat="22.973086" lon="109.736290">
        <ele>87.077796</ele>
        <time>2026-08-15T07:32:12.000Z</time>
      </trkpt>
      <trkpt lat="22.973046" lon="109.736325">
        <ele>87.030083</ele>
        <time>2026-08-15T07:32:13.000Z</time>
      </trkpt>
      <trkpt lat="22.973006" lon="109.736360">
        <ele>86.982370</ele>
        <time>2026-08-15T07:32:14.000Z</time>
      </trkpt>
      <trkpt lat="22.972966" lon="109.736394">
        <ele>86.935189</ele>
        <time>2026-08-15T07:32:15.000Z</time>
      </trkpt>
      <trkpt lat="22.972926" lon="109.736430">
        <ele>86.886935</ele>
        <time>2026-08-15T07:32:16.000Z</time>
      </trkpt>
      <trkpt lat="22.972886" lon="109.736466">
        <ele>86.838681</ele>
        <time>2026-08-15T07:32:17.000Z</time>
      </trkpt>
      <trkpt lat="22.972845" lon="109.736502">
        <ele>86.789708</ele>
        <time>2026-08-15T07:32:18.000Z</time>
      </trkpt>
      <trkpt lat="22.972804" lon="109.736539">
        <ele>86.740193</ele>
        <time>2026-08-15T07:32:19.000Z</time>
      </trkpt>
      <trkpt lat="22.972761" lon="109.736576">
        <ele>86.689235</ele>
        <time>2026-08-15T07:32:20.000Z</time>
      </trkpt>
      <trkpt lat="22.972718" lon="109.736610">
        <ele>86.639829</ele>
        <time>2026-08-15T07:32:21.000Z</time>
      </trkpt>
      <trkpt lat="22.972676" lon="109.736648">
        <ele>86.589053</ele>
        <time>2026-08-15T07:32:22.000Z</time>
      </trkpt>
      <trkpt lat="22.972635" lon="109.736685">
        <ele>86.539538</ele>
        <time>2026-08-15T07:32:23.000Z</time>
      </trkpt>
      <trkpt lat="22.972593" lon="109.736724">
        <ele>86.488211</ele>
        <time>2026-08-15T07:32:24.000Z</time>
      </trkpt>
      <trkpt lat="22.972551" lon="109.736764">
        <ele>86.436323</ele>
        <time>2026-08-15T07:32:25.000Z</time>
      </trkpt>
      <trkpt lat="22.972507" lon="109.736802">
        <ele>86.384106</ele>
        <time>2026-08-15T07:32:26.000Z</time>
      </trkpt>
      <trkpt lat="22.972462" lon="109.736840">
        <ele>86.331159</ele>
        <time>2026-08-15T07:32:27.000Z</time>
      </trkpt>
      <trkpt lat="22.972417" lon="109.736876">
        <ele>86.279244</ele>
        <time>2026-08-15T07:32:28.000Z</time>
      </trkpt>
      <trkpt lat="22.972372" lon="109.736914">
        <ele>86.226296</ele>
        <time>2026-08-15T07:32:29.000Z</time>
      </trkpt>
      <trkpt lat="22.972327" lon="109.736951">
        <ele>86.173870</ele>
        <time>2026-08-15T07:32:30.000Z</time>
      </trkpt>
      <trkpt lat="22.972280" lon="109.736989">
        <ele>86.119444</ele>
        <time>2026-08-15T07:32:31.000Z</time>
      </trkpt>
      <trkpt lat="22.972233" lon="109.737028">
        <ele>86.064503</ele>
        <time>2026-08-15T07:32:32.000Z</time>
      </trkpt>
      <trkpt lat="22.972184" lon="109.737068">
        <ele>86.007565</ele>
        <time>2026-08-15T07:32:33.000Z</time>
      </trkpt>
      <trkpt lat="22.972134" lon="109.737108">
        <ele>85.949881</ele>
        <time>2026-08-15T07:32:34.000Z</time>
      </trkpt>
      <trkpt lat="22.972083" lon="109.737149">
        <ele>85.890943</ele>
        <time>2026-08-15T07:32:35.000Z</time>
      </trkpt>
      <trkpt lat="22.972032" lon="109.737191">
        <ele>85.831491</ele>
        <time>2026-08-15T07:32:36.000Z</time>
      </trkpt>
      <trkpt lat="22.971981" lon="109.737235">
        <ele>85.770991</ele>
        <time>2026-08-15T07:32:37.000Z</time>
      </trkpt>
      <trkpt lat="22.971930" lon="109.737278">
        <ele>85.711019</ele>
        <time>2026-08-15T07:32:38.000Z</time>
      </trkpt>
      <trkpt lat="22.971880" lon="109.737319">
        <ele>85.686552</ele>
        <time>2026-08-15T07:32:39.000Z</time>
      </trkpt>
      <trkpt lat="22.971831" lon="109.737361">
        <ele>85.665373</ele>
        <time>2026-08-15T07:32:40.000Z</time>
      </trkpt>
      <trkpt lat="22.971783" lon="109.737402">
        <ele>85.644653</ele>
        <time>2026-08-15T07:32:41.000Z</time>
      </trkpt>
      <trkpt lat="22.971735" lon="109.737444">
        <ele>85.623738</ele>
        <time>2026-08-15T07:32:42.000Z</time>
      </trkpt>
      <trkpt lat="22.971687" lon="109.737485">
        <ele>85.603019</ele>
        <time>2026-08-15T07:32:43.000Z</time>
      </trkpt>
      <trkpt lat="22.971641" lon="109.737525">
        <ele>85.583025</ele>
        <time>2026-08-15T07:32:44.000Z</time>
      </trkpt>
      <trkpt lat="22.971593" lon="109.737563">
        <ele>85.562871</ele>
        <time>2026-08-15T07:32:45.000Z</time>
      </trkpt>
      <trkpt lat="22.971546" lon="109.737602">
        <ele>85.542802</ele>
        <time>2026-08-15T07:32:46.000Z</time>
      </trkpt>
      <trkpt lat="22.971501" lon="109.737641">
        <ele>85.523268</ele>
        <time>2026-08-15T07:32:47.000Z</time>
      </trkpt>
      <trkpt lat="22.971455" lon="109.737680">
        <ele>85.503467</ele>
        <time>2026-08-15T07:32:48.000Z</time>
      </trkpt>
      <trkpt lat="22.971410" lon="109.737718">
        <ele>85.484127</ele>
        <time>2026-08-15T07:32:49.000Z</time>
      </trkpt>
      <trkpt lat="22.971366" lon="109.737755">
        <ele>85.465246</ele>
        <time>2026-08-15T07:32:50.000Z</time>
      </trkpt>
      <trkpt lat="22.971321" lon="109.737791">
        <ele>85.446282</ele>
        <time>2026-08-15T07:32:51.000Z</time>
      </trkpt>
      <trkpt lat="22.971276" lon="109.737826">
        <ele>85.427502</ele>
        <time>2026-08-15T07:32:52.000Z</time>
      </trkpt>
      <trkpt lat="22.971231" lon="109.737862">
        <ele>85.408539</ele>
        <time>2026-08-15T07:32:53.000Z</time>
      </trkpt>
      <trkpt lat="22.971186" lon="109.737898">
        <ele>85.389575</ele>
        <time>2026-08-15T07:32:54.000Z</time>
      </trkpt>
      <trkpt lat="22.971142" lon="109.737934">
        <ele>85.370884</ele>
        <time>2026-08-15T07:32:55.000Z</time>
      </trkpt>
      <trkpt lat="22.971098" lon="109.737971">
        <ele>85.352002</ele>
        <time>2026-08-15T07:32:56.000Z</time>
      </trkpt>
      <trkpt lat="22.971055" lon="109.738009">
        <ele>85.333193</ele>
        <time>2026-08-15T07:32:57.000Z</time>
      </trkpt>
      <trkpt lat="22.971013" lon="109.738047">
        <ele>85.314645</ele>
        <time>2026-08-15T07:32:58.000Z</time>
      </trkpt>
      <trkpt lat="22.970970" lon="109.738084">
        <ele>85.296031</ele>
        <time>2026-08-15T07:32:59.000Z</time>
      </trkpt>
      <trkpt lat="22.970929" lon="109.738121">
        <ele>85.277944</ele>
        <time>2026-08-15T07:33:00.000Z</time>
      </trkpt>
      <trkpt lat="22.970887" lon="109.738157">
        <ele>85.259790</ele>
        <time>2026-08-15T07:33:01.000Z</time>
      </trkpt>
      <trkpt lat="22.970844" lon="109.738194">
        <ele>85.241176</ele>
        <time>2026-08-15T07:33:02.000Z</time>
      </trkpt>
      <trkpt lat="22.970800" lon="109.738230">
        <ele>85.222485</ele>
        <time>2026-08-15T07:33:03.000Z</time>
      </trkpt>
      <trkpt lat="22.970756" lon="109.738267">
        <ele>85.203604</ele>
        <time>2026-08-15T07:33:04.000Z</time>
      </trkpt>
      <trkpt lat="22.970712" lon="109.738304">
        <ele>85.184723</ele>
        <time>2026-08-15T07:33:05.000Z</time>
      </trkpt>
      <trkpt lat="22.970669" lon="109.738342">
        <ele>85.165913</ele>
        <time>2026-08-15T07:33:06.000Z</time>
      </trkpt>
      <trkpt lat="22.970624" lon="109.738380">
        <ele>85.146572</ele>
        <time>2026-08-15T07:33:07.000Z</time>
      </trkpt>
      <trkpt lat="22.970578" lon="109.738420">
        <ele>85.126578</ele>
        <time>2026-08-15T07:33:08.000Z</time>
      </trkpt>
      <trkpt lat="22.970531" lon="109.738458">
        <ele>85.106697</ele>
        <time>2026-08-15T07:33:09.000Z</time>
      </trkpt>
      <trkpt lat="22.970484" lon="109.738496">
        <ele>85.088770</ele>
        <time>2026-08-15T07:33:10.000Z</time>
      </trkpt>
      <trkpt lat="22.970437" lon="109.738534">
        <ele>85.073276</ele>
        <time>2026-08-15T07:33:11.000Z</time>
      </trkpt>
      <trkpt lat="22.970391" lon="109.738575">
        <ele>85.057539</ele>
        <time>2026-08-15T07:33:12.000Z</time>
      </trkpt>
      <trkpt lat="22.970346" lon="109.738615">
        <ele>85.042162</ele>
        <time>2026-08-15T07:33:13.000Z</time>
      </trkpt>
      <trkpt lat="22.970299" lon="109.738655">
        <ele>85.026372</ele>
        <time>2026-08-15T07:33:14.000Z</time>
      </trkpt>
      <trkpt lat="22.970252" lon="109.738694">
        <ele>85.010731</ele>
        <time>2026-08-15T07:33:15.000Z</time>
      </trkpt>
      <trkpt lat="22.970206" lon="109.738734">
        <ele>84.995148</ele>
        <time>2026-08-15T07:33:16.000Z</time>
      </trkpt>
      <trkpt lat="22.970160" lon="109.738773">
        <ele>84.979716</ele>
        <time>2026-08-15T07:33:17.000Z</time>
      </trkpt>
      <trkpt lat="22.970115" lon="109.738813">
        <ele>84.964339</ele>
        <time>2026-08-15T07:33:18.000Z</time>
      </trkpt>
      <trkpt lat="22.970071" lon="109.738853">
        <ele>84.949165</ele>
        <time>2026-08-15T07:33:19.000Z</time>
      </trkpt>
      <trkpt lat="22.970029" lon="109.738893">
        <ele>84.934393</ele>
        <time>2026-08-15T07:33:20.000Z</time>
      </trkpt>
      <trkpt lat="22.969990" lon="109.738933">
        <ele>84.920208</ele>
        <time>2026-08-15T07:33:21.000Z</time>
      </trkpt>
      <trkpt lat="22.969949" lon="109.738973">
        <ele>84.905634</ele>
        <time>2026-08-15T07:33:22.000Z</time>
      </trkpt>
      <trkpt lat="22.969910" lon="109.739012">
        <ele>84.891615</ele>
        <time>2026-08-15T07:33:23.000Z</time>
      </trkpt>
      <trkpt lat="22.969871" lon="109.739053">
        <ele>84.877261</ele>
        <time>2026-08-15T07:33:24.000Z</time>
      </trkpt>
      <trkpt lat="22.969834" lon="109.739093">
        <ele>84.863456</ele>
        <time>2026-08-15T07:33:25.000Z</time>
      </trkpt>
      <trkpt lat="22.969797" lon="109.739134">
        <ele>84.849478</ele>
        <time>2026-08-15T07:33:26.000Z</time>
      </trkpt>
      <trkpt lat="22.969763" lon="109.739176">
        <ele>84.835861</ele>
        <time>2026-08-15T07:33:27.000Z</time>
      </trkpt>
      <trkpt lat="22.969730" lon="109.739219">
        <ele>84.822231</ele>
        <time>2026-08-15T07:33:28.000Z</time>
      </trkpt>
      <trkpt lat="22.969699" lon="109.739262">
        <ele>84.808934</ele>
        <time>2026-08-15T07:33:29.000Z</time>
      </trkpt>
      <trkpt lat="22.969667" lon="109.739306">
        <ele>84.795282</ele>
        <time>2026-08-15T07:33:30.000Z</time>
      </trkpt>
      <trkpt lat="22.969636" lon="109.739351">
        <ele>84.781598</ele>
        <time>2026-08-15T07:33:31.000Z</time>
      </trkpt>
      <trkpt lat="22.969605" lon="109.739398">
        <ele>84.767521</ele>
        <time>2026-08-15T07:33:32.000Z</time>
      </trkpt>
      <trkpt lat="22.969576" lon="109.739445">
        <ele>84.753746</ele>
        <time>2026-08-15T07:33:33.000Z</time>
      </trkpt>
      <trkpt lat="22.969548" lon="109.739494">
        <ele>84.739704</ele>
        <time>2026-08-15T07:33:34.000Z</time>
      </trkpt>
      <trkpt lat="22.969518" lon="109.739546">
        <ele>84.724763</ele>
        <time>2026-08-15T07:33:35.000Z</time>
      </trkpt>
      <trkpt lat="22.969490" lon="109.739598">
        <ele>84.710096</ele>
        <time>2026-08-15T07:33:36.000Z</time>
      </trkpt>
      <trkpt lat="22.969462" lon="109.739650">
        <ele>84.695429</ele>
        <time>2026-08-15T07:33:37.000Z</time>
      </trkpt>
      <trkpt lat="22.969435" lon="109.739700">
        <ele>84.681315</ele>
        <time>2026-08-15T07:33:38.000Z</time>
      </trkpt>
      <trkpt lat="22.969409" lon="109.739752">
        <ele>84.666908</ele>
        <time>2026-08-15T07:33:39.000Z</time>
      </trkpt>
      <trkpt lat="22.969384" lon="109.739804">
        <ele>84.652625</ele>
        <time>2026-08-15T07:33:40.000Z</time>
      </trkpt>
      <trkpt lat="22.969359" lon="109.739856">
        <ele>84.638342</ele>
        <time>2026-08-15T07:33:41.000Z</time>
      </trkpt>
      <trkpt lat="22.969334" lon="109.739906">
        <ele>84.624488</ele>
        <time>2026-08-15T07:33:42.000Z</time>
      </trkpt>
      <trkpt lat="22.969309" lon="109.739955">
        <ele>84.621735</ele>
        <time>2026-08-15T07:33:43.000Z</time>
      </trkpt>
      <trkpt lat="22.969285" lon="109.740005">
        <ele>84.624292</ele>
        <time>2026-08-15T07:33:44.000Z</time>
      </trkpt>
      <trkpt lat="22.969263" lon="109.740054">
        <ele>84.626764</ele>
        <time>2026-08-15T07:33:45.000Z</time>
      </trkpt>
      <trkpt lat="22.969241" lon="109.740103">
        <ele>84.629235</ele>
        <time>2026-08-15T07:33:46.000Z</time>
      </trkpt>
      <trkpt lat="22.969219" lon="109.740152">
        <ele>84.631707</ele>
        <time>2026-08-15T07:33:47.000Z</time>
      </trkpt>
      <trkpt lat="22.969197" lon="109.740200">
        <ele>84.634138</ele>
        <time>2026-08-15T07:33:48.000Z</time>
      </trkpt>
      <trkpt lat="22.969175" lon="109.740247">
        <ele>84.636529</ele>
        <time>2026-08-15T07:33:49.000Z</time>
      </trkpt>
      <trkpt lat="22.969153" lon="109.740294">
        <ele>84.638919</ele>
        <time>2026-08-15T07:33:50.000Z</time>
      </trkpt>
      <trkpt lat="22.969131" lon="109.740342">
        <ele>84.641350</ele>
        <time>2026-08-15T07:33:51.000Z</time>
      </trkpt>
      <trkpt lat="22.969108" lon="109.740388">
        <ele>84.643724</ele>
        <time>2026-08-15T07:33:52.000Z</time>
      </trkpt>
      <trkpt lat="22.969085" lon="109.740436">
        <ele>84.646177</ele>
        <time>2026-08-15T07:33:53.000Z</time>
      </trkpt>
      <trkpt lat="22.969063" lon="109.740483">
        <ele>84.648567</ele>
        <time>2026-08-15T07:33:54.000Z</time>
      </trkpt>
      <trkpt lat="22.969042" lon="109.740531">
        <ele>84.650977</ele>
        <time>2026-08-15T07:33:55.000Z</time>
      </trkpt>
      <trkpt lat="22.969020" lon="109.740579">
        <ele>84.653408</ele>
        <time>2026-08-15T07:33:56.000Z</time>
      </trkpt>
      <trkpt lat="22.968998" lon="109.740627">
        <ele>84.655839</ele>
        <time>2026-08-15T07:33:57.000Z</time>
      </trkpt>
      <trkpt lat="22.968974" lon="109.740675">
        <ele>84.658316</ele>
        <time>2026-08-15T07:33:58.000Z</time>
      </trkpt>
      <trkpt lat="22.968949" lon="109.740721">
        <ele>84.660737</ele>
        <time>2026-08-15T07:33:59.000Z</time>
      </trkpt>
      <trkpt lat="22.968925" lon="109.740769">
        <ele>84.663214</ele>
        <time>2026-08-15T07:34:00.000Z</time>
      </trkpt>
      <trkpt lat="22.968902" lon="109.740816">
        <ele>84.665627</ele>
        <time>2026-08-15T07:34:01.000Z</time>
      </trkpt>
      <trkpt lat="22.968879" lon="109.740864">
        <ele>84.668081</ele>
        <time>2026-08-15T07:34:02.000Z</time>
      </trkpt>
      <trkpt lat="22.968855" lon="109.740910">
        <ele>84.670478</ele>
        <time>2026-08-15T07:34:03.000Z</time>
      </trkpt>
      <trkpt lat="22.968832" lon="109.740958">
        <ele>84.672931</ele>
        <time>2026-08-15T07:34:04.000Z</time>
      </trkpt>
      <trkpt lat="22.968809" lon="109.741006">
        <ele>84.675385</ele>
        <time>2026-08-15T07:34:05.000Z</time>
      </trkpt>
      <trkpt lat="22.968783" lon="109.741054">
        <ele>84.677910</ele>
        <time>2026-08-15T07:34:06.000Z</time>
      </trkpt>
      <trkpt lat="22.968759" lon="109.741101">
        <ele>84.680346</ele>
        <time>2026-08-15T07:34:07.000Z</time>
      </trkpt>
      <trkpt lat="22.968735" lon="109.741149">
        <ele>84.682823</ele>
        <time>2026-08-15T07:34:08.000Z</time>
      </trkpt>
      <trkpt lat="22.968712" lon="109.741196">
        <ele>84.685236</ele>
        <time>2026-08-15T07:34:09.000Z</time>
      </trkpt>
      <trkpt lat="22.968690" lon="109.741244">
        <ele>84.687667</ele>
        <time>2026-08-15T07:34:10.000Z</time>
      </trkpt>
      <trkpt lat="22.968668" lon="109.741291">
        <ele>84.690058</ele>
        <time>2026-08-15T07:34:11.000Z</time>
      </trkpt>
      <trkpt lat="22.968647" lon="109.741337">
        <ele>84.692386</ele>
        <time>2026-08-15T07:34:12.000Z</time>
      </trkpt>
      <trkpt lat="22.968625" lon="109.741382">
        <ele>84.694696</ele>
        <time>2026-08-15T07:34:13.000Z</time>
      </trkpt>
      <trkpt lat="22.968604" lon="109.741429">
        <ele>84.697064</ele>
        <time>2026-08-15T07:34:14.000Z</time>
      </trkpt>
      <trkpt lat="22.968582" lon="109.741474">
        <ele>84.699375</ele>
        <time>2026-08-15T07:34:15.000Z</time>
      </trkpt>
      <trkpt lat="22.968560" lon="109.741519">
        <ele>84.701685</ele>
        <time>2026-08-15T07:34:16.000Z</time>
      </trkpt>
      <trkpt lat="22.968538" lon="109.741564">
        <ele>84.703995</ele>
        <time>2026-08-15T07:34:17.000Z</time>
      </trkpt>
      <trkpt lat="22.968516" lon="109.741610">
        <ele>84.706345</ele>
        <time>2026-08-15T07:34:18.000Z</time>
      </trkpt>
      <trkpt lat="22.968495" lon="109.741656">
        <ele>84.708261</ele>
        <time>2026-08-15T07:34:19.000Z</time>
      </trkpt>
      <trkpt lat="22.968475" lon="109.741702">
        <ele>84.697744</ele>
        <time>2026-08-15T07:34:20.000Z</time>
      </trkpt>
      <trkpt lat="22.968455" lon="109.741747">
        <ele>84.687413</ele>
        <time>2026-08-15T07:34:21.000Z</time>
      </trkpt>
      <trkpt lat="22.968434" lon="109.741792">
        <ele>84.676983</ele>
        <time>2026-08-15T07:34:22.000Z</time>
      </trkpt>
      <trkpt lat="22.968412" lon="109.741837">
        <ele>84.666450</ele>
        <time>2026-08-15T07:34:23.000Z</time>
      </trkpt>
      <trkpt lat="22.968391" lon="109.741882">
        <ele>84.656020</ele>
        <time>2026-08-15T07:34:24.000Z</time>
      </trkpt>
      <trkpt lat="22.968370" lon="109.741928">
        <ele>84.645405</ele>
        <time>2026-08-15T07:34:25.000Z</time>
      </trkpt>
      <trkpt lat="22.968349" lon="109.741974">
        <ele>84.634790</ele>
        <time>2026-08-15T07:34:26.000Z</time>
      </trkpt>
      <trkpt lat="22.968328" lon="109.742019">
        <ele>84.624360</ele>
        <time>2026-08-15T07:34:27.000Z</time>
      </trkpt>
      <trkpt lat="22.968307" lon="109.742065">
        <ele>84.613745</ele>
        <time>2026-08-15T07:34:28.000Z</time>
      </trkpt>
      <trkpt lat="22.968286" lon="109.742110">
        <ele>84.603315</ele>
        <time>2026-08-15T07:34:29.000Z</time>
      </trkpt>
      <trkpt lat="22.968265" lon="109.742154">
        <ele>84.593069</ele>
        <time>2026-08-15T07:34:30.000Z</time>
      </trkpt>
      <trkpt lat="22.968246" lon="109.742197">
        <ele>84.583209</ele>
        <time>2026-08-15T07:34:31.000Z</time>
      </trkpt>
      <trkpt lat="22.968226" lon="109.742239">
        <ele>84.573433</ele>
        <time>2026-08-15T07:34:32.000Z</time>
      </trkpt>
      <trkpt lat="22.968206" lon="109.742281">
        <ele>84.563658</ele>
        <time>2026-08-15T07:34:33.000Z</time>
      </trkpt>
      <trkpt lat="22.968187" lon="109.742321">
        <ele>84.554352</ele>
        <time>2026-08-15T07:34:34.000Z</time>
      </trkpt>
      <trkpt lat="22.968166" lon="109.742360">
        <ele>84.545012</ele>
        <time>2026-08-15T07:34:35.000Z</time>
      </trkpt>
      <trkpt lat="22.968145" lon="109.742398">
        <ele>84.535849</ele>
        <time>2026-08-15T07:34:36.000Z</time>
      </trkpt>
      <trkpt lat="22.968126" lon="109.742438">
        <ele>84.526544</ele>
        <time>2026-08-15T07:34:37.000Z</time>
      </trkpt>
      <trkpt lat="22.968108" lon="109.742478">
        <ele>84.517340</ele>
        <time>2026-08-15T07:34:38.000Z</time>
      </trkpt>
      <trkpt lat="22.968088" lon="109.742517">
        <ele>84.508111</ele>
        <time>2026-08-15T07:34:39.000Z</time>
      </trkpt>
      <trkpt lat="22.968067" lon="109.742555">
        <ele>84.498948</ele>
        <time>2026-08-15T07:34:40.000Z</time>
      </trkpt>
      <trkpt lat="22.968046" lon="109.742594">
        <ele>84.489608</ele>
        <time>2026-08-15T07:34:41.000Z</time>
      </trkpt>
      <trkpt lat="22.968027" lon="109.742635">
        <ele>84.480118</ele>
        <time>2026-08-15T07:34:42.000Z</time>
      </trkpt>
      <trkpt lat="22.968007" lon="109.742677">
        <ele>84.470343</ele>
        <time>2026-08-15T07:34:43.000Z</time>
      </trkpt>
      <trkpt lat="22.967987" lon="109.742720">
        <ele>84.460383</ele>
        <time>2026-08-15T07:34:44.000Z</time>
      </trkpt>
      <trkpt lat="22.967965" lon="109.742762">
        <ele>84.450393</ele>
        <time>2026-08-15T07:34:45.000Z</time>
      </trkpt>
      <trkpt lat="22.967945" lon="109.742805">
        <ele>84.440433</ele>
        <time>2026-08-15T07:34:46.000Z</time>
      </trkpt>
      <trkpt lat="22.967924" lon="109.742851">
        <ele>84.429818</ele>
        <time>2026-08-15T07:34:47.000Z</time>
      </trkpt>
      <trkpt lat="22.967902" lon="109.742898">
        <ele>84.418918</ele>
        <time>2026-08-15T07:34:48.000Z</time>
      </trkpt>
      <trkpt lat="22.967880" lon="109.742945">
        <ele>84.408018</ele>
        <time>2026-08-15T07:34:49.000Z</time>
      </trkpt>
      <trkpt lat="22.967857" lon="109.742995">
        <ele>84.396462</ele>
        <time>2026-08-15T07:34:50.000Z</time>
      </trkpt>
      <trkpt lat="22.967835" lon="109.743045">
        <ele>84.385006</ele>
        <time>2026-08-15T07:34:51.000Z</time>
      </trkpt>
      <trkpt lat="22.967813" lon="109.743095">
        <ele>84.373549</ele>
        <time>2026-08-15T07:34:52.000Z</time>
      </trkpt>
      <trkpt lat="22.967789" lon="109.743146">
        <ele>84.361708</ele>
        <time>2026-08-15T07:34:53.000Z</time>
      </trkpt>
      <trkpt lat="22.967765" lon="109.743200">
        <ele>84.349311</ele>
        <time>2026-08-15T07:34:54.000Z</time>
      </trkpt>
      <trkpt lat="22.967742" lon="109.743253">
        <ele>84.337198</ele>
        <time>2026-08-15T07:34:55.000Z</time>
      </trkpt>
      <trkpt lat="22.967718" lon="109.743306">
        <ele>84.324987</ele>
        <time>2026-08-15T07:34:56.000Z</time>
      </trkpt>
      <trkpt lat="22.967695" lon="109.743360">
        <ele>84.312687</ele>
        <time>2026-08-15T07:34:57.000Z</time>
      </trkpt>
      <trkpt lat="22.967673" lon="109.743415">
        <ele>84.303180</ele>
        <time>2026-08-15T07:34:58.000Z</time>
      </trkpt>
      <trkpt lat="22.967651" lon="109.743470">
        <ele>84.298851</ele>
        <time>2026-08-15T07:34:59.000Z</time>
      </trkpt>
      <trkpt lat="22.967628" lon="109.743525">
        <ele>84.294491</ele>
        <time>2026-08-15T07:35:00.000Z</time>
      </trkpt>
      <trkpt lat="22.967604" lon="109.743579">
        <ele>84.290162</ele>
        <time>2026-08-15T07:35:01.000Z</time>
      </trkpt>
      <trkpt lat="22.967582" lon="109.743632">
        <ele>84.285966</ele>
        <time>2026-08-15T07:35:02.000Z</time>
      </trkpt>
      <trkpt lat="22.967558" lon="109.743686">
        <ele>84.281637</ele>
        <time>2026-08-15T07:35:03.000Z</time>
      </trkpt>
      <trkpt lat="22.967534" lon="109.743740">
        <ele>84.277309</ele>
        <time>2026-08-15T07:35:04.000Z</time>
      </trkpt>
      <trkpt lat="22.967510" lon="109.743795">
        <ele>84.272915</ele>
        <time>2026-08-15T07:35:05.000Z</time>
      </trkpt>
      <trkpt lat="22.967487" lon="109.743847">
        <ele>84.268751</ele>
        <time>2026-08-15T07:35:06.000Z</time>
      </trkpt>
      <trkpt lat="22.967463" lon="109.743900">
        <ele>84.264487</ele>
        <time>2026-08-15T07:35:07.000Z</time>
      </trkpt>
      <trkpt lat="22.967441" lon="109.743954">
        <ele>84.260225</ele>
        <time>2026-08-15T07:35:08.000Z</time>
      </trkpt>
      <trkpt lat="22.967420" lon="109.744007">
        <ele>84.256059</ele>
        <time>2026-08-15T07:35:09.000Z</time>
      </trkpt>
      <trkpt lat="22.967397" lon="109.744060">
        <ele>84.251830</ele>
        <time>2026-08-15T07:35:10.000Z</time>
      </trkpt>
      <trkpt lat="22.967375" lon="109.744115">
        <ele>84.247501</ele>
        <time>2026-08-15T07:35:11.000Z</time>
      </trkpt>
      <trkpt lat="22.967350" lon="109.744169">
        <ele>84.243138</ele>
        <time>2026-08-15T07:35:12.000Z</time>
      </trkpt>
      <trkpt lat="22.967325" lon="109.744222">
        <ele>84.238839</ele>
        <time>2026-08-15T07:35:13.000Z</time>
      </trkpt>
      <trkpt lat="22.967297" lon="109.744272">
        <ele>84.234615</ele>
        <time>2026-08-15T07:35:14.000Z</time>
      </trkpt>
      <trkpt lat="22.967271" lon="109.744326">
        <ele>84.230216</ele>
        <time>2026-08-15T07:35:15.000Z</time>
      </trkpt>
      <trkpt lat="22.967247" lon="109.744380">
        <ele>84.225888</ele>
        <time>2026-08-15T07:35:16.000Z</time>
      </trkpt>
      <trkpt lat="22.967225" lon="109.744434">
        <ele>84.221625</ele>
        <time>2026-08-15T07:35:17.000Z</time>
      </trkpt>
      <trkpt lat="22.967203" lon="109.744487">
        <ele>84.217428</ele>
        <time>2026-08-15T07:35:18.000Z</time>
      </trkpt>
      <trkpt lat="22.967181" lon="109.744538">
        <ele>84.213363</ele>
        <time>2026-08-15T07:35:19.000Z</time>
      </trkpt>
      <trkpt lat="22.967160" lon="109.744589">
        <ele>84.209330</ele>
        <time>2026-08-15T07:35:20.000Z</time>
      </trkpt>
      <trkpt lat="22.967139" lon="109.744640">
        <ele>84.205297</ele>
        <time>2026-08-15T07:35:21.000Z</time>
      </trkpt>
      <trkpt lat="22.967118" lon="109.744692">
        <ele>84.201198</ele>
        <time>2026-08-15T07:35:22.000Z</time>
      </trkpt>
      <trkpt lat="22.967096" lon="109.744742">
        <ele>84.197198</ele>
        <time>2026-08-15T07:35:23.000Z</time>
      </trkpt>
      <trkpt lat="22.967069" lon="109.744790">
        <ele>84.193137</ele>
        <time>2026-08-15T07:35:24.000Z</time>
      </trkpt>
      <trkpt lat="22.967043" lon="109.744840">
        <ele>84.188992</ele>
        <time>2026-08-15T07:35:25.000Z</time>
      </trkpt>
      <trkpt lat="22.967021" lon="109.744890">
        <ele>84.184992</ele>
        <time>2026-08-15T07:35:26.000Z</time>
      </trkpt>
      <trkpt lat="22.967003" lon="109.744941">
        <ele>84.181049</ele>
        <time>2026-08-15T07:35:27.000Z</time>
      </trkpt>
      <trkpt lat="22.966982" lon="109.744992">
        <ele>84.177016</ele>
        <time>2026-08-15T07:35:28.000Z</time>
      </trkpt>
      <trkpt lat="22.966960" lon="109.745042">
        <ele>84.173016</ele>
        <time>2026-08-15T07:35:29.000Z</time>
      </trkpt>
      <trkpt lat="22.966935" lon="109.745093">
        <ele>84.168845</ele>
        <time>2026-08-15T07:35:30.000Z</time>
      </trkpt>
      <trkpt lat="22.966913" lon="109.745144">
        <ele>84.164780</ele>
        <time>2026-08-15T07:35:31.000Z</time>
      </trkpt>
      <trkpt lat="22.966890" lon="109.745194">
        <ele>84.162725</ele>
        <time>2026-08-15T07:35:32.000Z</time>
      </trkpt>
      <trkpt lat="22.966867" lon="109.745244">
        <ele>84.161380</ele>
        <time>2026-08-15T07:35:33.000Z</time>
      </trkpt>
      <trkpt lat="22.966845" lon="109.745293">
        <ele>84.160068</ele>
        <time>2026-08-15T07:35:34.000Z</time>
      </trkpt>
      <trkpt lat="22.966823" lon="109.745342">
        <ele>84.158757</ele>
        <time>2026-08-15T07:35:35.000Z</time>
      </trkpt>
      <trkpt lat="22.966801" lon="109.745391">
        <ele>84.157445</ele>
        <time>2026-08-15T07:35:36.000Z</time>
      </trkpt>
      <trkpt lat="22.966780" lon="109.745438">
        <ele>84.156188</ele>
        <time>2026-08-15T07:35:37.000Z</time>
      </trkpt>
      <trkpt lat="22.966760" lon="109.745482">
        <ele>84.155008</ele>
        <time>2026-08-15T07:35:38.000Z</time>
      </trkpt>
      <trkpt lat="22.966734" lon="109.745526">
        <ele>84.153750</ele>
        <time>2026-08-15T07:35:39.000Z</time>
      </trkpt>
      <trkpt lat="22.966704" lon="109.745570">
        <ele>84.152433</ele>
        <time>2026-08-15T07:35:40.000Z</time>
      </trkpt>
      <trkpt lat="22.966682" lon="109.745616">
        <ele>84.151186</ele>
        <time>2026-08-15T07:35:41.000Z</time>
      </trkpt>
      <trkpt lat="22.966664" lon="109.745664">
        <ele>84.149939</ele>
        <time>2026-08-15T07:35:42.000Z</time>
      </trkpt>
      <trkpt lat="22.966644" lon="109.745703">
        <ele>84.148865</ele>
        <time>2026-08-15T07:35:43.000Z</time>
      </trkpt>
      <trkpt lat="22.966619" lon="109.745746">
        <ele>84.147641</ele>
        <time>2026-08-15T07:35:44.000Z</time>
      </trkpt>
      <trkpt lat="22.966594" lon="109.745786">
        <ele>84.146478</ele>
        <time>2026-08-15T07:35:45.000Z</time>
      </trkpt>
      <trkpt lat="22.966561" lon="109.745835">
        <ele>84.145017</ele>
        <time>2026-08-15T07:35:46.000Z</time>
      </trkpt>
      <trkpt lat="22.966531" lon="109.745885">
        <ele>84.143581</ele>
        <time>2026-08-15T07:35:47.000Z</time>
      </trkpt>
      <trkpt lat="22.966525" lon="109.745938">
        <ele>84.142297</ele>
        <time>2026-08-15T07:35:48.000Z</time>
      </trkpt>
      <trkpt lat="22.966492" lon="109.745977">
        <ele>84.141022</ele>
        <time>2026-08-15T07:35:49.000Z</time>
      </trkpt>
      <trkpt lat="22.966475" lon="109.746023">
        <ele>84.139830</ele>
        <time>2026-08-15T07:35:50.000Z</time>
      </trkpt>
      <trkpt lat="22.966453" lon="109.746085">
        <ele>84.138231</ele>
        <time>2026-08-15T07:35:51.000Z</time>
      </trkpt>
      <trkpt lat="22.966430" lon="109.746132">
        <ele>84.136951</ele>
        <time>2026-08-15T07:35:52.000Z</time>
      </trkpt>
      <trkpt lat="22.966407" lon="109.746181">
        <ele>84.135627</ele>
        <time>2026-08-15T07:35:53.000Z</time>
      </trkpt>
      <trkpt lat="22.966388" lon="109.746236">
        <ele>84.134214</ele>
        <time>2026-08-15T07:35:54.000Z</time>
      </trkpt>
      <trkpt lat="22.966370" lon="109.746290">
        <ele>84.132832</ele>
        <time>2026-08-15T07:35:55.000Z</time>
      </trkpt>
      <trkpt lat="22.966351" lon="109.746336">
        <ele>84.131619</ele>
        <time>2026-08-15T07:35:56.000Z</time>
      </trkpt>
      <trkpt lat="22.966331" lon="109.746385">
        <ele>84.130330</ele>
        <time>2026-08-15T07:35:57.000Z</time>
      </trkpt>
      <trkpt lat="22.966302" lon="109.746435">
        <ele>84.128908</ele>
        <time>2026-08-15T07:35:58.000Z</time>
      </trkpt>
      <trkpt lat="22.966275" lon="109.746486">
        <ele>84.127493</ele>
        <time>2026-08-15T07:35:59.000Z</time>
      </trkpt>
      <trkpt lat="22.966250" lon="109.746540">
        <ele>84.126038</ele>
        <time>2026-08-15T07:36:00.000Z</time>
      </trkpt>
      <trkpt lat="22.966228" lon="109.746595">
        <ele>84.124596</ele>
        <time>2026-08-15T07:36:01.000Z</time>
      </trkpt>
      <trkpt lat="22.966208" lon="109.746653">
        <ele>84.123106</ele>
        <time>2026-08-15T07:36:02.000Z</time>
      </trkpt>
      <trkpt lat="22.966196" lon="109.746715">
        <ele>84.121581</ele>
        <time>2026-08-15T07:36:03.000Z</time>
      </trkpt>
      <trkpt lat="22.966179" lon="109.746770">
        <ele>84.120186</ele>
        <time>2026-08-15T07:36:04.000Z</time>
      </trkpt>
      <trkpt lat="22.966149" lon="109.746826">
        <ele>84.118627</ele>
        <time>2026-08-15T07:36:05.000Z</time>
      </trkpt>
      <trkpt lat="22.966124" lon="109.746884">
        <ele>84.117086</ele>
        <time>2026-08-15T07:36:06.000Z</time>
      </trkpt>
      <trkpt lat="22.966100" lon="109.746940">
        <ele>84.073274</ele>
        <time>2026-08-15T07:36:07.000Z</time>
      </trkpt>
      <trkpt lat="22.966075" lon="109.747000">
        <ele>84.011556</ele>
        <time>2026-08-15T07:36:08.000Z</time>
      </trkpt>
      <trkpt lat="22.966053" lon="109.747061">
        <ele>83.950160</ele>
        <time>2026-08-15T07:36:09.000Z</time>
      </trkpt>
      <trkpt lat="22.966031" lon="109.747119">
        <ele>83.891374</ele>
        <time>2026-08-15T07:36:10.000Z</time>
      </trkpt>
      <trkpt lat="22.966011" lon="109.747174">
        <ele>83.835957</ele>
        <time>2026-08-15T07:36:11.000Z</time>
      </trkpt>
      <trkpt lat="22.965990" lon="109.747233">
        <ele>83.776677</ele>
        <time>2026-08-15T07:36:12.000Z</time>
      </trkpt>
      <trkpt lat="22.965968" lon="109.747294">
        <ele>83.715282</ele>
        <time>2026-08-15T07:36:13.000Z</time>
      </trkpt>
      <trkpt lat="22.965945" lon="109.747351">
        <ele>83.656960</ele>
        <time>2026-08-15T07:36:14.000Z</time>
      </trkpt>
      <trkpt lat="22.965922" lon="109.747407">
        <ele>83.599495</ele>
        <time>2026-08-15T07:36:15.000Z</time>
      </trkpt>
      <trkpt lat="22.965898" lon="109.747464">
        <ele>83.540757</ele>
        <time>2026-08-15T07:36:16.000Z</time>
      </trkpt>
      <trkpt lat="22.965875" lon="109.747520">
        <ele>83.483292</ele>
        <time>2026-08-15T07:36:17.000Z</time>
      </trkpt>
      <trkpt lat="22.965850" lon="109.747577">
        <ele>83.424123</ele>
        <time>2026-08-15T07:36:18.000Z</time>
      </trkpt>
      <trkpt lat="22.965828" lon="109.747636">
        <ele>83.364469</ele>
        <time>2026-08-15T07:36:19.000Z</time>
      </trkpt>
      <trkpt lat="22.965804" lon="109.747693">
        <ele>83.305731</ele>
        <time>2026-08-15T07:36:20.000Z</time>
      </trkpt>
      <trkpt lat="22.965781" lon="109.747755">
        <ele>83.243089</ele>
        <time>2026-08-15T07:36:21.000Z</time>
      </trkpt>
      <trkpt lat="22.965756" lon="109.747815">
        <ele>83.181371</ele>
        <time>2026-08-15T07:36:22.000Z</time>
      </trkpt>
      <trkpt lat="22.965731" lon="109.747875">
        <ele>83.119652</ele>
        <time>2026-08-15T07:36:23.000Z</time>
      </trkpt>
      <trkpt lat="22.965704" lon="109.747936">
        <ele>83.056223</ele>
        <time>2026-08-15T07:36:24.000Z</time>
      </trkpt>
      <trkpt lat="22.965678" lon="109.747996">
        <ele>82.994078</ele>
        <time>2026-08-15T07:36:25.000Z</time>
      </trkpt>
      <trkpt lat="22.965654" lon="109.748057">
        <ele>82.931912</ele>
        <time>2026-08-15T07:36:26.000Z</time>
      </trkpt>
      <trkpt lat="22.965627" lon="109.748118">
        <ele>82.868483</ele>
        <time>2026-08-15T07:36:27.000Z</time>
      </trkpt>
      <trkpt lat="22.965602" lon="109.748180">
        <ele>82.805052</ele>
        <time>2026-08-15T07:36:28.000Z</time>
      </trkpt>
      <trkpt lat="22.965574" lon="109.748240">
        <ele>82.742013</ele>
        <time>2026-08-15T07:36:29.000Z</time>
      </trkpt>
      <trkpt lat="22.965545" lon="109.748300">
        <ele>82.678507</ele>
        <time>2026-08-15T07:36:30.000Z</time>
      </trkpt>
      <trkpt lat="22.965517" lon="109.748359">
        <ele>82.616303</ele>
        <time>2026-08-15T07:36:31.000Z</time>
      </trkpt>
      <trkpt lat="22.965491" lon="109.748416">
        <ele>82.556689</ele>
        <time>2026-08-15T07:36:32.000Z</time>
      </trkpt>
      <trkpt lat="22.965463" lon="109.748472">
        <ele>82.496970</ele>
        <time>2026-08-15T07:36:33.000Z</time>
      </trkpt>
      <trkpt lat="22.965437" lon="109.748529">
        <ele>82.437356</ele>
        <time>2026-08-15T07:36:34.000Z</time>
      </trkpt>
      <trkpt lat="22.965409" lon="109.748587">
        <ele>82.375983</ele>
        <time>2026-08-15T07:36:35.000Z</time>
      </trkpt>
      <trkpt lat="22.965382" lon="109.748644">
        <ele>82.315911</ele>
        <time>2026-08-15T07:36:36.000Z</time>
      </trkpt>
      <trkpt lat="22.965356" lon="109.748701">
        <ele>82.280480</ele>
        <time>2026-08-15T07:36:37.000Z</time>
      </trkpt>
      <trkpt lat="22.965331" lon="109.748757">
        <ele>82.269627</ele>
        <time>2026-08-15T07:36:38.000Z</time>
      </trkpt>
      <trkpt lat="22.965306" lon="109.748814">
        <ele>82.258616</ele>
        <time>2026-08-15T07:36:39.000Z</time>
      </trkpt>
      <trkpt lat="22.965280" lon="109.748869">
        <ele>82.247833</ele>
        <time>2026-08-15T07:36:40.000Z</time>
      </trkpt>
      <trkpt lat="22.965255" lon="109.748927">
        <ele>82.236664</ele>
        <time>2026-08-15T07:36:41.000Z</time>
      </trkpt>
      <trkpt lat="22.965231" lon="109.748984">
        <ele>82.225734</ele>
        <time>2026-08-15T07:36:42.000Z</time>
      </trkpt>
      <trkpt lat="22.965204" lon="109.749037">
        <ele>82.215170</ele>
        <time>2026-08-15T07:36:43.000Z</time>
      </trkpt>
      <trkpt lat="22.965178" lon="109.749091">
        <ele>82.204542</ele>
        <time>2026-08-15T07:36:44.000Z</time>
      </trkpt>
      <trkpt lat="22.965153" lon="109.749145">
        <ele>82.194001</ele>
        <time>2026-08-15T07:36:45.000Z</time>
      </trkpt>
      <trkpt lat="22.965130" lon="109.749202">
        <ele>82.183148</ele>
        <time>2026-08-15T07:36:46.000Z</time>
      </trkpt>
      <trkpt lat="22.965109" lon="109.749258">
        <ele>82.172602</ele>
        <time>2026-08-15T07:36:47.000Z</time>
      </trkpt>
      <trkpt lat="22.965088" lon="109.749314">
        <ele>82.162057</ele>
        <time>2026-08-15T07:36:48.000Z</time>
      </trkpt>
      <trkpt lat="22.965064" lon="109.749368">
        <ele>82.151600</ele>
        <time>2026-08-15T07:36:49.000Z</time>
      </trkpt>
      <trkpt lat="22.965042" lon="109.749423">
        <ele>82.141142</ele>
        <time>2026-08-15T07:36:50.000Z</time>
      </trkpt>
      <trkpt lat="22.965024" lon="109.749482">
        <ele>82.130302</ele>
        <time>2026-08-15T07:36:51.000Z</time>
      </trkpt>
      <trkpt lat="22.965003" lon="109.749534">
        <ele>82.120399</ele>
        <time>2026-08-15T07:36:52.000Z</time>
      </trkpt>
      <trkpt lat="22.964981" lon="109.749587">
        <ele>82.110260</ele>
        <time>2026-08-15T07:36:53.000Z</time>
      </trkpt>
      <trkpt lat="22.964959" lon="109.749641">
        <ele>82.099962</ele>
        <time>2026-08-15T07:36:54.000Z</time>
      </trkpt>
      <trkpt lat="22.964937" lon="109.749695">
        <ele>82.089663</ele>
        <time>2026-08-15T07:36:55.000Z</time>
      </trkpt>
      <trkpt lat="22.964915" lon="109.749750">
        <ele>82.079205</ele>
        <time>2026-08-15T07:36:56.000Z</time>
      </trkpt>
      <trkpt lat="22.964891" lon="109.749802">
        <ele>82.069061</ele>
        <time>2026-08-15T07:36:57.000Z</time>
      </trkpt>
      <trkpt lat="22.964867" lon="109.749856">
        <ele>82.058603</ele>
        <time>2026-08-15T07:36:58.000Z</time>
      </trkpt>
      <trkpt lat="22.964843" lon="109.749910">
        <ele>82.048146</ele>
        <time>2026-08-15T07:36:59.000Z</time>
      </trkpt>
      <trkpt lat="22.964817" lon="109.749963">
        <ele>82.037673</ele>
        <time>2026-08-15T07:37:00.000Z</time>
      </trkpt>
      <trkpt lat="22.964794" lon="109.750016">
        <ele>82.027454</ele>
        <time>2026-08-15T07:37:01.000Z</time>
      </trkpt>
      <trkpt lat="22.964771" lon="109.750071">
        <ele>82.016919</ele>
        <time>2026-08-15T07:37:02.000Z</time>
      </trkpt>
      <trkpt lat="22.964749" lon="109.750125">
        <ele>82.006621</ele>
        <time>2026-08-15T07:37:03.000Z</time>
      </trkpt>
      <trkpt lat="22.964726" lon="109.750178">
        <ele>81.996403</ele>
        <time>2026-08-15T07:37:04.000Z</time>
      </trkpt>
      <trkpt lat="22.964703" lon="109.750233">
        <ele>81.985868</ele>
        <time>2026-08-15T07:37:05.000Z</time>
      </trkpt>
      <trkpt lat="22.964678" lon="109.750286">
        <ele>81.975482</ele>
        <time>2026-08-15T07:37:06.000Z</time>
      </trkpt>
      <trkpt lat="22.964654" lon="109.750340">
        <ele>81.965025</ele>
        <time>2026-08-15T07:37:07.000Z</time>
      </trkpt>
      <trkpt lat="22.964632" lon="109.750393">
        <ele>81.954885</ele>
        <time>2026-08-15T07:37:08.000Z</time>
      </trkpt>
      <trkpt lat="22.964608" lon="109.750447">
        <ele>81.940384</ele>
        <time>2026-08-15T07:37:09.000Z</time>
      </trkpt>
      <trkpt lat="22.964585" lon="109.750501">
        <ele>81.883188</ele>
        <time>2026-08-15T07:37:10.000Z</time>
      </trkpt>
      <trkpt lat="22.964562" lon="109.750554">
        <ele>81.826862</ele>
        <time>2026-08-15T07:37:11.000Z</time>
      </trkpt>
      <trkpt lat="22.964540" lon="109.750608">
        <ele>81.770096</ele>
        <time>2026-08-15T07:37:12.000Z</time>
      </trkpt>
      <trkpt lat="22.964516" lon="109.750661">
        <ele>81.713318</ele>
        <time>2026-08-15T07:37:13.000Z</time>
      </trkpt>
      <trkpt lat="22.964491" lon="109.750715">
        <ele>81.655214</ele>
        <time>2026-08-15T07:37:14.000Z</time>
      </trkpt>
      <trkpt lat="22.964467" lon="109.750770">
        <ele>81.596705</ele>
        <time>2026-08-15T07:37:15.000Z</time>
      </trkpt>
      <trkpt lat="22.964442" lon="109.750825">
        <ele>81.537740</ele>
        <time>2026-08-15T07:37:16.000Z</time>
      </trkpt>
      <trkpt lat="22.964418" lon="109.750879">
        <ele>81.480098</ele>
        <time>2026-08-15T07:37:17.000Z</time>
      </trkpt>
      <trkpt lat="22.964392" lon="109.750933">
        <ele>81.421517</ele>
        <time>2026-08-15T07:37:18.000Z</time>
      </trkpt>
      <trkpt lat="22.964368" lon="109.750987">
        <ele>81.363875</ele>
        <time>2026-08-15T07:37:19.000Z</time>
      </trkpt>
      <trkpt lat="22.964343" lon="109.751041">
        <ele>81.305771</ele>
        <time>2026-08-15T07:37:20.000Z</time>
      </trkpt>
      <trkpt lat="22.964317" lon="109.751094">
        <ele>81.248040</ele>
        <time>2026-08-15T07:37:21.000Z</time>
      </trkpt>
      <trkpt lat="22.964291" lon="109.751147">
        <ele>81.190310</ele>
        <time>2026-08-15T07:37:22.000Z</time>
      </trkpt>
      <trkpt lat="22.964264" lon="109.751198">
        <ele>81.133756</ele>
        <time>2026-08-15T07:37:23.000Z</time>
      </trkpt>
      <trkpt lat="22.964237" lon="109.751250">
        <ele>81.076367</ele>
        <time>2026-08-15T07:37:24.000Z</time>
      </trkpt>
      <trkpt lat="22.964211" lon="109.751300">
        <ele>81.021165</ele>
        <time>2026-08-15T07:37:25.000Z</time>
      </trkpt>
      <trkpt lat="22.964183" lon="109.751348">
        <ele>80.966541</ele>
        <time>2026-08-15T07:37:26.000Z</time>
      </trkpt>
      <trkpt lat="22.964153" lon="109.751396">
        <ele>80.910771</ele>
        <time>2026-08-15T07:37:27.000Z</time>
      </trkpt>
      <trkpt lat="22.964120" lon="109.751443">
        <ele>80.853951</ele>
        <time>2026-08-15T07:37:28.000Z</time>
      </trkpt>
      <trkpt lat="22.964085" lon="109.751488">
        <ele>80.797323</ele>
        <time>2026-08-15T07:37:29.000Z</time>
      </trkpt>
      <trkpt lat="22.964049" lon="109.751534">
        <ele>80.739287</ele>
        <time>2026-08-15T07:37:30.000Z</time>
      </trkpt>
      <trkpt lat="22.964014" lon="109.751580">
        <ele>80.681921</ele>
        <time>2026-08-15T07:37:31.000Z</time>
      </trkpt>
      <trkpt lat="22.963977" lon="109.751626">
        <ele>80.623203</ele>
        <time>2026-08-15T07:37:32.000Z</time>
      </trkpt>
      <trkpt lat="22.963942" lon="109.751673">
        <ele>80.565093</ele>
        <time>2026-08-15T07:37:33.000Z</time>
      </trkpt>
      <trkpt lat="22.963907" lon="109.751720">
        <ele>80.506983</ele>
        <time>2026-08-15T07:37:34.000Z</time>
      </trkpt>
      <trkpt lat="22.963872" lon="109.751768">
        <ele>80.448123</ele>
        <time>2026-08-15T07:37:35.000Z</time>
      </trkpt>
      <trkpt lat="22.963837" lon="109.751816">
        <ele>80.389262</ele>
        <time>2026-08-15T07:37:36.000Z</time>
      </trkpt>
      <trkpt lat="22.963802" lon="109.751864">
        <ele>80.330402</ele>
        <time>2026-08-15T07:37:37.000Z</time>
      </trkpt>
      <trkpt lat="22.963766" lon="109.751912">
        <ele>80.270887</ele>
        <time>2026-08-15T07:37:38.000Z</time>
      </trkpt>
      <trkpt lat="22.963730" lon="109.751960">
        <ele>80.211373</ele>
        <time>2026-08-15T07:37:39.000Z</time>
      </trkpt>
      <trkpt lat="22.963695" lon="109.752007">
        <ele>80.153263</ele>
        <time>2026-08-15T07:37:40.000Z</time>
      </trkpt>
      <trkpt lat="22.963660" lon="109.752055">
        <ele>80.094402</ele>
        <time>2026-08-15T07:37:41.000Z</time>
      </trkpt>
      <trkpt lat="22.963626" lon="109.752102">
        <ele>80.043983</ele>
        <time>2026-08-15T07:37:42.000Z</time>
      </trkpt>
      <trkpt lat="22.963591" lon="109.752149">
        <ele>79.999294</ele>
        <time>2026-08-15T07:37:43.000Z</time>
      </trkpt>
      <trkpt lat="22.963557" lon="109.752195">
        <ele>79.955684</ele>
        <time>2026-08-15T07:37:44.000Z</time>
      </trkpt>
      <trkpt lat="22.963523" lon="109.752243">
        <ele>79.910912</ele>
        <time>2026-08-15T07:37:45.000Z</time>
      </trkpt>
      <trkpt lat="22.963487" lon="109.752291">
        <ele>79.865142</ele>
        <time>2026-08-15T07:37:46.000Z</time>
      </trkpt>
      <trkpt lat="22.963452" lon="109.752338">
        <ele>79.820453</ele>
        <time>2026-08-15T07:37:47.000Z</time>
      </trkpt>
      <trkpt lat="22.963417" lon="109.752386">
        <ele>79.775187</ele>
        <time>2026-08-15T07:37:48.000Z</time>
      </trkpt>
      <trkpt lat="22.963381" lon="109.752435">
        <ele>79.728842</ele>
        <time>2026-08-15T07:37:49.000Z</time>
      </trkpt>
      <trkpt lat="22.963347" lon="109.752484">
        <ele>79.683481</ele>
        <time>2026-08-15T07:37:50.000Z</time>
      </trkpt>
      <trkpt lat="22.963311" lon="109.752532">
        <ele>79.637712</ele>
        <time>2026-08-15T07:37:51.000Z</time>
      </trkpt>
      <trkpt lat="22.963273" lon="109.752581">
        <ele>79.590349</ele>
        <time>2026-08-15T07:37:52.000Z</time>
      </trkpt>
      <trkpt lat="22.963236" lon="109.752631">
        <ele>79.542925</ele>
        <time>2026-08-15T07:37:53.000Z</time>
      </trkpt>
      <trkpt lat="22.963200" lon="109.752679">
        <ele>79.497156</ele>
        <time>2026-08-15T07:37:54.000Z</time>
      </trkpt>
      <trkpt lat="22.963163" lon="109.752728">
        <ele>79.450306</ele>
        <time>2026-08-15T07:37:55.000Z</time>
      </trkpt>
      <trkpt lat="22.963128" lon="109.752778">
        <ele>79.403871</ele>
        <time>2026-08-15T07:37:56.000Z</time>
      </trkpt>
      <trkpt lat="22.963092" lon="109.752827">
        <ele>79.357526</ele>
        <time>2026-08-15T07:37:57.000Z</time>
      </trkpt>
      <trkpt lat="22.963055" lon="109.752877">
        <ele>79.310102</ele>
        <time>2026-08-15T07:37:58.000Z</time>
      </trkpt>
      <trkpt lat="22.963020" lon="109.752928">
        <ele>79.263077</ele>
        <time>2026-08-15T07:37:59.000Z</time>
      </trkpt>
      <trkpt lat="22.962983" lon="109.752978">
        <ele>79.215653</ele>
        <time>2026-08-15T07:38:00.000Z</time>
      </trkpt>
      <trkpt lat="22.962946" lon="109.753029">
        <ele>79.167651</ele>
        <time>2026-08-15T07:38:01.000Z</time>
      </trkpt>
      <trkpt lat="22.962910" lon="109.753078">
        <ele>79.121306</ele>
        <time>2026-08-15T07:38:02.000Z</time>
      </trkpt>
      <trkpt lat="22.962870" lon="109.753124">
        <ele>79.074529</ele>
        <time>2026-08-15T07:38:03.000Z</time>
      </trkpt>
      <trkpt lat="22.962830" lon="109.753169">
        <ele>79.028287</ele>
        <time>2026-08-15T07:38:04.000Z</time>
      </trkpt>
      <trkpt lat="22.962789" lon="109.753214">
        <ele>78.981484</ele>
        <time>2026-08-15T07:38:05.000Z</time>
      </trkpt>
      <trkpt lat="22.962752" lon="109.753260">
        <ele>78.936327</ele>
        <time>2026-08-15T07:38:06.000Z</time>
      </trkpt>
      <trkpt lat="22.962718" lon="109.753308">
        <ele>78.891554</ele>
        <time>2026-08-15T07:38:07.000Z</time>
      </trkpt>
      <trkpt lat="22.962683" lon="109.753356">
        <ele>78.846288</ele>
        <time>2026-08-15T07:38:08.000Z</time>
      </trkpt>
      <trkpt lat="22.962648" lon="109.753403">
        <ele>78.801598</ele>
        <time>2026-08-15T07:38:09.000Z</time>
      </trkpt>
      <trkpt lat="22.962610" lon="109.753451">
        <ele>78.754798</ele>
        <time>2026-08-15T07:38:10.000Z</time>
      </trkpt>
      <trkpt lat="22.962571" lon="109.753496">
        <ele>78.709110</ele>
        <time>2026-08-15T07:38:11.000Z</time>
      </trkpt>
      <trkpt lat="22.962535" lon="109.753540">
        <ele>78.665593</ele>
        <time>2026-08-15T07:38:12.000Z</time>
      </trkpt>
      <trkpt lat="22.962499" lon="109.753586">
        <ele>78.623199</ele>
        <time>2026-08-15T07:38:13.000Z</time>
      </trkpt>
      <trkpt lat="22.962466" lon="109.753631">
        <ele>78.622494</ele>
        <time>2026-08-15T07:38:14.000Z</time>
      </trkpt>
      <trkpt lat="22.962432" lon="109.753676">
        <ele>78.621780</ele>
        <time>2026-08-15T07:38:15.000Z</time>
      </trkpt>
      <trkpt lat="22.962398" lon="109.753722">
        <ele>78.621057</ele>
        <time>2026-08-15T07:38:16.000Z</time>
      </trkpt>
      <trkpt lat="22.962363" lon="109.753767">
        <ele>78.620334</ele>
        <time>2026-08-15T07:38:17.000Z</time>
      </trkpt>
      <trkpt lat="22.962331" lon="109.753813">
        <ele>78.619627</ele>
        <time>2026-08-15T07:38:18.000Z</time>
      </trkpt>
      <trkpt lat="22.962303" lon="109.753853">
        <ele>78.619011</ele>
        <time>2026-08-15T07:38:19.000Z</time>
      </trkpt>
      <trkpt lat="22.962268" lon="109.753895">
        <ele>78.618317</ele>
        <time>2026-08-15T07:38:20.000Z</time>
      </trkpt>
      <trkpt lat="22.962237" lon="109.753937">
        <ele>78.617657</ele>
        <time>2026-08-15T07:38:21.000Z</time>
      </trkpt>
      <trkpt lat="22.962203" lon="109.753977">
        <ele>78.616989</ele>
        <time>2026-08-15T07:38:22.000Z</time>
      </trkpt>
      <trkpt lat="22.962168" lon="109.754019">
        <ele>78.616295</ele>
        <time>2026-08-15T07:38:23.000Z</time>
      </trkpt>
      <trkpt lat="22.962132" lon="109.754063">
        <ele>78.615573</ele>
        <time>2026-08-15T07:38:24.000Z</time>
      </trkpt>
      <trkpt lat="22.962095" lon="109.754107">
        <ele>78.614842</ele>
        <time>2026-08-15T07:38:25.000Z</time>
      </trkpt>
      <trkpt lat="22.962057" lon="109.754151">
        <ele>78.614103</ele>
        <time>2026-08-15T07:38:26.000Z</time>
      </trkpt>
      <trkpt lat="22.962020" lon="109.754195">
        <ele>78.613372</ele>
        <time>2026-08-15T07:38:27.000Z</time>
      </trkpt>
      <trkpt lat="22.961982" lon="109.754240">
        <ele>78.612623</ele>
        <time>2026-08-15T07:38:28.000Z</time>
      </trkpt>
      <trkpt lat="22.961944" lon="109.754284">
        <ele>78.611884</ele>
        <time>2026-08-15T07:38:29.000Z</time>
      </trkpt>
      <trkpt lat="22.961906" lon="109.754329">
        <ele>78.611135</ele>
        <time>2026-08-15T07:38:30.000Z</time>
      </trkpt>
      <trkpt lat="22.961870" lon="109.754373">
        <ele>78.610413</ele>
        <time>2026-08-15T07:38:31.000Z</time>
      </trkpt>
      <trkpt lat="22.961833" lon="109.754415">
        <ele>78.609701</ele>
        <time>2026-08-15T07:38:32.000Z</time>
      </trkpt>
      <trkpt lat="22.961796" lon="109.754454">
        <ele>78.609014</ele>
        <time>2026-08-15T07:38:33.000Z</time>
      </trkpt>
      <trkpt lat="22.961756" lon="109.754492">
        <ele>78.608306</ele>
        <time>2026-08-15T07:38:34.000Z</time>
      </trkpt>
      <trkpt lat="22.961717" lon="109.754532">
        <ele>78.607592</ele>
        <time>2026-08-15T07:38:35.000Z</time>
      </trkpt>
      <trkpt lat="22.961679" lon="109.754572">
        <ele>78.606887</ele>
        <time>2026-08-15T07:38:36.000Z</time>
      </trkpt>
      <trkpt lat="22.961639" lon="109.754610">
        <ele>78.606180</ele>
        <time>2026-08-15T07:38:37.000Z</time>
      </trkpt>
      <trkpt lat="22.961601" lon="109.754646">
        <ele>78.605508</ele>
        <time>2026-08-15T07:38:38.000Z</time>
      </trkpt>
      <trkpt lat="22.961564" lon="109.754683">
        <ele>78.604838</ele>
        <time>2026-08-15T07:38:39.000Z</time>
      </trkpt>
      <trkpt lat="22.961527" lon="109.754719">
        <ele>78.604177</ele>
        <time>2026-08-15T07:38:40.000Z</time>
      </trkpt>
      <trkpt lat="22.961490" lon="109.754755">
        <ele>78.603515</ele>
        <time>2026-08-15T07:38:41.000Z</time>
      </trkpt>
      <trkpt lat="22.961452" lon="109.754788">
        <ele>78.602867</ele>
        <time>2026-08-15T07:38:42.000Z</time>
      </trkpt>
      <trkpt lat="22.961415" lon="109.754822">
        <ele>78.602222</ele>
        <time>2026-08-15T07:38:43.000Z</time>
      </trkpt>
      <trkpt lat="22.961375" lon="109.754856">
        <ele>78.601546</ele>
        <time>2026-08-15T07:38:44.000Z</time>
      </trkpt>
      <trkpt lat="22.961337" lon="109.754888">
        <ele>78.600905</ele>
        <time>2026-08-15T07:38:45.000Z</time>
      </trkpt>
      <trkpt lat="22.961298" lon="109.754923">
        <ele>78.600232</ele>
        <time>2026-08-15T07:38:46.000Z</time>
      </trkpt>
      <trkpt lat="22.961258" lon="109.754961">
        <ele>78.599524</ele>
        <time>2026-08-15T07:38:47.000Z</time>
      </trkpt>
      <trkpt lat="22.961220" lon="109.754997">
        <ele>78.620242</ele>
        <time>2026-08-15T07:38:48.000Z</time>
      </trkpt>
      <trkpt lat="22.961181" lon="109.755035">
        <ele>78.654030</ele>
        <time>2026-08-15T07:38:49.000Z</time>
      </trkpt>
      <trkpt lat="22.961143" lon="109.755071">
        <ele>78.686549</ele>
        <time>2026-08-15T07:38:50.000Z</time>
      </trkpt>
      <trkpt lat="22.961104" lon="109.755107">
        <ele>78.719556</ele>
        <time>2026-08-15T07:38:51.000Z</time>
      </trkpt>
      <trkpt lat="22.961068" lon="109.755144">
        <ele>78.751519</ele>
        <time>2026-08-15T07:38:52.000Z</time>
      </trkpt>
      <trkpt lat="22.961029" lon="109.755181">
        <ele>78.784913</ele>
        <time>2026-08-15T07:38:53.000Z</time>
      </trkpt>
      <trkpt lat="22.960990" lon="109.755216">
        <ele>78.817539</ele>
        <time>2026-08-15T07:38:54.000Z</time>
      </trkpt>
      <trkpt lat="22.960951" lon="109.755248">
        <ele>78.849060</ele>
        <time>2026-08-15T07:38:55.000Z</time>
      </trkpt>
      <trkpt lat="22.960910" lon="109.755281">
        <ele>78.881969</ele>
        <time>2026-08-15T07:38:56.000Z</time>
      </trkpt>
      <trkpt lat="22.960869" lon="109.755316">
        <ele>78.915599</ele>
        <time>2026-08-15T07:38:57.000Z</time>
      </trkpt>
      <trkpt lat="22.960829" lon="109.755352">
        <ele>78.949100</ele>
        <time>2026-08-15T07:38:58.000Z</time>
      </trkpt>
      <trkpt lat="22.960790" lon="109.755390">
        <ele>78.982889</ele>
        <time>2026-08-15T07:38:59.000Z</time>
      </trkpt>
      <trkpt lat="22.960749" lon="109.755429">
        <ele>79.018036</ele>
        <time>2026-08-15T07:39:00.000Z</time>
      </trkpt>
      <trkpt lat="22.960709" lon="109.755464">
        <ele>79.051161</ele>
        <time>2026-08-15T07:39:01.000Z</time>
      </trkpt>
      <trkpt lat="22.960668" lon="109.755500">
        <ele>79.085162</ele>
        <time>2026-08-15T07:39:02.000Z</time>
      </trkpt>
      <trkpt lat="22.960628" lon="109.755542">
        <ele>79.121041</ele>
        <time>2026-08-15T07:39:03.000Z</time>
      </trkpt>
      <trkpt lat="22.960587" lon="109.755580">
        <ele>79.155800</ele>
        <time>2026-08-15T07:39:04.000Z</time>
      </trkpt>
      <trkpt lat="22.960547" lon="109.755617">
        <ele>79.189683</ele>
        <time>2026-08-15T07:39:05.000Z</time>
      </trkpt>
      <trkpt lat="22.960509" lon="109.755652">
        <ele>79.221814</ele>
        <time>2026-08-15T07:39:06.000Z</time>
      </trkpt>
      <trkpt lat="22.960470" lon="109.755690">
        <ele>79.255603</ele>
        <time>2026-08-15T07:39:07.000Z</time>
      </trkpt>
      <trkpt lat="22.960434" lon="109.755726">
        <ele>79.287161</ele>
        <time>2026-08-15T07:39:08.000Z</time>
      </trkpt>
      <trkpt lat="22.960397" lon="109.755761">
        <ele>79.318803</ele>
        <time>2026-08-15T07:39:09.000Z</time>
      </trkpt>
      <trkpt lat="22.960359" lon="109.755796">
        <ele>79.350934</ele>
        <time>2026-08-15T07:39:10.000Z</time>
      </trkpt>
      <trkpt lat="22.960322" lon="109.755830">
        <ele>79.382190</ele>
        <time>2026-08-15T07:39:11.000Z</time>
      </trkpt>
      <trkpt lat="22.960284" lon="109.755861">
        <ele>79.412838</ele>
        <time>2026-08-15T07:39:12.000Z</time>
      </trkpt>
      <trkpt lat="22.960249" lon="109.755891">
        <ele>79.441592</ele>
        <time>2026-08-15T07:39:13.000Z</time>
      </trkpt>
      <trkpt lat="22.960212" lon="109.755920">
        <ele>79.471017</ele>
        <time>2026-08-15T07:39:14.000Z</time>
      </trkpt>
      <trkpt lat="22.960176" lon="109.755950">
        <ele>79.500279</ele>
        <time>2026-08-15T07:39:15.000Z</time>
      </trkpt>
      <trkpt lat="22.960141" lon="109.755977">
        <ele>79.527964</ele>
        <time>2026-08-15T07:39:16.000Z</time>
      </trkpt>
      <trkpt lat="22.960108" lon="109.756008">
        <ele>79.556101</ele>
        <time>2026-08-15T07:39:17.000Z</time>
      </trkpt>
      <trkpt lat="22.960076" lon="109.756041">
        <ele>79.584558</ele>
        <time>2026-08-15T07:39:18.000Z</time>
      </trkpt>
      <trkpt lat="22.960041" lon="109.756074">
        <ele>79.614448</ele>
        <time>2026-08-15T07:39:19.000Z</time>
      </trkpt>
      <trkpt lat="22.960007" lon="109.756107">
        <ele>79.643854</ele>
        <time>2026-08-15T07:39:20.000Z</time>
      </trkpt>
      <trkpt lat="22.959972" lon="109.756138">
        <ele>79.672979</ele>
        <time>2026-08-15T07:39:21.000Z</time>
      </trkpt>
      <trkpt lat="22.959938" lon="109.756169">
        <ele>79.701607</ele>
        <time>2026-08-15T07:39:22.000Z</time>
      </trkpt>
      <trkpt lat="22.959904" lon="109.756198">
        <ele>79.729486</ele>
        <time>2026-08-15T07:39:23.000Z</time>
      </trkpt>
      <trkpt lat="22.959869" lon="109.756228">
        <ele>79.758240</ele>
        <time>2026-08-15T07:39:24.000Z</time>
      </trkpt>
      <trkpt lat="22.959834" lon="109.756258">
        <ele>79.757921</ele>
        <time>2026-08-15T07:39:25.000Z</time>
      </trkpt>
      <trkpt lat="22.959799" lon="109.756293">
        <ele>79.756526</ele>
        <time>2026-08-15T07:39:26.000Z</time>
      </trkpt>
      <trkpt lat="22.959763" lon="109.756327">
        <ele>79.755128</ele>
        <time>2026-08-15T07:39:27.000Z</time>
      </trkpt>
      <trkpt lat="22.959728" lon="109.756361">
        <ele>79.753751</ele>
        <time>2026-08-15T07:39:28.000Z</time>
      </trkpt>
      <trkpt lat="22.959693" lon="109.756395">
        <ele>79.752375</ele>
        <time>2026-08-15T07:39:29.000Z</time>
      </trkpt>
      <trkpt lat="22.959663" lon="109.756430">
        <ele>79.751084</ele>
        <time>2026-08-15T07:39:30.000Z</time>
      </trkpt>
      <trkpt lat="22.959633" lon="109.756464">
        <ele>79.749813</ele>
        <time>2026-08-15T07:39:31.000Z</time>
      </trkpt>
      <trkpt lat="22.959602" lon="109.756503">
        <ele>79.748422</ele>
        <time>2026-08-15T07:39:32.000Z</time>
      </trkpt>
      <trkpt lat="22.959573" lon="109.756546">
        <ele>79.746984</ele>
        <time>2026-08-15T07:39:33.000Z</time>
      </trkpt>
      <trkpt lat="22.959539" lon="109.756579">
        <ele>79.745647</ele>
        <time>2026-08-15T07:39:34.000Z</time>
      </trkpt>
      <trkpt lat="22.959508" lon="109.756620">
        <ele>79.744215</ele>
        <time>2026-08-15T07:39:35.000Z</time>
      </trkpt>
      <trkpt lat="22.959477" lon="109.756662">
        <ele>79.742762</ele>
        <time>2026-08-15T07:39:36.000Z</time>
      </trkpt>
      <trkpt lat="22.959449" lon="109.756708">
        <ele>79.741274</ele>
        <time>2026-08-15T07:39:37.000Z</time>
      </trkpt>
      <trkpt lat="22.959423" lon="109.756760">
        <ele>79.739677</ele>
        <time>2026-08-15T07:39:38.000Z</time>
      </trkpt>
      <trkpt lat="22.959397" lon="109.756812">
        <ele>79.738080</ele>
        <time>2026-08-15T07:39:39.000Z</time>
      </trkpt>
      <trkpt lat="22.959367" lon="109.756865">
        <ele>79.736400</ele>
        <time>2026-08-15T07:39:40.000Z</time>
      </trkpt>
      <trkpt lat="22.959338" lon="109.756915">
        <ele>79.734805</ele>
        <time>2026-08-15T07:39:41.000Z</time>
      </trkpt>
      <trkpt lat="22.959307" lon="109.756961">
        <ele>79.733267</ele>
        <time>2026-08-15T07:39:42.000Z</time>
      </trkpt>
      <trkpt lat="22.959274" lon="109.757005">
        <ele>79.731735</ele>
        <time>2026-08-15T07:39:43.000Z</time>
      </trkpt>
      <trkpt lat="22.959245" lon="109.757053">
        <ele>79.730185</ele>
        <time>2026-08-15T07:39:44.000Z</time>
      </trkpt>
      <trkpt lat="22.959214" lon="109.757099">
        <ele>79.728647</ele>
        <time>2026-08-15T07:39:45.000Z</time>
      </trkpt>
      <trkpt lat="22.959185" lon="109.757147">
        <ele>79.727097</ele>
        <time>2026-08-15T07:39:46.000Z</time>
      </trkpt>
      <trkpt lat="22.959158" lon="109.757194">
        <ele>79.725602</ele>
        <time>2026-08-15T07:39:47.000Z</time>
      </trkpt>
      <trkpt lat="22.959129" lon="109.757242">
        <ele>79.724052</ele>
        <time>2026-08-15T07:39:48.000Z</time>
      </trkpt>
      <trkpt lat="22.959098" lon="109.757289">
        <ele>79.722492</ele>
        <time>2026-08-15T07:39:49.000Z</time>
      </trkpt>
      <trkpt lat="22.959065" lon="109.757333">
        <ele>79.720960</ele>
        <time>2026-08-15T07:39:50.000Z</time>
      </trkpt>
      <trkpt lat="22.959036" lon="109.757381">
        <ele>79.719410</ele>
        <time>2026-08-15T07:39:51.000Z</time>
      </trkpt>
      <trkpt lat="22.959009" lon="109.757431">
        <ele>79.717846</ele>
        <time>2026-08-15T07:39:52.000Z</time>
      </trkpt>
      <trkpt lat="22.958981" lon="109.757481">
        <ele>79.716266</ele>
        <time>2026-08-15T07:39:53.000Z</time>
      </trkpt>
      <trkpt lat="22.958952" lon="109.757527">
        <ele>79.714761</ele>
        <time>2026-08-15T07:39:54.000Z</time>
      </trkpt>
      <trkpt lat="22.958924" lon="109.757576">
        <ele>79.713205</ele>
        <time>2026-08-15T07:39:55.000Z</time>
      </trkpt>
      <trkpt lat="22.958894" lon="109.757623">
        <ele>79.711661</ele>
        <time>2026-08-15T07:39:56.000Z</time>
      </trkpt>
      <trkpt lat="22.958864" lon="109.757672">
        <ele>79.710073</ele>
        <time>2026-08-15T07:39:57.000Z</time>
      </trkpt>
      <trkpt lat="22.958835" lon="109.757718">
        <ele>79.708568</ele>
        <time>2026-08-15T07:39:58.000Z</time>
      </trkpt>
      <trkpt lat="22.958808" lon="109.757765">
        <ele>79.707073</ele>
        <time>2026-08-15T07:39:59.000Z</time>
      </trkpt>
      <trkpt lat="22.958780" lon="109.757811">
        <ele>79.682561</ele>
        <time>2026-08-15T07:40:00.000Z</time>
      </trkpt>
      <trkpt lat="22.958750" lon="109.757855">
        <ele>79.642217</ele>
        <time>2026-08-15T07:40:01.000Z</time>
      </trkpt>
      <trkpt lat="22.958721" lon="109.757901">
        <ele>79.601136</ele>
        <time>2026-08-15T07:40:02.000Z</time>
      </trkpt>
      <trkpt lat="22.958695" lon="109.757945">
        <ele>79.562610</ele>
        <time>2026-08-15T07:40:03.000Z</time>
      </trkpt>
      <trkpt lat="22.958670" lon="109.757986">
        <ele>79.526374</ele>
        <time>2026-08-15T07:40:04.000Z</time>
      </trkpt>
      <trkpt lat="22.958645" lon="109.758025">
        <ele>79.491356</ele>
        <time>2026-08-15T07:40:05.000Z</time>
      </trkpt>
      <trkpt lat="22.958620" lon="109.758061">
        <ele>79.458129</ele>
        <time>2026-08-15T07:40:06.000Z</time>
      </trkpt>
      <trkpt lat="22.958599" lon="109.758096">
        <ele>79.427346</ele>
        <time>2026-08-15T07:40:07.000Z</time>
      </trkpt>
      <trkpt lat="22.958577" lon="109.758129">
        <ele>79.397324</ele>
        <time>2026-08-15T07:40:08.000Z</time>
      </trkpt>
      <trkpt lat="22.958555" lon="109.758161">
        <ele>79.367895</ele>
        <time>2026-08-15T07:40:09.000Z</time>
      </trkpt>
      <trkpt lat="22.958535" lon="109.758194">
        <ele>79.338783</ele>
        <time>2026-08-15T07:40:10.000Z</time>
      </trkpt>
      <trkpt lat="22.958518" lon="109.758226">
        <ele>79.311559</ele>
        <time>2026-08-15T07:40:11.000Z</time>
      </trkpt>
      <trkpt lat="22.958505" lon="109.758249">
        <ele>79.291672</ele>
        <time>2026-08-15T07:40:12.000Z</time>
      </trkpt>
      <trkpt lat="22.958499" lon="109.758254">
        <ele>79.285620</ele>
        <time>2026-08-15T07:40:13.000Z</time>
      </trkpt>
      <trkpt lat="22.958498" lon="109.758256">
        <ele>79.283943</ele>
        <time>2026-08-15T07:40:14.000Z</time>
      </trkpt>
      <trkpt lat="22.958486" lon="109.758402">
        <ele>79.175929</ele>
        <time>2026-08-15T07:46:45.000Z</time>
      </trkpt>
      <trkpt lat="22.958472" lon="109.758420">
        <ele>79.158566</ele>
        <time>2026-08-15T07:46:46.000Z</time>
      </trkpt>
      <trkpt lat="22.958458" lon="109.758439">
        <ele>79.140634</ele>
        <time>2026-08-15T07:46:47.000Z</time>
      </trkpt>
      <trkpt lat="22.958444" lon="109.758461">
        <ele>79.120927</ele>
        <time>2026-08-15T07:46:48.000Z</time>
      </trkpt>
      <trkpt lat="22.958427" lon="109.758484">
        <ele>79.099194</ele>
        <time>2026-08-15T07:46:49.000Z</time>
      </trkpt>
      <trkpt lat="22.958413" lon="109.758505">
        <ele>79.080089</ele>
        <time>2026-08-15T07:46:50.000Z</time>
      </trkpt>
      <trkpt lat="22.958394" lon="109.758532">
        <ele>79.055048</ele>
        <time>2026-08-15T07:46:51.000Z</time>
      </trkpt>
      <trkpt lat="22.958375" lon="109.758558">
        <ele>79.030588</ele>
        <time>2026-08-15T07:46:52.000Z</time>
      </trkpt>
      <trkpt lat="22.958359" lon="109.758588">
        <ele>79.005040</ele>
        <time>2026-08-15T07:46:53.000Z</time>
      </trkpt>
      <trkpt lat="22.958344" lon="109.758617">
        <ele>78.980530</ele>
        <time>2026-08-15T07:46:54.000Z</time>
      </trkpt>
      <trkpt lat="22.958331" lon="109.758650">
        <ele>78.954080</ele>
        <time>2026-08-15T07:46:55.000Z</time>
      </trkpt>
      <trkpt lat="22.958317" lon="109.758688">
        <ele>78.923920</ele>
        <time>2026-08-15T07:46:56.000Z</time>
      </trkpt>
      <trkpt lat="22.958308" lon="109.758724">
        <ele>78.896431</ele>
        <time>2026-08-15T07:46:57.000Z</time>
      </trkpt>
      <trkpt lat="22.958294" lon="109.758764">
        <ele>78.864898</ele>
        <time>2026-08-15T07:46:58.000Z</time>
      </trkpt>
      <trkpt lat="22.958272" lon="109.758804">
        <ele>78.830564</ele>
        <time>2026-08-15T07:46:59.000Z</time>
      </trkpt>
      <trkpt lat="22.958251" lon="109.758847">
        <ele>78.794697</ele>
        <time>2026-08-15T07:47:00.000Z</time>
      </trkpt>
      <trkpt lat="22.958236" lon="109.758894">
        <ele>78.758041</ele>
        <time>2026-08-15T07:47:01.000Z</time>
      </trkpt>
      <trkpt lat="22.958216" lon="109.758936">
        <ele>78.723198</ele>
        <time>2026-08-15T07:47:02.000Z</time>
      </trkpt>
      <trkpt lat="22.958196" lon="109.758976">
        <ele>78.689657</ele>
        <time>2026-08-15T07:47:03.000Z</time>
      </trkpt>
      <trkpt lat="22.958173" lon="109.759017">
        <ele>78.654279</ele>
        <time>2026-08-15T07:47:04.000Z</time>
      </trkpt>
      <trkpt lat="22.958148" lon="109.759057">
        <ele>78.618654</ele>
        <time>2026-08-15T07:47:05.000Z</time>
      </trkpt>
      <trkpt lat="22.958132" lon="109.759099">
        <ele>78.585160</ele>
        <time>2026-08-15T07:47:06.000Z</time>
      </trkpt>
      <trkpt lat="22.958114" lon="109.759140">
        <ele>78.551689</ele>
        <time>2026-08-15T07:47:07.000Z</time>
      </trkpt>
      <trkpt lat="22.958093" lon="109.759183">
        <ele>78.515822</ele>
        <time>2026-08-15T07:47:08.000Z</time>
      </trkpt>
      <trkpt lat="22.958068" lon="109.759233">
        <ele>78.473895</ele>
        <time>2026-08-15T07:47:09.000Z</time>
      </trkpt>
      <trkpt lat="22.958047" lon="109.759281">
        <ele>78.434735</ele>
        <time>2026-08-15T07:47:10.000Z</time>
      </trkpt>
      <trkpt lat="22.958023" lon="109.759328">
        <ele>78.395131</ele>
        <time>2026-08-15T07:47:11.000Z</time>
      </trkpt>
      <trkpt lat="22.958003" lon="109.759378">
        <ele>78.354960</ele>
        <time>2026-08-15T07:47:12.000Z</time>
      </trkpt>
      <trkpt lat="22.957984" lon="109.759420">
        <ele>78.320477</ele>
        <time>2026-08-15T07:47:13.000Z</time>
      </trkpt>
      <trkpt lat="22.957970" lon="109.759466">
        <ele>78.284776</ele>
        <time>2026-08-15T07:47:14.000Z</time>
      </trkpt>
      <trkpt lat="22.957950" lon="109.759513">
        <ele>78.272777</ele>
        <time>2026-08-15T07:47:15.000Z</time>
      </trkpt>
      <trkpt lat="22.957931" lon="109.759561">
        <ele>78.283617</ele>
        <time>2026-08-15T07:47:16.000Z</time>
      </trkpt>
      <trkpt lat="22.957911" lon="109.759603">
        <ele>78.293428</ele>
        <time>2026-08-15T07:47:17.000Z</time>
      </trkpt>
      <trkpt lat="22.957893" lon="109.759647">
        <ele>78.303419</ele>
        <time>2026-08-15T07:47:18.000Z</time>
      </trkpt>
      <trkpt lat="22.957882" lon="109.759696">
        <ele>78.313883</ele>
        <time>2026-08-15T07:47:19.000Z</time>
      </trkpt>
      <trkpt lat="22.957867" lon="109.759744">
        <ele>78.324401</ele>
        <time>2026-08-15T07:47:20.000Z</time>
      </trkpt>
      <trkpt lat="22.957855" lon="109.759801">
        <ele>78.336533</ele>
        <time>2026-08-15T07:47:21.000Z</time>
      </trkpt>
      <trkpt lat="22.957838" lon="109.759855">
        <ele>78.348374</ele>
        <time>2026-08-15T07:47:22.000Z</time>
      </trkpt>
      <trkpt lat="22.957825" lon="109.759904">
        <ele>78.358955</ele>
        <time>2026-08-15T07:47:23.000Z</time>
      </trkpt>
      <trkpt lat="22.957816" lon="109.759955">
        <ele>78.369730</ele>
        <time>2026-08-15T07:47:24.000Z</time>
      </trkpt>
      <trkpt lat="22.957809" lon="109.760005">
        <ele>78.380223</ele>
        <time>2026-08-15T07:47:25.000Z</time>
      </trkpt>
      <trkpt lat="22.957804" lon="109.760055">
        <ele>78.390659</ele>
        <time>2026-08-15T07:47:26.000Z</time>
      </trkpt>
      <trkpt lat="22.957797" lon="109.760102">
        <ele>78.400538</ele>
        <time>2026-08-15T07:47:27.000Z</time>
      </trkpt>
      <trkpt lat="22.957789" lon="109.760147">
        <ele>78.410047</ele>
        <time>2026-08-15T07:47:28.000Z</time>
      </trkpt>
      <trkpt lat="22.957786" lon="109.760195">
        <ele>78.420030</ele>
        <time>2026-08-15T07:47:29.000Z</time>
      </trkpt>
      <trkpt lat="22.957779" lon="109.760237">
        <ele>78.428886</ele>
        <time>2026-08-15T07:47:30.000Z</time>
      </trkpt>
      <trkpt lat="22.957772" lon="109.760282">
        <ele>78.438355</ele>
        <time>2026-08-15T07:47:31.000Z</time>
      </trkpt>
      <trkpt lat="22.957762" lon="109.760326">
        <ele>78.447759</ele>
        <time>2026-08-15T07:47:32.000Z</time>
      </trkpt>
      <trkpt lat="22.957756" lon="109.760371">
        <ele>78.457194</ele>
        <time>2026-08-15T07:47:33.000Z</time>
      </trkpt>
      <trkpt lat="22.957746" lon="109.760419">
        <ele>78.467405</ele>
        <time>2026-08-15T07:47:34.000Z</time>
      </trkpt>
      <trkpt lat="22.957736" lon="109.760464">
        <ele>78.477010</ele>
        <time>2026-08-15T07:47:35.000Z</time>
      </trkpt>
      <trkpt lat="22.957731" lon="109.760511">
        <ele>78.486827</ele>
        <time>2026-08-15T07:47:36.000Z</time>
      </trkpt>
      <trkpt lat="22.957723" lon="109.760554">
        <ele>78.495929</ele>
        <time>2026-08-15T07:47:37.000Z</time>
      </trkpt>
      <trkpt lat="22.957708" lon="109.760594">
        <ele>78.504891</ele>
        <time>2026-08-15T07:47:38.000Z</time>
      </trkpt>
      <trkpt lat="22.957692" lon="109.760637">
        <ele>78.514514</ele>
        <time>2026-08-15T07:47:39.000Z</time>
      </trkpt>
      <trkpt lat="22.957680" lon="109.760679">
        <ele>78.523638</ele>
        <time>2026-08-15T07:47:40.000Z</time>
      </trkpt>
      <trkpt lat="22.957671" lon="109.760724">
        <ele>78.533193</ele>
        <time>2026-08-15T07:47:41.000Z</time>
      </trkpt>
      <trkpt lat="22.957663" lon="109.760766">
        <ele>78.542092</ele>
        <time>2026-08-15T07:47:42.000Z</time>
      </trkpt>
      <trkpt lat="22.957653" lon="109.760811">
        <ele>78.551698</ele>
        <time>2026-08-15T07:47:43.000Z</time>
      </trkpt>
      <trkpt lat="22.957645" lon="109.760857">
        <ele>78.561411</ele>
        <time>2026-08-15T07:47:44.000Z</time>
      </trkpt>
      <trkpt lat="22.957635" lon="109.760904">
        <ele>78.571420</ele>
        <time>2026-08-15T07:47:45.000Z</time>
      </trkpt>
      <trkpt lat="22.957626" lon="109.760950">
        <ele>78.581178</ele>
        <time>2026-08-15T07:47:46.000Z</time>
      </trkpt>
      <trkpt lat="22.957618" lon="109.760996">
        <ele>78.590891</ele>
        <time>2026-08-15T07:47:47.000Z</time>
      </trkpt>
      <trkpt lat="22.957607" lon="109.761043">
        <ele>78.600953</ele>
        <time>2026-08-15T07:47:48.000Z</time>
      </trkpt>
      <trkpt lat="22.957594" lon="109.761090">
        <ele>78.611136</ele>
        <time>2026-08-15T07:47:49.000Z</time>
      </trkpt>
      <trkpt lat="22.957578" lon="109.761135">
        <ele>78.621145</ele>
        <time>2026-08-15T07:47:50.000Z</time>
      </trkpt>
      <trkpt lat="22.957565" lon="109.761181">
        <ele>78.631129</ele>
        <time>2026-08-15T07:47:51.000Z</time>
      </trkpt>
      <trkpt lat="22.957554" lon="109.761226">
        <ele>78.640789</ele>
        <time>2026-08-15T07:47:52.000Z</time>
      </trkpt>
      <trkpt lat="22.957547" lon="109.761275">
        <ele>78.651078</ele>
        <time>2026-08-15T07:47:53.000Z</time>
      </trkpt>
      <trkpt lat="22.957540" lon="109.761324">
        <ele>78.661367</ele>
        <time>2026-08-15T07:47:54.000Z</time>
      </trkpt>
      <trkpt lat="22.957532" lon="109.761369">
        <ele>78.670876</ele>
        <time>2026-08-15T07:47:55.000Z</time>
      </trkpt>
      <trkpt lat="22.957523" lon="109.761414">
        <ele>78.683916</ele>
        <time>2026-08-15T07:47:56.000Z</time>
      </trkpt>
      <trkpt lat="22.957515" lon="109.761458">
        <ele>78.697229</ele>
        <time>2026-08-15T07:47:57.000Z</time>
      </trkpt>
      <trkpt lat="22.957508" lon="109.761503">
        <ele>78.710775</ele>
        <time>2026-08-15T07:47:58.000Z</time>
      </trkpt>
      <trkpt lat="22.957498" lon="109.761550">
        <ele>78.725093</ele>
        <time>2026-08-15T07:47:59.000Z</time>
      </trkpt>
      <trkpt lat="22.957489" lon="109.761597">
        <ele>78.739343</ele>
        <time>2026-08-15T07:48:00.000Z</time>
      </trkpt>
      <trkpt lat="22.957478" lon="109.761647">
        <ele>78.754602</ele>
        <time>2026-08-15T07:48:01.000Z</time>
      </trkpt>
      <trkpt lat="22.957465" lon="109.761695">
        <ele>78.769453</ele>
        <time>2026-08-15T07:48:02.000Z</time>
      </trkpt>
      <trkpt lat="22.957451" lon="109.761744">
        <ele>78.784681</ele>
        <time>2026-08-15T07:48:03.000Z</time>
      </trkpt>
      <trkpt lat="22.957436" lon="109.761793">
        <ele>78.800008</ele>
        <time>2026-08-15T07:48:04.000Z</time>
      </trkpt>
      <trkpt lat="22.957423" lon="109.761842">
        <ele>78.815144</ele>
        <time>2026-08-15T07:48:05.000Z</time>
      </trkpt>
      <trkpt lat="22.957411" lon="109.761892">
        <ele>78.830481</ele>
        <time>2026-08-15T07:48:06.000Z</time>
      </trkpt>
      <trkpt lat="22.957397" lon="109.761939">
        <ele>78.845144</ele>
        <time>2026-08-15T07:48:07.000Z</time>
      </trkpt>
      <trkpt lat="22.957383" lon="109.761988">
        <ele>78.860372</ele>
        <time>2026-08-15T07:48:08.000Z</time>
      </trkpt>
      <trkpt lat="22.957369" lon="109.762038">
        <ele>78.875884</ele>
        <time>2026-08-15T07:48:09.000Z</time>
      </trkpt>
      <trkpt lat="22.957353" lon="109.762088">
        <ele>78.891596</ele>
        <time>2026-08-15T07:48:10.000Z</time>
      </trkpt>
      <trkpt lat="22.957337" lon="109.762138">
        <ele>78.907308</ele>
        <time>2026-08-15T07:48:11.000Z</time>
      </trkpt>
      <trkpt lat="22.957320" lon="109.762184">
        <ele>78.922021</ele>
        <time>2026-08-15T07:48:12.000Z</time>
      </trkpt>
      <trkpt lat="22.957298" lon="109.762228">
        <ele>78.936882</ele>
        <time>2026-08-15T07:48:13.000Z</time>
      </trkpt>
      <trkpt lat="22.957275" lon="109.762274">
        <ele>78.952419</ele>
        <time>2026-08-15T07:48:14.000Z</time>
      </trkpt>
      <trkpt lat="22.957259" lon="109.762321">
        <ele>78.967293</ele>
        <time>2026-08-15T07:48:15.000Z</time>
      </trkpt>
      <trkpt lat="22.957239" lon="109.762365">
        <ele>78.981858</ele>
        <time>2026-08-15T07:48:16.000Z</time>
      </trkpt>
      <trkpt lat="22.957220" lon="109.762410">
        <ele>78.996552</ele>
        <time>2026-08-15T07:48:17.000Z</time>
      </trkpt>
      <trkpt lat="22.957203" lon="109.762456">
        <ele>79.011265</ele>
        <time>2026-08-15T07:48:18.000Z</time>
      </trkpt>
      <trkpt lat="22.957184" lon="109.762500">
        <ele>79.025690</ele>
        <time>2026-08-15T07:48:19.000Z</time>
      </trkpt>
      <trkpt lat="22.957164" lon="109.762543">
        <ele>79.039989</ele>
        <time>2026-08-15T07:48:20.000Z</time>
      </trkpt>
      <trkpt lat="22.957142" lon="109.762586">
        <ele>79.054591</ele>
        <time>2026-08-15T07:48:21.000Z</time>
      </trkpt>
      <trkpt lat="22.957123" lon="109.762630">
        <ele>79.069016</ele>
        <time>2026-08-15T07:48:22.000Z</time>
      </trkpt>
      <trkpt lat="22.957102" lon="109.762673">
        <ele>79.083463</ele>
        <time>2026-08-15T07:48:23.000Z</time>
      </trkpt>
      <trkpt lat="22.957077" lon="109.762710">
        <ele>79.097085</ele>
        <time>2026-08-15T07:48:24.000Z</time>
      </trkpt>
      <trkpt lat="22.957054" lon="109.762750">
        <ele>79.111083</ele>
        <time>2026-08-15T07:48:25.000Z</time>
      </trkpt>
      <trkpt lat="22.957033" lon="109.762790">
        <ele>79.124750</ele>
        <time>2026-08-15T07:48:26.000Z</time>
      </trkpt>
      <trkpt lat="22.957009" lon="109.762830">
        <ele>79.138922</ele>
        <time>2026-08-15T07:48:27.000Z</time>
      </trkpt>
      <trkpt lat="22.956980" lon="109.762866">
        <ele>79.153119</ele>
        <time>2026-08-15T07:48:28.000Z</time>
      </trkpt>
      <trkpt lat="22.956955" lon="109.762905">
        <ele>79.167224</ele>
        <time>2026-08-15T07:48:29.000Z</time>
      </trkpt>
      <trkpt lat="22.956935" lon="109.762947">
        <ele>79.181259</ele>
        <time>2026-08-15T07:48:30.000Z</time>
      </trkpt>
      <trkpt lat="22.956913" lon="109.762990">
        <ele>79.195861</ele>
        <time>2026-08-15T07:48:31.000Z</time>
      </trkpt>
      <trkpt lat="22.956891" lon="109.763034">
        <ele>79.210722</ele>
        <time>2026-08-15T07:48:32.000Z</time>
      </trkpt>
      <trkpt lat="22.956871" lon="109.763077">
        <ele>79.225022</ele>
        <time>2026-08-15T07:48:33.000Z</time>
      </trkpt>
      <trkpt lat="22.956847" lon="109.763119">
        <ele>79.239694</ele>
        <time>2026-08-15T07:48:34.000Z</time>
      </trkpt>
      <trkpt lat="22.956824" lon="109.763160">
        <ele>79.248241</ele>
        <time>2026-08-15T07:48:35.000Z</time>
      </trkpt>
      <trkpt lat="22.956805" lon="109.763204">
        <ele>79.217083</ele>
        <time>2026-08-15T07:48:36.000Z</time>
      </trkpt>
      <trkpt lat="22.956783" lon="109.763247">
        <ele>79.185544</ele>
        <time>2026-08-15T07:48:37.000Z</time>
      </trkpt>
      <trkpt lat="22.956760" lon="109.763288">
        <ele>79.154764</ele>
        <time>2026-08-15T07:48:38.000Z</time>
      </trkpt>
      <trkpt lat="22.956741" lon="109.763327">
        <ele>79.126475</ele>
        <time>2026-08-15T07:48:39.000Z</time>
      </trkpt>
      <trkpt lat="22.956721" lon="109.763369">
        <ele>79.096160</ele>
        <time>2026-08-15T07:48:40.000Z</time>
      </trkpt>
      <trkpt lat="22.956701" lon="109.763413">
        <ele>79.064700</ele>
        <time>2026-08-15T07:48:41.000Z</time>
      </trkpt>
      <trkpt lat="22.956679" lon="109.763456">
        <ele>79.033161</ele>
        <time>2026-08-15T07:48:42.000Z</time>
      </trkpt>
      <trkpt lat="22.956656" lon="109.763498">
        <ele>79.001831</ele>
        <time>2026-08-15T07:48:43.000Z</time>
      </trkpt>
      <trkpt lat="22.956635" lon="109.763538">
        <ele>78.972310</ele>
        <time>2026-08-15T07:48:44.000Z</time>
      </trkpt>
      <trkpt lat="22.956610" lon="109.763576">
        <ele>78.942367</ele>
        <time>2026-08-15T07:48:45.000Z</time>
      </trkpt>
      <trkpt lat="22.956586" lon="109.763615">
        <ele>78.912293</ele>
        <time>2026-08-15T07:48:46.000Z</time>
      </trkpt>
      <trkpt lat="22.956561" lon="109.763650">
        <ele>78.883893</ele>
        <time>2026-08-15T07:48:47.000Z</time>
      </trkpt>
      <trkpt lat="22.956538" lon="109.763686">
        <ele>78.855800</ele>
        <time>2026-08-15T07:48:48.000Z</time>
      </trkpt>
      <trkpt lat="22.956515" lon="109.763723">
        <ele>78.827179</ele>
        <time>2026-08-15T07:48:49.000Z</time>
      </trkpt>
      <trkpt lat="22.956492" lon="109.763759">
        <ele>78.799086</ele>
        <time>2026-08-15T07:48:50.000Z</time>
      </trkpt>
      <trkpt lat="22.956468" lon="109.763794">
        <ele>78.771108</ele>
        <time>2026-08-15T07:48:51.000Z</time>
      </trkpt>
      <trkpt lat="22.956441" lon="109.763827">
        <ele>78.742804</ele>
        <time>2026-08-15T07:48:52.000Z</time>
      </trkpt>
      <trkpt lat="22.956414" lon="109.763859">
        <ele>78.714977</ele>
        <time>2026-08-15T07:48:53.000Z</time>
      </trkpt>
      <trkpt lat="22.956386" lon="109.763890">
        <ele>78.687136</ele>
        <time>2026-08-15T07:48:54.000Z</time>
      </trkpt>
      <trkpt lat="22.956361" lon="109.763919">
        <ele>78.661667</ele>
        <time>2026-08-15T07:48:55.000Z</time>
      </trkpt>
      <trkpt lat="22.956335" lon="109.763946">
        <ele>78.636619</ele>
        <time>2026-08-15T07:48:56.000Z</time>
      </trkpt>
      <trkpt lat="22.956305" lon="109.763980">
        <ele>78.606428</ele>
        <time>2026-08-15T07:48:57.000Z</time>
      </trkpt>
      <trkpt lat="22.956273" lon="109.764015">
        <ele>78.574805</ele>
        <time>2026-08-15T07:48:58.000Z</time>
      </trkpt>
      <trkpt lat="22.956243" lon="109.764052">
        <ele>78.543197</ele>
        <time>2026-08-15T07:48:59.000Z</time>
      </trkpt>
      <trkpt lat="22.956214" lon="109.764089">
        <ele>78.512045</ele>
        <time>2026-08-15T07:49:00.000Z</time>
      </trkpt>
      <trkpt lat="22.956184" lon="109.764127">
        <ele>78.479953</ele>
        <time>2026-08-15T07:49:01.000Z</time>
      </trkpt>
      <trkpt lat="22.956150" lon="109.764161">
        <ele>78.447771</ele>
        <time>2026-08-15T07:49:02.000Z</time>
      </trkpt>
      <trkpt lat="22.956114" lon="109.764197">
        <ele>78.413697</ele>
        <time>2026-08-15T07:49:03.000Z</time>
      </trkpt>
      <trkpt lat="22.956079" lon="109.764237">
        <ele>78.378319</ele>
        <time>2026-08-15T07:49:04.000Z</time>
      </trkpt>
      <trkpt lat="22.956044" lon="109.764279">
        <ele>78.342001</ele>
        <time>2026-08-15T07:49:05.000Z</time>
      </trkpt>
      <trkpt lat="22.956007" lon="109.764322">
        <ele>78.304269</ele>
        <time>2026-08-15T07:49:06.000Z</time>
      </trkpt>
      <trkpt lat="22.955970" lon="109.764368">
        <ele>78.265109</ele>
        <time>2026-08-15T07:49:07.000Z</time>
      </trkpt>
      <trkpt lat="22.955928" lon="109.764412">
        <ele>78.224476</ele>
        <time>2026-08-15T07:49:08.000Z</time>
      </trkpt>
      <trkpt lat="22.955883" lon="109.764450">
        <ele>78.184786</ele>
        <time>2026-08-15T07:49:09.000Z</time>
      </trkpt>
      <trkpt lat="22.955839" lon="109.764493">
        <ele>78.143571</ele>
        <time>2026-08-15T07:49:10.000Z</time>
      </trkpt>
      <trkpt lat="22.955795" lon="109.764539">
        <ele>78.101046</ele>
        <time>2026-08-15T07:49:11.000Z</time>
      </trkpt>
      <trkpt lat="22.955752" lon="109.764581">
        <ele>78.060778</ele>
        <time>2026-08-15T07:49:12.000Z</time>
      </trkpt>
      <trkpt lat="22.955707" lon="109.764624">
        <ele>78.019043</ele>
        <time>2026-08-15T07:49:13.000Z</time>
      </trkpt>
      <trkpt lat="22.955665" lon="109.764668">
        <ele>78.043027</ele>
        <time>2026-08-15T07:49:14.000Z</time>
      </trkpt>
      <trkpt lat="22.955622" lon="109.764710">
        <ele>78.124547</ele>
        <time>2026-08-15T07:49:15.000Z</time>
      </trkpt>
      <trkpt lat="22.955581" lon="109.764753">
        <ele>78.204888</ele>
        <time>2026-08-15T07:49:16.000Z</time>
      </trkpt>
      <trkpt lat="22.955538" lon="109.764788">
        <ele>78.280634</ele>
        <time>2026-08-15T07:49:17.000Z</time>
      </trkpt>
      <trkpt lat="22.955491" lon="109.764825">
        <ele>78.362458</ele>
        <time>2026-08-15T07:49:18.000Z</time>
      </trkpt>
      <trkpt lat="22.955447" lon="109.764866">
        <ele>78.444180</ele>
        <time>2026-08-15T07:49:19.000Z</time>
      </trkpt>
      <trkpt lat="22.955401" lon="109.764908">
        <ele>78.528891</ele>
        <time>2026-08-15T07:49:20.000Z</time>
      </trkpt>
      <trkpt lat="22.955355" lon="109.764946">
        <ele>78.610357</ele>
        <time>2026-08-15T07:49:21.000Z</time>
      </trkpt>
      <trkpt lat="22.955308" lon="109.764982">
        <ele>78.691427</ele>
        <time>2026-08-15T07:49:22.000Z</time>
      </trkpt>
      <trkpt lat="22.955265" lon="109.765019">
        <ele>78.768757</ele>
        <time>2026-08-15T07:49:23.000Z</time>
      </trkpt>
      <trkpt lat="22.955219" lon="109.765059">
        <ele>78.851821</ele>
        <time>2026-08-15T07:49:24.000Z</time>
      </trkpt>
      <trkpt lat="22.955176" lon="109.765094">
        <ele>78.927567</ele>
        <time>2026-08-15T07:49:25.000Z</time>
      </trkpt>
      <trkpt lat="22.955133" lon="109.765126">
        <ele>79.001043</ele>
        <time>2026-08-15T07:49:26.000Z</time>
      </trkpt>
      <trkpt lat="22.955091" lon="109.765156">
        <ele>79.071902</ele>
        <time>2026-08-15T07:49:27.000Z</time>
      </trkpt>
      <trkpt lat="22.955053" lon="109.765189">
        <ele>79.140485</ele>
        <time>2026-08-15T07:49:28.000Z</time>
      </trkpt>
      <trkpt lat="22.955019" lon="109.765223">
        <ele>79.205633</ele>
        <time>2026-08-15T07:49:29.000Z</time>
      </trkpt>
      <trkpt lat="22.954985" lon="109.765255">
        <ele>79.269052</ele>
        <time>2026-08-15T07:49:30.000Z</time>
      </trkpt>
      <trkpt lat="22.954950" lon="109.765284">
        <ele>79.331105</ele>
        <time>2026-08-15T07:49:31.000Z</time>
      </trkpt>
      <trkpt lat="22.954913" lon="109.765310">
        <ele>79.393225</ele>
        <time>2026-08-15T07:49:32.000Z</time>
      </trkpt>
      <trkpt lat="22.954882" lon="109.765339">
        <ele>79.450898</ele>
        <time>2026-08-15T07:49:33.000Z</time>
      </trkpt>
      <trkpt lat="22.954853" lon="109.765367">
        <ele>79.505594</ele>
        <time>2026-08-15T07:49:34.000Z</time>
      </trkpt>
      <trkpt lat="22.954826" lon="109.765399">
        <ele>79.561928</ele>
        <time>2026-08-15T07:49:35.000Z</time>
      </trkpt>
      <trkpt lat="22.954800" lon="109.765432">
        <ele>79.618299</ele>
        <time>2026-08-15T07:49:36.000Z</time>
      </trkpt>
      <trkpt lat="22.954780" lon="109.765468">
        <ele>79.672871</ele>
        <time>2026-08-15T07:49:37.000Z</time>
      </trkpt>
      <trkpt lat="22.954754" lon="109.765497">
        <ele>79.725406</ele>
        <time>2026-08-15T07:49:38.000Z</time>
      </trkpt>
      <trkpt lat="22.954733" lon="109.765531">
        <ele>79.778544</ele>
        <time>2026-08-15T07:49:39.000Z</time>
      </trkpt>
      <trkpt lat="22.954707" lon="109.765558">
        <ele>79.829251</ele>
        <time>2026-08-15T07:49:40.000Z</time>
      </trkpt>
      <trkpt lat="22.954678" lon="109.765584">
        <ele>79.882259</ele>
        <time>2026-08-15T07:49:41.000Z</time>
      </trkpt>
      <trkpt lat="22.954648" lon="109.765611">
        <ele>79.937179</ele>
        <time>2026-08-15T07:49:42.000Z</time>
      </trkpt>
      <trkpt lat="22.954617" lon="109.765635">
        <ele>79.990843</ele>
        <time>2026-08-15T07:49:43.000Z</time>
      </trkpt>
      <trkpt lat="22.954589" lon="109.765661">
        <ele>80.042771</ele>
        <time>2026-08-15T07:49:44.000Z</time>
      </trkpt>
      <trkpt lat="22.954558" lon="109.765688">
        <ele>80.098784</ele>
        <time>2026-08-15T07:49:45.000Z</time>
      </trkpt>
      <trkpt lat="22.954528" lon="109.765712">
        <ele>80.151306</ele>
        <time>2026-08-15T07:49:46.000Z</time>
      </trkpt>
      <trkpt lat="22.954502" lon="109.765734">
        <ele>80.197765</ele>
        <time>2026-08-15T07:49:47.000Z</time>
      </trkpt>
      <trkpt lat="22.954475" lon="109.765752">
        <ele>80.242422</ele>
        <time>2026-08-15T07:49:48.000Z</time>
      </trkpt>
      <trkpt lat="22.954456" lon="109.765774">
        <ele>80.281571</ele>
        <time>2026-08-15T07:49:49.000Z</time>
      </trkpt>
      <trkpt lat="22.954434" lon="109.765791">
        <ele>80.319631</ele>
        <time>2026-08-15T07:49:50.000Z</time>
      </trkpt>
      <trkpt lat="22.954405" lon="109.765806">
        <ele>80.364907</ele>
        <time>2026-08-15T07:49:51.000Z</time>
      </trkpt>
      <trkpt lat="22.954382" lon="109.765821">
        <ele>80.402724</ele>
        <time>2026-08-15T07:49:52.000Z</time>
      </trkpt>
      <trkpt lat="22.954361" lon="109.765836">
        <ele>80.438154</ele>
        <time>2026-08-15T07:49:53.000Z</time>
      </trkpt>
      <trkpt lat="22.954340" lon="109.765851">
        <ele>80.473583</ele>
        <time>2026-08-15T07:49:54.000Z</time>
      </trkpt>
      <trkpt lat="22.954319" lon="109.765864">
        <ele>80.507655</ele>
        <time>2026-08-15T07:49:55.000Z</time>
      </trkpt>
      <trkpt lat="22.954295" lon="109.765878">
        <ele>80.544261</ele>
        <time>2026-08-15T07:49:56.000Z</time>
      </trkpt>
      <trkpt lat="22.954275" lon="109.765892">
        <ele>80.572321</ele>
        <time>2026-08-15T07:49:57.000Z</time>
      </trkpt>
      <trkpt lat="22.954258" lon="109.765908">
        <ele>80.598849</ele>
        <time>2026-08-15T07:49:58.000Z</time>
      </trkpt>
      <trkpt lat="22.954236" lon="109.765924">
        <ele>80.630073</ele>
        <time>2026-08-15T07:49:59.000Z</time>
      </trkpt>
      <trkpt lat="22.954216" lon="109.765939">
        <ele>80.658735</ele>
        <time>2026-08-15T07:50:00.000Z</time>
      </trkpt>
      <trkpt lat="22.954199" lon="109.765950">
        <ele>80.682071</ele>
        <time>2026-08-15T07:50:01.000Z</time>
      </trkpt>
      <trkpt lat="22.954178" lon="109.765963">
        <ele>80.710576</ele>
        <time>2026-08-15T07:50:02.000Z</time>
      </trkpt>
      <trkpt lat="22.954152" lon="109.765975">
        <ele>80.743890</ele>
        <time>2026-08-15T07:50:03.000Z</time>
      </trkpt>
      <trkpt lat="22.954131" lon="109.765990">
        <ele>80.773531</ele>
        <time>2026-08-15T07:50:04.000Z</time>
      </trkpt>
      <trkpt lat="22.954111" lon="109.766005">
        <ele>80.802193</ele>
        <time>2026-08-15T07:50:05.000Z</time>
      </trkpt>
      <trkpt lat="22.954087" lon="109.766020">
        <ele>80.834847</ele>
        <time>2026-08-15T07:50:06.000Z</time>
      </trkpt>
      <trkpt lat="22.954059" lon="109.766035">
        <ele>80.871665</ele>
        <time>2026-08-15T07:50:07.000Z</time>
      </trkpt>
      <trkpt lat="22.954033" lon="109.766052">
        <ele>80.907454</ele>
        <time>2026-08-15T07:50:08.000Z</time>
      </trkpt>
      <trkpt lat="22.954008" lon="109.766067">
        <ele>80.941135</ele>
        <time>2026-08-15T07:50:09.000Z</time>
      </trkpt>
      <trkpt lat="22.953986" lon="109.766083">
        <ele>80.972358</ele>
        <time>2026-08-15T07:50:10.000Z</time>
      </trkpt>
      <trkpt lat="22.953964" lon="109.766101">
        <ele>81.004840</ele>
        <time>2026-08-15T07:50:11.000Z</time>
      </trkpt>
      <trkpt lat="22.953939" lon="109.766117">
        <ele>81.039060</ele>
        <time>2026-08-15T07:50:12.000Z</time>
      </trkpt>
      <trkpt lat="22.953914" lon="109.766133">
        <ele>81.073280</ele>
        <time>2026-08-15T07:50:13.000Z</time>
      </trkpt>
      <trkpt lat="22.953890" lon="109.766150">
        <ele>81.107070</ele>
        <time>2026-08-15T07:50:14.000Z</time>
      </trkpt>
      <trkpt lat="22.953865" lon="109.766168">
        <ele>81.142441</ele>
        <time>2026-08-15T07:50:15.000Z</time>
      </trkpt>
      <trkpt lat="22.953840" lon="109.766186">
        <ele>81.177813</ele>
        <time>2026-08-15T07:50:16.000Z</time>
      </trkpt>
      <trkpt lat="22.953813" lon="109.766203">
        <ele>81.214617</ele>
        <time>2026-08-15T07:50:17.000Z</time>
      </trkpt>
      <trkpt lat="22.953786" lon="109.766219">
        <ele>81.250888</ele>
        <time>2026-08-15T07:50:18.000Z</time>
      </trkpt>
      <trkpt lat="22.953755" lon="109.766234">
        <ele>81.290909</ele>
        <time>2026-08-15T07:50:19.000Z</time>
      </trkpt>
      <trkpt lat="22.953727" lon="109.766251">
        <ele>81.328738</ele>
        <time>2026-08-15T07:50:20.000Z</time>
      </trkpt>
      <trkpt lat="22.953699" lon="109.766269">
        <ele>81.367108</ele>
        <time>2026-08-15T07:50:21.000Z</time>
      </trkpt>
      <trkpt lat="22.953670" lon="109.766285">
        <ele>81.405466</ele>
        <time>2026-08-15T07:50:22.000Z</time>
      </trkpt>
      <trkpt lat="22.953642" lon="109.766301">
        <ele>81.442777</ele>
        <time>2026-08-15T07:50:23.000Z</time>
      </trkpt>
      <trkpt lat="22.953614" lon="109.766319">
        <ele>81.481147</ele>
        <time>2026-08-15T07:50:24.000Z</time>
      </trkpt>
      <trkpt lat="22.953578" lon="109.766338">
        <ele>81.528348</ele>
        <time>2026-08-15T07:50:25.000Z</time>
      </trkpt>
      <trkpt lat="22.953543" lon="109.766359">
        <ele>81.575502</ele>
        <time>2026-08-15T07:50:26.000Z</time>
      </trkpt>
      <trkpt lat="22.953508" lon="109.766382">
        <ele>81.623743</ele>
        <time>2026-08-15T07:50:27.000Z</time>
      </trkpt>
      <trkpt lat="22.953471" lon="109.766401">
        <ele>81.672007</ele>
        <time>2026-08-15T07:50:28.000Z</time>
      </trkpt>
      <trkpt lat="22.953432" lon="109.766420">
        <ele>81.722413</ele>
        <time>2026-08-15T07:50:29.000Z</time>
      </trkpt>
      <trkpt lat="22.953393" lon="109.766438">
        <ele>81.772385</ele>
        <time>2026-08-15T07:50:30.000Z</time>
      </trkpt>
      <trkpt lat="22.953353" lon="109.766457">
        <ele>81.823869</ele>
        <time>2026-08-15T07:50:31.000Z</time>
      </trkpt>
      <trkpt lat="22.953310" lon="109.766472">
        <ele>81.877128</ele>
        <time>2026-08-15T07:50:32.000Z</time>
      </trkpt>
      <trkpt lat="22.953268" lon="109.766490">
        <ele>81.930374</ele>
        <time>2026-08-15T07:50:33.000Z</time>
      </trkpt>
      <trkpt lat="22.953224" lon="109.766513">
        <ele>81.987958</ele>
        <time>2026-08-15T07:50:34.000Z</time>
      </trkpt>
      <trkpt lat="22.953182" lon="109.766541">
        <ele>82.046074</ele>
        <time>2026-08-15T07:50:35.000Z</time>
      </trkpt>
      <trkpt lat="22.953136" lon="109.766560">
        <ele>82.104110</ele>
        <time>2026-08-15T07:50:36.000Z</time>
      </trkpt>
      <trkpt lat="22.953086" lon="109.766579">
        <ele>82.166578</ele>
        <time>2026-08-15T07:50:37.000Z</time>
      </trkpt>
      <trkpt lat="22.953041" lon="109.766604">
        <ele>82.226184</ele>
        <time>2026-08-15T07:50:38.000Z</time>
      </trkpt>
      <trkpt lat="22.952994" lon="109.766625">
        <ele>82.286116</ele>
        <time>2026-08-15T07:50:39.000Z</time>
      </trkpt>
      <trkpt lat="22.952948" lon="109.766643">
        <ele>82.343776</ele>
        <time>2026-08-15T07:50:40.000Z</time>
      </trkpt>
      <trkpt lat="22.952901" lon="109.766664">
        <ele>82.403708</ele>
        <time>2026-08-15T07:50:41.000Z</time>
      </trkpt>
      <trkpt lat="22.952855" lon="109.766690">
        <ele>82.464860</ele>
        <time>2026-08-15T07:50:42.000Z</time>
      </trkpt>
      <trkpt lat="22.952807" lon="109.766718">
        <ele>82.529113</ele>
        <time>2026-08-15T07:50:43.000Z</time>
      </trkpt>
      <trkpt lat="22.952764" lon="109.766747">
        <ele>82.588803</ele>
        <time>2026-08-15T07:50:44.000Z</time>
      </trkpt>
      <trkpt lat="22.952718" lon="109.766770">
        <ele>82.648521</ele>
        <time>2026-08-15T07:50:45.000Z</time>
      </trkpt>
      <trkpt lat="22.952674" lon="109.766801">
        <ele>82.758847</ele>
        <time>2026-08-15T07:50:46.000Z</time>
      </trkpt>
      <trkpt lat="22.952631" lon="109.766830">
        <ele>82.871861</ele>
        <time>2026-08-15T07:50:47.000Z</time>
      </trkpt>
      <trkpt lat="22.952586" lon="109.766854">
        <ele>82.983795</ele>
        <time>2026-08-15T07:50:48.000Z</time>
      </trkpt>
      <trkpt lat="22.952541" lon="109.766874">
        <ele>83.092355</ele>
        <time>2026-08-15T07:50:49.000Z</time>
      </trkpt>
      <trkpt lat="22.952499" lon="109.766893">
        <ele>83.193940</ele>
        <time>2026-08-15T07:50:50.000Z</time>
      </trkpt>
      <trkpt lat="22.952457" lon="109.766913">
        <ele>83.296333</ele>
        <time>2026-08-15T07:50:51.000Z</time>
      </trkpt>
      <trkpt lat="22.952418" lon="109.766936">
        <ele>83.395420</ele>
        <time>2026-08-15T07:50:52.000Z</time>
      </trkpt>
      <trkpt lat="22.952382" lon="109.766957">
        <ele>83.486659</ele>
        <time>2026-08-15T07:50:53.000Z</time>
      </trkpt>
      <trkpt lat="22.952343" lon="109.766974">
        <ele>83.580488</ele>
        <time>2026-08-15T07:50:54.000Z</time>
      </trkpt>
      <trkpt lat="22.952306" lon="109.766994">
        <ele>83.672766</ele>
        <time>2026-08-15T07:50:55.000Z</time>
      </trkpt>
      <trkpt lat="22.952274" lon="109.767008">
        <ele>83.749792</ele>
        <time>2026-08-15T07:50:56.000Z</time>
      </trkpt>
      <trkpt lat="22.952240" lon="109.767023">
        <ele>83.831730</ele>
        <time>2026-08-15T07:50:57.000Z</time>
      </trkpt>
      <trkpt lat="22.952206" lon="109.767041">
        <ele>83.916182</ele>
        <time>2026-08-15T07:50:58.000Z</time>
      </trkpt>
      <trkpt lat="22.952173" lon="109.767055">
        <ele>83.995284</ele>
        <time>2026-08-15T07:50:59.000Z</time>
      </trkpt>
      <trkpt lat="22.952141" lon="109.767073">
        <ele>84.075746</ele>
        <time>2026-08-15T07:51:00.000Z</time>
      </trkpt>
      <trkpt lat="22.952108" lon="109.767091">
        <ele>84.158197</ele>
        <time>2026-08-15T07:51:01.000Z</time>
      </trkpt>
      <trkpt lat="22.952081" lon="109.767110">
        <ele>84.230030</ele>
        <time>2026-08-15T07:51:02.000Z</time>
      </trkpt>
      <trkpt lat="22.952057" lon="109.767129">
        <ele>84.296342</ele>
        <time>2026-08-15T07:51:03.000Z</time>
      </trkpt>
      <trkpt lat="22.952034" lon="109.767144">
        <ele>84.356243</ele>
        <time>2026-08-15T07:51:04.000Z</time>
      </trkpt>
      <trkpt lat="22.952011" lon="109.767154">
        <ele>84.411559</ele>
        <time>2026-08-15T07:51:05.000Z</time>
      </trkpt>
      <trkpt lat="22.951989" lon="109.767168">
        <ele>84.468490</ele>
        <time>2026-08-15T07:51:06.000Z</time>
      </trkpt>
      <trkpt lat="22.951960" lon="109.767186">
        <ele>84.543068</ele>
        <time>2026-08-15T07:51:07.000Z</time>
      </trkpt>
      <trkpt lat="22.951937" lon="109.767202">
        <ele>84.604053</ele>
        <time>2026-08-15T07:51:08.000Z</time>
      </trkpt>
      <trkpt lat="22.951908" lon="109.767218">
        <ele>84.676679</ele>
        <time>2026-08-15T07:51:09.000Z</time>
      </trkpt>
      <trkpt lat="22.951870" lon="109.767233">
        <ele>84.766953</ele>
        <time>2026-08-15T07:51:10.000Z</time>
      </trkpt>
      <trkpt lat="22.951838" lon="109.767250">
        <ele>84.846491</ele>
        <time>2026-08-15T07:51:11.000Z</time>
      </trkpt>
      <trkpt lat="22.951803" lon="109.767269">
        <ele>84.933855</ele>
        <time>2026-08-15T07:51:12.000Z</time>
      </trkpt>
      <trkpt lat="22.951770" lon="109.767284">
        <ele>85.013728</ele>
        <time>2026-08-15T07:51:13.000Z</time>
      </trkpt>
      <trkpt lat="22.951739" lon="109.767306">
        <ele>85.096411</ele>
        <time>2026-08-15T07:51:14.000Z</time>
      </trkpt>
      <trkpt lat="22.951707" lon="109.767324">
        <ele>85.176873</ele>
        <time>2026-08-15T07:51:15.000Z</time>
      </trkpt>
      <trkpt lat="22.951675" lon="109.767337">
        <ele>85.253156</ele>
        <time>2026-08-15T07:51:16.000Z</time>
      </trkpt>
      <trkpt lat="22.951644" lon="109.767354">
        <ele>85.330694</ele>
        <time>2026-08-15T07:51:17.000Z</time>
      </trkpt>
      <trkpt lat="22.951616" lon="109.767371">
        <ele>85.402317</ele>
        <time>2026-08-15T07:51:18.000Z</time>
      </trkpt>
      <trkpt lat="22.951594" lon="109.767392">
        <ele>85.467714</ele>
        <time>2026-08-15T07:51:19.000Z</time>
      </trkpt>
      <trkpt lat="22.951568" lon="109.767406">
        <ele>85.532509</ele>
        <time>2026-08-15T07:51:20.000Z</time>
      </trkpt>
      <trkpt lat="22.951545" lon="109.767410">
        <ele>85.584515</ele>
        <time>2026-08-15T07:51:21.000Z</time>
      </trkpt>
      <trkpt lat="22.951516" lon="109.767418">
        <ele>85.651320</ele>
        <time>2026-08-15T07:51:22.000Z</time>
      </trkpt>
      <trkpt lat="22.951482" lon="109.767430">
        <ele>85.731141</ele>
        <time>2026-08-15T07:51:23.000Z</time>
      </trkpt>
      <trkpt lat="22.951442" lon="109.767447">
        <ele>85.827045</ele>
        <time>2026-08-15T07:51:24.000Z</time>
      </trkpt>
      <trkpt lat="22.951408" lon="109.767463">
        <ele>85.909778</ele>
        <time>2026-08-15T07:51:25.000Z</time>
      </trkpt>
      <trkpt lat="22.951369" lon="109.767481">
        <ele>86.004392</ele>
        <time>2026-08-15T07:51:26.000Z</time>
      </trkpt>
      <trkpt lat="22.951337" lon="109.767496">
        <ele>86.082210</ele>
        <time>2026-08-15T07:51:27.000Z</time>
      </trkpt>
      <trkpt lat="22.951301" lon="109.767510">
        <ele>86.167586</ele>
        <time>2026-08-15T07:51:28.000Z</time>
      </trkpt>
      <trkpt lat="22.951262" lon="109.767524">
        <ele>86.259296</ele>
        <time>2026-08-15T07:51:29.000Z</time>
      </trkpt>
      <trkpt lat="22.951227" lon="109.767539">
        <ele>86.343306</ele>
        <time>2026-08-15T07:51:30.000Z</time>
      </trkpt>
      <trkpt lat="22.951188" lon="109.767557">
        <ele>86.437920</ele>
        <time>2026-08-15T07:51:31.000Z</time>
      </trkpt>
      <trkpt lat="22.951149" lon="109.767572">
        <ele>86.530295</ele>
        <time>2026-08-15T07:51:32.000Z</time>
      </trkpt>
      <trkpt lat="22.951112" lon="109.767587">
        <ele>86.618474</ele>
        <time>2026-08-15T07:51:33.000Z</time>
      </trkpt>
      <trkpt lat="22.951071" lon="109.767603">
        <ele>86.662513</ele>
        <time>2026-08-15T07:51:34.000Z</time>
      </trkpt>
      <trkpt lat="22.951034" lon="109.767620">
        <ele>86.643166</ele>
        <time>2026-08-15T07:51:35.000Z</time>
      </trkpt>
      <trkpt lat="22.950996" lon="109.767638">
        <ele>86.623201</ele>
        <time>2026-08-15T07:51:36.000Z</time>
      </trkpt>
      <trkpt lat="22.950962" lon="109.767656">
        <ele>86.604985</ele>
        <time>2026-08-15T07:51:37.000Z</time>
      </trkpt>
      <trkpt lat="22.950928" lon="109.767675">
        <ele>86.586571</ele>
        <time>2026-08-15T07:51:38.000Z</time>
      </trkpt>
      <trkpt lat="22.950892" lon="109.767696">
        <ele>86.566891</ele>
        <time>2026-08-15T07:51:39.000Z</time>
      </trkpt>
      <trkpt lat="22.950856" lon="109.767714">
        <ele>86.547805</ele>
        <time>2026-08-15T07:51:40.000Z</time>
      </trkpt>
      <trkpt lat="22.950821" lon="109.767735">
        <ele>86.528548</ele>
        <time>2026-08-15T07:51:41.000Z</time>
      </trkpt>
      <trkpt lat="22.950786" lon="109.767755">
        <ele>86.509502</ele>
        <time>2026-08-15T07:51:42.000Z</time>
      </trkpt>
      <trkpt lat="22.950752" lon="109.767773">
        <ele>86.491287</ele>
        <time>2026-08-15T07:51:43.000Z</time>
      </trkpt>
      <trkpt lat="22.950715" lon="109.767790">
        <ele>86.471939</ele>
        <time>2026-08-15T07:51:44.000Z</time>
      </trkpt>
      <trkpt lat="22.950679" lon="109.767805">
        <ele>86.453370</ele>
        <time>2026-08-15T07:51:45.000Z</time>
      </trkpt>
      <trkpt lat="22.950641" lon="109.767821">
        <ele>86.433743</ele>
        <time>2026-08-15T07:51:46.000Z</time>
      </trkpt>
      <trkpt lat="22.950606" lon="109.767837">
        <ele>86.415455</ele>
        <time>2026-08-15T07:51:47.000Z</time>
      </trkpt>
      <trkpt lat="22.950569" lon="109.767854">
        <ele>86.396108</ele>
        <time>2026-08-15T07:51:48.000Z</time>
      </trkpt>
      <trkpt lat="22.950533" lon="109.767871">
        <ele>86.377203</ele>
        <time>2026-08-15T07:51:49.000Z</time>
      </trkpt>
      <trkpt lat="22.950495" lon="109.767887">
        <ele>86.357576</ele>
        <time>2026-08-15T07:51:50.000Z</time>
      </trkpt>
      <trkpt lat="22.950456" lon="109.767903">
        <ele>86.337499</ele>
        <time>2026-08-15T07:51:51.000Z</time>
      </trkpt>
      <trkpt lat="22.950418" lon="109.767917">
        <ele>86.318174</ele>
        <time>2026-08-15T07:51:52.000Z</time>
      </trkpt>
      <trkpt lat="22.950375" lon="109.767932">
        <ele>86.296424</ele>
        <time>2026-08-15T07:51:53.000Z</time>
      </trkpt>
      <trkpt lat="22.950328" lon="109.767948">
        <ele>86.272704</ele>
        <time>2026-08-15T07:51:54.000Z</time>
      </trkpt>
      <trkpt lat="22.950281" lon="109.767965">
        <ele>86.248848</ele>
        <time>2026-08-15T07:51:55.000Z</time>
      </trkpt>
      <trkpt lat="22.950230" lon="109.767984">
        <ele>86.222882</ele>
        <time>2026-08-15T07:51:56.000Z</time>
      </trkpt>
      <trkpt lat="22.950179" lon="109.768001">
        <ele>86.197191</ele>
        <time>2026-08-15T07:51:57.000Z</time>
      </trkpt>
      <trkpt lat="22.950131" lon="109.768025">
        <ele>86.171743</ele>
        <time>2026-08-15T07:51:58.000Z</time>
      </trkpt>
      <trkpt lat="22.950081" lon="109.768047">
        <ele>86.145763</ele>
        <time>2026-08-15T07:51:59.000Z</time>
      </trkpt>
      <trkpt lat="22.950031" lon="109.768073">
        <ele>86.119066</ele>
        <time>2026-08-15T07:52:00.000Z</time>
      </trkpt>
      <trkpt lat="22.949980" lon="109.768099">
        <ele>86.091934</ele>
        <time>2026-08-15T07:52:01.000Z</time>
      </trkpt>
      <trkpt lat="22.949928" lon="109.768127">
        <ele>86.063983</ele>
        <time>2026-08-15T07:52:02.000Z</time>
      </trkpt>
      <trkpt lat="22.949875" lon="109.768155">
        <ele>86.035599</ele>
        <time>2026-08-15T07:52:03.000Z</time>
      </trkpt>
      <trkpt lat="22.949820" lon="109.768181">
        <ele>86.006712</ele>
        <time>2026-08-15T07:52:04.000Z</time>
      </trkpt>
      <trkpt lat="22.949763" lon="109.768213">
        <ele>85.975811</ele>
        <time>2026-08-15T07:52:05.000Z</time>
      </trkpt>
      <trkpt lat="22.949705" lon="109.768235">
        <ele>85.946224</ele>
        <time>2026-08-15T07:52:06.000Z</time>
      </trkpt>
      <trkpt lat="22.949648" lon="109.768260">
        <ele>85.916620</ele>
        <time>2026-08-15T07:52:07.000Z</time>
      </trkpt>
      <trkpt lat="22.949591" lon="109.768286">
        <ele>85.886847</ele>
        <time>2026-08-15T07:52:08.000Z</time>
      </trkpt>
      <trkpt lat="22.949539" lon="109.768317">
        <ele>85.858280</ele>
        <time>2026-08-15T07:52:09.000Z</time>
      </trkpt>
      <trkpt lat="22.949484" lon="109.768342">
        <ele>85.829567</ele>
        <time>2026-08-15T07:52:10.000Z</time>
      </trkpt>
      <trkpt lat="22.949427" lon="109.768364">
        <ele>85.809834</ele>
        <time>2026-08-15T07:52:11.000Z</time>
      </trkpt>
      <trkpt lat="22.949370" lon="109.768391">
        <ele>85.832597</ele>
        <time>2026-08-15T07:52:12.000Z</time>
      </trkpt>
      <trkpt lat="22.949314" lon="109.768424">
        <ele>85.855920</ele>
        <time>2026-08-15T07:52:13.000Z</time>
      </trkpt>
      <trkpt lat="22.949255" lon="109.768444">
        <ele>85.878544</ele>
        <time>2026-08-15T07:52:14.000Z</time>
      </trkpt>
      <trkpt lat="22.949196" lon="109.768469">
        <ele>85.901727</ele>
        <time>2026-08-15T07:52:15.000Z</time>
      </trkpt>
      <trkpt lat="22.949137" lon="109.768492">
        <ele>85.924673</ele>
        <time>2026-08-15T07:52:16.000Z</time>
      </trkpt>
      <trkpt lat="22.949082" lon="109.768510">
        <ele>85.945700</ele>
        <time>2026-08-15T07:52:17.000Z</time>
      </trkpt>
      <trkpt lat="22.949028" lon="109.768535">
        <ele>85.967188</ele>
        <time>2026-08-15T07:52:18.000Z</time>
      </trkpt>
      <trkpt lat="22.948974" lon="109.768552">
        <ele>85.987769</ele>
        <time>2026-08-15T07:52:19.000Z</time>
      </trkpt>
      <trkpt lat="22.948920" lon="109.768575">
        <ele>86.009001</ele>
        <time>2026-08-15T07:52:20.000Z</time>
      </trkpt>
      <trkpt lat="22.948870" lon="109.768597">
        <ele>86.028749</ele>
        <time>2026-08-15T07:52:21.000Z</time>
      </trkpt>
      <trkpt lat="22.948820" lon="109.768617">
        <ele>86.048254</ele>
        <time>2026-08-15T07:52:22.000Z</time>
      </trkpt>
      <trkpt lat="22.948773" lon="109.768639">
        <ele>86.066988</ele>
        <time>2026-08-15T07:52:23.000Z</time>
      </trkpt>
      <trkpt lat="22.948728" lon="109.768660">
        <ele>86.084917</ele>
        <time>2026-08-15T07:52:24.000Z</time>
      </trkpt>
      <trkpt lat="22.948685" lon="109.768680">
        <ele>86.102040</ele>
        <time>2026-08-15T07:52:25.000Z</time>
      </trkpt>
      <trkpt lat="22.948644" lon="109.768702">
        <ele>86.118780</ele>
        <time>2026-08-15T07:52:26.000Z</time>
      </trkpt>
      <trkpt lat="22.948603" lon="109.768725">
        <ele>86.135672</ele>
        <time>2026-08-15T07:52:27.000Z</time>
      </trkpt>
      <trkpt lat="22.948563" lon="109.768747">
        <ele>86.152085</ele>
        <time>2026-08-15T07:52:28.000Z</time>
      </trkpt>
      <trkpt lat="22.948521" lon="109.768769">
        <ele>86.169154</ele>
        <time>2026-08-15T07:52:29.000Z</time>
      </trkpt>
      <trkpt lat="22.948479" lon="109.768786">
        <ele>86.185561</ele>
        <time>2026-08-15T07:52:30.000Z</time>
      </trkpt>
      <trkpt lat="22.948441" lon="109.768806">
        <ele>86.201019</ele>
        <time>2026-08-15T07:52:31.000Z</time>
      </trkpt>
      <trkpt lat="22.948397" lon="109.768824">
        <ele>86.218230</ele>
        <time>2026-08-15T07:52:32.000Z</time>
      </trkpt>
      <trkpt lat="22.948355" lon="109.768844">
        <ele>86.235017</ele>
        <time>2026-08-15T07:52:33.000Z</time>
      </trkpt>
      <trkpt lat="22.948311" lon="109.768863">
        <ele>86.252350</ele>
        <time>2026-08-15T07:52:34.000Z</time>
      </trkpt>
      <trkpt lat="22.948267" lon="109.768884">
        <ele>86.269943</ele>
        <time>2026-08-15T07:52:35.000Z</time>
      </trkpt>
      <trkpt lat="22.948224" lon="109.768906">
        <ele>86.287342</ele>
        <time>2026-08-15T07:52:36.000Z</time>
      </trkpt>
      <trkpt lat="22.948180" lon="109.768929">
        <ele>86.305217</ele>
        <time>2026-08-15T07:52:37.000Z</time>
      </trkpt>
      <trkpt lat="22.948135" lon="109.768951">
        <ele>86.323282</ele>
        <time>2026-08-15T07:52:38.000Z</time>
      </trkpt>
      <trkpt lat="22.948090" lon="109.768972">
        <ele>86.341210</ele>
        <time>2026-08-15T07:52:39.000Z</time>
      </trkpt>
      <trkpt lat="22.948047" lon="109.768995">
        <ele>86.358756</ele>
        <time>2026-08-15T07:52:40.000Z</time>
      </trkpt>
      <trkpt lat="22.948004" lon="109.769020">
        <ele>86.376610</ele>
        <time>2026-08-15T07:52:41.000Z</time>
      </trkpt>
      <trkpt lat="22.947960" lon="109.769041">
        <ele>86.394203</ele>
        <time>2026-08-15T07:52:42.000Z</time>
      </trkpt>
      <trkpt lat="22.947916" lon="109.769064">
        <ele>86.412078</ele>
        <time>2026-08-15T07:52:43.000Z</time>
      </trkpt>
      <trkpt lat="22.947874" lon="109.769085">
        <ele>86.429004</ele>
        <time>2026-08-15T07:52:44.000Z</time>
      </trkpt>
      <trkpt lat="22.947832" lon="109.769108">
        <ele>86.446222</ele>
        <time>2026-08-15T07:52:45.000Z</time>
      </trkpt>
      <trkpt lat="22.947790" lon="109.769132">
        <ele>86.463594</ele>
        <time>2026-08-15T07:52:46.000Z</time>
      </trkpt>
      <trkpt lat="22.947747" lon="109.769147">
        <ele>86.423441</ele>
        <time>2026-08-15T07:52:47.000Z</time>
      </trkpt>
      <trkpt lat="22.947707" lon="109.769167">
        <ele>86.382312</ele>
        <time>2026-08-15T07:52:48.000Z</time>
      </trkpt>
      <trkpt lat="22.947670" lon="109.769189">
        <ele>86.342914</ele>
        <time>2026-08-15T07:52:49.000Z</time>
      </trkpt>
      <trkpt lat="22.947636" lon="109.769208">
        <ele>86.307201</ele>
        <time>2026-08-15T07:52:50.000Z</time>
      </trkpt>
      <trkpt lat="22.947601" lon="109.769223">
        <ele>86.272058</ele>
        <time>2026-08-15T07:52:51.000Z</time>
      </trkpt>
      <trkpt lat="22.947567" lon="109.769239">
        <ele>86.237449</ele>
        <time>2026-08-15T07:52:52.000Z</time>
      </trkpt>
      <trkpt lat="22.947530" lon="109.769255">
        <ele>86.200252</ele>
        <time>2026-08-15T07:52:53.000Z</time>
      </trkpt>
      <trkpt lat="22.947490" lon="109.769274">
        <ele>86.159476</ele>
        <time>2026-08-15T07:52:54.000Z</time>
      </trkpt>
      <trkpt lat="22.947449" lon="109.769295">
        <ele>86.117137</ele>
        <time>2026-08-15T07:52:55.000Z</time>
      </trkpt>
      <trkpt lat="22.947408" lon="109.769311">
        <ele>86.076446</ele>
        <time>2026-08-15T07:52:56.000Z</time>
      </trkpt>
      <trkpt lat="22.947369" lon="109.769323">
        <ele>86.038587</ele>
        <time>2026-08-15T07:52:57.000Z</time>
      </trkpt>
      <trkpt lat="22.947325" lon="109.769335">
        <ele>85.996216</ele>
        <time>2026-08-15T07:52:58.000Z</time>
      </trkpt>
      <trkpt lat="22.947279" lon="109.769346">
        <ele>85.952223</ele>
        <time>2026-08-15T07:52:59.000Z</time>
      </trkpt>
      <trkpt lat="22.947231" lon="109.769358">
        <ele>85.906220</ele>
        <time>2026-08-15T07:53:00.000Z</time>
      </trkpt>
      <trkpt lat="22.947181" lon="109.769370">
        <ele>85.858394</ele>
        <time>2026-08-15T07:53:01.000Z</time>
      </trkpt>
      <trkpt lat="22.947129" lon="109.769379">
        <ele>85.809214</ele>
        <time>2026-08-15T07:53:02.000Z</time>
      </trkpt>
      <trkpt lat="22.947080" lon="109.769392">
        <ele>85.762103</ele>
        <time>2026-08-15T07:53:03.000Z</time>
      </trkpt>
      <trkpt lat="22.947029" lon="109.769405">
        <ele>85.713175</ele>
        <time>2026-08-15T07:53:04.000Z</time>
      </trkpt>
      <trkpt lat="22.946985" lon="109.769423">
        <ele>85.669261</ele>
        <time>2026-08-15T07:53:05.000Z</time>
      </trkpt>
      <trkpt lat="22.946937" lon="109.769438">
        <ele>85.622611</ele>
        <time>2026-08-15T07:53:06.000Z</time>
      </trkpt>
      <trkpt lat="22.946889" lon="109.769457">
        <ele>85.574894</ele>
        <time>2026-08-15T07:53:07.000Z</time>
      </trkpt>
      <trkpt lat="22.946839" lon="109.769475">
        <ele>85.525696</ele>
        <time>2026-08-15T07:53:08.000Z</time>
      </trkpt>
      <trkpt lat="22.946786" lon="109.769492">
        <ele>85.474081</ele>
        <time>2026-08-15T07:53:09.000Z</time>
      </trkpt>
      <trkpt lat="22.946735" lon="109.769507">
        <ele>85.424732</ele>
        <time>2026-08-15T07:53:10.000Z</time>
      </trkpt>
      <trkpt lat="22.946683" lon="109.769520">
        <ele>85.374894</ele>
        <time>2026-08-15T07:53:11.000Z</time>
      </trkpt>
      <trkpt lat="22.946633" lon="109.769533">
        <ele>85.326876</ele>
        <time>2026-08-15T07:53:12.000Z</time>
      </trkpt>
      <trkpt lat="22.946585" lon="109.769546">
        <ele>85.280671</ele>
        <time>2026-08-15T07:53:13.000Z</time>
      </trkpt>
      <trkpt lat="22.946536" lon="109.769559">
        <ele>85.233560</ele>
        <time>2026-08-15T07:53:14.000Z</time>
      </trkpt>
      <trkpt lat="22.946488" lon="109.769574">
        <ele>85.186910</ele>
        <time>2026-08-15T07:53:15.000Z</time>
      </trkpt>
      <trkpt lat="22.946439" lon="109.769588">
        <ele>85.139587</ele>
        <time>2026-08-15T07:53:16.000Z</time>
      </trkpt>
      <trkpt lat="22.946392" lon="109.769600">
        <ele>85.094493</ele>
        <time>2026-08-15T07:53:17.000Z</time>
      </trkpt>
      <trkpt lat="22.946345" lon="109.769611">
        <ele>85.049588</ele>
        <time>2026-08-15T07:53:18.000Z</time>
      </trkpt>
      <trkpt lat="22.946297" lon="109.769621">
        <ele>85.003940</ele>
        <time>2026-08-15T07:53:19.000Z</time>
      </trkpt>
      <trkpt lat="22.946247" lon="109.769630">
        <ele>84.956604</ele>
        <time>2026-08-15T07:53:20.000Z</time>
      </trkpt>
      <trkpt lat="22.946202" lon="109.769640">
        <ele>84.913704</ele>
        <time>2026-08-15T07:53:21.000Z</time>
      </trkpt>
      <trkpt lat="22.946156" lon="109.769649">
        <ele>84.870049</ele>
        <time>2026-08-15T07:53:22.000Z</time>
      </trkpt>
      <trkpt lat="22.946108" lon="109.769660">
        <ele>84.824230</ele>
        <time>2026-08-15T07:53:23.000Z</time>
      </trkpt>
      <trkpt lat="22.946059" lon="109.769672">
        <ele>84.771399</ele>
        <time>2026-08-15T07:53:24.000Z</time>
      </trkpt>
      <trkpt lat="22.946009" lon="109.769682">
        <ele>84.683510</ele>
        <time>2026-08-15T07:53:25.000Z</time>
      </trkpt>
      <trkpt lat="22.945959" lon="109.769692">
        <ele>84.595622</ele>
        <time>2026-08-15T07:53:26.000Z</time>
      </trkpt>
      <trkpt lat="22.945910" lon="109.769706">
        <ele>84.508033</ele>
        <time>2026-08-15T07:53:27.000Z</time>
      </trkpt>
      <trkpt lat="22.945860" lon="109.769720">
        <ele>84.418771</ele>
        <time>2026-08-15T07:53:28.000Z</time>
      </trkpt>
      <trkpt lat="22.945809" lon="109.769729">
        <ele>84.329451</ele>
        <time>2026-08-15T07:53:29.000Z</time>
      </trkpt>
      <trkpt lat="22.945758" lon="109.769740">
        <ele>84.239565</ele>
        <time>2026-08-15T07:53:30.000Z</time>
      </trkpt>
      <trkpt lat="22.945707" lon="109.769752">
        <ele>84.149356</ele>
        <time>2026-08-15T07:53:31.000Z</time>
      </trkpt>
      <trkpt lat="22.945654" lon="109.769764">
        <ele>84.055765</ele>
        <time>2026-08-15T07:53:32.000Z</time>
      </trkpt>
      <trkpt lat="22.945600" lon="109.769776">
        <ele>83.960481</ele>
        <time>2026-08-15T07:53:33.000Z</time>
      </trkpt>
      <trkpt lat="22.945546" lon="109.769790">
        <ele>83.864507</ele>
        <time>2026-08-15T07:53:34.000Z</time>
      </trkpt>
      <trkpt lat="22.945492" lon="109.769805">
        <ele>83.768152</ele>
        <time>2026-08-15T07:53:35.000Z</time>
      </trkpt>
      <trkpt lat="22.945437" lon="109.769821">
        <ele>83.669721</ele>
        <time>2026-08-15T07:53:36.000Z</time>
      </trkpt>
      <trkpt lat="22.945377" lon="109.769835">
        <ele>83.563632</ele>
        <time>2026-08-15T07:53:37.000Z</time>
      </trkpt>
      <trkpt lat="22.945316" lon="109.769846">
        <ele>83.456737</ele>
        <time>2026-08-15T07:53:38.000Z</time>
      </trkpt>
      <trkpt lat="22.945257" lon="109.769858">
        <ele>83.352971</ele>
        <time>2026-08-15T07:53:39.000Z</time>
      </trkpt>
      <trkpt lat="22.945196" lon="109.769871">
        <ele>83.245509</ele>
        <time>2026-08-15T07:53:40.000Z</time>
      </trkpt>
      <trkpt lat="22.945133" lon="109.769884">
        <ele>83.134652</ele>
        <time>2026-08-15T07:53:41.000Z</time>
      </trkpt>
      <trkpt lat="22.945072" lon="109.769899">
        <ele>83.026532</ele>
        <time>2026-08-15T07:53:42.000Z</time>
      </trkpt>
      <trkpt lat="22.945009" lon="109.769914">
        <ele>82.915037</ele>
        <time>2026-08-15T07:53:43.000Z</time>
      </trkpt>
      <trkpt lat="22.944945" lon="109.769929">
        <ele>82.801853</ele>
        <time>2026-08-15T07:53:44.000Z</time>
      </trkpt>
      <trkpt lat="22.944879" lon="109.769944">
        <ele>82.685287</ele>
        <time>2026-08-15T07:53:45.000Z</time>
      </trkpt>
      <trkpt lat="22.944813" lon="109.769959">
        <ele>82.568721</ele>
        <time>2026-08-15T07:53:46.000Z</time>
      </trkpt>
      <trkpt lat="22.944747" lon="109.769974">
        <ele>82.452155</ele>
        <time>2026-08-15T07:53:47.000Z</time>
      </trkpt>
      <trkpt lat="22.944680" lon="109.769990">
        <ele>82.333564</ele>
        <time>2026-08-15T07:53:48.000Z</time>
      </trkpt>
      <trkpt lat="22.944614" lon="109.770007">
        <ele>82.216305</ele>
        <time>2026-08-15T07:53:49.000Z</time>
      </trkpt>
      <trkpt lat="22.944548" lon="109.770021">
        <ele>82.100054</ele>
        <time>2026-08-15T07:53:50.000Z</time>
      </trkpt>
      <trkpt lat="22.944482" lon="109.770035">
        <ele>81.983804</ele>
        <time>2026-08-15T07:53:51.000Z</time>
      </trkpt>
      <trkpt lat="22.944417" lon="109.770050">
        <ele>81.868930</ele>
        <time>2026-08-15T07:53:52.000Z</time>
      </trkpt>
      <trkpt lat="22.944351" lon="109.770063">
        <ele>81.752974</ele>
        <time>2026-08-15T07:53:53.000Z</time>
      </trkpt>
      <trkpt lat="22.944287" lon="109.770076">
        <ele>81.681391</ele>
        <time>2026-08-15T07:53:54.000Z</time>
      </trkpt>
      <trkpt lat="22.944223" lon="109.770087">
        <ele>81.702240</ele>
        <time>2026-08-15T07:53:55.000Z</time>
      </trkpt>
      <trkpt lat="22.944160" lon="109.770099">
        <ele>81.722819</ele>
        <time>2026-08-15T07:53:56.000Z</time>
      </trkpt>
      <trkpt lat="22.944099" lon="109.770110">
        <ele>81.742715</ele>
        <time>2026-08-15T07:53:57.000Z</time>
      </trkpt>
      <trkpt lat="22.944038" lon="109.770120">
        <ele>81.762564</ele>
        <time>2026-08-15T07:53:58.000Z</time>
      </trkpt>
      <trkpt lat="22.943980" lon="109.770129">
        <ele>81.781415</ele>
        <time>2026-08-15T07:53:59.000Z</time>
      </trkpt>
      <trkpt lat="22.943920" lon="109.770138">
        <ele>81.800903</ele>
        <time>2026-08-15T07:54:00.000Z</time>
      </trkpt>
      <trkpt lat="22.943862" lon="109.770149">
        <ele>81.819847</ele>
        <time>2026-08-15T07:54:01.000Z</time>
      </trkpt>
      <trkpt lat="22.943806" lon="109.770160">
        <ele>81.838158</ele>
        <time>2026-08-15T07:54:02.000Z</time>
      </trkpt>
      <trkpt lat="22.943752" lon="109.770172">
        <ele>81.855892</ele>
        <time>2026-08-15T07:54:03.000Z</time>
      </trkpt>
      <trkpt lat="22.943700" lon="109.770183">
        <ele>81.872938</ele>
        <time>2026-08-15T07:54:04.000Z</time>
      </trkpt>
      <trkpt lat="22.943648" lon="109.770193">
        <ele>81.889929</ele>
        <time>2026-08-15T07:54:05.000Z</time>
      </trkpt>
      <trkpt lat="22.943596" lon="109.770205">
        <ele>81.907034</ele>
        <time>2026-08-15T07:54:06.000Z</time>
      </trkpt>
      <trkpt lat="22.943546" lon="109.770216">
        <ele>81.923448</ele>
        <time>2026-08-15T07:54:07.000Z</time>
      </trkpt>
      <trkpt lat="22.943497" lon="109.770227">
        <ele>81.939547</ele>
        <time>2026-08-15T07:54:08.000Z</time>
      </trkpt>
      <trkpt lat="22.943449" lon="109.770238">
        <ele>81.955331</ele>
        <time>2026-08-15T07:54:09.000Z</time>
      </trkpt>
      <trkpt lat="22.943404" lon="109.770248">
        <ele>81.970110</ele>
        <time>2026-08-15T07:54:10.000Z</time>
      </trkpt>
      <trkpt lat="22.943359" lon="109.770257">
        <ele>81.984832</ele>
        <time>2026-08-15T07:54:11.000Z</time>
      </trkpt>
      <trkpt lat="22.943315" lon="109.770268">
        <ele>81.999360</ele>
        <time>2026-08-15T07:54:12.000Z</time>
      </trkpt>
      <trkpt lat="22.943272" lon="109.770276">
        <ele>82.013397</ele>
        <time>2026-08-15T07:54:13.000Z</time>
      </trkpt>
      <trkpt lat="22.943230" lon="109.770285">
        <ele>82.027171</ele>
        <time>2026-08-15T07:54:14.000Z</time>
      </trkpt>
      <trkpt lat="22.943188" lon="109.770292">
        <ele>82.040842</ele>
        <time>2026-08-15T07:54:15.000Z</time>
      </trkpt>
      <trkpt lat="22.943147" lon="109.770297">
        <ele>82.054117</ele>
        <time>2026-08-15T07:54:16.000Z</time>
      </trkpt>
      <trkpt lat="22.943109" lon="109.770305">
        <ele>82.066571</ele>
        <time>2026-08-15T07:54:17.000Z</time>
      </trkpt>
      <trkpt lat="22.943071" lon="109.770312">
        <ele>82.078972</ele>
        <time>2026-08-15T07:54:18.000Z</time>
      </trkpt>
      <trkpt lat="22.943035" lon="109.770320">
        <ele>82.090795</ele>
        <time>2026-08-15T07:54:19.000Z</time>
      </trkpt>
      <trkpt lat="22.942999" lon="109.770327">
        <ele>82.102563</ele>
        <time>2026-08-15T07:54:20.000Z</time>
      </trkpt>
      <trkpt lat="22.942965" lon="109.770334">
        <ele>82.113697</ele>
        <time>2026-08-15T07:54:21.000Z</time>
      </trkpt>
      <trkpt lat="22.942934" lon="109.770340">
        <ele>82.123828</ele>
        <time>2026-08-15T07:54:22.000Z</time>
      </trkpt>
      <trkpt lat="22.942905" lon="109.770343">
        <ele>82.133201</ele>
        <time>2026-08-15T07:54:23.000Z</time>
      </trkpt>
      <trkpt lat="22.942878" lon="109.770350">
        <ele>82.142133</ele>
        <time>2026-08-15T07:54:24.000Z</time>
      </trkpt>
      <trkpt lat="22.942853" lon="109.770358">
        <ele>82.150519</ele>
        <time>2026-08-15T07:54:25.000Z</time>
      </trkpt>
      <trkpt lat="22.942830" lon="109.770368">
        <ele>82.158490</ele>
        <time>2026-08-15T07:54:26.000Z</time>
      </trkpt>
      <trkpt lat="22.942808" lon="109.770376">
        <ele>82.165955</ele>
        <time>2026-08-15T07:54:27.000Z</time>
      </trkpt>
      <trkpt lat="22.942786" lon="109.770380">
        <ele>82.173132</ele>
        <time>2026-08-15T07:54:28.000Z</time>
      </trkpt>
      <trkpt lat="22.942765" lon="109.770381">
        <ele>82.179895</ele>
        <time>2026-08-15T07:54:29.000Z</time>
      </trkpt>
      <trkpt lat="22.942744" lon="109.770376">
        <ele>82.186812</ele>
        <time>2026-08-15T07:54:30.000Z</time>
      </trkpt>
      <trkpt lat="22.942725" lon="109.770364">
        <ele>82.193884</ele>
        <time>2026-08-15T07:54:31.000Z</time>
      </trkpt>
      <trkpt lat="22.942703" lon="109.770350">
        <ele>82.202089</ele>
        <time>2026-08-15T07:54:32.000Z</time>
      </trkpt>
      <trkpt lat="22.942674" lon="109.770342">
        <ele>82.211716</ele>
        <time>2026-08-15T07:54:33.000Z</time>
      </trkpt>
      <trkpt lat="22.942641" lon="109.770337">
        <ele>82.222437</ele>
        <time>2026-08-15T07:54:34.000Z</time>
      </trkpt>
      <trkpt lat="22.942606" lon="109.770340">
        <ele>82.233733</ele>
        <time>2026-08-15T07:54:35.000Z</time>
      </trkpt>
      <trkpt lat="22.942572" lon="109.770349">
        <ele>82.244993</ele>
        <time>2026-08-15T07:54:36.000Z</time>
      </trkpt>
      <trkpt lat="22.942537" lon="109.770365">
        <ele>82.257769</ele>
        <time>2026-08-15T07:54:37.000Z</time>
      </trkpt>
      <trkpt lat="22.942503" lon="109.770390">
        <ele>82.273063</ele>
        <time>2026-08-15T07:54:38.000Z</time>
      </trkpt>
      <trkpt lat="22.942472" lon="109.770418">
        <ele>82.288082</ele>
        <time>2026-08-15T07:54:39.000Z</time>
      </trkpt>
      <trkpt lat="22.942443" lon="109.770449">
        <ele>82.303240</ele>
        <time>2026-08-15T07:54:40.000Z</time>
      </trkpt>
      <trkpt lat="22.942414" lon="109.770482">
        <ele>82.318887</ele>
        <time>2026-08-15T07:54:41.000Z</time>
      </trkpt>
      <trkpt lat="22.942387" lon="109.770515">
        <ele>82.334028</ele>
        <time>2026-08-15T07:54:42.000Z</time>
      </trkpt>
      <trkpt lat="22.942362" lon="109.770549">
        <ele>82.348953</ele>
        <time>2026-08-15T07:54:43.000Z</time>
      </trkpt>
      <trkpt lat="22.942338" lon="109.770583">
        <ele>82.363647</ele>
        <time>2026-08-15T07:54:44.000Z</time>
      </trkpt>
      <trkpt lat="22.942314" lon="109.770615">
        <ele>82.377803</ele>
        <time>2026-08-15T07:54:45.000Z</time>
      </trkpt>
      <trkpt lat="22.942288" lon="109.770647">
        <ele>82.392441</ele>
        <time>2026-08-15T07:54:46.000Z</time>
      </trkpt>
      <trkpt lat="22.942258" lon="109.770678">
        <ele>82.407867</ele>
        <time>2026-08-15T07:54:47.000Z</time>
      </trkpt>
      <trkpt lat="22.942229" lon="109.770707">
        <ele>82.422551</ele>
        <time>2026-08-15T07:54:48.000Z</time>
      </trkpt>
      <trkpt lat="22.942197" lon="109.770734">
        <ele>82.437646</ele>
        <time>2026-08-15T07:54:49.000Z</time>
      </trkpt>
      <trkpt lat="22.942164" lon="109.770759">
        <ele>82.452634</ele>
        <time>2026-08-15T07:54:50.000Z</time>
      </trkpt>
      <trkpt lat="22.942133" lon="109.770782">
        <ele>82.466618</ele>
        <time>2026-08-15T07:54:51.000Z</time>
      </trkpt>
      <trkpt lat="22.942097" lon="109.770804">
        <ele>82.482005</ele>
        <time>2026-08-15T07:54:52.000Z</time>
      </trkpt>
      <trkpt lat="22.942059" lon="109.770829">
        <ele>82.498555</ele>
        <time>2026-08-15T07:54:53.000Z</time>
      </trkpt>
      <trkpt lat="22.942023" lon="109.770857">
        <ele>82.515049</ele>
        <time>2026-08-15T07:54:54.000Z</time>
      </trkpt>
      <trkpt lat="22.941983" lon="109.770890">
        <ele>82.533760</ele>
        <time>2026-08-15T07:54:55.000Z</time>
      </trkpt>
      <trkpt lat="22.941944" lon="109.770921">
        <ele>82.551763</ele>
        <time>2026-08-15T07:54:56.000Z</time>
      </trkpt>
      <trkpt lat="22.941900" lon="109.770952">
        <ele>82.571300</ele>
        <time>2026-08-15T07:54:57.000Z</time>
      </trkpt>
      <trkpt lat="22.941856" lon="109.770984">
        <ele>82.591025</ele>
        <time>2026-08-15T07:54:58.000Z</time>
      </trkpt>
      <trkpt lat="22.941814" lon="109.771017">
        <ele>82.610335</ele>
        <time>2026-08-15T07:54:59.000Z</time>
      </trkpt>
      <trkpt lat="22.941773" lon="109.771048">
        <ele>82.628944</ele>
        <time>2026-08-15T07:55:00.000Z</time>
      </trkpt>
      <trkpt lat="22.941729" lon="109.771077">
        <ele>82.648116</ele>
        <time>2026-08-15T07:55:01.000Z</time>
      </trkpt>
      <trkpt lat="22.941684" lon="109.771105">
        <ele>82.667434</ele>
        <time>2026-08-15T07:55:02.000Z</time>
      </trkpt>
      <trkpt lat="22.941640" lon="109.771132">
        <ele>82.686259</ele>
        <time>2026-08-15T07:55:03.000Z</time>
      </trkpt>
      <trkpt lat="22.941595" lon="109.771158">
        <ele>82.705246</ele>
        <time>2026-08-15T07:55:04.000Z</time>
      </trkpt>
      <trkpt lat="22.941554" lon="109.771188">
        <ele>82.723661</ele>
        <time>2026-08-15T07:55:05.000Z</time>
      </trkpt>
      <trkpt lat="22.941515" lon="109.771220">
        <ele>82.741869</ele>
        <time>2026-08-15T07:55:06.000Z</time>
      </trkpt>
      <trkpt lat="22.941476" lon="109.771251">
        <ele>82.759871</ele>
        <time>2026-08-15T07:55:07.000Z</time>
      </trkpt>
      <trkpt lat="22.941436" lon="109.771279">
        <ele>82.777598</ele>
        <time>2026-08-15T07:55:08.000Z</time>
      </trkpt>
      <trkpt lat="22.941394" lon="109.771303">
        <ele>82.795276</ele>
        <time>2026-08-15T07:55:09.000Z</time>
      </trkpt>
      <trkpt lat="22.941355" lon="109.771329">
        <ele>82.812322</ele>
        <time>2026-08-15T07:55:10.000Z</time>
      </trkpt>
      <trkpt lat="22.941314" lon="109.771355">
        <ele>82.830007</ele>
        <time>2026-08-15T07:55:11.000Z</time>
      </trkpt>
      <trkpt lat="22.941276" lon="109.771383">
        <ele>82.847113</ele>
        <time>2026-08-15T07:55:12.000Z</time>
      </trkpt>
      <trkpt lat="22.941239" lon="109.771411">
        <ele>82.863911</ele>
        <time>2026-08-15T07:55:13.000Z</time>
      </trkpt>
      <trkpt lat="22.941202" lon="109.771441">
        <ele>82.881111</ele>
        <time>2026-08-15T07:55:14.000Z</time>
      </trkpt>
      <trkpt lat="22.941166" lon="109.771469">
        <ele>82.897605</ele>
        <time>2026-08-15T07:55:15.000Z</time>
      </trkpt>
      <trkpt lat="22.941132" lon="109.771496">
        <ele>82.913294</ele>
        <time>2026-08-15T07:55:16.000Z</time>
      </trkpt>
      <trkpt lat="22.941100" lon="109.771521">
        <ele>82.931230</ele>
        <time>2026-08-15T07:55:17.000Z</time>
      </trkpt>
      <trkpt lat="22.941067" lon="109.771547">
        <ele>82.957789</ele>
        <time>2026-08-15T07:55:18.000Z</time>
      </trkpt>
      <trkpt lat="22.941036" lon="109.771568">
        <ele>82.981590</ele>
        <time>2026-08-15T07:55:19.000Z</time>
      </trkpt>
      <trkpt lat="22.941009" lon="109.771585">
        <ele>83.001921</ele>
        <time>2026-08-15T07:55:20.000Z</time>
      </trkpt>
      <trkpt lat="22.940980" lon="109.771606">
        <ele>83.024627</ele>
        <time>2026-08-15T07:55:21.000Z</time>
      </trkpt>
      <trkpt lat="22.940950" lon="109.771631">
        <ele>83.049261</ele>
        <time>2026-08-15T07:55:22.000Z</time>
      </trkpt>
      <trkpt lat="22.940918" lon="109.771655">
        <ele>83.074595</ele>
        <time>2026-08-15T07:55:23.000Z</time>
      </trkpt>
      <trkpt lat="22.940884" lon="109.771681">
        <ele>83.101684</ele>
        <time>2026-08-15T07:55:24.000Z</time>
      </trkpt>
      <trkpt lat="22.940849" lon="109.771708">
        <ele>83.129651</ele>
        <time>2026-08-15T07:55:25.000Z</time>
      </trkpt>
      <trkpt lat="22.940816" lon="109.771736">
        <ele>83.156931</ele>
        <time>2026-08-15T07:55:26.000Z</time>
      </trkpt>
      <trkpt lat="22.940781" lon="109.771765">
        <ele>83.185610</ele>
        <time>2026-08-15T07:55:27.000Z</time>
      </trkpt>
      <trkpt lat="22.940747" lon="109.771794">
        <ele>83.213774</ele>
        <time>2026-08-15T07:55:28.000Z</time>
      </trkpt>
      <trkpt lat="22.940715" lon="109.771822">
        <ele>83.240544</ele>
        <time>2026-08-15T07:55:29.000Z</time>
      </trkpt>
      <trkpt lat="22.940682" lon="109.771850">
        <ele>83.267825</ele>
        <time>2026-08-15T07:55:30.000Z</time>
      </trkpt>
      <trkpt lat="22.940647" lon="109.771877">
        <ele>83.295792</ele>
        <time>2026-08-15T07:55:31.000Z</time>
      </trkpt>
      <trkpt lat="22.940612" lon="109.771904">
        <ele>83.323759</ele>
        <time>2026-08-15T07:55:32.000Z</time>
      </trkpt>
      <trkpt lat="22.940576" lon="109.771930">
        <ele>83.351923</ele>
        <time>2026-08-15T07:55:33.000Z</time>
      </trkpt>
      <trkpt lat="22.940540" lon="109.771955">
        <ele>83.379760</ele>
        <time>2026-08-15T07:55:34.000Z</time>
      </trkpt>
      <trkpt lat="22.940503" lon="109.771980">
        <ele>83.408147</ele>
        <time>2026-08-15T07:55:35.000Z</time>
      </trkpt>
      <trkpt lat="22.940465" lon="109.772004">
        <ele>83.436783</ele>
        <time>2026-08-15T07:55:36.000Z</time>
      </trkpt>
      <trkpt lat="22.940429" lon="109.772030">
        <ele>83.464947</ele>
        <time>2026-08-15T07:55:37.000Z</time>
      </trkpt>
      <trkpt lat="22.940393" lon="109.772055">
        <ele>83.492783</ele>
        <time>2026-08-15T07:55:38.000Z</time>
      </trkpt>
      <trkpt lat="22.940357" lon="109.772081">
        <ele>83.520948</ele>
        <time>2026-08-15T07:55:39.000Z</time>
      </trkpt>
      <trkpt lat="22.940321" lon="109.772107">
        <ele>83.549112</ele>
        <time>2026-08-15T07:55:40.000Z</time>
      </trkpt>
      <trkpt lat="22.940283" lon="109.772135">
        <ele>83.579026</ele>
        <time>2026-08-15T07:55:41.000Z</time>
      </trkpt>
      <trkpt lat="22.940246" lon="109.772164">
        <ele>83.608751</ele>
        <time>2026-08-15T07:55:42.000Z</time>
      </trkpt>
      <trkpt lat="22.940208" lon="109.772195">
        <ele>83.639712</ele>
        <time>2026-08-15T07:55:43.000Z</time>
      </trkpt>
      <trkpt lat="22.940171" lon="109.772225">
        <ele>83.669792</ele>
        <time>2026-08-15T07:55:44.000Z</time>
      </trkpt>
      <trkpt lat="22.940134" lon="109.772254">
        <ele>83.699517</ele>
        <time>2026-08-15T07:55:45.000Z</time>
      </trkpt>
      <trkpt lat="22.940096" lon="109.772281">
        <ele>83.729099</ele>
        <time>2026-08-15T07:55:46.000Z</time>
      </trkpt>
      <trkpt lat="22.940059" lon="109.772309">
        <ele>83.758477</ele>
        <time>2026-08-15T07:55:47.000Z</time>
      </trkpt>
      <trkpt lat="22.940021" lon="109.772338">
        <ele>83.788732</ele>
        <time>2026-08-15T07:55:48.000Z</time>
      </trkpt>
      <trkpt lat="22.939983" lon="109.772369">
        <ele>83.819693</ele>
        <time>2026-08-15T07:55:49.000Z</time>
      </trkpt>
      <trkpt lat="22.939946" lon="109.772398">
        <ele>83.849418</ele>
        <time>2026-08-15T07:55:50.000Z</time>
      </trkpt>
      <trkpt lat="22.939909" lon="109.772426">
        <ele>83.878796</ele>
        <time>2026-08-15T07:55:51.000Z</time>
      </trkpt>
      <trkpt lat="22.939871" lon="109.772454">
        <ele>83.908711</ele>
        <time>2026-08-15T07:55:52.000Z</time>
      </trkpt>
      <trkpt lat="22.939833" lon="109.772480">
        <ele>83.937969</ele>
        <time>2026-08-15T07:55:53.000Z</time>
      </trkpt>
      <trkpt lat="22.939794" lon="109.772505">
        <ele>83.967470</ele>
        <time>2026-08-15T07:55:54.000Z</time>
      </trkpt>
      <trkpt lat="22.939756" lon="109.772531">
        <ele>83.996728</ele>
        <time>2026-08-15T07:55:55.000Z</time>
      </trkpt>
      <trkpt lat="22.939717" lon="109.772557">
        <ele>84.026539</ele>
        <time>2026-08-15T07:55:56.000Z</time>
      </trkpt>
      <trkpt lat="22.939678" lon="109.772583">
        <ele>84.056350</ele>
        <time>2026-08-15T07:55:57.000Z</time>
      </trkpt>
      <trkpt lat="22.939641" lon="109.772611">
        <ele>84.085728</ele>
        <time>2026-08-15T07:55:58.000Z</time>
      </trkpt>
      <trkpt lat="22.939603" lon="109.772640">
        <ele>84.118175</ele>
        <time>2026-08-15T07:55:59.000Z</time>
      </trkpt>
      <trkpt lat="22.939565" lon="109.772668">
        <ele>84.151259</ele>
        <time>2026-08-15T07:56:00.000Z</time>
      </trkpt>
      <trkpt lat="22.939527" lon="109.772697">
        <ele>84.184720</ele>
        <time>2026-08-15T07:56:01.000Z</time>
      </trkpt>
      <trkpt lat="22.939488" lon="109.772724">
        <ele>84.218041</ele>
        <time>2026-08-15T07:56:02.000Z</time>
      </trkpt>
      <trkpt lat="22.939449" lon="109.772752">
        <ele>84.251723</ele>
        <time>2026-08-15T07:56:03.000Z</time>
      </trkpt>
      <trkpt lat="22.939409" lon="109.772780">
        <ele>84.286009</ele>
        <time>2026-08-15T07:56:04.000Z</time>
      </trkpt>
      <trkpt lat="22.939370" lon="109.772810">
        <ele>84.320441</ele>
        <time>2026-08-15T07:56:05.000Z</time>
      </trkpt>
      <trkpt lat="22.939331" lon="109.772839">
        <ele>84.354494</ele>
        <time>2026-08-15T07:56:06.000Z</time>
      </trkpt>
      <trkpt lat="22.939291" lon="109.772869">
        <ele>84.389516</ele>
        <time>2026-08-15T07:56:07.000Z</time>
      </trkpt>
      <trkpt lat="22.939251" lon="109.772899">
        <ele>84.424538</ele>
        <time>2026-08-15T07:56:08.000Z</time>
      </trkpt>
      <trkpt lat="22.939211" lon="109.772930">
        <ele>84.459942</ele>
        <time>2026-08-15T07:56:09.000Z</time>
      </trkpt>
      <trkpt lat="22.939171" lon="109.772960">
        <ele>84.494964</ele>
        <time>2026-08-15T07:56:10.000Z</time>
      </trkpt>
      <trkpt lat="22.939130" lon="109.772989">
        <ele>84.530215</ele>
        <time>2026-08-15T07:56:11.000Z</time>
      </trkpt>
      <trkpt lat="22.939089" lon="109.773016">
        <ele>84.564760</ele>
        <time>2026-08-15T07:56:12.000Z</time>
      </trkpt>
      <trkpt lat="22.939047" lon="109.773043">
        <ele>84.599923</ele>
        <time>2026-08-15T07:56:13.000Z</time>
      </trkpt>
      <trkpt lat="22.939006" lon="109.773070">
        <ele>84.634467</ele>
        <time>2026-08-15T07:56:14.000Z</time>
      </trkpt>
      <trkpt lat="22.938967" lon="109.773098">
        <ele>84.668150</ele>
        <time>2026-08-15T07:56:15.000Z</time>
      </trkpt>
      <trkpt lat="22.938928" lon="109.773127">
        <ele>84.702203</ele>
        <time>2026-08-15T07:56:16.000Z</time>
      </trkpt>
      <trkpt lat="22.938888" lon="109.773156">
        <ele>84.736852</ele>
        <time>2026-08-15T07:56:17.000Z</time>
      </trkpt>
      <trkpt lat="22.938850" lon="109.773184">
        <ele>84.769936</ele>
        <time>2026-08-15T07:56:18.000Z</time>
      </trkpt>
      <trkpt lat="22.938811" lon="109.773213">
        <ele>84.803989</ele>
        <time>2026-08-15T07:56:19.000Z</time>
      </trkpt>
      <trkpt lat="22.938772" lon="109.773242">
        <ele>84.838042</ele>
        <time>2026-08-15T07:56:20.000Z</time>
      </trkpt>
      <trkpt lat="22.938735" lon="109.773270">
        <ele>84.870532</ele>
        <time>2026-08-15T07:56:21.000Z</time>
      </trkpt>
      <trkpt lat="22.938697" lon="109.773297">
        <ele>84.903248</ele>
        <time>2026-08-15T07:56:22.000Z</time>
      </trkpt>
      <trkpt lat="22.938659" lon="109.773324">
        <ele>84.935964</ele>
        <time>2026-08-15T07:56:23.000Z</time>
      </trkpt>
      <trkpt lat="22.938620" lon="109.773351">
        <ele>84.969285</ele>
        <time>2026-08-15T07:56:24.000Z</time>
      </trkpt>
      <trkpt lat="22.938583" lon="109.773379">
        <ele>85.001775</ele>
        <time>2026-08-15T07:56:25.000Z</time>
      </trkpt>
      <trkpt lat="22.938546" lon="109.773408">
        <ele>85.034649</ele>
        <time>2026-08-15T07:56:26.000Z</time>
      </trkpt>
      <trkpt lat="22.938508" lon="109.773437">
        <ele>85.068110</ele>
        <time>2026-08-15T07:56:27.000Z</time>
      </trkpt>
      <trkpt lat="22.938470" lon="109.773464">
        <ele>85.100826</ele>
        <time>2026-08-15T07:56:28.000Z</time>
      </trkpt>
      <trkpt lat="22.938433" lon="109.773491">
        <ele>85.132942</ele>
        <time>2026-08-15T07:56:29.000Z</time>
      </trkpt>
      <trkpt lat="22.938395" lon="109.773519">
        <ele>85.166026</ele>
        <time>2026-08-15T07:56:30.000Z</time>
      </trkpt>
      <trkpt lat="22.938358" lon="109.773546">
        <ele>85.198141</ele>
        <time>2026-08-15T07:56:31.000Z</time>
      </trkpt>
      <trkpt lat="22.938320" lon="109.773574">
        <ele>85.231225</ele>
        <time>2026-08-15T07:56:32.000Z</time>
      </trkpt>
      <trkpt lat="22.938282" lon="109.773603">
        <ele>85.264686</ele>
        <time>2026-08-15T07:56:33.000Z</time>
      </trkpt>
      <trkpt lat="22.938245" lon="109.773630">
        <ele>85.296802</ele>
        <time>2026-08-15T07:56:34.000Z</time>
      </trkpt>
      <trkpt lat="22.938207" lon="109.773656">
        <ele>85.329159</ele>
        <time>2026-08-15T07:56:35.000Z</time>
      </trkpt>
      <trkpt lat="22.938169" lon="109.773683">
        <ele>85.361875</ele>
        <time>2026-08-15T07:56:36.000Z</time>
      </trkpt>
      <trkpt lat="22.938131" lon="109.773711">
        <ele>85.395659</ele>
        <time>2026-08-15T07:56:37.000Z</time>
      </trkpt>
      <trkpt lat="22.938093" lon="109.773739">
        <ele>85.434707</ele>
        <time>2026-08-15T07:56:38.000Z</time>
      </trkpt>
      <trkpt lat="22.938056" lon="109.773765">
        <ele>85.472181</ele>
        <time>2026-08-15T07:56:39.000Z</time>
      </trkpt>
      <trkpt lat="22.938020" lon="109.773791">
        <ele>85.508944</ele>
        <time>2026-08-15T07:56:40.000Z</time>
      </trkpt>
      <trkpt lat="22.937985" lon="109.773817">
        <ele>85.545002</ele>
        <time>2026-08-15T07:56:41.000Z</time>
      </trkpt>
      <trkpt lat="22.937951" lon="109.773841">
        <ele>85.579483</ele>
        <time>2026-08-15T07:56:42.000Z</time>
      </trkpt>
      <trkpt lat="22.937916" lon="109.773865">
        <ele>85.614681</ele>
        <time>2026-08-15T07:56:43.000Z</time>
      </trkpt>
      <trkpt lat="22.937882" lon="109.773890">
        <ele>85.649596</ele>
        <time>2026-08-15T07:56:44.000Z</time>
      </trkpt>
      <trkpt lat="22.937849" lon="109.773914">
        <ele>85.683368</ele>
        <time>2026-08-15T07:56:45.000Z</time>
      </trkpt>
      <trkpt lat="22.937817" lon="109.773937">
        <ele>85.715998</ele>
        <time>2026-08-15T07:56:46.000Z</time>
      </trkpt>
      <trkpt lat="22.937784" lon="109.773959">
        <ele>85.748924</ele>
        <time>2026-08-15T07:56:47.000Z</time>
      </trkpt>
      <trkpt lat="22.937753" lon="109.773982">
        <ele>85.780848</ele>
        <time>2026-08-15T07:56:48.000Z</time>
      </trkpt>
      <trkpt lat="22.937723" lon="109.774005">
        <ele>85.812075</ele>
        <time>2026-08-15T07:56:49.000Z</time>
      </trkpt>
      <trkpt lat="22.937694" lon="109.774027">
        <ele>85.842155</ele>
        <time>2026-08-15T07:56:50.000Z</time>
      </trkpt>
      <trkpt lat="22.937664" lon="109.774049">
        <ele>85.872936</ele>
        <time>2026-08-15T07:56:51.000Z</time>
      </trkpt>
      <trkpt lat="22.937634" lon="109.774073">
        <ele>85.904620</ele>
        <time>2026-08-15T07:56:52.000Z</time>
      </trkpt>
      <trkpt lat="22.937603" lon="109.774096">
        <ele>85.936545</ele>
        <time>2026-08-15T07:56:53.000Z</time>
      </trkpt>
      <trkpt lat="22.937572" lon="109.774117">
        <ele>85.967613</ele>
        <time>2026-08-15T07:56:54.000Z</time>
      </trkpt>
      <trkpt lat="22.937540" lon="109.774139">
        <ele>85.999818</ele>
        <time>2026-08-15T07:56:55.000Z</time>
      </trkpt>
      <trkpt lat="22.937509" lon="109.774158">
        <ele>86.030086</ele>
        <time>2026-08-15T07:56:56.000Z</time>
      </trkpt>
      <trkpt lat="22.937482" lon="109.774176">
        <ele>86.057025</ele>
        <time>2026-08-15T07:56:57.000Z</time>
      </trkpt>
      <trkpt lat="22.937456" lon="109.774195">
        <ele>86.083673</ele>
        <time>2026-08-15T07:56:58.000Z</time>
      </trkpt>
      <trkpt lat="22.937426" lon="109.774212">
        <ele>86.112447</ele>
        <time>2026-08-15T07:56:59.000Z</time>
      </trkpt>
      <trkpt lat="22.937396" lon="109.774232">
        <ele>86.142380</ele>
        <time>2026-08-15T07:57:00.000Z</time>
      </trkpt>
      <trkpt lat="22.937366" lon="109.774253">
        <ele>86.172729</ele>
        <time>2026-08-15T07:57:01.000Z</time>
      </trkpt>
      <trkpt lat="22.937335" lon="109.774274">
        <ele>86.203797</ele>
        <time>2026-08-15T07:57:02.000Z</time>
      </trkpt>
      <trkpt lat="22.937307" lon="109.774295">
        <ele>86.232733</ele>
        <time>2026-08-15T07:57:03.000Z</time>
      </trkpt>
      <trkpt lat="22.937278" lon="109.774315">
        <ele>86.261944</ele>
        <time>2026-08-15T07:57:04.000Z</time>
      </trkpt>
      <trkpt lat="22.937249" lon="109.774337">
        <ele>86.292025</ele>
        <time>2026-08-15T07:57:05.000Z</time>
      </trkpt>
      <trkpt lat="22.937219" lon="109.774358">
        <ele>86.322375</ele>
        <time>2026-08-15T07:57:06.000Z</time>
      </trkpt>
      <trkpt lat="22.937187" lon="109.774378">
        <ele>86.353769</ele>
        <time>2026-08-15T07:57:07.000Z</time>
      </trkpt>
      <trkpt lat="22.937154" lon="109.774398">
        <ele>86.385904</ele>
        <time>2026-08-15T07:57:08.000Z</time>
      </trkpt>
      <trkpt lat="22.937120" lon="109.774419">
        <ele>86.419164</ele>
        <time>2026-08-15T07:57:09.000Z</time>
      </trkpt>
      <trkpt lat="22.937085" lon="109.774440">
        <ele>86.453165</ele>
        <time>2026-08-15T07:57:10.000Z</time>
      </trkpt>
      <trkpt lat="22.937050" lon="109.774462">
        <ele>86.487552</ele>
        <time>2026-08-15T07:57:11.000Z</time>
      </trkpt>
      <trkpt lat="22.937014" lon="109.774484">
        <ele>86.522677</ele>
        <time>2026-08-15T07:57:12.000Z</time>
      </trkpt>
      <trkpt lat="22.936976" lon="109.774505">
        <ele>86.558932</ele>
        <time>2026-08-15T07:57:13.000Z</time>
      </trkpt>
      <trkpt lat="22.936937" lon="109.774525">
        <ele>86.595606</ele>
        <time>2026-08-15T07:57:14.000Z</time>
      </trkpt>
      <trkpt lat="22.936897" lon="109.774545">
        <ele>86.633050</ele>
        <time>2026-08-15T07:57:15.000Z</time>
      </trkpt>
      <trkpt lat="22.936857" lon="109.774566">
        <ele>86.670829</ele>
        <time>2026-08-15T07:57:16.000Z</time>
      </trkpt>
      <trkpt lat="22.936818" lon="109.774587">
        <ele>86.707844</ele>
        <time>2026-08-15T07:57:17.000Z</time>
      </trkpt>
      <trkpt lat="22.936778" lon="109.774607">
        <ele>86.745288</ele>
        <time>2026-08-15T07:57:18.000Z</time>
      </trkpt>
      <trkpt lat="22.936738" lon="109.774628">
        <ele>86.783067</ele>
        <time>2026-08-15T07:57:19.000Z</time>
      </trkpt>
      <trkpt lat="22.936696" lon="109.774649">
        <ele>86.822383</ele>
        <time>2026-08-15T07:57:20.000Z</time>
      </trkpt>
      <trkpt lat="22.936653" lon="109.774669">
        <ele>86.862159</ele>
        <time>2026-08-15T07:57:21.000Z</time>
      </trkpt>
      <trkpt lat="22.936610" lon="109.774689">
        <ele>86.901935</ele>
        <time>2026-08-15T07:57:22.000Z</time>
      </trkpt>
      <trkpt lat="22.936567" lon="109.774708">
        <ele>86.936577</ele>
        <time>2026-08-15T07:57:23.000Z</time>
      </trkpt>
      <trkpt lat="22.936524" lon="109.774727">
        <ele>86.966947</ele>
        <time>2026-08-15T07:57:24.000Z</time>
      </trkpt>
      <trkpt lat="22.936481" lon="109.774747">
        <ele>86.997551</ele>
        <time>2026-08-15T07:57:25.000Z</time>
      </trkpt>
      <trkpt lat="22.936437" lon="109.774765">
        <ele>87.028311</ele>
        <time>2026-08-15T07:57:26.000Z</time>
      </trkpt>
      <trkpt lat="22.936394" lon="109.774783">
        <ele>87.058460</ele>
        <time>2026-08-15T07:57:27.000Z</time>
      </trkpt>
      <trkpt lat="22.936351" lon="109.774802">
        <ele>87.088831</ele>
        <time>2026-08-15T07:57:28.000Z</time>
      </trkpt>
      <trkpt lat="22.936307" lon="109.774820">
        <ele>87.119591</ele>
        <time>2026-08-15T07:57:29.000Z</time>
      </trkpt>
      <trkpt lat="22.936265" lon="109.774837">
        <ele>87.148915</ele>
        <time>2026-08-15T07:57:30.000Z</time>
      </trkpt>
      <trkpt lat="22.936223" lon="109.774855">
        <ele>87.178454</ele>
        <time>2026-08-15T07:57:31.000Z</time>
      </trkpt>
      <trkpt lat="22.936180" lon="109.774872">
        <ele>87.208392</ele>
        <time>2026-08-15T07:57:32.000Z</time>
      </trkpt>
      <trkpt lat="22.936139" lon="109.774888">
        <ele>87.236894</ele>
        <time>2026-08-15T07:57:33.000Z</time>
      </trkpt>
      <trkpt lat="22.936096" lon="109.774903">
        <ele>87.266441</ele>
        <time>2026-08-15T07:57:34.000Z</time>
      </trkpt>
      <trkpt lat="22.936055" lon="109.774919">
        <ele>87.294943</ele>
        <time>2026-08-15T07:57:35.000Z</time>
      </trkpt>
      <trkpt lat="22.936014" lon="109.774929">
        <ele>87.322434</ele>
        <time>2026-08-15T07:57:36.000Z</time>
      </trkpt>
      <trkpt lat="22.935972" lon="109.774948">
        <ele>87.352200</ele>
        <time>2026-08-15T07:57:37.000Z</time>
      </trkpt>
      <trkpt lat="22.935930" lon="109.774964">
        <ele>87.381319</ele>
        <time>2026-08-15T07:57:38.000Z</time>
      </trkpt>
      <trkpt lat="22.935889" lon="109.774981">
        <ele>87.410031</ele>
        <time>2026-08-15T07:57:39.000Z</time>
      </trkpt>
      <trkpt lat="22.935846" lon="109.774997">
        <ele>87.439768</ele>
        <time>2026-08-15T07:57:40.000Z</time>
      </trkpt>
      <trkpt lat="22.935805" lon="109.775014">
        <ele>87.468479</ele>
        <time>2026-08-15T07:57:41.000Z</time>
      </trkpt>
      <trkpt lat="22.935765" lon="109.775030">
        <ele>87.496367</ele>
        <time>2026-08-15T07:57:42.000Z</time>
      </trkpt>
      <trkpt lat="22.935723" lon="109.775049">
        <ele>87.526133</ele>
        <time>2026-08-15T07:57:43.000Z</time>
      </trkpt>
      <trkpt lat="22.935681" lon="109.775070">
        <ele>87.556383</ele>
        <time>2026-08-15T07:57:44.000Z</time>
      </trkpt>
      <trkpt lat="22.935641" lon="109.775089">
        <ele>87.584945</ele>
        <time>2026-08-15T07:57:45.000Z</time>
      </trkpt>
      <trkpt lat="22.935601" lon="109.775108">
        <ele>87.613508</ele>
        <time>2026-08-15T07:57:46.000Z</time>
      </trkpt>
      <trkpt lat="22.935560" lon="109.775124">
        <ele>87.642010</ele>
        <time>2026-08-15T07:57:47.000Z</time>
      </trkpt>
      <trkpt lat="22.935520" lon="109.775141">
        <ele>87.670112</ele>
        <time>2026-08-15T07:57:48.000Z</time>
      </trkpt>
      <trkpt lat="22.935480" lon="109.775157">
        <ele>87.697999</ele>
        <time>2026-08-15T07:57:49.000Z</time>
      </trkpt>
      <trkpt lat="22.935438" lon="109.775174">
        <ele>87.727323</ele>
        <time>2026-08-15T07:57:50.000Z</time>
      </trkpt>
      <trkpt lat="22.935397" lon="109.775193">
        <ele>87.756486</ele>
        <time>2026-08-15T07:57:51.000Z</time>
      </trkpt>
      <trkpt lat="22.935357" lon="109.775212">
        <ele>87.785049</ele>
        <time>2026-08-15T07:57:52.000Z</time>
      </trkpt>
      <trkpt lat="22.935315" lon="109.775232">
        <ele>87.815052</ele>
        <time>2026-08-15T07:57:53.000Z</time>
      </trkpt>
      <trkpt lat="22.935274" lon="109.775250">
        <ele>87.843984</ele>
        <time>2026-08-15T07:57:54.000Z</time>
      </trkpt>
      <trkpt lat="22.935232" lon="109.775269">
        <ele>87.873750</ele>
        <time>2026-08-15T07:57:55.000Z</time>
      </trkpt>
      <trkpt lat="22.935191" lon="109.775288">
        <ele>87.902913</ele>
        <time>2026-08-15T07:57:56.000Z</time>
      </trkpt>
      <trkpt lat="22.935149" lon="109.775306">
        <ele>87.932452</ele>
        <time>2026-08-15T07:57:57.000Z</time>
      </trkpt>
      <trkpt lat="22.935107" lon="109.775324">
        <ele>87.961992</ele>
        <time>2026-08-15T07:57:58.000Z</time>
      </trkpt>
      <trkpt lat="22.935066" lon="109.775341">
        <ele>87.990704</ele>
        <time>2026-08-15T07:57:59.000Z</time>
      </trkpt>
      <trkpt lat="22.935024" lon="109.775360">
        <ele>88.020470</ele>
        <time>2026-08-15T07:58:00.000Z</time>
      </trkpt>
      <trkpt lat="22.934982" lon="109.775380">
        <ele>88.050473</ele>
        <time>2026-08-15T07:58:01.000Z</time>
      </trkpt>
      <trkpt lat="22.934939" lon="109.775400">
        <ele>88.081076</ele>
        <time>2026-08-15T07:58:02.000Z</time>
      </trkpt>
      <trkpt lat="22.934896" lon="109.775419">
        <ele>88.072594</ele>
        <time>2026-08-15T07:58:03.000Z</time>
      </trkpt>
      <trkpt lat="22.934853" lon="109.775437">
        <ele>88.020842</ele>
        <time>2026-08-15T07:58:04.000Z</time>
      </trkpt>
      <trkpt lat="22.934812" lon="109.775456">
        <ele>87.970782</ele>
        <time>2026-08-15T07:58:05.000Z</time>
      </trkpt>
      <trkpt lat="22.934770" lon="109.775476">
        <ele>87.919280</ele>
        <time>2026-08-15T07:58:06.000Z</time>
      </trkpt>
      <trkpt lat="22.934731" lon="109.775495">
        <ele>87.871278</ele>
        <time>2026-08-15T07:58:07.000Z</time>
      </trkpt>
      <trkpt lat="22.934691" lon="109.775512">
        <ele>87.823040</ele>
        <time>2026-08-15T07:58:08.000Z</time>
      </trkpt>
      <trkpt lat="22.934649" lon="109.775531">
        <ele>87.771945</ele>
        <time>2026-08-15T07:58:09.000Z</time>
      </trkpt>
      <trkpt lat="22.934607" lon="109.775547">
        <ele>87.721961</ele>
        <time>2026-08-15T07:58:10.000Z</time>
      </trkpt>
      <trkpt lat="22.934566" lon="109.775563">
        <ele>87.673036</ele>
        <time>2026-08-15T07:58:11.000Z</time>
      </trkpt>
      <trkpt lat="22.934523" lon="109.775572">
        <ele>87.623858</ele>
        <time>2026-08-15T07:58:12.000Z</time>
      </trkpt>
      <trkpt lat="22.934482" lon="109.775584">
        <ele>87.576173</ele>
        <time>2026-08-15T07:58:13.000Z</time>
      </trkpt>
      <trkpt lat="22.934440" lon="109.775598">
        <ele>87.526835</ele>
        <time>2026-08-15T07:58:14.000Z</time>
      </trkpt>
      <trkpt lat="22.934398" lon="109.775615">
        <ele>87.476499</ele>
        <time>2026-08-15T07:58:15.000Z</time>
      </trkpt>
      <trkpt lat="22.934349" lon="109.775629">
        <ele>87.419600</ele>
        <time>2026-08-15T07:58:16.000Z</time>
      </trkpt>
      <trkpt lat="22.934307" lon="109.775649">
        <ele>87.368099</ele>
        <time>2026-08-15T07:58:17.000Z</time>
      </trkpt>
      <trkpt lat="22.934264" lon="109.775663">
        <ele>87.317686</ele>
        <time>2026-08-15T07:58:18.000Z</time>
      </trkpt>
      <trkpt lat="22.934216" lon="109.775678">
        <ele>87.261595</ele>
        <time>2026-08-15T07:58:19.000Z</time>
      </trkpt>
      <trkpt lat="22.934175" lon="109.775692">
        <ele>87.213330</ele>
        <time>2026-08-15T07:58:20.000Z</time>
      </trkpt>
      <trkpt lat="22.934139" lon="109.775709">
        <ele>87.169245</ele>
        <time>2026-08-15T07:58:21.000Z</time>
      </trkpt>
      <trkpt lat="22.934101" lon="109.775730">
        <ele>87.121362</ele>
        <time>2026-08-15T07:58:22.000Z</time>
      </trkpt>
      <trkpt lat="22.934066" lon="109.775753">
        <ele>87.075420</ele>
        <time>2026-08-15T07:58:23.000Z</time>
      </trkpt>
      <trkpt lat="22.934023" lon="109.775772">
        <ele>87.023287</ele>
        <time>2026-08-15T07:58:24.000Z</time>
      </trkpt>
      <trkpt lat="22.933979" lon="109.775794">
        <ele>86.968889</ele>
        <time>2026-08-15T07:58:25.000Z</time>
      </trkpt>
      <trkpt lat="22.933934" lon="109.775819">
        <ele>86.912124</ele>
        <time>2026-08-15T07:58:26.000Z</time>
      </trkpt>
      <trkpt lat="22.933890" lon="109.775847">
        <ele>86.854853</ele>
        <time>2026-08-15T07:58:27.000Z</time>
      </trkpt>
      <trkpt lat="22.933843" lon="109.775872">
        <ele>86.796080</ele>
        <time>2026-08-15T07:58:28.000Z</time>
      </trkpt>
      <trkpt lat="22.933805" lon="109.775902">
        <ele>86.743319</ele>
        <time>2026-08-15T07:58:29.000Z</time>
      </trkpt>
      <trkpt lat="22.933760" lon="109.775928">
        <ele>86.686076</ele>
        <time>2026-08-15T07:58:30.000Z</time>
      </trkpt>
      <trkpt lat="22.933712" lon="109.775958">
        <ele>86.623881</ele>
        <time>2026-08-15T07:58:31.000Z</time>
      </trkpt>
      <trkpt lat="22.933661" lon="109.775990">
        <ele>86.557734</ele>
        <time>2026-08-15T07:58:32.000Z</time>
      </trkpt>
      <trkpt lat="22.933610" lon="109.776024">
        <ele>86.490529</ele>
        <time>2026-08-15T07:58:33.000Z</time>
      </trkpt>
      <trkpt lat="22.933555" lon="109.776060">
        <ele>86.418411</ele>
        <time>2026-08-15T07:58:34.000Z</time>
      </trkpt>
      <trkpt lat="22.933498" lon="109.776097">
        <ele>86.343835</ele>
        <time>2026-08-15T07:58:35.000Z</time>
      </trkpt>
      <trkpt lat="22.933437" lon="109.776135">
        <ele>86.264860</ele>
        <time>2026-08-15T07:58:36.000Z</time>
      </trkpt>
      <trkpt lat="22.933375" lon="109.776176">
        <ele>86.183339</ele>
        <time>2026-08-15T07:58:37.000Z</time>
      </trkpt>
      <trkpt lat="22.933307" lon="109.776217">
        <ele>86.095993</ele>
        <time>2026-08-15T07:58:38.000Z</time>
      </trkpt>
      <trkpt lat="22.933238" lon="109.776260">
        <ele>85.960535</ele>
        <time>2026-08-15T07:58:39.000Z</time>
      </trkpt>
      <trkpt lat="22.933171" lon="109.776304">
        <ele>85.815203</ele>
        <time>2026-08-15T07:58:40.000Z</time>
      </trkpt>
      <trkpt lat="22.933104" lon="109.776345">
        <ele>85.672457</ele>
        <time>2026-08-15T07:58:41.000Z</time>
      </trkpt>
      <trkpt lat="22.933038" lon="109.776387">
        <ele>85.530468</ele>
        <time>2026-08-15T07:58:42.000Z</time>
      </trkpt>
      <trkpt lat="22.932972" lon="109.776428">
        <ele>85.389336</ele>
        <time>2026-08-15T07:58:43.000Z</time>
      </trkpt>
      <trkpt lat="22.932908" lon="109.776467">
        <ele>85.253119</ele>
        <time>2026-08-15T07:58:44.000Z</time>
      </trkpt>
      <trkpt lat="22.932846" lon="109.776507">
        <ele>85.119262</ele>
        <time>2026-08-15T07:58:45.000Z</time>
      </trkpt>
      <trkpt lat="22.932783" lon="109.776546">
        <ele>84.984661</ele>
        <time>2026-08-15T07:58:46.000Z</time>
      </trkpt>
      <trkpt lat="22.932723" lon="109.776584">
        <ele>84.855737</ele>
        <time>2026-08-15T07:58:47.000Z</time>
      </trkpt>
      <trkpt lat="22.932663" lon="109.776622">
        <ele>84.726813</ele>
        <time>2026-08-15T07:58:48.000Z</time>
      </trkpt>
      <trkpt lat="22.932604" lon="109.776659">
        <ele>84.600353</ele>
        <time>2026-08-15T07:58:49.000Z</time>
      </trkpt>
      <trkpt lat="22.932546" lon="109.776696">
        <ele>84.475496</ele>
        <time>2026-08-15T07:58:50.000Z</time>
      </trkpt>
      <trkpt lat="22.932489" lon="109.776733">
        <ele>84.352236</ele>
        <time>2026-08-15T07:58:51.000Z</time>
      </trkpt>
      <trkpt lat="22.932433" lon="109.776769">
        <ele>84.231446</ele>
        <time>2026-08-15T07:58:52.000Z</time>
      </trkpt>
      <trkpt lat="22.932380" lon="109.776809">
        <ele>84.111645</ele>
        <time>2026-08-15T07:58:53.000Z</time>
      </trkpt>
      <trkpt lat="22.932327" lon="109.776847">
        <ele>83.993762</ele>
        <time>2026-08-15T07:58:54.000Z</time>
      </trkpt>
      <trkpt lat="22.932271" lon="109.776884">
        <ele>83.872092</ele>
        <time>2026-08-15T07:58:55.000Z</time>
      </trkpt>
      <trkpt lat="22.932215" lon="109.776920">
        <ele>83.751301</ele>
        <time>2026-08-15T07:58:56.000Z</time>
      </trkpt>
      <trkpt lat="22.932161" lon="109.776958">
        <ele>83.631865</ele>
        <time>2026-08-15T07:58:57.000Z</time>
      </trkpt>
      <trkpt lat="22.932105" lon="109.776995">
        <ele>83.510194</ele>
        <time>2026-08-15T07:58:58.000Z</time>
      </trkpt>
      <trkpt lat="22.932045" lon="109.777032">
        <ele>83.382123</ele>
        <time>2026-08-15T07:58:59.000Z</time>
      </trkpt>
      <trkpt lat="22.931984" lon="109.777068">
        <ele>83.253260</ele>
        <time>2026-08-15T07:59:00.000Z</time>
      </trkpt>
      <trkpt lat="22.931924" lon="109.777105">
        <ele>83.125188</ele>
        <time>2026-08-15T07:59:01.000Z</time>
      </trkpt>
      <trkpt lat="22.931860" lon="109.777144">
        <ele>82.988971</ele>
        <time>2026-08-15T07:59:02.000Z</time>
      </trkpt>
      <trkpt lat="22.931793" lon="109.777190">
        <ele>82.841840</ele>
        <time>2026-08-15T07:59:03.000Z</time>
      </trkpt>
      <trkpt lat="22.931725" lon="109.777233">
        <ele>82.726114</ele>
        <time>2026-08-15T07:59:04.000Z</time>
      </trkpt>
      <trkpt lat="22.931656" lon="109.777274">
        <ele>82.682857</ele>
        <time>2026-08-15T07:59:05.000Z</time>
      </trkpt>
      <trkpt lat="22.931587" lon="109.777317">
        <ele>82.639105</ele>
        <time>2026-08-15T07:59:06.000Z</time>
      </trkpt>
      <trkpt lat="22.931516" lon="109.777360">
        <ele>82.594395</ele>
        <time>2026-08-15T07:59:07.000Z</time>
      </trkpt>
      <trkpt lat="22.931444" lon="109.777405">
        <ele>82.548707</ele>
        <time>2026-08-15T07:59:08.000Z</time>
      </trkpt>
      <trkpt lat="22.931371" lon="109.777450">
        <ele>82.502543</ele>
        <time>2026-08-15T07:59:09.000Z</time>
      </trkpt>
      <trkpt lat="22.931299" lon="109.777494">
        <ele>82.457106</ele>
        <time>2026-08-15T07:59:10.000Z</time>
      </trkpt>
      <trkpt lat="22.931228" lon="109.777537">
        <ele>82.412396</ele>
        <time>2026-08-15T07:59:11.000Z</time>
      </trkpt>
      <trkpt lat="22.931156" lon="109.777581">
        <ele>82.366959</ele>
        <time>2026-08-15T07:59:12.000Z</time>
      </trkpt>
      <trkpt lat="22.931086" lon="109.777624">
        <ele>82.322729</ele>
        <time>2026-08-15T07:59:13.000Z</time>
      </trkpt>
      <trkpt lat="22.931017" lon="109.777669">
        <ele>82.278464</ele>
        <time>2026-08-15T07:59:14.000Z</time>
      </trkpt>
      <trkpt lat="22.930949" lon="109.777714">
        <ele>82.234669</ele>
        <time>2026-08-15T07:59:15.000Z</time>
      </trkpt>
      <trkpt lat="22.930885" lon="109.777757">
        <ele>82.193279</ele>
        <time>2026-08-15T07:59:16.000Z</time>
      </trkpt>
      <trkpt lat="22.930821" lon="109.777800">
        <ele>82.151889</ele>
        <time>2026-08-15T07:59:17.000Z</time>
      </trkpt>
      <trkpt lat="22.930758" lon="109.777842">
        <ele>82.111233</ele>
        <time>2026-08-15T07:59:18.000Z</time>
      </trkpt>
      <trkpt lat="22.930698" lon="109.777883">
        <ele>82.072245</ele>
        <time>2026-08-15T07:59:19.000Z</time>
      </trkpt>
      <trkpt lat="22.930637" lon="109.777923">
        <ele>82.033055</ele>
        <time>2026-08-15T07:59:20.000Z</time>
      </trkpt>
      <trkpt lat="22.930573" lon="109.777959">
        <ele>81.993416</ele>
        <time>2026-08-15T07:59:21.000Z</time>
      </trkpt>
      <trkpt lat="22.930510" lon="109.777995">
        <ele>81.954264</ele>
        <time>2026-08-15T07:59:22.000Z</time>
      </trkpt>
      <trkpt lat="22.930447" lon="109.778032">
        <ele>81.914874</ele>
        <time>2026-08-15T07:59:23.000Z</time>
      </trkpt>
      <trkpt lat="22.930386" lon="109.778069">
        <ele>81.876447</ele>
        <time>2026-08-15T07:59:24.000Z</time>
      </trkpt>
      <trkpt lat="22.930325" lon="109.778107">
        <ele>81.837771</ele>
        <time>2026-08-15T07:59:25.000Z</time>
      </trkpt>
      <trkpt lat="22.930266" lon="109.778145">
        <ele>81.800045</ele>
        <time>2026-08-15T07:59:26.000Z</time>
      </trkpt>
      <trkpt lat="22.930206" lon="109.778182">
        <ele>81.762098</ele>
        <time>2026-08-15T07:59:27.000Z</time>
      </trkpt>
      <trkpt lat="22.930146" lon="109.778217">
        <ele>81.857717</ele>
        <time>2026-08-15T07:59:28.000Z</time>
      </trkpt>
      <trkpt lat="22.930088" lon="109.778250">
        <ele>82.012776</ele>
        <time>2026-08-15T07:59:29.000Z</time>
      </trkpt>
      <trkpt lat="22.930031" lon="109.778282">
        <ele>82.164728</ele>
        <time>2026-08-15T07:59:30.000Z</time>
      </trkpt>
      <trkpt lat="22.929974" lon="109.778312">
        <ele>82.314726</ele>
        <time>2026-08-15T07:59:31.000Z</time>
      </trkpt>
      <trkpt lat="22.929919" lon="109.778343">
        <ele>82.461470</ele>
        <time>2026-08-15T07:59:32.000Z</time>
      </trkpt>
      <trkpt lat="22.929864" lon="109.778373">
        <ele>82.607221</ele>
        <time>2026-08-15T07:59:33.000Z</time>
      </trkpt>
      <trkpt lat="22.929812" lon="109.778399">
        <ele>82.742787</ele>
        <time>2026-08-15T07:59:34.000Z</time>
      </trkpt>
      <trkpt lat="22.929764" lon="109.778423">
        <ele>82.867924</ele>
        <time>2026-08-15T07:59:35.000Z</time>
      </trkpt>
      <trkpt lat="22.929718" lon="109.778446">
        <ele>82.987847</ele>
        <time>2026-08-15T07:59:36.000Z</time>
      </trkpt>
      <trkpt lat="22.929673" lon="109.778466">
        <ele>83.102990</ele>
        <time>2026-08-15T07:59:37.000Z</time>
      </trkpt>
      <trkpt lat="22.929629" lon="109.778486">
        <ele>83.215944</ele>
        <time>2026-08-15T07:59:38.000Z</time>
      </trkpt>
      <trkpt lat="22.929588" lon="109.778501">
        <ele>83.318396</ele>
        <time>2026-08-15T07:59:39.000Z</time>
      </trkpt>
      <trkpt lat="22.929549" lon="109.778518">
        <ele>83.417913</ele>
        <time>2026-08-15T07:59:40.000Z</time>
      </trkpt>
      <trkpt lat="22.929510" lon="109.778533">
        <ele>83.515889</ele>
        <time>2026-08-15T07:59:41.000Z</time>
      </trkpt>
      <trkpt lat="22.929472" lon="109.778549">
        <ele>83.612403</ele>
        <time>2026-08-15T07:59:42.000Z</time>
      </trkpt>
      <trkpt lat="22.929437" lon="109.778562">
        <ele>83.699999</ele>
        <time>2026-08-15T07:59:43.000Z</time>
      </trkpt>
      <trkpt lat="22.929403" lon="109.778575">
        <ele>83.785357</ele>
        <time>2026-08-15T07:59:44.000Z</time>
      </trkpt>
      <trkpt lat="22.929370" lon="109.778588">
        <ele>83.868486</ele>
        <time>2026-08-15T07:59:45.000Z</time>
      </trkpt>
      <trkpt lat="22.929338" lon="109.778601">
        <ele>83.949393</ele>
        <time>2026-08-15T07:59:46.000Z</time>
      </trkpt>
      <trkpt lat="22.929307" lon="109.778613">
        <ele>84.027328</ele>
        <time>2026-08-15T07:59:47.000Z</time>
      </trkpt>
      <trkpt lat="22.929274" lon="109.778625">
        <ele>84.109738</ele>
        <time>2026-08-15T07:59:48.000Z</time>
      </trkpt>
      <trkpt lat="22.929241" lon="109.778637">
        <ele>84.192149</ele>
        <time>2026-08-15T07:59:49.000Z</time>
      </trkpt>
      <trkpt lat="22.929208" lon="109.778648">
        <ele>84.273893</ele>
        <time>2026-08-15T07:59:50.000Z</time>
      </trkpt>
      <trkpt lat="22.929174" lon="109.778659">
        <ele>84.357904</ele>
        <time>2026-08-15T07:59:51.000Z</time>
      </trkpt>
      <trkpt lat="22.929139" lon="109.778671">
        <ele>84.444818</ele>
        <time>2026-08-15T07:59:52.000Z</time>
      </trkpt>
      <trkpt lat="22.929104" lon="109.778681">
        <ele>84.530520</ele>
        <time>2026-08-15T07:59:53.000Z</time>
      </trkpt>
      <trkpt lat="22.929068" lon="109.778692">
        <ele>84.619080</ele>
        <time>2026-08-15T07:59:54.000Z</time>
      </trkpt>
      <trkpt lat="22.929032" lon="109.778703">
        <ele>84.707640</ele>
        <time>2026-08-15T07:59:55.000Z</time>
      </trkpt>
      <trkpt lat="22.928996" lon="109.778716">
        <ele>84.797480</ele>
        <time>2026-08-15T07:59:56.000Z</time>
      </trkpt>
      <trkpt lat="22.928959" lon="109.778728">
        <ele>84.888922</ele>
        <time>2026-08-15T07:59:57.000Z</time>
      </trkpt>
      <trkpt lat="22.928920" lon="109.778740">
        <ele>84.984912</ele>
        <time>2026-08-15T07:59:58.000Z</time>
      </trkpt>
      <trkpt lat="22.928882" lon="109.778752">
        <ele>85.078625</ele>
        <time>2026-08-15T07:59:59.000Z</time>
      </trkpt>
      <trkpt lat="22.928843" lon="109.778765">
        <ele>85.175232</ele>
        <time>2026-08-15T08:00:00.000Z</time>
      </trkpt>
      <trkpt lat="22.928806" lon="109.778778">
        <ele>85.267321</ele>
        <time>2026-08-15T08:00:01.000Z</time>
      </trkpt>
      <trkpt lat="22.928769" lon="109.778790">
        <ele>85.358763</ele>
        <time>2026-08-15T08:00:02.000Z</time>
      </trkpt>
      <trkpt lat="22.928731" lon="109.778804">
        <ele>85.453787</ele>
        <time>2026-08-15T08:00:03.000Z</time>
      </trkpt>
      <trkpt lat="22.928694" lon="109.778816">
        <ele>85.545229</ele>
        <time>2026-08-15T08:00:04.000Z</time>
      </trkpt>
      <trkpt lat="22.928656" lon="109.778829">
        <ele>85.639575</ele>
        <time>2026-08-15T08:00:05.000Z</time>
      </trkpt>
      <trkpt lat="22.928618" lon="109.778841">
        <ele>85.733288</ele>
        <time>2026-08-15T08:00:06.000Z</time>
      </trkpt>
      <trkpt lat="22.928578" lon="109.778854">
        <ele>85.832161</ele>
        <time>2026-08-15T08:00:07.000Z</time>
      </trkpt>
      <trkpt lat="22.928539" lon="109.778866">
        <ele>85.928150</ele>
        <time>2026-08-15T08:00:08.000Z</time>
      </trkpt>
      <trkpt lat="22.928502" lon="109.778879">
        <ele>86.011746</ele>
        <time>2026-08-15T08:00:09.000Z</time>
      </trkpt>
      <trkpt lat="22.928466" lon="109.778891">
        <ele>86.033852</ele>
        <time>2026-08-15T08:00:10.000Z</time>
      </trkpt>
      <trkpt lat="22.928429" lon="109.778902">
        <ele>86.056371</ele>
        <time>2026-08-15T08:00:11.000Z</time>
      </trkpt>
      <trkpt lat="22.928393" lon="109.778914">
        <ele>86.078477</ele>
        <time>2026-08-15T08:00:12.000Z</time>
      </trkpt>
      <trkpt lat="22.928358" lon="109.778924">
        <ele>86.099722</ele>
        <time>2026-08-15T08:00:13.000Z</time>
      </trkpt>
      <trkpt lat="22.928326" lon="109.778935">
        <ele>86.119425</ele>
        <time>2026-08-15T08:00:14.000Z</time>
      </trkpt>
      <trkpt lat="22.928296" lon="109.778944">
        <ele>86.137696</ele>
        <time>2026-08-15T08:00:15.000Z</time>
      </trkpt>
      <trkpt lat="22.928268" lon="109.778954">
        <ele>86.154999</ele>
        <time>2026-08-15T08:00:16.000Z</time>
      </trkpt>
      <trkpt lat="22.928239" lon="109.778963">
        <ele>86.172704</ele>
        <time>2026-08-15T08:00:17.000Z</time>
      </trkpt>
      <trkpt lat="22.928210" lon="109.778973">
        <ele>86.190565</ele>
        <time>2026-08-15T08:00:18.000Z</time>
      </trkpt>
      <trkpt lat="22.928182" lon="109.778983">
        <ele>86.207868</ele>
        <time>2026-08-15T08:00:19.000Z</time>
      </trkpt>
      <trkpt lat="22.928152" lon="109.778995">
        <ele>86.226635</ele>
        <time>2026-08-15T08:00:20.000Z</time>
      </trkpt>
      <trkpt lat="22.928123" lon="109.779007">
        <ele>86.244853</ele>
        <time>2026-08-15T08:00:21.000Z</time>
      </trkpt>
      <trkpt lat="22.928091" lon="109.779019">
        <ele>86.264727</ele>
        <time>2026-08-15T08:00:22.000Z</time>
      </trkpt>
      <trkpt lat="22.928059" lon="109.779031">
        <ele>86.284600</ele>
        <time>2026-08-15T08:00:23.000Z</time>
      </trkpt>
      <trkpt lat="22.928027" lon="109.779042">
        <ele>86.304303</ele>
        <time>2026-08-15T08:00:24.000Z</time>
      </trkpt>
      <trkpt lat="22.927994" lon="109.779054">
        <ele>86.324733</ele>
        <time>2026-08-15T08:00:25.000Z</time>
      </trkpt>
      <trkpt lat="22.927959" lon="109.779067">
        <ele>86.346447</ele>
        <time>2026-08-15T08:00:26.000Z</time>
      </trkpt>
      <trkpt lat="22.927923" lon="109.779082">
        <ele>86.369082</ele>
        <time>2026-08-15T08:00:27.000Z</time>
      </trkpt>
      <trkpt lat="22.927888" lon="109.779095">
        <ele>86.390797</ele>
        <time>2026-08-15T08:00:28.000Z</time>
      </trkpt>
      <trkpt lat="22.927852" lon="109.779110">
        <ele>86.413432</ele>
        <time>2026-08-15T08:00:29.000Z</time>
      </trkpt>
      <trkpt lat="22.927816" lon="109.779126">
        <ele>86.436267</ele>
        <time>2026-08-15T08:00:30.000Z</time>
      </trkpt>
      <trkpt lat="22.927779" lon="109.779142">
        <ele>86.459645</ele>
        <time>2026-08-15T08:00:31.000Z</time>
      </trkpt>
      <trkpt lat="22.927740" lon="109.779159">
        <ele>86.484315</ele>
        <time>2026-08-15T08:00:32.000Z</time>
      </trkpt>
      <trkpt lat="22.927701" lon="109.779177">
        <ele>86.509191</ele>
        <time>2026-08-15T08:00:33.000Z</time>
      </trkpt>
      <trkpt lat="22.927661" lon="109.779194">
        <ele>86.534407</ele>
        <time>2026-08-15T08:00:34.000Z</time>
      </trkpt>
      <trkpt lat="22.927620" lon="109.779213">
        <ele>86.560575</ele>
        <time>2026-08-15T08:00:35.000Z</time>
      </trkpt>
      <trkpt lat="22.927577" lon="109.779232">
        <ele>86.587827</ele>
        <time>2026-08-15T08:00:36.000Z</time>
      </trkpt>
      <trkpt lat="22.927535" lon="109.779251">
        <ele>86.614536</ele>
        <time>2026-08-15T08:00:37.000Z</time>
      </trkpt>
      <trkpt lat="22.927493" lon="109.779272">
        <ele>86.641679</ele>
        <time>2026-08-15T08:00:38.000Z</time>
      </trkpt>
      <trkpt lat="22.927451" lon="109.779292">
        <ele>86.668601</ele>
        <time>2026-08-15T08:00:39.000Z</time>
      </trkpt>
      <trkpt lat="22.927407" lon="109.779315">
        <ele>86.697267</ele>
        <time>2026-08-15T08:00:40.000Z</time>
      </trkpt>
      <trkpt lat="22.927363" lon="109.779337">
        <ele>86.725703</ele>
        <time>2026-08-15T08:00:41.000Z</time>
      </trkpt>
      <trkpt lat="22.927321" lon="109.779360">
        <ele>86.753316</ele>
        <time>2026-08-15T08:00:42.000Z</time>
      </trkpt>
      <trkpt lat="22.927278" lon="109.779383">
        <ele>86.781454</ele>
        <time>2026-08-15T08:00:43.000Z</time>
      </trkpt>
      <trkpt lat="22.927236" lon="109.779404">
        <ele>86.808597</ele>
        <time>2026-08-15T08:00:44.000Z</time>
      </trkpt>
      <trkpt lat="22.927196" lon="109.779426">
        <ele>86.834919</ele>
        <time>2026-08-15T08:00:45.000Z</time>
      </trkpt>
      <trkpt lat="22.927155" lon="109.779448">
        <ele>86.861765</ele>
        <time>2026-08-15T08:00:46.000Z</time>
      </trkpt>
      <trkpt lat="22.927113" lon="109.779471">
        <ele>86.889378</ele>
        <time>2026-08-15T08:00:47.000Z</time>
      </trkpt>
      <trkpt lat="22.927071" lon="109.779494">
        <ele>86.916991</ele>
        <time>2026-08-15T08:00:48.000Z</time>
      </trkpt>
      <trkpt lat="22.927030" lon="109.779517">
        <ele>86.944081</ele>
        <time>2026-08-15T08:00:49.000Z</time>
      </trkpt>
      <trkpt lat="22.926989" lon="109.779539">
        <ele>86.970928</ele>
        <time>2026-08-15T08:00:50.000Z</time>
      </trkpt>
      <trkpt lat="22.926949" lon="109.779561">
        <ele>86.997249</ele>
        <time>2026-08-15T08:00:51.000Z</time>
      </trkpt>
      <trkpt lat="22.926909" lon="109.779583">
        <ele>87.023571</ele>
        <time>2026-08-15T08:00:52.000Z</time>
      </trkpt>
      <trkpt lat="22.926868" lon="109.779605">
        <ele>87.050417</ele>
        <time>2026-08-15T08:00:53.000Z</time>
      </trkpt>
      <trkpt lat="22.926828" lon="109.779629">
        <ele>87.096699</ele>
        <time>2026-08-15T08:00:54.000Z</time>
      </trkpt>
      <trkpt lat="22.926789" lon="109.779653">
        <ele>87.164091</ele>
        <time>2026-08-15T08:00:55.000Z</time>
      </trkpt>
      <trkpt lat="22.926749" lon="109.779676">
        <ele>87.232137</ele>
        <time>2026-08-15T08:00:56.000Z</time>
      </trkpt>
      <trkpt lat="22.926709" lon="109.779700">
        <ele>87.300841</ele>
        <time>2026-08-15T08:00:57.000Z</time>
      </trkpt>
      <trkpt lat="22.926670" lon="109.779724">
        <ele>87.368233</ele>
        <time>2026-08-15T08:00:58.000Z</time>
      </trkpt>
      <trkpt lat="22.926630" lon="109.779746">
        <ele>87.435642</ele>
        <time>2026-08-15T08:00:59.000Z</time>
      </trkpt>
      <trkpt lat="22.926592" lon="109.779767">
        <ele>87.499742</ele>
        <time>2026-08-15T08:01:00.000Z</time>
      </trkpt>
      <trkpt lat="22.926552" lon="109.779789">
        <ele>87.567151</ele>
        <time>2026-08-15T08:01:01.000Z</time>
      </trkpt>
      <trkpt lat="22.926513" lon="109.779811">
        <ele>87.633221</ele>
        <time>2026-08-15T08:01:02.000Z</time>
      </trkpt>
      <trkpt lat="22.926473" lon="109.779832">
        <ele>87.700016</ele>
        <time>2026-08-15T08:01:03.000Z</time>
      </trkpt>
      <trkpt lat="22.926432" lon="109.779855">
        <ele>87.769393</ele>
        <time>2026-08-15T08:01:04.000Z</time>
      </trkpt>
      <trkpt lat="22.926390" lon="109.779876">
        <ele>87.838906</ele>
        <time>2026-08-15T08:01:05.000Z</time>
      </trkpt>
      <trkpt lat="22.926349" lon="109.779899">
        <ele>87.908284</ele>
        <time>2026-08-15T08:01:06.000Z</time>
      </trkpt>
      <trkpt lat="22.926308" lon="109.779921">
        <ele>87.977037</ele>
        <time>2026-08-15T08:01:07.000Z</time>
      </trkpt>
      <trkpt lat="22.926267" lon="109.779944">
        <ele>88.046414</ele>
        <time>2026-08-15T08:01:08.000Z</time>
      </trkpt>
      <trkpt lat="22.926224" lon="109.779966">
        <ele>88.117875</ele>
        <time>2026-08-15T08:01:09.000Z</time>
      </trkpt>
      <trkpt lat="22.926183" lon="109.779988">
        <ele>88.186628</ele>
        <time>2026-08-15T08:01:10.000Z</time>
      </trkpt>
      <trkpt lat="22.926143" lon="109.780012">
        <ele>88.255332</ele>
        <time>2026-08-15T08:01:11.000Z</time>
      </trkpt>
      <trkpt lat="22.926102" lon="109.780034">
        <ele>88.324085</ele>
        <time>2026-08-15T08:01:12.000Z</time>
      </trkpt>
      <trkpt lat="22.926063" lon="109.780057">
        <ele>88.390805</ele>
        <time>2026-08-15T08:01:13.000Z</time>
      </trkpt>
      <trkpt lat="22.926024" lon="109.780079">
        <ele>88.456876</ele>
        <time>2026-08-15T08:01:14.000Z</time>
      </trkpt>
      <trkpt lat="22.925986" lon="109.780099">
        <ele>88.520361</ele>
        <time>2026-08-15T08:01:15.000Z</time>
      </trkpt>
      <trkpt lat="22.925948" lon="109.780120">
        <ele>88.584462</ele>
        <time>2026-08-15T08:01:16.000Z</time>
      </trkpt>
      <trkpt lat="22.925912" lon="109.780142">
        <ele>88.646565</ele>
        <time>2026-08-15T08:01:17.000Z</time>
      </trkpt>
      <trkpt lat="22.925877" lon="109.780163">
        <ele>88.706681</ele>
        <time>2026-08-15T08:01:18.000Z</time>
      </trkpt>
      <trkpt lat="22.925844" lon="109.780184">
        <ele>88.764184</ele>
        <time>2026-08-15T08:01:19.000Z</time>
      </trkpt>
      <trkpt lat="22.925814" lon="109.780204">
        <ele>88.817107</ele>
        <time>2026-08-15T08:01:20.000Z</time>
      </trkpt>
      <trkpt lat="22.925785" lon="109.780223">
        <ele>88.868027</ele>
        <time>2026-08-15T08:01:21.000Z</time>
      </trkpt>
      <trkpt lat="22.925755" lon="109.780241">
        <ele>88.919555</ele>
        <time>2026-08-15T08:01:22.000Z</time>
      </trkpt>
      <trkpt lat="22.925725" lon="109.780258">
        <ele>88.970428</ele>
        <time>2026-08-15T08:01:23.000Z</time>
      </trkpt>
      <trkpt lat="22.925696" lon="109.780276">
        <ele>89.020645</ele>
        <time>2026-08-15T08:01:24.000Z</time>
      </trkpt>
      <trkpt lat="22.925669" lon="109.780294">
        <ele>89.068276</ele>
        <time>2026-08-15T08:01:25.000Z</time>
      </trkpt>
      <trkpt lat="22.925642" lon="109.780312">
        <ele>89.115907</ele>
        <time>2026-08-15T08:01:26.000Z</time>
      </trkpt>
      <trkpt lat="22.925615" lon="109.780331">
        <ele>89.164277</ele>
        <time>2026-08-15T08:01:27.000Z</time>
      </trkpt>
      <trkpt lat="22.925586" lon="109.780350">
        <ele>89.215196</ele>
        <time>2026-08-15T08:01:28.000Z</time>
      </trkpt>
      <trkpt lat="22.925558" lon="109.780370">
        <ele>89.265581</ele>
        <time>2026-08-15T08:01:29.000Z</time>
      </trkpt>
      <trkpt lat="22.925529" lon="109.780389">
        <ele>89.316500</ele>
        <time>2026-08-15T08:01:30.000Z</time>
      </trkpt>
      <trkpt lat="22.925500" lon="109.780407">
        <ele>89.366718</ele>
        <time>2026-08-15T08:01:31.000Z</time>
      </trkpt>
      <trkpt lat="22.925472" lon="109.780426">
        <ele>89.416356</ele>
        <time>2026-08-15T08:01:32.000Z</time>
      </trkpt>
      <trkpt lat="22.925444" lon="109.780447">
        <ele>89.467515</ele>
        <time>2026-08-15T08:01:33.000Z</time>
      </trkpt>
      <trkpt lat="22.925414" lon="109.780467">
        <ele>89.520438</ele>
        <time>2026-08-15T08:01:34.000Z</time>
      </trkpt>
      <trkpt lat="22.925384" lon="109.780487">
        <ele>89.573362</ele>
        <time>2026-08-15T08:01:35.000Z</time>
      </trkpt>
      <trkpt lat="22.925353" lon="109.780508">
        <ele>89.628292</ele>
        <time>2026-08-15T08:01:36.000Z</time>
      </trkpt>
      <trkpt lat="22.925322" lon="109.780531">
        <ele>89.684737</ele>
        <time>2026-08-15T08:01:37.000Z</time>
      </trkpt>
      <trkpt lat="22.925291" lon="109.780553">
        <ele>89.740412</ele>
        <time>2026-08-15T08:01:38.000Z</time>
      </trkpt>
      <trkpt lat="22.925262" lon="109.780577">
        <ele>89.797745</ele>
        <time>2026-08-15T08:01:39.000Z</time>
      </trkpt>
      <trkpt lat="22.925232" lon="109.780602">
        <ele>89.859999</ele>
        <time>2026-08-15T08:01:40.000Z</time>
      </trkpt>
      <trkpt lat="22.925202" lon="109.780626">
        <ele>89.921342</ele>
        <time>2026-08-15T08:01:41.000Z</time>
      </trkpt>
      <trkpt lat="22.925172" lon="109.780651">
        <ele>89.983596</ele>
        <time>2026-08-15T08:01:42.000Z</time>
      </trkpt>
      <trkpt lat="22.925142" lon="109.780678">
        <ele>90.047742</ele>
        <time>2026-08-15T08:01:43.000Z</time>
      </trkpt>
      <trkpt lat="22.925113" lon="109.780706">
        <ele>90.111626</ele>
        <time>2026-08-15T08:01:44.000Z</time>
      </trkpt>
      <trkpt lat="22.925084" lon="109.780736">
        <ele>90.177564</ele>
        <time>2026-08-15T08:01:45.000Z</time>
      </trkpt>
      <trkpt lat="22.925055" lon="109.780766">
        <ele>90.243503</ele>
        <time>2026-08-15T08:01:46.000Z</time>
      </trkpt>
      <trkpt lat="22.925026" lon="109.780794">
        <ele>90.307387</ele>
        <time>2026-08-15T08:01:47.000Z</time>
      </trkpt>
      <trkpt lat="22.924995" lon="109.780820">
        <ele>90.371870</ele>
        <time>2026-08-15T08:01:48.000Z</time>
      </trkpt>
      <trkpt lat="22.924965" lon="109.780847">
        <ele>90.436016</ele>
        <time>2026-08-15T08:01:49.000Z</time>
      </trkpt>
      <trkpt lat="22.924934" lon="109.780874">
        <ele>90.501437</ele>
        <time>2026-08-15T08:01:50.000Z</time>
      </trkpt>
      <trkpt lat="22.924904" lon="109.780901">
        <ele>90.565583</ele>
        <time>2026-08-15T08:01:51.000Z</time>
      </trkpt>
      <trkpt lat="22.924875" lon="109.780928">
        <ele>90.628470</ele>
        <time>2026-08-15T08:01:52.000Z</time>
      </trkpt>
      <trkpt lat="22.924847" lon="109.780955">
        <ele>90.690116</ele>
        <time>2026-08-15T08:01:53.000Z</time>
      </trkpt>
      <trkpt lat="22.924818" lon="109.780982">
        <ele>90.753003</ele>
        <time>2026-08-15T08:01:54.000Z</time>
      </trkpt>
      <trkpt lat="22.924788" lon="109.781011">
        <ele>90.819125</ele>
        <time>2026-08-15T08:01:55.000Z</time>
      </trkpt>
      <trkpt lat="22.924759" lon="109.781039">
        <ele>90.883010</ele>
        <time>2026-08-15T08:01:56.000Z</time>
      </trkpt>
      <trkpt lat="22.924731" lon="109.781067">
        <ele>90.945673</ele>
        <time>2026-08-15T08:01:57.000Z</time>
      </trkpt>
      <trkpt lat="22.924703" lon="109.781095">
        <ele>91.008337</ele>
        <time>2026-08-15T08:01:58.000Z</time>
      </trkpt>
      <trkpt lat="22.924676" lon="109.781122">
        <ele>91.068763</ele>
        <time>2026-08-15T08:01:59.000Z</time>
      </trkpt>
      <trkpt lat="22.924648" lon="109.781148">
        <ele>91.129413</ele>
        <time>2026-08-15T08:02:00.000Z</time>
      </trkpt>
      <trkpt lat="22.924619" lon="109.781175">
        <ele>91.192300</ele>
        <time>2026-08-15T08:02:01.000Z</time>
      </trkpt>
      <trkpt lat="22.924592" lon="109.781202">
        <ele>91.252726</ele>
        <time>2026-08-15T08:02:02.000Z</time>
      </trkpt>
      <trkpt lat="22.924563" lon="109.781229">
        <ele>91.315613</ele>
        <time>2026-08-15T08:02:03.000Z</time>
      </trkpt>
      <trkpt lat="22.924537" lon="109.781253">
        <ele>91.371791</ele>
        <time>2026-08-15T08:02:04.000Z</time>
      </trkpt>
      <trkpt lat="22.924511" lon="109.781278">
        <ele>91.428962</ele>
        <time>2026-08-15T08:02:05.000Z</time>
      </trkpt>
      <trkpt lat="22.924483" lon="109.781303">
        <ele>91.488639</ele>
        <time>2026-08-15T08:02:06.000Z</time>
      </trkpt>
      <trkpt lat="22.924456" lon="109.781328">
        <ele>91.547053</ele>
        <time>2026-08-15T08:02:07.000Z</time>
      </trkpt>
      <trkpt lat="22.924428" lon="109.781355">
        <ele>91.608699</ele>
        <time>2026-08-15T08:02:08.000Z</time>
      </trkpt>
      <trkpt lat="22.924399" lon="109.781381">
        <ele>91.670610</ele>
        <time>2026-08-15T08:02:09.000Z</time>
      </trkpt>
      <trkpt lat="22.924370" lon="109.781407">
        <ele>91.732521</ele>
        <time>2026-08-15T08:02:10.000Z</time>
      </trkpt>
      <trkpt lat="22.924343" lon="109.781434">
        <ele>91.792947</ele>
        <time>2026-08-15T08:02:11.000Z</time>
      </trkpt>
      <trkpt lat="22.924316" lon="109.781460">
        <ele>91.852356</ele>
        <time>2026-08-15T08:02:12.000Z</time>
      </trkpt>
      <trkpt lat="22.924289" lon="109.781486">
        <ele>91.911765</ele>
        <time>2026-08-15T08:02:13.000Z</time>
      </trkpt>
      <trkpt lat="22.924261" lon="109.781513">
        <ele>91.973412</ele>
        <time>2026-08-15T08:02:14.000Z</time>
      </trkpt>
      <trkpt lat="22.924232" lon="109.781540">
        <ele>92.036299</ele>
        <time>2026-08-15T08:02:15.000Z</time>
      </trkpt>
      <trkpt lat="22.924204" lon="109.781566">
        <ele>92.096949</ele>
        <time>2026-08-15T08:02:16.000Z</time>
      </trkpt>
      <trkpt lat="22.924176" lon="109.781595">
        <ele>92.160650</ele>
        <time>2026-08-15T08:02:17.000Z</time>
      </trkpt>
      <trkpt lat="22.924149" lon="109.781622">
        <ele>92.221076</ele>
        <time>2026-08-15T08:02:18.000Z</time>
      </trkpt>
      <trkpt lat="22.924122" lon="109.781645">
        <ele>92.277570</ele>
        <time>2026-08-15T08:02:19.000Z</time>
      </trkpt>
      <trkpt lat="22.924095" lon="109.781671">
        <ele>92.336979</ele>
        <time>2026-08-15T08:02:20.000Z</time>
      </trkpt>
      <trkpt lat="22.924067" lon="109.781699">
        <ele>92.399643</ele>
        <time>2026-08-15T08:02:21.000Z</time>
      </trkpt>
      <trkpt lat="22.924039" lon="109.781725">
        <ele>92.460293</ele>
        <time>2026-08-15T08:02:22.000Z</time>
      </trkpt>
      <trkpt lat="22.924012" lon="109.781752">
        <ele>92.520719</ele>
        <time>2026-08-15T08:02:23.000Z</time>
      </trkpt>
      <trkpt lat="22.923985" lon="109.781779">
        <ele>92.581145</ele>
        <time>2026-08-15T08:02:24.000Z</time>
      </trkpt>
      <trkpt lat="22.923958" lon="109.781806">
        <ele>92.641571</ele>
        <time>2026-08-15T08:02:25.000Z</time>
      </trkpt>
      <trkpt lat="22.923931" lon="109.781834">
        <ele>92.703034</ele>
        <time>2026-08-15T08:02:26.000Z</time>
      </trkpt>
      <trkpt lat="22.923903" lon="109.781861">
        <ele>92.728544</ele>
        <time>2026-08-15T08:02:27.000Z</time>
      </trkpt>
      <trkpt lat="22.923877" lon="109.781888">
        <ele>92.726722</ele>
        <time>2026-08-15T08:02:28.000Z</time>
      </trkpt>
      <trkpt lat="22.923848" lon="109.781915">
        <ele>92.724788</ele>
        <time>2026-08-15T08:02:29.000Z</time>
      </trkpt>
      <trkpt lat="22.923822" lon="109.781944">
        <ele>92.722901</ele>
        <time>2026-08-15T08:02:30.000Z</time>
      </trkpt>
      <trkpt lat="22.923793" lon="109.781971">
        <ele>92.720967</ele>
        <time>2026-08-15T08:02:31.000Z</time>
      </trkpt>
      <trkpt lat="22.923763" lon="109.781997">
        <ele>92.719024</ele>
        <time>2026-08-15T08:02:32.000Z</time>
      </trkpt>
      <trkpt lat="22.923733" lon="109.782025">
        <ele>92.717021</ele>
        <time>2026-08-15T08:02:33.000Z</time>
      </trkpt>
      <trkpt lat="22.923703" lon="109.782052">
        <ele>92.715048</ele>
        <time>2026-08-15T08:02:34.000Z</time>
      </trkpt>
      <trkpt lat="22.923673" lon="109.782079">
        <ele>92.713075</ele>
        <time>2026-08-15T08:02:35.000Z</time>
      </trkpt>
      <trkpt lat="22.923643" lon="109.782107">
        <ele>92.711072</ele>
        <time>2026-08-15T08:02:36.000Z</time>
      </trkpt>
      <trkpt lat="22.923614" lon="109.782135">
        <ele>92.709108</ele>
        <time>2026-08-15T08:02:37.000Z</time>
      </trkpt>
      <trkpt lat="22.923584" lon="109.782159">
        <ele>92.707221</ele>
        <time>2026-08-15T08:02:38.000Z</time>
      </trkpt>
      <trkpt lat="22.923553" lon="109.782182">
        <ele>92.705320</ele>
        <time>2026-08-15T08:02:39.000Z</time>
      </trkpt>
      <trkpt lat="22.923522" lon="109.782208">
        <ele>92.703337</ele>
        <time>2026-08-15T08:02:40.000Z</time>
      </trkpt>
      <trkpt lat="22.923490" lon="109.782235">
        <ele>92.701285</ele>
        <time>2026-08-15T08:02:41.000Z</time>
      </trkpt>
      <trkpt lat="22.923459" lon="109.782261">
        <ele>92.699302</ele>
        <time>2026-08-15T08:02:42.000Z</time>
      </trkpt>
      <trkpt lat="22.923427" lon="109.782287">
        <ele>92.697278</ele>
        <time>2026-08-15T08:02:43.000Z</time>
      </trkpt>
      <trkpt lat="22.923395" lon="109.782313">
        <ele>92.695255</ele>
        <time>2026-08-15T08:02:44.000Z</time>
      </trkpt>
      <trkpt lat="22.923362" lon="109.782339">
        <ele>92.693191</ele>
        <time>2026-08-15T08:02:45.000Z</time>
      </trkpt>
      <trkpt lat="22.923327" lon="109.782365">
        <ele>92.691043</ele>
        <time>2026-08-15T08:02:46.000Z</time>
      </trkpt>
      <trkpt lat="22.923291" lon="109.782392">
        <ele>92.688828</ele>
        <time>2026-08-15T08:02:47.000Z</time>
      </trkpt>
      <trkpt lat="22.923255" lon="109.782419">
        <ele>92.686613</ele>
        <time>2026-08-15T08:02:48.000Z</time>
      </trkpt>
      <trkpt lat="22.923216" lon="109.782444">
        <ele>92.684320</ele>
        <time>2026-08-15T08:02:49.000Z</time>
      </trkpt>
      <trkpt lat="22.923176" lon="109.782468">
        <ele>92.682006</ele>
        <time>2026-08-15T08:02:50.000Z</time>
      </trkpt>
      <trkpt lat="22.923135" lon="109.782492">
        <ele>92.679648</ele>
        <time>2026-08-15T08:02:51.000Z</time>
      </trkpt>
      <trkpt lat="22.923095" lon="109.782517">
        <ele>92.677311</ele>
        <time>2026-08-15T08:02:52.000Z</time>
      </trkpt>
      <trkpt lat="22.923054" lon="109.782542">
        <ele>92.674931</ele>
        <time>2026-08-15T08:02:53.000Z</time>
      </trkpt>
      <trkpt lat="22.923010" lon="109.782566">
        <ele>92.672438</ele>
        <time>2026-08-15T08:02:54.000Z</time>
      </trkpt>
      <trkpt lat="22.922967" lon="109.782589">
        <ele>92.670011</ele>
        <time>2026-08-15T08:02:55.000Z</time>
      </trkpt>
      <trkpt lat="22.922922" lon="109.782610">
        <ele>92.667531</ele>
        <time>2026-08-15T08:02:56.000Z</time>
      </trkpt>
      <trkpt lat="22.922878" lon="109.782632">
        <ele>92.665079</ele>
        <time>2026-08-15T08:02:57.000Z</time>
      </trkpt>
      <trkpt lat="22.922833" lon="109.782654">
        <ele>92.662580</ele>
        <time>2026-08-15T08:02:58.000Z</time>
      </trkpt>
      <trkpt lat="22.922788" lon="109.782676">
        <ele>92.660081</ele>
        <time>2026-08-15T08:02:59.000Z</time>
      </trkpt>
      <trkpt lat="22.922743" lon="109.782696">
        <ele>92.657620</ele>
        <time>2026-08-15T08:03:00.000Z</time>
      </trkpt>
      <trkpt lat="22.922698" lon="109.782715">
        <ele>92.655175</ele>
        <time>2026-08-15T08:03:01.000Z</time>
      </trkpt>
      <trkpt lat="22.922654" lon="109.782732">
        <ele>92.652811</ele>
        <time>2026-08-15T08:03:02.000Z</time>
      </trkpt>
      <trkpt lat="22.922610" lon="109.782749">
        <ele>92.650446</ele>
        <time>2026-08-15T08:03:03.000Z</time>
      </trkpt>
      <trkpt lat="22.922567" lon="109.782765">
        <ele>92.648145</ele>
        <time>2026-08-15T08:03:04.000Z</time>
      </trkpt>
      <trkpt lat="22.922524" lon="109.782782">
        <ele>92.645828</ele>
        <time>2026-08-15T08:03:05.000Z</time>
      </trkpt>
      <trkpt lat="22.922479" lon="109.782799">
        <ele>92.643416</ele>
        <time>2026-08-15T08:03:06.000Z</time>
      </trkpt>
      <trkpt lat="22.922432" lon="109.782816">
        <ele>92.640908</ele>
        <time>2026-08-15T08:03:07.000Z</time>
      </trkpt>
      <trkpt lat="22.922385" lon="109.782833">
        <ele>92.636867</ele>
        <time>2026-08-15T08:03:08.000Z</time>
      </trkpt>
      <trkpt lat="22.922338" lon="109.782852">
        <ele>92.610070</ele>
        <time>2026-08-15T08:03:09.000Z</time>
      </trkpt>
      <trkpt lat="22.922289" lon="109.782872">
        <ele>92.582099</ele>
        <time>2026-08-15T08:03:10.000Z</time>
      </trkpt>
      <trkpt lat="22.922238" lon="109.782892">
        <ele>92.553125</ele>
        <time>2026-08-15T08:03:11.000Z</time>
      </trkpt>
      <trkpt lat="22.922188" lon="109.782910">
        <ele>92.524978</ele>
        <time>2026-08-15T08:03:12.000Z</time>
      </trkpt>
      <trkpt lat="22.922138" lon="109.782927">
        <ele>92.496983</ele>
        <time>2026-08-15T08:03:13.000Z</time>
      </trkpt>
      <trkpt lat="22.922087" lon="109.782946">
        <ele>92.468172</ele>
        <time>2026-08-15T08:03:14.000Z</time>
      </trkpt>
      <trkpt lat="22.922036" lon="109.782965">
        <ele>92.439362</ele>
        <time>2026-08-15T08:03:15.000Z</time>
      </trkpt>
      <trkpt lat="22.921985" lon="109.782985">
        <ele>92.410388</ele>
        <time>2026-08-15T08:03:16.000Z</time>
      </trkpt>
      <trkpt lat="22.921933" lon="109.783003">
        <ele>92.381225</ele>
        <time>2026-08-15T08:03:17.000Z</time>
      </trkpt>
      <trkpt lat="22.921884" lon="109.783021">
        <ele>92.353585</ele>
        <time>2026-08-15T08:03:18.000Z</time>
      </trkpt>
      <trkpt lat="22.921834" lon="109.783041">
        <ele>92.325114</ele>
        <time>2026-08-15T08:03:19.000Z</time>
      </trkpt>
      <trkpt lat="22.921784" lon="109.783059">
        <ele>92.296967</ele>
        <time>2026-08-15T08:03:20.000Z</time>
      </trkpt>
      <trkpt lat="22.921732" lon="109.783077">
        <ele>92.267804</ele>
        <time>2026-08-15T08:03:21.000Z</time>
      </trkpt>
      <trkpt lat="22.921683" lon="109.783096">
        <ele>92.240002</ele>
        <time>2026-08-15T08:03:22.000Z</time>
      </trkpt>
      <trkpt lat="22.921635" lon="109.783115">
        <ele>92.212703</ele>
        <time>2026-08-15T08:03:23.000Z</time>
      </trkpt>
      <trkpt lat="22.921588" lon="109.783135">
        <ele>92.185730</ele>
        <time>2026-08-15T08:03:24.000Z</time>
      </trkpt>
      <trkpt lat="22.921541" lon="109.783154">
        <ele>92.158932</ele>
        <time>2026-08-15T08:03:25.000Z</time>
      </trkpt>
      <trkpt lat="22.921496" lon="109.783173">
        <ele>92.133133</ele>
        <time>2026-08-15T08:03:26.000Z</time>
      </trkpt>
      <trkpt lat="22.921452" lon="109.783191">
        <ele>92.108010</ele>
        <time>2026-08-15T08:03:27.000Z</time>
      </trkpt>
      <trkpt lat="22.921408" lon="109.783209">
        <ele>92.082886</ele>
        <time>2026-08-15T08:03:28.000Z</time>
      </trkpt>
      <trkpt lat="22.921366" lon="109.783226">
        <ele>92.058935</ele>
        <time>2026-08-15T08:03:29.000Z</time>
      </trkpt>
      <trkpt lat="22.921326" lon="109.783242">
        <ele>92.036158</ele>
        <time>2026-08-15T08:03:30.000Z</time>
      </trkpt>
      <trkpt lat="22.921287" lon="109.783257">
        <ele>92.014050</ele>
        <time>2026-08-15T08:03:31.000Z</time>
      </trkpt>
      <trkpt lat="22.921247" lon="109.783273">
        <ele>91.991273</ele>
        <time>2026-08-15T08:03:32.000Z</time>
      </trkpt>
      <trkpt lat="22.921206" lon="109.783290">
        <ele>91.967822</ele>
        <time>2026-08-15T08:03:33.000Z</time>
      </trkpt>
      <trkpt lat="22.921167" lon="109.783307">
        <ele>91.945367</ele>
        <time>2026-08-15T08:03:34.000Z</time>
      </trkpt>
      <trkpt lat="22.921126" lon="109.783323">
        <ele>91.922087</ele>
        <time>2026-08-15T08:03:35.000Z</time>
      </trkpt>
      <trkpt lat="22.921087" lon="109.783341">
        <ele>91.899444</ele>
        <time>2026-08-15T08:03:36.000Z</time>
      </trkpt>
      <trkpt lat="22.921047" lon="109.783361">
        <ele>91.875913</ele>
        <time>2026-08-15T08:03:37.000Z</time>
      </trkpt>
      <trkpt lat="22.921008" lon="109.783380">
        <ele>91.853073</ele>
        <time>2026-08-15T08:03:38.000Z</time>
      </trkpt>
      <trkpt lat="22.920970" lon="109.783398">
        <ele>91.830920</ele>
        <time>2026-08-15T08:03:39.000Z</time>
      </trkpt>
      <trkpt lat="22.920929" lon="109.783417">
        <ele>91.807100</ele>
        <time>2026-08-15T08:03:40.000Z</time>
      </trkpt>
      <trkpt lat="22.920887" lon="109.783437">
        <ele>91.782595</ele>
        <time>2026-08-15T08:03:41.000Z</time>
      </trkpt>
      <trkpt lat="22.920846" lon="109.783459">
        <ele>91.758158</ele>
        <time>2026-08-15T08:03:42.000Z</time>
      </trkpt>
      <trkpt lat="22.920803" lon="109.783481">
        <ele>91.732759</ele>
        <time>2026-08-15T08:03:43.000Z</time>
      </trkpt>
      <trkpt lat="22.920761" lon="109.783503">
        <ele>91.707842</ele>
        <time>2026-08-15T08:03:44.000Z</time>
      </trkpt>
      <trkpt lat="22.920717" lon="109.783528">
        <ele>91.681307</ele>
        <time>2026-08-15T08:03:45.000Z</time>
      </trkpt>
      <trkpt lat="22.920669" lon="109.783554">
        <ele>91.639705</ele>
        <time>2026-08-15T08:03:46.000Z</time>
      </trkpt>
      <trkpt lat="22.920621" lon="109.783579">
        <ele>91.596447</ele>
        <time>2026-08-15T08:03:47.000Z</time>
      </trkpt>
      <trkpt lat="22.920574" lon="109.783604">
        <ele>91.553921</ele>
        <time>2026-08-15T08:03:48.000Z</time>
      </trkpt>
      <trkpt lat="22.920524" lon="109.783630">
        <ele>91.508875</ele>
        <time>2026-08-15T08:03:49.000Z</time>
      </trkpt>
      <trkpt lat="22.920475" lon="109.783658">
        <ele>91.463884</ele>
        <time>2026-08-15T08:03:50.000Z</time>
      </trkpt>
      <trkpt lat="22.920425" lon="109.783686">
        <ele>91.418171</ele>
        <time>2026-08-15T08:03:51.000Z</time>
      </trkpt>
      <trkpt lat="22.920373" lon="109.783715">
        <ele>91.370671</ele>
        <time>2026-08-15T08:03:52.000Z</time>
      </trkpt>
      <trkpt lat="22.920322" lon="109.783745">
        <ele>91.323541</ele>
        <time>2026-08-15T08:03:53.000Z</time>
      </trkpt>
      <trkpt lat="22.920269" lon="109.783776">
        <ele>91.274625</ele>
        <time>2026-08-15T08:03:54.000Z</time>
      </trkpt>
      <trkpt lat="22.920215" lon="109.783808">
        <ele>91.224638</ele>
        <time>2026-08-15T08:03:55.000Z</time>
      </trkpt>
      <trkpt lat="22.920160" lon="109.783840">
        <ele>91.173936</ele>
        <time>2026-08-15T08:03:56.000Z</time>
      </trkpt>
      <trkpt lat="22.920105" lon="109.783872">
        <ele>91.123234</ele>
        <time>2026-08-15T08:03:57.000Z</time>
      </trkpt>
      <trkpt lat="22.920052" lon="109.783904">
        <ele>91.073959</ele>
        <time>2026-08-15T08:03:58.000Z</time>
      </trkpt>
      <trkpt lat="22.919998" lon="109.783938">
        <ele>91.023238</ele>
        <time>2026-08-15T08:03:59.000Z</time>
      </trkpt>
      <trkpt lat="22.919945" lon="109.783971">
        <ele>90.973594</ele>
        <time>2026-08-15T08:04:00.000Z</time>
      </trkpt>
      <trkpt lat="22.919893" lon="109.784004">
        <ele>90.924654</ele>
        <time>2026-08-15T08:04:01.000Z</time>
      </trkpt>
      <trkpt lat="22.919840" lon="109.784036">
        <ele>90.875379</ele>
        <time>2026-08-15T08:04:02.000Z</time>
      </trkpt>
      <trkpt lat="22.919790" lon="109.784068">
        <ele>90.828219</ele>
        <time>2026-08-15T08:04:03.000Z</time>
      </trkpt>
      <trkpt lat="22.919739" lon="109.784101">
        <ele>90.779978</ele>
        <time>2026-08-15T08:04:04.000Z</time>
      </trkpt>
      <trkpt lat="22.919687" lon="109.784135">
        <ele>90.730656</ele>
        <time>2026-08-15T08:04:05.000Z</time>
      </trkpt>
      <trkpt lat="22.919634" lon="109.784166">
        <ele>90.681740</ele>
        <time>2026-08-15T08:04:06.000Z</time>
      </trkpt>
      <trkpt lat="22.919581" lon="109.784195">
        <ele>90.633516</ele>
        <time>2026-08-15T08:04:07.000Z</time>
      </trkpt>
      <trkpt lat="22.919529" lon="109.784224">
        <ele>90.586016</ele>
        <time>2026-08-15T08:04:08.000Z</time>
      </trkpt>
      <trkpt lat="22.919477" lon="109.784253">
        <ele>90.538516</ele>
        <time>2026-08-15T08:04:09.000Z</time>
      </trkpt>
      <trkpt lat="22.919426" lon="109.784283">
        <ele>90.491386</ele>
        <time>2026-08-15T08:04:10.000Z</time>
      </trkpt>
      <trkpt lat="22.919376" lon="109.784313">
        <ele>90.444968</ele>
        <time>2026-08-15T08:04:11.000Z</time>
      </trkpt>
      <trkpt lat="22.919328" lon="109.784343">
        <ele>90.399966</ele>
        <time>2026-08-15T08:04:12.000Z</time>
      </trkpt>
      <trkpt lat="22.919280" lon="109.784374">
        <ele>90.354585</ele>
        <time>2026-08-15T08:04:13.000Z</time>
      </trkpt>
      <trkpt lat="22.919233" lon="109.784403">
        <ele>90.310660</ele>
        <time>2026-08-15T08:04:14.000Z</time>
      </trkpt>
      <trkpt lat="22.919185" lon="109.784434">
        <ele>90.265280</ele>
        <time>2026-08-15T08:04:15.000Z</time>
      </trkpt>
      <trkpt lat="22.919139" lon="109.784464">
        <ele>90.221678</ele>
        <time>2026-08-15T08:04:16.000Z</time>
      </trkpt>
      <trkpt lat="22.919091" lon="109.784495">
        <ele>90.254697</ele>
        <time>2026-08-15T08:04:17.000Z</time>
      </trkpt>
      <trkpt lat="22.919043" lon="109.784526">
        <ele>90.298846</ele>
        <time>2026-08-15T08:04:18.000Z</time>
      </trkpt>
      <trkpt lat="22.918994" lon="109.784556">
        <ele>90.343315</ele>
        <time>2026-08-15T08:04:19.000Z</time>
      </trkpt>
      <trkpt lat="22.918946" lon="109.784586">
        <ele>90.387096</ele>
        <time>2026-08-15T08:04:20.000Z</time>
      </trkpt>
      <trkpt lat="22.918898" lon="109.784616">
        <ele>90.430878</ele>
        <time>2026-08-15T08:04:21.000Z</time>
      </trkpt>
      <trkpt lat="22.918851" lon="109.784647">
        <ele>90.474350</ele>
        <time>2026-08-15T08:04:22.000Z</time>
      </trkpt>
      <trkpt lat="22.918804" lon="109.784676">
        <ele>90.517084</ele>
        <time>2026-08-15T08:04:23.000Z</time>
      </trkpt>
      <trkpt lat="22.918757" lon="109.784704">
        <ele>90.559463</ele>
        <time>2026-08-15T08:04:24.000Z</time>
      </trkpt>
      <trkpt lat="22.918710" lon="109.784732">
        <ele>90.601841</ele>
        <time>2026-08-15T08:04:25.000Z</time>
      </trkpt>
      <trkpt lat="22.918666" lon="109.784759">
        <ele>90.641794</ele>
        <time>2026-08-15T08:04:26.000Z</time>
      </trkpt>
      <trkpt lat="22.918624" lon="109.784788">
        <ele>90.681140</ele>
        <time>2026-08-15T08:04:27.000Z</time>
      </trkpt>
      <trkpt lat="22.918579" lon="109.784818">
        <ele>90.722883</ele>
        <time>2026-08-15T08:04:28.000Z</time>
      </trkpt>
      <trkpt lat="22.918535" lon="109.784845">
        <ele>90.762836</ele>
        <time>2026-08-15T08:04:29.000Z</time>
      </trkpt>
      <trkpt lat="22.918492" lon="109.784871">
        <ele>90.801743</ele>
        <time>2026-08-15T08:04:30.000Z</time>
      </trkpt>
      <trkpt lat="22.918450" lon="109.784901">
        <ele>90.841485</ele>
        <time>2026-08-15T08:04:31.000Z</time>
      </trkpt>
      <trkpt lat="22.918410" lon="109.784930">
        <ele>90.879506</ele>
        <time>2026-08-15T08:04:32.000Z</time>
      </trkpt>
      <trkpt lat="22.918369" lon="109.784957">
        <ele>90.917413</ele>
        <time>2026-08-15T08:04:33.000Z</time>
      </trkpt>
      <trkpt lat="22.918329" lon="109.784981">
        <ele>90.953540</ele>
        <time>2026-08-15T08:04:34.000Z</time>
      </trkpt>
      <trkpt lat="22.918290" lon="109.785005">
        <ele>90.988977</ele>
        <time>2026-08-15T08:04:35.000Z</time>
      </trkpt>
      <trkpt lat="22.918253" lon="109.785031">
        <ele>91.023817</ele>
        <time>2026-08-15T08:04:36.000Z</time>
      </trkpt>
      <trkpt lat="22.918216" lon="109.785059">
        <ele>91.059469</ele>
        <time>2026-08-15T08:04:37.000Z</time>
      </trkpt>
      <trkpt lat="22.918182" lon="109.785087">
        <ele>91.093203</ele>
        <time>2026-08-15T08:04:38.000Z</time>
      </trkpt>
      <trkpt lat="22.918147" lon="109.785114">
        <ele>91.127143</ele>
        <time>2026-08-15T08:04:39.000Z</time>
      </trkpt>
      <trkpt lat="22.918111" lon="109.785141">
        <ele>91.161731</ele>
        <time>2026-08-15T08:04:40.000Z</time>
      </trkpt>
      <trkpt lat="22.918076" lon="109.785168">
        <ele>91.195671</ele>
        <time>2026-08-15T08:04:41.000Z</time>
      </trkpt>
      <trkpt lat="22.918041" lon="109.785196">
        <ele>91.230038</ele>
        <time>2026-08-15T08:04:42.000Z</time>
      </trkpt>
      <trkpt lat="22.918006" lon="109.785225">
        <ele>91.264842</ele>
        <time>2026-08-15T08:04:43.000Z</time>
      </trkpt>
      <trkpt lat="22.917969" lon="109.785256">
        <ele>91.301786</ele>
        <time>2026-08-15T08:04:44.000Z</time>
      </trkpt>
      <trkpt lat="22.917934" lon="109.785287">
        <ele>91.337493</ele>
        <time>2026-08-15T08:04:45.000Z</time>
      </trkpt>
      <trkpt lat="22.917900" lon="109.785319">
        <ele>91.373062</ele>
        <time>2026-08-15T08:04:46.000Z</time>
      </trkpt>
      <trkpt lat="22.917865" lon="109.785350">
        <ele>91.408768</ele>
        <time>2026-08-15T08:04:47.000Z</time>
      </trkpt>
      <trkpt lat="22.917829" lon="109.785382">
        <ele>91.445547</ele>
        <time>2026-08-15T08:04:48.000Z</time>
      </trkpt>
      <trkpt lat="22.917792" lon="109.785417">
        <ele>91.484340</ele>
        <time>2026-08-15T08:04:49.000Z</time>
      </trkpt>
      <trkpt lat="22.917756" lon="109.785452">
        <ele>91.522540</ele>
        <time>2026-08-15T08:04:50.000Z</time>
      </trkpt>
      <trkpt lat="22.917722" lon="109.785486">
        <ele>91.559080</ele>
        <time>2026-08-15T08:04:51.000Z</time>
      </trkpt>
      <trkpt lat="22.917686" lon="109.785516">
        <ele>91.594954</ele>
        <time>2026-08-15T08:04:52.000Z</time>
      </trkpt>
      <trkpt lat="22.917648" lon="109.785546">
        <ele>91.632095</ele>
        <time>2026-08-15T08:04:53.000Z</time>
      </trkpt>
      <trkpt lat="22.917609" lon="109.785579">
        <ele>91.626342</ele>
        <time>2026-08-15T08:04:54.000Z</time>
      </trkpt>
      <trkpt lat="22.917570" lon="109.785613">
        <ele>91.612686</ele>
        <time>2026-08-15T08:04:55.000Z</time>
      </trkpt>
      <trkpt lat="22.917533" lon="109.785648">
        <ele>91.599288</ele>
        <time>2026-08-15T08:04:56.000Z</time>
      </trkpt>
      <trkpt lat="22.917495" lon="109.785683">
        <ele>91.585683</ele>
        <time>2026-08-15T08:04:57.000Z</time>
      </trkpt>
      <trkpt lat="22.917458" lon="109.785717">
        <ele>91.572449</ele>
        <time>2026-08-15T08:04:58.000Z</time>
      </trkpt>
      <trkpt lat="22.917422" lon="109.785752">
        <ele>91.559256</ele>
        <time>2026-08-15T08:04:59.000Z</time>
      </trkpt>
      <trkpt lat="22.917387" lon="109.785789">
        <ele>91.545919</ele>
        <time>2026-08-15T08:05:00.000Z</time>
      </trkpt>
      <trkpt lat="22.917351" lon="109.785825">
        <ele>91.532556</ele>
        <time>2026-08-15T08:05:01.000Z</time>
      </trkpt>
      <trkpt lat="22.917314" lon="109.785861">
        <ele>91.518992</ele>
        <time>2026-08-15T08:05:02.000Z</time>
      </trkpt>
      <trkpt lat="22.917275" lon="109.785899">
        <ele>91.504685</ele>
        <time>2026-08-15T08:05:03.000Z</time>
      </trkpt>
      <trkpt lat="22.917235" lon="109.785936">
        <ele>91.490338</ele>
        <time>2026-08-15T08:05:04.000Z</time>
      </trkpt>
      <trkpt lat="22.917194" lon="109.785972">
        <ele>91.475942</ele>
        <time>2026-08-15T08:05:05.000Z</time>
      </trkpt>
      <trkpt lat="22.917152" lon="109.786010">
        <ele>91.461016</ele>
        <time>2026-08-15T08:05:06.000Z</time>
      </trkpt>
      <trkpt lat="22.917107" lon="109.786049">
        <ele>91.445296</ele>
        <time>2026-08-15T08:05:07.000Z</time>
      </trkpt>
      <trkpt lat="22.917065" lon="109.786088">
        <ele>91.430207</ele>
        <time>2026-08-15T08:05:08.000Z</time>
      </trkpt>
      <trkpt lat="22.917023" lon="109.786126">
        <ele>91.415281</ele>
        <time>2026-08-15T08:05:09.000Z</time>
      </trkpt>
      <trkpt lat="22.916982" lon="109.786164">
        <ele>91.400563</ele>
        <time>2026-08-15T08:05:10.000Z</time>
      </trkpt>
      <trkpt lat="22.916939" lon="109.786204">
        <ele>91.385104</ele>
        <time>2026-08-15T08:05:11.000Z</time>
      </trkpt>
      <trkpt lat="22.916895" lon="109.786244">
        <ele>91.369436</ele>
        <time>2026-08-15T08:05:12.000Z</time>
      </trkpt>
      <trkpt lat="22.916851" lon="109.786283">
        <ele>91.353928</ele>
        <time>2026-08-15T08:05:13.000Z</time>
      </trkpt>
      <trkpt lat="22.916808" lon="109.786321">
        <ele>91.338791</ele>
        <time>2026-08-15T08:05:14.000Z</time>
      </trkpt>
      <trkpt lat="22.916764" lon="109.786361">
        <ele>91.323123</ele>
        <time>2026-08-15T08:05:15.000Z</time>
      </trkpt>
      <trkpt lat="22.916720" lon="109.786402">
        <ele>91.307293</ele>
        <time>2026-08-15T08:05:16.000Z</time>
      </trkpt>
      <trkpt lat="22.916677" lon="109.786442">
        <ele>91.291833</ele>
        <time>2026-08-15T08:05:17.000Z</time>
      </trkpt>
      <trkpt lat="22.916634" lon="109.786481">
        <ele>91.276536</ele>
        <time>2026-08-15T08:05:18.000Z</time>
      </trkpt>
      <trkpt lat="22.916592" lon="109.786522">
        <ele>91.261116</ele>
        <time>2026-08-15T08:05:19.000Z</time>
      </trkpt>
      <trkpt lat="22.916550" lon="109.786561">
        <ele>91.246027</ele>
        <time>2026-08-15T08:05:20.000Z</time>
      </trkpt>
      <trkpt lat="22.916509" lon="109.786599">
        <ele>91.231309</ele>
        <time>2026-08-15T08:05:21.000Z</time>
      </trkpt>
      <trkpt lat="22.916469" lon="109.786637">
        <ele>91.216798</ele>
        <time>2026-08-15T08:05:22.000Z</time>
      </trkpt>
      <trkpt lat="22.916430" lon="109.786674">
        <ele>91.202658</ele>
        <time>2026-08-15T08:05:23.000Z</time>
      </trkpt>
      <trkpt lat="22.916392" lon="109.786709">
        <ele>91.189053</ele>
        <time>2026-08-15T08:05:24.000Z</time>
      </trkpt>
      <trkpt lat="22.916357" lon="109.786743">
        <ele>91.176231</ele>
        <time>2026-08-15T08:05:25.000Z</time>
      </trkpt>
      <trkpt lat="22.916321" lon="109.786776">
        <ele>91.163368</ele>
        <time>2026-08-15T08:05:26.000Z</time>
      </trkpt>
      <trkpt lat="22.916286" lon="109.786808">
        <ele>91.150875</ele>
        <time>2026-08-15T08:05:27.000Z</time>
      </trkpt>
      <trkpt lat="22.916254" lon="109.786839">
        <ele>91.153648</ele>
        <time>2026-08-15T08:05:28.000Z</time>
      </trkpt>
      <trkpt lat="22.916221" lon="109.786870">
        <ele>91.164352</ele>
        <time>2026-08-15T08:05:29.000Z</time>
      </trkpt>
      <trkpt lat="22.916187" lon="109.786902">
        <ele>91.175390</ele>
        <time>2026-08-15T08:05:30.000Z</time>
      </trkpt>
      <trkpt lat="22.916153" lon="109.786935">
        <ele>91.186577</ele>
        <time>2026-08-15T08:05:31.000Z</time>
      </trkpt>
      <trkpt lat="22.916119" lon="109.786966">
        <ele>91.197468</ele>
        <time>2026-08-15T08:05:32.000Z</time>
      </trkpt>
      <trkpt lat="22.916085" lon="109.786995">
        <ele>91.208074</ele>
        <time>2026-08-15T08:05:33.000Z</time>
      </trkpt>
      <trkpt lat="22.916052" lon="109.787025">
        <ele>91.218632</ele>
        <time>2026-08-15T08:05:34.000Z</time>
      </trkpt>
      <trkpt lat="22.916018" lon="109.787054">
        <ele>91.229238</ele>
        <time>2026-08-15T08:05:35.000Z</time>
      </trkpt>
      <trkpt lat="22.915985" lon="109.787084">
        <ele>91.239796</ele>
        <time>2026-08-15T08:05:36.000Z</time>
      </trkpt>
      <trkpt lat="22.915951" lon="109.787113">
        <ele>91.250402</ele>
        <time>2026-08-15T08:05:37.000Z</time>
      </trkpt>
      <trkpt lat="22.915916" lon="109.787144">
        <ele>91.261482</ele>
        <time>2026-08-15T08:05:38.000Z</time>
      </trkpt>
      <trkpt lat="22.915881" lon="109.787174">
        <ele>91.272421</ele>
        <time>2026-08-15T08:05:39.000Z</time>
      </trkpt>
      <trkpt lat="22.915845" lon="109.787205">
        <ele>91.283692</ele>
        <time>2026-08-15T08:05:40.000Z</time>
      </trkpt>
      <trkpt lat="22.915808" lon="109.787237">
        <ele>91.295296</ele>
        <time>2026-08-15T08:05:41.000Z</time>
      </trkpt>
      <trkpt lat="22.915770" lon="109.787270">
        <ele>91.307232</ele>
        <time>2026-08-15T08:05:42.000Z</time>
      </trkpt>
      <trkpt lat="22.915734" lon="109.787299">
        <ele>91.318229</ele>
        <time>2026-08-15T08:05:43.000Z</time>
      </trkpt>
      <trkpt lat="22.915697" lon="109.787330">
        <ele>91.329693</ele>
        <time>2026-08-15T08:05:44.000Z</time>
      </trkpt>
      <trkpt lat="22.915659" lon="109.787361">
        <ele>91.341352</ele>
        <time>2026-08-15T08:05:45.000Z</time>
      </trkpt>
      <trkpt lat="22.915621" lon="109.787392">
        <ele>91.353012</ele>
        <time>2026-08-15T08:05:46.000Z</time>
      </trkpt>
      <trkpt lat="22.915581" lon="109.787421">
        <ele>91.364811</ele>
        <time>2026-08-15T08:05:47.000Z</time>
      </trkpt>
      <trkpt lat="22.915540" lon="109.787448">
        <ele>91.376573</ele>
        <time>2026-08-15T08:05:48.000Z</time>
      </trkpt>
      <trkpt lat="22.915500" lon="109.787474">
        <ele>91.388009</ele>
        <time>2026-08-15T08:05:49.000Z</time>
      </trkpt>
      <trkpt lat="22.915461" lon="109.787498">
        <ele>91.399006</ele>
        <time>2026-08-15T08:05:50.000Z</time>
      </trkpt>
      <trkpt lat="22.915421" lon="109.787521">
        <ele>91.410109</ele>
        <time>2026-08-15T08:05:51.000Z</time>
      </trkpt>
      <trkpt lat="22.915381" lon="109.787545">
        <ele>91.421320</ele>
        <time>2026-08-15T08:05:52.000Z</time>
      </trkpt>
      <trkpt lat="22.915342" lon="109.787567">
        <ele>91.432100</ele>
        <time>2026-08-15T08:05:53.000Z</time>
      </trkpt>
      <trkpt lat="22.915305" lon="109.787588">
        <ele>91.442342</ele>
        <time>2026-08-15T08:05:54.000Z</time>
      </trkpt>
      <trkpt lat="22.915267" lon="109.787610">
        <ele>91.452906</ele>
        <time>2026-08-15T08:05:55.000Z</time>
      </trkpt>
      <trkpt lat="22.915228" lon="109.787632">
        <ele>91.463687</ele>
        <time>2026-08-15T08:05:56.000Z</time>
      </trkpt>
      <trkpt lat="22.915191" lon="109.787653">
        <ele>91.473928</ele>
        <time>2026-08-15T08:05:57.000Z</time>
      </trkpt>
      <trkpt lat="22.915152" lon="109.787673">
        <ele>91.484508</ele>
        <time>2026-08-15T08:05:58.000Z</time>
      </trkpt>
      <trkpt lat="22.915114" lon="109.787694">
        <ele>91.494968</ele>
        <time>2026-08-15T08:05:59.000Z</time>
      </trkpt>
      <trkpt lat="22.915075" lon="109.787714">
        <ele>91.505548</ele>
        <time>2026-08-15T08:06:00.000Z</time>
      </trkpt>
      <trkpt lat="22.915034" lon="109.787733">
        <ele>91.516483</ele>
        <time>2026-08-15T08:06:01.000Z</time>
      </trkpt>
      <trkpt lat="22.914992" lon="109.787754">
        <ele>91.527826</ele>
        <time>2026-08-15T08:06:02.000Z</time>
      </trkpt>
      <trkpt lat="22.914949" lon="109.787775">
        <ele>91.539391</ele>
        <time>2026-08-15T08:06:03.000Z</time>
      </trkpt>
      <trkpt lat="22.914907" lon="109.787796">
        <ele>91.550734</ele>
        <time>2026-08-15T08:06:04.000Z</time>
      </trkpt>
      <trkpt lat="22.914864" lon="109.787818">
        <ele>91.562394</ele>
        <time>2026-08-15T08:06:05.000Z</time>
      </trkpt>
      <trkpt lat="22.914820" lon="109.787840">
        <ele>91.574277</ele>
        <time>2026-08-15T08:06:06.000Z</time>
      </trkpt>
      <trkpt lat="22.914778" lon="109.787862">
        <ele>91.585716</ele>
        <time>2026-08-15T08:06:07.000Z</time>
      </trkpt>
      <trkpt lat="22.914736" lon="109.787884">
        <ele>91.554706</ele>
        <time>2026-08-15T08:06:08.000Z</time>
      </trkpt>
      <trkpt lat="22.914692" lon="109.787907">
        <ele>91.511152</ele>
        <time>2026-08-15T08:06:09.000Z</time>
      </trkpt>
      <trkpt lat="22.914648" lon="109.787930">
        <ele>91.467598</ele>
        <time>2026-08-15T08:06:10.000Z</time>
      </trkpt>
      <trkpt lat="22.914604" lon="109.787952">
        <ele>91.424394</ele>
        <time>2026-08-15T08:06:11.000Z</time>
      </trkpt>
      <trkpt lat="22.914561" lon="109.787974">
        <ele>91.381998</ele>
        <time>2026-08-15T08:06:12.000Z</time>
      </trkpt>
      <trkpt lat="22.914517" lon="109.787997">
        <ele>91.338444</ele>
        <time>2026-08-15T08:06:13.000Z</time>
      </trkpt>
      <trkpt lat="22.914473" lon="109.788021">
        <ele>91.294527</ele>
        <time>2026-08-15T08:06:14.000Z</time>
      </trkpt>
      <trkpt lat="22.914427" lon="109.788043">
        <ele>91.249697</ele>
        <time>2026-08-15T08:06:15.000Z</time>
      </trkpt>
      <trkpt lat="22.914382" lon="109.788066">
        <ele>91.205338</ele>
        <time>2026-08-15T08:06:16.000Z</time>
      </trkpt>
      <trkpt lat="22.914337" lon="109.788089">
        <ele>91.160978</ele>
        <time>2026-08-15T08:06:17.000Z</time>
      </trkpt>
      <trkpt lat="22.914292" lon="109.788112">
        <ele>91.116619</ele>
        <time>2026-08-15T08:06:18.000Z</time>
      </trkpt>
      <trkpt lat="22.914247" lon="109.788134">
        <ele>91.072603</ele>
        <time>2026-08-15T08:06:19.000Z</time>
      </trkpt>
      <trkpt lat="22.914203" lon="109.788154">
        <ele>91.030060</ele>
        <time>2026-08-15T08:06:20.000Z</time>
      </trkpt>
      <trkpt lat="22.914158" lon="109.788175">
        <ele>90.986375</ele>
        <time>2026-08-15T08:06:21.000Z</time>
      </trkpt>
      <trkpt lat="22.914115" lon="109.788197">
        <ele>90.943980</ele>
        <time>2026-08-15T08:06:22.000Z</time>
      </trkpt>
      <trkpt lat="22.914071" lon="109.788219">
        <ele>90.900776</ele>
        <time>2026-08-15T08:06:23.000Z</time>
      </trkpt>
      <trkpt lat="22.914028" lon="109.788241">
        <ele>90.858380</ele>
        <time>2026-08-15T08:06:24.000Z</time>
      </trkpt>
      <trkpt lat="22.913985" lon="109.788264">
        <ele>90.815628</ele>
        <time>2026-08-15T08:06:25.000Z</time>
      </trkpt>
      <trkpt lat="22.913942" lon="109.788288">
        <ele>90.772506</ele>
        <time>2026-08-15T08:06:26.000Z</time>
      </trkpt>
      <trkpt lat="22.913903" lon="109.788308">
        <ele>90.734038</ele>
        <time>2026-08-15T08:06:27.000Z</time>
      </trkpt>
      <trkpt lat="22.913860" lon="109.788331">
        <ele>90.691286</ele>
        <time>2026-08-15T08:06:28.000Z</time>
      </trkpt>
      <trkpt lat="22.913817" lon="109.788355">
        <ele>90.648164</ele>
        <time>2026-08-15T08:06:29.000Z</time>
      </trkpt>
      <trkpt lat="22.913771" lon="109.788379">
        <ele>90.602647</ele>
        <time>2026-08-15T08:06:30.000Z</time>
      </trkpt>
      <trkpt lat="22.913725" lon="109.788404">
        <ele>90.556767</ele>
        <time>2026-08-15T08:06:31.000Z</time>
      </trkpt>
      <trkpt lat="22.913680" lon="109.788427">
        <ele>90.512408</ele>
        <time>2026-08-15T08:06:32.000Z</time>
      </trkpt>
      <trkpt lat="22.913635" lon="109.788450">
        <ele>90.468048</ele>
        <time>2026-08-15T08:06:33.000Z</time>
      </trkpt>
      <trkpt lat="22.913593" lon="109.788474">
        <ele>90.425718</ele>
        <time>2026-08-15T08:06:34.000Z</time>
      </trkpt>
      <trkpt lat="22.913550" lon="109.788499">
        <ele>90.382214</ele>
        <time>2026-08-15T08:06:35.000Z</time>
      </trkpt>
      <trkpt lat="22.913506" lon="109.788525">
        <ele>90.337536</ele>
        <time>2026-08-15T08:06:36.000Z</time>
      </trkpt>
      <trkpt lat="22.913461" lon="109.788549">
        <ele>90.292821</ele>
        <time>2026-08-15T08:06:37.000Z</time>
      </trkpt>
      <trkpt lat="22.913414" lon="109.788573">
        <ele>90.246497</ele>
        <time>2026-08-15T08:06:38.000Z</time>
      </trkpt>
      <trkpt lat="22.913367" lon="109.788596">
        <ele>90.200518</ele>
        <time>2026-08-15T08:06:39.000Z</time>
      </trkpt>
      <trkpt lat="22.913319" lon="109.788619">
        <ele>90.153724</ele>
        <time>2026-08-15T08:06:40.000Z</time>
      </trkpt>
      <trkpt lat="22.913271" lon="109.788638">
        <ele>90.108157</ele>
        <time>2026-08-15T08:06:41.000Z</time>
      </trkpt>
      <trkpt lat="22.913223" lon="109.788658">
        <ele>90.062303</ele>
        <time>2026-08-15T08:06:42.000Z</time>
      </trkpt>
      <trkpt lat="22.913174" lon="109.788681">
        <ele>90.014692</ele>
        <time>2026-08-15T08:06:43.000Z</time>
      </trkpt>
      <trkpt lat="22.913127" lon="109.788705">
        <ele>89.956476</ele>
        <time>2026-08-15T08:06:44.000Z</time>
      </trkpt>
      <trkpt lat="22.913079" lon="109.788729">
        <ele>89.873115</ele>
        <time>2026-08-15T08:06:45.000Z</time>
      </trkpt>
      <trkpt lat="22.913033" lon="109.788752">
        <ele>89.793227</ele>
        <time>2026-08-15T08:06:46.000Z</time>
      </trkpt>
      <trkpt lat="22.912986" lon="109.788777">
        <ele>89.710667</ele>
        <time>2026-08-15T08:06:47.000Z</time>
      </trkpt>
      <trkpt lat="22.912937" lon="109.788802">
        <ele>89.625262</ele>
        <time>2026-08-15T08:06:48.000Z</time>
      </trkpt>
      <trkpt lat="22.912889" lon="109.788827">
        <ele>89.541283</ele>
        <time>2026-08-15T08:06:49.000Z</time>
      </trkpt>
      <trkpt lat="22.912840" lon="109.788852">
        <ele>89.455878</ele>
        <time>2026-08-15T08:06:50.000Z</time>
      </trkpt>
      <trkpt lat="22.912790" lon="109.788876">
        <ele>89.369641</ele>
        <time>2026-08-15T08:06:51.000Z</time>
      </trkpt>
      <trkpt lat="22.912739" lon="109.788903">
        <ele>89.280136</ele>
        <time>2026-08-15T08:06:52.000Z</time>
      </trkpt>
      <trkpt lat="22.912688" lon="109.788929">
        <ele>89.191258</ele>
        <time>2026-08-15T08:06:53.000Z</time>
      </trkpt>
      <trkpt lat="22.912635" lon="109.788955">
        <ele>89.099515</ele>
        <time>2026-08-15T08:06:54.000Z</time>
      </trkpt>
      <trkpt lat="22.912582" lon="109.788983">
        <ele>89.006537</ele>
        <time>2026-08-15T08:06:55.000Z</time>
      </trkpt>
      <trkpt lat="22.912528" lon="109.789009">
        <ele>88.913354</ele>
        <time>2026-08-15T08:06:56.000Z</time>
      </trkpt>
      <trkpt lat="22.912475" lon="109.789036">
        <ele>88.821003</ele>
        <time>2026-08-15T08:06:57.000Z</time>
      </trkpt>
      <trkpt lat="22.912421" lon="109.789062">
        <ele>88.727820</ele>
        <time>2026-08-15T08:06:58.000Z</time>
      </trkpt>
      <trkpt lat="22.912369" lon="109.789088">
        <ele>88.637511</ele>
        <time>2026-08-15T08:06:59.000Z</time>
      </trkpt>
      <trkpt lat="22.912319" lon="109.789114">
        <ele>88.550059</ele>
        <time>2026-08-15T08:07:00.000Z</time>
      </trkpt>
      <trkpt lat="22.912266" lon="109.789140">
        <ele>88.458315</ele>
        <time>2026-08-15T08:07:01.000Z</time>
      </trkpt>
      <trkpt lat="22.912215" lon="109.789165">
        <ele>88.370045</ele>
        <time>2026-08-15T08:07:02.000Z</time>
      </trkpt>
      <trkpt lat="22.912164" lon="109.789190">
        <ele>88.281775</ele>
        <time>2026-08-15T08:07:03.000Z</time>
      </trkpt>
      <trkpt lat="22.912113" lon="109.789216">
        <ele>88.192897</ele>
        <time>2026-08-15T08:07:04.000Z</time>
      </trkpt>
      <trkpt lat="22.912062" lon="109.789241">
        <ele>88.104627</ele>
        <time>2026-08-15T08:07:05.000Z</time>
      </trkpt>
      <trkpt lat="22.912012" lon="109.789265">
        <ele>88.018390</ele>
        <time>2026-08-15T08:07:06.000Z</time>
      </trkpt>
      <trkpt lat="22.911962" lon="109.789291">
        <ele>87.930938</ele>
        <time>2026-08-15T08:07:07.000Z</time>
      </trkpt>
      <trkpt lat="22.911912" lon="109.789317">
        <ele>87.843485</ele>
        <time>2026-08-15T08:07:08.000Z</time>
      </trkpt>
      <trkpt lat="22.911863" lon="109.789342">
        <ele>87.758080</ele>
        <time>2026-08-15T08:07:09.000Z</time>
      </trkpt>
      <trkpt lat="22.911813" lon="109.789368">
        <ele>87.670628</ele>
        <time>2026-08-15T08:07:10.000Z</time>
      </trkpt>
      <trkpt lat="22.911761" lon="109.789393">
        <ele>87.580917</ele>
        <time>2026-08-15T08:07:11.000Z</time>
      </trkpt>
      <trkpt lat="22.911709" lon="109.789420">
        <ele>87.489992</ele>
        <time>2026-08-15T08:07:12.000Z</time>
      </trkpt>
      <trkpt lat="22.911657" lon="109.789444">
        <ele>87.400860</ele>
        <time>2026-08-15T08:07:13.000Z</time>
      </trkpt>
      <trkpt lat="22.911603" lon="109.789470">
        <ele>87.307677</ele>
        <time>2026-08-15T08:07:14.000Z</time>
      </trkpt>
      <trkpt lat="22.911548" lon="109.789496">
        <ele>87.213049</ele>
        <time>2026-08-15T08:07:15.000Z</time>
      </trkpt>
      <trkpt lat="22.911495" lon="109.789524">
        <ele>87.129913</ele>
        <time>2026-08-15T08:07:16.000Z</time>
      </trkpt>
      <trkpt lat="22.911441" lon="109.789552">
        <ele>87.070556</ele>
        <time>2026-08-15T08:07:17.000Z</time>
      </trkpt>
      <trkpt lat="22.911388" lon="109.789578">
        <ele>87.012869</ele>
        <time>2026-08-15T08:07:18.000Z</time>
      </trkpt>
      <trkpt lat="22.911334" lon="109.789606">
        <ele>86.953512</ele>
        <time>2026-08-15T08:07:19.000Z</time>
      </trkpt>
      <trkpt lat="22.911280" lon="109.789633">
        <ele>86.894543</ele>
        <time>2026-08-15T08:07:20.000Z</time>
      </trkpt>
      <trkpt lat="22.911225" lon="109.789661">
        <ele>86.834289</ele>
        <time>2026-08-15T08:07:21.000Z</time>
      </trkpt>
      <trkpt lat="22.911171" lon="109.789691">
        <ele>86.774122</ele>
        <time>2026-08-15T08:07:22.000Z</time>
      </trkpt>
      <trkpt lat="22.911117" lon="109.789720">
        <ele>86.714366</ele>
        <time>2026-08-15T08:07:23.000Z</time>
      </trkpt>
      <trkpt lat="22.911063" lon="109.789749">
        <ele>86.654609</ele>
        <time>2026-08-15T08:07:24.000Z</time>
      </trkpt>
      <trkpt lat="22.911008" lon="109.789778">
        <ele>86.593962</ele>
        <time>2026-08-15T08:07:25.000Z</time>
      </trkpt>
      <trkpt lat="22.910953" lon="109.789806">
        <ele>86.533709</ele>
        <time>2026-08-15T08:07:26.000Z</time>
      </trkpt>
      <trkpt lat="22.910899" lon="109.789836">
        <ele>86.473541</ele>
        <time>2026-08-15T08:07:27.000Z</time>
      </trkpt>
      <trkpt lat="22.910845" lon="109.789864">
        <ele>86.414184</ele>
        <time>2026-08-15T08:07:28.000Z</time>
      </trkpt>
      <trkpt lat="22.910791" lon="109.789892">
        <ele>86.354827</ele>
        <time>2026-08-15T08:07:29.000Z</time>
      </trkpt>
      <trkpt lat="22.910737" lon="109.789920">
        <ele>86.295470</ele>
        <time>2026-08-15T08:07:30.000Z</time>
      </trkpt>
      <trkpt lat="22.910684" lon="109.789947">
        <ele>86.237401</ele>
        <time>2026-08-15T08:07:31.000Z</time>
      </trkpt>
      <trkpt lat="22.910630" lon="109.789974">
        <ele>86.178432</ele>
        <time>2026-08-15T08:07:32.000Z</time>
      </trkpt>
      <trkpt lat="22.910576" lon="109.790001">
        <ele>86.119463</ele>
        <time>2026-08-15T08:07:33.000Z</time>
      </trkpt>
      <trkpt lat="22.910522" lon="109.790028">
        <ele>86.060494</ele>
        <time>2026-08-15T08:07:34.000Z</time>
      </trkpt>
      <trkpt lat="22.910469" lon="109.790057">
        <ele>86.001624</ele>
        <time>2026-08-15T08:07:35.000Z</time>
      </trkpt>
      <trkpt lat="22.910415" lon="109.790084">
        <ele>85.942655</ele>
        <time>2026-08-15T08:07:36.000Z</time>
      </trkpt>
      <trkpt lat="22.910362" lon="109.790110">
        <ele>85.884968</ele>
        <time>2026-08-15T08:07:37.000Z</time>
      </trkpt>
      <trkpt lat="22.910308" lon="109.790136">
        <ele>85.826375</ele>
        <time>2026-08-15T08:07:38.000Z</time>
      </trkpt>
      <trkpt lat="22.910254" lon="109.790162">
        <ele>85.767782</ele>
        <time>2026-08-15T08:07:39.000Z</time>
      </trkpt>
      <trkpt lat="22.910199" lon="109.790188">
        <ele>85.708282</ele>
        <time>2026-08-15T08:07:40.000Z</time>
      </trkpt>
      <trkpt lat="22.910145" lon="109.790216">
        <ele>85.648924</ele>
        <time>2026-08-15T08:07:41.000Z</time>
      </trkpt>
      <trkpt lat="22.910090" lon="109.790242">
        <ele>85.589424</ele>
        <time>2026-08-15T08:07:42.000Z</time>
      </trkpt>
      <trkpt lat="22.910037" lon="109.790269">
        <ele>85.531354</ele>
        <time>2026-08-15T08:07:43.000Z</time>
      </trkpt>
      <trkpt lat="22.909985" lon="109.790295">
        <ele>85.474569</ele>
        <time>2026-08-15T08:07:44.000Z</time>
      </trkpt>
      <trkpt lat="22.909934" lon="109.790322">
        <ele>85.418289</ele>
        <time>2026-08-15T08:07:45.000Z</time>
      </trkpt>
      <trkpt lat="22.909883" lon="109.790348">
        <ele>85.362548</ele>
        <time>2026-08-15T08:07:46.000Z</time>
      </trkpt>
      <trkpt lat="22.909834" lon="109.790374">
        <ele>85.363039</ele>
        <time>2026-08-15T08:07:47.000Z</time>
      </trkpt>
      <trkpt lat="22.909785" lon="109.790399">
        <ele>85.363527</ele>
        <time>2026-08-15T08:07:48.000Z</time>
      </trkpt>
      <trkpt lat="22.909737" lon="109.790423">
        <ele>85.364003</ele>
        <time>2026-08-15T08:07:49.000Z</time>
      </trkpt>
      <trkpt lat="22.909689" lon="109.790447">
        <ele>85.364480</ele>
        <time>2026-08-15T08:07:50.000Z</time>
      </trkpt>
      <trkpt lat="22.909643" lon="109.790471">
        <ele>85.364940</ele>
        <time>2026-08-15T08:07:51.000Z</time>
      </trkpt>
      <trkpt lat="22.909598" lon="109.790493">
        <ele>85.365385</ele>
        <time>2026-08-15T08:07:52.000Z</time>
      </trkpt>
      <trkpt lat="22.909554" lon="109.790516">
        <ele>85.365825</ele>
        <time>2026-08-15T08:07:53.000Z</time>
      </trkpt>
      <trkpt lat="22.909510" lon="109.790539">
        <ele>85.366265</ele>
        <time>2026-08-15T08:07:54.000Z</time>
      </trkpt>
      <trkpt lat="22.909465" lon="109.790561">
        <ele>85.366710</ele>
        <time>2026-08-15T08:07:55.000Z</time>
      </trkpt>
      <trkpt lat="22.909421" lon="109.790583">
        <ele>85.367146</ele>
        <time>2026-08-15T08:07:56.000Z</time>
      </trkpt>
      <trkpt lat="22.909379" lon="109.790607">
        <ele>85.367574</ele>
        <time>2026-08-15T08:07:57.000Z</time>
      </trkpt>
      <trkpt lat="22.909335" lon="109.790630">
        <ele>85.368014</ele>
        <time>2026-08-15T08:07:58.000Z</time>
      </trkpt>
      <trkpt lat="22.909291" lon="109.790653">
        <ele>85.368455</ele>
        <time>2026-08-15T08:07:59.000Z</time>
      </trkpt>
      <trkpt lat="22.909246" lon="109.790675">
        <ele>85.368899</ele>
        <time>2026-08-15T08:08:00.000Z</time>
      </trkpt>
      <trkpt lat="22.909201" lon="109.790697">
        <ele>85.369344</ele>
        <time>2026-08-15T08:08:01.000Z</time>
      </trkpt>
      <trkpt lat="22.909157" lon="109.790716">
        <ele>85.369771</ele>
        <time>2026-08-15T08:08:02.000Z</time>
      </trkpt>
      <trkpt lat="22.909113" lon="109.790736">
        <ele>85.370201</ele>
        <time>2026-08-15T08:08:03.000Z</time>
      </trkpt>
      <trkpt lat="22.909068" lon="109.790758">
        <ele>85.370646</ele>
        <time>2026-08-15T08:08:04.000Z</time>
      </trkpt>
      <trkpt lat="22.909022" lon="109.790780">
        <ele>85.371099</ele>
        <time>2026-08-15T08:08:05.000Z</time>
      </trkpt>
      <trkpt lat="22.908976" lon="109.790803">
        <ele>85.371555</ele>
        <time>2026-08-15T08:08:06.000Z</time>
      </trkpt>
      <trkpt lat="22.908933" lon="109.790826">
        <ele>85.371988</ele>
        <time>2026-08-15T08:08:07.000Z</time>
      </trkpt>
      <trkpt lat="22.908888" lon="109.790848">
        <ele>85.372432</ele>
        <time>2026-08-15T08:08:08.000Z</time>
      </trkpt>
      <trkpt lat="22.908842" lon="109.790869">
        <ele>85.372882</ele>
        <time>2026-08-15T08:08:09.000Z</time>
      </trkpt>
      <trkpt lat="22.908798" lon="109.790889">
        <ele>85.373312</ele>
        <time>2026-08-15T08:08:10.000Z</time>
      </trkpt>
      <trkpt lat="22.908751" lon="109.790908">
        <ele>85.373764</ele>
        <time>2026-08-15T08:08:11.000Z</time>
      </trkpt>
      <trkpt lat="22.908706" lon="109.790929">
        <ele>85.374206</ele>
        <time>2026-08-15T08:08:12.000Z</time>
      </trkpt>
      <trkpt lat="22.908661" lon="109.790952">
        <ele>85.374654</ele>
        <time>2026-08-15T08:08:13.000Z</time>
      </trkpt>
      <trkpt lat="22.908616" lon="109.790976">
        <ele>85.375106</ele>
        <time>2026-08-15T08:08:14.000Z</time>
      </trkpt>
      <trkpt lat="22.908570" lon="109.791000">
        <ele>85.375566</ele>
        <time>2026-08-15T08:08:15.000Z</time>
      </trkpt>
      <trkpt lat="22.908524" lon="109.791022">
        <ele>85.376019</ele>
        <time>2026-08-15T08:08:16.000Z</time>
      </trkpt>
      <trkpt lat="22.908478" lon="109.791042">
        <ele>85.376466</ele>
        <time>2026-08-15T08:08:17.000Z</time>
      </trkpt>
      <trkpt lat="22.908430" lon="109.791062">
        <ele>85.376929</ele>
        <time>2026-08-15T08:08:18.000Z</time>
      </trkpt>
      <trkpt lat="22.908386" lon="109.791083">
        <ele>85.377362</ele>
        <time>2026-08-15T08:08:19.000Z</time>
      </trkpt>
      <trkpt lat="22.908341" lon="109.791104">
        <ele>85.377804</ele>
        <time>2026-08-15T08:08:20.000Z</time>
      </trkpt>
      <trkpt lat="22.908295" lon="109.791124">
        <ele>85.378250</ele>
        <time>2026-08-15T08:08:21.000Z</time>
      </trkpt>
      <trkpt lat="22.908250" lon="109.791145">
        <ele>85.378692</ele>
        <time>2026-08-15T08:08:22.000Z</time>
      </trkpt>
      <trkpt lat="22.908205" lon="109.791163">
        <ele>85.361278</ele>
        <time>2026-08-15T08:08:23.000Z</time>
      </trkpt>
      <trkpt lat="22.908161" lon="109.791183">
        <ele>85.340732</ele>
        <time>2026-08-15T08:08:24.000Z</time>
      </trkpt>
      <trkpt lat="22.908116" lon="109.791202">
        <ele>85.319936</ele>
        <time>2026-08-15T08:08:25.000Z</time>
      </trkpt>
      <trkpt lat="22.908071" lon="109.791214">
        <ele>85.299978</ele>
        <time>2026-08-15T08:08:26.000Z</time>
      </trkpt>
      <trkpt lat="22.908025" lon="109.791225">
        <ele>85.279690</ele>
        <time>2026-08-15T08:08:27.000Z</time>
      </trkpt>
      <trkpt lat="22.907978" lon="109.791240">
        <ele>85.258590</ele>
        <time>2026-08-15T08:08:28.000Z</time>
      </trkpt>
      <trkpt lat="22.907930" lon="109.791257">
        <ele>85.236844</ele>
        <time>2026-08-15T08:08:29.000Z</time>
      </trkpt>
      <trkpt lat="22.907883" lon="109.791276">
        <ele>85.215242</ele>
        <time>2026-08-15T08:08:30.000Z</time>
      </trkpt>
      <trkpt lat="22.907834" lon="109.791295">
        <ele>85.192831</ele>
        <time>2026-08-15T08:08:31.000Z</time>
      </trkpt>
      <trkpt lat="22.907782" lon="109.791320">
        <ele>85.168336</ele>
        <time>2026-08-15T08:08:32.000Z</time>
      </trkpt>
      <trkpt lat="22.907729" lon="109.791345">
        <ele>85.143447</ele>
        <time>2026-08-15T08:08:33.000Z</time>
      </trkpt>
      <trkpt lat="22.907678" lon="109.791365">
        <ele>85.120092</ele>
        <time>2026-08-15T08:08:34.000Z</time>
      </trkpt>
      <trkpt lat="22.907626" lon="109.791381">
        <ele>85.096812</ele>
        <time>2026-08-15T08:08:35.000Z</time>
      </trkpt>
      <trkpt lat="22.907572" lon="109.791403">
        <ele>85.071970</ele>
        <time>2026-08-15T08:08:36.000Z</time>
      </trkpt>
      <trkpt lat="22.907517" lon="109.791423">
        <ele>85.046987</ele>
        <time>2026-08-15T08:08:37.000Z</time>
      </trkpt>
      <trkpt lat="22.907462" lon="109.791445">
        <ele>85.021741</ele>
        <time>2026-08-15T08:08:38.000Z</time>
      </trkpt>
      <trkpt lat="22.907405" lon="109.791459">
        <ele>84.996570</ele>
        <time>2026-08-15T08:08:39.000Z</time>
      </trkpt>
      <trkpt lat="22.907358" lon="109.791473">
        <ele>84.975579</ele>
        <time>2026-08-15T08:08:40.000Z</time>
      </trkpt>
      <trkpt lat="22.907322" lon="109.791482">
        <ele>84.959667</ele>
        <time>2026-08-15T08:08:41.000Z</time>
      </trkpt>
      <trkpt lat="22.907281" lon="109.791496">
        <ele>84.941155</ele>
        <time>2026-08-15T08:08:42.000Z</time>
      </trkpt>
      <trkpt lat="22.907238" lon="109.791513">
        <ele>84.921445</ele>
        <time>2026-08-15T08:08:43.000Z</time>
      </trkpt>
      <trkpt lat="22.907192" lon="109.791528">
        <ele>84.900757</ele>
        <time>2026-08-15T08:08:44.000Z</time>
      </trkpt>
      <trkpt lat="22.907140" lon="109.791534">
        <ele>84.878234</ele>
        <time>2026-08-15T08:08:45.000Z</time>
      </trkpt>
      <trkpt lat="22.907088" lon="109.791545">
        <ele>84.855416</ele>
        <time>2026-08-15T08:08:46.000Z</time>
      </trkpt>
      <trkpt lat="22.907036" lon="109.791557">
        <ele>84.832519</ele>
        <time>2026-08-15T08:08:47.000Z</time>
      </trkpt>
      <trkpt lat="22.906980" lon="109.791570">
        <ele>84.807853</ele>
        <time>2026-08-15T08:08:48.000Z</time>
      </trkpt>
      <trkpt lat="22.906926" lon="109.791582">
        <ele>84.784113</ele>
        <time>2026-08-15T08:08:49.000Z</time>
      </trkpt>
      <trkpt lat="22.906871" lon="109.791601">
        <ele>84.759253</ele>
        <time>2026-08-15T08:08:50.000Z</time>
      </trkpt>
      <trkpt lat="22.906815" lon="109.791617">
        <ele>84.734312</ele>
        <time>2026-08-15T08:08:51.000Z</time>
      </trkpt>
      <trkpt lat="22.906760" lon="109.791632">
        <ele>84.709887</ele>
        <time>2026-08-15T08:08:52.000Z</time>
      </trkpt>
      <trkpt lat="22.906700" lon="109.791645">
        <ele>84.683534</ele>
        <time>2026-08-15T08:08:53.000Z</time>
      </trkpt>
      <trkpt lat="22.906643" lon="109.791657">
        <ele>84.658526</ele>
        <time>2026-08-15T08:08:54.000Z</time>
      </trkpt>
      <trkpt lat="22.906587" lon="109.791665">
        <ele>84.634199</ele>
        <time>2026-08-15T08:08:55.000Z</time>
      </trkpt>
      <trkpt lat="22.906531" lon="109.791669">
        <ele>84.610027</ele>
        <time>2026-08-15T08:08:56.000Z</time>
      </trkpt>
      <trkpt lat="22.906475" lon="109.791670">
        <ele>84.627946</ele>
        <time>2026-08-15T08:08:57.000Z</time>
      </trkpt>
      <trkpt lat="22.906419" lon="109.791671">
        <ele>84.659677</ele>
        <time>2026-08-15T08:08:58.000Z</time>
      </trkpt>
      <trkpt lat="22.906360" lon="109.791667">
        <ele>84.693168</ele>
        <time>2026-08-15T08:08:59.000Z</time>
      </trkpt>
      <trkpt lat="22.906304" lon="109.791675">
        <ele>84.725167</ele>
        <time>2026-08-15T08:09:00.000Z</time>
      </trkpt>
      <trkpt lat="22.906252" lon="109.791682">
        <ele>84.754853</ele>
        <time>2026-08-15T08:09:01.000Z</time>
      </trkpt>
      <trkpt lat="22.906192" lon="109.791688">
        <ele>84.788989</ele>
        <time>2026-08-15T08:09:02.000Z</time>
      </trkpt>
      <trkpt lat="22.906133" lon="109.791689">
        <ele>84.822419</ele>
        <time>2026-08-15T08:09:03.000Z</time>
      </trkpt>
      <trkpt lat="22.906073" lon="109.791693">
        <ele>84.856476</ele>
        <time>2026-08-15T08:09:04.000Z</time>
      </trkpt>
      <trkpt lat="22.906014" lon="109.791702">
        <ele>84.890230</ele>
        <time>2026-08-15T08:09:05.000Z</time>
      </trkpt>
      <trkpt lat="22.905956" lon="109.791718">
        <ele>84.924134</ele>
        <time>2026-08-15T08:09:06.000Z</time>
      </trkpt>
      <trkpt lat="22.905897" lon="109.791729">
        <ele>84.958049</ele>
        <time>2026-08-15T08:09:07.000Z</time>
      </trkpt>
      <trkpt lat="22.905841" lon="109.791743">
        <ele>84.990606</ele>
        <time>2026-08-15T08:09:08.000Z</time>
      </trkpt>
      <trkpt lat="22.905786" lon="109.791772">
        <ele>85.025246</ele>
        <time>2026-08-15T08:09:09.000Z</time>
      </trkpt>
      <trkpt lat="22.905732" lon="109.791793">
        <ele>85.057743</ele>
        <time>2026-08-15T08:09:10.000Z</time>
      </trkpt>
      <trkpt lat="22.905681" lon="109.791809">
        <ele>85.087819</ele>
        <time>2026-08-15T08:09:11.000Z</time>
      </trkpt>
      <trkpt lat="22.905630" lon="109.791827">
        <ele>85.118201</ele>
        <time>2026-08-15T08:09:12.000Z</time>
      </trkpt>
      <trkpt lat="22.905577" lon="109.791844">
        <ele>85.149511</ele>
        <time>2026-08-15T08:09:13.000Z</time>
      </trkpt>
      <trkpt lat="22.905523" lon="109.791860">
        <ele>85.181223</ele>
        <time>2026-08-15T08:09:14.000Z</time>
      </trkpt>
      <trkpt lat="22.905467" lon="109.791873">
        <ele>85.213667</ele>
        <time>2026-08-15T08:09:15.000Z</time>
      </trkpt>
      <trkpt lat="22.905412" lon="109.791884">
        <ele>85.245351</ele>
        <time>2026-08-15T08:09:16.000Z</time>
      </trkpt>
      <trkpt lat="22.905359" lon="109.791893">
        <ele>85.275743</ele>
        <time>2026-08-15T08:09:17.000Z</time>
      </trkpt>
      <trkpt lat="22.905305" lon="109.791902">
        <ele>85.306694</ele>
        <time>2026-08-15T08:09:18.000Z</time>
      </trkpt>
      <trkpt lat="22.905249" lon="109.791910">
        <ele>85.338694</ele>
        <time>2026-08-15T08:09:19.000Z</time>
      </trkpt>
      <trkpt lat="22.905195" lon="109.791920">
        <ele>85.369729</ele>
        <time>2026-08-15T08:09:20.000Z</time>
      </trkpt>
      <trkpt lat="22.905142" lon="109.791933">
        <ele>85.400513</ele>
        <time>2026-08-15T08:09:21.000Z</time>
      </trkpt>
      <trkpt lat="22.905090" lon="109.791944">
        <ele>85.430527</ele>
        <time>2026-08-15T08:09:22.000Z</time>
      </trkpt>
      <trkpt lat="22.905038" lon="109.791954">
        <ele>85.460446</ele>
        <time>2026-08-15T08:09:23.000Z</time>
      </trkpt>
      <trkpt lat="22.904986" lon="109.791964">
        <ele>85.490364</ele>
        <time>2026-08-15T08:09:24.000Z</time>
      </trkpt>
      <trkpt lat="22.904935" lon="109.791973">
        <ele>85.519637</ele>
        <time>2026-08-15T08:09:25.000Z</time>
      </trkpt>
      <trkpt lat="22.904887" lon="109.791984">
        <ele>85.547430</ele>
        <time>2026-08-15T08:09:26.000Z</time>
      </trkpt>
      <trkpt lat="22.904840" lon="109.791995">
        <ele>85.574670</ele>
        <time>2026-08-15T08:09:27.000Z</time>
      </trkpt>
      <trkpt lat="22.904792" lon="109.792002">
        <ele>85.602108</ele>
        <time>2026-08-15T08:09:28.000Z</time>
      </trkpt>
      <trkpt lat="22.904749" lon="109.792007">
        <ele>85.629304</ele>
        <time>2026-08-15T08:09:29.000Z</time>
      </trkpt>
      <trkpt lat="22.904707" lon="109.792017">
        <ele>85.672197</ele>
        <time>2026-08-15T08:09:30.000Z</time>
      </trkpt>
      <trkpt lat="22.904664" lon="109.792024">
        <ele>85.715572</ele>
        <time>2026-08-15T08:09:31.000Z</time>
      </trkpt>
      <trkpt lat="22.904621" lon="109.792032">
        <ele>85.759093</ele>
        <time>2026-08-15T08:09:32.000Z</time>
      </trkpt>
      <trkpt lat="22.904578" lon="109.792039">
        <ele>85.802468</ele>
        <time>2026-08-15T08:09:33.000Z</time>
      </trkpt>
      <trkpt lat="22.904535" lon="109.792049">
        <ele>85.846337</ele>
        <time>2026-08-15T08:09:34.000Z</time>
      </trkpt>
      <trkpt lat="22.904493" lon="109.792059">
        <ele>85.889230</ele>
        <time>2026-08-15T08:09:35.000Z</time>
      </trkpt>
      <trkpt lat="22.904450" lon="109.792067">
        <ele>85.932751</ele>
        <time>2026-08-15T08:09:36.000Z</time>
      </trkpt>
      <trkpt lat="22.904406" lon="109.792075">
        <ele>85.977255</ele>
        <time>2026-08-15T08:09:37.000Z</time>
      </trkpt>
      <trkpt lat="22.904363" lon="109.792082">
        <ele>86.020630</ele>
        <time>2026-08-15T08:09:38.000Z</time>
      </trkpt>
      <trkpt lat="22.904321" lon="109.792095">
        <ele>86.064198</ele>
        <time>2026-08-15T08:09:39.000Z</time>
      </trkpt>
      <trkpt lat="22.904281" lon="109.792107">
        <ele>86.105596</ele>
        <time>2026-08-15T08:09:40.000Z</time>
      </trkpt>
      <trkpt lat="22.904242" lon="109.792118">
        <ele>86.145793</ele>
        <time>2026-08-15T08:09:41.000Z</time>
      </trkpt>
      <trkpt lat="22.904203" lon="109.792127">
        <ele>86.185567</ele>
        <time>2026-08-15T08:09:42.000Z</time>
      </trkpt>
      <trkpt lat="22.904163" lon="109.792137">
        <ele>86.226514</ele>
        <time>2026-08-15T08:09:43.000Z</time>
      </trkpt>
      <trkpt lat="22.904123" lon="109.792145">
        <ele>86.267089</ele>
        <time>2026-08-15T08:09:44.000Z</time>
      </trkpt>
      <trkpt lat="22.904084" lon="109.792155">
        <ele>86.307064</ele>
        <time>2026-08-15T08:09:45.000Z</time>
      </trkpt>
      <trkpt lat="22.904044" lon="109.792163">
        <ele>86.347638</ele>
        <time>2026-08-15T08:09:46.000Z</time>
      </trkpt>
      <trkpt lat="22.904003" lon="109.792169">
        <ele>86.388909</ele>
        <time>2026-08-15T08:09:47.000Z</time>
      </trkpt>
      <trkpt lat="22.903964" lon="109.792177">
        <ele>86.428502</ele>
        <time>2026-08-15T08:09:48.000Z</time>
      </trkpt>
      <trkpt lat="22.903925" lon="109.792185">
        <ele>86.468096</ele>
        <time>2026-08-15T08:09:49.000Z</time>
      </trkpt>
      <trkpt lat="22.903883" lon="109.792196">
        <ele>86.511196</ele>
        <time>2026-08-15T08:09:50.000Z</time>
      </trkpt>
      <trkpt lat="22.903845" lon="109.792206">
        <ele>86.550201</ele>
        <time>2026-08-15T08:09:51.000Z</time>
      </trkpt>
      <trkpt lat="22.903807" lon="109.792212">
        <ele>86.588508</ele>
        <time>2026-08-15T08:09:52.000Z</time>
      </trkpt>
      <trkpt lat="22.903768" lon="109.792219">
        <ele>86.627941</ele>
        <time>2026-08-15T08:09:53.000Z</time>
      </trkpt>
      <trkpt lat="22.903726" lon="109.792226">
        <ele>86.670329</ele>
        <time>2026-08-15T08:09:54.000Z</time>
      </trkpt>
      <trkpt lat="22.903685" lon="109.792234">
        <ele>86.711885</ele>
        <time>2026-08-15T08:09:55.000Z</time>
      </trkpt>
      <trkpt lat="22.903645" lon="109.792243">
        <ele>86.752636</ele>
        <time>2026-08-15T08:09:56.000Z</time>
      </trkpt>
      <trkpt lat="22.903605" lon="109.792255">
        <ele>86.794034</ele>
        <time>2026-08-15T08:09:57.000Z</time>
      </trkpt>
      <trkpt lat="22.903566" lon="109.792270">
        <ele>86.835309</ele>
        <time>2026-08-15T08:09:58.000Z</time>
      </trkpt>
      <trkpt lat="22.903526" lon="109.792284">
        <ele>86.877234</ele>
        <time>2026-08-15T08:09:59.000Z</time>
      </trkpt>
      <trkpt lat="22.903484" lon="109.792296">
        <ele>86.920559</ele>
        <time>2026-08-15T08:10:00.000Z</time>
      </trkpt>
      <trkpt lat="22.903439" lon="109.792312">
        <ele>86.967796</ele>
        <time>2026-08-15T08:10:01.000Z</time>
      </trkpt>
      <trkpt lat="22.903395" lon="109.792327">
        <ele>87.013802</ele>
        <time>2026-08-15T08:10:02.000Z</time>
      </trkpt>
      <trkpt lat="22.903350" lon="109.792342">
        <ele>87.060761</ele>
        <time>2026-08-15T08:10:03.000Z</time>
      </trkpt>
      <trkpt lat="22.903306" lon="109.792358">
        <ele>87.107051</ele>
        <time>2026-08-15T08:10:04.000Z</time>
      </trkpt>
      <trkpt lat="22.903266" lon="109.792373">
        <ele>87.149267</ele>
        <time>2026-08-15T08:10:05.000Z</time>
      </trkpt>
      <trkpt lat="22.903227" lon="109.792390">
        <ele>87.191192</ele>
        <time>2026-08-15T08:10:06.000Z</time>
      </trkpt>
      <trkpt lat="22.903187" lon="109.792402">
        <ele>87.232590</ele>
        <time>2026-08-15T08:10:07.000Z</time>
      </trkpt>
      <trkpt lat="22.903141" lon="109.792414">
        <ele>87.279784</ele>
        <time>2026-08-15T08:10:08.000Z</time>
      </trkpt>
      <trkpt lat="22.903096" lon="109.792430">
        <ele>87.327021</ele>
        <time>2026-08-15T08:10:09.000Z</time>
      </trkpt>
      <trkpt lat="22.903054" lon="109.792451">
        <ele>87.373150</ele>
        <time>2026-08-15T08:10:10.000Z</time>
      </trkpt>
      <trkpt lat="22.903014" lon="109.792469">
        <ele>87.416345</ele>
        <time>2026-08-15T08:10:11.000Z</time>
      </trkpt>
      <trkpt lat="22.902975" lon="109.792490">
        <ele>87.428555</ele>
        <time>2026-08-15T08:10:12.000Z</time>
      </trkpt>
      <trkpt lat="22.902934" lon="109.792510">
        <ele>87.440412</ele>
        <time>2026-08-15T08:10:13.000Z</time>
      </trkpt>
      <trkpt lat="22.902890" lon="109.792530">
        <ele>87.452994</ele>
        <time>2026-08-15T08:10:14.000Z</time>
      </trkpt>
      <trkpt lat="22.902853" lon="109.792550">
        <ele>87.463897</ele>
        <time>2026-08-15T08:10:15.000Z</time>
      </trkpt>
      <trkpt lat="22.902817" lon="109.792571">
        <ele>87.474678</ele>
        <time>2026-08-15T08:10:16.000Z</time>
      </trkpt>
      <trkpt lat="22.902779" lon="109.792591">
        <ele>87.485817</ele>
        <time>2026-08-15T08:10:17.000Z</time>
      </trkpt>
      <trkpt lat="22.902738" lon="109.792612">
        <ele>87.497776</ele>
        <time>2026-08-15T08:10:18.000Z</time>
      </trkpt>
      <trkpt lat="22.902700" lon="109.792632">
        <ele>87.508916</ele>
        <time>2026-08-15T08:10:19.000Z</time>
      </trkpt>
      <trkpt lat="22.902658" lon="109.792655">
        <ele>87.521324</ele>
        <time>2026-08-15T08:10:20.000Z</time>
      </trkpt>
      <trkpt lat="22.902618" lon="109.792678">
        <ele>87.533264</ele>
        <time>2026-08-15T08:10:21.000Z</time>
      </trkpt>
      <trkpt lat="22.902577" lon="109.792703">
        <ele>87.545669</ele>
        <time>2026-08-15T08:10:22.000Z</time>
      </trkpt>
      <trkpt lat="22.902535" lon="109.792730">
        <ele>87.558544</ele>
        <time>2026-08-15T08:10:23.000Z</time>
      </trkpt>
      <trkpt lat="22.902495" lon="109.792754">
        <ele>87.570600</ele>
        <time>2026-08-15T08:10:24.000Z</time>
      </trkpt>
      <trkpt lat="22.902453" lon="109.792778">
        <ele>87.583120</ele>
        <time>2026-08-15T08:10:25.000Z</time>
      </trkpt>
      <trkpt lat="22.902410" lon="109.792808">
        <ele>87.596603</ele>
        <time>2026-08-15T08:10:26.000Z</time>
      </trkpt>
      <trkpt lat="22.902365" lon="109.792835">
        <ele>87.610166</ele>
        <time>2026-08-15T08:10:27.000Z</time>
      </trkpt>
      <trkpt lat="22.902321" lon="109.792864">
        <ele>87.623744</ele>
        <time>2026-08-15T08:10:28.000Z</time>
      </trkpt>
      <trkpt lat="22.902275" lon="109.792893">
        <ele>87.637775</ele>
        <time>2026-08-15T08:10:29.000Z</time>
      </trkpt>
      <trkpt lat="22.902227" lon="109.792922">
        <ele>87.652266</ele>
        <time>2026-08-15T08:10:30.000Z</time>
      </trkpt>
      <trkpt lat="22.902182" lon="109.792949">
        <ele>87.665828</ele>
        <time>2026-08-15T08:10:31.000Z</time>
      </trkpt>
      <trkpt lat="22.902136" lon="109.792976">
        <ele>87.679623</ele>
        <time>2026-08-15T08:10:32.000Z</time>
      </trkpt>
      <trkpt lat="22.902090" lon="109.792998">
        <ele>87.692882</ele>
        <time>2026-08-15T08:10:33.000Z</time>
      </trkpt>
      <trkpt lat="22.902046" lon="109.793022">
        <ele>87.705871</ele>
        <time>2026-08-15T08:10:34.000Z</time>
      </trkpt>
      <trkpt lat="22.902004" lon="109.793043">
        <ele>87.718069</ele>
        <time>2026-08-15T08:10:35.000Z</time>
      </trkpt>
      <trkpt lat="22.901962" lon="109.793066">
        <ele>87.730477</ele>
        <time>2026-08-15T08:10:36.000Z</time>
      </trkpt>
      <trkpt lat="22.901924" lon="109.793098">
        <ele>87.743163</ele>
        <time>2026-08-15T08:10:37.000Z</time>
      </trkpt>
      <trkpt lat="22.901886" lon="109.793123">
        <ele>87.754884</ele>
        <time>2026-08-15T08:10:38.000Z</time>
      </trkpt>
      <trkpt lat="22.901847" lon="109.793141">
        <ele>87.766063</ele>
        <time>2026-08-15T08:10:39.000Z</time>
      </trkpt>
      <trkpt lat="22.901817" lon="109.793170">
        <ele>87.776659</ele>
        <time>2026-08-15T08:10:40.000Z</time>
      </trkpt>
      <trkpt lat="22.901785" lon="109.793184">
        <ele>87.785760</ele>
        <time>2026-08-15T08:10:41.000Z</time>
      </trkpt>
      <trkpt lat="22.901753" lon="109.793199">
        <ele>87.794954</ele>
        <time>2026-08-15T08:10:42.000Z</time>
      </trkpt>
      <trkpt lat="22.901724" lon="109.793219">
        <ele>87.804017</ele>
        <time>2026-08-15T08:10:43.000Z</time>
      </trkpt>
      <trkpt lat="22.901696" lon="109.793238">
        <ele>87.812727</ele>
        <time>2026-08-15T08:10:44.000Z</time>
      </trkpt>
      <trkpt lat="22.901670" lon="109.793258">
        <ele>87.821133</ele>
        <time>2026-08-15T08:10:45.000Z</time>
      </trkpt>
      <trkpt lat="22.901646" lon="109.793278">
        <ele>87.829114</ele>
        <time>2026-08-15T08:10:46.000Z</time>
      </trkpt>
      <trkpt lat="22.901623" lon="109.793295">
        <ele>87.836454</ele>
        <time>2026-08-15T08:10:47.000Z</time>
      </trkpt>
      <trkpt lat="22.901610" lon="109.793306">
        <ele>87.840801</ele>
        <time>2026-08-15T08:10:48.000Z</time>
      </trkpt>
      <trkpt lat="22.901606" lon="109.793313">
        <ele>87.842803</ele>
        <time>2026-08-15T08:10:49.000Z</time>
      </trkpt>
      <trkpt lat="22.901604" lon="109.793316">
        <ele>87.843703</ele>
        <time>2026-08-15T08:10:50.000Z</time>
      </trkpt>
      <trkpt lat="22.901550" lon="109.793394">
        <ele>87.867412</ele>
        <time>2026-08-15T08:20:03.000Z</time>
      </trkpt>
      <trkpt lat="22.901537" lon="109.793406">
        <ele>87.871913</ele>
        <time>2026-08-15T08:20:04.000Z</time>
      </trkpt>
      <trkpt lat="22.901524" lon="109.793417">
        <ele>87.876261</ele>
        <time>2026-08-15T08:20:05.000Z</time>
      </trkpt>
      <trkpt lat="22.901509" lon="109.793430">
        <ele>87.881324</ele>
        <time>2026-08-15T08:20:06.000Z</time>
      </trkpt>
      <trkpt lat="22.901489" lon="109.793432">
        <ele>87.886622</ele>
        <time>2026-08-15T08:20:07.000Z</time>
      </trkpt>
      <trkpt lat="22.901469" lon="109.793447">
        <ele>87.888229</ele>
        <time>2026-08-15T08:20:08.000Z</time>
      </trkpt>
      <trkpt lat="22.901448" lon="109.793461">
        <ele>87.869760</ele>
        <time>2026-08-15T08:20:09.000Z</time>
      </trkpt>
      <trkpt lat="22.901427" lon="109.793473">
        <ele>87.851974</ele>
        <time>2026-08-15T08:20:10.000Z</time>
      </trkpt>
      <trkpt lat="22.901402" lon="109.793483">
        <ele>87.832006</ele>
        <time>2026-08-15T08:20:11.000Z</time>
      </trkpt>
      <trkpt lat="22.901377" lon="109.793494">
        <ele>87.811789</ele>
        <time>2026-08-15T08:20:12.000Z</time>
      </trkpt>
      <trkpt lat="22.901351" lon="109.793506">
        <ele>87.790616</ele>
        <time>2026-08-15T08:20:13.000Z</time>
      </trkpt>
      <trkpt lat="22.901327" lon="109.793523">
        <ele>87.769138</ele>
        <time>2026-08-15T08:20:14.000Z</time>
      </trkpt>
      <trkpt lat="22.901303" lon="109.793540">
        <ele>87.747661</ele>
        <time>2026-08-15T08:20:15.000Z</time>
      </trkpt>
      <trkpt lat="22.901278" lon="109.793558">
        <ele>87.725178</ele>
        <time>2026-08-15T08:20:16.000Z</time>
      </trkpt>
      <trkpt lat="22.901252" lon="109.793573">
        <ele>87.703112</ele>
        <time>2026-08-15T08:20:17.000Z</time>
      </trkpt>
      <trkpt lat="22.901227" lon="109.793590">
        <ele>87.681003</ele>
        <time>2026-08-15T08:20:18.000Z</time>
      </trkpt>
      <trkpt lat="22.901200" lon="109.793605">
        <ele>87.658272</ele>
        <time>2026-08-15T08:20:19.000Z</time>
      </trkpt>
      <trkpt lat="22.901172" lon="109.793617">
        <ele>87.635711</ele>
        <time>2026-08-15T08:20:20.000Z</time>
      </trkpt>
      <trkpt lat="22.901145" lon="109.793633">
        <ele>87.612658</ele>
        <time>2026-08-15T08:20:21.000Z</time>
      </trkpt>
      <trkpt lat="22.901117" lon="109.793649">
        <ele>87.588943</ele>
        <time>2026-08-15T08:20:22.000Z</time>
      </trkpt>
      <trkpt lat="22.901091" lon="109.793665">
        <ele>87.566544</ele>
        <time>2026-08-15T08:20:23.000Z</time>
      </trkpt>
      <trkpt lat="22.901065" lon="109.793681">
        <ele>87.544145</ele>
        <time>2026-08-15T08:20:24.000Z</time>
      </trkpt>
      <trkpt lat="22.901037" lon="109.793696">
        <ele>87.520745</ele>
        <time>2026-08-15T08:20:25.000Z</time>
      </trkpt>
      <trkpt lat="22.901004" lon="109.793712">
        <ele>87.493658</ele>
        <time>2026-08-15T08:20:26.000Z</time>
      </trkpt>
      <trkpt lat="22.900971" lon="109.793729">
        <ele>87.466283</ele>
        <time>2026-08-15T08:20:27.000Z</time>
      </trkpt>
      <trkpt lat="22.900937" lon="109.793747">
        <ele>87.437933</ele>
        <time>2026-08-15T08:20:28.000Z</time>
      </trkpt>
      <trkpt lat="22.900903" lon="109.793766">
        <ele>87.409273</ele>
        <time>2026-08-15T08:20:29.000Z</time>
      </trkpt>
      <trkpt lat="22.900868" lon="109.793787">
        <ele>87.379303</ele>
        <time>2026-08-15T08:20:30.000Z</time>
      </trkpt>
      <trkpt lat="22.900831" lon="109.793809">
        <ele>87.347686</ele>
        <time>2026-08-15T08:20:31.000Z</time>
      </trkpt>
      <trkpt lat="22.900793" lon="109.793826">
        <ele>87.316883</ele>
        <time>2026-08-15T08:20:32.000Z</time>
      </trkpt>
      <trkpt lat="22.900755" lon="109.793849">
        <ele>87.284276</ele>
        <time>2026-08-15T08:20:33.000Z</time>
      </trkpt>
      <trkpt lat="22.900718" lon="109.793872">
        <ele>87.252322</ele>
        <time>2026-08-15T08:20:34.000Z</time>
      </trkpt>
      <trkpt lat="22.900678" lon="109.793895">
        <ele>87.218398</ele>
        <time>2026-08-15T08:20:35.000Z</time>
      </trkpt>
      <trkpt lat="22.900638" lon="109.793919">
        <ele>87.184146</ele>
        <time>2026-08-15T08:20:36.000Z</time>
      </trkpt>
      <trkpt lat="22.900596" lon="109.793947">
        <ele>87.147207</ele>
        <time>2026-08-15T08:20:37.000Z</time>
      </trkpt>
      <trkpt lat="22.900557" lon="109.793963">
        <ele>87.115961</ele>
        <time>2026-08-15T08:20:38.000Z</time>
      </trkpt>
      <trkpt lat="22.900514" lon="109.793986">
        <ele>87.080035</ele>
        <time>2026-08-15T08:20:39.000Z</time>
      </trkpt>
      <trkpt lat="22.900471" lon="109.794014">
        <ele>87.042456</ele>
        <time>2026-08-15T08:20:40.000Z</time>
      </trkpt>
      <trkpt lat="22.900426" lon="109.794039">
        <ele>87.004570</ele>
        <time>2026-08-15T08:20:41.000Z</time>
      </trkpt>
      <trkpt lat="22.900380" lon="109.794067">
        <ele>86.965046</ele>
        <time>2026-08-15T08:20:42.000Z</time>
      </trkpt>
      <trkpt lat="22.900333" lon="109.794099">
        <ele>86.923467</ele>
        <time>2026-08-15T08:20:43.000Z</time>
      </trkpt>
      <trkpt lat="22.900284" lon="109.794119">
        <ele>86.884234</ele>
        <time>2026-08-15T08:20:44.000Z</time>
      </trkpt>
      <trkpt lat="22.900236" lon="109.794145">
        <ele>86.844030</ele>
        <time>2026-08-15T08:20:45.000Z</time>
      </trkpt>
      <trkpt lat="22.900190" lon="109.794175">
        <ele>86.803813</ele>
        <time>2026-08-15T08:20:46.000Z</time>
      </trkpt>
      <trkpt lat="22.900143" lon="109.794210">
        <ele>86.761097</ele>
        <time>2026-08-15T08:20:47.000Z</time>
      </trkpt>
      <trkpt lat="22.900093" lon="109.794244">
        <ele>86.716880</ele>
        <time>2026-08-15T08:20:48.000Z</time>
      </trkpt>
      <trkpt lat="22.900047" lon="109.794280">
        <ele>86.674380</ele>
        <time>2026-08-15T08:20:49.000Z</time>
      </trkpt>
      <trkpt lat="22.900001" lon="109.794318">
        <ele>86.631058</ele>
        <time>2026-08-15T08:20:50.000Z</time>
      </trkpt>
      <trkpt lat="22.899957" lon="109.794357">
        <ele>86.588486</ele>
        <time>2026-08-15T08:20:51.000Z</time>
      </trkpt>
      <trkpt lat="22.899912" lon="109.794401">
        <ele>86.544023</ele>
        <time>2026-08-15T08:20:52.000Z</time>
      </trkpt>
      <trkpt lat="22.899869" lon="109.794445">
        <ele>86.559194</ele>
        <time>2026-08-15T08:20:53.000Z</time>
      </trkpt>
      <trkpt lat="22.899827" lon="109.794487">
        <ele>86.573854</ele>
        <time>2026-08-15T08:20:54.000Z</time>
      </trkpt>
      <trkpt lat="22.899785" lon="109.794531">
        <ele>86.588839</ele>
        <time>2026-08-15T08:20:55.000Z</time>
      </trkpt>
      <trkpt lat="22.899743" lon="109.794574">
        <ele>86.603661</ele>
        <time>2026-08-15T08:20:56.000Z</time>
      </trkpt>
      <trkpt lat="22.899701" lon="109.794617">
        <ele>86.618482</ele>
        <time>2026-08-15T08:20:57.000Z</time>
      </trkpt>
      <trkpt lat="22.899660" lon="109.794661">
        <ele>86.633283</ele>
        <time>2026-08-15T08:20:58.000Z</time>
      </trkpt>
      <trkpt lat="22.899620" lon="109.794706">
        <ele>86.648072</ele>
        <time>2026-08-15T08:20:59.000Z</time>
      </trkpt>
      <trkpt lat="22.899580" lon="109.794752">
        <ele>86.663032</ele>
        <time>2026-08-15T08:21:00.000Z</time>
      </trkpt>
      <trkpt lat="22.899540" lon="109.794795">
        <ele>86.677485</ele>
        <time>2026-08-15T08:21:01.000Z</time>
      </trkpt>
      <trkpt lat="22.899501" lon="109.794836">
        <ele>86.691423</ele>
        <time>2026-08-15T08:21:02.000Z</time>
      </trkpt>
      <trkpt lat="22.899463" lon="109.794876">
        <ele>86.705012</ele>
        <time>2026-08-15T08:21:03.000Z</time>
      </trkpt>
      <trkpt lat="22.899425" lon="109.794915">
        <ele>86.718437</ele>
        <time>2026-08-15T08:21:04.000Z</time>
      </trkpt>
      <trkpt lat="22.899389" lon="109.794953">
        <ele>86.731328</ele>
        <time>2026-08-15T08:21:05.000Z</time>
      </trkpt>
      <trkpt lat="22.899353" lon="109.794991">
        <ele>86.744220</ele>
        <time>2026-08-15T08:21:06.000Z</time>
      </trkpt>
      <trkpt lat="22.899319" lon="109.795030">
        <ele>86.756918</ele>
        <time>2026-08-15T08:21:07.000Z</time>
      </trkpt>
      <trkpt lat="22.899288" lon="109.795070">
        <ele>86.769281</ele>
        <time>2026-08-15T08:21:08.000Z</time>
      </trkpt>
      <trkpt lat="22.899256" lon="109.795108">
        <ele>86.781457</ele>
        <time>2026-08-15T08:21:09.000Z</time>
      </trkpt>
      <trkpt lat="22.899223" lon="109.795146">
        <ele>86.793807</ele>
        <time>2026-08-15T08:21:10.000Z</time>
      </trkpt>
      <trkpt lat="22.899190" lon="109.795183">
        <ele>86.805987</ele>
        <time>2026-08-15T08:21:11.000Z</time>
      </trkpt>
      <trkpt lat="22.899158" lon="109.795220">
        <ele>86.817990</ele>
        <time>2026-08-15T08:21:12.000Z</time>
      </trkpt>
      <trkpt lat="22.899125" lon="109.795253">
        <ele>86.829508</ele>
        <time>2026-08-15T08:21:13.000Z</time>
      </trkpt>
      <trkpt lat="22.899094" lon="109.795289">
        <ele>86.841163</ele>
        <time>2026-08-15T08:21:14.000Z</time>
      </trkpt>
      <trkpt lat="22.899063" lon="109.795325">
        <ele>86.852817</ele>
        <time>2026-08-15T08:21:15.000Z</time>
      </trkpt>
      <trkpt lat="22.899032" lon="109.795359">
        <ele>86.864131</ele>
        <time>2026-08-15T08:21:16.000Z</time>
      </trkpt>
      <trkpt lat="22.899002" lon="109.795393">
        <ele>86.875265</ele>
        <time>2026-08-15T08:21:17.000Z</time>
      </trkpt>
      <trkpt lat="22.898972" lon="109.795428">
        <ele>86.886571</ele>
        <time>2026-08-15T08:21:18.000Z</time>
      </trkpt>
      <trkpt lat="22.898941" lon="109.795463">
        <ele>86.898054</ele>
        <time>2026-08-15T08:21:19.000Z</time>
      </trkpt>
      <trkpt lat="22.898910" lon="109.795499">
        <ele>86.909709</ele>
        <time>2026-08-15T08:21:20.000Z</time>
      </trkpt>
      <trkpt lat="22.898878" lon="109.795533">
        <ele>86.921204</ele>
        <time>2026-08-15T08:21:21.000Z</time>
      </trkpt>
      <trkpt lat="22.898846" lon="109.795567">
        <ele>86.932700</ele>
        <time>2026-08-15T08:21:22.000Z</time>
      </trkpt>
      <trkpt lat="22.898814" lon="109.795601">
        <ele>86.944195</ele>
        <time>2026-08-15T08:21:23.000Z</time>
      </trkpt>
      <trkpt lat="22.898784" lon="109.795635">
        <ele>86.955330</ele>
        <time>2026-08-15T08:21:24.000Z</time>
      </trkpt>
      <trkpt lat="22.898753" lon="109.795671">
        <ele>86.966984</ele>
        <time>2026-08-15T08:21:25.000Z</time>
      </trkpt>
      <trkpt lat="22.898723" lon="109.795707">
        <ele>86.978465</ele>
        <time>2026-08-15T08:21:26.000Z</time>
      </trkpt>
      <trkpt lat="22.898692" lon="109.795743">
        <ele>86.990119</ele>
        <time>2026-08-15T08:21:27.000Z</time>
      </trkpt>
      <trkpt lat="22.898662" lon="109.795779">
        <ele>87.001600</ele>
        <time>2026-08-15T08:21:28.000Z</time>
      </trkpt>
      <trkpt lat="22.898633" lon="109.795816">
        <ele>87.037688</ele>
        <time>2026-08-15T08:21:29.000Z</time>
      </trkpt>
      <trkpt lat="22.898602" lon="109.795852">
        <ele>87.087374</ele>
        <time>2026-08-15T08:21:30.000Z</time>
      </trkpt>
      <trkpt lat="22.898569" lon="109.795887">
        <ele>87.137869</ele>
        <time>2026-08-15T08:21:31.000Z</time>
      </trkpt>
      <trkpt lat="22.898538" lon="109.795922">
        <ele>87.186823</ele>
        <time>2026-08-15T08:21:32.000Z</time>
      </trkpt>
      <trkpt lat="22.898507" lon="109.795956">
        <ele>87.235055</ele>
        <time>2026-08-15T08:21:33.000Z</time>
      </trkpt>
      <trkpt lat="22.898475" lon="109.795990">
        <ele>87.284063</ele>
        <time>2026-08-15T08:21:34.000Z</time>
      </trkpt>
      <trkpt lat="22.898444" lon="109.796023">
        <ele>87.331584</ele>
        <time>2026-08-15T08:21:35.000Z</time>
      </trkpt>
      <trkpt lat="22.898414" lon="109.796055">
        <ele>87.377617</ele>
        <time>2026-08-15T08:21:36.000Z</time>
      </trkpt>
      <trkpt lat="22.898384" lon="109.796087">
        <ele>87.423650</ele>
        <time>2026-08-15T08:21:37.000Z</time>
      </trkpt>
      <trkpt lat="22.898354" lon="109.796119">
        <ele>87.469683</ele>
        <time>2026-08-15T08:21:38.000Z</time>
      </trkpt>
      <trkpt lat="22.898326" lon="109.796152">
        <ele>87.514918</ele>
        <time>2026-08-15T08:21:39.000Z</time>
      </trkpt>
      <trkpt lat="22.898298" lon="109.796185">
        <ele>87.560153</ele>
        <time>2026-08-15T08:21:40.000Z</time>
      </trkpt>
      <trkpt lat="22.898270" lon="109.796218">
        <ele>87.605388</ele>
        <time>2026-08-15T08:21:41.000Z</time>
      </trkpt>
      <trkpt lat="22.898243" lon="109.796250">
        <ele>87.649140</ele>
        <time>2026-08-15T08:21:42.000Z</time>
      </trkpt>
      <trkpt lat="22.898216" lon="109.796285">
        <ele>87.695167</ele>
        <time>2026-08-15T08:21:43.000Z</time>
      </trkpt>
      <trkpt lat="22.898189" lon="109.796319">
        <ele>87.740427</ele>
        <time>2026-08-15T08:21:44.000Z</time>
      </trkpt>
      <trkpt lat="22.898160" lon="109.796351">
        <ele>87.785686</ele>
        <time>2026-08-15T08:21:45.000Z</time>
      </trkpt>
      <trkpt lat="22.898132" lon="109.796383">
        <ele>87.830184</ele>
        <time>2026-08-15T08:21:46.000Z</time>
      </trkpt>
      <trkpt lat="22.898103" lon="109.796415">
        <ele>87.875443</ele>
        <time>2026-08-15T08:21:47.000Z</time>
      </trkpt>
      <trkpt lat="22.898074" lon="109.796448">
        <ele>87.921427</ele>
        <time>2026-08-15T08:21:48.000Z</time>
      </trkpt>
      <trkpt lat="22.898044" lon="109.796482">
        <ele>87.968895</ele>
        <time>2026-08-15T08:21:49.000Z</time>
      </trkpt>
      <trkpt lat="22.898015" lon="109.796516">
        <ele>88.015613</ele>
        <time>2026-08-15T08:21:50.000Z</time>
      </trkpt>
      <trkpt lat="22.897986" lon="109.796552">
        <ele>88.063830</ele>
        <time>2026-08-15T08:21:51.000Z</time>
      </trkpt>
      <trkpt lat="22.897957" lon="109.796585">
        <ele>88.109814</ele>
        <time>2026-08-15T08:21:52.000Z</time>
      </trkpt>
      <trkpt lat="22.897927" lon="109.796617">
        <ele>88.155847</ele>
        <time>2026-08-15T08:21:53.000Z</time>
      </trkpt>
      <trkpt lat="22.897896" lon="109.796650">
        <ele>88.203368</ele>
        <time>2026-08-15T08:21:54.000Z</time>
      </trkpt>
      <trkpt lat="22.897864" lon="109.796682">
        <ele>88.250987</ele>
        <time>2026-08-15T08:21:55.000Z</time>
      </trkpt>
      <trkpt lat="22.897834" lon="109.796715">
        <ele>88.297733</ele>
        <time>2026-08-15T08:21:56.000Z</time>
      </trkpt>
      <trkpt lat="22.897804" lon="109.796748">
        <ele>88.344479</ele>
        <time>2026-08-15T08:21:57.000Z</time>
      </trkpt>
      <trkpt lat="22.897773" lon="109.796780">
        <ele>88.391299</ele>
        <time>2026-08-15T08:21:58.000Z</time>
      </trkpt>
      <trkpt lat="22.897742" lon="109.796811">
        <ele>88.437430</ele>
        <time>2026-08-15T08:21:59.000Z</time>
      </trkpt>
      <trkpt lat="22.897710" lon="109.796843">
        <ele>88.485050</ele>
        <time>2026-08-15T08:22:00.000Z</time>
      </trkpt>
      <trkpt lat="22.897679" lon="109.796875">
        <ele>88.531870</ele>
        <time>2026-08-15T08:22:01.000Z</time>
      </trkpt>
      <trkpt lat="22.897647" lon="109.796907">
        <ele>88.579490</ele>
        <time>2026-08-15T08:22:02.000Z</time>
      </trkpt>
      <trkpt lat="22.897615" lon="109.796939">
        <ele>88.627109</ele>
        <time>2026-08-15T08:22:03.000Z</time>
      </trkpt>
      <trkpt lat="22.897583" lon="109.796969">
        <ele>88.673386</ele>
        <time>2026-08-15T08:22:04.000Z</time>
      </trkpt>
      <trkpt lat="22.897552" lon="109.796998">
        <ele>88.718176</ele>
        <time>2026-08-15T08:22:05.000Z</time>
      </trkpt>
      <trkpt lat="22.897520" lon="109.797027">
        <ele>88.763800</ele>
        <time>2026-08-15T08:22:06.000Z</time>
      </trkpt>
      <trkpt lat="22.897489" lon="109.797056">
        <ele>88.808590</ele>
        <time>2026-08-15T08:22:07.000Z</time>
      </trkpt>
      <trkpt lat="22.897459" lon="109.797083">
        <ele>88.851242</ele>
        <time>2026-08-15T08:22:08.000Z</time>
      </trkpt>
      <trkpt lat="22.897426" lon="109.797110">
        <ele>88.896470</ele>
        <time>2026-08-15T08:22:09.000Z</time>
      </trkpt>
      <trkpt lat="22.897393" lon="109.797137">
        <ele>88.941699</ele>
        <time>2026-08-15T08:22:10.000Z</time>
      </trkpt>
      <trkpt lat="22.897359" lon="109.797165">
        <ele>88.975522</ele>
        <time>2026-08-15T08:22:11.000Z</time>
      </trkpt>
      <trkpt lat="22.897325" lon="109.797192">
        <ele>88.979964</ele>
        <time>2026-08-15T08:22:12.000Z</time>
      </trkpt>
      <trkpt lat="22.897291" lon="109.797217">
        <ele>88.984295</ele>
        <time>2026-08-15T08:22:13.000Z</time>
      </trkpt>
      <trkpt lat="22.897258" lon="109.797244">
        <ele>88.988652</ele>
        <time>2026-08-15T08:22:14.000Z</time>
      </trkpt>
      <trkpt lat="22.897225" lon="109.797273">
        <ele>88.993129</ele>
        <time>2026-08-15T08:22:15.000Z</time>
      </trkpt>
      <trkpt lat="22.897192" lon="109.797302">
        <ele>88.997607</ele>
        <time>2026-08-15T08:22:16.000Z</time>
      </trkpt>
      <trkpt lat="22.897158" lon="109.797333">
        <ele>89.002289</ele>
        <time>2026-08-15T08:22:17.000Z</time>
      </trkpt>
      <trkpt lat="22.897124" lon="109.797363">
        <ele>89.006909</ele>
        <time>2026-08-15T08:22:18.000Z</time>
      </trkpt>
      <trkpt lat="22.897090" lon="109.797392">
        <ele>89.011469</ele>
        <time>2026-08-15T08:22:19.000Z</time>
      </trkpt>
      <trkpt lat="22.897054" lon="109.797422">
        <ele>89.016255</ele>
        <time>2026-08-15T08:22:20.000Z</time>
      </trkpt>
      <trkpt lat="22.897018" lon="109.797451">
        <ele>89.020982</ele>
        <time>2026-08-15T08:22:21.000Z</time>
      </trkpt>
      <trkpt lat="22.896983" lon="109.797482">
        <ele>89.025746</ele>
        <time>2026-08-15T08:22:22.000Z</time>
      </trkpt>
      <trkpt lat="22.896946" lon="109.797513">
        <ele>89.030674</ele>
        <time>2026-08-15T08:22:23.000Z</time>
      </trkpt>
      <trkpt lat="22.896909" lon="109.797542">
        <ele>89.035487</ele>
        <time>2026-08-15T08:22:24.000Z</time>
      </trkpt>
      <trkpt lat="22.896872" lon="109.797574">
        <ele>89.040475</ele>
        <time>2026-08-15T08:22:25.000Z</time>
      </trkpt>
      <trkpt lat="22.896834" lon="109.797606">
        <ele>89.045547</ele>
        <time>2026-08-15T08:22:26.000Z</time>
      </trkpt>
      <trkpt lat="22.896797" lon="109.797639">
        <ele>89.050597</ele>
        <time>2026-08-15T08:22:27.000Z</time>
      </trkpt>
      <trkpt lat="22.896758" lon="109.797671">
        <ele>89.055752</ele>
        <time>2026-08-15T08:22:28.000Z</time>
      </trkpt>
      <trkpt lat="22.896718" lon="109.797703">
        <ele>89.060992</ele>
        <time>2026-08-15T08:22:29.000Z</time>
      </trkpt>
      <trkpt lat="22.896678" lon="109.797737">
        <ele>89.066349</ele>
        <time>2026-08-15T08:22:30.000Z</time>
      </trkpt>
      <trkpt lat="22.896637" lon="109.797770">
        <ele>89.071731</ele>
        <time>2026-08-15T08:22:31.000Z</time>
      </trkpt>
      <trkpt lat="22.896597" lon="109.797803">
        <ele>89.077029</ele>
        <time>2026-08-15T08:22:32.000Z</time>
      </trkpt>
      <trkpt lat="22.896557" lon="109.797836">
        <ele>89.082327</ele>
        <time>2026-08-15T08:22:33.000Z</time>
      </trkpt>
      <trkpt lat="22.896516" lon="109.797869">
        <ele>89.087709</ele>
        <time>2026-08-15T08:22:34.000Z</time>
      </trkpt>
      <trkpt lat="22.896476" lon="109.797903">
        <ele>89.093067</ele>
        <time>2026-08-15T08:22:35.000Z</time>
      </trkpt>
      <trkpt lat="22.896437" lon="109.797938">
        <ele>89.098403</ele>
        <time>2026-08-15T08:22:36.000Z</time>
      </trkpt>
      <trkpt lat="22.896398" lon="109.797974">
        <ele>89.103801</ele>
        <time>2026-08-15T08:22:37.000Z</time>
      </trkpt>
      <trkpt lat="22.896360" lon="109.798009">
        <ele>89.109057</ele>
        <time>2026-08-15T08:22:38.000Z</time>
      </trkpt>
      <trkpt lat="22.896320" lon="109.798043">
        <ele>89.114414</ele>
        <time>2026-08-15T08:22:39.000Z</time>
      </trkpt>
      <trkpt lat="22.896281" lon="109.798078">
        <ele>89.119750</ele>
        <time>2026-08-15T08:22:40.000Z</time>
      </trkpt>
      <trkpt lat="22.896243" lon="109.798114">
        <ele>89.125068</ele>
        <time>2026-08-15T08:22:41.000Z</time>
      </trkpt>
      <trkpt lat="22.896204" lon="109.798149">
        <ele>89.130405</ele>
        <time>2026-08-15T08:22:42.000Z</time>
      </trkpt>
      <trkpt lat="22.896165" lon="109.798183">
        <ele>89.135679</ele>
        <time>2026-08-15T08:22:43.000Z</time>
      </trkpt>
      <trkpt lat="22.896127" lon="109.798217">
        <ele>89.140872</ele>
        <time>2026-08-15T08:22:44.000Z</time>
      </trkpt>
      <trkpt lat="22.896089" lon="109.798253">
        <ele>89.146191</ele>
        <time>2026-08-15T08:22:45.000Z</time>
      </trkpt>
      <trkpt lat="22.896052" lon="109.798288">
        <ele>89.151366</ele>
        <time>2026-08-15T08:22:46.000Z</time>
      </trkpt>
      <trkpt lat="22.896012" lon="109.798323">
        <ele>89.156784</ele>
        <time>2026-08-15T08:22:47.000Z</time>
      </trkpt>
      <trkpt lat="22.895973" lon="109.798357">
        <ele>89.162058</ele>
        <time>2026-08-15T08:22:48.000Z</time>
      </trkpt>
      <trkpt lat="22.895933" lon="109.798392">
        <ele>89.182749</ele>
        <time>2026-08-15T08:22:49.000Z</time>
      </trkpt>
      <trkpt lat="22.895894" lon="109.798428">
        <ele>89.210681</ele>
        <time>2026-08-15T08:22:50.000Z</time>
      </trkpt>
      <trkpt lat="22.895855" lon="109.798463">
        <ele>89.238290</ele>
        <time>2026-08-15T08:22:51.000Z</time>
      </trkpt>
      <trkpt lat="22.895817" lon="109.798498">
        <ele>89.265480</ele>
        <time>2026-08-15T08:22:52.000Z</time>
      </trkpt>
      <trkpt lat="22.895777" lon="109.798534">
        <ele>89.293830</ele>
        <time>2026-08-15T08:22:53.000Z</time>
      </trkpt>
      <trkpt lat="22.895738" lon="109.798568">
        <ele>89.321121</ele>
        <time>2026-08-15T08:22:54.000Z</time>
      </trkpt>
      <trkpt lat="22.895697" lon="109.798600">
        <ele>89.348673</ele>
        <time>2026-08-15T08:22:55.000Z</time>
      </trkpt>
      <trkpt lat="22.895655" lon="109.798630">
        <ele>89.376105</ele>
        <time>2026-08-15T08:22:56.000Z</time>
      </trkpt>
      <trkpt lat="22.895612" lon="109.798661">
        <ele>89.404269</ele>
        <time>2026-08-15T08:22:57.000Z</time>
      </trkpt>
      <trkpt lat="22.895569" lon="109.798694">
        <ele>89.433001</ele>
        <time>2026-08-15T08:22:58.000Z</time>
      </trkpt>
      <trkpt lat="22.895527" lon="109.798727">
        <ele>89.461289</ele>
        <time>2026-08-15T08:22:59.000Z</time>
      </trkpt>
      <trkpt lat="22.895484" lon="109.798760">
        <ele>89.490021</ele>
        <time>2026-08-15T08:23:00.000Z</time>
      </trkpt>
      <trkpt lat="22.895441" lon="109.798798">
        <ele>89.520274</ele>
        <time>2026-08-15T08:23:01.000Z</time>
      </trkpt>
      <trkpt lat="22.895402" lon="109.798834">
        <ele>89.548206</ele>
        <time>2026-08-15T08:23:02.000Z</time>
      </trkpt>
      <trkpt lat="22.895363" lon="109.798870">
        <ele>89.576138</ele>
        <time>2026-08-15T08:23:03.000Z</time>
      </trkpt>
      <trkpt lat="22.895322" lon="109.798904">
        <ele>89.604289</ele>
        <time>2026-08-15T08:23:04.000Z</time>
      </trkpt>
      <trkpt lat="22.895281" lon="109.798938">
        <ele>89.632439</ele>
        <time>2026-08-15T08:23:05.000Z</time>
      </trkpt>
      <trkpt lat="22.895241" lon="109.798973">
        <ele>89.660471</ele>
        <time>2026-08-15T08:23:06.000Z</time>
      </trkpt>
      <trkpt lat="22.895202" lon="109.799008">
        <ele>89.688080</ele>
        <time>2026-08-15T08:23:07.000Z</time>
      </trkpt>
      <trkpt lat="22.895163" lon="109.799043">
        <ele>89.715689</ele>
        <time>2026-08-15T08:23:08.000Z</time>
      </trkpt>
      <trkpt lat="22.895126" lon="109.799077">
        <ele>89.742138</ele>
        <time>2026-08-15T08:23:09.000Z</time>
      </trkpt>
      <trkpt lat="22.895088" lon="109.799113">
        <ele>89.769657</ele>
        <time>2026-08-15T08:23:10.000Z</time>
      </trkpt>
      <trkpt lat="22.895051" lon="109.799147">
        <ele>89.796106</ele>
        <time>2026-08-15T08:23:11.000Z</time>
      </trkpt>
      <trkpt lat="22.895013" lon="109.799181">
        <ele>89.822975</ele>
        <time>2026-08-15T08:23:12.000Z</time>
      </trkpt>
      <trkpt lat="22.894975" lon="109.799214">
        <ele>89.849526</ele>
        <time>2026-08-15T08:23:13.000Z</time>
      </trkpt>
      <trkpt lat="22.894939" lon="109.799248">
        <ele>89.875561</ele>
        <time>2026-08-15T08:23:14.000Z</time>
      </trkpt>
      <trkpt lat="22.894902" lon="109.799281">
        <ele>89.901689</ele>
        <time>2026-08-15T08:23:15.000Z</time>
      </trkpt>
      <trkpt lat="22.894865" lon="109.799315">
        <ele>89.928139</ele>
        <time>2026-08-15T08:23:16.000Z</time>
      </trkpt>
      <trkpt lat="22.894827" lon="109.799346">
        <ele>89.954074</ele>
        <time>2026-08-15T08:23:17.000Z</time>
      </trkpt>
      <trkpt lat="22.894790" lon="109.799379">
        <ele>89.980201</ele>
        <time>2026-08-15T08:23:18.000Z</time>
      </trkpt>
      <trkpt lat="22.894751" lon="109.799412">
        <ele>90.007181</ele>
        <time>2026-08-15T08:23:19.000Z</time>
      </trkpt>
      <trkpt lat="22.894710" lon="109.799443">
        <ele>90.034443</ele>
        <time>2026-08-15T08:23:20.000Z</time>
      </trkpt>
      <trkpt lat="22.894665" lon="109.799470">
        <ele>90.062496</ele>
        <time>2026-08-15T08:23:21.000Z</time>
      </trkpt>
      <trkpt lat="22.894620" lon="109.799497">
        <ele>90.090549</ele>
        <time>2026-08-15T08:23:22.000Z</time>
      </trkpt>
      <trkpt lat="22.894577" lon="109.799524">
        <ele>90.117653</ele>
        <time>2026-08-15T08:23:23.000Z</time>
      </trkpt>
      <trkpt lat="22.894535" lon="109.799555">
        <ele>90.145171</ele>
        <time>2026-08-15T08:23:24.000Z</time>
      </trkpt>
      <trkpt lat="22.894494" lon="109.799587">
        <ele>90.145114</ele>
        <time>2026-08-15T08:23:25.000Z</time>
      </trkpt>
      <trkpt lat="22.894453" lon="109.799616">
        <ele>90.145059</ele>
        <time>2026-08-15T08:23:26.000Z</time>
      </trkpt>
      <trkpt lat="22.894412" lon="109.799647">
        <ele>90.145003</ele>
        <time>2026-08-15T08:23:27.000Z</time>
      </trkpt>
      <trkpt lat="22.894371" lon="109.799679">
        <ele>90.144946</ele>
        <time>2026-08-15T08:23:28.000Z</time>
      </trkpt>
      <trkpt lat="22.894330" lon="109.799710">
        <ele>90.144890</ele>
        <time>2026-08-15T08:23:29.000Z</time>
      </trkpt>
      <trkpt lat="22.894289" lon="109.799739">
        <ele>90.144836</ele>
        <time>2026-08-15T08:23:30.000Z</time>
      </trkpt>
      <trkpt lat="22.894247" lon="109.799769">
        <ele>90.144779</ele>
        <time>2026-08-15T08:23:31.000Z</time>
      </trkpt>
      <trkpt lat="22.894207" lon="109.799800">
        <ele>90.144724</ele>
        <time>2026-08-15T08:23:32.000Z</time>
      </trkpt>
      <trkpt lat="22.894166" lon="109.799834">
        <ele>90.144666</ele>
        <time>2026-08-15T08:23:33.000Z</time>
      </trkpt>
      <trkpt lat="22.894125" lon="109.799866">
        <ele>90.144609</ele>
        <time>2026-08-15T08:23:34.000Z</time>
      </trkpt>
      <trkpt lat="22.894083" lon="109.799897">
        <ele>90.144553</ele>
        <time>2026-08-15T08:23:35.000Z</time>
      </trkpt>
      <trkpt lat="22.894041" lon="109.799927">
        <ele>90.144496</ele>
        <time>2026-08-15T08:23:36.000Z</time>
      </trkpt>
      <trkpt lat="22.893999" lon="109.799956">
        <ele>90.144440</ele>
        <time>2026-08-15T08:23:37.000Z</time>
      </trkpt>
      <trkpt lat="22.893956" lon="109.799985">
        <ele>90.144383</ele>
        <time>2026-08-15T08:23:38.000Z</time>
      </trkpt>
      <trkpt lat="22.893912" lon="109.800015">
        <ele>90.144325</ele>
        <time>2026-08-15T08:23:39.000Z</time>
      </trkpt>
      <trkpt lat="22.893868" lon="109.800045">
        <ele>90.144267</ele>
        <time>2026-08-15T08:23:40.000Z</time>
      </trkpt>
      <trkpt lat="22.893822" lon="109.800078">
        <ele>90.144205</ele>
        <time>2026-08-15T08:23:41.000Z</time>
      </trkpt>
      <trkpt lat="22.893777" lon="109.800111">
        <ele>90.144144</ele>
        <time>2026-08-15T08:23:42.000Z</time>
      </trkpt>
      <trkpt lat="22.893727" lon="109.800148">
        <ele>90.144076</ele>
        <time>2026-08-15T08:23:43.000Z</time>
      </trkpt>
      <trkpt lat="22.893679" lon="109.800180">
        <ele>90.144013</ele>
        <time>2026-08-15T08:23:44.000Z</time>
      </trkpt>
      <trkpt lat="22.893632" lon="109.800210">
        <ele>90.143952</ele>
        <time>2026-08-15T08:23:45.000Z</time>
      </trkpt>
      <trkpt lat="22.893583" lon="109.800243">
        <ele>90.143887</ele>
        <time>2026-08-15T08:23:46.000Z</time>
      </trkpt>
      <trkpt lat="22.893534" lon="109.800271">
        <ele>90.143825</ele>
        <time>2026-08-15T08:23:47.000Z</time>
      </trkpt>
      <trkpt lat="22.893484" lon="109.800302">
        <ele>90.143761</ele>
        <time>2026-08-15T08:23:48.000Z</time>
      </trkpt>
      <trkpt lat="22.893435" lon="109.800332">
        <ele>90.143697</ele>
        <time>2026-08-15T08:23:49.000Z</time>
      </trkpt>
      <trkpt lat="22.893385" lon="109.800363">
        <ele>90.143633</ele>
        <time>2026-08-15T08:23:50.000Z</time>
      </trkpt>
      <trkpt lat="22.893335" lon="109.800391">
        <ele>90.143570</ele>
        <time>2026-08-15T08:23:51.000Z</time>
      </trkpt>
      <trkpt lat="22.893285" lon="109.800421">
        <ele>90.143506</ele>
        <time>2026-08-15T08:23:52.000Z</time>
      </trkpt>
      <trkpt lat="22.893234" lon="109.800449">
        <ele>90.143441</ele>
        <time>2026-08-15T08:23:53.000Z</time>
      </trkpt>
      <trkpt lat="22.893183" lon="109.800478">
        <ele>90.143377</ele>
        <time>2026-08-15T08:23:54.000Z</time>
      </trkpt>
      <trkpt lat="22.893132" lon="109.800507">
        <ele>90.143312</ele>
        <time>2026-08-15T08:23:55.000Z</time>
      </trkpt>
      <trkpt lat="22.893080" lon="109.800537">
        <ele>90.143246</ele>
        <time>2026-08-15T08:23:56.000Z</time>
      </trkpt>
      <trkpt lat="22.893028" lon="109.800566">
        <ele>90.143181</ele>
        <time>2026-08-15T08:23:57.000Z</time>
      </trkpt>
      <trkpt lat="22.892975" lon="109.800595">
        <ele>90.173208</ele>
        <time>2026-08-15T08:23:58.000Z</time>
      </trkpt>
      <trkpt lat="22.892922" lon="109.800624">
        <ele>90.224069</ele>
        <time>2026-08-15T08:23:59.000Z</time>
      </trkpt>
      <trkpt lat="22.892869" lon="109.800652">
        <ele>90.274580</ele>
        <time>2026-08-15T08:24:00.000Z</time>
      </trkpt>
      <trkpt lat="22.892818" lon="109.800681">
        <ele>90.323917</ele>
        <time>2026-08-15T08:24:01.000Z</time>
      </trkpt>
      <trkpt lat="22.892766" lon="109.800711">
        <ele>90.374380</ele>
        <time>2026-08-15T08:24:02.000Z</time>
      </trkpt>
      <trkpt lat="22.892714" lon="109.800740">
        <ele>90.424477</ele>
        <time>2026-08-15T08:24:03.000Z</time>
      </trkpt>
      <trkpt lat="22.892662" lon="109.800769">
        <ele>90.474575</ele>
        <time>2026-08-15T08:24:04.000Z</time>
      </trkpt>
      <trkpt lat="22.892611" lon="109.800795">
        <ele>90.522858</ele>
        <time>2026-08-15T08:24:05.000Z</time>
      </trkpt>
      <trkpt lat="22.892560" lon="109.800822">
        <ele>90.571482</ele>
        <time>2026-08-15T08:24:06.000Z</time>
      </trkpt>
      <trkpt lat="22.892510" lon="109.800850">
        <ele>90.619695</ele>
        <time>2026-08-15T08:24:07.000Z</time>
      </trkpt>
      <trkpt lat="22.892460" lon="109.800877">
        <ele>90.667550</ele>
        <time>2026-08-15T08:24:08.000Z</time>
      </trkpt>
      <trkpt lat="22.892410" lon="109.800904">
        <ele>90.715406</ele>
        <time>2026-08-15T08:24:09.000Z</time>
      </trkpt>
      <trkpt lat="22.892360" lon="109.800932">
        <ele>90.763618</ele>
        <time>2026-08-15T08:24:10.000Z</time>
      </trkpt>
      <trkpt lat="22.892311" lon="109.800960">
        <ele>90.811071</ele>
        <time>2026-08-15T08:24:11.000Z</time>
      </trkpt>
      <trkpt lat="22.892261" lon="109.800986">
        <ele>90.858580</ele>
        <time>2026-08-15T08:24:12.000Z</time>
      </trkpt>
      <trkpt lat="22.892210" lon="109.801011">
        <ele>90.906533</ele>
        <time>2026-08-15T08:24:13.000Z</time>
      </trkpt>
      <trkpt lat="22.892159" lon="109.801034">
        <ele>90.953858</ele>
        <time>2026-08-15T08:24:14.000Z</time>
      </trkpt>
      <trkpt lat="22.892109" lon="109.801058">
        <ele>91.000707</ele>
        <time>2026-08-15T08:24:15.000Z</time>
      </trkpt>
      <trkpt lat="22.892060" lon="109.801084">
        <ele>91.047445</ele>
        <time>2026-08-15T08:24:16.000Z</time>
      </trkpt>
      <trkpt lat="22.892011" lon="109.801111">
        <ele>91.094535</ele>
        <time>2026-08-15T08:24:17.000Z</time>
      </trkpt>
      <trkpt lat="22.891963" lon="109.801137">
        <ele>91.140504</ele>
        <time>2026-08-15T08:24:18.000Z</time>
      </trkpt>
      <trkpt lat="22.891915" lon="109.801164">
        <ele>91.186832</ele>
        <time>2026-08-15T08:24:19.000Z</time>
      </trkpt>
      <trkpt lat="22.891868" lon="109.801191">
        <ele>91.232400</ele>
        <time>2026-08-15T08:24:20.000Z</time>
      </trkpt>
      <trkpt lat="22.891821" lon="109.801216">
        <ele>91.277251</ele>
        <time>2026-08-15T08:24:21.000Z</time>
      </trkpt>
      <trkpt lat="22.891774" lon="109.801241">
        <ele>91.322103</ele>
        <time>2026-08-15T08:24:22.000Z</time>
      </trkpt>
      <trkpt lat="22.891728" lon="109.801266">
        <ele>91.366186</ele>
        <time>2026-08-15T08:24:23.000Z</time>
      </trkpt>
      <trkpt lat="22.891682" lon="109.801292">
        <ele>91.410629</ele>
        <time>2026-08-15T08:24:24.000Z</time>
      </trkpt>
      <trkpt lat="22.891635" lon="109.801318">
        <ele>91.455833</ele>
        <time>2026-08-15T08:24:25.000Z</time>
      </trkpt>
      <trkpt lat="22.891589" lon="109.801342">
        <ele>91.499569</ele>
        <time>2026-08-15T08:24:26.000Z</time>
      </trkpt>
      <trkpt lat="22.891544" lon="109.801366">
        <ele>91.542534</ele>
        <time>2026-08-15T08:24:27.000Z</time>
      </trkpt>
      <trkpt lat="22.891499" lon="109.801389">
        <ele>91.585157</ele>
        <time>2026-08-15T08:24:28.000Z</time>
      </trkpt>
      <trkpt lat="22.891456" lon="109.801412">
        <ele>91.626236</ele>
        <time>2026-08-15T08:24:29.000Z</time>
      </trkpt>
      <trkpt lat="22.891413" lon="109.801436">
        <ele>91.667670</ele>
        <time>2026-08-15T08:24:30.000Z</time>
      </trkpt>
      <trkpt lat="22.891370" lon="109.801459">
        <ele>91.714669</ele>
        <time>2026-08-15T08:24:31.000Z</time>
      </trkpt>
      <trkpt lat="22.891328" lon="109.801483">
        <ele>91.765262</ele>
        <time>2026-08-15T08:24:32.000Z</time>
      </trkpt>
      <trkpt lat="22.891286" lon="109.801506">
        <ele>91.815404</ele>
        <time>2026-08-15T08:24:33.000Z</time>
      </trkpt>
      <trkpt lat="22.891245" lon="109.801529">
        <ele>91.864597</ele>
        <time>2026-08-15T08:24:34.000Z</time>
      </trkpt>
      <trkpt lat="22.891204" lon="109.801553">
        <ele>91.914249</ele>
        <time>2026-08-15T08:24:35.000Z</time>
      </trkpt>
      <trkpt lat="22.891162" lon="109.801575">
        <ele>91.963957</ele>
        <time>2026-08-15T08:24:36.000Z</time>
      </trkpt>
      <trkpt lat="22.891121" lon="109.801595">
        <ele>92.011869</ele>
        <time>2026-08-15T08:24:37.000Z</time>
      </trkpt>
      <trkpt lat="22.891081" lon="109.801617">
        <ele>92.059666</ele>
        <time>2026-08-15T08:24:38.000Z</time>
      </trkpt>
      <trkpt lat="22.891040" lon="109.801641">
        <ele>92.109318</ele>
        <time>2026-08-15T08:24:39.000Z</time>
      </trkpt>
      <trkpt lat="22.890999" lon="109.801664">
        <ele>92.158511</ele>
        <time>2026-08-15T08:24:40.000Z</time>
      </trkpt>
      <trkpt lat="22.890959" lon="109.801689">
        <ele>92.207710</ele>
        <time>2026-08-15T08:24:41.000Z</time>
      </trkpt>
      <trkpt lat="22.890921" lon="109.801712">
        <ele>92.254085</ele>
        <time>2026-08-15T08:24:42.000Z</time>
      </trkpt>
      <trkpt lat="22.890885" lon="109.801732">
        <ele>92.297192</ele>
        <time>2026-08-15T08:24:43.000Z</time>
      </trkpt>
      <trkpt lat="22.890849" lon="109.801753">
        <ele>92.340754</ele>
        <time>2026-08-15T08:24:44.000Z</time>
      </trkpt>
      <trkpt lat="22.890814" lon="109.801773">
        <ele>92.382915</ele>
        <time>2026-08-15T08:24:45.000Z</time>
      </trkpt>
      <trkpt lat="22.890781" lon="109.801796">
        <ele>92.424716</ele>
        <time>2026-08-15T08:24:46.000Z</time>
      </trkpt>
      <trkpt lat="22.890747" lon="109.801816">
        <ele>92.465936</ele>
        <time>2026-08-15T08:24:47.000Z</time>
      </trkpt>
      <trkpt lat="22.890715" lon="109.801838">
        <ele>92.506311</ele>
        <time>2026-08-15T08:24:48.000Z</time>
      </trkpt>
      <trkpt lat="22.890679" lon="109.801859">
        <ele>92.549874</ele>
        <time>2026-08-15T08:24:49.000Z</time>
      </trkpt>
      <trkpt lat="22.890642" lon="109.801878">
        <ele>92.593503</ele>
        <time>2026-08-15T08:24:50.000Z</time>
      </trkpt>
      <trkpt lat="22.890606" lon="109.801896">
        <ele>92.635751</ele>
        <time>2026-08-15T08:24:51.000Z</time>
      </trkpt>
      <trkpt lat="22.890572" lon="109.801912">
        <ele>92.675251</ele>
        <time>2026-08-15T08:24:52.000Z</time>
      </trkpt>
      <trkpt lat="22.890539" lon="109.801929">
        <ele>92.714186</ele>
        <time>2026-08-15T08:24:53.000Z</time>
      </trkpt>
      <trkpt lat="22.890505" lon="109.801946">
        <ele>92.754087</ele>
        <time>2026-08-15T08:24:54.000Z</time>
      </trkpt>
      <trkpt lat="22.890470" lon="109.801963">
        <ele>92.794958</ele>
        <time>2026-08-15T08:24:55.000Z</time>
      </trkpt>
      <trkpt lat="22.890433" lon="109.801980">
        <ele>92.837784</ele>
        <time>2026-08-15T08:24:56.000Z</time>
      </trkpt>
      <trkpt lat="22.890398" lon="109.802001">
        <ele>92.880411</ele>
        <time>2026-08-15T08:24:57.000Z</time>
      </trkpt>
      <trkpt lat="22.890365" lon="109.802024">
        <ele>92.922212</ele>
        <time>2026-08-15T08:24:58.000Z</time>
      </trkpt>
      <trkpt lat="22.890331" lon="109.802045">
        <ele>92.963909</ele>
        <time>2026-08-15T08:24:59.000Z</time>
      </trkpt>
      <trkpt lat="22.890295" lon="109.802067">
        <ele>93.007945</ele>
        <time>2026-08-15T08:25:00.000Z</time>
      </trkpt>
      <trkpt lat="22.890257" lon="109.802088">
        <ele>93.053397</ele>
        <time>2026-08-15T08:25:01.000Z</time>
      </trkpt>
      <trkpt lat="22.890221" lon="109.802110">
        <ele>93.097433</ele>
        <time>2026-08-15T08:25:02.000Z</time>
      </trkpt>
      <trkpt lat="22.890183" lon="109.802130">
        <ele>93.142447</ele>
        <time>2026-08-15T08:25:03.000Z</time>
      </trkpt>
      <trkpt lat="22.890142" lon="109.802154">
        <ele>93.192099</ele>
        <time>2026-08-15T08:25:04.000Z</time>
      </trkpt>
      <trkpt lat="22.890099" lon="109.802177">
        <ele>93.243196</ele>
        <time>2026-08-15T08:25:05.000Z</time>
      </trkpt>
      <trkpt lat="22.890058" lon="109.802199">
        <ele>93.291946</ele>
        <time>2026-08-15T08:25:06.000Z</time>
      </trkpt>
      <trkpt lat="22.890016" lon="109.802222">
        <ele>93.342088</ele>
        <time>2026-08-15T08:25:07.000Z</time>
      </trkpt>
      <trkpt lat="22.889972" lon="109.802246">
        <ele>93.394577</ele>
        <time>2026-08-15T08:25:08.000Z</time>
      </trkpt>
      <trkpt lat="22.889928" lon="109.802270">
        <ele>93.447065</ele>
        <time>2026-08-15T08:25:09.000Z</time>
      </trkpt>
      <trkpt lat="22.889885" lon="109.802294">
        <ele>93.498603</ele>
        <time>2026-08-15T08:25:10.000Z</time>
      </trkpt>
      <trkpt lat="22.889842" lon="109.802317">
        <ele>93.549699</ele>
        <time>2026-08-15T08:25:11.000Z</time>
      </trkpt>
      <trkpt lat="22.889797" lon="109.802342">
        <ele>93.602645</ele>
        <time>2026-08-15T08:25:12.000Z</time>
      </trkpt>
      <trkpt lat="22.889751" lon="109.802366">
        <ele>93.630583</ele>
        <time>2026-08-15T08:25:13.000Z</time>
      </trkpt>
      <trkpt lat="22.889704" lon="109.802390">
        <ele>93.659016</ele>
        <time>2026-08-15T08:25:14.000Z</time>
      </trkpt>
      <trkpt lat="22.889658" lon="109.802415">
        <ele>93.687176</ele>
        <time>2026-08-15T08:25:15.000Z</time>
      </trkpt>
      <trkpt lat="22.889610" lon="109.802441">
        <ele>93.716541</ele>
        <time>2026-08-15T08:25:16.000Z</time>
      </trkpt>
      <trkpt lat="22.889564" lon="109.802467">
        <ele>93.744931</ele>
        <time>2026-08-15T08:25:17.000Z</time>
      </trkpt>
      <trkpt lat="22.889517" lon="109.802491">
        <ele>93.773364</ele>
        <time>2026-08-15T08:25:18.000Z</time>
      </trkpt>
      <trkpt lat="22.889470" lon="109.802514">
        <ele>93.801585</ele>
        <time>2026-08-15T08:25:19.000Z</time>
      </trkpt>
      <trkpt lat="22.889422" lon="109.802537">
        <ele>93.830307</ele>
        <time>2026-08-15T08:25:20.000Z</time>
      </trkpt>
      <trkpt lat="22.889376" lon="109.802560">
        <ele>93.858030</ele>
        <time>2026-08-15T08:25:21.000Z</time>
      </trkpt>
      <trkpt lat="22.889333" lon="109.802584">
        <ele>93.884498</ele>
        <time>2026-08-15T08:25:22.000Z</time>
      </trkpt>
      <trkpt lat="22.889289" lon="109.802607">
        <ele>93.911231</ele>
        <time>2026-08-15T08:25:23.000Z</time>
      </trkpt>
      <trkpt lat="22.889245" lon="109.802632">
        <ele>93.938417</ele>
        <time>2026-08-15T08:25:24.000Z</time>
      </trkpt>
      <trkpt lat="22.889201" lon="109.802658">
        <ele>93.965840</ele>
        <time>2026-08-15T08:25:25.000Z</time>
      </trkpt>
      <trkpt lat="22.889157" lon="109.802684">
        <ele>93.993263</ele>
        <time>2026-08-15T08:25:26.000Z</time>
      </trkpt>
      <trkpt lat="22.889115" lon="109.802710">
        <ele>94.019730</ele>
        <time>2026-08-15T08:25:27.000Z</time>
      </trkpt>
      <trkpt lat="22.889070" lon="109.802734">
        <ele>94.047176</ele>
        <time>2026-08-15T08:25:28.000Z</time>
      </trkpt>
      <trkpt lat="22.889025" lon="109.802757">
        <ele>94.074404</ele>
        <time>2026-08-15T08:25:29.000Z</time>
      </trkpt>
      <trkpt lat="22.888981" lon="109.802782">
        <ele>94.101589</ele>
        <time>2026-08-15T08:25:30.000Z</time>
      </trkpt>
      <trkpt lat="22.888937" lon="109.802808">
        <ele>94.129013</ele>
        <time>2026-08-15T08:25:31.000Z</time>
      </trkpt>
      <trkpt lat="22.888892" lon="109.802833">
        <ele>94.156685</ele>
        <time>2026-08-15T08:25:32.000Z</time>
      </trkpt>
      <trkpt lat="22.888847" lon="109.802855">
        <ele>94.183701</ele>
        <time>2026-08-15T08:25:33.000Z</time>
      </trkpt>
      <trkpt lat="22.888804" lon="109.802878">
        <ele>94.209942</ele>
        <time>2026-08-15T08:25:34.000Z</time>
      </trkpt>
      <trkpt lat="22.888760" lon="109.802900">
        <ele>94.236460</ele>
        <time>2026-08-15T08:25:35.000Z</time>
      </trkpt>
      <trkpt lat="22.888717" lon="109.802923">
        <ele>94.262701</ele>
        <time>2026-08-15T08:25:36.000Z</time>
      </trkpt>
      <trkpt lat="22.888672" lon="109.802947">
        <ele>94.290147</ele>
        <time>2026-08-15T08:25:37.000Z</time>
      </trkpt>
      <trkpt lat="22.888629" lon="109.802971">
        <ele>94.316615</ele>
        <time>2026-08-15T08:25:38.000Z</time>
      </trkpt>
      <trkpt lat="22.888587" lon="109.802994">
        <ele>94.342366</ele>
        <time>2026-08-15T08:25:39.000Z</time>
      </trkpt>
      <trkpt lat="22.888546" lon="109.803017">
        <ele>94.367629</ele>
        <time>2026-08-15T08:25:40.000Z</time>
      </trkpt>
      <trkpt lat="22.888506" lon="109.803039">
        <ele>94.392176</ele>
        <time>2026-08-15T08:25:41.000Z</time>
      </trkpt>
      <trkpt lat="22.888466" lon="109.803061">
        <ele>94.416722</ele>
        <time>2026-08-15T08:25:42.000Z</time>
      </trkpt>
      <trkpt lat="22.888428" lon="109.803082">
        <ele>94.440064</ele>
        <time>2026-08-15T08:25:43.000Z</time>
      </trkpt>
      <trkpt lat="22.888391" lon="109.803103">
        <ele>94.462920</ele>
        <time>2026-08-15T08:25:44.000Z</time>
      </trkpt>
      <trkpt lat="22.888356" lon="109.803125">
        <ele>94.485059</ele>
        <time>2026-08-15T08:25:45.000Z</time>
      </trkpt>
      <trkpt lat="22.888322" lon="109.803147">
        <ele>94.506727</ele>
        <time>2026-08-15T08:25:46.000Z</time>
      </trkpt>
      <trkpt lat="22.888288" lon="109.803168">
        <ele>94.528141</ele>
        <time>2026-08-15T08:25:47.000Z</time>
      </trkpt>
      <trkpt lat="22.888254" lon="109.803189">
        <ele>94.549555</ele>
        <time>2026-08-15T08:25:48.000Z</time>
      </trkpt>
      <trkpt lat="22.888221" lon="109.803211">
        <ele>94.570754</ele>
        <time>2026-08-15T08:25:49.000Z</time>
      </trkpt>
      <trkpt lat="22.888189" lon="109.803235">
        <ele>94.593250</ele>
        <time>2026-08-15T08:25:50.000Z</time>
      </trkpt>
      <trkpt lat="22.888158" lon="109.803259">
        <ele>94.618415</ele>
        <time>2026-08-15T08:25:51.000Z</time>
      </trkpt>
      <trkpt lat="22.888126" lon="109.803283">
        <ele>94.644121</ele>
        <time>2026-08-15T08:25:52.000Z</time>
      </trkpt>
      <trkpt lat="22.888095" lon="109.803306">
        <ele>94.668937</ele>
        <time>2026-08-15T08:25:53.000Z</time>
      </trkpt>
      <trkpt lat="22.888063" lon="109.803330">
        <ele>94.694643</ele>
        <time>2026-08-15T08:25:54.000Z</time>
      </trkpt>
      <trkpt lat="22.888030" lon="109.803356">
        <ele>94.721592</ele>
        <time>2026-08-15T08:25:55.000Z</time>
      </trkpt>
      <trkpt lat="22.887997" lon="109.803381">
        <ele>94.748188</ele>
        <time>2026-08-15T08:25:56.000Z</time>
      </trkpt>
      <trkpt lat="22.887965" lon="109.803408">
        <ele>94.774974</ele>
        <time>2026-08-15T08:25:57.000Z</time>
      </trkpt>
      <trkpt lat="22.887933" lon="109.803436">
        <ele>94.802139</ele>
        <time>2026-08-15T08:25:58.000Z</time>
      </trkpt>
      <trkpt lat="22.887900" lon="109.803466">
        <ele>94.830587</ele>
        <time>2026-08-15T08:25:59.000Z</time>
      </trkpt>
      <trkpt lat="22.887867" lon="109.803496">
        <ele>94.859035</ele>
        <time>2026-08-15T08:26:00.000Z</time>
      </trkpt>
      <trkpt lat="22.887833" lon="109.803528">
        <ele>94.888776</ele>
        <time>2026-08-15T08:26:01.000Z</time>
      </trkpt>
      <trkpt lat="22.887801" lon="109.803561">
        <ele>94.917948</ele>
        <time>2026-08-15T08:26:02.000Z</time>
      </trkpt>
      <trkpt lat="22.887769" lon="109.803597">
        <ele>94.948406</ele>
        <time>2026-08-15T08:26:03.000Z</time>
      </trkpt>
      <trkpt lat="22.887735" lon="109.803634">
        <ele>94.980224</ele>
        <time>2026-08-15T08:26:04.000Z</time>
      </trkpt>
      <trkpt lat="22.887698" lon="109.803671">
        <ele>95.013473</ele>
        <time>2026-08-15T08:26:05.000Z</time>
      </trkpt>
      <trkpt lat="22.887661" lon="109.803708">
        <ele>95.046721</ele>
        <time>2026-08-15T08:26:06.000Z</time>
      </trkpt>
      <trkpt lat="22.887624" lon="109.803747">
        <ele>95.080807</ele>
        <time>2026-08-15T08:26:07.000Z</time>
      </trkpt>
      <trkpt lat="22.887586" lon="109.803787">
        <ele>95.115790</ele>
        <time>2026-08-15T08:26:08.000Z</time>
      </trkpt>
      <trkpt lat="22.887548" lon="109.803829">
        <ele>95.151632</ele>
        <time>2026-08-15T08:26:09.000Z</time>
      </trkpt>
      <trkpt lat="22.887510" lon="109.803871">
        <ele>95.187474</ele>
        <time>2026-08-15T08:26:10.000Z</time>
      </trkpt>
      <trkpt lat="22.887471" lon="109.803913">
        <ele>95.223783</ele>
        <time>2026-08-15T08:26:11.000Z</time>
      </trkpt>
      <trkpt lat="22.887433" lon="109.803953">
        <ele>95.258766</ele>
        <time>2026-08-15T08:26:12.000Z</time>
      </trkpt>
      <trkpt lat="22.887395" lon="109.803993">
        <ele>95.293750</ele>
        <time>2026-08-15T08:26:13.000Z</time>
      </trkpt>
      <trkpt lat="22.887359" lon="109.804033">
        <ele>95.327797</ele>
        <time>2026-08-15T08:26:14.000Z</time>
      </trkpt>
      <trkpt lat="22.887323" lon="109.804071">
        <ele>95.360984</ele>
        <time>2026-08-15T08:26:15.000Z</time>
      </trkpt>
      <trkpt lat="22.887288" lon="109.804111">
        <ele>95.394573</ele>
        <time>2026-08-15T08:26:16.000Z</time>
      </trkpt>
      <trkpt lat="22.887253" lon="109.804152">
        <ele>95.428606</ele>
        <time>2026-08-15T08:26:17.000Z</time>
      </trkpt>
      <trkpt lat="22.887220" lon="109.804194">
        <ele>95.462215</ele>
        <time>2026-08-15T08:26:18.000Z</time>
      </trkpt>
      <trkpt lat="22.887186" lon="109.804233">
        <ele>95.494907</ele>
        <time>2026-08-15T08:26:19.000Z</time>
      </trkpt>
      <trkpt lat="22.887152" lon="109.804272">
        <ele>95.527600</ele>
        <time>2026-08-15T08:26:20.000Z</time>
      </trkpt>
      <trkpt lat="22.887117" lon="109.804310">
        <ele>95.560316</ele>
        <time>2026-08-15T08:26:21.000Z</time>
      </trkpt>
      <trkpt lat="22.887080" lon="109.804347">
        <ele>95.593565</ele>
        <time>2026-08-15T08:26:22.000Z</time>
      </trkpt>
      <trkpt lat="22.887045" lon="109.804384">
        <ele>95.625854</ele>
        <time>2026-08-15T08:26:23.000Z</time>
      </trkpt>
      <trkpt lat="22.887011" lon="109.804421">
        <ele>95.657672</ele>
        <time>2026-08-15T08:26:24.000Z</time>
      </trkpt>
      <trkpt lat="22.886978" lon="109.804456">
        <ele>95.688165</ele>
        <time>2026-08-15T08:26:25.000Z</time>
      </trkpt>
      <trkpt lat="22.886946" lon="109.804493">
        <ele>95.719064</ele>
        <time>2026-08-15T08:26:26.000Z</time>
      </trkpt>
      <trkpt lat="22.886915" lon="109.804530">
        <ele>95.749515</ele>
        <time>2026-08-15T08:26:27.000Z</time>
      </trkpt>
      <trkpt lat="22.886884" lon="109.804565">
        <ele>95.780363</ele>
        <time>2026-08-15T08:26:28.000Z</time>
      </trkpt>
      <trkpt lat="22.886852" lon="109.804600">
        <ele>95.819748</ele>
        <time>2026-08-15T08:26:29.000Z</time>
      </trkpt>
      <trkpt lat="22.886821" lon="109.804634">
        <ele>95.857955</ele>
        <time>2026-08-15T08:26:30.000Z</time>
      </trkpt>
      <trkpt lat="22.886789" lon="109.804671">
        <ele>95.898489</ele>
        <time>2026-08-15T08:26:31.000Z</time>
      </trkpt>
      <trkpt lat="22.886756" lon="109.804706">
        <ele>95.938490</ele>
        <time>2026-08-15T08:26:32.000Z</time>
      </trkpt>
      <trkpt lat="22.886725" lon="109.804742">
        <ele>95.977848</ele>
        <time>2026-08-15T08:26:33.000Z</time>
      </trkpt>
      <trkpt lat="22.886696" lon="109.804777">
        <ele>96.015446</ele>
        <time>2026-08-15T08:26:34.000Z</time>
      </trkpt>
      <trkpt lat="22.886663" lon="109.804811">
        <ele>96.054893</ele>
        <time>2026-08-15T08:26:35.000Z</time>
      </trkpt>
      <trkpt lat="22.886628" lon="109.804845">
        <ele>96.095614</ele>
        <time>2026-08-15T08:26:36.000Z</time>
      </trkpt>
      <trkpt lat="22.886595" lon="109.804881">
        <ele>96.136177</ele>
        <time>2026-08-15T08:26:37.000Z</time>
      </trkpt>
      <trkpt lat="22.886564" lon="109.804917">
        <ele>96.175535</ele>
        <time>2026-08-15T08:26:38.000Z</time>
      </trkpt>
      <trkpt lat="22.886531" lon="109.804952">
        <ele>96.215536</ele>
        <time>2026-08-15T08:26:39.000Z</time>
      </trkpt>
      <trkpt lat="22.886497" lon="109.804985">
        <ele>96.255078</ele>
        <time>2026-08-15T08:26:40.000Z</time>
      </trkpt>
      <trkpt lat="22.886463" lon="109.805020">
        <ele>96.295703</ele>
        <time>2026-08-15T08:26:41.000Z</time>
      </trkpt>
      <trkpt lat="22.886428" lon="109.805056">
        <ele>96.337507</ele>
        <time>2026-08-15T08:26:42.000Z</time>
      </trkpt>
      <trkpt lat="22.886392" lon="109.805091">
        <ele>96.379407</ele>
        <time>2026-08-15T08:26:43.000Z</time>
      </trkpt>
      <trkpt lat="22.886357" lon="109.805125">
        <ele>96.420128</ele>
        <time>2026-08-15T08:26:44.000Z</time>
      </trkpt>
      <trkpt lat="22.886321" lon="109.805161">
        <ele>96.462566</ele>
        <time>2026-08-15T08:26:45.000Z</time>
      </trkpt>
      <trkpt lat="22.886286" lon="109.805196">
        <ele>96.503824</ele>
        <time>2026-08-15T08:26:46.000Z</time>
      </trkpt>
      <trkpt lat="22.886253" lon="109.805232">
        <ele>96.544387</ele>
        <time>2026-08-15T08:26:47.000Z</time>
      </trkpt>
      <trkpt lat="22.886219" lon="109.805267">
        <ele>96.585012</ele>
        <time>2026-08-15T08:26:48.000Z</time>
      </trkpt>
      <trkpt lat="22.886187" lon="109.805301">
        <ele>96.623834</ele>
        <time>2026-08-15T08:26:49.000Z</time>
      </trkpt>
      <trkpt lat="22.886154" lon="109.805334">
        <ele>96.662734</ele>
        <time>2026-08-15T08:26:50.000Z</time>
      </trkpt>
      <trkpt lat="22.886120" lon="109.805369">
        <ele>96.703360</ele>
        <time>2026-08-15T08:26:51.000Z</time>
      </trkpt>
      <trkpt lat="22.886086" lon="109.805403">
        <ele>96.743439</ele>
        <time>2026-08-15T08:26:52.000Z</time>
      </trkpt>
      <trkpt lat="22.886053" lon="109.805438">
        <ele>96.783439</ele>
        <time>2026-08-15T08:26:53.000Z</time>
      </trkpt>
      <trkpt lat="22.886020" lon="109.805471">
        <ele>96.822340</ele>
        <time>2026-08-15T08:26:54.000Z</time>
      </trkpt>
      <trkpt lat="22.885987" lon="109.805504">
        <ele>96.861241</ele>
        <time>2026-08-15T08:26:55.000Z</time>
      </trkpt>
      <trkpt lat="22.885954" lon="109.805537">
        <ele>96.900142</ele>
        <time>2026-08-15T08:26:56.000Z</time>
      </trkpt>
      <trkpt lat="22.885920" lon="109.805571">
        <ele>96.940221</ele>
        <time>2026-08-15T08:26:57.000Z</time>
      </trkpt>
      <trkpt lat="22.885885" lon="109.805606">
        <ele>96.981480</ele>
        <time>2026-08-15T08:26:58.000Z</time>
      </trkpt>
      <trkpt lat="22.885850" lon="109.805641">
        <ele>97.022738</ele>
        <time>2026-08-15T08:26:59.000Z</time>
      </trkpt>
      <trkpt lat="22.885815" lon="109.805674">
        <ele>97.062932</ele>
        <time>2026-08-15T08:27:00.000Z</time>
      </trkpt>
      <trkpt lat="22.885779" lon="109.805708">
        <ele>97.104303</ele>
        <time>2026-08-15T08:27:01.000Z</time>
      </trkpt>
      <trkpt lat="22.885743" lon="109.805743">
        <ele>97.146203</ele>
        <time>2026-08-15T08:27:02.000Z</time>
      </trkpt>
      <trkpt lat="22.885706" lon="109.805778">
        <ele>97.188753</ele>
        <time>2026-08-15T08:27:03.000Z</time>
      </trkpt>
      <trkpt lat="22.885668" lon="109.805813">
        <ele>97.231960</ele>
        <time>2026-08-15T08:27:04.000Z</time>
      </trkpt>
      <trkpt lat="22.885630" lon="109.805848">
        <ele>97.275168</ele>
        <time>2026-08-15T08:27:05.000Z</time>
      </trkpt>
      <trkpt lat="22.885592" lon="109.805882">
        <ele>97.317863</ele>
        <time>2026-08-15T08:27:06.000Z</time>
      </trkpt>
      <trkpt lat="22.885554" lon="109.805918">
        <ele>97.315358</ele>
        <time>2026-08-15T08:27:07.000Z</time>
      </trkpt>
      <trkpt lat="22.885516" lon="109.805953">
        <ele>97.285310</ele>
        <time>2026-08-15T08:27:08.000Z</time>
      </trkpt>
      <trkpt lat="22.885478" lon="109.805986">
        <ele>97.255969</ele>
        <time>2026-08-15T08:27:09.000Z</time>
      </trkpt>
      <trkpt lat="22.885441" lon="109.806021">
        <ele>97.226378</ele>
        <time>2026-08-15T08:27:10.000Z</time>
      </trkpt>
      <trkpt lat="22.885404" lon="109.806056">
        <ele>97.196787</ele>
        <time>2026-08-15T08:27:11.000Z</time>
      </trkpt>
      <trkpt lat="22.885366" lon="109.806091">
        <ele>97.166739</ele>
        <time>2026-08-15T08:27:12.000Z</time>
      </trkpt>
      <trkpt lat="22.885328" lon="109.806127">
        <ele>97.136328</ele>
        <time>2026-08-15T08:27:13.000Z</time>
      </trkpt>
      <trkpt lat="22.885291" lon="109.806163">
        <ele>97.106369</ele>
        <time>2026-08-15T08:27:14.000Z</time>
      </trkpt>
      <trkpt lat="22.885253" lon="109.806197">
        <ele>97.076678</ele>
        <time>2026-08-15T08:27:15.000Z</time>
      </trkpt>
      <trkpt lat="22.885215" lon="109.806231">
        <ele>97.046986</ele>
        <time>2026-08-15T08:27:16.000Z</time>
      </trkpt>
      <trkpt lat="22.885178" lon="109.806265">
        <ele>97.017757</ele>
        <time>2026-08-15T08:27:17.000Z</time>
      </trkpt>
      <trkpt lat="22.885141" lon="109.806300">
        <ele>96.988166</ele>
        <time>2026-08-15T08:27:18.000Z</time>
      </trkpt>
      <trkpt lat="22.885104" lon="109.806335">
        <ele>96.958575</ele>
        <time>2026-08-15T08:27:19.000Z</time>
      </trkpt>
      <trkpt lat="22.885064" lon="109.806370">
        <ele>96.927598</ele>
        <time>2026-08-15T08:27:20.000Z</time>
      </trkpt>
      <trkpt lat="22.885026" lon="109.806403">
        <ele>96.898256</ele>
        <time>2026-08-15T08:27:21.000Z</time>
      </trkpt>
      <trkpt lat="22.884987" lon="109.806438">
        <ele>96.867746</ele>
        <time>2026-08-15T08:27:22.000Z</time>
      </trkpt>
      <trkpt lat="22.884948" lon="109.806474">
        <ele>96.836878</ele>
        <time>2026-08-15T08:27:23.000Z</time>
      </trkpt>
      <trkpt lat="22.884909" lon="109.806512">
        <ele>96.805280</ele>
        <time>2026-08-15T08:27:24.000Z</time>
      </trkpt>
      <trkpt lat="22.884870" lon="109.806551">
        <ele>96.773308</ele>
        <time>2026-08-15T08:27:25.000Z</time>
      </trkpt>
      <trkpt lat="22.884830" lon="109.806590">
        <ele>96.740890</ele>
        <time>2026-08-15T08:27:26.000Z</time>
      </trkpt>
      <trkpt lat="22.884791" lon="109.806630">
        <ele>96.708539</ele>
        <time>2026-08-15T08:27:27.000Z</time>
      </trkpt>
      <trkpt lat="22.884750" lon="109.806670">
        <ele>96.675301</ele>
        <time>2026-08-15T08:27:28.000Z</time>
      </trkpt>
      <trkpt lat="22.884710" lon="109.806711">
        <ele>96.642131</ele>
        <time>2026-08-15T08:27:29.000Z</time>
      </trkpt>
      <trkpt lat="22.884671" lon="109.806752">
        <ele>96.609396</ele>
        <time>2026-08-15T08:27:30.000Z</time>
      </trkpt>
      <trkpt lat="22.884631" lon="109.806794">
        <ele>96.575841</ele>
        <time>2026-08-15T08:27:31.000Z</time>
      </trkpt>
      <trkpt lat="22.884590" lon="109.806837">
        <ele>96.541467</ele>
        <time>2026-08-15T08:27:32.000Z</time>
      </trkpt>
      <trkpt lat="22.884550" lon="109.806880">
        <ele>96.507524</ele>
        <time>2026-08-15T08:27:33.000Z</time>
      </trkpt>
      <trkpt lat="22.884509" lon="109.806924">
        <ele>96.472762</ele>
        <time>2026-08-15T08:27:34.000Z</time>
      </trkpt>
      <trkpt lat="22.884468" lon="109.806968">
        <ele>96.437999</ele>
        <time>2026-08-15T08:27:35.000Z</time>
      </trkpt>
      <trkpt lat="22.884427" lon="109.807013">
        <ele>96.402844</ele>
        <time>2026-08-15T08:27:36.000Z</time>
      </trkpt>
      <trkpt lat="22.884385" lon="109.807058">
        <ele>96.367262</ele>
        <time>2026-08-15T08:27:37.000Z</time>
      </trkpt>
      <trkpt lat="22.884343" lon="109.807104">
        <ele>96.331288</ele>
        <time>2026-08-15T08:27:38.000Z</time>
      </trkpt>
      <trkpt lat="22.884301" lon="109.807149">
        <ele>96.295707</ele>
        <time>2026-08-15T08:27:39.000Z</time>
      </trkpt>
      <trkpt lat="22.884259" lon="109.807194">
        <ele>96.260125</ele>
        <time>2026-08-15T08:27:40.000Z</time>
      </trkpt>
      <trkpt lat="22.884217" lon="109.807239">
        <ele>96.287395</ele>
        <time>2026-08-15T08:27:41.000Z</time>
      </trkpt>
      <trkpt lat="22.884176" lon="109.807283">
        <ele>96.338887</ele>
        <time>2026-08-15T08:27:42.000Z</time>
      </trkpt>
      <trkpt lat="22.884136" lon="109.807328">
        <ele>96.390337</ele>
        <time>2026-08-15T08:27:43.000Z</time>
      </trkpt>
      <trkpt lat="22.884097" lon="109.807371">
        <ele>96.439985</ele>
        <time>2026-08-15T08:27:44.000Z</time>
      </trkpt>
      <trkpt lat="22.884058" lon="109.807413">
        <ele>96.489050</ele>
        <time>2026-08-15T08:27:45.000Z</time>
      </trkpt>
      <trkpt lat="22.884019" lon="109.807455">
        <ele>96.538116</ele>
        <time>2026-08-15T08:27:46.000Z</time>
      </trkpt>
      <trkpt lat="22.883980" lon="109.807498">
        <ele>96.587764</ele>
        <time>2026-08-15T08:27:47.000Z</time>
      </trkpt>
      <trkpt lat="22.883941" lon="109.807540">
        <ele>96.636829</ele>
        <time>2026-08-15T08:27:48.000Z</time>
      </trkpt>
      <trkpt lat="22.883901" lon="109.807582">
        <ele>96.686532</ele>
        <time>2026-08-15T08:27:49.000Z</time>
      </trkpt>
      <trkpt lat="22.883863" lon="109.807623">
        <ele>96.734384</ele>
        <time>2026-08-15T08:27:50.000Z</time>
      </trkpt>
      <trkpt lat="22.883825" lon="109.807664">
        <ele>96.782236</ele>
        <time>2026-08-15T08:27:51.000Z</time>
      </trkpt>
      <trkpt lat="22.883788" lon="109.807707">
        <ele>96.830648</ele>
        <time>2026-08-15T08:27:52.000Z</time>
      </trkpt>
      <trkpt lat="22.883751" lon="109.807750">
        <ele>96.879060</ele>
        <time>2026-08-15T08:27:53.000Z</time>
      </trkpt>
      <trkpt lat="22.883714" lon="109.807792">
        <ele>96.926873</ele>
        <time>2026-08-15T08:27:54.000Z</time>
      </trkpt>
      <trkpt lat="22.883676" lon="109.807832">
        <ele>96.974149</ele>
        <time>2026-08-15T08:27:55.000Z</time>
      </trkpt>
      <trkpt lat="22.883640" lon="109.807873">
        <ele>97.020751</ele>
        <time>2026-08-15T08:27:56.000Z</time>
      </trkpt>
      <trkpt lat="22.883606" lon="109.807913">
        <ele>97.065531</ele>
        <time>2026-08-15T08:27:57.000Z</time>
      </trkpt>
      <trkpt lat="22.883572" lon="109.807951">
        <ele>97.109116</ele>
        <time>2026-08-15T08:27:58.000Z</time>
      </trkpt>
      <trkpt lat="22.883540" lon="109.807989">
        <ele>97.151475</ele>
        <time>2026-08-15T08:27:59.000Z</time>
      </trkpt>
      <trkpt lat="22.883507" lon="109.808025">
        <ele>97.193261</ele>
        <time>2026-08-15T08:28:00.000Z</time>
      </trkpt>
      <trkpt lat="22.883474" lon="109.808058">
        <ele>97.233334</ele>
        <time>2026-08-15T08:28:01.000Z</time>
      </trkpt>
      <trkpt lat="22.883442" lon="109.808090">
        <ele>97.272193</ele>
        <time>2026-08-15T08:28:02.000Z</time>
      </trkpt>
      <trkpt lat="22.883412" lon="109.808123">
        <ele>97.310339</ele>
        <time>2026-08-15T08:28:03.000Z</time>
      </trkpt>
      <trkpt lat="22.883384" lon="109.808154">
        <ele>97.346059</ele>
        <time>2026-08-15T08:28:04.000Z</time>
      </trkpt>
      <trkpt lat="22.883355" lon="109.808186">
        <ele>97.382992</ele>
        <time>2026-08-15T08:28:05.000Z</time>
      </trkpt>
      <trkpt lat="22.883329" lon="109.808216">
        <ele>97.416881</ele>
        <time>2026-08-15T08:28:06.000Z</time>
      </trkpt>
      <trkpt lat="22.883305" lon="109.808245">
        <ele>97.448956</ele>
        <time>2026-08-15T08:28:07.000Z</time>
      </trkpt>
      <trkpt lat="22.883279" lon="109.808274">
        <ele>97.482251</ele>
        <time>2026-08-15T08:28:08.000Z</time>
      </trkpt>
      <trkpt lat="22.883253" lon="109.808301">
        <ele>97.514387</ele>
        <time>2026-08-15T08:28:09.000Z</time>
      </trkpt>
      <trkpt lat="22.883227" lon="109.808327">
        <ele>97.545960</ele>
        <time>2026-08-15T08:28:10.000Z</time>
      </trkpt>
      <trkpt lat="22.883201" lon="109.808354">
        <ele>97.578096</ele>
        <time>2026-08-15T08:28:11.000Z</time>
      </trkpt>
      <trkpt lat="22.883175" lon="109.808380">
        <ele>97.609669</ele>
        <time>2026-08-15T08:28:12.000Z</time>
      </trkpt>
      <trkpt lat="22.883150" lon="109.808406">
        <ele>97.640591</ele>
        <time>2026-08-15T08:28:13.000Z</time>
      </trkpt>
      <trkpt lat="22.883124" lon="109.808431">
        <ele>97.671612</ele>
        <time>2026-08-15T08:28:14.000Z</time>
      </trkpt>
      <trkpt lat="22.883104" lon="109.808456">
        <ele>97.698855</ele>
        <time>2026-08-15T08:28:15.000Z</time>
      </trkpt>
      <trkpt lat="22.883086" lon="109.808481">
        <ele>97.724961</ele>
        <time>2026-08-15T08:28:16.000Z</time>
      </trkpt>
      <trkpt lat="22.883065" lon="109.808509">
        <ele>97.754669</ele>
        <time>2026-08-15T08:28:17.000Z</time>
      </trkpt>
      <trkpt lat="22.883043" lon="109.808536">
        <ele>97.784327</ele>
        <time>2026-08-15T08:28:18.000Z</time>
      </trkpt>
      <trkpt lat="22.883016" lon="109.808563">
        <ele>97.817114</ele>
        <time>2026-08-15T08:28:19.000Z</time>
      </trkpt>
      <trkpt lat="22.882991" lon="109.808592">
        <ele>97.849792</ele>
        <time>2026-08-15T08:28:20.000Z</time>
      </trkpt>
      <trkpt lat="22.882967" lon="109.808622">
        <ele>97.865422</ele>
        <time>2026-08-15T08:28:21.000Z</time>
      </trkpt>
      <trkpt lat="22.882938" lon="109.808650">
        <ele>97.877560</ele>
        <time>2026-08-15T08:28:22.000Z</time>
      </trkpt>
      <trkpt lat="22.882908" lon="109.808679">
        <ele>97.890123</ele>
        <time>2026-08-15T08:28:23.000Z</time>
      </trkpt>
      <trkpt lat="22.882878" lon="109.808708">
        <ele>97.902686</ele>
        <time>2026-08-15T08:28:24.000Z</time>
      </trkpt>
      <trkpt lat="22.882847" lon="109.808737">
        <ele>97.915485</ele>
        <time>2026-08-15T08:28:25.000Z</time>
      </trkpt>
      <trkpt lat="22.882816" lon="109.808763">
        <ele>97.927737</ele>
        <time>2026-08-15T08:28:26.000Z</time>
      </trkpt>
      <trkpt lat="22.882785" lon="109.808790">
        <ele>97.940167</ele>
        <time>2026-08-15T08:28:27.000Z</time>
      </trkpt>
      <trkpt lat="22.882754" lon="109.808817">
        <ele>97.952597</ele>
        <time>2026-08-15T08:28:28.000Z</time>
      </trkpt>
      <trkpt lat="22.882723" lon="109.808846">
        <ele>97.965395</ele>
        <time>2026-08-15T08:28:29.000Z</time>
      </trkpt>
      <trkpt lat="22.882692" lon="109.808876">
        <ele>97.978384</ele>
        <time>2026-08-15T08:28:30.000Z</time>
      </trkpt>
      <trkpt lat="22.882660" lon="109.808907">
        <ele>97.991798</ele>
        <time>2026-08-15T08:28:31.000Z</time>
      </trkpt>
      <trkpt lat="22.882626" lon="109.808938">
        <ele>98.005684</ele>
        <time>2026-08-15T08:28:32.000Z</time>
      </trkpt>
      <trkpt lat="22.882593" lon="109.808971">
        <ele>98.019717</ele>
        <time>2026-08-15T08:28:33.000Z</time>
      </trkpt>
      <trkpt lat="22.882559" lon="109.809003">
        <ele>98.033790</ele>
        <time>2026-08-15T08:28:34.000Z</time>
      </trkpt>
      <trkpt lat="22.882525" lon="109.809037">
        <ele>98.048248</ele>
        <time>2026-08-15T08:28:35.000Z</time>
      </trkpt>
      <trkpt lat="22.882490" lon="109.809072">
        <ele>98.063131</ele>
        <time>2026-08-15T08:28:36.000Z</time>
      </trkpt>
      <trkpt lat="22.882456" lon="109.809108">
        <ele>98.077985</ele>
        <time>2026-08-15T08:28:37.000Z</time>
      </trkpt>
      <trkpt lat="22.882420" lon="109.809143">
        <ele>98.093099</ele>
        <time>2026-08-15T08:28:38.000Z</time>
      </trkpt>
      <trkpt lat="22.882384" lon="109.809178">
        <ele>98.108214</ele>
        <time>2026-08-15T08:28:39.000Z</time>
      </trkpt>
      <trkpt lat="22.882348" lon="109.809215">
        <ele>98.123719</ele>
        <time>2026-08-15T08:28:40.000Z</time>
      </trkpt>
      <trkpt lat="22.882313" lon="109.809252">
        <ele>98.138998</ele>
        <time>2026-08-15T08:28:41.000Z</time>
      </trkpt>
      <trkpt lat="22.882277" lon="109.809288">
        <ele>98.154306</ele>
        <time>2026-08-15T08:28:42.000Z</time>
      </trkpt>
      <trkpt lat="22.882240" lon="109.809325">
        <ele>98.170039</ele>
        <time>2026-08-15T08:28:43.000Z</time>
      </trkpt>
      <trkpt lat="22.882203" lon="109.809363">
        <ele>98.185969</ele>
        <time>2026-08-15T08:28:44.000Z</time>
      </trkpt>
      <trkpt lat="22.882166" lon="109.809399">
        <ele>98.201509</ele>
        <time>2026-08-15T08:28:45.000Z</time>
      </trkpt>
      <trkpt lat="22.882127" lon="109.809436">
        <ele>98.217708</ele>
        <time>2026-08-15T08:28:46.000Z</time>
      </trkpt>
      <trkpt lat="22.882090" lon="109.809472">
        <ele>98.233247</ele>
        <time>2026-08-15T08:28:47.000Z</time>
      </trkpt>
      <trkpt lat="22.882052" lon="109.809509">
        <ele>98.249212</ele>
        <time>2026-08-15T08:28:48.000Z</time>
      </trkpt>
      <trkpt lat="22.882014" lon="109.809546">
        <ele>98.265177</ele>
        <time>2026-08-15T08:28:49.000Z</time>
      </trkpt>
      <trkpt lat="22.881978" lon="109.809581">
        <ele>98.280291</ele>
        <time>2026-08-15T08:28:50.000Z</time>
      </trkpt>
      <trkpt lat="22.881941" lon="109.809616">
        <ele>98.295640</ele>
        <time>2026-08-15T08:28:51.000Z</time>
      </trkpt>
      <trkpt lat="22.881905" lon="109.809650">
        <ele>98.310564</ele>
        <time>2026-08-15T08:28:52.000Z</time>
      </trkpt>
      <trkpt lat="22.881868" lon="109.809683">
        <ele>98.325540</ele>
        <time>2026-08-15T08:28:53.000Z</time>
      </trkpt>
      <trkpt lat="22.881832" lon="109.809716">
        <ele>98.340277</ele>
        <time>2026-08-15T08:28:54.000Z</time>
      </trkpt>
      <trkpt lat="22.881795" lon="109.809749">
        <ele>98.355253</ele>
        <time>2026-08-15T08:28:55.000Z</time>
      </trkpt>
      <trkpt lat="22.881760" lon="109.809782">
        <ele>98.369752</ele>
        <time>2026-08-15T08:28:56.000Z</time>
      </trkpt>
      <trkpt lat="22.881726" lon="109.809816">
        <ele>98.384209</ele>
        <time>2026-08-15T08:28:57.000Z</time>
      </trkpt>
      <trkpt lat="22.881692" lon="109.809849">
        <ele>98.398474</ele>
        <time>2026-08-15T08:28:58.000Z</time>
      </trkpt>
      <trkpt lat="22.881658" lon="109.809883">
        <ele>98.412931</ele>
        <time>2026-08-15T08:28:59.000Z</time>
      </trkpt>
      <trkpt lat="22.881624" lon="109.809916">
        <ele>98.409279</ele>
        <time>2026-08-15T08:29:00.000Z</time>
      </trkpt>
      <trkpt lat="22.881589" lon="109.809949">
        <ele>98.393116</ele>
        <time>2026-08-15T08:29:01.000Z</time>
      </trkpt>
      <trkpt lat="22.881554" lon="109.809981">
        <ele>98.377162</ele>
        <time>2026-08-15T08:29:02.000Z</time>
      </trkpt>
      <trkpt lat="22.881520" lon="109.810013">
        <ele>98.361472</ele>
        <time>2026-08-15T08:29:03.000Z</time>
      </trkpt>
      <trkpt lat="22.881487" lon="109.810044">
        <ele>98.346256</ele>
        <time>2026-08-15T08:29:04.000Z</time>
      </trkpt>
      <trkpt lat="22.881455" lon="109.810076">
        <ele>98.331087</ele>
        <time>2026-08-15T08:29:05.000Z</time>
      </trkpt>
      <trkpt lat="22.881420" lon="109.810107">
        <ele>98.315337</ele>
        <time>2026-08-15T08:29:06.000Z</time>
      </trkpt>
      <trkpt lat="22.881384" lon="109.810140">
        <ele>98.298909</ele>
        <time>2026-08-15T08:29:07.000Z</time>
      </trkpt>
      <trkpt lat="22.881348" lon="109.810173">
        <ele>98.282481</ele>
        <time>2026-08-15T08:29:08.000Z</time>
      </trkpt>
      <trkpt lat="22.881312" lon="109.810206">
        <ele>98.266052</ele>
        <time>2026-08-15T08:29:09.000Z</time>
      </trkpt>
      <trkpt lat="22.881276" lon="109.810239">
        <ele>98.249624</ele>
        <time>2026-08-15T08:29:10.000Z</time>
      </trkpt>
      <trkpt lat="22.881238" lon="109.810270">
        <ele>98.233051</ele>
        <time>2026-08-15T08:29:11.000Z</time>
      </trkpt>
      <trkpt lat="22.881200" lon="109.810301">
        <ele>98.216478</ele>
        <time>2026-08-15T08:29:12.000Z</time>
      </trkpt>
      <trkpt lat="22.881159" lon="109.810334">
        <ele>98.198682</ele>
        <time>2026-08-15T08:29:13.000Z</time>
      </trkpt>
      <trkpt lat="22.881118" lon="109.810366">
        <ele>98.181076</ele>
        <time>2026-08-15T08:29:14.000Z</time>
      </trkpt>
      <trkpt lat="22.881075" lon="109.810396">
        <ele>98.163255</ele>
        <time>2026-08-15T08:29:15.000Z</time>
      </trkpt>
      <trkpt lat="22.881033" lon="109.810428">
        <ele>98.145364</ele>
        <time>2026-08-15T08:29:16.000Z</time>
      </trkpt>
      <trkpt lat="22.880990" lon="109.810460">
        <ele>98.127188</ele>
        <time>2026-08-15T08:29:17.000Z</time>
      </trkpt>
      <trkpt lat="22.880946" lon="109.810495">
        <ele>98.108169</ele>
        <time>2026-08-15T08:29:18.000Z</time>
      </trkpt>
      <trkpt lat="22.880902" lon="109.810531">
        <ele>98.088959</ele>
        <time>2026-08-15T08:29:19.000Z</time>
      </trkpt>
      <trkpt lat="22.880857" lon="109.810568">
        <ele>98.069276</ele>
        <time>2026-08-15T08:29:20.000Z</time>
      </trkpt>
      <trkpt lat="22.880809" lon="109.810605">
        <ele>98.048751</ele>
        <time>2026-08-15T08:29:21.000Z</time>
      </trkpt>
      <trkpt lat="22.880761" lon="109.810642">
        <ele>98.028225</ele>
        <time>2026-08-15T08:29:22.000Z</time>
      </trkpt>
      <trkpt lat="22.880713" lon="109.810678">
        <ele>98.007884</ele>
        <time>2026-08-15T08:29:23.000Z</time>
      </trkpt>
      <trkpt lat="22.880665" lon="109.810714">
        <ele>97.987543</ele>
        <time>2026-08-15T08:29:24.000Z</time>
      </trkpt>
      <trkpt lat="22.880617" lon="109.810748">
        <ele>97.967560</ele>
        <time>2026-08-15T08:29:25.000Z</time>
      </trkpt>
      <trkpt lat="22.880569" lon="109.810783">
        <ele>97.947399</ele>
        <time>2026-08-15T08:29:26.000Z</time>
      </trkpt>
      <trkpt lat="22.880521" lon="109.810816">
        <ele>97.927590</ele>
        <time>2026-08-15T08:29:27.000Z</time>
      </trkpt>
      <trkpt lat="22.880472" lon="109.810850">
        <ele>97.907314</ele>
        <time>2026-08-15T08:29:28.000Z</time>
      </trkpt>
      <trkpt lat="22.880423" lon="109.810886">
        <ele>97.886685</ele>
        <time>2026-08-15T08:29:29.000Z</time>
      </trkpt>
      <trkpt lat="22.880373" lon="109.810921">
        <ele>97.865942</ele>
        <time>2026-08-15T08:29:30.000Z</time>
      </trkpt>
      <trkpt lat="22.880325" lon="109.810955">
        <ele>97.845959</ele>
        <time>2026-08-15T08:29:31.000Z</time>
      </trkpt>
      <trkpt lat="22.880275" lon="109.810990">
        <ele>97.825216</ele>
        <time>2026-08-15T08:29:32.000Z</time>
      </trkpt>
      <trkpt lat="22.880227" lon="109.811024">
        <ele>97.805233</ele>
        <time>2026-08-15T08:29:33.000Z</time>
      </trkpt>
      <trkpt lat="22.880178" lon="109.811058">
        <ele>97.787531</ele>
        <time>2026-08-15T08:29:34.000Z</time>
      </trkpt>
      <trkpt lat="22.880130" lon="109.811092">
        <ele>97.775240</ele>
        <time>2026-08-15T08:29:35.000Z</time>
      </trkpt>
      <trkpt lat="22.880082" lon="109.811126">
        <ele>97.762950</ele>
        <time>2026-08-15T08:29:36.000Z</time>
      </trkpt>
      <trkpt lat="22.880034" lon="109.811158">
        <ele>97.750871</ele>
        <time>2026-08-15T08:29:37.000Z</time>
      </trkpt>
      <trkpt lat="22.879986" lon="109.811190">
        <ele>97.738792</ele>
        <time>2026-08-15T08:29:38.000Z</time>
      </trkpt>
      <trkpt lat="22.879937" lon="109.811221">
        <ele>97.726630</ele>
        <time>2026-08-15T08:29:39.000Z</time>
      </trkpt>
      <trkpt lat="22.879890" lon="109.811253">
        <ele>97.714733</ele>
        <time>2026-08-15T08:29:40.000Z</time>
      </trkpt>
      <trkpt lat="22.879844" lon="109.811285">
        <ele>97.703017</ele>
        <time>2026-08-15T08:29:41.000Z</time>
      </trkpt>
      <trkpt lat="22.879799" lon="109.811315">
        <ele>97.691693</ele>
        <time>2026-08-15T08:29:42.000Z</time>
      </trkpt>
      <trkpt lat="22.879753" lon="109.811346">
        <ele>97.680082</ele>
        <time>2026-08-15T08:29:43.000Z</time>
      </trkpt>
      <trkpt lat="22.879705" lon="109.811375">
        <ele>97.668303</ele>
        <time>2026-08-15T08:29:44.000Z</time>
      </trkpt>
      <trkpt lat="22.879656" lon="109.811405">
        <ele>97.656239</ele>
        <time>2026-08-15T08:29:45.000Z</time>
      </trkpt>
      <trkpt lat="22.879608" lon="109.811435">
        <ele>97.644362</ele>
        <time>2026-08-15T08:29:46.000Z</time>
      </trkpt>
      <trkpt lat="22.879559" lon="109.811463">
        <ele>97.632488</ele>
        <time>2026-08-15T08:29:47.000Z</time>
      </trkpt>
      <trkpt lat="22.879509" lon="109.811491">
        <ele>97.620423</ele>
        <time>2026-08-15T08:29:48.000Z</time>
      </trkpt>
      <trkpt lat="22.879460" lon="109.811519">
        <ele>97.608549</ele>
        <time>2026-08-15T08:29:49.000Z</time>
      </trkpt>
      <trkpt lat="22.879412" lon="109.811548">
        <ele>97.596769</ele>
        <time>2026-08-15T08:29:50.000Z</time>
      </trkpt>
      <trkpt lat="22.879361" lon="109.811577">
        <ele>97.584423</ele>
        <time>2026-08-15T08:29:51.000Z</time>
      </trkpt>
      <trkpt lat="22.879310" lon="109.811606">
        <ele>97.572078</ele>
        <time>2026-08-15T08:29:52.000Z</time>
      </trkpt>
      <trkpt lat="22.879260" lon="109.811635">
        <ele>97.559921</ele>
        <time>2026-08-15T08:29:53.000Z</time>
      </trkpt>
      <trkpt lat="22.879211" lon="109.811665">
        <ele>97.547858</ele>
        <time>2026-08-15T08:29:54.000Z</time>
      </trkpt>
      <trkpt lat="22.879160" lon="109.811693">
        <ele>97.535602</ele>
        <time>2026-08-15T08:29:55.000Z</time>
      </trkpt>
      <trkpt lat="22.879110" lon="109.811722">
        <ele>97.523446</ele>
        <time>2026-08-15T08:29:56.000Z</time>
      </trkpt>
      <trkpt lat="22.879060" lon="109.811751">
        <ele>97.511290</ele>
        <time>2026-08-15T08:29:57.000Z</time>
      </trkpt>
      <trkpt lat="22.879009" lon="109.811779">
        <ele>97.499034</ele>
        <time>2026-08-15T08:29:58.000Z</time>
      </trkpt>
      <trkpt lat="22.878958" lon="109.811808">
        <ele>97.486688</ele>
        <time>2026-08-15T08:29:59.000Z</time>
      </trkpt>
      <trkpt lat="22.878908" lon="109.811836">
        <ele>97.474624</ele>
        <time>2026-08-15T08:30:00.000Z</time>
      </trkpt>
      <trkpt lat="22.878856" lon="109.811864">
        <ele>97.462177</ele>
        <time>2026-08-15T08:30:01.000Z</time>
      </trkpt>
      <trkpt lat="22.878804" lon="109.811892">
        <ele>97.449730</ele>
        <time>2026-08-15T08:30:02.000Z</time>
      </trkpt>
      <trkpt lat="22.878753" lon="109.811920">
        <ele>97.437474</ele>
        <time>2026-08-15T08:30:03.000Z</time>
      </trkpt>
      <trkpt lat="22.878702" lon="109.811949">
        <ele>97.425128</ele>
        <time>2026-08-15T08:30:04.000Z</time>
      </trkpt>
      <trkpt lat="22.878651" lon="109.811977">
        <ele>97.412873</ele>
        <time>2026-08-15T08:30:05.000Z</time>
      </trkpt>
      <trkpt lat="22.878600" lon="109.812008">
        <ele>97.421318</ele>
        <time>2026-08-15T08:30:06.000Z</time>
      </trkpt>
      <trkpt lat="22.878548" lon="109.812038">
        <ele>97.455831</ele>
        <time>2026-08-15T08:30:07.000Z</time>
      </trkpt>
      <trkpt lat="22.878497" lon="109.812069">
        <ele>97.490089</ele>
        <time>2026-08-15T08:30:08.000Z</time>
      </trkpt>
      <trkpt lat="22.878445" lon="109.812099">
        <ele>97.524602</ele>
        <time>2026-08-15T08:30:09.000Z</time>
      </trkpt>
      <trkpt lat="22.878393" lon="109.812128">
        <ele>97.558865</ele>
        <time>2026-08-15T08:30:10.000Z</time>
      </trkpt>
      <trkpt lat="22.878339" lon="109.812157">
        <ele>97.594175</ele>
        <time>2026-08-15T08:30:11.000Z</time>
      </trkpt>
      <trkpt lat="22.878286" lon="109.812186">
        <ele>97.628960</ele>
        <time>2026-08-15T08:30:12.000Z</time>
      </trkpt>
      <trkpt lat="22.878232" lon="109.812214">
        <ele>97.664034</ele>
        <time>2026-08-15T08:30:13.000Z</time>
      </trkpt>
      <trkpt lat="22.878178" lon="109.812243">
        <ele>97.699343</ele>
        <time>2026-08-15T08:30:14.000Z</time>
      </trkpt>
      <trkpt lat="22.878124" lon="109.812273">
        <ele>97.734896</ele>
        <time>2026-08-15T08:30:15.000Z</time>
      </trkpt>
      <trkpt lat="22.878071" lon="109.812302">
        <ele>97.769681</ele>
        <time>2026-08-15T08:30:16.000Z</time>
      </trkpt>
      <trkpt lat="22.878018" lon="109.812331">
        <ele>97.804466</ele>
        <time>2026-08-15T08:30:17.000Z</time>
      </trkpt>
      <trkpt lat="22.877966" lon="109.812360">
        <ele>97.838729</ele>
        <time>2026-08-15T08:30:18.000Z</time>
      </trkpt>
      <trkpt lat="22.877914" lon="109.812390">
        <ele>97.873243</ele>
        <time>2026-08-15T08:30:19.000Z</time>
      </trkpt>
      <trkpt lat="22.877862" lon="109.812419">
        <ele>97.907506</ele>
        <time>2026-08-15T08:30:20.000Z</time>
      </trkpt>
      <trkpt lat="22.877810" lon="109.812447">
        <ele>97.941525</ele>
        <time>2026-08-15T08:30:21.000Z</time>
      </trkpt>
      <trkpt lat="22.877758" lon="109.812476">
        <ele>97.975789</ele>
        <time>2026-08-15T08:30:22.000Z</time>
      </trkpt>
      <trkpt lat="22.877707" lon="109.812505">
        <ele>98.009531</ele>
        <time>2026-08-15T08:30:23.000Z</time>
      </trkpt>
      <trkpt lat="22.877657" lon="109.812533">
        <ele>98.042505</ele>
        <time>2026-08-15T08:30:24.000Z</time>
      </trkpt>
      <trkpt lat="22.877606" lon="109.812561">
        <ele>98.076001</ele>
        <time>2026-08-15T08:30:25.000Z</time>
      </trkpt>
      <trkpt lat="22.877556" lon="109.812589">
        <ele>98.108975</ele>
        <time>2026-08-15T08:30:26.000Z</time>
      </trkpt>
      <trkpt lat="22.877507" lon="109.812618">
        <ele>98.141684</ele>
        <time>2026-08-15T08:30:27.000Z</time>
      </trkpt>
      <trkpt lat="22.877458" lon="109.812648">
        <ele>98.174655</ele>
        <time>2026-08-15T08:30:28.000Z</time>
      </trkpt>
      <trkpt lat="22.877410" lon="109.812675">
        <ele>98.206339</ele>
        <time>2026-08-15T08:30:29.000Z</time>
      </trkpt>
      <trkpt lat="22.877363" lon="109.812701">
        <ele>98.237256</ele>
        <time>2026-08-15T08:30:30.000Z</time>
      </trkpt>
      <trkpt lat="22.877317" lon="109.812725">
        <ele>98.267168</ele>
        <time>2026-08-15T08:30:31.000Z</time>
      </trkpt>
      <trkpt lat="22.877273" lon="109.812750">
        <ele>98.296275</ele>
        <time>2026-08-15T08:30:32.000Z</time>
      </trkpt>
      <trkpt lat="22.877231" lon="109.812774">
        <ele>98.324092</ele>
        <time>2026-08-15T08:30:33.000Z</time>
      </trkpt>
      <trkpt lat="22.877191" lon="109.812798">
        <ele>98.350879</ele>
        <time>2026-08-15T08:30:34.000Z</time>
      </trkpt>
      <trkpt lat="22.877151" lon="109.812823">
        <ele>98.377930</ele>
        <time>2026-08-15T08:30:35.000Z</time>
      </trkpt>
      <trkpt lat="22.877113" lon="109.812845">
        <ele>98.403171</ele>
        <time>2026-08-15T08:30:36.000Z</time>
      </trkpt>
      <trkpt lat="22.877074" lon="109.812864">
        <ele>98.428225</ele>
        <time>2026-08-15T08:30:37.000Z</time>
      </trkpt>
      <trkpt lat="22.877039" lon="109.812873">
        <ele>98.449305</ele>
        <time>2026-08-15T08:30:38.000Z</time>
      </trkpt>
      <trkpt lat="22.877003" lon="109.812883">
        <ele>98.478920</ele>
        <time>2026-08-15T08:30:39.000Z</time>
      </trkpt>
      <trkpt lat="22.876966" lon="109.812902">
        <ele>98.520002</ele>
        <time>2026-08-15T08:30:40.000Z</time>
      </trkpt>
      <trkpt lat="22.876929" lon="109.812920">
        <ele>98.560696</ele>
        <time>2026-08-15T08:30:41.000Z</time>
      </trkpt>
      <trkpt lat="22.876892" lon="109.812942">
        <ele>98.603038</ele>
        <time>2026-08-15T08:30:42.000Z</time>
      </trkpt>
      <trkpt lat="22.876856" lon="109.812968">
        <ele>98.646438</ele>
        <time>2026-08-15T08:30:43.000Z</time>
      </trkpt>
      <trkpt lat="22.876817" lon="109.812992">
        <ele>98.691434</ele>
        <time>2026-08-15T08:30:44.000Z</time>
      </trkpt>
      <trkpt lat="22.876779" lon="109.813014">
        <ele>98.734659</ele>
        <time>2026-08-15T08:30:45.000Z</time>
      </trkpt>
      <trkpt lat="22.876742" lon="109.813037">
        <ele>98.777453</ele>
        <time>2026-08-15T08:30:46.000Z</time>
      </trkpt>
      <trkpt lat="22.876707" lon="109.813063">
        <ele>98.820020</ele>
        <time>2026-08-15T08:30:47.000Z</time>
      </trkpt>
      <trkpt lat="22.876672" lon="109.813091">
        <ele>98.863659</ele>
        <time>2026-08-15T08:30:48.000Z</time>
      </trkpt>
      <trkpt lat="22.876636" lon="109.813119">
        <ele>98.908109</ele>
        <time>2026-08-15T08:30:49.000Z</time>
      </trkpt>
      <trkpt lat="22.876600" lon="109.813147">
        <ele>98.952560</ele>
        <time>2026-08-15T08:30:50.000Z</time>
      </trkpt>
      <trkpt lat="22.876564" lon="109.813176">
        <ele>98.997555</ele>
        <time>2026-08-15T08:30:51.000Z</time>
      </trkpt>
      <trkpt lat="22.876527" lon="109.813207">
        <ele>99.044467</ele>
        <time>2026-08-15T08:30:52.000Z</time>
      </trkpt>
      <trkpt lat="22.876491" lon="109.813238">
        <ele>99.090589</ele>
        <time>2026-08-15T08:30:53.000Z</time>
      </trkpt>
      <trkpt lat="22.876457" lon="109.813268">
        <ele>99.134567</ele>
        <time>2026-08-15T08:30:54.000Z</time>
      </trkpt>
      <trkpt lat="22.876422" lon="109.813299">
        <ele>99.179906</ele>
        <time>2026-08-15T08:30:55.000Z</time>
      </trkpt>
      <trkpt lat="22.876386" lon="109.813329">
        <ele>99.225459</ele>
        <time>2026-08-15T08:30:56.000Z</time>
      </trkpt>
      <trkpt lat="22.876349" lon="109.813359">
        <ele>99.271812</ele>
        <time>2026-08-15T08:30:57.000Z</time>
      </trkpt>
      <trkpt lat="22.876312" lon="109.813390">
        <ele>99.318724</ele>
        <time>2026-08-15T08:30:58.000Z</time>
      </trkpt>
      <trkpt lat="22.876275" lon="109.813419">
        <ele>99.364529</ele>
        <time>2026-08-15T08:30:59.000Z</time>
      </trkpt>
      <trkpt lat="22.876237" lon="109.813448">
        <ele>99.411152</ele>
        <time>2026-08-15T08:31:00.000Z</time>
      </trkpt>
      <trkpt lat="22.876199" lon="109.813480">
        <ele>99.459423</ele>
        <time>2026-08-15T08:31:01.000Z</time>
      </trkpt>
      <trkpt lat="22.876161" lon="109.813510">
        <ele>99.506584</ele>
        <time>2026-08-15T08:31:02.000Z</time>
      </trkpt>
      <trkpt lat="22.876123" lon="109.813540">
        <ele>99.553745</ele>
        <time>2026-08-15T08:31:03.000Z</time>
      </trkpt>
      <trkpt lat="22.876086" lon="109.813570">
        <ele>99.600097</ele>
        <time>2026-08-15T08:31:04.000Z</time>
      </trkpt>
      <trkpt lat="22.876048" lon="109.813599">
        <ele>99.646720</ele>
        <time>2026-08-15T08:31:05.000Z</time>
      </trkpt>
      <trkpt lat="22.876010" lon="109.813629">
        <ele>99.693881</ele>
        <time>2026-08-15T08:31:06.000Z</time>
      </trkpt>
      <trkpt lat="22.875972" lon="109.813659">
        <ele>99.741042</ele>
        <time>2026-08-15T08:31:07.000Z</time>
      </trkpt>
      <trkpt lat="22.875936" lon="109.813690">
        <ele>99.787163</ele>
        <time>2026-08-15T08:31:08.000Z</time>
      </trkpt>
      <trkpt lat="22.875899" lon="109.813720">
        <ele>99.833516</ele>
        <time>2026-08-15T08:31:09.000Z</time>
      </trkpt>
      <trkpt lat="22.875863" lon="109.813751">
        <ele>99.879638</ele>
        <time>2026-08-15T08:31:10.000Z</time>
      </trkpt>
      <trkpt lat="22.875827" lon="109.813781">
        <ele>99.925190</ele>
        <time>2026-08-15T08:31:11.000Z</time>
      </trkpt>
      <trkpt lat="22.875791" lon="109.813811">
        <ele>99.970743</ele>
        <time>2026-08-15T08:31:12.000Z</time>
      </trkpt>
      <trkpt lat="22.875754" lon="109.813839">
        <ele>100.016013</ele>
        <time>2026-08-15T08:31:13.000Z</time>
      </trkpt>
      <trkpt lat="22.875717" lon="109.813868">
        <ele>100.061819</ele>
        <time>2026-08-15T08:31:14.000Z</time>
      </trkpt>
      <trkpt lat="22.875682" lon="109.813896">
        <ele>100.105458</ele>
        <time>2026-08-15T08:31:15.000Z</time>
      </trkpt>
      <trkpt lat="22.875646" lon="109.813926">
        <ele>100.151010</ele>
        <time>2026-08-15T08:31:16.000Z</time>
      </trkpt>
      <trkpt lat="22.875609" lon="109.813954">
        <ele>100.196281</ele>
        <time>2026-08-15T08:31:17.000Z</time>
      </trkpt>
      <trkpt lat="22.875573" lon="109.813983">
        <ele>100.241276</ele>
        <time>2026-08-15T08:31:18.000Z</time>
      </trkpt>
      <trkpt lat="22.875541" lon="109.814010">
        <ele>100.284709</ele>
        <time>2026-08-15T08:31:19.000Z</time>
      </trkpt>
      <trkpt lat="22.875508" lon="109.814038">
        <ele>100.333691</ele>
        <time>2026-08-15T08:31:20.000Z</time>
      </trkpt>
      <trkpt lat="22.875475" lon="109.814065">
        <ele>100.382017</ele>
        <time>2026-08-15T08:31:21.000Z</time>
      </trkpt>
      <trkpt lat="22.875442" lon="109.814091">
        <ele>100.429703</ele>
        <time>2026-08-15T08:31:22.000Z</time>
      </trkpt>
      <trkpt lat="22.875409" lon="109.814118">
        <ele>100.478029</ele>
        <time>2026-08-15T08:31:23.000Z</time>
      </trkpt>
      <trkpt lat="22.875376" lon="109.814144">
        <ele>100.525715</ele>
        <time>2026-08-15T08:31:24.000Z</time>
      </trkpt>
      <trkpt lat="22.875343" lon="109.814170">
        <ele>100.573400</ele>
        <time>2026-08-15T08:31:25.000Z</time>
      </trkpt>
      <trkpt lat="22.875309" lon="109.814198">
        <ele>100.623309</ele>
        <time>2026-08-15T08:31:26.000Z</time>
      </trkpt>
      <trkpt lat="22.875275" lon="109.814225">
        <ele>100.672575</ele>
        <time>2026-08-15T08:31:27.000Z</time>
      </trkpt>
      <trkpt lat="22.875242" lon="109.814249">
        <ele>100.719027</ele>
        <time>2026-08-15T08:31:28.000Z</time>
      </trkpt>
      <trkpt lat="22.875209" lon="109.814272">
        <ele>100.764888</ele>
        <time>2026-08-15T08:31:29.000Z</time>
      </trkpt>
      <trkpt lat="22.875176" lon="109.814296">
        <ele>100.811341</ele>
        <time>2026-08-15T08:31:30.000Z</time>
      </trkpt>
      <trkpt lat="22.875144" lon="109.814320">
        <ele>100.856827</ele>
        <time>2026-08-15T08:31:31.000Z</time>
      </trkpt>
      <trkpt lat="22.875113" lon="109.814345">
        <ele>100.901989</ele>
        <time>2026-08-15T08:31:32.000Z</time>
      </trkpt>
      <trkpt lat="22.875084" lon="109.814371">
        <ele>100.945975</ele>
        <time>2026-08-15T08:31:33.000Z</time>
      </trkpt>
      <trkpt lat="22.875053" lon="109.814395">
        <ele>100.990504</ele>
        <time>2026-08-15T08:31:34.000Z</time>
      </trkpt>
      <trkpt lat="22.875023" lon="109.814418">
        <ele>101.033455</ele>
        <time>2026-08-15T08:31:35.000Z</time>
      </trkpt>
      <trkpt lat="22.874991" lon="109.814440">
        <ele>101.077752</ele>
        <time>2026-08-15T08:31:36.000Z</time>
      </trkpt>
      <trkpt lat="22.874959" lon="109.814464">
        <ele>101.123237</ele>
        <time>2026-08-15T08:31:37.000Z</time>
      </trkpt>
      <trkpt lat="22.874926" lon="109.814488">
        <ele>101.169690</ele>
        <time>2026-08-15T08:31:38.000Z</time>
      </trkpt>
      <trkpt lat="22.874895" lon="109.814513">
        <ele>101.214852</ele>
        <time>2026-08-15T08:31:39.000Z</time>
      </trkpt>
      <trkpt lat="22.874864" lon="109.814538">
        <ele>101.260015</ele>
        <time>2026-08-15T08:31:40.000Z</time>
      </trkpt>
      <trkpt lat="22.874834" lon="109.814563">
        <ele>101.304245</ele>
        <time>2026-08-15T08:31:41.000Z</time>
      </trkpt>
      <trkpt lat="22.874804" lon="109.814591">
        <ele>101.350514</ele>
        <time>2026-08-15T08:31:42.000Z</time>
      </trkpt>
      <trkpt lat="22.874773" lon="109.814617">
        <ele>101.396328</ele>
        <time>2026-08-15T08:31:43.000Z</time>
      </trkpt>
      <trkpt lat="22.874740" lon="109.814642">
        <ele>101.443388</ele>
        <time>2026-08-15T08:31:44.000Z</time>
      </trkpt>
      <trkpt lat="22.874708" lon="109.814669">
        <ele>101.490786</ele>
        <time>2026-08-15T08:31:45.000Z</time>
      </trkpt>
      <trkpt lat="22.874676" lon="109.814696">
        <ele>101.538184</ele>
        <time>2026-08-15T08:31:46.000Z</time>
      </trkpt>
      <trkpt lat="22.874644" lon="109.814721">
        <ele>101.584291</ele>
        <time>2026-08-15T08:31:47.000Z</time>
      </trkpt>
      <trkpt lat="22.874611" lon="109.814747">
        <ele>101.631977</ele>
        <time>2026-08-15T08:31:48.000Z</time>
      </trkpt>
      <trkpt lat="22.874578" lon="109.814773">
        <ele>101.679662</ele>
        <time>2026-08-15T08:31:49.000Z</time>
      </trkpt>
      <trkpt lat="22.874545" lon="109.814799">
        <ele>101.727348</ele>
        <time>2026-08-15T08:31:50.000Z</time>
      </trkpt>
      <trkpt lat="22.874514" lon="109.814824">
        <ele>101.772511</ele>
        <time>2026-08-15T08:31:51.000Z</time>
      </trkpt>
      <trkpt lat="22.874482" lon="109.814850">
        <ele>101.819255</ele>
        <time>2026-08-15T08:31:52.000Z</time>
      </trkpt>
      <trkpt lat="22.874450" lon="109.814876">
        <ele>101.865999</ele>
        <time>2026-08-15T08:31:53.000Z</time>
      </trkpt>
      <trkpt lat="22.874419" lon="109.814901">
        <ele>101.911162</ele>
        <time>2026-08-15T08:31:54.000Z</time>
      </trkpt>
      <trkpt lat="22.874387" lon="109.814924">
        <ele>101.956044</ele>
        <time>2026-08-15T08:31:55.000Z</time>
      </trkpt>
      <trkpt lat="22.874355" lon="109.814948">
        <ele>102.001530</ele>
        <time>2026-08-15T08:31:56.000Z</time>
      </trkpt>
      <trkpt lat="22.874324" lon="109.814974">
        <ele>102.047344</ele>
        <time>2026-08-15T08:31:57.000Z</time>
      </trkpt>
      <trkpt lat="22.874292" lon="109.814999">
        <ele>102.093450</ele>
        <time>2026-08-15T08:31:58.000Z</time>
      </trkpt>
      <trkpt lat="22.874260" lon="109.815026">
        <ele>102.140848</ele>
        <time>2026-08-15T08:31:59.000Z</time>
      </trkpt>
      <trkpt lat="22.874229" lon="109.815053">
        <ele>102.187329</ele>
        <time>2026-08-15T08:32:00.000Z</time>
      </trkpt>
      <trkpt lat="22.874197" lon="109.815080">
        <ele>102.234727</ele>
        <time>2026-08-15T08:32:01.000Z</time>
      </trkpt>
      <trkpt lat="22.874166" lon="109.815107">
        <ele>102.281207</ele>
        <time>2026-08-15T08:32:02.000Z</time>
      </trkpt>
      <trkpt lat="22.874132" lon="109.815133">
        <ele>102.329844</ele>
        <time>2026-08-15T08:32:03.000Z</time>
      </trkpt>
      <trkpt lat="22.874098" lon="109.815158">
        <ele>102.368044</ele>
        <time>2026-08-15T08:32:04.000Z</time>
      </trkpt>
      <trkpt lat="22.874065" lon="109.815185">
        <ele>102.365106</ele>
        <time>2026-08-15T08:32:05.000Z</time>
      </trkpt>
      <trkpt lat="22.874033" lon="109.815213">
        <ele>102.362184</ele>
        <time>2026-08-15T08:32:06.000Z</time>
      </trkpt>
      <trkpt lat="22.873999" lon="109.815242">
        <ele>102.359110</ele>
        <time>2026-08-15T08:32:07.000Z</time>
      </trkpt>
      <trkpt lat="22.873965" lon="109.815269">
        <ele>102.356115</ele>
        <time>2026-08-15T08:32:08.000Z</time>
      </trkpt>
      <trkpt lat="22.873930" lon="109.815295">
        <ele>102.353100</ele>
        <time>2026-08-15T08:32:09.000Z</time>
      </trkpt>
      <trkpt lat="22.873895" lon="109.815322">
        <ele>102.350047</ele>
        <time>2026-08-15T08:32:10.000Z</time>
      </trkpt>
      <trkpt lat="22.873859" lon="109.815348">
        <ele>102.346973</ele>
        <time>2026-08-15T08:32:11.000Z</time>
      </trkpt>
      <trkpt lat="22.873824" lon="109.815375">
        <ele>102.343920</ele>
        <time>2026-08-15T08:32:12.000Z</time>
      </trkpt>
      <trkpt lat="22.873789" lon="109.815402">
        <ele>102.340868</ele>
        <time>2026-08-15T08:32:13.000Z</time>
      </trkpt>
      <trkpt lat="22.873752" lon="109.815429">
        <ele>102.337698</ele>
        <time>2026-08-15T08:32:14.000Z</time>
      </trkpt>
      <trkpt lat="22.873717" lon="109.815457">
        <ele>102.334607</ele>
        <time>2026-08-15T08:32:15.000Z</time>
      </trkpt>
      <trkpt lat="22.873681" lon="109.815485">
        <ele>102.331458</ele>
        <time>2026-08-15T08:32:16.000Z</time>
      </trkpt>
      <trkpt lat="22.873645" lon="109.815514">
        <ele>102.328271</ele>
        <time>2026-08-15T08:32:17.000Z</time>
      </trkpt>
      <trkpt lat="22.873608" lon="109.815540">
        <ele>102.325138</ele>
        <time>2026-08-15T08:32:18.000Z</time>
      </trkpt>
      <trkpt lat="22.873571" lon="109.815569">
        <ele>102.321893</ele>
        <time>2026-08-15T08:32:19.000Z</time>
      </trkpt>
      <trkpt lat="22.873535" lon="109.815599">
        <ele>102.318667</ele>
        <time>2026-08-15T08:32:20.000Z</time>
      </trkpt>
      <trkpt lat="22.873499" lon="109.815629">
        <ele>102.315440</ele>
        <time>2026-08-15T08:32:21.000Z</time>
      </trkpt>
      <trkpt lat="22.873463" lon="109.815659">
        <ele>102.312213</ele>
        <time>2026-08-15T08:32:22.000Z</time>
      </trkpt>
      <trkpt lat="22.873426" lon="109.815689">
        <ele>102.308930</ele>
        <time>2026-08-15T08:32:23.000Z</time>
      </trkpt>
      <trkpt lat="22.873389" lon="109.815720">
        <ele>102.305607</ele>
        <time>2026-08-15T08:32:24.000Z</time>
      </trkpt>
      <trkpt lat="22.873354" lon="109.815754">
        <ele>102.302268</ele>
        <time>2026-08-15T08:32:25.000Z</time>
      </trkpt>
      <trkpt lat="22.873319" lon="109.815789">
        <ele>102.298884</ele>
        <time>2026-08-15T08:32:26.000Z</time>
      </trkpt>
      <trkpt lat="22.873282" lon="109.815824">
        <ele>102.295395</ele>
        <time>2026-08-15T08:32:27.000Z</time>
      </trkpt>
      <trkpt lat="22.873246" lon="109.815858">
        <ele>102.292003</ele>
        <time>2026-08-15T08:32:28.000Z</time>
      </trkpt>
      <trkpt lat="22.873209" lon="109.815893">
        <ele>102.288513</ele>
        <time>2026-08-15T08:32:29.000Z</time>
      </trkpt>
      <trkpt lat="22.873172" lon="109.815931">
        <ele>102.284892</ele>
        <time>2026-08-15T08:32:30.000Z</time>
      </trkpt>
      <trkpt lat="22.873134" lon="109.815970">
        <ele>102.281174</ele>
        <time>2026-08-15T08:32:31.000Z</time>
      </trkpt>
      <trkpt lat="22.873097" lon="109.816008">
        <ele>102.277553</ele>
        <time>2026-08-15T08:32:32.000Z</time>
      </trkpt>
      <trkpt lat="22.873060" lon="109.816045">
        <ele>102.273976</ele>
        <time>2026-08-15T08:32:33.000Z</time>
      </trkpt>
      <trkpt lat="22.873024" lon="109.816083">
        <ele>102.270406</ele>
        <time>2026-08-15T08:32:34.000Z</time>
      </trkpt>
      <trkpt lat="22.872989" lon="109.816123">
        <ele>102.266793</ele>
        <time>2026-08-15T08:32:35.000Z</time>
      </trkpt>
      <trkpt lat="22.872955" lon="109.816163">
        <ele>102.263228</ele>
        <time>2026-08-15T08:32:36.000Z</time>
      </trkpt>
      <trkpt lat="22.872920" lon="109.816204">
        <ele>102.259567</ele>
        <time>2026-08-15T08:32:37.000Z</time>
      </trkpt>
      <trkpt lat="22.872886" lon="109.816243">
        <ele>102.256050</ele>
        <time>2026-08-15T08:32:38.000Z</time>
      </trkpt>
      <trkpt lat="22.872852" lon="109.816284">
        <ele>102.252437</ele>
        <time>2026-08-15T08:32:39.000Z</time>
      </trkpt>
      <trkpt lat="22.872818" lon="109.816325">
        <ele>102.248824</ele>
        <time>2026-08-15T08:32:40.000Z</time>
      </trkpt>
      <trkpt lat="22.872786" lon="109.816368">
        <ele>102.245203</ele>
        <time>2026-08-15T08:32:41.000Z</time>
      </trkpt>
      <trkpt lat="22.872754" lon="109.816413">
        <ele>102.241480</ele>
        <time>2026-08-15T08:32:42.000Z</time>
      </trkpt>
      <trkpt lat="22.872727" lon="109.816458">
        <ele>102.298242</ele>
        <time>2026-08-15T08:32:43.000Z</time>
      </trkpt>
      <trkpt lat="22.872696" lon="109.816505">
        <ele>102.376639</ele>
        <time>2026-08-15T08:32:44.000Z</time>
      </trkpt>
      <trkpt lat="22.872664" lon="109.816552">
        <ele>102.455901</ele>
        <time>2026-08-15T08:32:45.000Z</time>
      </trkpt>
      <trkpt lat="22.872633" lon="109.816599">
        <ele>102.534297</ele>
        <time>2026-08-15T08:32:46.000Z</time>
      </trkpt>
      <trkpt lat="22.872602" lon="109.816647">
        <ele>102.613800</ele>
        <time>2026-08-15T08:32:47.000Z</time>
      </trkpt>
      <trkpt lat="22.872571" lon="109.816696">
        <ele>102.694418</ele>
        <time>2026-08-15T08:32:48.000Z</time>
      </trkpt>
      <trkpt lat="22.872541" lon="109.816744">
        <ele>102.773085</ele>
        <time>2026-08-15T08:32:49.000Z</time>
      </trkpt>
      <trkpt lat="22.872512" lon="109.816793">
        <ele>102.852074</ele>
        <time>2026-08-15T08:32:50.000Z</time>
      </trkpt>
      <trkpt lat="22.872484" lon="109.816842">
        <ele>102.930276</ele>
        <time>2026-08-15T08:32:51.000Z</time>
      </trkpt>
      <trkpt lat="22.872456" lon="109.816891">
        <ele>103.008479</ele>
        <time>2026-08-15T08:32:52.000Z</time>
      </trkpt>
      <trkpt lat="22.872428" lon="109.816940">
        <ele>103.086681</ele>
        <time>2026-08-15T08:32:53.000Z</time>
      </trkpt>
      <trkpt lat="22.872400" lon="109.816988">
        <ele>103.163735</ele>
        <time>2026-08-15T08:32:54.000Z</time>
      </trkpt>
      <trkpt lat="22.872372" lon="109.817035">
        <ele>103.239645</ele>
        <time>2026-08-15T08:32:55.000Z</time>
      </trkpt>
      <trkpt lat="22.872345" lon="109.817082">
        <ele>103.314767</ele>
        <time>2026-08-15T08:32:56.000Z</time>
      </trkpt>
      <trkpt lat="22.872317" lon="109.817128">
        <ele>103.389543</ele>
        <time>2026-08-15T08:32:57.000Z</time>
      </trkpt>
      <trkpt lat="22.872289" lon="109.817171">
        <ele>103.460959</ele>
        <time>2026-08-15T08:32:58.000Z</time>
      </trkpt>
      <trkpt lat="22.872261" lon="109.817213">
        <ele>103.531271</ele>
        <time>2026-08-15T08:32:59.000Z</time>
      </trkpt>
      <trkpt lat="22.872234" lon="109.817255">
        <ele>103.600731</ele>
        <time>2026-08-15T08:33:00.000Z</time>
      </trkpt>
      <trkpt lat="22.872207" lon="109.817295">
        <ele>103.667984</ele>
        <time>2026-08-15T08:33:01.000Z</time>
      </trkpt>
      <trkpt lat="22.872182" lon="109.817335">
        <ele>103.733540</ele>
        <time>2026-08-15T08:33:02.000Z</time>
      </trkpt>
      <trkpt lat="22.872158" lon="109.817375">
        <ele>103.798282</ele>
        <time>2026-08-15T08:33:03.000Z</time>
      </trkpt>
      <trkpt lat="22.872134" lon="109.817413">
        <ele>103.860768</ele>
        <time>2026-08-15T08:33:04.000Z</time>
      </trkpt>
      <trkpt lat="22.872109" lon="109.817449">
        <ele>103.921910</ele>
        <time>2026-08-15T08:33:05.000Z</time>
      </trkpt>
      <trkpt lat="22.872088" lon="109.817486">
        <ele>103.980851</ele>
        <time>2026-08-15T08:33:06.000Z</time>
      </trkpt>
      <trkpt lat="22.872067" lon="109.817523">
        <ele>104.039791</ele>
        <time>2026-08-15T08:33:07.000Z</time>
      </trkpt>
      <trkpt lat="22.872045" lon="109.817558">
        <ele>104.097257</ele>
        <time>2026-08-15T08:33:08.000Z</time>
      </trkpt>
      <trkpt lat="22.872024" lon="109.817593">
        <ele>104.153905</ele>
        <time>2026-08-15T08:33:09.000Z</time>
      </trkpt>
      <trkpt lat="22.872002" lon="109.817628">
        <ele>104.211371</ele>
        <time>2026-08-15T08:33:10.000Z</time>
      </trkpt>
      <trkpt lat="22.871981" lon="109.817663">
        <ele>104.268019</ele>
        <time>2026-08-15T08:33:11.000Z</time>
      </trkpt>
      <trkpt lat="22.871959" lon="109.817698">
        <ele>104.325485</ele>
        <time>2026-08-15T08:33:12.000Z</time>
      </trkpt>
      <trkpt lat="22.871938" lon="109.817732">
        <ele>104.381002</ele>
        <time>2026-08-15T08:33:13.000Z</time>
      </trkpt>
      <trkpt lat="22.871917" lon="109.817766">
        <ele>104.436519</ele>
        <time>2026-08-15T08:33:14.000Z</time>
      </trkpt>
      <trkpt lat="22.871898" lon="109.817799">
        <ele>104.489298</ele>
        <time>2026-08-15T08:33:15.000Z</time>
      </trkpt>
      <trkpt lat="22.871877" lon="109.817833">
        <ele>104.544815</ele>
        <time>2026-08-15T08:33:16.000Z</time>
      </trkpt>
      <trkpt lat="22.871857" lon="109.817864">
        <ele>104.596143</ele>
        <time>2026-08-15T08:33:17.000Z</time>
      </trkpt>
      <trkpt lat="22.871836" lon="109.817896">
        <ele>104.649429</ele>
        <time>2026-08-15T08:33:18.000Z</time>
      </trkpt>
      <trkpt lat="22.871812" lon="109.817926">
        <ele>104.703315</ele>
        <time>2026-08-15T08:33:19.000Z</time>
      </trkpt>
      <trkpt lat="22.871789" lon="109.817957">
        <ele>104.757298</ele>
        <time>2026-08-15T08:33:20.000Z</time>
      </trkpt>
      <trkpt lat="22.871765" lon="109.817987">
        <ele>104.811184</ele>
        <time>2026-08-15T08:33:21.000Z</time>
      </trkpt>
      <trkpt lat="22.871741" lon="109.818017">
        <ele>104.865071</ele>
        <time>2026-08-15T08:33:22.000Z</time>
      </trkpt>
      <trkpt lat="22.871719" lon="109.818048">
        <ele>104.929546</ele>
        <time>2026-08-15T08:33:23.000Z</time>
      </trkpt>
      <trkpt lat="22.871698" lon="109.818079">
        <ele>105.001758</ele>
        <time>2026-08-15T08:33:24.000Z</time>
      </trkpt>
      <trkpt lat="22.871674" lon="109.818109">
        <ele>105.076322</ele>
        <time>2026-08-15T08:33:25.000Z</time>
      </trkpt>
      <trkpt lat="22.871648" lon="109.818138">
        <ele>105.152262</ele>
        <time>2026-08-15T08:33:26.000Z</time>
      </trkpt>
      <trkpt lat="22.871621" lon="109.818168">
        <ele>105.230967</ele>
        <time>2026-08-15T08:33:27.000Z</time>
      </trkpt>
      <trkpt lat="22.871594" lon="109.818198">
        <ele>105.309673</ele>
        <time>2026-08-15T08:33:28.000Z</time>
      </trkpt>
      <trkpt lat="22.871568" lon="109.818228">
        <ele>105.386969</ele>
        <time>2026-08-15T08:33:29.000Z</time>
      </trkpt>
      <trkpt lat="22.871541" lon="109.818259">
        <ele>105.467029</ele>
        <time>2026-08-15T08:33:30.000Z</time>
      </trkpt>
      <trkpt lat="22.871514" lon="109.818289">
        <ele>105.545734</ele>
        <time>2026-08-15T08:33:31.000Z</time>
      </trkpt>
      <trkpt lat="22.871486" lon="109.818319">
        <ele>105.625877</ele>
        <time>2026-08-15T08:33:32.000Z</time>
      </trkpt>
      <trkpt lat="22.871459" lon="109.818349">
        <ele>105.704582</ele>
        <time>2026-08-15T08:33:33.000Z</time>
      </trkpt>
      <trkpt lat="22.871432" lon="109.818379">
        <ele>105.783288</ele>
        <time>2026-08-15T08:33:34.000Z</time>
      </trkpt>
      <trkpt lat="22.871404" lon="109.818409">
        <ele>105.863431</ele>
        <time>2026-08-15T08:33:35.000Z</time>
      </trkpt>
      <trkpt lat="22.871375" lon="109.818440">
        <ele>105.946341</ele>
        <time>2026-08-15T08:33:36.000Z</time>
      </trkpt>
      <trkpt lat="22.871347" lon="109.818470">
        <ele>106.026484</ele>
        <time>2026-08-15T08:33:37.000Z</time>
      </trkpt>
      <trkpt lat="22.871318" lon="109.818501">
        <ele>106.109394</ele>
        <time>2026-08-15T08:33:38.000Z</time>
      </trkpt>
      <trkpt lat="22.871288" lon="109.818531">
        <ele>106.192485</ele>
        <time>2026-08-15T08:33:39.000Z</time>
      </trkpt>
      <trkpt lat="22.871258" lon="109.818560">
        <ele>106.274316</ele>
        <time>2026-08-15T08:33:40.000Z</time>
      </trkpt>
      <trkpt lat="22.871230" lon="109.818590">
        <ele>106.354458</ele>
        <time>2026-08-15T08:33:41.000Z</time>
      </trkpt>
      <trkpt lat="22.871201" lon="109.818619">
        <ele>106.434779</ele>
        <time>2026-08-15T08:33:42.000Z</time>
      </trkpt>
      <trkpt lat="22.871171" lon="109.818648">
        <ele>106.516610</ele>
        <time>2026-08-15T08:33:43.000Z</time>
      </trkpt>
      <trkpt lat="22.871141" lon="109.818675">
        <ele>106.595994</ele>
        <time>2026-08-15T08:33:44.000Z</time>
      </trkpt>
      <trkpt lat="22.871110" lon="109.818701">
        <ele>106.675795</ele>
        <time>2026-08-15T08:33:45.000Z</time>
      </trkpt>
      <trkpt lat="22.871080" lon="109.818726">
        <ele>106.752837</ele>
        <time>2026-08-15T08:33:46.000Z</time>
      </trkpt>
      <trkpt lat="22.871052" lon="109.818751">
        <ele>106.826690</ele>
        <time>2026-08-15T08:33:47.000Z</time>
      </trkpt>
      <trkpt lat="22.871023" lon="109.818777">
        <ele>106.903308</ele>
        <time>2026-08-15T08:33:48.000Z</time>
      </trkpt>
      <trkpt lat="22.870994" lon="109.818802">
        <ele>106.978744</ele>
        <time>2026-08-15T08:33:49.000Z</time>
      </trkpt>
      <trkpt lat="22.870965" lon="109.818830">
        <ele>107.057806</ele>
        <time>2026-08-15T08:33:50.000Z</time>
      </trkpt>
      <trkpt lat="22.870938" lon="109.818858">
        <ele>107.133872</ele>
        <time>2026-08-15T08:33:51.000Z</time>
      </trkpt>
      <trkpt lat="22.870910" lon="109.818884">
        <ele>107.208931</ele>
        <time>2026-08-15T08:33:52.000Z</time>
      </trkpt>
      <trkpt lat="22.870882" lon="109.818911">
        <ele>107.285223</ele>
        <time>2026-08-15T08:33:53.000Z</time>
      </trkpt>
      <trkpt lat="22.870853" lon="109.818936">
        <ele>107.360660</ele>
        <time>2026-08-15T08:33:54.000Z</time>
      </trkpt>
      <trkpt lat="22.870824" lon="109.818963">
        <ele>107.438487</ele>
        <time>2026-08-15T08:33:55.000Z</time>
      </trkpt>
      <trkpt lat="22.870796" lon="109.818990">
        <ele>107.514779</ele>
        <time>2026-08-15T08:33:56.000Z</time>
      </trkpt>
      <trkpt lat="22.870766" lon="109.819016">
        <ele>107.592978</ele>
        <time>2026-08-15T08:33:57.000Z</time>
      </trkpt>
      <trkpt lat="22.870737" lon="109.819044">
        <ele>107.672040</ele>
        <time>2026-08-15T08:33:58.000Z</time>
      </trkpt>
      <trkpt lat="22.870706" lon="109.819072">
        <ele>107.754190</ele>
        <time>2026-08-15T08:33:59.000Z</time>
      </trkpt>
      <trkpt lat="22.870677" lon="109.819099">
        <ele>107.832017</ele>
        <time>2026-08-15T08:34:00.000Z</time>
      </trkpt>
      <trkpt lat="22.870646" lon="109.819125">
        <ele>107.911818</ele>
        <time>2026-08-15T08:34:01.000Z</time>
      </trkpt>
      <trkpt lat="22.870615" lon="109.819151">
        <ele>107.991619</ele>
        <time>2026-08-15T08:34:02.000Z</time>
      </trkpt>
      <trkpt lat="22.870585" lon="109.819180">
        <ele>108.073450</ele>
        <time>2026-08-15T08:34:03.000Z</time>
      </trkpt>
      <trkpt lat="22.870556" lon="109.819208">
        <ele>108.152512</ele>
        <time>2026-08-15T08:34:04.000Z</time>
      </trkpt>
      <trkpt lat="22.870526" lon="109.819235">
        <ele>108.231896</ele>
        <time>2026-08-15T08:34:05.000Z</time>
      </trkpt>
      <trkpt lat="22.870496" lon="109.819261">
        <ele>108.310095</ele>
        <time>2026-08-15T08:34:06.000Z</time>
      </trkpt>
      <trkpt lat="22.870466" lon="109.819288">
        <ele>108.389479</ele>
        <time>2026-08-15T08:34:07.000Z</time>
      </trkpt>
      <trkpt lat="22.870437" lon="109.819315">
        <ele>108.467306</ele>
        <time>2026-08-15T08:34:08.000Z</time>
      </trkpt>
      <trkpt lat="22.870407" lon="109.819342">
        <ele>108.546690</ele>
        <time>2026-08-15T08:34:09.000Z</time>
      </trkpt>
      <trkpt lat="22.870377" lon="109.819369">
        <ele>108.544382</ele>
        <time>2026-08-15T08:34:10.000Z</time>
      </trkpt>
      <trkpt lat="22.870348" lon="109.819397">
        <ele>108.536149</ele>
        <time>2026-08-15T08:34:11.000Z</time>
      </trkpt>
      <trkpt lat="22.870318" lon="109.819425">
        <ele>108.527755</ele>
        <time>2026-08-15T08:34:12.000Z</time>
      </trkpt>
      <trkpt lat="22.870288" lon="109.819455">
        <ele>108.519101</ele>
        <time>2026-08-15T08:34:13.000Z</time>
      </trkpt>
      <trkpt lat="22.870258" lon="109.819484">
        <ele>108.510579</ele>
        <time>2026-08-15T08:34:14.000Z</time>
      </trkpt>
      <trkpt lat="22.870227" lon="109.819511">
        <ele>108.502147</ele>
        <time>2026-08-15T08:34:15.000Z</time>
      </trkpt>
      <trkpt lat="22.870196" lon="109.819538">
        <ele>108.493715</ele>
        <time>2026-08-15T08:34:16.000Z</time>
      </trkpt>
      <trkpt lat="22.870164" lon="109.819567">
        <ele>108.484872</ele>
        <time>2026-08-15T08:34:17.000Z</time>
      </trkpt>
      <trkpt lat="22.870133" lon="109.819596">
        <ele>108.476190</ele>
        <time>2026-08-15T08:34:18.000Z</time>
      </trkpt>
      <trkpt lat="22.870099" lon="109.819622">
        <ele>108.467367</ele>
        <time>2026-08-15T08:34:19.000Z</time>
      </trkpt>
      <trkpt lat="22.870073" lon="109.819653">
        <ele>108.459173</ele>
        <time>2026-08-15T08:34:20.000Z</time>
      </trkpt>
      <trkpt lat="22.870043" lon="109.819680">
        <ele>108.450906</ele>
        <time>2026-08-15T08:34:21.000Z</time>
      </trkpt>
      <trkpt lat="22.870013" lon="109.819702">
        <ele>108.443225</ele>
        <time>2026-08-15T08:34:22.000Z</time>
      </trkpt>
      <trkpt lat="22.869977" lon="109.819726">
        <ele>108.434263</ele>
        <time>2026-08-15T08:34:23.000Z</time>
      </trkpt>
      <trkpt lat="22.869940" lon="109.819748">
        <ele>108.425313</ele>
        <time>2026-08-15T08:34:24.000Z</time>
      </trkpt>
      <trkpt lat="22.869905" lon="109.819769">
        <ele>108.416829</ele>
        <time>2026-08-15T08:34:25.000Z</time>
      </trkpt>
      <trkpt lat="22.869875" lon="109.819793">
        <ele>108.408923</ele>
        <time>2026-08-15T08:34:26.000Z</time>
      </trkpt>
      <trkpt lat="22.869843" lon="109.819816">
        <ele>108.400781</ele>
        <time>2026-08-15T08:34:27.000Z</time>
      </trkpt>
      <trkpt lat="22.869812" lon="109.819844">
        <ele>108.392226</ele>
        <time>2026-08-15T08:34:28.000Z</time>
      </trkpt>
      <trkpt lat="22.869780" lon="109.819874">
        <ele>108.383255</ele>
        <time>2026-08-15T08:34:29.000Z</time>
      </trkpt>
      <trkpt lat="22.869747" lon="109.819904">
        <ele>108.374124</ele>
        <time>2026-08-15T08:34:30.000Z</time>
      </trkpt>
      <trkpt lat="22.869714" lon="109.819934">
        <ele>108.364992</ele>
        <time>2026-08-15T08:34:31.000Z</time>
      </trkpt>
      <trkpt lat="22.869682" lon="109.819964">
        <ele>108.356022</ele>
        <time>2026-08-15T08:34:32.000Z</time>
      </trkpt>
      <trkpt lat="22.869649" lon="109.819993">
        <ele>108.347014</ele>
        <time>2026-08-15T08:34:33.000Z</time>
      </trkpt>
      <trkpt lat="22.869616" lon="109.820020">
        <ele>108.338247</ele>
        <time>2026-08-15T08:34:34.000Z</time>
      </trkpt>
      <trkpt lat="22.869582" lon="109.820047">
        <ele>108.329310</ele>
        <time>2026-08-15T08:34:35.000Z</time>
      </trkpt>
      <trkpt lat="22.869550" lon="109.820076">
        <ele>108.320467</ele>
        <time>2026-08-15T08:34:36.000Z</time>
      </trkpt>
      <trkpt lat="22.869518" lon="109.820108">
        <ele>108.311236</ele>
        <time>2026-08-15T08:34:37.000Z</time>
      </trkpt>
      <trkpt lat="22.869481" lon="109.820138">
        <ele>108.301439</ele>
        <time>2026-08-15T08:34:38.000Z</time>
      </trkpt>
      <trkpt lat="22.869445" lon="109.820171">
        <ele>108.291442</ele>
        <time>2026-08-15T08:34:39.000Z</time>
      </trkpt>
      <trkpt lat="22.869408" lon="109.820201">
        <ele>108.281645</ele>
        <time>2026-08-15T08:34:40.000Z</time>
      </trkpt>
      <trkpt lat="22.869369" lon="109.820233">
        <ele>108.271274</ele>
        <time>2026-08-15T08:34:41.000Z</time>
      </trkpt>
      <trkpt lat="22.869330" lon="109.820266">
        <ele>108.260783</ele>
        <time>2026-08-15T08:34:42.000Z</time>
      </trkpt>
      <trkpt lat="22.869292" lon="109.820300">
        <ele>108.250336</ele>
        <time>2026-08-15T08:34:43.000Z</time>
      </trkpt>
      <trkpt lat="22.869252" lon="109.820333">
        <ele>108.239677</ele>
        <time>2026-08-15T08:34:44.000Z</time>
      </trkpt>
      <trkpt lat="22.869213" lon="109.820366">
        <ele>108.229187</ele>
        <time>2026-08-15T08:34:45.000Z</time>
      </trkpt>
      <trkpt lat="22.869173" lon="109.820401">
        <ele>108.218287</ele>
        <time>2026-08-15T08:34:46.000Z</time>
      </trkpt>
      <trkpt lat="22.869133" lon="109.820436">
        <ele>108.207388</ele>
        <time>2026-08-15T08:34:47.000Z</time>
      </trkpt>
      <trkpt lat="22.869092" lon="109.820471">
        <ele>108.196322</ele>
        <time>2026-08-15T08:34:48.000Z</time>
      </trkpt>
      <trkpt lat="22.869051" lon="109.820505">
        <ele>108.185376</ele>
        <time>2026-08-15T08:34:49.000Z</time>
      </trkpt>
      <trkpt lat="22.869010" lon="109.820538">
        <ele>108.174548</ele>
        <time>2026-08-15T08:34:50.000Z</time>
      </trkpt>
      <trkpt lat="22.868967" lon="109.820571">
        <ele>108.152213</ele>
        <time>2026-08-15T08:34:51.000Z</time>
      </trkpt>
      <trkpt lat="22.868922" lon="109.820603">
        <ele>108.123004</ele>
        <time>2026-08-15T08:34:52.000Z</time>
      </trkpt>
      <trkpt lat="22.868878" lon="109.820636">
        <ele>108.093966</ele>
        <time>2026-08-15T08:34:53.000Z</time>
      </trkpt>
      <trkpt lat="22.868834" lon="109.820670">
        <ele>108.064641</ele>
        <time>2026-08-15T08:34:54.000Z</time>
      </trkpt>
      <trkpt lat="22.868788" lon="109.820702">
        <ele>108.034976</ele>
        <time>2026-08-15T08:34:55.000Z</time>
      </trkpt>
      <trkpt lat="22.868742" lon="109.820735">
        <ele>108.005038</ele>
        <time>2026-08-15T08:34:56.000Z</time>
      </trkpt>
      <trkpt lat="22.868695" lon="109.820769">
        <ele>107.974371</ele>
        <time>2026-08-15T08:34:57.000Z</time>
      </trkpt>
      <trkpt lat="22.868647" lon="109.820805">
        <ele>107.942694</ele>
        <time>2026-08-15T08:34:58.000Z</time>
      </trkpt>
      <trkpt lat="22.868599" lon="109.820840">
        <ele>107.911297</ele>
        <time>2026-08-15T08:34:59.000Z</time>
      </trkpt>
      <trkpt lat="22.868550" lon="109.820876">
        <ele>107.879171</ele>
        <time>2026-08-15T08:35:00.000Z</time>
      </trkpt>
      <trkpt lat="22.868503" lon="109.820909">
        <ele>107.848779</ele>
        <time>2026-08-15T08:35:01.000Z</time>
      </trkpt>
      <trkpt lat="22.868451" lon="109.820948">
        <ele>107.814461</ele>
        <time>2026-08-15T08:35:02.000Z</time>
      </trkpt>
      <trkpt lat="22.868397" lon="109.820984">
        <ele>107.780054</ele>
        <time>2026-08-15T08:35:03.000Z</time>
      </trkpt>
      <trkpt lat="22.868344" lon="109.821017">
        <ele>107.746879</ele>
        <time>2026-08-15T08:35:04.000Z</time>
      </trkpt>
      <trkpt lat="22.868292" lon="109.821051">
        <ele>107.713919</ele>
        <time>2026-08-15T08:35:05.000Z</time>
      </trkpt>
      <trkpt lat="22.868240" lon="109.821087">
        <ele>107.680432</ele>
        <time>2026-08-15T08:35:06.000Z</time>
      </trkpt>
      <trkpt lat="22.868186" lon="109.821122">
        <ele>107.646283</ele>
        <time>2026-08-15T08:35:07.000Z</time>
      </trkpt>
      <trkpt lat="22.868134" lon="109.821155">
        <ele>107.613579</ele>
        <time>2026-08-15T08:35:08.000Z</time>
      </trkpt>
      <trkpt lat="22.868081" lon="109.821189">
        <ele>107.580152</ele>
        <time>2026-08-15T08:35:09.000Z</time>
      </trkpt>
      <trkpt lat="22.868029" lon="109.821221">
        <ele>107.547697</ele>
        <time>2026-08-15T08:35:10.000Z</time>
      </trkpt>
      <trkpt lat="22.867976" lon="109.821254">
        <ele>107.514523</ele>
        <time>2026-08-15T08:35:11.000Z</time>
      </trkpt>
      <trkpt lat="22.867923" lon="109.821286">
        <ele>107.481594</ele>
        <time>2026-08-15T08:35:12.000Z</time>
      </trkpt>
      <trkpt lat="22.867872" lon="109.821318">
        <ele>107.449610</ele>
        <time>2026-08-15T08:35:13.000Z</time>
      </trkpt>
      <trkpt lat="22.867820" lon="109.821351">
        <ele>107.416906</ele>
        <time>2026-08-15T08:35:14.000Z</time>
      </trkpt>
      <trkpt lat="22.867769" lon="109.821383">
        <ele>107.384922</ele>
        <time>2026-08-15T08:35:15.000Z</time>
      </trkpt>
      <trkpt lat="22.867718" lon="109.821412">
        <ele>107.353662</ele>
        <time>2026-08-15T08:35:16.000Z</time>
      </trkpt>
      <trkpt lat="22.867668" lon="109.821442">
        <ele>107.322643</ele>
        <time>2026-08-15T08:35:17.000Z</time>
      </trkpt>
      <trkpt lat="22.867616" lon="109.821473">
        <ele>107.290432</ele>
        <time>2026-08-15T08:35:18.000Z</time>
      </trkpt>
      <trkpt lat="22.867566" lon="109.821503">
        <ele>107.259413</ele>
        <time>2026-08-15T08:35:19.000Z</time>
      </trkpt>
      <trkpt lat="22.867517" lon="109.821534">
        <ele>107.228619</ele>
        <time>2026-08-15T08:35:20.000Z</time>
      </trkpt>
      <trkpt lat="22.867466" lon="109.821565">
        <ele>107.196883</ele>
        <time>2026-08-15T08:35:21.000Z</time>
      </trkpt>
      <trkpt lat="22.867416" lon="109.821595">
        <ele>107.258523</ele>
        <time>2026-08-15T08:35:22.000Z</time>
      </trkpt>
      <trkpt lat="22.867367" lon="109.821625">
        <ele>107.328584</ele>
        <time>2026-08-15T08:35:23.000Z</time>
      </trkpt>
      <trkpt lat="22.867318" lon="109.821654">
        <ele>107.398088</ele>
        <time>2026-08-15T08:35:24.000Z</time>
      </trkpt>
      <trkpt lat="22.867270" lon="109.821683">
        <ele>107.466502</ele>
        <time>2026-08-15T08:35:25.000Z</time>
      </trkpt>
      <trkpt lat="22.867220" lon="109.821712">
        <ele>107.537102</ele>
        <time>2026-08-15T08:35:26.000Z</time>
      </trkpt>
      <trkpt lat="22.867172" lon="109.821742">
        <ele>107.606080</ele>
        <time>2026-08-15T08:35:27.000Z</time>
      </trkpt>
      <trkpt lat="22.867125" lon="109.821772">
        <ele>107.673983</ele>
        <time>2026-08-15T08:35:28.000Z</time>
      </trkpt>
      <trkpt lat="22.867078" lon="109.821800">
        <ele>107.740751</ele>
        <time>2026-08-15T08:35:29.000Z</time>
      </trkpt>
      <trkpt lat="22.867031" lon="109.821828">
        <ele>107.807520</ele>
        <time>2026-08-15T08:35:30.000Z</time>
      </trkpt>
      <trkpt lat="22.866984" lon="109.821855">
        <ele>107.873743</ele>
        <time>2026-08-15T08:35:31.000Z</time>
      </trkpt>
      <trkpt lat="22.866939" lon="109.821882">
        <ele>107.937777</ele>
        <time>2026-08-15T08:35:32.000Z</time>
      </trkpt>
      <trkpt lat="22.866894" lon="109.821909">
        <ele>108.001810</ele>
        <time>2026-08-15T08:35:33.000Z</time>
      </trkpt>
      <trkpt lat="22.866850" lon="109.821937">
        <ele>108.065329</ele>
        <time>2026-08-15T08:35:34.000Z</time>
      </trkpt>
      <trkpt lat="22.866806" lon="109.821963">
        <ele>108.127718</ele>
        <time>2026-08-15T08:35:35.000Z</time>
      </trkpt>
      <trkpt lat="22.866763" lon="109.821987">
        <ele>108.187933</ele>
        <time>2026-08-15T08:35:36.000Z</time>
      </trkpt>
      <trkpt lat="22.866719" lon="109.822012">
        <ele>108.249782</ele>
        <time>2026-08-15T08:35:37.000Z</time>
      </trkpt>
      <trkpt lat="22.866675" lon="109.822037">
        <ele>108.311631</ele>
        <time>2026-08-15T08:35:38.000Z</time>
      </trkpt>
      <trkpt lat="22.866632" lon="109.822061">
        <ele>108.371846</ele>
        <time>2026-08-15T08:35:39.000Z</time>
      </trkpt>
      <trkpt lat="22.866589" lon="109.822083">
        <ele>108.431047</ele>
        <time>2026-08-15T08:35:40.000Z</time>
      </trkpt>
      <trkpt lat="22.866547" lon="109.822106">
        <ele>108.489632</ele>
        <time>2026-08-15T08:35:41.000Z</time>
      </trkpt>
      <trkpt lat="22.866505" lon="109.822127">
        <ele>108.547219</ele>
        <time>2026-08-15T08:35:42.000Z</time>
      </trkpt>
      <trkpt lat="22.866465" lon="109.822146">
        <ele>108.601594</ele>
        <time>2026-08-15T08:35:43.000Z</time>
      </trkpt>
      <trkpt lat="22.866424" lon="109.822166">
        <ele>108.657573</ele>
        <time>2026-08-15T08:35:44.000Z</time>
      </trkpt>
      <trkpt lat="22.866383" lon="109.822185">
        <ele>108.713091</ele>
        <time>2026-08-15T08:35:45.000Z</time>
      </trkpt>
      <trkpt lat="22.866343" lon="109.822204">
        <ele>108.767466</ele>
        <time>2026-08-15T08:35:46.000Z</time>
      </trkpt>
      <trkpt lat="22.866302" lon="109.822223">
        <ele>108.822984</ele>
        <time>2026-08-15T08:35:47.000Z</time>
      </trkpt>
      <trkpt lat="22.866264" lon="109.822245">
        <ele>108.876618</ele>
        <time>2026-08-15T08:35:48.000Z</time>
      </trkpt>
      <trkpt lat="22.866225" lon="109.822270">
        <ele>108.933025</ele>
        <time>2026-08-15T08:35:49.000Z</time>
      </trkpt>
      <trkpt lat="22.866186" lon="109.822291">
        <ele>108.987241</ele>
        <time>2026-08-15T08:35:50.000Z</time>
      </trkpt>
      <trkpt lat="22.866145" lon="109.822312">
        <ele>109.043700</ele>
        <time>2026-08-15T08:35:51.000Z</time>
      </trkpt>
      <trkpt lat="22.866103" lon="109.822332">
        <ele>109.100817</ele>
        <time>2026-08-15T08:35:52.000Z</time>
      </trkpt>
      <trkpt lat="22.866062" lon="109.822352">
        <ele>109.156795</ele>
        <time>2026-08-15T08:35:53.000Z</time>
      </trkpt>
      <trkpt lat="22.866022" lon="109.822373">
        <ele>109.212130</ele>
        <time>2026-08-15T08:35:54.000Z</time>
      </trkpt>
      <trkpt lat="22.865981" lon="109.822394">
        <ele>109.268589</ele>
        <time>2026-08-15T08:35:55.000Z</time>
      </trkpt>
      <trkpt lat="22.865942" lon="109.822414">
        <ele>109.322306</ele>
        <time>2026-08-15T08:35:56.000Z</time>
      </trkpt>
      <trkpt lat="22.865901" lon="109.822433">
        <ele>109.377824</ele>
        <time>2026-08-15T08:35:57.000Z</time>
      </trkpt>
      <trkpt lat="22.865859" lon="109.822453">
        <ele>109.435152</ele>
        <time>2026-08-15T08:35:58.000Z</time>
      </trkpt>
      <trkpt lat="22.865817" lon="109.822473">
        <ele>109.503723</ele>
        <time>2026-08-15T08:35:59.000Z</time>
      </trkpt>
      <trkpt lat="22.865776" lon="109.822492">
        <ele>109.570374</ele>
        <time>2026-08-15T08:36:00.000Z</time>
      </trkpt>
      <trkpt lat="22.865737" lon="109.822510">
        <ele>109.633735</ele>
        <time>2026-08-15T08:36:01.000Z</time>
      </trkpt>
      <trkpt lat="22.865697" lon="109.822529">
        <ele>109.699014</ele>
        <time>2026-08-15T08:36:02.000Z</time>
      </trkpt>
      <trkpt lat="22.865656" lon="109.822548">
        <ele>109.765666</ele>
        <time>2026-08-15T08:36:03.000Z</time>
      </trkpt>
      <trkpt lat="22.865615" lon="109.822566">
        <ele>109.831788</ele>
        <time>2026-08-15T08:36:04.000Z</time>
      </trkpt>
      <trkpt lat="22.865576" lon="109.822586">
        <ele>109.896277</ele>
        <time>2026-08-15T08:36:05.000Z</time>
      </trkpt>
      <trkpt lat="22.865536" lon="109.822606">
        <ele>109.962121</ele>
        <time>2026-08-15T08:36:06.000Z</time>
      </trkpt>
      <trkpt lat="22.865495" lon="109.822622">
        <ele>110.027260</ele>
        <time>2026-08-15T08:36:07.000Z</time>
      </trkpt>
      <trkpt lat="22.865456" lon="109.822639">
        <ele>110.090095</ele>
        <time>2026-08-15T08:36:08.000Z</time>
      </trkpt>
      <trkpt lat="22.865416" lon="109.822657">
        <ele>110.154834</ele>
        <time>2026-08-15T08:36:09.000Z</time>
      </trkpt>
      <trkpt lat="22.865376" lon="109.822676">
        <ele>110.220113</ele>
        <time>2026-08-15T08:36:10.000Z</time>
      </trkpt>
      <trkpt lat="22.865336" lon="109.822694">
        <ele>110.284852</ele>
        <time>2026-08-15T08:36:11.000Z</time>
      </trkpt>
      <trkpt lat="22.865296" lon="109.822712">
        <ele>110.349592</ele>
        <time>2026-08-15T08:36:12.000Z</time>
      </trkpt>
      <trkpt lat="22.865255" lon="109.822731">
        <ele>110.416243</ele>
        <time>2026-08-15T08:36:13.000Z</time>
      </trkpt>
      <trkpt lat="22.865214" lon="109.822751">
        <ele>110.483447</ele>
        <time>2026-08-15T08:36:14.000Z</time>
      </trkpt>
      <trkpt lat="22.865173" lon="109.822770">
        <ele>110.550099</ele>
        <time>2026-08-15T08:36:15.000Z</time>
      </trkpt>
      <trkpt lat="22.865132" lon="109.822789">
        <ele>110.616751</ele>
        <time>2026-08-15T08:36:16.000Z</time>
      </trkpt>
      <trkpt lat="22.865092" lon="109.822809">
        <ele>110.682594</ele>
        <time>2026-08-15T08:36:17.000Z</time>
      </trkpt>
      <trkpt lat="22.865052" lon="109.822828">
        <ele>110.747873</ele>
        <time>2026-08-15T08:36:18.000Z</time>
      </trkpt>
      <trkpt lat="22.865011" lon="109.822847">
        <ele>110.814525</ele>
        <time>2026-08-15T08:36:19.000Z</time>
      </trkpt>
      <trkpt lat="22.864971" lon="109.822866">
        <ele>110.879804</ele>
        <time>2026-08-15T08:36:20.000Z</time>
      </trkpt>
      <trkpt lat="22.864931" lon="109.822886">
        <ele>110.945648</ele>
        <time>2026-08-15T08:36:21.000Z</time>
      </trkpt>
      <trkpt lat="22.864891" lon="109.822905">
        <ele>111.010927</ele>
        <time>2026-08-15T08:36:22.000Z</time>
      </trkpt>
      <trkpt lat="22.864851" lon="109.822925">
        <ele>111.076771</ele>
        <time>2026-08-15T08:36:23.000Z</time>
      </trkpt>
      <trkpt lat="22.864810" lon="109.822945">
        <ele>111.143975</ele>
        <time>2026-08-15T08:36:24.000Z</time>
      </trkpt>
      <trkpt lat="22.864770" lon="109.822965">
        <ele>111.209819</ele>
        <time>2026-08-15T08:36:25.000Z</time>
      </trkpt>
      <trkpt lat="22.864729" lon="109.822986">
        <ele>111.277600</ele>
        <time>2026-08-15T08:36:26.000Z</time>
      </trkpt>
      <trkpt lat="22.864689" lon="109.823007">
        <ele>111.344032</ele>
        <time>2026-08-15T08:36:27.000Z</time>
      </trkpt>
      <trkpt lat="22.864649" lon="109.823027">
        <ele>111.409876</ele>
        <time>2026-08-15T08:36:28.000Z</time>
      </trkpt>
      <trkpt lat="22.864609" lon="109.823048">
        <ele>111.476308</ele>
        <time>2026-08-15T08:36:29.000Z</time>
      </trkpt>
      <trkpt lat="22.864570" lon="109.823069">
        <ele>111.541397</ele>
        <time>2026-08-15T08:36:30.000Z</time>
      </trkpt>
      <trkpt lat="22.864532" lon="109.823089">
        <ele>111.604537</ele>
        <time>2026-08-15T08:36:31.000Z</time>
      </trkpt>
      <trkpt lat="22.864496" lon="109.823110">
        <ele>111.665641</ele>
        <time>2026-08-15T08:36:32.000Z</time>
      </trkpt>
      <trkpt lat="22.864460" lon="109.823130">
        <ele>111.726105</ele>
        <time>2026-08-15T08:36:33.000Z</time>
      </trkpt>
      <trkpt lat="22.864424" lon="109.823149">
        <ele>111.785954</ele>
        <time>2026-08-15T08:36:34.000Z</time>
      </trkpt>
      <trkpt lat="22.864386" lon="109.823168">
        <ele>111.848506</ele>
        <time>2026-08-15T08:36:35.000Z</time>
      </trkpt>
      <trkpt lat="22.864349" lon="109.823189">
        <ele>111.910931</ele>
        <time>2026-08-15T08:36:36.000Z</time>
      </trkpt>
      <trkpt lat="22.864312" lon="109.823212">
        <ele>111.974679</ele>
        <time>2026-08-15T08:36:37.000Z</time>
      </trkpt>
      <trkpt lat="22.864275" lon="109.823234">
        <ele>112.037754</ele>
        <time>2026-08-15T08:36:38.000Z</time>
      </trkpt>
      <trkpt lat="22.864238" lon="109.823255">
        <ele>112.100179</ele>
        <time>2026-08-15T08:36:39.000Z</time>
      </trkpt>
      <trkpt lat="22.864201" lon="109.823277">
        <ele>112.132395</ele>
        <time>2026-08-15T08:36:40.000Z</time>
      </trkpt>
      <trkpt lat="22.864163" lon="109.823302">
        <ele>112.147958</ele>
        <time>2026-08-15T08:36:41.000Z</time>
      </trkpt>
      <trkpt lat="22.864123" lon="109.823327">
        <ele>112.164124</ele>
        <time>2026-08-15T08:36:42.000Z</time>
      </trkpt>
      <trkpt lat="22.864082" lon="109.823353">
        <ele>112.180755</ele>
        <time>2026-08-15T08:36:43.000Z</time>
      </trkpt>
      <trkpt lat="22.864043" lon="109.823377">
        <ele>112.196457</ele>
        <time>2026-08-15T08:36:44.000Z</time>
      </trkpt>
      <trkpt lat="22.864003" lon="109.823402">
        <ele>112.212623</ele>
        <time>2026-08-15T08:36:45.000Z</time>
      </trkpt>
      <trkpt lat="22.863963" lon="109.823426">
        <ele>112.228631</ele>
        <time>2026-08-15T08:36:46.000Z</time>
      </trkpt>
      <trkpt lat="22.863922" lon="109.823452">
        <ele>112.245262</ele>
        <time>2026-08-15T08:36:47.000Z</time>
      </trkpt>
      <trkpt lat="22.863881" lon="109.823476">
        <ele>112.261577</ele>
        <time>2026-08-15T08:36:48.000Z</time>
      </trkpt>
      <trkpt lat="22.863840" lon="109.823503">
        <ele>112.278373</ele>
        <time>2026-08-15T08:36:49.000Z</time>
      </trkpt>
      <trkpt lat="22.863799" lon="109.823530">
        <ele>112.295169</ele>
        <time>2026-08-15T08:36:50.000Z</time>
      </trkpt>
      <trkpt lat="22.863759" lon="109.823558">
        <ele>112.311840</ele>
        <time>2026-08-15T08:36:51.000Z</time>
      </trkpt>
      <trkpt lat="22.863719" lon="109.823585">
        <ele>112.328338</ele>
        <time>2026-08-15T08:36:52.000Z</time>
      </trkpt>
      <trkpt lat="22.863678" lon="109.823613">
        <ele>112.345303</ele>
        <time>2026-08-15T08:36:53.000Z</time>
      </trkpt>
      <trkpt lat="22.863636" lon="109.823641">
        <ele>112.362567</ele>
        <time>2026-08-15T08:36:54.000Z</time>
      </trkpt>
      <trkpt lat="22.863595" lon="109.823669">
        <ele>112.379532</ele>
        <time>2026-08-15T08:36:55.000Z</time>
      </trkpt>
      <trkpt lat="22.863553" lon="109.823699">
        <ele>112.397142</ele>
        <time>2026-08-15T08:36:56.000Z</time>
      </trkpt>
      <trkpt lat="22.863512" lon="109.823729">
        <ele>112.414460</ele>
        <time>2026-08-15T08:36:57.000Z</time>
      </trkpt>
      <trkpt lat="22.863471" lon="109.823759">
        <ele>112.431778</ele>
        <time>2026-08-15T08:36:58.000Z</time>
      </trkpt>
      <trkpt lat="22.863430" lon="109.823788">
        <ele>112.448918</ele>
        <time>2026-08-15T08:36:59.000Z</time>
      </trkpt>
      <trkpt lat="22.863388" lon="109.823817">
        <ele>112.466353</ele>
        <time>2026-08-15T08:37:00.000Z</time>
      </trkpt>
      <trkpt lat="22.863347" lon="109.823846">
        <ele>112.483493</ele>
        <time>2026-08-15T08:37:01.000Z</time>
      </trkpt>
      <trkpt lat="22.863307" lon="109.823875">
        <ele>112.500340</ele>
        <time>2026-08-15T08:37:02.000Z</time>
      </trkpt>
      <trkpt lat="22.863267" lon="109.823902">
        <ele>112.516838</ele>
        <time>2026-08-15T08:37:03.000Z</time>
      </trkpt>
      <trkpt lat="22.863226" lon="109.823930">
        <ele>112.533804</ele>
        <time>2026-08-15T08:37:04.000Z</time>
      </trkpt>
      <trkpt lat="22.863183" lon="109.823955">
        <ele>112.550888</ele>
        <time>2026-08-15T08:37:05.000Z</time>
      </trkpt>
      <trkpt lat="22.863142" lon="109.823982">
        <ele>112.567685</ele>
        <time>2026-08-15T08:37:06.000Z</time>
      </trkpt>
      <trkpt lat="22.863103" lon="109.824008">
        <ele>112.583715</ele>
        <time>2026-08-15T08:37:07.000Z</time>
      </trkpt>
      <trkpt lat="22.863062" lon="109.824033">
        <ele>112.600185</ele>
        <time>2026-08-15T08:37:08.000Z</time>
      </trkpt>
      <trkpt lat="22.863022" lon="109.824060">
        <ele>112.616683</ele>
        <time>2026-08-15T08:37:09.000Z</time>
      </trkpt>
      <trkpt lat="22.862983" lon="109.824086">
        <ele>112.632713</ele>
        <time>2026-08-15T08:37:10.000Z</time>
      </trkpt>
      <trkpt lat="22.862944" lon="109.824115">
        <ele>112.649271</ele>
        <time>2026-08-15T08:37:11.000Z</time>
      </trkpt>
      <trkpt lat="22.862905" lon="109.824143">
        <ele>112.665648</ele>
        <time>2026-08-15T08:37:12.000Z</time>
      </trkpt>
      <trkpt lat="22.862866" lon="109.824170">
        <ele>112.681849</ele>
        <time>2026-08-15T08:37:13.000Z</time>
      </trkpt>
      <trkpt lat="22.862825" lon="109.824198">
        <ele>112.698815</ele>
        <time>2026-08-15T08:37:14.000Z</time>
      </trkpt>
      <trkpt lat="22.862785" lon="109.824227">
        <ele>112.715663</ele>
        <time>2026-08-15T08:37:15.000Z</time>
      </trkpt>
      <trkpt lat="22.862744" lon="109.824257">
        <ele>112.732981</ele>
        <time>2026-08-15T08:37:16.000Z</time>
      </trkpt>
      <trkpt lat="22.862703" lon="109.824286">
        <ele>112.750121</ele>
        <time>2026-08-15T08:37:17.000Z</time>
      </trkpt>
      <trkpt lat="22.862661" lon="109.824315">
        <ele>112.757193</ele>
        <time>2026-08-15T08:37:18.000Z</time>
      </trkpt>
      <trkpt lat="22.862619" lon="109.824342">
        <ele>112.762210</ele>
        <time>2026-08-15T08:37:19.000Z</time>
      </trkpt>
      <trkpt lat="22.862577" lon="109.824370">
        <ele>112.767276</ele>
        <time>2026-08-15T08:37:20.000Z</time>
      </trkpt>
      <trkpt lat="22.862535" lon="109.824400">
        <ele>112.772443</ele>
        <time>2026-08-15T08:37:21.000Z</time>
      </trkpt>
      <trkpt lat="22.862494" lon="109.824429">
        <ele>112.777472</ele>
        <time>2026-08-15T08:37:22.000Z</time>
      </trkpt>
      <trkpt lat="22.862451" lon="109.824458">
        <ele>112.782675</ele>
        <time>2026-08-15T08:37:23.000Z</time>
      </trkpt>
      <trkpt lat="22.862410" lon="109.824486">
        <ele>112.787654</ele>
        <time>2026-08-15T08:37:24.000Z</time>
      </trkpt>
      <trkpt lat="22.862367" lon="109.824514">
        <ele>112.792807</ele>
        <time>2026-08-15T08:37:25.000Z</time>
      </trkpt>
      <trkpt lat="22.862324" lon="109.824543">
        <ele>112.798010</ele>
        <time>2026-08-15T08:37:26.000Z</time>
      </trkpt>
      <trkpt lat="22.862281" lon="109.824573">
        <ele>112.803263</ele>
        <time>2026-08-15T08:37:27.000Z</time>
      </trkpt>
      <trkpt lat="22.862239" lon="109.824604">
        <ele>112.808483</ele>
        <time>2026-08-15T08:37:28.000Z</time>
      </trkpt>
      <trkpt lat="22.862197" lon="109.824634">
        <ele>112.813651</ele>
        <time>2026-08-15T08:37:29.000Z</time>
      </trkpt>
      <trkpt lat="22.862155" lon="109.824663">
        <ele>112.818766</ele>
        <time>2026-08-15T08:37:30.000Z</time>
      </trkpt>
      <trkpt lat="22.862113" lon="109.824693">
        <ele>112.823934</ele>
        <time>2026-08-15T08:37:31.000Z</time>
      </trkpt>
      <trkpt lat="22.862070" lon="109.824723">
        <ele>112.829187</ele>
        <time>2026-08-15T08:37:32.000Z</time>
      </trkpt>
      <trkpt lat="22.862027" lon="109.824753">
        <ele>112.834440</ele>
        <time>2026-08-15T08:37:33.000Z</time>
      </trkpt>
      <trkpt lat="22.861984" lon="109.824783">
        <ele>112.839694</ele>
        <time>2026-08-15T08:37:34.000Z</time>
      </trkpt>
      <trkpt lat="22.861942" lon="109.824813">
        <ele>112.844861</ele>
        <time>2026-08-15T08:37:35.000Z</time>
      </trkpt>
      <trkpt lat="22.861898" lon="109.824844">
        <ele>112.850252</ele>
        <time>2026-08-15T08:37:36.000Z</time>
      </trkpt>
      <trkpt lat="22.861854" lon="109.824875">
        <ele>112.855643</ele>
        <time>2026-08-15T08:37:37.000Z</time>
      </trkpt>
      <trkpt lat="22.861809" lon="109.824906">
        <ele>112.861121</ele>
        <time>2026-08-15T08:37:38.000Z</time>
      </trkpt>
      <trkpt lat="22.861763" lon="109.824937">
        <ele>112.866686</ele>
        <time>2026-08-15T08:37:39.000Z</time>
      </trkpt>
      <trkpt lat="22.861717" lon="109.824969">
        <ele>112.872301</ele>
        <time>2026-08-15T08:37:40.000Z</time>
      </trkpt>
      <trkpt lat="22.861672" lon="109.825001">
        <ele>112.877830</ele>
        <time>2026-08-15T08:37:41.000Z</time>
      </trkpt>
      <trkpt lat="22.861626" lon="109.825033">
        <ele>112.883445</ele>
        <time>2026-08-15T08:37:42.000Z</time>
      </trkpt>
      <trkpt lat="22.861580" lon="109.825066">
        <ele>112.889112</ele>
        <time>2026-08-15T08:37:43.000Z</time>
      </trkpt>
      <trkpt lat="22.861535" lon="109.825098">
        <ele>112.894641</ele>
        <time>2026-08-15T08:37:44.000Z</time>
      </trkpt>
      <trkpt lat="22.861490" lon="109.825131">
        <ele>112.900222</ele>
        <time>2026-08-15T08:37:45.000Z</time>
      </trkpt>
      <trkpt lat="22.861446" lon="109.825164">
        <ele>112.905719</ele>
        <time>2026-08-15T08:37:46.000Z</time>
      </trkpt>
      <trkpt lat="22.861402" lon="109.825197">
        <ele>112.911215</ele>
        <time>2026-08-15T08:37:47.000Z</time>
      </trkpt>
      <trkpt lat="22.861358" lon="109.825231">
        <ele>112.916766</ele>
        <time>2026-08-15T08:37:48.000Z</time>
      </trkpt>
      <trkpt lat="22.861313" lon="109.825263">
        <ele>112.922295</ele>
        <time>2026-08-15T08:37:49.000Z</time>
      </trkpt>
      <trkpt lat="22.861270" lon="109.825294">
        <ele>112.927601</ele>
        <time>2026-08-15T08:37:50.000Z</time>
      </trkpt>
      <trkpt lat="22.861226" lon="109.825326">
        <ele>112.933044</ele>
        <time>2026-08-15T08:37:51.000Z</time>
      </trkpt>
      <trkpt lat="22.861183" lon="109.825358">
        <ele>112.941567</ele>
        <time>2026-08-15T08:37:52.000Z</time>
      </trkpt>
      <trkpt lat="22.861140" lon="109.825390">
        <ele>112.972317</ele>
        <time>2026-08-15T08:37:53.000Z</time>
      </trkpt>
      <trkpt lat="22.861097" lon="109.825421">
        <ele>113.002763</ele>
        <time>2026-08-15T08:37:54.000Z</time>
      </trkpt>
      <trkpt lat="22.861055" lon="109.825453">
        <ele>113.033029</ele>
        <time>2026-08-15T08:37:55.000Z</time>
      </trkpt>
      <trkpt lat="22.861012" lon="109.825485">
        <ele>113.063779</ele>
        <time>2026-08-15T08:37:56.000Z</time>
      </trkpt>
      <trkpt lat="22.860970" lon="109.825516">
        <ele>113.093735</ele>
        <time>2026-08-15T08:37:57.000Z</time>
      </trkpt>
      <trkpt lat="22.860928" lon="109.825549">
        <ele>113.124316</ele>
        <time>2026-08-15T08:37:58.000Z</time>
      </trkpt>
      <trkpt lat="22.860885" lon="109.825584">
        <ele>113.156017</ele>
        <time>2026-08-15T08:37:59.000Z</time>
      </trkpt>
      <trkpt lat="22.860842" lon="109.825619">
        <ele>113.187717</ele>
        <time>2026-08-15T08:38:00.000Z</time>
      </trkpt>
      <trkpt lat="22.860798" lon="109.825652">
        <ele>113.219261</ele>
        <time>2026-08-15T08:38:01.000Z</time>
      </trkpt>
      <trkpt lat="22.860754" lon="109.825685">
        <ele>113.250805</ele>
        <time>2026-08-15T08:38:02.000Z</time>
      </trkpt>
      <trkpt lat="22.860710" lon="109.825719">
        <ele>113.282661</ele>
        <time>2026-08-15T08:38:03.000Z</time>
      </trkpt>
      <trkpt lat="22.860665" lon="109.825753">
        <ele>113.315000</ele>
        <time>2026-08-15T08:38:04.000Z</time>
      </trkpt>
      <trkpt lat="22.860620" lon="109.825787">
        <ele>113.347338</ele>
        <time>2026-08-15T08:38:05.000Z</time>
      </trkpt>
      <trkpt lat="22.860575" lon="109.825824">
        <ele>113.380635</ele>
        <time>2026-08-15T08:38:06.000Z</time>
      </trkpt>
      <trkpt lat="22.860530" lon="109.825862">
        <ele>113.414263</ele>
        <time>2026-08-15T08:38:07.000Z</time>
      </trkpt>
      <trkpt lat="22.860486" lon="109.825900">
        <ele>113.447427</ele>
        <time>2026-08-15T08:38:08.000Z</time>
      </trkpt>
      <trkpt lat="22.860441" lon="109.825939">
        <ele>113.481391</ele>
        <time>2026-08-15T08:38:09.000Z</time>
      </trkpt>
      <trkpt lat="22.860396" lon="109.825978">
        <ele>113.515355</ele>
        <time>2026-08-15T08:38:10.000Z</time>
      </trkpt>
      <trkpt lat="22.860350" lon="109.826016">
        <ele>113.549450</ele>
        <time>2026-08-15T08:38:11.000Z</time>
      </trkpt>
      <trkpt lat="22.860306" lon="109.826054">
        <ele>113.582615</ele>
        <time>2026-08-15T08:38:12.000Z</time>
      </trkpt>
      <trkpt lat="22.860260" lon="109.826090">
        <ele>113.616063</ele>
        <time>2026-08-15T08:38:13.000Z</time>
      </trkpt>
      <trkpt lat="22.860215" lon="109.826130">
        <ele>113.650369</ele>
        <time>2026-08-15T08:38:14.000Z</time>
      </trkpt>
      <trkpt lat="22.860169" lon="109.826169">
        <ele>113.684796</ele>
        <time>2026-08-15T08:38:15.000Z</time>
      </trkpt>
      <trkpt lat="22.860123" lon="109.826207">
        <ele>113.718891</ele>
        <time>2026-08-15T08:38:16.000Z</time>
      </trkpt>
      <trkpt lat="22.860077" lon="109.826247">
        <ele>113.753655</ele>
        <time>2026-08-15T08:38:17.000Z</time>
      </trkpt>
      <trkpt lat="22.860030" lon="109.826283">
        <ele>113.787583</ele>
        <time>2026-08-15T08:38:18.000Z</time>
      </trkpt>
      <trkpt lat="22.859983" lon="109.826318">
        <ele>113.821201</ele>
        <time>2026-08-15T08:38:19.000Z</time>
      </trkpt>
      <trkpt lat="22.859939" lon="109.826355">
        <ele>113.854030</ele>
        <time>2026-08-15T08:38:20.000Z</time>
      </trkpt>
      <trkpt lat="22.859895" lon="109.826389">
        <ele>113.885886</ele>
        <time>2026-08-15T08:38:21.000Z</time>
      </trkpt>
      <trkpt lat="22.859851" lon="109.826422">
        <ele>113.917430</ele>
        <time>2026-08-15T08:38:22.000Z</time>
      </trkpt>
      <trkpt lat="22.859807" lon="109.826455">
        <ele>113.948974</ele>
        <time>2026-08-15T08:38:23.000Z</time>
      </trkpt>
      <trkpt lat="22.859764" lon="109.826485">
        <ele>113.979122</ele>
        <time>2026-08-15T08:38:24.000Z</time>
      </trkpt>
      <trkpt lat="22.859723" lon="109.826521">
        <ele>114.022714</ele>
        <time>2026-08-15T08:38:25.000Z</time>
      </trkpt>
      <trkpt lat="22.859684" lon="109.826555">
        <ele>114.083701</ele>
        <time>2026-08-15T08:38:26.000Z</time>
      </trkpt>
      <trkpt lat="22.859645" lon="109.826586">
        <ele>114.142637</ele>
        <time>2026-08-15T08:38:27.000Z</time>
      </trkpt>
      <trkpt lat="22.859605" lon="109.826613">
        <ele>114.200066</ele>
        <time>2026-08-15T08:38:28.000Z</time>
      </trkpt>
      <trkpt lat="22.859566" lon="109.826637">
        <ele>114.254724</ele>
        <time>2026-08-15T08:38:29.000Z</time>
      </trkpt>
      <trkpt lat="22.859526" lon="109.826661">
        <ele>114.310447</ele>
        <time>2026-08-15T08:38:30.000Z</time>
      </trkpt>
      <trkpt lat="22.859490" lon="109.826687">
        <ele>114.363166</ele>
        <time>2026-08-15T08:38:31.000Z</time>
      </trkpt>
      <trkpt lat="22.859453" lon="109.826711">
        <ele>114.415717</ele>
        <time>2026-08-15T08:38:32.000Z</time>
      </trkpt>
      <trkpt lat="22.859418" lon="109.826738">
        <ele>114.468069</ele>
        <time>2026-08-15T08:38:33.000Z</time>
      </trkpt>
      <trkpt lat="22.859385" lon="109.826768">
        <ele>114.520551</ele>
        <time>2026-08-15T08:38:34.000Z</time>
      </trkpt>
      <trkpt lat="22.859351" lon="109.826798">
        <ele>114.573974</ele>
        <time>2026-08-15T08:38:35.000Z</time>
      </trkpt>
      <trkpt lat="22.859315" lon="109.826825">
        <ele>114.627324</ele>
        <time>2026-08-15T08:38:36.000Z</time>
      </trkpt>
      <trkpt lat="22.859278" lon="109.826848">
        <ele>114.679308</ele>
        <time>2026-08-15T08:38:37.000Z</time>
      </trkpt>
      <trkpt lat="22.859239" lon="109.826870">
        <ele>114.732894</ele>
        <time>2026-08-15T08:38:38.000Z</time>
      </trkpt>
      <trkpt lat="22.859200" lon="109.826893">
        <ele>114.787007</ele>
        <time>2026-08-15T08:38:39.000Z</time>
      </trkpt>
      <trkpt lat="22.859161" lon="109.826914">
        <ele>114.840084</ele>
        <time>2026-08-15T08:38:40.000Z</time>
      </trkpt>
      <trkpt lat="22.859123" lon="109.826940">
        <ele>114.894850</ele>
        <time>2026-08-15T08:38:41.000Z</time>
      </trkpt>
      <trkpt lat="22.859085" lon="109.826969">
        <ele>114.951485</ele>
        <time>2026-08-15T08:38:42.000Z</time>
      </trkpt>
      <trkpt lat="22.859046" lon="109.826997">
        <ele>115.008495</ele>
        <time>2026-08-15T08:38:43.000Z</time>
      </trkpt>
      <trkpt lat="22.859006" lon="109.827024">
        <ele>115.065923</ele>
        <time>2026-08-15T08:38:44.000Z</time>
      </trkpt>
      <trkpt lat="22.858967" lon="109.827051">
        <ele>115.122321</ele>
        <time>2026-08-15T08:38:45.000Z</time>
      </trkpt>
      <trkpt lat="22.858927" lon="109.827076">
        <ele>115.178595</ele>
        <time>2026-08-15T08:38:46.000Z</time>
      </trkpt>
      <trkpt lat="22.858884" lon="109.827103">
        <ele>115.239160</ele>
        <time>2026-08-15T08:38:47.000Z</time>
      </trkpt>
      <trkpt lat="22.858841" lon="109.827130">
        <ele>115.299726</ele>
        <time>2026-08-15T08:38:48.000Z</time>
      </trkpt>
      <trkpt lat="22.858799" lon="109.827160">
        <ele>115.361025</ele>
        <time>2026-08-15T08:38:49.000Z</time>
      </trkpt>
      <trkpt lat="22.858756" lon="109.827190">
        <ele>115.423347</ele>
        <time>2026-08-15T08:38:50.000Z</time>
      </trkpt>
      <trkpt lat="22.858713" lon="109.827220">
        <ele>115.485668</ele>
        <time>2026-08-15T08:38:51.000Z</time>
      </trkpt>
      <trkpt lat="22.858669" lon="109.827248">
        <ele>115.547852</ele>
        <time>2026-08-15T08:38:52.000Z</time>
      </trkpt>
      <trkpt lat="22.858625" lon="109.827277">
        <ele>115.610612</ele>
        <time>2026-08-15T08:38:53.000Z</time>
      </trkpt>
      <trkpt lat="22.858581" lon="109.827308">
        <ele>115.674567</ele>
        <time>2026-08-15T08:38:54.000Z</time>
      </trkpt>
      <trkpt lat="22.858536" lon="109.827336">
        <ele>115.737806</ele>
        <time>2026-08-15T08:38:55.000Z</time>
      </trkpt>
      <trkpt lat="22.858492" lon="109.827363">
        <ele>115.799430</ele>
        <time>2026-08-15T08:38:56.000Z</time>
      </trkpt>
      <trkpt lat="22.858447" lon="109.827389">
        <ele>115.861582</ele>
        <time>2026-08-15T08:38:57.000Z</time>
      </trkpt>
      <trkpt lat="22.858404" lon="109.827417">
        <ele>115.922717</ele>
        <time>2026-08-15T08:38:58.000Z</time>
      </trkpt>
      <trkpt lat="22.858360" lon="109.827447">
        <ele>115.986068</ele>
        <time>2026-08-15T08:38:59.000Z</time>
      </trkpt>
      <trkpt lat="22.858317" lon="109.827478">
        <ele>116.049004</ele>
        <time>2026-08-15T08:39:00.000Z</time>
      </trkpt>
      <trkpt lat="22.858275" lon="109.827507">
        <ele>116.109693</ele>
        <time>2026-08-15T08:39:01.000Z</time>
      </trkpt>
      <trkpt lat="22.858233" lon="109.827537">
        <ele>116.170993</ele>
        <time>2026-08-15T08:39:02.000Z</time>
      </trkpt>
      <trkpt lat="22.858191" lon="109.827568">
        <ele>116.185877</ele>
        <time>2026-08-15T08:39:03.000Z</time>
      </trkpt>
      <trkpt lat="22.858148" lon="109.827596">
        <ele>116.177885</ele>
        <time>2026-08-15T08:39:04.000Z</time>
      </trkpt>
      <trkpt lat="22.858105" lon="109.827620">
        <ele>116.170178</ele>
        <time>2026-08-15T08:39:05.000Z</time>
      </trkpt>
      <trkpt lat="22.858062" lon="109.827646">
        <ele>116.162333</ele>
        <time>2026-08-15T08:39:06.000Z</time>
      </trkpt>
      <trkpt lat="22.858020" lon="109.827675">
        <ele>116.154400</ele>
        <time>2026-08-15T08:39:07.000Z</time>
      </trkpt>
      <trkpt lat="22.857980" lon="109.827704">
        <ele>116.146733</ele>
        <time>2026-08-15T08:39:08.000Z</time>
      </trkpt>
      <trkpt lat="22.857939" lon="109.827731">
        <ele>116.139090</ele>
        <time>2026-08-15T08:39:09.000Z</time>
      </trkpt>
      <trkpt lat="22.857898" lon="109.827758">
        <ele>116.131447</ele>
        <time>2026-08-15T08:39:10.000Z</time>
      </trkpt>
      <trkpt lat="22.857858" lon="109.827788">
        <ele>116.123697</ele>
        <time>2026-08-15T08:39:11.000Z</time>
      </trkpt>
      <trkpt lat="22.857818" lon="109.827818">
        <ele>116.115948</ele>
        <time>2026-08-15T08:39:12.000Z</time>
      </trkpt>
      <trkpt lat="22.857779" lon="109.827847">
        <ele>116.108414</ele>
        <time>2026-08-15T08:39:13.000Z</time>
      </trkpt>
      <trkpt lat="22.857742" lon="109.827876">
        <ele>116.101140</ele>
        <time>2026-08-15T08:39:14.000Z</time>
      </trkpt>
      <trkpt lat="22.857706" lon="109.827907">
        <ele>116.093815</ele>
        <time>2026-08-15T08:39:15.000Z</time>
      </trkpt>
      <trkpt lat="22.857670" lon="109.827939">
        <ele>116.086399</ele>
        <time>2026-08-15T08:39:16.000Z</time>
      </trkpt>
      <trkpt lat="22.857634" lon="109.827970">
        <ele>116.079075</ele>
        <time>2026-08-15T08:39:17.000Z</time>
      </trkpt>
      <trkpt lat="22.857596" lon="109.827997">
        <ele>116.071836</ele>
        <time>2026-08-15T08:39:18.000Z</time>
      </trkpt>
      <trkpt lat="22.857560" lon="109.828025">
        <ele>116.064777</ele>
        <time>2026-08-15T08:39:19.000Z</time>
      </trkpt>
      <trkpt lat="22.857524" lon="109.828052">
        <ele>116.057803</ele>
        <time>2026-08-15T08:39:20.000Z</time>
      </trkpt>
      <trkpt lat="22.857488" lon="109.828081">
        <ele>116.050658</ele>
        <time>2026-08-15T08:39:21.000Z</time>
      </trkpt>
      <trkpt lat="22.857452" lon="109.828110">
        <ele>116.043512</ele>
        <time>2026-08-15T08:39:22.000Z</time>
      </trkpt>
      <trkpt lat="22.857418" lon="109.828140">
        <ele>116.036529</ele>
        <time>2026-08-15T08:39:23.000Z</time>
      </trkpt>
      <trkpt lat="22.857386" lon="109.828173">
        <ele>116.029493</ele>
        <time>2026-08-15T08:39:24.000Z</time>
      </trkpt>
      <trkpt lat="22.857356" lon="109.828204">
        <ele>116.022891</ele>
        <time>2026-08-15T08:39:25.000Z</time>
      </trkpt>
      <trkpt lat="22.857328" lon="109.828237">
        <ele>116.016303</ele>
        <time>2026-08-15T08:39:26.000Z</time>
      </trkpt>
      <trkpt lat="22.857297" lon="109.828271">
        <ele>116.009279</ele>
        <time>2026-08-15T08:39:27.000Z</time>
      </trkpt>
      <trkpt lat="22.857266" lon="109.828304">
        <ele>116.002359</ele>
        <time>2026-08-15T08:39:28.000Z</time>
      </trkpt>
      <trkpt lat="22.857235" lon="109.828339">
        <ele>115.995229</ele>
        <time>2026-08-15T08:39:29.000Z</time>
      </trkpt>
      <trkpt lat="22.857206" lon="109.828376">
        <ele>115.988096</ele>
        <time>2026-08-15T08:39:30.000Z</time>
      </trkpt>
      <trkpt lat="22.857177" lon="109.828414">
        <ele>115.980850</ele>
        <time>2026-08-15T08:39:31.000Z</time>
      </trkpt>
      <trkpt lat="22.857147" lon="109.828455">
        <ele>115.973161</ele>
        <time>2026-08-15T08:39:32.000Z</time>
      </trkpt>
      <trkpt lat="22.857117" lon="109.828496">
        <ele>115.965472</ele>
        <time>2026-08-15T08:39:33.000Z</time>
      </trkpt>
      <trkpt lat="22.857087" lon="109.828538">
        <ele>115.957668</ele>
        <time>2026-08-15T08:39:34.000Z</time>
      </trkpt>
      <trkpt lat="22.857058" lon="109.828581">
        <ele>115.949843</ele>
        <time>2026-08-15T08:39:35.000Z</time>
      </trkpt>
      <trkpt lat="22.857026" lon="109.828625">
        <ele>115.941611</ele>
        <time>2026-08-15T08:39:36.000Z</time>
      </trkpt>
      <trkpt lat="22.856994" lon="109.828671">
        <ele>115.933147</ele>
        <time>2026-08-15T08:39:37.000Z</time>
      </trkpt>
      <trkpt lat="22.856960" lon="109.828718">
        <ele>115.924371</ele>
        <time>2026-08-15T08:39:38.000Z</time>
      </trkpt>
      <trkpt lat="22.856924" lon="109.828764">
        <ele>115.915508</ele>
        <time>2026-08-15T08:39:39.000Z</time>
      </trkpt>
      <trkpt lat="22.856885" lon="109.828813">
        <ele>115.905999</ele>
        <time>2026-08-15T08:39:40.000Z</time>
      </trkpt>
      <trkpt lat="22.856848" lon="109.828861">
        <ele>115.776031</ele>
        <time>2026-08-15T08:39:41.000Z</time>
      </trkpt>
      <trkpt lat="22.856810" lon="109.828912">
        <ele>115.618233</ele>
        <time>2026-08-15T08:39:42.000Z</time>
      </trkpt>
      <trkpt lat="22.856773" lon="109.828966">
        <ele>115.456330</ele>
        <time>2026-08-15T08:39:43.000Z</time>
      </trkpt>
      <trkpt lat="22.856735" lon="109.829022">
        <ele>115.289006</ele>
        <time>2026-08-15T08:39:44.000Z</time>
      </trkpt>
      <trkpt lat="22.856694" lon="109.829080">
        <ele>115.113129</ele>
        <time>2026-08-15T08:39:45.000Z</time>
      </trkpt>
      <trkpt lat="22.856653" lon="109.829138">
        <ele>114.937252</ele>
        <time>2026-08-15T08:39:46.000Z</time>
      </trkpt>
      <trkpt lat="22.856613" lon="109.829194">
        <ele>114.766780</ele>
        <time>2026-08-15T08:39:47.000Z</time>
      </trkpt>
      <trkpt lat="22.856572" lon="109.829249">
        <ele>114.596573</ele>
        <time>2026-08-15T08:39:48.000Z</time>
      </trkpt>
      <trkpt lat="22.856530" lon="109.829310">
        <ele>114.413365</ele>
        <time>2026-08-15T08:39:49.000Z</time>
      </trkpt>
      <trkpt lat="22.856489" lon="109.829368">
        <ele>114.237487</ele>
        <time>2026-08-15T08:39:50.000Z</time>
      </trkpt>
      <trkpt lat="22.856447" lon="109.829424">
        <ele>114.063767</ele>
        <time>2026-08-15T08:39:51.000Z</time>
      </trkpt>
      <trkpt lat="22.856405" lon="109.829482">
        <ele>113.886288</ele>
        <time>2026-08-15T08:39:52.000Z</time>
      </trkpt>
      <trkpt lat="22.856363" lon="109.829540">
        <ele>113.708809</ele>
        <time>2026-08-15T08:39:53.000Z</time>
      </trkpt>
      <trkpt lat="22.856321" lon="109.829601">
        <ele>113.525601</ele>
        <time>2026-08-15T08:39:54.000Z</time>
      </trkpt>
      <trkpt lat="22.856281" lon="109.829663">
        <ele>113.343504</ele>
        <time>2026-08-15T08:39:55.000Z</time>
      </trkpt>
      <trkpt lat="22.856239" lon="109.829724">
        <ele>113.160296</ele>
        <time>2026-08-15T08:39:56.000Z</time>
      </trkpt>
      <trkpt lat="22.856196" lon="109.829783">
        <ele>112.979311</ele>
        <time>2026-08-15T08:39:57.000Z</time>
      </trkpt>
      <trkpt lat="22.856153" lon="109.829841">
        <ele>112.800207</ele>
        <time>2026-08-15T08:39:58.000Z</time>
      </trkpt>
      <trkpt lat="22.856108" lon="109.829898">
        <ele>112.619618</ele>
        <time>2026-08-15T08:39:59.000Z</time>
      </trkpt>
      <trkpt lat="22.856063" lon="109.829956">
        <ele>112.437195</ele>
        <time>2026-08-15T08:40:00.000Z</time>
      </trkpt>
      <trkpt lat="22.856018" lon="109.830014">
        <ele>112.254772</ele>
        <time>2026-08-15T08:40:01.000Z</time>
      </trkpt>
      <trkpt lat="22.855972" lon="109.830072">
        <ele>112.070657</ele>
        <time>2026-08-15T08:40:02.000Z</time>
      </trkpt>
      <trkpt lat="22.855922" lon="109.830130">
        <ele>111.879564</ele>
        <time>2026-08-15T08:40:03.000Z</time>
      </trkpt>
      <trkpt lat="22.855870" lon="109.830194">
        <ele>111.674273</ele>
        <time>2026-08-15T08:40:04.000Z</time>
      </trkpt>
      <trkpt lat="22.855817" lon="109.830252">
        <ele>111.477746</ele>
        <time>2026-08-15T08:40:05.000Z</time>
      </trkpt>
      <trkpt lat="22.855763" lon="109.830306">
        <ele>111.286020</ele>
        <time>2026-08-15T08:40:06.000Z</time>
      </trkpt>
      <trkpt lat="22.855703" lon="109.830356">
        <ele>111.122451</ele>
        <time>2026-08-15T08:40:07.000Z</time>
      </trkpt>
      <trkpt lat="22.855643" lon="109.830407">
        <ele>110.979786</ele>
        <time>2026-08-15T08:40:08.000Z</time>
      </trkpt>
      <trkpt lat="22.855585" lon="109.830456">
        <ele>110.842194</ele>
        <time>2026-08-15T08:40:09.000Z</time>
      </trkpt>
      <trkpt lat="22.855524" lon="109.830506">
        <ele>110.699096</ele>
        <time>2026-08-15T08:40:10.000Z</time>
      </trkpt>
      <trkpt lat="22.855462" lon="109.830561">
        <ele>110.549196</ele>
        <time>2026-08-15T08:40:11.000Z</time>
      </trkpt>
      <trkpt lat="22.855399" lon="109.830613">
        <ele>110.401030</ele>
        <time>2026-08-15T08:40:12.000Z</time>
      </trkpt>
      <trkpt lat="22.855338" lon="109.830665">
        <ele>110.255827</ele>
        <time>2026-08-15T08:40:13.000Z</time>
      </trkpt>
      <trkpt lat="22.855276" lon="109.830717">
        <ele>110.109147</ele>
        <time>2026-08-15T08:40:14.000Z</time>
      </trkpt>
      <trkpt lat="22.855212" lon="109.830767">
        <ele>109.961529</ele>
        <time>2026-08-15T08:40:15.000Z</time>
      </trkpt>
      <trkpt lat="22.855147" lon="109.830817">
        <ele>109.812388</ele>
        <time>2026-08-15T08:40:16.000Z</time>
      </trkpt>
      <trkpt lat="22.855082" lon="109.830866">
        <ele>109.664237</ele>
        <time>2026-08-15T08:40:17.000Z</time>
      </trkpt>
      <trkpt lat="22.855020" lon="109.830914">
        <ele>109.521672</ele>
        <time>2026-08-15T08:40:18.000Z</time>
      </trkpt>
      <trkpt lat="22.854957" lon="109.830964">
        <ele>109.375569</ele>
        <time>2026-08-15T08:40:19.000Z</time>
      </trkpt>
      <trkpt lat="22.854896" lon="109.831014">
        <ele>109.232471</ele>
        <time>2026-08-15T08:40:20.000Z</time>
      </trkpt>
      <trkpt lat="22.854835" lon="109.831063">
        <ele>109.090406</ele>
        <time>2026-08-15T08:40:21.000Z</time>
      </trkpt>
      <trkpt lat="22.854774" lon="109.831112">
        <ele>108.948341</ele>
        <time>2026-08-15T08:40:22.000Z</time>
      </trkpt>
      <trkpt lat="22.854713" lon="109.831160">
        <ele>108.807295</ele>
        <time>2026-08-15T08:40:23.000Z</time>
      </trkpt>
      <trkpt lat="22.854653" lon="109.831210">
        <ele>108.665686</ele>
        <time>2026-08-15T08:40:24.000Z</time>
      </trkpt>
      <trkpt lat="22.854593" lon="109.831259">
        <ele>108.525121</ele>
        <time>2026-08-15T08:40:25.000Z</time>
      </trkpt>
      <trkpt lat="22.854534" lon="109.831308">
        <ele>108.386047</ele>
        <time>2026-08-15T08:40:26.000Z</time>
      </trkpt>
      <trkpt lat="22.854477" lon="109.831355">
        <ele>108.252042</ele>
        <time>2026-08-15T08:40:27.000Z</time>
      </trkpt>
      <trkpt lat="22.854420" lon="109.831400">
        <ele>108.120095</ele>
        <time>2026-08-15T08:40:28.000Z</time>
      </trkpt>
      <trkpt lat="22.854364" lon="109.831445">
        <ele>107.989658</ele>
        <time>2026-08-15T08:40:29.000Z</time>
      </trkpt>
      <trkpt lat="22.854309" lon="109.831487">
        <ele>107.863767</ele>
        <time>2026-08-15T08:40:30.000Z</time>
      </trkpt>
      <trkpt lat="22.854255" lon="109.831530">
        <ele>107.873487</ele>
        <time>2026-08-15T08:40:31.000Z</time>
      </trkpt>
      <trkpt lat="22.854202" lon="109.831574">
        <ele>107.912158</ele>
        <time>2026-08-15T08:40:32.000Z</time>
      </trkpt>
      <trkpt lat="22.854149" lon="109.831615">
        <ele>107.949878</ele>
        <time>2026-08-15T08:40:33.000Z</time>
      </trkpt>
      <trkpt lat="22.854097" lon="109.831655">
        <ele>107.986815</ele>
        <time>2026-08-15T08:40:34.000Z</time>
      </trkpt>
      <trkpt lat="22.854047" lon="109.831696">
        <ele>108.023133</ele>
        <time>2026-08-15T08:40:35.000Z</time>
      </trkpt>
      <trkpt lat="22.853999" lon="109.831734">
        <ele>108.057565</ele>
        <time>2026-08-15T08:40:36.000Z</time>
      </trkpt>
      <trkpt lat="22.853952" lon="109.831772">
        <ele>108.091531</ele>
        <time>2026-08-15T08:40:37.000Z</time>
      </trkpt>
      <trkpt lat="22.853906" lon="109.831809">
        <ele>108.124713</ele>
        <time>2026-08-15T08:40:38.000Z</time>
      </trkpt>
      <trkpt lat="22.853861" lon="109.831845">
        <ele>108.157112</ele>
        <time>2026-08-15T08:40:39.000Z</time>
      </trkpt>
      <trkpt lat="22.853817" lon="109.831881">
        <ele>108.189046</ele>
        <time>2026-08-15T08:40:40.000Z</time>
      </trkpt>
      <trkpt lat="22.853773" lon="109.831918">
        <ele>108.221304</ele>
        <time>2026-08-15T08:40:41.000Z</time>
      </trkpt>
      <trkpt lat="22.853729" lon="109.831955">
        <ele>108.253562</ele>
        <time>2026-08-15T08:40:42.000Z</time>
      </trkpt>
      <trkpt lat="22.853687" lon="109.831995">
        <ele>108.285946</ele>
        <time>2026-08-15T08:40:43.000Z</time>
      </trkpt>
      <trkpt lat="22.853645" lon="109.832035">
        <ele>108.318330</ele>
        <time>2026-08-15T08:40:44.000Z</time>
      </trkpt>
      <trkpt lat="22.853605" lon="109.832074">
        <ele>108.349492</ele>
        <time>2026-08-15T08:40:45.000Z</time>
      </trkpt>
      <trkpt lat="22.853566" lon="109.832112">
        <ele>108.379867</ele>
        <time>2026-08-15T08:40:46.000Z</time>
      </trkpt>
      <trkpt lat="22.853527" lon="109.832150">
        <ele>108.410241</ele>
        <time>2026-08-15T08:40:47.000Z</time>
      </trkpt>
      <trkpt lat="22.853487" lon="109.832189">
        <ele>108.441404</ele>
        <time>2026-08-15T08:40:48.000Z</time>
      </trkpt>
      <trkpt lat="22.853446" lon="109.832228">
        <ele>108.473000</ele>
        <time>2026-08-15T08:40:49.000Z</time>
      </trkpt>
      <trkpt lat="22.853406" lon="109.832266">
        <ele>108.503808</ele>
        <time>2026-08-15T08:40:50.000Z</time>
      </trkpt>
      <trkpt lat="22.853367" lon="109.832304">
        <ele>108.534183</ele>
        <time>2026-08-15T08:40:51.000Z</time>
      </trkpt>
      <trkpt lat="22.853329" lon="109.832345">
        <ele>108.565236</ele>
        <time>2026-08-15T08:40:52.000Z</time>
      </trkpt>
      <trkpt lat="22.853292" lon="109.832386">
        <ele>108.595882</ele>
        <time>2026-08-15T08:40:53.000Z</time>
      </trkpt>
      <trkpt lat="22.853256" lon="109.832430">
        <ele>108.627304</ele>
        <time>2026-08-15T08:40:54.000Z</time>
      </trkpt>
      <trkpt lat="22.853220" lon="109.832473">
        <ele>108.658329</ele>
        <time>2026-08-15T08:40:55.000Z</time>
      </trkpt>
      <trkpt lat="22.853184" lon="109.832516">
        <ele>108.689354</ele>
        <time>2026-08-15T08:40:56.000Z</time>
      </trkpt>
      <trkpt lat="22.853146" lon="109.832559">
        <ele>108.721170</ele>
        <time>2026-08-15T08:40:57.000Z</time>
      </trkpt>
      <trkpt lat="22.853107" lon="109.832603">
        <ele>108.753773</ele>
        <time>2026-08-15T08:40:58.000Z</time>
      </trkpt>
      <trkpt lat="22.853068" lon="109.832649">
        <ele>108.787153</ele>
        <time>2026-08-15T08:40:59.000Z</time>
      </trkpt>
      <trkpt lat="22.853028" lon="109.832695">
        <ele>108.820929</ele>
        <time>2026-08-15T08:41:00.000Z</time>
      </trkpt>
      <trkpt lat="22.852988" lon="109.832739">
        <ele>108.853936</ele>
        <time>2026-08-15T08:41:01.000Z</time>
      </trkpt>
      <trkpt lat="22.852949" lon="109.832784">
        <ele>108.884638</ele>
        <time>2026-08-15T08:41:02.000Z</time>
      </trkpt>
      <trkpt lat="22.852911" lon="109.832830">
        <ele>108.892755</ele>
        <time>2026-08-15T08:41:03.000Z</time>
      </trkpt>
      <trkpt lat="22.852874" lon="109.832876">
        <ele>108.900778</ele>
        <time>2026-08-15T08:41:04.000Z</time>
      </trkpt>
      <trkpt lat="22.852836" lon="109.832921">
        <ele>108.908797</ele>
        <time>2026-08-15T08:41:05.000Z</time>
      </trkpt>
      <trkpt lat="22.852797" lon="109.832965">
        <ele>108.916819</ele>
        <time>2026-08-15T08:41:06.000Z</time>
      </trkpt>
      <trkpt lat="22.852758" lon="109.833009">
        <ele>108.924840</ele>
        <time>2026-08-15T08:41:07.000Z</time>
      </trkpt>
      <trkpt lat="22.852721" lon="109.833056">
        <ele>108.932962</ele>
        <time>2026-08-15T08:41:08.000Z</time>
      </trkpt>
      <trkpt lat="22.852684" lon="109.833103">
        <ele>108.941084</ele>
        <time>2026-08-15T08:41:09.000Z</time>
      </trkpt>
      <trkpt lat="22.852647" lon="109.833149">
        <ele>108.949107</ele>
        <time>2026-08-15T08:41:10.000Z</time>
      </trkpt>
      <trkpt lat="22.852610" lon="109.833193">
        <ele>108.956933</ele>
        <time>2026-08-15T08:41:11.000Z</time>
      </trkpt>
      <trkpt lat="22.852572" lon="109.833239">
        <ele>108.965050</ele>
        <time>2026-08-15T08:41:12.000Z</time>
      </trkpt>
      <trkpt lat="22.852534" lon="109.833285">
        <ele>108.973167</ele>
        <time>2026-08-15T08:41:13.000Z</time>
      </trkpt>
      <trkpt lat="22.852496" lon="109.833330">
        <ele>108.981187</ele>
        <time>2026-08-15T08:41:14.000Z</time>
      </trkpt>
      <trkpt lat="22.852457" lon="109.833374">
        <ele>108.989208</ele>
        <time>2026-08-15T08:41:15.000Z</time>
      </trkpt>
      <trkpt lat="22.852417" lon="109.833419">
        <ele>108.997423</ele>
        <time>2026-08-15T08:41:16.000Z</time>
      </trkpt>
      <trkpt lat="22.852377" lon="109.833463">
        <ele>109.005544</ele>
        <time>2026-08-15T08:41:17.000Z</time>
      </trkpt>
      <trkpt lat="22.852338" lon="109.833510">
        <ele>109.013854</ele>
        <time>2026-08-15T08:41:18.000Z</time>
      </trkpt>
      <trkpt lat="22.852300" lon="109.833556">
        <ele>109.021971</ele>
        <time>2026-08-15T08:41:19.000Z</time>
      </trkpt>
      <trkpt lat="22.852264" lon="109.833602">
        <ele>109.029901</ele>
        <time>2026-08-15T08:41:20.000Z</time>
      </trkpt>
      <trkpt lat="22.852228" lon="109.833646">
        <ele>109.037632</ele>
        <time>2026-08-15T08:41:21.000Z</time>
      </trkpt>
      <trkpt lat="22.852191" lon="109.833693">
        <ele>109.045754</ele>
        <time>2026-08-15T08:41:22.000Z</time>
      </trkpt>
      <trkpt lat="22.852155" lon="109.833739">
        <ele>109.053683</ele>
        <time>2026-08-15T08:41:23.000Z</time>
      </trkpt>
      <trkpt lat="22.852118" lon="109.833782">
        <ele>109.061413</ele>
        <time>2026-08-15T08:41:24.000Z</time>
      </trkpt>
      <trkpt lat="22.852082" lon="109.833825">
        <ele>109.069046</ele>
        <time>2026-08-15T08:41:25.000Z</time>
      </trkpt>
      <trkpt lat="22.852047" lon="109.833867">
        <ele>109.076487</ele>
        <time>2026-08-15T08:41:26.000Z</time>
      </trkpt>
      <trkpt lat="22.852011" lon="109.833909">
        <ele>109.084023</ele>
        <time>2026-08-15T08:41:27.000Z</time>
      </trkpt>
      <trkpt lat="22.851976" lon="109.833951">
        <ele>109.091463</ele>
        <time>2026-08-15T08:41:28.000Z</time>
      </trkpt>
      <trkpt lat="22.851940" lon="109.833992">
        <ele>109.098904</ele>
        <time>2026-08-15T08:41:29.000Z</time>
      </trkpt>
      <trkpt lat="22.851904" lon="109.834034">
        <ele>109.106441</ele>
        <time>2026-08-15T08:41:30.000Z</time>
      </trkpt>
      <trkpt lat="22.851869" lon="109.834076">
        <ele>109.113881</ele>
        <time>2026-08-15T08:41:31.000Z</time>
      </trkpt>
      <trkpt lat="22.851834" lon="109.834116">
        <ele>109.121128</ele>
        <time>2026-08-15T08:41:32.000Z</time>
      </trkpt>
      <trkpt lat="22.851799" lon="109.834157">
        <ele>109.128472</ele>
        <time>2026-08-15T08:41:33.000Z</time>
      </trkpt>
      <trkpt lat="22.851765" lon="109.834198">
        <ele>109.135719</ele>
        <time>2026-08-15T08:41:34.000Z</time>
      </trkpt>
      <trkpt lat="22.851731" lon="109.834238">
        <ele>109.157914</ele>
        <time>2026-08-15T08:41:35.000Z</time>
      </trkpt>
      <trkpt lat="22.851696" lon="109.834279">
        <ele>109.209050</ele>
        <time>2026-08-15T08:41:36.000Z</time>
      </trkpt>
      <trkpt lat="22.851662" lon="109.834320">
        <ele>109.259518</ele>
        <time>2026-08-15T08:41:37.000Z</time>
      </trkpt>
      <trkpt lat="22.851628" lon="109.834360">
        <ele>109.309308</ele>
        <time>2026-08-15T08:41:38.000Z</time>
      </trkpt>
      <trkpt lat="22.851594" lon="109.834398">
        <ele>109.357770</ele>
        <time>2026-08-15T08:41:39.000Z</time>
      </trkpt>
      <trkpt lat="22.851561" lon="109.834436">
        <ele>109.405545</ele>
        <time>2026-08-15T08:41:40.000Z</time>
      </trkpt>
      <trkpt lat="22.851530" lon="109.834474">
        <ele>109.451981</ele>
        <time>2026-08-15T08:41:41.000Z</time>
      </trkpt>
      <trkpt lat="22.851498" lon="109.834510">
        <ele>109.497746</ele>
        <time>2026-08-15T08:41:42.000Z</time>
      </trkpt>
      <trkpt lat="22.851467" lon="109.834546">
        <ele>109.542828</ele>
        <time>2026-08-15T08:41:43.000Z</time>
      </trkpt>
      <trkpt lat="22.851436" lon="109.834582">
        <ele>109.587910</ele>
        <time>2026-08-15T08:41:44.000Z</time>
      </trkpt>
      <trkpt lat="22.851404" lon="109.834617">
        <ele>109.633022</ele>
        <time>2026-08-15T08:41:45.000Z</time>
      </trkpt>
      <trkpt lat="22.851373" lon="109.834653">
        <ele>109.678104</ele>
        <time>2026-08-15T08:41:46.000Z</time>
      </trkpt>
      <trkpt lat="22.851342" lon="109.834689">
        <ele>109.723186</ele>
        <time>2026-08-15T08:41:47.000Z</time>
      </trkpt>
      <trkpt lat="22.851310" lon="109.834725">
        <ele>109.768951</ele>
        <time>2026-08-15T08:41:48.000Z</time>
      </trkpt>
      <trkpt lat="22.851277" lon="109.834760">
        <ele>109.814768</ele>
        <time>2026-08-15T08:41:49.000Z</time>
      </trkpt>
      <trkpt lat="22.851247" lon="109.834793">
        <ele>109.857182</ele>
        <time>2026-08-15T08:41:50.000Z</time>
      </trkpt>
      <trkpt lat="22.851216" lon="109.834828">
        <ele>109.901600</ele>
        <time>2026-08-15T08:41:51.000Z</time>
      </trkpt>
      <trkpt lat="22.851185" lon="109.834864">
        <ele>109.946682</ele>
        <time>2026-08-15T08:41:52.000Z</time>
      </trkpt>
      <trkpt lat="22.851155" lon="109.834901">
        <ele>109.991774</ele>
        <time>2026-08-15T08:41:53.000Z</time>
      </trkpt>
      <trkpt lat="22.851124" lon="109.834937">
        <ele>110.036856</ele>
        <time>2026-08-15T08:41:54.000Z</time>
      </trkpt>
      <trkpt lat="22.851094" lon="109.834975">
        <ele>110.082640</ele>
        <time>2026-08-15T08:41:55.000Z</time>
      </trkpt>
      <trkpt lat="22.851063" lon="109.835013">
        <ele>110.129076</ele>
        <time>2026-08-15T08:41:56.000Z</time>
      </trkpt>
      <trkpt lat="22.851033" lon="109.835052">
        <ele>110.175559</ele>
        <time>2026-08-15T08:41:57.000Z</time>
      </trkpt>
      <trkpt lat="22.851002" lon="109.835090">
        <ele>110.221994</ele>
        <time>2026-08-15T08:41:58.000Z</time>
      </trkpt>
      <trkpt lat="22.850971" lon="109.835128">
        <ele>110.268430</ele>
        <time>2026-08-15T08:41:59.000Z</time>
      </trkpt>
      <trkpt lat="22.850940" lon="109.835166">
        <ele>110.314866</ele>
        <time>2026-08-15T08:42:00.000Z</time>
      </trkpt>
      <trkpt lat="22.850909" lon="109.835204">
        <ele>110.361302</ele>
        <time>2026-08-15T08:42:01.000Z</time>
      </trkpt>
      <trkpt lat="22.850880" lon="109.835241">
        <ele>110.405745</ele>
        <time>2026-08-15T08:42:02.000Z</time>
      </trkpt>
      <trkpt lat="22.850851" lon="109.835278">
        <ele>110.450189</ele>
        <time>2026-08-15T08:42:03.000Z</time>
      </trkpt>
      <trkpt lat="22.850820" lon="109.835314">
        <ele>110.495271</ele>
        <time>2026-08-15T08:42:04.000Z</time>
      </trkpt>
      <trkpt lat="22.850788" lon="109.835351">
        <ele>110.541699</ele>
        <time>2026-08-15T08:42:05.000Z</time>
      </trkpt>
      <trkpt lat="22.850756" lon="109.835388">
        <ele>110.588128</ele>
        <time>2026-08-15T08:42:06.000Z</time>
      </trkpt>
      <trkpt lat="22.850725" lon="109.835425">
        <ele>110.633883</ele>
        <time>2026-08-15T08:42:07.000Z</time>
      </trkpt>
      <trkpt lat="22.850694" lon="109.835462">
        <ele>110.679638</ele>
        <time>2026-08-15T08:42:08.000Z</time>
      </trkpt>
      <trkpt lat="22.850663" lon="109.835500">
        <ele>110.726074</ele>
        <time>2026-08-15T08:42:09.000Z</time>
      </trkpt>
      <trkpt lat="22.850632" lon="109.835536">
        <ele>110.771156</ele>
        <time>2026-08-15T08:42:10.000Z</time>
      </trkpt>
      <trkpt lat="22.850601" lon="109.835572">
        <ele>110.816238</ele>
        <time>2026-08-15T08:42:11.000Z</time>
      </trkpt>
      <trkpt lat="22.850570" lon="109.835609">
        <ele>110.861993</ele>
        <time>2026-08-15T08:42:12.000Z</time>
      </trkpt>
      <trkpt lat="22.850538" lon="109.835646">
        <ele>110.908421</ele>
        <time>2026-08-15T08:42:13.000Z</time>
      </trkpt>
      <trkpt lat="22.850507" lon="109.835682">
        <ele>110.931286</ele>
        <time>2026-08-15T08:42:14.000Z</time>
      </trkpt>
      <trkpt lat="22.850477" lon="109.835717">
        <ele>110.939406</ele>
        <time>2026-08-15T08:42:15.000Z</time>
      </trkpt>
      <trkpt lat="22.850447" lon="109.835752">
        <ele>110.947526</ele>
        <time>2026-08-15T08:42:16.000Z</time>
      </trkpt>
      <trkpt lat="22.850418" lon="109.835787">
        <ele>110.955522</ele>
        <time>2026-08-15T08:42:17.000Z</time>
      </trkpt>
      <trkpt lat="22.850387" lon="109.835823">
        <ele>110.963893</ele>
        <time>2026-08-15T08:42:18.000Z</time>
      </trkpt>
      <trkpt lat="22.850359" lon="109.835859">
        <ele>110.971896</ele>
        <time>2026-08-15T08:42:19.000Z</time>
      </trkpt>
      <trkpt lat="22.850329" lon="109.835894">
        <ele>110.980016</ele>
        <time>2026-08-15T08:42:20.000Z</time>
      </trkpt>
      <trkpt lat="22.850298" lon="109.835929">
        <ele>110.988263</ele>
        <time>2026-08-15T08:42:21.000Z</time>
      </trkpt>
      <trkpt lat="22.850267" lon="109.835964">
        <ele>110.996510</ele>
        <time>2026-08-15T08:42:22.000Z</time>
      </trkpt>
      <trkpt lat="22.850237" lon="109.836001">
        <ele>111.004883</ele>
        <time>2026-08-15T08:42:23.000Z</time>
      </trkpt>
      <trkpt lat="22.850207" lon="109.836038">
        <ele>111.013255</ele>
        <time>2026-08-15T08:42:24.000Z</time>
      </trkpt>
      <trkpt lat="22.850176" lon="109.836075">
        <ele>111.021751</ele>
        <time>2026-08-15T08:42:25.000Z</time>
      </trkpt>
      <trkpt lat="22.850145" lon="109.836110">
        <ele>111.029998</ele>
        <time>2026-08-15T08:42:26.000Z</time>
      </trkpt>
      <trkpt lat="22.850115" lon="109.836146">
        <ele>111.038243</ele>
        <time>2026-08-15T08:42:27.000Z</time>
      </trkpt>
      <trkpt lat="22.850085" lon="109.836182">
        <ele>111.046489</ele>
        <time>2026-08-15T08:42:28.000Z</time>
      </trkpt>
      <trkpt lat="22.850055" lon="109.836217">
        <ele>111.054609</ele>
        <time>2026-08-15T08:42:29.000Z</time>
      </trkpt>
      <trkpt lat="22.850024" lon="109.836253">
        <ele>111.062980</ele>
        <time>2026-08-15T08:42:30.000Z</time>
      </trkpt>
      <trkpt lat="22.849994" lon="109.836290">
        <ele>111.071352</ele>
        <time>2026-08-15T08:42:31.000Z</time>
      </trkpt>
      <trkpt lat="22.849965" lon="109.836326">
        <ele>111.079475</ele>
        <time>2026-08-15T08:42:32.000Z</time>
      </trkpt>
      <trkpt lat="22.849935" lon="109.836362">
        <ele>111.087721</ele>
        <time>2026-08-15T08:42:33.000Z</time>
      </trkpt>
      <trkpt lat="22.849904" lon="109.836397">
        <ele>111.095968</ele>
        <time>2026-08-15T08:42:34.000Z</time>
      </trkpt>
      <trkpt lat="22.849873" lon="109.836432">
        <ele>111.104215</ele>
        <time>2026-08-15T08:42:35.000Z</time>
      </trkpt>
      <trkpt lat="22.849841" lon="109.836468">
        <ele>111.112712</ele>
        <time>2026-08-15T08:42:36.000Z</time>
      </trkpt>
      <trkpt lat="22.849811" lon="109.836505">
        <ele>111.121085</ele>
        <time>2026-08-15T08:42:37.000Z</time>
      </trkpt>
      <trkpt lat="22.849780" lon="109.836541">
        <ele>111.129455</ele>
        <time>2026-08-15T08:42:38.000Z</time>
      </trkpt>
      <trkpt lat="22.849749" lon="109.836578">
        <ele>111.137951</ele>
        <time>2026-08-15T08:42:39.000Z</time>
      </trkpt>
      <trkpt lat="22.849719" lon="109.836615">
        <ele>111.146323</ele>
        <time>2026-08-15T08:42:40.000Z</time>
      </trkpt>
      <trkpt lat="22.849687" lon="109.836650">
        <ele>111.154699</ele>
        <time>2026-08-15T08:42:41.000Z</time>
      </trkpt>
      <trkpt lat="22.849656" lon="109.836688">
        <ele>111.163321</ele>
        <time>2026-08-15T08:42:42.000Z</time>
      </trkpt>
      <trkpt lat="22.849625" lon="109.836726">
        <ele>111.171942</ele>
        <time>2026-08-15T08:42:43.000Z</time>
      </trkpt>
      <trkpt lat="22.849594" lon="109.836764">
        <ele>111.180564</ele>
        <time>2026-08-15T08:42:44.000Z</time>
      </trkpt>
      <trkpt lat="22.849563" lon="109.836805">
        <ele>111.189574</ele>
        <time>2026-08-15T08:42:45.000Z</time>
      </trkpt>
      <trkpt lat="22.849530" lon="109.836843">
        <ele>111.198444</ele>
        <time>2026-08-15T08:42:46.000Z</time>
      </trkpt>
      <trkpt lat="22.849497" lon="109.836882">
        <ele>111.207439</ele>
        <time>2026-08-15T08:42:47.000Z</time>
      </trkpt>
      <trkpt lat="22.849465" lon="109.836922">
        <ele>111.216438</ele>
        <time>2026-08-15T08:42:48.000Z</time>
      </trkpt>
      <trkpt lat="22.849431" lon="109.836961">
        <ele>111.225559</ele>
        <time>2026-08-15T08:42:49.000Z</time>
      </trkpt>
      <trkpt lat="22.849396" lon="109.837000">
        <ele>111.234807</ele>
        <time>2026-08-15T08:42:50.000Z</time>
      </trkpt>
      <trkpt lat="22.849361" lon="109.837040">
        <ele>111.244178</ele>
        <time>2026-08-15T08:42:51.000Z</time>
      </trkpt>
      <trkpt lat="22.849326" lon="109.837081">
        <ele>111.253672</ele>
        <time>2026-08-15T08:42:52.000Z</time>
      </trkpt>
      <trkpt lat="22.849290" lon="109.837120">
        <ele>111.274191</ele>
        <time>2026-08-15T08:42:53.000Z</time>
      </trkpt>
      <trkpt lat="22.849254" lon="109.837160">
        <ele>111.303856</ele>
        <time>2026-08-15T08:42:54.000Z</time>
      </trkpt>
      <trkpt lat="22.849218" lon="109.837199">
        <ele>111.333144</ele>
        <time>2026-08-15T08:42:55.000Z</time>
      </trkpt>
      <trkpt lat="22.849181" lon="109.837238">
        <ele>111.362843</ele>
        <time>2026-08-15T08:42:56.000Z</time>
      </trkpt>
      <trkpt lat="22.849144" lon="109.837277">
        <ele>111.392541</ele>
        <time>2026-08-15T08:42:57.000Z</time>
      </trkpt>
      <trkpt lat="22.849106" lon="109.837317">
        <ele>111.423022</ele>
        <time>2026-08-15T08:42:58.000Z</time>
      </trkpt>
      <trkpt lat="22.849066" lon="109.837356">
        <ele>111.453983</ele>
        <time>2026-08-15T08:42:59.000Z</time>
      </trkpt>
      <trkpt lat="22.849026" lon="109.837392">
        <ele>111.483903</ele>
        <time>2026-08-15T08:43:00.000Z</time>
      </trkpt>
      <trkpt lat="22.848986" lon="109.837426">
        <ele>111.513158</ele>
        <time>2026-08-15T08:43:01.000Z</time>
      </trkpt>
      <trkpt lat="22.848945" lon="109.837461">
        <ele>111.543192</ele>
        <time>2026-08-15T08:43:02.000Z</time>
      </trkpt>
      <trkpt lat="22.848903" lon="109.837496">
        <ele>111.573682</ele>
        <time>2026-08-15T08:43:03.000Z</time>
      </trkpt>
      <trkpt lat="22.848860" lon="109.837531">
        <ele>111.604630</ele>
        <time>2026-08-15T08:43:04.000Z</time>
      </trkpt>
      <trkpt lat="22.848817" lon="109.837564">
        <ele>111.634953</ele>
        <time>2026-08-15T08:43:05.000Z</time>
      </trkpt>
      <trkpt lat="22.848773" lon="109.837598">
        <ele>111.666053</ele>
        <time>2026-08-15T08:43:06.000Z</time>
      </trkpt>
      <trkpt lat="22.848729" lon="109.837632">
        <ele>111.697153</ele>
        <time>2026-08-15T08:43:07.000Z</time>
      </trkpt>
      <trkpt lat="22.848685" lon="109.837664">
        <ele>111.727649</ele>
        <time>2026-08-15T08:43:08.000Z</time>
      </trkpt>
      <trkpt lat="22.848641" lon="109.837697">
        <ele>111.758445</ele>
        <time>2026-08-15T08:43:09.000Z</time>
      </trkpt>
      <trkpt lat="22.848596" lon="109.837728">
        <ele>111.789133</ele>
        <time>2026-08-15T08:43:10.000Z</time>
      </trkpt>
      <trkpt lat="22.848552" lon="109.837759">
        <ele>111.819338</ele>
        <time>2026-08-15T08:43:11.000Z</time>
      </trkpt>
      <trkpt lat="22.848507" lon="109.837789">
        <ele>111.849746</ele>
        <time>2026-08-15T08:43:12.000Z</time>
      </trkpt>
      <trkpt lat="22.848462" lon="109.837819">
        <ele>111.880153</ele>
        <time>2026-08-15T08:43:13.000Z</time>
      </trkpt>
      <trkpt lat="22.848417" lon="109.837850">
        <ele>111.910842</ele>
        <time>2026-08-15T08:43:14.000Z</time>
      </trkpt>
      <trkpt lat="22.848373" lon="109.837879">
        <ele>111.940482</ele>
        <time>2026-08-15T08:43:15.000Z</time>
      </trkpt>
      <trkpt lat="22.848328" lon="109.837908">
        <ele>111.970616</ele>
        <time>2026-08-15T08:43:16.000Z</time>
      </trkpt>
      <trkpt lat="22.848284" lon="109.837936">
        <ele>111.999984</ele>
        <time>2026-08-15T08:43:17.000Z</time>
      </trkpt>
      <trkpt lat="22.848239" lon="109.837965">
        <ele>112.030117</ele>
        <time>2026-08-15T08:43:18.000Z</time>
      </trkpt>
      <trkpt lat="22.848195" lon="109.837994">
        <ele>112.059757</ele>
        <time>2026-08-15T08:43:19.000Z</time>
      </trkpt>
      <trkpt lat="22.848151" lon="109.838023">
        <ele>112.089397</ele>
        <time>2026-08-15T08:43:20.000Z</time>
      </trkpt>
      <trkpt lat="22.848107" lon="109.838051">
        <ele>112.118765</ele>
        <time>2026-08-15T08:43:21.000Z</time>
      </trkpt>
      <trkpt lat="22.848064" lon="109.838079">
        <ele>112.147638</ele>
        <time>2026-08-15T08:43:22.000Z</time>
      </trkpt>
      <trkpt lat="22.848021" lon="109.838107">
        <ele>112.176511</ele>
        <time>2026-08-15T08:43:23.000Z</time>
      </trkpt>
      <trkpt lat="22.847977" lon="109.838133">
        <ele>112.205356</ele>
        <time>2026-08-15T08:43:24.000Z</time>
      </trkpt>
      <trkpt lat="22.847936" lon="109.838157">
        <ele>112.232178</ele>
        <time>2026-08-15T08:43:25.000Z</time>
      </trkpt>
      <trkpt lat="22.847895" lon="109.838184">
        <ele>112.259791</ele>
        <time>2026-08-15T08:43:26.000Z</time>
      </trkpt>
      <trkpt lat="22.847852" lon="109.838213">
        <ele>112.288940</ele>
        <time>2026-08-15T08:43:27.000Z</time>
      </trkpt>
      <trkpt lat="22.847809" lon="109.838241">
        <ele>112.367353</ele>
        <time>2026-08-15T08:43:28.000Z</time>
      </trkpt>
      <trkpt lat="22.847767" lon="109.838270">
        <ele>112.454130</ele>
        <time>2026-08-15T08:43:29.000Z</time>
      </trkpt>
      <trkpt lat="22.847723" lon="109.838299">
        <ele>112.543867</ele>
        <time>2026-08-15T08:43:30.000Z</time>
      </trkpt>
      <trkpt lat="22.847682" lon="109.838328">
        <ele>112.629179</ele>
        <time>2026-08-15T08:43:31.000Z</time>
      </trkpt>
      <trkpt lat="22.847641" lon="109.838356">
        <ele>112.713623</ele>
        <time>2026-08-15T08:43:32.000Z</time>
      </trkpt>
      <trkpt lat="22.847601" lon="109.838384">
        <ele>112.796598</ele>
        <time>2026-08-15T08:43:33.000Z</time>
      </trkpt>
      <trkpt lat="22.847562" lon="109.838410">
        <ele>112.876386</ele>
        <time>2026-08-15T08:43:34.000Z</time>
      </trkpt>
      <trkpt lat="22.847523" lon="109.838435">
        <ele>112.955345</ele>
        <time>2026-08-15T08:43:35.000Z</time>
      </trkpt>
      <trkpt lat="22.847485" lon="109.838461">
        <ele>113.033652</ele>
        <time>2026-08-15T08:43:36.000Z</time>
      </trkpt>
      <trkpt lat="22.847447" lon="109.838485">
        <ele>113.110295</ele>
        <time>2026-08-15T08:43:37.000Z</time>
      </trkpt>
      <trkpt lat="22.847409" lon="109.838510">
        <ele>113.187758</ele>
        <time>2026-08-15T08:43:38.000Z</time>
      </trkpt>
      <trkpt lat="22.847372" lon="109.838534">
        <ele>113.262899</ele>
        <time>2026-08-15T08:43:39.000Z</time>
      </trkpt>
      <trkpt lat="22.847335" lon="109.838557">
        <ele>113.337228</ele>
        <time>2026-08-15T08:43:40.000Z</time>
      </trkpt>
      <trkpt lat="22.847298" lon="109.838581">
        <ele>113.412369</ele>
        <time>2026-08-15T08:43:41.000Z</time>
      </trkpt>
      <trkpt lat="22.847261" lon="109.838604">
        <ele>113.486699</ele>
        <time>2026-08-15T08:43:42.000Z</time>
      </trkpt>
      <trkpt lat="22.847222" lon="109.838626">
        <ele>113.563319</ele>
        <time>2026-08-15T08:43:43.000Z</time>
      </trkpt>
      <trkpt lat="22.847186" lon="109.838650">
        <ele>113.636969</ele>
        <time>2026-08-15T08:43:44.000Z</time>
      </trkpt>
      <trkpt lat="22.847150" lon="109.838676">
        <ele>113.712351</ele>
        <time>2026-08-15T08:43:45.000Z</time>
      </trkpt>
      <trkpt lat="22.847113" lon="109.838701">
        <ele>113.788328</ele>
        <time>2026-08-15T08:43:46.000Z</time>
      </trkpt>
      <trkpt lat="22.847079" lon="109.838726">
        <ele>113.859920</ele>
        <time>2026-08-15T08:43:47.000Z</time>
      </trkpt>
      <trkpt lat="22.847045" lon="109.838750">
        <ele>113.930623</ele>
        <time>2026-08-15T08:43:48.000Z</time>
      </trkpt>
      <trkpt lat="22.847011" lon="109.838773">
        <ele>114.000464</ele>
        <time>2026-08-15T08:43:49.000Z</time>
      </trkpt>
      <trkpt lat="22.846976" lon="109.838795">
        <ele>114.070971</ele>
        <time>2026-08-15T08:43:50.000Z</time>
      </trkpt>
      <trkpt lat="22.846942" lon="109.838815">
        <ele>114.138386</ele>
        <time>2026-08-15T08:43:51.000Z</time>
      </trkpt>
      <trkpt lat="22.846908" lon="109.838836">
        <ele>114.206581</ele>
        <time>2026-08-15T08:43:52.000Z</time>
      </trkpt>
      <trkpt lat="22.846876" lon="109.838857">
        <ele>114.271769</ele>
        <time>2026-08-15T08:43:53.000Z</time>
      </trkpt>
      <trkpt lat="22.846844" lon="109.838878">
        <ele>114.336957</ele>
        <time>2026-08-15T08:43:54.000Z</time>
      </trkpt>
      <trkpt lat="22.846812" lon="109.838899">
        <ele>114.402145</ele>
        <time>2026-08-15T08:43:55.000Z</time>
      </trkpt>
      <trkpt lat="22.846780" lon="109.838919">
        <ele>114.466517</ele>
        <time>2026-08-15T08:43:56.000Z</time>
      </trkpt>
      <trkpt lat="22.846747" lon="109.838938">
        <ele>114.531637</ele>
        <time>2026-08-15T08:43:57.000Z</time>
      </trkpt>
      <trkpt lat="22.846712" lon="109.838958">
        <ele>114.600589</ele>
        <time>2026-08-15T08:43:58.000Z</time>
      </trkpt>
      <trkpt lat="22.846679" lon="109.838980">
        <ele>114.668102</ele>
        <time>2026-08-15T08:43:59.000Z</time>
      </trkpt>
      <trkpt lat="22.846645" lon="109.839002">
        <ele>114.737106</ele>
        <time>2026-08-15T08:44:00.000Z</time>
      </trkpt>
      <trkpt lat="22.846611" lon="109.839024">
        <ele>114.806110</ele>
        <time>2026-08-15T08:44:01.000Z</time>
      </trkpt>
      <trkpt lat="22.846577" lon="109.839045">
        <ele>114.874305</ele>
        <time>2026-08-15T08:44:02.000Z</time>
      </trkpt>
      <trkpt lat="22.846544" lon="109.839068">
        <ele>114.942673</ele>
        <time>2026-08-15T08:44:03.000Z</time>
      </trkpt>
      <trkpt lat="22.846510" lon="109.839090">
        <ele>115.011677</ele>
        <time>2026-08-15T08:44:04.000Z</time>
      </trkpt>
      <trkpt lat="22.846477" lon="109.839111">
        <ele>115.078363</ele>
        <time>2026-08-15T08:44:05.000Z</time>
      </trkpt>
      <trkpt lat="22.846445" lon="109.839133">
        <ele>115.144397</ele>
        <time>2026-08-15T08:44:06.000Z</time>
      </trkpt>
      <trkpt lat="22.846413" lon="109.839155">
        <ele>115.210430</ele>
        <time>2026-08-15T08:44:07.000Z</time>
      </trkpt>
      <trkpt lat="22.846381" lon="109.839177">
        <ele>115.276464</ele>
        <time>2026-08-15T08:44:08.000Z</time>
      </trkpt>
      <trkpt lat="22.846350" lon="109.839197">
        <ele>115.339331</ele>
        <time>2026-08-15T08:44:09.000Z</time>
      </trkpt>
      <trkpt lat="22.846318" lon="109.839216">
        <ele>115.402917</ele>
        <time>2026-08-15T08:44:10.000Z</time>
      </trkpt>
      <trkpt lat="22.846287" lon="109.839237">
        <ele>115.513202</ele>
        <time>2026-08-15T08:44:11.000Z</time>
      </trkpt>
      <trkpt lat="22.846256" lon="109.839258">
        <ele>115.655133</ele>
        <time>2026-08-15T08:44:12.000Z</time>
      </trkpt>
      <trkpt lat="22.846226" lon="109.839280">
        <ele>115.795757</ele>
        <time>2026-08-15T08:44:13.000Z</time>
      </trkpt>
      <trkpt lat="22.846195" lon="109.839299">
        <ele>115.934031</ele>
        <time>2026-08-15T08:44:14.000Z</time>
      </trkpt>
      <trkpt lat="22.846164" lon="109.839318">
        <ele>116.072304</ele>
        <time>2026-08-15T08:44:15.000Z</time>
      </trkpt>
      <trkpt lat="22.846134" lon="109.839337">
        <ele>116.207210</ele>
        <time>2026-08-15T08:44:16.000Z</time>
      </trkpt>
      <trkpt lat="22.846106" lon="109.839356">
        <ele>116.335467</ele>
        <time>2026-08-15T08:44:17.000Z</time>
      </trkpt>
      <trkpt lat="22.846078" lon="109.839375">
        <ele>116.463724</ele>
        <time>2026-08-15T08:44:18.000Z</time>
      </trkpt>
      <trkpt lat="22.846049" lon="109.839394">
        <ele>116.595290</ele>
        <time>2026-08-15T08:44:19.000Z</time>
      </trkpt>
      <trkpt lat="22.846022" lon="109.839413">
        <ele>116.720270</ele>
        <time>2026-08-15T08:44:20.000Z</time>
      </trkpt>
      <trkpt lat="22.845996" lon="109.839430">
        <ele>116.838162</ele>
        <time>2026-08-15T08:44:21.000Z</time>
      </trkpt>
      <trkpt lat="22.845969" lon="109.839447">
        <ele>116.959397</ele>
        <time>2026-08-15T08:44:22.000Z</time>
      </trkpt>
      <trkpt lat="22.845943" lon="109.839465">
        <ele>117.079176</ele>
        <time>2026-08-15T08:44:23.000Z</time>
      </trkpt>
      <trkpt lat="22.845919" lon="109.839482">
        <ele>117.190487</ele>
        <time>2026-08-15T08:44:24.000Z</time>
      </trkpt>
      <trkpt lat="22.845894" lon="109.839499">
        <ele>117.305070</ele>
        <time>2026-08-15T08:44:25.000Z</time>
      </trkpt>
      <trkpt lat="22.845869" lon="109.839517">
        <ele>117.421593</ele>
        <time>2026-08-15T08:44:26.000Z</time>
      </trkpt>
      <trkpt lat="22.845845" lon="109.839534">
        <ele>117.532904</ele>
        <time>2026-08-15T08:44:27.000Z</time>
      </trkpt>
      <trkpt lat="22.845821" lon="109.839551">
        <ele>117.644215</ele>
        <time>2026-08-15T08:44:28.000Z</time>
      </trkpt>
      <trkpt lat="22.845795" lon="109.839565">
        <ele>117.756941</ele>
        <time>2026-08-15T08:44:29.000Z</time>
      </trkpt>
      <trkpt lat="22.845771" lon="109.839581">
        <ele>117.866337</ele>
        <time>2026-08-15T08:44:30.000Z</time>
      </trkpt>
      <trkpt lat="22.845747" lon="109.839597">
        <ele>117.975732</ele>
        <time>2026-08-15T08:44:31.000Z</time>
      </trkpt>
      <trkpt lat="22.845723" lon="109.839611">
        <ele>118.081557</ele>
        <time>2026-08-15T08:44:32.000Z</time>
      </trkpt>
      <trkpt lat="22.845700" lon="109.839626">
        <ele>118.185775</ele>
        <time>2026-08-15T08:44:33.000Z</time>
      </trkpt>
      <trkpt lat="22.845677" lon="109.839642">
        <ele>118.291881</ele>
        <time>2026-08-15T08:44:34.000Z</time>
      </trkpt>
      <trkpt lat="22.845653" lon="109.839657">
        <ele>118.399447</ele>
        <time>2026-08-15T08:44:35.000Z</time>
      </trkpt>
      <trkpt lat="22.845629" lon="109.839672">
        <ele>118.507012</ele>
        <time>2026-08-15T08:44:36.000Z</time>
      </trkpt>
      <trkpt lat="22.845606" lon="109.839687">
        <ele>118.611230</ele>
        <time>2026-08-15T08:44:37.000Z</time>
      </trkpt>
      <trkpt lat="22.845583" lon="109.839703">
        <ele>118.717337</ele>
        <time>2026-08-15T08:44:38.000Z</time>
      </trkpt>
      <trkpt lat="22.845560" lon="109.839718">
        <ele>118.821555</ele>
        <time>2026-08-15T08:44:39.000Z</time>
      </trkpt>
      <trkpt lat="22.845538" lon="109.839732">
        <ele>118.920606</ele>
        <time>2026-08-15T08:44:40.000Z</time>
      </trkpt>
      <trkpt lat="22.845516" lon="109.839746">
        <ele>119.019657</ele>
        <time>2026-08-15T08:44:41.000Z</time>
      </trkpt>
      <trkpt lat="22.845495" lon="109.839760">
        <ele>119.115379</ele>
        <time>2026-08-15T08:44:42.000Z</time>
      </trkpt>
      <trkpt lat="22.845473" lon="109.839774">
        <ele>119.214430</ele>
        <time>2026-08-15T08:44:43.000Z</time>
      </trkpt>
      <trkpt lat="22.845451" lon="109.839786">
        <ele>119.310060</ele>
        <time>2026-08-15T08:44:44.000Z</time>
      </trkpt>
      <trkpt lat="22.845430" lon="109.839798">
        <ele>119.402236</ele>
        <time>2026-08-15T08:44:45.000Z</time>
      </trkpt>
      <trkpt lat="22.845408" lon="109.839813">
        <ele>119.503145</ele>
        <time>2026-08-15T08:44:46.000Z</time>
      </trkpt>
      <trkpt lat="22.845385" lon="109.839824">
        <ele>119.600763</ele>
        <time>2026-08-15T08:44:47.000Z</time>
      </trkpt>
      <trkpt lat="22.845363" lon="109.839837">
        <ele>119.698053</ele>
        <time>2026-08-15T08:44:48.000Z</time>
      </trkpt>
      <trkpt lat="22.845341" lon="109.839850">
        <ele>119.795342</ele>
        <time>2026-08-15T08:44:49.000Z</time>
      </trkpt>
      <trkpt lat="22.845318" lon="109.839863">
        <ele>119.896060</ele>
        <time>2026-08-15T08:44:50.000Z</time>
      </trkpt>
      <trkpt lat="22.845294" lon="109.839877">
        <ele>120.001885</ele>
        <time>2026-08-15T08:44:51.000Z</time>
      </trkpt>
      <trkpt lat="22.845272" lon="109.839892">
        <ele>120.102794</ele>
        <time>2026-08-15T08:44:52.000Z</time>
      </trkpt>
      <trkpt lat="22.845250" lon="109.839907">
        <ele>120.203703</ele>
        <time>2026-08-15T08:44:53.000Z</time>
      </trkpt>
      <trkpt lat="22.845228" lon="109.839922">
        <ele>120.304612</ele>
        <time>2026-08-15T08:44:54.000Z</time>
      </trkpt>
      <trkpt lat="22.845204" lon="109.839938">
        <ele>120.414008</ele>
        <time>2026-08-15T08:44:55.000Z</time>
      </trkpt>
      <trkpt lat="22.845180" lon="109.839955">
        <ele>120.525320</ele>
        <time>2026-08-15T08:44:56.000Z</time>
      </trkpt>
      <trkpt lat="22.845156" lon="109.839971">
        <ele>120.634716</ele>
        <time>2026-08-15T08:44:57.000Z</time>
      </trkpt>
      <trkpt lat="22.845132" lon="109.839984">
        <ele>120.738893</ele>
        <time>2026-08-15T08:44:58.000Z</time>
      </trkpt>
      <trkpt lat="22.845109" lon="109.839997">
        <ele>120.839611</ele>
        <time>2026-08-15T08:44:59.000Z</time>
      </trkpt>
      <trkpt lat="22.845088" lon="109.840011">
        <ele>120.935332</ele>
        <time>2026-08-15T08:45:00.000Z</time>
      </trkpt>
      <trkpt lat="22.845068" lon="109.840027">
        <ele>121.031835</ele>
        <time>2026-08-15T08:45:01.000Z</time>
      </trkpt>
      <trkpt lat="22.845047" lon="109.840042">
        <ele>121.129478</ele>
        <time>2026-08-15T08:45:02.000Z</time>
      </trkpt>
      <trkpt lat="22.845025" lon="109.840054">
        <ele>121.225108</ele>
        <time>2026-08-15T08:45:03.000Z</time>
      </trkpt>
      <trkpt lat="22.845004" lon="109.840067">
        <ele>121.319005</ele>
        <time>2026-08-15T08:45:04.000Z</time>
      </trkpt>
      <trkpt lat="22.844985" lon="109.840080">
        <ele>121.406241</ele>
        <time>2026-08-15T08:45:05.000Z</time>
      </trkpt>
      <trkpt lat="22.844964" lon="109.840093">
        <ele>121.500138</ele>
        <time>2026-08-15T08:45:06.000Z</time>
      </trkpt>
      <trkpt lat="22.844943" lon="109.840106">
        <ele>121.594035</ele>
        <time>2026-08-15T08:45:07.000Z</time>
      </trkpt>
      <trkpt lat="22.844923" lon="109.840118">
        <ele>121.682794</ele>
        <time>2026-08-15T08:45:08.000Z</time>
      </trkpt>
      <trkpt lat="22.844904" lon="109.840129">
        <ele>121.766431</ele>
        <time>2026-08-15T08:45:09.000Z</time>
      </trkpt>
      <trkpt lat="22.844884" lon="109.840141">
        <ele>121.855189</ele>
        <time>2026-08-15T08:45:10.000Z</time>
      </trkpt>
      <trkpt lat="22.844862" lon="109.840154">
        <ele>121.952479</ele>
        <time>2026-08-15T08:45:11.000Z</time>
      </trkpt>
      <trkpt lat="22.844841" lon="109.840170">
        <ele>122.052135</ele>
        <time>2026-08-15T08:45:12.000Z</time>
      </trkpt>
      <trkpt lat="22.844819" lon="109.840184">
        <ele>122.151186</ele>
        <time>2026-08-15T08:45:13.000Z</time>
      </trkpt>
      <trkpt lat="22.844794" lon="109.840196">
        <ele>122.257355</ele>
        <time>2026-08-15T08:45:14.000Z</time>
      </trkpt>
      <trkpt lat="22.844773" lon="109.840210">
        <ele>122.353077</ele>
        <time>2026-08-15T08:45:15.000Z</time>
      </trkpt>
      <trkpt lat="22.844752" lon="109.840227">
        <ele>122.427050</ele>
        <time>2026-08-15T08:45:16.000Z</time>
      </trkpt>
      <trkpt lat="22.844729" lon="109.840242">
        <ele>122.460061</ele>
        <time>2026-08-15T08:45:17.000Z</time>
      </trkpt>
      <trkpt lat="22.844707" lon="109.840257">
        <ele>122.492024</ele>
        <time>2026-08-15T08:45:18.000Z</time>
      </trkpt>
      <trkpt lat="22.844685" lon="109.840270">
        <ele>122.522841</ele>
        <time>2026-08-15T08:45:19.000Z</time>
      </trkpt>
      <trkpt lat="22.844662" lon="109.840281">
        <ele>122.553761</ele>
        <time>2026-08-15T08:45:20.000Z</time>
      </trkpt>
      <trkpt lat="22.844639" lon="109.840290">
        <ele>122.583839</ele>
        <time>2026-08-15T08:45:21.000Z</time>
      </trkpt>
      <trkpt lat="22.844616" lon="109.840304">
        <ele>122.616280</ele>
        <time>2026-08-15T08:45:22.000Z</time>
      </trkpt>
      <trkpt lat="22.844593" lon="109.840315">
        <ele>122.647201</ele>
        <time>2026-08-15T08:45:23.000Z</time>
      </trkpt>
      <trkpt lat="22.844570" lon="109.840326">
        <ele>122.678121</ele>
        <time>2026-08-15T08:45:24.000Z</time>
      </trkpt>
      <trkpt lat="22.844547" lon="109.840336">
        <ele>122.708602</ele>
        <time>2026-08-15T08:45:25.000Z</time>
      </trkpt>
      <trkpt lat="22.844524" lon="109.840346">
        <ele>122.739083</ele>
        <time>2026-08-15T08:45:26.000Z</time>
      </trkpt>
      <trkpt lat="22.844502" lon="109.840359">
        <ele>122.769899</ele>
        <time>2026-08-15T08:45:27.000Z</time>
      </trkpt>
      <trkpt lat="22.844479" lon="109.840371">
        <ele>122.801294</ele>
        <time>2026-08-15T08:45:28.000Z</time>
      </trkpt>
      <trkpt lat="22.844457" lon="109.840383">
        <ele>122.831585</ele>
        <time>2026-08-15T08:45:29.000Z</time>
      </trkpt>
      <trkpt lat="22.844436" lon="109.840395">
        <ele>122.860782</ele>
        <time>2026-08-15T08:45:30.000Z</time>
      </trkpt>
      <trkpt lat="22.844414" lon="109.840409">
        <ele>122.892156</ele>
        <time>2026-08-15T08:45:31.000Z</time>
      </trkpt>
      <trkpt lat="22.844392" lon="109.840423">
        <ele>122.923531</ele>
        <time>2026-08-15T08:45:32.000Z</time>
      </trkpt>
      <trkpt lat="22.844373" lon="109.840435">
        <ele>122.950575</ele>
        <time>2026-08-15T08:45:33.000Z</time>
      </trkpt>
      <trkpt lat="22.844349" lon="109.840447">
        <ele>122.983083</ele>
        <time>2026-08-15T08:45:34.000Z</time>
      </trkpt>
      <trkpt lat="22.844324" lon="109.840458">
        <ele>123.016270</ele>
        <time>2026-08-15T08:45:35.000Z</time>
      </trkpt>
      <trkpt lat="22.844300" lon="109.840467">
        <ele>123.047507</ele>
        <time>2026-08-15T08:45:36.000Z</time>
      </trkpt>
      <trkpt lat="22.844276" lon="109.840475">
        <ele>123.078393</ele>
        <time>2026-08-15T08:45:37.000Z</time>
      </trkpt>
      <trkpt lat="22.844252" lon="109.840485">
        <ele>123.110019</ele>
        <time>2026-08-15T08:45:38.000Z</time>
      </trkpt>
      <trkpt lat="22.844229" lon="109.840498">
        <ele>123.141921</ele>
        <time>2026-08-15T08:45:39.000Z</time>
      </trkpt>
      <trkpt lat="22.844207" lon="109.840513">
        <ele>123.173885</ele>
        <time>2026-08-15T08:45:40.000Z</time>
      </trkpt>
      <trkpt lat="22.844183" lon="109.840525">
        <ele>123.206392</ele>
        <time>2026-08-15T08:45:41.000Z</time>
      </trkpt>
      <trkpt lat="22.844159" lon="109.840540">
        <ele>123.240464</ele>
        <time>2026-08-15T08:45:42.000Z</time>
      </trkpt>
      <trkpt lat="22.844135" lon="109.840553">
        <ele>123.273462</ele>
        <time>2026-08-15T08:45:43.000Z</time>
      </trkpt>
      <trkpt lat="22.844110" lon="109.840567">
        <ele>123.308071</ele>
        <time>2026-08-15T08:45:44.000Z</time>
      </trkpt>
      <trkpt lat="22.844085" lon="109.840581">
        <ele>123.342679</ele>
        <time>2026-08-15T08:45:45.000Z</time>
      </trkpt>
      <trkpt lat="22.844061" lon="109.840593">
        <ele>123.375187</ele>
        <time>2026-08-15T08:45:46.000Z</time>
      </trkpt>
      <trkpt lat="22.844034" lon="109.840605">
        <ele>123.411080</ele>
        <time>2026-08-15T08:45:47.000Z</time>
      </trkpt>
      <trkpt lat="22.844006" lon="109.840616">
        <ele>123.447713</ele>
        <time>2026-08-15T08:45:48.000Z</time>
      </trkpt>
      <trkpt lat="22.843980" lon="109.840628">
        <ele>123.482470</ele>
        <time>2026-08-15T08:45:49.000Z</time>
      </trkpt>
      <trkpt lat="22.843954" lon="109.840640">
        <ele>123.517228</ele>
        <time>2026-08-15T08:45:50.000Z</time>
      </trkpt>
      <trkpt lat="22.843928" lon="109.840652">
        <ele>123.551986</ele>
        <time>2026-08-15T08:45:51.000Z</time>
      </trkpt>
      <trkpt lat="22.843900" lon="109.840666">
        <ele>123.589911</ele>
        <time>2026-08-15T08:45:52.000Z</time>
      </trkpt>
      <trkpt lat="22.843873" lon="109.840682">
        <ele>123.627757</ele>
        <time>2026-08-15T08:45:53.000Z</time>
      </trkpt>
      <trkpt lat="22.843844" lon="109.840699">
        <ele>123.668305</ele>
        <time>2026-08-15T08:45:54.000Z</time>
      </trkpt>
      <trkpt lat="22.843815" lon="109.840712">
        <ele>123.706904</ele>
        <time>2026-08-15T08:45:55.000Z</time>
      </trkpt>
      <trkpt lat="22.843784" lon="109.840727">
        <ele>123.748660</ele>
        <time>2026-08-15T08:45:56.000Z</time>
      </trkpt>
      <trkpt lat="22.843751" lon="109.840742">
        <ele>123.792673</ele>
        <time>2026-08-15T08:45:57.000Z</time>
      </trkpt>
      <trkpt lat="22.843720" lon="109.840756">
        <ele>123.833980</ele>
        <time>2026-08-15T08:45:58.000Z</time>
      </trkpt>
      <trkpt lat="22.843688" lon="109.840771">
        <ele>123.876861</ele>
        <time>2026-08-15T08:45:59.000Z</time>
      </trkpt>
      <trkpt lat="22.843655" lon="109.840787">
        <ele>123.921326</ele>
        <time>2026-08-15T08:46:00.000Z</time>
      </trkpt>
      <trkpt lat="22.843623" lon="109.840804">
        <ele>123.965156</ele>
        <time>2026-08-15T08:46:01.000Z</time>
      </trkpt>
      <trkpt lat="22.843590" lon="109.840817">
        <ele>124.008344</ele>
        <time>2026-08-15T08:46:02.000Z</time>
      </trkpt>
      <trkpt lat="22.843557" lon="109.840832">
        <ele>124.052358</ele>
        <time>2026-08-15T08:46:03.000Z</time>
      </trkpt>
      <trkpt lat="22.843523" lon="109.840849">
        <ele>124.098411</ele>
        <time>2026-08-15T08:46:04.000Z</time>
      </trkpt>
      <trkpt lat="22.843487" lon="109.840866">
        <ele>124.146709</ele>
        <time>2026-08-15T08:46:05.000Z</time>
      </trkpt>
      <trkpt lat="22.843450" lon="109.840884">
        <ele>124.196591</ele>
        <time>2026-08-15T08:46:06.000Z</time>
      </trkpt>
      <trkpt lat="22.843412" lon="109.840900">
        <ele>124.246733</ele>
        <time>2026-08-15T08:46:07.000Z</time>
      </trkpt>
      <trkpt lat="22.843373" lon="109.840916">
        <ele>124.298025</ele>
        <time>2026-08-15T08:46:08.000Z</time>
      </trkpt>
      <trkpt lat="22.843332" lon="109.840935">
        <ele>124.352869</ele>
        <time>2026-08-15T08:46:09.000Z</time>
      </trkpt>
      <trkpt lat="22.843290" lon="109.840956">
        <ele>124.409758</ele>
        <time>2026-08-15T08:46:10.000Z</time>
      </trkpt>
      <trkpt lat="22.843248" lon="109.840977">
        <ele>124.466647</ele>
        <time>2026-08-15T08:46:11.000Z</time>
      </trkpt>
      <trkpt lat="22.843205" lon="109.840999">
        <ele>124.525130</ele>
        <time>2026-08-15T08:46:12.000Z</time>
      </trkpt>
      <trkpt lat="22.843159" lon="109.841020">
        <ele>124.586522</ele>
        <time>2026-08-15T08:46:13.000Z</time>
      </trkpt>
      <trkpt lat="22.843112" lon="109.841040">
        <ele>124.581655</ele>
        <time>2026-08-15T08:46:14.000Z</time>
      </trkpt>
      <trkpt lat="22.843065" lon="109.841062">
        <ele>124.451218</ele>
        <time>2026-08-15T08:46:15.000Z</time>
      </trkpt>
      <trkpt lat="22.843018" lon="109.841083">
        <ele>124.321693</ele>
        <time>2026-08-15T08:46:16.000Z</time>
      </trkpt>
      <trkpt lat="22.842969" lon="109.841105">
        <ele>124.186561</ele>
        <time>2026-08-15T08:46:17.000Z</time>
      </trkpt>
      <trkpt lat="22.842921" lon="109.841128">
        <ele>124.052849</ele>
        <time>2026-08-15T08:46:18.000Z</time>
      </trkpt>
      <trkpt lat="22.842869" lon="109.841154">
        <ele>123.906948</ele>
        <time>2026-08-15T08:46:19.000Z</time>
      </trkpt>
      <trkpt lat="22.842819" lon="109.841179">
        <ele>123.766659</ele>
        <time>2026-08-15T08:46:20.000Z</time>
      </trkpt>
      <trkpt lat="22.842771" lon="109.841205">
        <ele>123.629949</ele>
        <time>2026-08-15T08:46:21.000Z</time>
      </trkpt>
      <trkpt lat="22.842722" lon="109.841230">
        <ele>123.491970</ele>
        <time>2026-08-15T08:46:22.000Z</time>
      </trkpt>
      <trkpt lat="22.842674" lon="109.841255">
        <ele>123.356292</ele>
        <time>2026-08-15T08:46:23.000Z</time>
      </trkpt>
      <trkpt lat="22.842627" lon="109.841282">
        <ele>123.220775</ele>
        <time>2026-08-15T08:46:24.000Z</time>
      </trkpt>
      <trkpt lat="22.842580" lon="109.841308">
        <ele>123.086340</ele>
        <time>2026-08-15T08:46:25.000Z</time>
      </trkpt>
      <trkpt lat="22.842534" lon="109.841336">
        <ele>122.951936</ele>
        <time>2026-08-15T08:46:26.000Z</time>
      </trkpt>
      <trkpt lat="22.842489" lon="109.841367">
        <ele>122.816106</ele>
        <time>2026-08-15T08:46:27.000Z</time>
      </trkpt>
      <trkpt lat="22.842443" lon="109.841400">
        <ele>122.675583</ele>
        <time>2026-08-15T08:46:28.000Z</time>
      </trkpt>
      <trkpt lat="22.842397" lon="109.841435">
        <ele>122.532417</ele>
        <time>2026-08-15T08:46:29.000Z</time>
      </trkpt>
      <trkpt lat="22.842351" lon="109.841471">
        <ele>122.387890</ele>
        <time>2026-08-15T08:46:30.000Z</time>
      </trkpt>
      <trkpt lat="22.842306" lon="109.841508">
        <ele>122.244015</ele>
        <time>2026-08-15T08:46:31.000Z</time>
      </trkpt>
      <trkpt lat="22.842262" lon="109.841548">
        <ele>122.097741</ele>
        <time>2026-08-15T08:46:32.000Z</time>
      </trkpt>
      <trkpt lat="22.842219" lon="109.841591">
        <ele>121.948731</ele>
        <time>2026-08-15T08:46:33.000Z</time>
      </trkpt>
      <trkpt lat="22.842178" lon="109.841637">
        <ele>121.798445</ele>
        <time>2026-08-15T08:46:34.000Z</time>
      </trkpt>
      <trkpt lat="22.842140" lon="109.841687">
        <ele>121.646245</ele>
        <time>2026-08-15T08:46:35.000Z</time>
      </trkpt>
      <trkpt lat="22.842100" lon="109.841739">
        <ele>121.487177</ele>
        <time>2026-08-15T08:46:36.000Z</time>
      </trkpt>
      <trkpt lat="22.842061" lon="109.841795">
        <ele>121.322336</ele>
        <time>2026-08-15T08:46:37.000Z</time>
      </trkpt>
      <trkpt lat="22.842024" lon="109.841850">
        <ele>121.162420</ele>
        <time>2026-08-15T08:46:38.000Z</time>
      </trkpt>
      <trkpt lat="22.841989" lon="109.841909">
        <ele>120.997639</ele>
        <time>2026-08-15T08:46:39.000Z</time>
      </trkpt>
      <trkpt lat="22.841953" lon="109.841970">
        <ele>120.827528</ele>
        <time>2026-08-15T08:46:40.000Z</time>
      </trkpt>
      <trkpt lat="22.841918" lon="109.842035">
        <ele>120.650734</ele>
        <time>2026-08-15T08:46:41.000Z</time>
      </trkpt>
      <trkpt lat="22.841883" lon="109.842099">
        <ele>120.475963</ele>
        <time>2026-08-15T08:46:42.000Z</time>
      </trkpt>
      <trkpt lat="22.841847" lon="109.842164">
        <ele>120.297870</ele>
        <time>2026-08-15T08:46:43.000Z</time>
      </trkpt>
      <trkpt lat="22.841812" lon="109.842230">
        <ele>120.119044</ele>
        <time>2026-08-15T08:46:44.000Z</time>
      </trkpt>
      <trkpt lat="22.841777" lon="109.842296">
        <ele>120.006207</ele>
        <time>2026-08-15T08:46:45.000Z</time>
      </trkpt>
      <trkpt lat="22.841741" lon="109.842361">
        <ele>119.942018</ele>
        <time>2026-08-15T08:46:46.000Z</time>
      </trkpt>
      <trkpt lat="22.841705" lon="109.842425">
        <ele>119.878553</ele>
        <time>2026-08-15T08:46:47.000Z</time>
      </trkpt>
      <trkpt lat="22.841671" lon="109.842489">
        <ele>119.816026</ele>
        <time>2026-08-15T08:46:48.000Z</time>
      </trkpt>
      <trkpt lat="22.841639" lon="109.842552">
        <ele>119.755138</ele>
        <time>2026-08-15T08:46:49.000Z</time>
      </trkpt>
      <trkpt lat="22.841608" lon="109.842614">
        <ele>119.695433</ele>
        <time>2026-08-15T08:46:50.000Z</time>
      </trkpt>
      <trkpt lat="22.841576" lon="109.842675">
        <ele>119.636022</ele>
        <time>2026-08-15T08:46:51.000Z</time>
      </trkpt>
      <trkpt lat="22.841545" lon="109.842734">
        <ele>119.578536</ele>
        <time>2026-08-15T08:46:52.000Z</time>
      </trkpt>
      <trkpt lat="22.841513" lon="109.842792">
        <ele>119.521318</ele>
        <time>2026-08-15T08:46:53.000Z</time>
      </trkpt>
      <trkpt lat="22.841482" lon="109.842850">
        <ele>119.464566</ele>
        <time>2026-08-15T08:46:54.000Z</time>
      </trkpt>
      <trkpt lat="22.841450" lon="109.842909">
        <ele>119.406620</ele>
        <time>2026-08-15T08:46:55.000Z</time>
      </trkpt>
      <trkpt lat="22.841421" lon="109.842967">
        <ele>119.350767</ele>
        <time>2026-08-15T08:46:56.000Z</time>
      </trkpt>
      <trkpt lat="22.841392" lon="109.843025">
        <ele>119.294914</ele>
        <time>2026-08-15T08:46:57.000Z</time>
      </trkpt>
      <trkpt lat="22.841363" lon="109.843081">
        <ele>119.240543</ele>
        <time>2026-08-15T08:46:58.000Z</time>
      </trkpt>
      <trkpt lat="22.841332" lon="109.843137">
        <ele>119.185249</ele>
        <time>2026-08-15T08:46:59.000Z</time>
      </trkpt>
      <trkpt lat="22.841300" lon="109.843191">
        <ele>119.130908</ele>
        <time>2026-08-15T08:47:00.000Z</time>
      </trkpt>
      <trkpt lat="22.841266" lon="109.843244">
        <ele>119.076249</ele>
        <time>2026-08-15T08:47:01.000Z</time>
      </trkpt>
      <trkpt lat="22.841234" lon="109.843297">
        <ele>119.022618</ele>
        <time>2026-08-15T08:47:02.000Z</time>
      </trkpt>
      <trkpt lat="22.841206" lon="109.843352">
        <ele>118.969433</ele>
        <time>2026-08-15T08:47:03.000Z</time>
      </trkpt>
      <trkpt lat="22.841176" lon="109.843407">
        <ele>118.915337</ele>
        <time>2026-08-15T08:47:04.000Z</time>
      </trkpt>
      <trkpt lat="22.841146" lon="109.843464">
        <ele>118.859777</ele>
        <time>2026-08-15T08:47:05.000Z</time>
      </trkpt>
      <trkpt lat="22.841116" lon="109.843520">
        <ele>118.804950</ele>
        <time>2026-08-15T08:47:06.000Z</time>
      </trkpt>
      <trkpt lat="22.841084" lon="109.843577">
        <ele>118.748456</ele>
        <time>2026-08-15T08:47:07.000Z</time>
      </trkpt>
      <trkpt lat="22.841053" lon="109.843636">
        <ele>118.690970</ele>
        <time>2026-08-15T08:47:08.000Z</time>
      </trkpt>
      <trkpt lat="22.841022" lon="109.843695">
        <ele>118.633485</ele>
        <time>2026-08-15T08:47:09.000Z</time>
      </trkpt>
      <trkpt lat="22.840991" lon="109.843754">
        <ele>118.575999</ele>
        <time>2026-08-15T08:47:10.000Z</time>
      </trkpt>
      <trkpt lat="22.840960" lon="109.843815">
        <ele>118.517037</ele>
        <time>2026-08-15T08:47:11.000Z</time>
      </trkpt>
      <trkpt lat="22.840927" lon="109.843875">
        <ele>118.457894</ele>
        <time>2026-08-15T08:47:12.000Z</time>
      </trkpt>
      <trkpt lat="22.840894" lon="109.843935">
        <ele>118.398751</ele>
        <time>2026-08-15T08:47:13.000Z</time>
      </trkpt>
      <trkpt lat="22.840863" lon="109.843995">
        <ele>118.395085</ele>
        <time>2026-08-15T08:47:14.000Z</time>
      </trkpt>
      <trkpt lat="22.840831" lon="109.844057">
        <ele>118.399410</ele>
        <time>2026-08-15T08:47:15.000Z</time>
      </trkpt>
      <trkpt lat="22.840800" lon="109.844118">
        <ele>118.403650</ele>
        <time>2026-08-15T08:47:16.000Z</time>
      </trkpt>
      <trkpt lat="22.840771" lon="109.844179">
        <ele>118.407828</ele>
        <time>2026-08-15T08:47:17.000Z</time>
      </trkpt>
      <trkpt lat="22.840738" lon="109.844239">
        <ele>118.412080</ele>
        <time>2026-08-15T08:47:18.000Z</time>
      </trkpt>
      <trkpt lat="22.840703" lon="109.844300">
        <ele>118.416454</ele>
        <time>2026-08-15T08:47:19.000Z</time>
      </trkpt>
      <trkpt lat="22.840670" lon="109.844359">
        <ele>118.420655</ele>
        <time>2026-08-15T08:47:20.000Z</time>
      </trkpt>
      <trkpt lat="22.840638" lon="109.844416">
        <ele>118.424717</ele>
        <time>2026-08-15T08:47:21.000Z</time>
      </trkpt>
      <trkpt lat="22.840609" lon="109.844473">
        <ele>118.428680</ele>
        <time>2026-08-15T08:47:22.000Z</time>
      </trkpt>
      <trkpt lat="22.840580" lon="109.844532">
        <ele>118.432749</ele>
        <time>2026-08-15T08:47:23.000Z</time>
      </trkpt>
      <trkpt lat="22.840551" lon="109.844593">
        <ele>118.436927</ele>
        <time>2026-08-15T08:47:24.000Z</time>
      </trkpt>
      <trkpt lat="22.840523" lon="109.844651">
        <ele>118.440912</ele>
        <time>2026-08-15T08:47:25.000Z</time>
      </trkpt>
      <trkpt lat="22.840493" lon="109.844707">
        <ele>118.444855</ele>
        <time>2026-08-15T08:47:26.000Z</time>
      </trkpt>
      <trkpt lat="22.840462" lon="109.844763">
        <ele>118.448831</ele>
        <time>2026-08-15T08:47:27.000Z</time>
      </trkpt>
      <trkpt lat="22.840433" lon="109.844818">
        <ele>118.452687</ele>
        <time>2026-08-15T08:47:28.000Z</time>
      </trkpt>
      <trkpt lat="22.840404" lon="109.844873">
        <ele>118.456544</ele>
        <time>2026-08-15T08:47:29.000Z</time>
      </trkpt>
      <trkpt lat="22.840376" lon="109.844927">
        <ele>118.460315</ele>
        <time>2026-08-15T08:47:30.000Z</time>
      </trkpt>
      <trkpt lat="22.840348" lon="109.844980">
        <ele>118.464034</ele>
        <time>2026-08-15T08:47:31.000Z</time>
      </trkpt>
      <trkpt lat="22.840320" lon="109.845032">
        <ele>118.467699</ele>
        <time>2026-08-15T08:47:32.000Z</time>
      </trkpt>
      <trkpt lat="22.840292" lon="109.845084">
        <ele>118.471365</ele>
        <time>2026-08-15T08:47:33.000Z</time>
      </trkpt>
      <trkpt lat="22.840263" lon="109.845136">
        <ele>118.475064</ele>
        <time>2026-08-15T08:47:34.000Z</time>
      </trkpt>
      <trkpt lat="22.840235" lon="109.845188">
        <ele>118.478730</ele>
        <time>2026-08-15T08:47:35.000Z</time>
      </trkpt>
      <trkpt lat="22.840208" lon="109.845242">
        <ele>118.482469</ele>
        <time>2026-08-15T08:47:36.000Z</time>
      </trkpt>
      <trkpt lat="22.840180" lon="109.845296">
        <ele>118.486240</ele>
        <time>2026-08-15T08:47:37.000Z</time>
      </trkpt>
      <trkpt lat="22.840152" lon="109.845348">
        <ele>118.489906</ele>
        <time>2026-08-15T08:47:38.000Z</time>
      </trkpt>
      <trkpt lat="22.840123" lon="109.845400">
        <ele>118.493605</ele>
        <time>2026-08-15T08:47:39.000Z</time>
      </trkpt>
      <trkpt lat="22.840095" lon="109.845451">
        <ele>118.497218</ele>
        <time>2026-08-15T08:47:40.000Z</time>
      </trkpt>
      <trkpt lat="22.840067" lon="109.845502">
        <ele>118.500831</ele>
        <time>2026-08-15T08:47:41.000Z</time>
      </trkpt>
      <trkpt lat="22.840041" lon="109.845552">
        <ele>118.504325</ele>
        <time>2026-08-15T08:47:42.000Z</time>
      </trkpt>
      <trkpt lat="22.840015" lon="109.845603">
        <ele>118.507873</ele>
        <time>2026-08-15T08:47:43.000Z</time>
      </trkpt>
      <trkpt lat="22.839988" lon="109.845652">
        <ele>118.489303</ele>
        <time>2026-08-15T08:47:44.000Z</time>
      </trkpt>
      <trkpt lat="22.839962" lon="109.845701">
        <ele>118.425886</ele>
        <time>2026-08-15T08:47:45.000Z</time>
      </trkpt>
      <trkpt lat="22.839936" lon="109.845751">
        <ele>118.361495</ele>
        <time>2026-08-15T08:47:46.000Z</time>
      </trkpt>
      <trkpt lat="22.839909" lon="109.845800">
        <ele>118.297462</ele>
        <time>2026-08-15T08:47:47.000Z</time>
      </trkpt>
      <trkpt lat="22.839880" lon="109.845850">
        <ele>118.231201</ele>
        <time>2026-08-15T08:47:48.000Z</time>
      </trkpt>
      <trkpt lat="22.839854" lon="109.845900">
        <ele>118.166809</ele>
        <time>2026-08-15T08:47:49.000Z</time>
      </trkpt>
      <trkpt lat="22.839828" lon="109.845952">
        <ele>118.100455</ele>
        <time>2026-08-15T08:47:50.000Z</time>
      </trkpt>
      <trkpt lat="22.839801" lon="109.846005">
        <ele>118.032533</ele>
        <time>2026-08-15T08:47:51.000Z</time>
      </trkpt>
      <trkpt lat="22.839775" lon="109.846058">
        <ele>117.965191</ele>
        <time>2026-08-15T08:47:52.000Z</time>
      </trkpt>
      <trkpt lat="22.839749" lon="109.846109">
        <ele>117.899821</ele>
        <time>2026-08-15T08:47:53.000Z</time>
      </trkpt>
      <trkpt lat="22.839722" lon="109.846160">
        <ele>117.833852</ele>
        <time>2026-08-15T08:47:54.000Z</time>
      </trkpt>
      <trkpt lat="22.839696" lon="109.846211">
        <ele>117.768482</ele>
        <time>2026-08-15T08:47:55.000Z</time>
      </trkpt>
      <trkpt lat="22.839669" lon="109.846262">
        <ele>117.702514</ele>
        <time>2026-08-15T08:47:56.000Z</time>
      </trkpt>
      <trkpt lat="22.839643" lon="109.846314">
        <ele>117.636160</ele>
        <time>2026-08-15T08:47:57.000Z</time>
      </trkpt>
      <trkpt lat="22.839616" lon="109.846364">
        <ele>117.571162</ele>
        <time>2026-08-15T08:47:58.000Z</time>
      </trkpt>
      <trkpt lat="22.839589" lon="109.846414">
        <ele>117.506164</ele>
        <time>2026-08-15T08:47:59.000Z</time>
      </trkpt>
      <trkpt lat="22.839562" lon="109.846464">
        <ele>117.441166</ele>
        <time>2026-08-15T08:48:00.000Z</time>
      </trkpt>
      <trkpt lat="22.839536" lon="109.846515">
        <ele>117.375796</ele>
        <time>2026-08-15T08:48:01.000Z</time>
      </trkpt>
      <trkpt lat="22.839511" lon="109.846565">
        <ele>117.311993</ele>
        <time>2026-08-15T08:48:02.000Z</time>
      </trkpt>
      <trkpt lat="22.839487" lon="109.846616">
        <ele>117.247766</ele>
        <time>2026-08-15T08:48:03.000Z</time>
      </trkpt>
      <trkpt lat="22.839462" lon="109.846668">
        <ele>117.181983</ele>
        <time>2026-08-15T08:48:04.000Z</time>
      </trkpt>
      <trkpt lat="22.839437" lon="109.846721">
        <ele>117.115204</ele>
        <time>2026-08-15T08:48:05.000Z</time>
      </trkpt>
      <trkpt lat="22.839410" lon="109.846772">
        <ele>117.049236</ele>
        <time>2026-08-15T08:48:06.000Z</time>
      </trkpt>
      <trkpt lat="22.839382" lon="109.846822">
        <ele>116.983615</ele>
        <time>2026-08-15T08:48:07.000Z</time>
      </trkpt>
      <trkpt lat="22.839354" lon="109.846874">
        <ele>116.916066</ele>
        <time>2026-08-15T08:48:08.000Z</time>
      </trkpt>
      <trkpt lat="22.839325" lon="109.846925">
        <ele>116.848852</ele>
        <time>2026-08-15T08:48:09.000Z</time>
      </trkpt>
      <trkpt lat="22.839297" lon="109.846978">
        <ele>116.780332</ele>
        <time>2026-08-15T08:48:10.000Z</time>
      </trkpt>
      <trkpt lat="22.839270" lon="109.847032">
        <ele>116.711426</ele>
        <time>2026-08-15T08:48:11.000Z</time>
      </trkpt>
      <trkpt lat="22.839244" lon="109.847089">
        <ele>116.640092</ele>
        <time>2026-08-15T08:48:12.000Z</time>
      </trkpt>
      <trkpt lat="22.839219" lon="109.847147">
        <ele>116.568276</ele>
        <time>2026-08-15T08:48:13.000Z</time>
      </trkpt>
      <trkpt lat="22.839192" lon="109.847205">
        <ele>116.495395</ele>
        <time>2026-08-15T08:48:14.000Z</time>
      </trkpt>
      <trkpt lat="22.839160" lon="109.847261">
        <ele>116.421491</ele>
        <time>2026-08-15T08:48:15.000Z</time>
      </trkpt>
      <trkpt lat="22.839127" lon="109.847319">
        <ele>116.345039</ele>
        <time>2026-08-15T08:48:16.000Z</time>
      </trkpt>
      <trkpt lat="22.839096" lon="109.847381">
        <ele>116.151104</ele>
        <time>2026-08-15T08:48:17.000Z</time>
      </trkpt>
      <trkpt lat="22.839061" lon="109.847444">
        <ele>115.897279</ele>
        <time>2026-08-15T08:48:18.000Z</time>
      </trkpt>
      <trkpt lat="22.839027" lon="109.847509">
        <ele>115.639389</ele>
        <time>2026-08-15T08:48:19.000Z</time>
      </trkpt>
      <trkpt lat="22.838993" lon="109.847575">
        <ele>115.378492</ele>
        <time>2026-08-15T08:48:20.000Z</time>
      </trkpt>
      <trkpt lat="22.838958" lon="109.847642">
        <ele>115.112751</ele>
        <time>2026-08-15T08:48:21.000Z</time>
      </trkpt>
      <trkpt lat="22.838923" lon="109.847710">
        <ele>114.844003</ele>
        <time>2026-08-15T08:48:22.000Z</time>
      </trkpt>
      <trkpt lat="22.838886" lon="109.847779">
        <ele>114.568549</ele>
        <time>2026-08-15T08:48:23.000Z</time>
      </trkpt>
      <trkpt lat="22.838850" lon="109.847850">
        <ele>114.288933</ele>
        <time>2026-08-15T08:48:24.000Z</time>
      </trkpt>
      <trkpt lat="22.838810" lon="109.847921">
        <ele>114.001797</ele>
        <time>2026-08-15T08:48:25.000Z</time>
      </trkpt>
      <trkpt lat="22.838772" lon="109.847994">
        <ele>113.712506</ele>
        <time>2026-08-15T08:48:26.000Z</time>
      </trkpt>
      <trkpt lat="22.838733" lon="109.848066">
        <ele>113.424336</ele>
        <time>2026-08-15T08:48:27.000Z</time>
      </trkpt>
      <trkpt lat="22.838693" lon="109.848140">
        <ele>113.128318</ele>
        <time>2026-08-15T08:48:28.000Z</time>
      </trkpt>
      <trkpt lat="22.838653" lon="109.848213">
        <ele>112.835272</ele>
        <time>2026-08-15T08:48:29.000Z</time>
      </trkpt>
      <trkpt lat="22.838613" lon="109.848287">
        <ele>112.539255</ele>
        <time>2026-08-15T08:48:30.000Z</time>
      </trkpt>
      <trkpt lat="22.838573" lon="109.848362">
        <ele>112.240256</ele>
        <time>2026-08-15T08:48:31.000Z</time>
      </trkpt>
      <trkpt lat="22.838533" lon="109.848440">
        <ele>111.932254</ele>
        <time>2026-08-15T08:48:32.000Z</time>
      </trkpt>
      <trkpt lat="22.838496" lon="109.848519">
        <ele>111.626482</ele>
        <time>2026-08-15T08:48:33.000Z</time>
      </trkpt>
      <trkpt lat="22.838458" lon="109.848598">
        <ele>111.318996</ele>
        <time>2026-08-15T08:48:34.000Z</time>
      </trkpt>
      <trkpt lat="22.838418" lon="109.848678">
        <ele>111.004945</ele>
        <time>2026-08-15T08:48:35.000Z</time>
      </trkpt>
      <trkpt lat="22.838377" lon="109.848758">
        <ele>110.689092</ele>
        <time>2026-08-15T08:48:36.000Z</time>
      </trkpt>
      <trkpt lat="22.838338" lon="109.848839">
        <ele>110.373756</ele>
        <time>2026-08-15T08:48:37.000Z</time>
      </trkpt>
      <trkpt lat="22.838299" lon="109.848921">
        <ele>110.055356</ele>
        <time>2026-08-15T08:48:38.000Z</time>
      </trkpt>
      <trkpt lat="22.838262" lon="109.849005">
        <ele>109.734109</ele>
        <time>2026-08-15T08:48:39.000Z</time>
      </trkpt>
      <trkpt lat="22.838228" lon="109.849092">
        <ele>109.465239</ele>
        <time>2026-08-15T08:48:40.000Z</time>
      </trkpt>
      <trkpt lat="22.838194" lon="109.849180">
        <ele>109.241214</ele>
        <time>2026-08-15T08:48:41.000Z</time>
      </trkpt>
      <trkpt lat="22.838161" lon="109.849268">
        <ele>109.018162</ele>
        <time>2026-08-15T08:48:42.000Z</time>
      </trkpt>
      <trkpt lat="22.838130" lon="109.849358">
        <ele>108.792587</ele>
        <time>2026-08-15T08:48:43.000Z</time>
      </trkpt>
      <trkpt lat="22.838101" lon="109.849451">
        <ele>108.562084</ele>
        <time>2026-08-15T08:48:44.000Z</time>
      </trkpt>
      <trkpt lat="22.838074" lon="109.849548">
        <ele>108.324190</ele>
        <time>2026-08-15T08:48:45.000Z</time>
      </trkpt>
      <trkpt lat="22.838049" lon="109.849645">
        <ele>108.087718</ele>
        <time>2026-08-15T08:48:46.000Z</time>
      </trkpt>
      <trkpt lat="22.838030" lon="109.849743">
        <ele>107.852600</ele>
        <time>2026-08-15T08:48:47.000Z</time>
      </trkpt>
      <trkpt lat="22.838016" lon="109.849841">
        <ele>107.619771</ele>
        <time>2026-08-15T08:48:48.000Z</time>
      </trkpt>
      <trkpt lat="22.838007" lon="109.849937">
        <ele>107.393221</ele>
        <time>2026-08-15T08:48:49.000Z</time>
      </trkpt>
      <trkpt lat="22.838005" lon="109.850034">
        <ele>107.165430</ele>
        <time>2026-08-15T08:48:50.000Z</time>
      </trkpt>
      <trkpt lat="22.838006" lon="109.850129">
        <ele>106.942377</ele>
        <time>2026-08-15T08:48:51.000Z</time>
      </trkpt>
      <trkpt lat="22.838009" lon="109.850223">
        <ele>106.721554</ele>
        <time>2026-08-15T08:48:52.000Z</time>
      </trkpt>
      <trkpt lat="22.838014" lon="109.850316">
        <ele>106.502840</ele>
        <time>2026-08-15T08:48:53.000Z</time>
      </trkpt>
      <trkpt lat="22.838019" lon="109.850408">
        <ele>106.286469</ele>
        <time>2026-08-15T08:48:54.000Z</time>
      </trkpt>
      <trkpt lat="22.838028" lon="109.850496">
        <ele>106.078597</ele>
        <time>2026-08-15T08:48:55.000Z</time>
      </trkpt>
      <trkpt lat="22.838038" lon="109.850585">
        <ele>105.868098</ele>
        <time>2026-08-15T08:48:56.000Z</time>
      </trkpt>
      <trkpt lat="22.838047" lon="109.850672">
        <ele>105.662559</ele>
        <time>2026-08-15T08:48:57.000Z</time>
      </trkpt>
      <trkpt lat="22.838058" lon="109.850759">
        <ele>105.456389</ele>
        <time>2026-08-15T08:48:58.000Z</time>
      </trkpt>
      <trkpt lat="22.838070" lon="109.850844">
        <ele>105.254501</ele>
        <time>2026-08-15T08:48:59.000Z</time>
      </trkpt>
      <trkpt lat="22.838085" lon="109.850928">
        <ele>105.053620</ele>
        <time>2026-08-15T08:49:00.000Z</time>
      </trkpt>
      <trkpt lat="22.838103" lon="109.851011">
        <ele>104.987822</ele>
        <time>2026-08-15T08:49:01.000Z</time>
      </trkpt>
      <trkpt lat="22.838124" lon="109.851092">
        <ele>104.965422</ele>
        <time>2026-08-15T08:49:02.000Z</time>
      </trkpt>
      <trkpt lat="22.838146" lon="109.851171">
        <ele>104.943451</ele>
        <time>2026-08-15T08:49:03.000Z</time>
      </trkpt>
      <trkpt lat="22.838169" lon="109.851250">
        <ele>104.921395</ele>
        <time>2026-08-15T08:49:04.000Z</time>
      </trkpt>
      <trkpt lat="22.838192" lon="109.851328">
        <ele>104.899593</ele>
        <time>2026-08-15T08:49:05.000Z</time>
      </trkpt>
      <trkpt lat="22.838218" lon="109.851404">
        <ele>104.878012</ele>
        <time>2026-08-15T08:49:06.000Z</time>
      </trkpt>
      <trkpt lat="22.838243" lon="109.851480">
        <ele>104.856529</ele>
        <time>2026-08-15T08:49:07.000Z</time>
      </trkpt>
      <trkpt lat="22.838268" lon="109.851555">
        <ele>104.835297</ele>
        <time>2026-08-15T08:49:08.000Z</time>
      </trkpt>
      <trkpt lat="22.838295" lon="109.851629">
        <ele>104.814109</ele>
        <time>2026-08-15T08:49:09.000Z</time>
      </trkpt>
      <trkpt lat="22.838324" lon="109.851702">
        <ele>104.792946</ele>
        <time>2026-08-15T08:49:10.000Z</time>
      </trkpt>
      <trkpt lat="22.838354" lon="109.851775">
        <ele>104.771668</ele>
        <time>2026-08-15T08:49:11.000Z</time>
      </trkpt>
      <trkpt lat="22.838384" lon="109.851850">
        <ele>104.749902</ele>
        <time>2026-08-15T08:49:12.000Z</time>
      </trkpt>
      <trkpt lat="22.838412" lon="109.851922">
        <ele>104.729097</ele>
        <time>2026-08-15T08:49:13.000Z</time>
      </trkpt>
      <trkpt lat="22.838434" lon="109.851993">
        <ele>104.709156</ele>
        <time>2026-08-15T08:49:14.000Z</time>
      </trkpt>
      <trkpt lat="22.838454" lon="109.852064">
        <ele>104.689392</ele>
        <time>2026-08-15T08:49:15.000Z</time>
      </trkpt>
      <trkpt lat="22.838474" lon="109.852138">
        <ele>104.668862</ele>
        <time>2026-08-15T08:49:16.000Z</time>
      </trkpt>
      <trkpt lat="22.838491" lon="109.852210">
        <ele>104.649075</ele>
        <time>2026-08-15T08:49:17.000Z</time>
      </trkpt>
      <trkpt lat="22.838509" lon="109.852281">
        <ele>104.629471</ele>
        <time>2026-08-15T08:49:18.000Z</time>
      </trkpt>
      <trkpt lat="22.838525" lon="109.852353">
        <ele>104.609754</ele>
        <time>2026-08-15T08:49:19.000Z</time>
      </trkpt>
      <trkpt lat="22.838539" lon="109.852425">
        <ele>104.590165</ele>
        <time>2026-08-15T08:49:20.000Z</time>
      </trkpt>
      <trkpt lat="22.838549" lon="109.852497">
        <ele>104.570781</ele>
        <time>2026-08-15T08:49:21.000Z</time>
      </trkpt>
      <trkpt lat="22.838557" lon="109.852569">
        <ele>104.551474</ele>
        <time>2026-08-15T08:49:22.000Z</time>
      </trkpt>
      <trkpt lat="22.838563" lon="109.852641">
        <ele>104.532228</ele>
        <time>2026-08-15T08:49:23.000Z</time>
      </trkpt>
      <trkpt lat="22.838565" lon="109.852713">
        <ele>104.513052</ele>
        <time>2026-08-15T08:49:24.000Z</time>
      </trkpt>
      <trkpt lat="22.838563" lon="109.852784">
        <ele>104.494141</ele>
        <time>2026-08-15T08:49:25.000Z</time>
      </trkpt>
      <trkpt lat="22.838557" lon="109.852855">
        <ele>104.499275</ele>
        <time>2026-08-15T08:49:26.000Z</time>
      </trkpt>
      <trkpt lat="22.838549" lon="109.852927">
        <ele>104.525231</ele>
        <time>2026-08-15T08:49:27.000Z</time>
      </trkpt>
      <trkpt lat="22.838538" lon="109.852997">
        <ele>104.550647</ele>
        <time>2026-08-15T08:49:28.000Z</time>
      </trkpt>
      <trkpt lat="22.838524" lon="109.853065">
        <ele>104.575586</ele>
        <time>2026-08-15T08:49:29.000Z</time>
      </trkpt>
      <trkpt lat="22.838510" lon="109.853132">
        <ele>104.600175</ele>
        <time>2026-08-15T08:49:30.000Z</time>
      </trkpt>
      <trkpt lat="22.838495" lon="109.853197">
        <ele>104.624158</ele>
        <time>2026-08-15T08:49:31.000Z</time>
      </trkpt>
      <trkpt lat="22.838476" lon="109.853261">
        <ele>104.648224</ele>
        <time>2026-08-15T08:49:32.000Z</time>
      </trkpt>
      <trkpt lat="22.838452" lon="109.853323">
        <ele>104.672293</ele>
        <time>2026-08-15T08:49:33.000Z</time>
      </trkpt>
      <trkpt lat="22.838427" lon="109.853384">
        <ele>104.696187</ele>
        <time>2026-08-15T08:49:34.000Z</time>
      </trkpt>
      <trkpt lat="22.838403" lon="109.853445">
        <ele>104.719926</ele>
        <time>2026-08-15T08:49:35.000Z</time>
      </trkpt>
      <trkpt lat="22.838378" lon="109.853504">
        <ele>104.743169</ele>
        <time>2026-08-15T08:49:36.000Z</time>
      </trkpt>
      <trkpt lat="22.838351" lon="109.853561">
        <ele>104.766107</ele>
        <time>2026-08-15T08:49:37.000Z</time>
      </trkpt>
      <trkpt lat="22.838323" lon="109.853616">
        <ele>104.788596</ele>
        <time>2026-08-15T08:49:38.000Z</time>
      </trkpt>
      <trkpt lat="22.838293" lon="109.853671">
        <ele>104.811471</ele>
        <time>2026-08-15T08:49:39.000Z</time>
      </trkpt>
      <trkpt lat="22.838264" lon="109.853725">
        <ele>104.833841</ele>
        <time>2026-08-15T08:49:40.000Z</time>
      </trkpt>
      <trkpt lat="22.838235" lon="109.853778">
        <ele>104.855902</ele>
        <time>2026-08-15T08:49:41.000Z</time>
      </trkpt>
      <trkpt lat="22.838205" lon="109.853832">
        <ele>104.878470</ele>
        <time>2026-08-15T08:49:42.000Z</time>
      </trkpt>
      <trkpt lat="22.838171" lon="109.853885">
        <ele>104.901583</ele>
        <time>2026-08-15T08:49:43.000Z</time>
      </trkpt>
      <trkpt lat="22.838138" lon="109.853938">
        <ele>104.924476</ele>
        <time>2026-08-15T08:49:44.000Z</time>
      </trkpt>
      <trkpt lat="22.838105" lon="109.853991">
        <ele>104.947369</ele>
        <time>2026-08-15T08:49:45.000Z</time>
      </trkpt>
      <trkpt lat="22.838071" lon="109.854045">
        <ele>104.970777</ele>
        <time>2026-08-15T08:49:46.000Z</time>
      </trkpt>
      <trkpt lat="22.838038" lon="109.854099">
        <ele>104.993968</ele>
        <time>2026-08-15T08:49:47.000Z</time>
      </trkpt>
      <trkpt lat="22.838006" lon="109.854153">
        <ele>105.016946</ele>
        <time>2026-08-15T08:49:48.000Z</time>
      </trkpt>
      <trkpt lat="22.837975" lon="109.854207">
        <ele>105.039717</ele>
        <time>2026-08-15T08:49:49.000Z</time>
      </trkpt>
      <trkpt lat="22.837944" lon="109.854260">
        <ele>105.062184</ele>
        <time>2026-08-15T08:49:50.000Z</time>
      </trkpt>
      <trkpt lat="22.837911" lon="109.854313">
        <ele>105.085078</ele>
        <time>2026-08-15T08:49:51.000Z</time>
      </trkpt>
      <trkpt lat="22.837878" lon="109.854364">
        <ele>105.107381</ele>
        <time>2026-08-15T08:49:52.000Z</time>
      </trkpt>
      <trkpt lat="22.837847" lon="109.854415">
        <ele>105.129248</ele>
        <time>2026-08-15T08:49:53.000Z</time>
      </trkpt>
      <trkpt lat="22.837816" lon="109.854465">
        <ele>105.150817</ele>
        <time>2026-08-15T08:49:54.000Z</time>
      </trkpt>
      <trkpt lat="22.837785" lon="109.854514">
        <ele>105.172090</ele>
        <time>2026-08-15T08:49:55.000Z</time>
      </trkpt>
      <trkpt lat="22.837757" lon="109.854563">
        <ele>105.190722</ele>
        <time>2026-08-15T08:49:56.000Z</time>
      </trkpt>
      <trkpt lat="22.837730" lon="109.854611">
        <ele>105.206242</ele>
        <time>2026-08-15T08:49:57.000Z</time>
      </trkpt>
      <trkpt lat="22.837702" lon="109.854658">
        <ele>105.221688</ele>
        <time>2026-08-15T08:49:58.000Z</time>
      </trkpt>
      <trkpt lat="22.837676" lon="109.854705">
        <ele>105.236817</ele>
        <time>2026-08-15T08:49:59.000Z</time>
      </trkpt>
      <trkpt lat="22.837650" lon="109.854752">
        <ele>105.251945</ele>
        <time>2026-08-15T08:50:00.000Z</time>
      </trkpt>
      <trkpt lat="22.837624" lon="109.854798">
        <ele>105.266838</ele>
        <time>2026-08-15T08:50:01.000Z</time>
      </trkpt>
      <trkpt lat="22.837599" lon="109.854845">
        <ele>105.281815</ele>
        <time>2026-08-15T08:50:02.000Z</time>
      </trkpt>
      <trkpt lat="22.837574" lon="109.854891">
        <ele>105.296553</ele>
        <time>2026-08-15T08:50:03.000Z</time>
      </trkpt>
      <trkpt lat="22.837548" lon="109.854936">
        <ele>105.311212</ele>
        <time>2026-08-15T08:50:04.000Z</time>
      </trkpt>
      <trkpt lat="22.837523" lon="109.854982">
        <ele>105.325950</ele>
        <time>2026-08-15T08:50:05.000Z</time>
      </trkpt>
      <trkpt lat="22.837500" lon="109.855027">
        <ele>105.340152</ele>
        <time>2026-08-15T08:50:06.000Z</time>
      </trkpt>
      <trkpt lat="22.837476" lon="109.855073">
        <ele>105.354740</ele>
        <time>2026-08-15T08:50:07.000Z</time>
      </trkpt>
      <trkpt lat="22.837452" lon="109.855118">
        <ele>105.369089</ele>
        <time>2026-08-15T08:50:08.000Z</time>
      </trkpt>
      <trkpt lat="22.837427" lon="109.855164">
        <ele>105.383828</ele>
        <time>2026-08-15T08:50:09.000Z</time>
      </trkpt>
      <trkpt lat="22.837402" lon="109.855208">
        <ele>105.398094</ele>
        <time>2026-08-15T08:50:10.000Z</time>
      </trkpt>
      <trkpt lat="22.837381" lon="109.855254">
        <ele>105.412261</ele>
        <time>2026-08-15T08:50:11.000Z</time>
      </trkpt>
      <trkpt lat="22.837358" lon="109.855299">
        <ele>105.426463</ele>
        <time>2026-08-15T08:50:12.000Z</time>
      </trkpt>
      <trkpt lat="22.837336" lon="109.855346">
        <ele>105.441011</ele>
        <time>2026-08-15T08:50:13.000Z</time>
      </trkpt>
      <trkpt lat="22.837316" lon="109.855394">
        <ele>105.455550</ele>
        <time>2026-08-15T08:50:14.000Z</time>
      </trkpt>
      <trkpt lat="22.837296" lon="109.855442">
        <ele>105.470088</ele>
        <time>2026-08-15T08:50:15.000Z</time>
      </trkpt>
      <trkpt lat="22.837274" lon="109.855490">
        <ele>105.484883</ele>
        <time>2026-08-15T08:50:16.000Z</time>
      </trkpt>
      <trkpt lat="22.837252" lon="109.855538">
        <ele>105.499678</ele>
        <time>2026-08-15T08:50:17.000Z</time>
      </trkpt>
      <trkpt lat="22.837231" lon="109.855585">
        <ele>105.514094</ele>
        <time>2026-08-15T08:50:18.000Z</time>
      </trkpt>
      <trkpt lat="22.837210" lon="109.855633">
        <ele>105.528758</ele>
        <time>2026-08-15T08:50:19.000Z</time>
      </trkpt>
      <trkpt lat="22.837189" lon="109.855681">
        <ele>105.543422</ele>
        <time>2026-08-15T08:50:20.000Z</time>
      </trkpt>
      <trkpt lat="22.837169" lon="109.855729">
        <ele>105.557961</ele>
        <time>2026-08-15T08:50:21.000Z</time>
      </trkpt>
      <trkpt lat="22.837149" lon="109.855777">
        <ele>105.572499</ele>
        <time>2026-08-15T08:50:22.000Z</time>
      </trkpt>
      <trkpt lat="22.837129" lon="109.855825">
        <ele>105.587038</ele>
        <time>2026-08-15T08:50:23.000Z</time>
      </trkpt>
      <trkpt lat="22.837109" lon="109.855873">
        <ele>105.601576</ele>
        <time>2026-08-15T08:50:24.000Z</time>
      </trkpt>
      <trkpt lat="22.837089" lon="109.855922">
        <ele>105.616366</ele>
        <time>2026-08-15T08:50:25.000Z</time>
      </trkpt>
      <trkpt lat="22.837069" lon="109.855972">
        <ele>105.631409</ele>
        <time>2026-08-15T08:50:26.000Z</time>
      </trkpt>
      <trkpt lat="22.837049" lon="109.856021">
        <ele>105.646200</ele>
        <time>2026-08-15T08:50:27.000Z</time>
      </trkpt>
      <trkpt lat="22.837029" lon="109.856069">
        <ele>105.660738</ele>
        <time>2026-08-15T08:50:28.000Z</time>
      </trkpt>
      <trkpt lat="22.837010" lon="109.856119">
        <ele>105.675665</ele>
        <time>2026-08-15T08:50:29.000Z</time>
      </trkpt>
      <trkpt lat="22.836991" lon="109.856170">
        <ele>105.690847</ele>
        <time>2026-08-15T08:50:30.000Z</time>
      </trkpt>
      <trkpt lat="22.836972" lon="109.856221">
        <ele>105.706028</ele>
        <time>2026-08-15T08:50:31.000Z</time>
      </trkpt>
      <trkpt lat="22.836953" lon="109.856270">
        <ele>105.720700</ele>
        <time>2026-08-15T08:50:32.000Z</time>
      </trkpt>
      <trkpt lat="22.836933" lon="109.856320">
        <ele>105.742104</ele>
        <time>2026-08-15T08:50:33.000Z</time>
      </trkpt>
      <trkpt lat="22.836912" lon="109.856371">
        <ele>105.764983</ele>
        <time>2026-08-15T08:50:34.000Z</time>
      </trkpt>
      <trkpt lat="22.836892" lon="109.856422">
        <ele>105.787683</ele>
        <time>2026-08-15T08:50:35.000Z</time>
      </trkpt>
      <trkpt lat="22.836872" lon="109.856473">
        <ele>105.810384</ele>
        <time>2026-08-15T08:50:36.000Z</time>
      </trkpt>
      <trkpt lat="22.836850" lon="109.856522">
        <ele>105.832709</ele>
        <time>2026-08-15T08:50:37.000Z</time>
      </trkpt>
      <trkpt lat="22.836828" lon="109.856570">
        <ele>105.854665</ele>
        <time>2026-08-15T08:50:38.000Z</time>
      </trkpt>
      <trkpt lat="22.836809" lon="109.856619">
        <ele>105.876439</ele>
        <time>2026-08-15T08:50:39.000Z</time>
      </trkpt>
      <trkpt lat="22.836792" lon="109.856670">
        <ele>105.898651</ele>
        <time>2026-08-15T08:50:40.000Z</time>
      </trkpt>
      <trkpt lat="22.836775" lon="109.856720">
        <ele>105.920479</ele>
        <time>2026-08-15T08:50:41.000Z</time>
      </trkpt>
      <trkpt lat="22.836757" lon="109.856769">
        <ele>105.942084</ele>
        <time>2026-08-15T08:50:42.000Z</time>
      </trkpt>
      <trkpt lat="22.836739" lon="109.856816">
        <ele>105.962930</ele>
        <time>2026-08-15T08:50:43.000Z</time>
      </trkpt>
      <trkpt lat="22.836722" lon="109.856861">
        <ele>105.982850</ele>
        <time>2026-08-15T08:50:44.000Z</time>
      </trkpt>
      <trkpt lat="22.836704" lon="109.856905">
        <ele>106.002567</ele>
        <time>2026-08-15T08:50:45.000Z</time>
      </trkpt>
      <trkpt lat="22.836688" lon="109.856950">
        <ele>106.022322</ele>
        <time>2026-08-15T08:50:46.000Z</time>
      </trkpt>
      <trkpt lat="22.836672" lon="109.856995">
        <ele>106.042077</ele>
        <time>2026-08-15T08:50:47.000Z</time>
      </trkpt>
      <trkpt lat="22.836657" lon="109.857039">
        <ele>106.061292</ele>
        <time>2026-08-15T08:50:48.000Z</time>
      </trkpt>
      <trkpt lat="22.836642" lon="109.857085">
        <ele>106.081277</ele>
        <time>2026-08-15T08:50:49.000Z</time>
      </trkpt>
      <trkpt lat="22.836627" lon="109.857130">
        <ele>106.100877</ele>
        <time>2026-08-15T08:50:50.000Z</time>
      </trkpt>
      <trkpt lat="22.836609" lon="109.857172">
        <ele>106.119848</ele>
        <time>2026-08-15T08:50:51.000Z</time>
      </trkpt>
      <trkpt lat="22.836591" lon="109.857214">
        <ele>106.138819</ele>
        <time>2026-08-15T08:50:52.000Z</time>
      </trkpt>
      <trkpt lat="22.836571" lon="109.857257">
        <ele>106.158547</ele>
        <time>2026-08-15T08:50:53.000Z</time>
      </trkpt>
      <trkpt lat="22.836551" lon="109.857301">
        <ele>106.178641</ele>
        <time>2026-08-15T08:50:54.000Z</time>
      </trkpt>
      <trkpt lat="22.836532" lon="109.857345">
        <ele>106.198543</ele>
        <time>2026-08-15T08:50:55.000Z</time>
      </trkpt>
      <trkpt lat="22.836516" lon="109.857388">
        <ele>106.217536</ele>
        <time>2026-08-15T08:50:56.000Z</time>
      </trkpt>
      <trkpt lat="22.836495" lon="109.857428">
        <ele>106.236391</ele>
        <time>2026-08-15T08:50:57.000Z</time>
      </trkpt>
      <trkpt lat="22.836478" lon="109.857473">
        <ele>106.256310</ele>
        <time>2026-08-15T08:50:58.000Z</time>
      </trkpt>
      <trkpt lat="22.836462" lon="109.857517">
        <ele>106.275684</ele>
        <time>2026-08-15T08:50:59.000Z</time>
      </trkpt>
      <trkpt lat="22.836443" lon="109.857561">
        <ele>106.295585</ele>
        <time>2026-08-15T08:51:00.000Z</time>
      </trkpt>
      <trkpt lat="22.836424" lon="109.857605">
        <ele>106.315487</ele>
        <time>2026-08-15T08:51:01.000Z</time>
      </trkpt>
      <trkpt lat="22.836405" lon="109.857649">
        <ele>106.335389</ele>
        <time>2026-08-15T08:51:02.000Z</time>
      </trkpt>
      <trkpt lat="22.836386" lon="109.857693">
        <ele>106.355290</ele>
        <time>2026-08-15T08:51:03.000Z</time>
      </trkpt>
      <trkpt lat="22.836368" lon="109.857737">
        <ele>106.375007</ele>
        <time>2026-08-15T08:51:04.000Z</time>
      </trkpt>
      <trkpt lat="22.836350" lon="109.857783">
        <ele>106.395476</ele>
        <time>2026-08-15T08:51:05.000Z</time>
      </trkpt>
      <trkpt lat="22.836332" lon="109.857829">
        <ele>106.415944</ele>
        <time>2026-08-15T08:51:06.000Z</time>
      </trkpt>
      <trkpt lat="22.836313" lon="109.857875">
        <ele>106.436591</ele>
        <time>2026-08-15T08:51:07.000Z</time>
      </trkpt>
      <trkpt lat="22.836295" lon="109.857923">
        <ele>106.457816</ele>
        <time>2026-08-15T08:51:08.000Z</time>
      </trkpt>
      <trkpt lat="22.836276" lon="109.857971">
        <ele>106.479212</ele>
        <time>2026-08-15T08:51:09.000Z</time>
      </trkpt>
      <trkpt lat="22.836259" lon="109.858019">
        <ele>106.500274</ele>
        <time>2026-08-15T08:51:10.000Z</time>
      </trkpt>
      <trkpt lat="22.836240" lon="109.858068">
        <ele>106.522016</ele>
        <time>2026-08-15T08:51:11.000Z</time>
      </trkpt>
      <trkpt lat="22.836221" lon="109.858117">
        <ele>106.537246</ele>
        <time>2026-08-15T08:51:12.000Z</time>
      </trkpt>
      <trkpt lat="22.836200" lon="109.858166">
        <ele>106.552728</ele>
        <time>2026-08-15T08:51:13.000Z</time>
      </trkpt>
      <trkpt lat="22.836181" lon="109.858215">
        <ele>106.567958</ele>
        <time>2026-08-15T08:51:14.000Z</time>
      </trkpt>
      <trkpt lat="22.836162" lon="109.858265">
        <ele>106.583452</ele>
        <time>2026-08-15T08:51:15.000Z</time>
      </trkpt>
      <trkpt lat="22.836143" lon="109.858316">
        <ele>106.599212</ele>
        <time>2026-08-15T08:51:16.000Z</time>
      </trkpt>
      <trkpt lat="22.836123" lon="109.858368">
        <ele>106.615354</ele>
        <time>2026-08-15T08:51:17.000Z</time>
      </trkpt>
      <trkpt lat="22.836104" lon="109.858419">
        <ele>106.631114</ele>
        <time>2026-08-15T08:51:18.000Z</time>
      </trkpt>
      <trkpt lat="22.836080" lon="109.858467">
        <ele>106.646759</ele>
        <time>2026-08-15T08:51:19.000Z</time>
      </trkpt>
      <trkpt lat="22.836060" lon="109.858514">
        <ele>106.661590</ele>
        <time>2026-08-15T08:51:20.000Z</time>
      </trkpt>
      <trkpt lat="22.836041" lon="109.858561">
        <ele>106.676293</ele>
        <time>2026-08-15T08:51:21.000Z</time>
      </trkpt>
      <trkpt lat="22.836023" lon="109.858605">
        <ele>106.690085</ele>
        <time>2026-08-15T08:51:22.000Z</time>
      </trkpt>
      <trkpt lat="22.836008" lon="109.858643">
        <ele>106.701928</ele>
        <time>2026-08-15T08:51:23.000Z</time>
      </trkpt>
      <trkpt lat="22.835995" lon="109.858676">
        <ele>106.712210</ele>
        <time>2026-08-15T08:51:24.000Z</time>
      </trkpt>
      <trkpt lat="22.835982" lon="109.858707">
        <ele>106.721967</ele>
        <time>2026-08-15T08:51:25.000Z</time>
      </trkpt>
      <trkpt lat="22.835967" lon="109.858735">
        <ele>106.731246</ele>
        <time>2026-08-15T08:51:26.000Z</time>
      </trkpt>
      <trkpt lat="22.835954" lon="109.858758">
        <ele>106.738976</ele>
        <time>2026-08-15T08:51:27.000Z</time>
      </trkpt>
      <trkpt lat="22.835948" lon="109.858771">
        <ele>106.743141</ele>
        <time>2026-08-15T08:51:28.000Z</time>
      </trkpt>
      <trkpt lat="22.835943" lon="109.858777">
        <ele>106.745458</ele>
        <time>2026-08-15T08:51:29.000Z</time>
      </trkpt>
      <trkpt lat="22.835920" lon="109.858832">
        <ele>106.762761</ele>
        <time>2026-08-15T08:53:05.000Z</time>
      </trkpt>
      <trkpt lat="22.835909" lon="109.858852">
        <ele>106.769434</ele>
        <time>2026-08-15T08:53:06.000Z</time>
      </trkpt>
      <trkpt lat="22.835900" lon="109.858877">
        <ele>106.777123</ele>
        <time>2026-08-15T08:53:07.000Z</time>
      </trkpt>
      <trkpt lat="22.835889" lon="109.858906">
        <ele>106.786108</ele>
        <time>2026-08-15T08:53:08.000Z</time>
      </trkpt>
      <trkpt lat="22.835880" lon="109.858941">
        <ele>106.796518</ele>
        <time>2026-08-15T08:53:09.000Z</time>
      </trkpt>
      <trkpt lat="22.835869" lon="109.858977">
        <ele>106.807384</ele>
        <time>2026-08-15T08:53:10.000Z</time>
      </trkpt>
      <trkpt lat="22.835855" lon="109.859014">
        <ele>106.818842</ele>
        <time>2026-08-15T08:53:11.000Z</time>
      </trkpt>
      <trkpt lat="22.835840" lon="109.859052">
        <ele>106.830686</ele>
        <time>2026-08-15T08:53:12.000Z</time>
      </trkpt>
      <trkpt lat="22.835823" lon="109.859092">
        <ele>106.843305</ele>
        <time>2026-08-15T08:53:13.000Z</time>
      </trkpt>
      <trkpt lat="22.835806" lon="109.859132">
        <ele>106.855924</ele>
        <time>2026-08-15T08:53:14.000Z</time>
      </trkpt>
      <trkpt lat="22.835791" lon="109.859174">
        <ele>106.868829</ele>
        <time>2026-08-15T08:53:15.000Z</time>
      </trkpt>
      <trkpt lat="22.835774" lon="109.859217">
        <ele>106.882234</ele>
        <time>2026-08-15T08:53:16.000Z</time>
      </trkpt>
      <trkpt lat="22.835758" lon="109.859261">
        <ele>106.895785</ele>
        <time>2026-08-15T08:53:17.000Z</time>
      </trkpt>
      <trkpt lat="22.835742" lon="109.859304">
        <ele>106.909070</ele>
        <time>2026-08-15T08:53:18.000Z</time>
      </trkpt>
      <trkpt lat="22.835729" lon="109.859348">
        <ele>106.922308</ele>
        <time>2026-08-15T08:53:19.000Z</time>
      </trkpt>
      <trkpt lat="22.835715" lon="109.859393">
        <ele>106.935915</ele>
        <time>2026-08-15T08:53:20.000Z</time>
      </trkpt>
      <trkpt lat="22.835698" lon="109.859438">
        <ele>106.949848</ele>
        <time>2026-08-15T08:53:21.000Z</time>
      </trkpt>
      <trkpt lat="22.835679" lon="109.859479">
        <ele>106.962995</ele>
        <time>2026-08-15T08:53:22.000Z</time>
      </trkpt>
      <trkpt lat="22.835661" lon="109.859520">
        <ele>106.976006</ele>
        <time>2026-08-15T08:53:23.000Z</time>
      </trkpt>
      <trkpt lat="22.835642" lon="109.859562">
        <ele>106.989410</ele>
        <time>2026-08-15T08:53:24.000Z</time>
      </trkpt>
      <trkpt lat="22.835623" lon="109.859603">
        <ele>107.002557</ele>
        <time>2026-08-15T08:53:25.000Z</time>
      </trkpt>
      <trkpt lat="22.835605" lon="109.859643">
        <ele>107.015310</ele>
        <time>2026-08-15T08:53:26.000Z</time>
      </trkpt>
      <trkpt lat="22.835585" lon="109.859683">
        <ele>107.028348</ele>
        <time>2026-08-15T08:53:27.000Z</time>
      </trkpt>
      <trkpt lat="22.835564" lon="109.859725">
        <ele>107.042037</ele>
        <time>2026-08-15T08:53:28.000Z</time>
      </trkpt>
      <trkpt lat="22.835543" lon="109.859765">
        <ele>107.055226</ele>
        <time>2026-08-15T08:53:29.000Z</time>
      </trkpt>
      <trkpt lat="22.835522" lon="109.859805">
        <ele>107.068414</ele>
        <time>2026-08-15T08:53:30.000Z</time>
      </trkpt>
      <trkpt lat="22.835500" lon="109.859844">
        <ele>107.080971</ele>
        <time>2026-08-15T08:53:31.000Z</time>
      </trkpt>
      <trkpt lat="22.835476" lon="109.859882">
        <ele>107.078274</ele>
        <time>2026-08-15T08:53:32.000Z</time>
      </trkpt>
      <trkpt lat="22.835451" lon="109.859917">
        <ele>107.075681</ele>
        <time>2026-08-15T08:53:33.000Z</time>
      </trkpt>
      <trkpt lat="22.835424" lon="109.859952">
        <ele>107.073009</ele>
        <time>2026-08-15T08:53:34.000Z</time>
      </trkpt>
      <trkpt lat="22.835398" lon="109.859986">
        <ele>107.070422</ele>
        <time>2026-08-15T08:53:35.000Z</time>
      </trkpt>
      <trkpt lat="22.835371" lon="109.860019">
        <ele>107.067838</ele>
        <time>2026-08-15T08:53:36.000Z</time>
      </trkpt>
      <trkpt lat="22.835343" lon="109.860052">
        <ele>107.065212</ele>
        <time>2026-08-15T08:53:37.000Z</time>
      </trkpt>
      <trkpt lat="22.835314" lon="109.860084">
        <ele>107.062585</ele>
        <time>2026-08-15T08:53:38.000Z</time>
      </trkpt>
      <trkpt lat="22.835287" lon="109.860116">
        <ele>107.060044</ele>
        <time>2026-08-15T08:53:39.000Z</time>
      </trkpt>
      <trkpt lat="22.835257" lon="109.860147">
        <ele>107.057413</ele>
        <time>2026-08-15T08:53:40.000Z</time>
      </trkpt>
      <trkpt lat="22.835225" lon="109.860175">
        <ele>107.054801</ele>
        <time>2026-08-15T08:53:41.000Z</time>
      </trkpt>
      <trkpt lat="22.835192" lon="109.860202">
        <ele>107.052176</ele>
        <time>2026-08-15T08:53:42.000Z</time>
      </trkpt>
      <trkpt lat="22.835157" lon="109.860226">
        <ele>107.049545</ele>
        <time>2026-08-15T08:53:43.000Z</time>
      </trkpt>
      <trkpt lat="22.835121" lon="109.860251">
        <ele>107.046830</ele>
        <time>2026-08-15T08:53:44.000Z</time>
      </trkpt>
      <trkpt lat="22.835083" lon="109.860275">
        <ele>107.044037</ele>
        <time>2026-08-15T08:53:45.000Z</time>
      </trkpt>
      <trkpt lat="22.835045" lon="109.860300">
        <ele>107.041214</ele>
        <time>2026-08-15T08:53:46.000Z</time>
      </trkpt>
      <trkpt lat="22.835005" lon="109.860324">
        <ele>107.038310</ele>
        <time>2026-08-15T08:53:47.000Z</time>
      </trkpt>
      <trkpt lat="22.834966" lon="109.860347">
        <ele>107.035490</ele>
        <time>2026-08-15T08:53:48.000Z</time>
      </trkpt>
      <trkpt lat="22.834926" lon="109.860369">
        <ele>107.032641</ele>
        <time>2026-08-15T08:53:49.000Z</time>
      </trkpt>
      <trkpt lat="22.834886" lon="109.860391">
        <ele>107.029792</ele>
        <time>2026-08-15T08:53:50.000Z</time>
      </trkpt>
      <trkpt lat="22.834845" lon="109.860413">
        <ele>107.026887</ele>
        <time>2026-08-15T08:53:51.000Z</time>
      </trkpt>
      <trkpt lat="22.834806" lon="109.860431">
        <ele>107.024194</ele>
        <time>2026-08-15T08:53:52.000Z</time>
      </trkpt>
      <trkpt lat="22.834767" lon="109.860450">
        <ele>107.021478</ele>
        <time>2026-08-15T08:53:53.000Z</time>
      </trkpt>
      <trkpt lat="22.834726" lon="109.860470">
        <ele>107.018623</ele>
        <time>2026-08-15T08:53:54.000Z</time>
      </trkpt>
      <trkpt lat="22.834684" lon="109.860492">
        <ele>107.015660</ele>
        <time>2026-08-15T08:53:55.000Z</time>
      </trkpt>
      <trkpt lat="22.834642" lon="109.860515">
        <ele>107.012671</ele>
        <time>2026-08-15T08:53:56.000Z</time>
      </trkpt>
      <trkpt lat="22.834601" lon="109.860535">
        <ele>107.009815</ele>
        <time>2026-08-15T08:53:57.000Z</time>
      </trkpt>
      <trkpt lat="22.834559" lon="109.860554">
        <ele>107.006925</ele>
        <time>2026-08-15T08:53:58.000Z</time>
      </trkpt>
      <trkpt lat="22.834517" lon="109.860573">
        <ele>107.004034</ele>
        <time>2026-08-15T08:53:59.000Z</time>
      </trkpt>
      <trkpt lat="22.834475" lon="109.860594">
        <ele>107.001096</ele>
        <time>2026-08-15T08:54:00.000Z</time>
      </trkpt>
      <trkpt lat="22.834434" lon="109.860615">
        <ele>106.998216</ele>
        <time>2026-08-15T08:54:01.000Z</time>
      </trkpt>
      <trkpt lat="22.834391" lon="109.860636">
        <ele>106.995220</ele>
        <time>2026-08-15T08:54:02.000Z</time>
      </trkpt>
      <trkpt lat="22.834349" lon="109.860657">
        <ele>106.992282</ele>
        <time>2026-08-15T08:54:03.000Z</time>
      </trkpt>
      <trkpt lat="22.834306" lon="109.860677">
        <ele>106.989310</ele>
        <time>2026-08-15T08:54:04.000Z</time>
      </trkpt>
      <trkpt lat="22.834263" lon="109.860698">
        <ele>106.986315</ele>
        <time>2026-08-15T08:54:05.000Z</time>
      </trkpt>
      <trkpt lat="22.834222" lon="109.860721">
        <ele>106.983383</ele>
        <time>2026-08-15T08:54:06.000Z</time>
      </trkpt>
      <trkpt lat="22.834179" lon="109.860743">
        <ele>106.980362</ele>
        <time>2026-08-15T08:54:07.000Z</time>
      </trkpt>
      <trkpt lat="22.834136" lon="109.860762">
        <ele>106.977413</ele>
        <time>2026-08-15T08:54:08.000Z</time>
      </trkpt>
      <trkpt lat="22.834094" lon="109.860780">
        <ele>106.974544</ele>
        <time>2026-08-15T08:54:09.000Z</time>
      </trkpt>
      <trkpt lat="22.834051" lon="109.860799">
        <ele>106.971595</ele>
        <time>2026-08-15T08:54:10.000Z</time>
      </trkpt>
      <trkpt lat="22.834009" lon="109.860820">
        <ele>106.968657</ele>
        <time>2026-08-15T08:54:11.000Z</time>
      </trkpt>
      <trkpt lat="22.833966" lon="109.860841">
        <ele>106.968169</ele>
        <time>2026-08-15T08:54:12.000Z</time>
      </trkpt>
      <trkpt lat="22.833923" lon="109.860862">
        <ele>106.971772</ele>
        <time>2026-08-15T08:54:13.000Z</time>
      </trkpt>
      <trkpt lat="22.833880" lon="109.860881">
        <ele>106.975318</ele>
        <time>2026-08-15T08:54:14.000Z</time>
      </trkpt>
      <trkpt lat="22.833838" lon="109.860903">
        <ele>106.978881</ele>
        <time>2026-08-15T08:54:15.000Z</time>
      </trkpt>
      <trkpt lat="22.833797" lon="109.860923">
        <ele>106.982315</ele>
        <time>2026-08-15T08:54:16.000Z</time>
      </trkpt>
      <trkpt lat="22.833754" lon="109.860943">
        <ele>106.985889</ele>
        <time>2026-08-15T08:54:17.000Z</time>
      </trkpt>
      <trkpt lat="22.833711" lon="109.860964">
        <ele>106.989491</ele>
        <time>2026-08-15T08:54:18.000Z</time>
      </trkpt>
      <trkpt lat="22.833666" lon="109.860984">
        <ele>106.993206</ele>
        <time>2026-08-15T08:54:19.000Z</time>
      </trkpt>
      <trkpt lat="22.833622" lon="109.861006">
        <ele>106.996907</ele>
        <time>2026-08-15T08:54:20.000Z</time>
      </trkpt>
      <trkpt lat="22.833578" lon="109.861028">
        <ele>107.000608</ele>
        <time>2026-08-15T08:54:21.000Z</time>
      </trkpt>
      <trkpt lat="22.833535" lon="109.861049">
        <ele>107.004210</ele>
        <time>2026-08-15T08:54:22.000Z</time>
      </trkpt>
      <trkpt lat="22.833490" lon="109.861069">
        <ele>107.007925</ele>
        <time>2026-08-15T08:54:23.000Z</time>
      </trkpt>
      <trkpt lat="22.833446" lon="109.861091">
        <ele>107.011626</ele>
        <time>2026-08-15T08:54:24.000Z</time>
      </trkpt>
      <trkpt lat="22.833403" lon="109.861112">
        <ele>107.015228</ele>
        <time>2026-08-15T08:54:25.000Z</time>
      </trkpt>
      <trkpt lat="22.833359" lon="109.861133">
        <ele>107.018900</ele>
        <time>2026-08-15T08:54:26.000Z</time>
      </trkpt>
      <trkpt lat="22.833315" lon="109.861154">
        <ele>107.022572</ele>
        <time>2026-08-15T08:54:27.000Z</time>
      </trkpt>
      <trkpt lat="22.833270" lon="109.861176">
        <ele>107.026342</ele>
        <time>2026-08-15T08:54:28.000Z</time>
      </trkpt>
      <trkpt lat="22.833226" lon="109.861195">
        <ele>107.029960</ele>
        <time>2026-08-15T08:54:29.000Z</time>
      </trkpt>
      <trkpt lat="22.833182" lon="109.861214">
        <ele>107.033577</ele>
        <time>2026-08-15T08:54:30.000Z</time>
      </trkpt>
      <trkpt lat="22.833137" lon="109.861234">
        <ele>107.037292</ele>
        <time>2026-08-15T08:54:31.000Z</time>
      </trkpt>
      <trkpt lat="22.833091" lon="109.861257">
        <ele>107.041161</ele>
        <time>2026-08-15T08:54:32.000Z</time>
      </trkpt>
      <trkpt lat="22.833046" lon="109.861280">
        <ele>107.044961</ele>
        <time>2026-08-15T08:54:33.000Z</time>
      </trkpt>
      <trkpt lat="22.833001" lon="109.861302">
        <ele>107.048732</ele>
        <time>2026-08-15T08:54:34.000Z</time>
      </trkpt>
      <trkpt lat="22.832956" lon="109.861323">
        <ele>107.052474</ele>
        <time>2026-08-15T08:54:35.000Z</time>
      </trkpt>
      <trkpt lat="22.832911" lon="109.861347">
        <ele>107.056304</ele>
        <time>2026-08-15T08:54:36.000Z</time>
      </trkpt>
      <trkpt lat="22.832868" lon="109.861369">
        <ele>107.059936</ele>
        <time>2026-08-15T08:54:37.000Z</time>
      </trkpt>
      <trkpt lat="22.832823" lon="109.861391">
        <ele>107.063706</ele>
        <time>2026-08-15T08:54:38.000Z</time>
      </trkpt>
      <trkpt lat="22.832778" lon="109.861413">
        <ele>107.067477</ele>
        <time>2026-08-15T08:54:39.000Z</time>
      </trkpt>
      <trkpt lat="22.832733" lon="109.861436">
        <ele>107.071277</ele>
        <time>2026-08-15T08:54:40.000Z</time>
      </trkpt>
      <trkpt lat="22.832688" lon="109.861460">
        <ele>107.075107</ele>
        <time>2026-08-15T08:54:41.000Z</time>
      </trkpt>
      <trkpt lat="22.832644" lon="109.861482">
        <ele>107.078808</ele>
        <time>2026-08-15T08:54:42.000Z</time>
      </trkpt>
      <trkpt lat="22.832600" lon="109.861504">
        <ele>107.082509</ele>
        <time>2026-08-15T08:54:43.000Z</time>
      </trkpt>
      <trkpt lat="22.832554" lon="109.861527">
        <ele>107.086378</ele>
        <time>2026-08-15T08:54:44.000Z</time>
      </trkpt>
      <trkpt lat="22.832507" lon="109.861550">
        <ele>107.090317</ele>
        <time>2026-08-15T08:54:45.000Z</time>
      </trkpt>
      <trkpt lat="22.832460" lon="109.861570">
        <ele>107.094173</ele>
        <time>2026-08-15T08:54:46.000Z</time>
      </trkpt>
      <trkpt lat="22.832414" lon="109.861590">
        <ele>107.097959</ele>
        <time>2026-08-15T08:54:47.000Z</time>
      </trkpt>
      <trkpt lat="22.832369" lon="109.861612">
        <ele>107.101729</ele>
        <time>2026-08-15T08:54:48.000Z</time>
      </trkpt>
      <trkpt lat="22.832323" lon="109.861633">
        <ele>107.101977</ele>
        <time>2026-08-15T08:54:49.000Z</time>
      </trkpt>
      <trkpt lat="22.832277" lon="109.861652">
        <ele>107.095747</ele>
        <time>2026-08-15T08:54:50.000Z</time>
      </trkpt>
      <trkpt lat="22.832232" lon="109.861672">
        <ele>107.089592</ele>
        <time>2026-08-15T08:54:51.000Z</time>
      </trkpt>
      <trkpt lat="22.832185" lon="109.861694">
        <ele>107.083114</ele>
        <time>2026-08-15T08:54:52.000Z</time>
      </trkpt>
      <trkpt lat="22.832139" lon="109.861713">
        <ele>107.076884</ele>
        <time>2026-08-15T08:54:53.000Z</time>
      </trkpt>
      <trkpt lat="22.832093" lon="109.861731">
        <ele>107.070695</ele>
        <time>2026-08-15T08:54:54.000Z</time>
      </trkpt>
      <trkpt lat="22.832045" lon="109.861752">
        <ele>107.064144</ele>
        <time>2026-08-15T08:54:55.000Z</time>
      </trkpt>
      <trkpt lat="22.831998" lon="109.861777">
        <ele>107.057519</ele>
        <time>2026-08-15T08:54:56.000Z</time>
      </trkpt>
      <trkpt lat="22.831949" lon="109.861797">
        <ele>107.050893</ele>
        <time>2026-08-15T08:54:57.000Z</time>
      </trkpt>
      <trkpt lat="22.831901" lon="109.861815">
        <ele>107.044465</ele>
        <time>2026-08-15T08:54:58.000Z</time>
      </trkpt>
      <trkpt lat="22.831853" lon="109.861835">
        <ele>107.037957</ele>
        <time>2026-08-15T08:54:59.000Z</time>
      </trkpt>
      <trkpt lat="22.831806" lon="109.861854">
        <ele>107.031609</ele>
        <time>2026-08-15T08:55:00.000Z</time>
      </trkpt>
      <trkpt lat="22.831759" lon="109.861874">
        <ele>107.025219</ele>
        <time>2026-08-15T08:55:01.000Z</time>
      </trkpt>
      <trkpt lat="22.831710" lon="109.861897">
        <ele>107.018462</ele>
        <time>2026-08-15T08:55:02.000Z</time>
      </trkpt>
      <trkpt lat="22.831661" lon="109.861917">
        <ele>107.011836</ele>
        <time>2026-08-15T08:55:03.000Z</time>
      </trkpt>
      <trkpt lat="22.831612" lon="109.861934">
        <ele>107.005325</ele>
        <time>2026-08-15T08:55:04.000Z</time>
      </trkpt>
      <trkpt lat="22.831564" lon="109.861954">
        <ele>106.998817</ele>
        <time>2026-08-15T08:55:05.000Z</time>
      </trkpt>
      <trkpt lat="22.831515" lon="109.861972">
        <ele>106.992269</ele>
        <time>2026-08-15T08:55:06.000Z</time>
      </trkpt>
      <trkpt lat="22.831465" lon="109.861989">
        <ele>106.985638</ele>
        <time>2026-08-15T08:55:07.000Z</time>
      </trkpt>
      <trkpt lat="22.831413" lon="109.862005">
        <ele>106.978797</ele>
        <time>2026-08-15T08:55:08.000Z</time>
      </trkpt>
      <trkpt lat="22.831362" lon="109.862020">
        <ele>106.972109</ele>
        <time>2026-08-15T08:55:09.000Z</time>
      </trkpt>
      <trkpt lat="22.831309" lon="109.862034">
        <ele>106.965205</ele>
        <time>2026-08-15T08:55:10.000Z</time>
      </trkpt>
      <trkpt lat="22.831259" lon="109.862053">
        <ele>106.958499</ele>
        <time>2026-08-15T08:55:11.000Z</time>
      </trkpt>
      <trkpt lat="22.831207" lon="109.862070">
        <ele>106.951626</ele>
        <time>2026-08-15T08:55:12.000Z</time>
      </trkpt>
      <trkpt lat="22.831156" lon="109.862085">
        <ele>106.944938</ele>
        <time>2026-08-15T08:55:13.000Z</time>
      </trkpt>
      <trkpt lat="22.831103" lon="109.862096">
        <ele>106.938108</ele>
        <time>2026-08-15T08:55:14.000Z</time>
      </trkpt>
      <trkpt lat="22.831048" lon="109.862111">
        <ele>106.930930</ele>
        <time>2026-08-15T08:55:15.000Z</time>
      </trkpt>
      <trkpt lat="22.830993" lon="109.862127">
        <ele>106.923723</ele>
        <time>2026-08-15T08:55:16.000Z</time>
      </trkpt>
      <trkpt lat="22.830940" lon="109.862143">
        <ele>106.916760</ele>
        <time>2026-08-15T08:55:17.000Z</time>
      </trkpt>
      <trkpt lat="22.830887" lon="109.862158">
        <ele>106.909828</ele>
        <time>2026-08-15T08:55:18.000Z</time>
      </trkpt>
      <trkpt lat="22.830836" lon="109.862174">
        <ele>106.903108</ele>
        <time>2026-08-15T08:55:19.000Z</time>
      </trkpt>
      <trkpt lat="22.830785" lon="109.862188">
        <ele>106.896450</ele>
        <time>2026-08-15T08:55:20.000Z</time>
      </trkpt>
      <trkpt lat="22.830734" lon="109.862202">
        <ele>106.889792</ele>
        <time>2026-08-15T08:55:21.000Z</time>
      </trkpt>
      <trkpt lat="22.830680" lon="109.862218">
        <ele>106.882707</ele>
        <time>2026-08-15T08:55:22.000Z</time>
      </trkpt>
      <trkpt lat="22.830628" lon="109.862232">
        <ele>106.878242</ele>
        <time>2026-08-15T08:55:23.000Z</time>
      </trkpt>
      <trkpt lat="22.830575" lon="109.862246">
        <ele>106.896954</ele>
        <time>2026-08-15T08:55:24.000Z</time>
      </trkpt>
      <trkpt lat="22.830524" lon="109.862258">
        <ele>106.914854</ele>
        <time>2026-08-15T08:55:25.000Z</time>
      </trkpt>
      <trkpt lat="22.830474" lon="109.862271">
        <ele>106.932491</ele>
        <time>2026-08-15T08:55:26.000Z</time>
      </trkpt>
      <trkpt lat="22.830422" lon="109.862286">
        <ele>106.950948</ele>
        <time>2026-08-15T08:55:27.000Z</time>
      </trkpt>
      <trkpt lat="22.830369" lon="109.862301">
        <ele>106.969737</ele>
        <time>2026-08-15T08:55:28.000Z</time>
      </trkpt>
      <trkpt lat="22.830316" lon="109.862317">
        <ele>106.988608</ele>
        <time>2026-08-15T08:55:29.000Z</time>
      </trkpt>
      <trkpt lat="22.830262" lon="109.862329">
        <ele>107.007516</ele>
        <time>2026-08-15T08:55:30.000Z</time>
      </trkpt>
      <trkpt lat="22.830210" lon="109.862342">
        <ele>107.025821</ele>
        <time>2026-08-15T08:55:31.000Z</time>
      </trkpt>
      <trkpt lat="22.830159" lon="109.862357">
        <ele>107.043946</ele>
        <time>2026-08-15T08:55:32.000Z</time>
      </trkpt>
      <trkpt lat="22.830108" lon="109.862371">
        <ele>107.061992</ele>
        <time>2026-08-15T08:55:33.000Z</time>
      </trkpt>
      <trkpt lat="22.830057" lon="109.862388">
        <ele>107.080293</ele>
        <time>2026-08-15T08:55:34.000Z</time>
      </trkpt>
      <trkpt lat="22.830006" lon="109.862406">
        <ele>107.098690</ele>
        <time>2026-08-15T08:55:35.000Z</time>
      </trkpt>
      <trkpt lat="22.829956" lon="109.862425">
        <ele>107.116863</ele>
        <time>2026-08-15T08:55:36.000Z</time>
      </trkpt>
      <trkpt lat="22.829906" lon="109.862442">
        <ele>107.134836</ele>
        <time>2026-08-15T08:55:37.000Z</time>
      </trkpt>
      <trkpt lat="22.829858" lon="109.862460">
        <ele>107.152257</ele>
        <time>2026-08-15T08:55:38.000Z</time>
      </trkpt>
      <trkpt lat="22.829810" lon="109.862479">
        <ele>107.169784</ele>
        <time>2026-08-15T08:55:39.000Z</time>
      </trkpt>
      <trkpt lat="22.829764" lon="109.862499">
        <ele>107.186783</ele>
        <time>2026-08-15T08:55:40.000Z</time>
      </trkpt>
      <trkpt lat="22.829718" lon="109.862519">
        <ele>107.203782</ele>
        <time>2026-08-15T08:55:41.000Z</time>
      </trkpt>
      <trkpt lat="22.829673" lon="109.862541">
        <ele>107.220713</ele>
        <time>2026-08-15T08:55:42.000Z</time>
      </trkpt>
      <trkpt lat="22.829627" lon="109.862565">
        <ele>107.238222</ele>
        <time>2026-08-15T08:55:43.000Z</time>
      </trkpt>
      <trkpt lat="22.829582" lon="109.862589">
        <ele>107.255422</ele>
        <time>2026-08-15T08:55:44.000Z</time>
      </trkpt>
      <trkpt lat="22.829537" lon="109.862615">
        <ele>107.272910</ele>
        <time>2026-08-15T08:55:45.000Z</time>
      </trkpt>
      <trkpt lat="22.829491" lon="109.862639">
        <ele>107.290419</ele>
        <time>2026-08-15T08:55:46.000Z</time>
      </trkpt>
      <trkpt lat="22.829445" lon="109.862664">
        <ele>107.308067</ele>
        <time>2026-08-15T08:55:47.000Z</time>
      </trkpt>
      <trkpt lat="22.829401" lon="109.862689">
        <ele>107.325104</ele>
        <time>2026-08-15T08:55:48.000Z</time>
      </trkpt>
      <trkpt lat="22.829358" lon="109.862716">
        <ele>107.342146</ele>
        <time>2026-08-15T08:55:49.000Z</time>
      </trkpt>
      <trkpt lat="22.829314" lon="109.862744">
        <ele>107.359644</ele>
        <time>2026-08-15T08:55:50.000Z</time>
      </trkpt>
      <trkpt lat="22.829271" lon="109.862774">
        <ele>107.377180</ele>
        <time>2026-08-15T08:55:51.000Z</time>
      </trkpt>
      <trkpt lat="22.829229" lon="109.862804">
        <ele>107.394429</ele>
        <time>2026-08-15T08:55:52.000Z</time>
      </trkpt>
      <trkpt lat="22.829188" lon="109.862834">
        <ele>107.411393</ele>
        <time>2026-08-15T08:55:53.000Z</time>
      </trkpt>
      <trkpt lat="22.829147" lon="109.862866">
        <ele>107.428718</ele>
        <time>2026-08-15T08:55:54.000Z</time>
      </trkpt>
      <trkpt lat="22.829107" lon="109.862897">
        <ele>107.445579</ele>
        <time>2026-08-15T08:55:55.000Z</time>
      </trkpt>
      <trkpt lat="22.829066" lon="109.862930">
        <ele>107.463091</ele>
        <time>2026-08-15T08:55:56.000Z</time>
      </trkpt>
      <trkpt lat="22.829025" lon="109.862963">
        <ele>107.480602</ele>
        <time>2026-08-15T08:55:57.000Z</time>
      </trkpt>
      <trkpt lat="22.828985" lon="109.862996">
        <ele>107.498709</ele>
        <time>2026-08-15T08:55:58.000Z</time>
      </trkpt>
      <trkpt lat="22.828946" lon="109.863030">
        <ele>107.519334</ele>
        <time>2026-08-15T08:55:59.000Z</time>
      </trkpt>
      <trkpt lat="22.828907" lon="109.863063">
        <ele>107.539723</ele>
        <time>2026-08-15T08:56:00.000Z</time>
      </trkpt>
      <trkpt lat="22.828868" lon="109.863095">
        <ele>107.559881</ele>
        <time>2026-08-15T08:56:01.000Z</time>
      </trkpt>
      <trkpt lat="22.828827" lon="109.863131">
        <ele>107.581625</ele>
        <time>2026-08-15T08:56:02.000Z</time>
      </trkpt>
      <trkpt lat="22.828788" lon="109.863165">
        <ele>107.602251</ele>
        <time>2026-08-15T08:56:03.000Z</time>
      </trkpt>
      <trkpt lat="22.828750" lon="109.863197">
        <ele>107.622081</ele>
        <time>2026-08-15T08:56:04.000Z</time>
      </trkpt>
      <trkpt lat="22.828713" lon="109.863229">
        <ele>107.641588</ele>
        <time>2026-08-15T08:56:05.000Z</time>
      </trkpt>
      <trkpt lat="22.828677" lon="109.863262">
        <ele>107.661017</ele>
        <time>2026-08-15T08:56:06.000Z</time>
      </trkpt>
      <trkpt lat="22.828642" lon="109.863295">
        <ele>107.680133</ele>
        <time>2026-08-15T08:56:07.000Z</time>
      </trkpt>
      <trkpt lat="22.828608" lon="109.863326">
        <ele>107.698442</ele>
        <time>2026-08-15T08:56:08.000Z</time>
      </trkpt>
      <trkpt lat="22.828573" lon="109.863358">
        <ele>107.717311</ele>
        <time>2026-08-15T08:56:09.000Z</time>
      </trkpt>
      <trkpt lat="22.828540" lon="109.863389">
        <ele>107.735306</ele>
        <time>2026-08-15T08:56:10.000Z</time>
      </trkpt>
      <trkpt lat="22.828508" lon="109.863419">
        <ele>107.752741</ele>
        <time>2026-08-15T08:56:11.000Z</time>
      </trkpt>
      <trkpt lat="22.828476" lon="109.863451">
        <ele>107.770682</ele>
        <time>2026-08-15T08:56:12.000Z</time>
      </trkpt>
      <trkpt lat="22.828444" lon="109.863483">
        <ele>107.788622</ele>
        <time>2026-08-15T08:56:13.000Z</time>
      </trkpt>
      <trkpt lat="22.828412" lon="109.863513">
        <ele>107.806057</ele>
        <time>2026-08-15T08:56:14.000Z</time>
      </trkpt>
      <trkpt lat="22.828380" lon="109.863546">
        <ele>107.824258</ele>
        <time>2026-08-15T08:56:15.000Z</time>
      </trkpt>
      <trkpt lat="22.828349" lon="109.863578">
        <ele>107.841898</ele>
        <time>2026-08-15T08:56:16.000Z</time>
      </trkpt>
      <trkpt lat="22.828319" lon="109.863613">
        <ele>107.860059</ele>
        <time>2026-08-15T08:56:17.000Z</time>
      </trkpt>
      <trkpt lat="22.828288" lon="109.863646">
        <ele>107.877963</ele>
        <time>2026-08-15T08:56:18.000Z</time>
      </trkpt>
      <trkpt lat="22.828259" lon="109.863683">
        <ele>107.896418</ele>
        <time>2026-08-15T08:56:19.000Z</time>
      </trkpt>
      <trkpt lat="22.828230" lon="109.863720">
        <ele>107.914872</ele>
        <time>2026-08-15T08:56:20.000Z</time>
      </trkpt>
      <trkpt lat="22.828203" lon="109.863761">
        <ele>107.934019</ele>
        <time>2026-08-15T08:56:21.000Z</time>
      </trkpt>
      <trkpt lat="22.828175" lon="109.863800">
        <ele>107.952803</ele>
        <time>2026-08-15T08:56:22.000Z</time>
      </trkpt>
      <trkpt lat="22.828148" lon="109.863839">
        <ele>107.971337</ele>
        <time>2026-08-15T08:56:23.000Z</time>
      </trkpt>
      <trkpt lat="22.828123" lon="109.863880">
        <ele>107.990016</ele>
        <time>2026-08-15T08:56:24.000Z</time>
      </trkpt>
      <trkpt lat="22.828099" lon="109.863923">
        <ele>108.009117</ele>
        <time>2026-08-15T08:56:25.000Z</time>
      </trkpt>
      <trkpt lat="22.828075" lon="109.863966">
        <ele>108.028218</ele>
        <time>2026-08-15T08:56:26.000Z</time>
      </trkpt>
      <trkpt lat="22.828051" lon="109.864007">
        <ele>108.046673</ele>
        <time>2026-08-15T08:56:27.000Z</time>
      </trkpt>
      <trkpt lat="22.828029" lon="109.864049">
        <ele>108.065029</ele>
        <time>2026-08-15T08:56:28.000Z</time>
      </trkpt>
      <trkpt lat="22.828008" lon="109.864090">
        <ele>108.082851</ele>
        <time>2026-08-15T08:56:29.000Z</time>
      </trkpt>
      <trkpt lat="22.827989" lon="109.864134">
        <ele>108.101314</ele>
        <time>2026-08-15T08:56:30.000Z</time>
      </trkpt>
      <trkpt lat="22.827972" lon="109.864178">
        <ele>108.119442</ele>
        <time>2026-08-15T08:56:31.000Z</time>
      </trkpt>
      <trkpt lat="22.827955" lon="109.864224">
        <ele>108.138273</ele>
        <time>2026-08-15T08:56:32.000Z</time>
      </trkpt>
      <trkpt lat="22.827941" lon="109.864272">
        <ele>108.157403</ele>
        <time>2026-08-15T08:56:33.000Z</time>
      </trkpt>
      <trkpt lat="22.827923" lon="109.864317">
        <ele>108.176042</ele>
        <time>2026-08-15T08:56:34.000Z</time>
      </trkpt>
      <trkpt lat="22.827905" lon="109.864360">
        <ele>108.193987</ele>
        <time>2026-08-15T08:56:35.000Z</time>
      </trkpt>
      <trkpt lat="22.827888" lon="109.864405">
        <ele>108.212466</ele>
        <time>2026-08-15T08:56:36.000Z</time>
      </trkpt>
      <trkpt lat="22.827871" lon="109.864449">
        <ele>108.230594</ele>
        <time>2026-08-15T08:56:37.000Z</time>
      </trkpt>
      <trkpt lat="22.827856" lon="109.864497">
        <ele>108.227750</ele>
        <time>2026-08-15T08:56:38.000Z</time>
      </trkpt>
      <trkpt lat="22.827840" lon="109.864542">
        <ele>108.218738</ele>
        <time>2026-08-15T08:56:39.000Z</time>
      </trkpt>
      <trkpt lat="22.827824" lon="109.864588">
        <ele>108.209550</ele>
        <time>2026-08-15T08:56:40.000Z</time>
      </trkpt>
      <trkpt lat="22.827813" lon="109.864635">
        <ele>108.200489</ele>
        <time>2026-08-15T08:56:41.000Z</time>
      </trkpt>
      <trkpt lat="22.827803" lon="109.864685">
        <ele>108.190929</ele>
        <time>2026-08-15T08:56:42.000Z</time>
      </trkpt>
      <trkpt lat="22.827794" lon="109.864734">
        <ele>108.181592</ele>
        <time>2026-08-15T08:56:43.000Z</time>
      </trkpt>
      <trkpt lat="22.827782" lon="109.864781">
        <ele>108.172479</ele>
        <time>2026-08-15T08:56:44.000Z</time>
      </trkpt>
      <trkpt lat="22.827771" lon="109.864827">
        <ele>108.163599</ele>
        <time>2026-08-15T08:56:45.000Z</time>
      </trkpt>
      <trkpt lat="22.827760" lon="109.864873">
        <ele>108.154719</ele>
        <time>2026-08-15T08:56:46.000Z</time>
      </trkpt>
      <trkpt lat="22.827748" lon="109.864920">
        <ele>108.145606</ele>
        <time>2026-08-15T08:56:47.000Z</time>
      </trkpt>
      <trkpt lat="22.827739" lon="109.864967">
        <ele>108.136636</ele>
        <time>2026-08-15T08:56:48.000Z</time>
      </trkpt>
      <trkpt lat="22.827727" lon="109.865012">
        <ele>108.127882</ele>
        <time>2026-08-15T08:56:49.000Z</time>
      </trkpt>
      <trkpt lat="22.827723" lon="109.865062">
        <ele>108.118504</ele>
        <time>2026-08-15T08:56:50.000Z</time>
      </trkpt>
      <trkpt lat="22.827714" lon="109.865110">
        <ele>108.109351</ele>
        <time>2026-08-15T08:56:51.000Z</time>
      </trkpt>
      <trkpt lat="22.827706" lon="109.865159">
        <ele>108.100052</ele>
        <time>2026-08-15T08:56:52.000Z</time>
      </trkpt>
      <trkpt lat="22.827695" lon="109.865208">
        <ele>108.090628</ele>
        <time>2026-08-15T08:56:53.000Z</time>
      </trkpt>
      <trkpt lat="22.827679" lon="109.865248">
        <ele>108.082480</ele>
        <time>2026-08-15T08:56:54.000Z</time>
      </trkpt>
      <trkpt lat="22.827666" lon="109.865290">
        <ele>108.074201</ele>
        <time>2026-08-15T08:56:55.000Z</time>
      </trkpt>
      <trkpt lat="22.827649" lon="109.865330">
        <ele>108.065971</ele>
        <time>2026-08-15T08:56:56.000Z</time>
      </trkpt>
      <trkpt lat="22.827629" lon="109.865368">
        <ele>108.057794</ele>
        <time>2026-08-15T08:56:57.000Z</time>
      </trkpt>
      <trkpt lat="22.827607" lon="109.865401">
        <ele>108.050183</ele>
        <time>2026-08-15T08:56:58.000Z</time>
      </trkpt>
      <trkpt lat="22.827595" lon="109.865445">
        <ele>108.041609</ele>
        <time>2026-08-15T08:56:59.000Z</time>
      </trkpt>
      <trkpt lat="22.827587" lon="109.865491">
        <ele>108.032862</ele>
        <time>2026-08-15T08:57:00.000Z</time>
      </trkpt>
      <trkpt lat="22.827583" lon="109.865541">
        <ele>108.023483</ele>
        <time>2026-08-15T08:57:01.000Z</time>
      </trkpt>
      <trkpt lat="22.827575" lon="109.865585">
        <ele>108.015103</ele>
        <time>2026-08-15T08:57:02.000Z</time>
      </trkpt>
      <trkpt lat="22.827569" lon="109.865632">
        <ele>108.006237</ele>
        <time>2026-08-15T08:57:03.000Z</time>
      </trkpt>
      <trkpt lat="22.827562" lon="109.865682">
        <ele>107.996787</ele>
        <time>2026-08-15T08:57:04.000Z</time>
      </trkpt>
      <trkpt lat="22.827556" lon="109.865731">
        <ele>107.987550</ele>
        <time>2026-08-15T08:57:05.000Z</time>
      </trkpt>
      <trkpt lat="22.827545" lon="109.865780">
        <ele>107.978126</ele>
        <time>2026-08-15T08:57:06.000Z</time>
      </trkpt>
      <trkpt lat="22.827537" lon="109.865829">
        <ele>107.968827</ele>
        <time>2026-08-15T08:57:07.000Z</time>
      </trkpt>
      <trkpt lat="22.827529" lon="109.865875">
        <ele>107.960080</ele>
        <time>2026-08-15T08:57:08.000Z</time>
      </trkpt>
      <trkpt lat="22.827525" lon="109.865924">
        <ele>107.950888</ele>
        <time>2026-08-15T08:57:09.000Z</time>
      </trkpt>
      <trkpt lat="22.827515" lon="109.865972">
        <ele>107.941692</ele>
        <time>2026-08-15T08:57:10.000Z</time>
      </trkpt>
      <trkpt lat="22.827510" lon="109.866024">
        <ele>107.931923</ele>
        <time>2026-08-15T08:57:11.000Z</time>
      </trkpt>
      <trkpt lat="22.827501" lon="109.866074">
        <ele>107.922403</ele>
        <time>2026-08-15T08:57:12.000Z</time>
      </trkpt>
      <trkpt lat="22.827492" lon="109.866121">
        <ele>107.913433</ele>
        <time>2026-08-15T08:57:13.000Z</time>
      </trkpt>
      <trkpt lat="22.827485" lon="109.866170">
        <ele>107.904168</ele>
        <time>2026-08-15T08:57:14.000Z</time>
      </trkpt>
      <trkpt lat="22.827477" lon="109.866220">
        <ele>107.894685</ele>
        <time>2026-08-15T08:57:15.000Z</time>
      </trkpt>
      <trkpt lat="22.827467" lon="109.866268">
        <ele>107.885489</ele>
        <time>2026-08-15T08:57:16.000Z</time>
      </trkpt>
      <trkpt lat="22.827459" lon="109.866317">
        <ele>107.876191</ele>
        <time>2026-08-15T08:57:17.000Z</time>
      </trkpt>
      <trkpt lat="22.827451" lon="109.866365">
        <ele>107.869076</ele>
        <time>2026-08-15T08:57:18.000Z</time>
      </trkpt>
      <trkpt lat="22.827434" lon="109.866409">
        <ele>107.865561</ele>
        <time>2026-08-15T08:57:19.000Z</time>
      </trkpt>
      <trkpt lat="22.827423" lon="109.866455">
        <ele>107.862059</ele>
        <time>2026-08-15T08:57:20.000Z</time>
      </trkpt>
      <trkpt lat="22.827415" lon="109.866507">
        <ele>107.858174</ele>
        <time>2026-08-15T08:57:21.000Z</time>
      </trkpt>
      <trkpt lat="22.827405" lon="109.866555">
        <ele>107.854548</ele>
        <time>2026-08-15T08:57:22.000Z</time>
      </trkpt>
      <trkpt lat="22.827391" lon="109.866602">
        <ele>107.850908</ele>
        <time>2026-08-15T08:57:23.000Z</time>
      </trkpt>
      <trkpt lat="22.827380" lon="109.866648">
        <ele>107.847406</ele>
        <time>2026-08-15T08:57:24.000Z</time>
      </trkpt>
      <trkpt lat="22.827370" lon="109.866692">
        <ele>107.844067</ele>
        <time>2026-08-15T08:57:25.000Z</time>
      </trkpt>
      <trkpt lat="22.827362" lon="109.866736">
        <ele>107.840762</ele>
        <time>2026-08-15T08:57:26.000Z</time>
      </trkpt>
      <trkpt lat="22.827356" lon="109.866781">
        <ele>107.837412</ele>
        <time>2026-08-15T08:57:27.000Z</time>
      </trkpt>
      <trkpt lat="22.827348" lon="109.866823">
        <ele>107.834251</ele>
        <time>2026-08-15T08:57:28.000Z</time>
      </trkpt>
      <trkpt lat="22.827340" lon="109.866868">
        <ele>107.830874</ele>
        <time>2026-08-15T08:57:29.000Z</time>
      </trkpt>
      <trkpt lat="22.827332" lon="109.866912">
        <ele>107.827569</ele>
        <time>2026-08-15T08:57:30.000Z</time>
      </trkpt>
      <trkpt lat="22.827325" lon="109.866956">
        <ele>107.824279</ele>
        <time>2026-08-15T08:57:31.000Z</time>
      </trkpt>
      <trkpt lat="22.827312" lon="109.866999">
        <ele>107.820944</ele>
        <time>2026-08-15T08:57:32.000Z</time>
      </trkpt>
      <trkpt lat="22.827306" lon="109.867046">
        <ele>107.817448</ele>
        <time>2026-08-15T08:57:33.000Z</time>
      </trkpt>
      <trkpt lat="22.827298" lon="109.867091">
        <ele>107.814071</ele>
        <time>2026-08-15T08:57:34.000Z</time>
      </trkpt>
      <trkpt lat="22.827291" lon="109.867138">
        <ele>107.810563</ele>
        <time>2026-08-15T08:57:35.000Z</time>
      </trkpt>
      <trkpt lat="22.827280" lon="109.867184">
        <ele>107.807061</ele>
        <time>2026-08-15T08:57:36.000Z</time>
      </trkpt>
      <trkpt lat="22.827269" lon="109.867231">
        <ele>107.803488</ele>
        <time>2026-08-15T08:57:37.000Z</time>
      </trkpt>
      <trkpt lat="22.827260" lon="109.867278">
        <ele>107.799950</ele>
        <time>2026-08-15T08:57:38.000Z</time>
      </trkpt>
      <trkpt lat="22.827253" lon="109.867327">
        <ele>107.796296</ele>
        <time>2026-08-15T08:57:39.000Z</time>
      </trkpt>
      <trkpt lat="22.827247" lon="109.867378">
        <ele>107.792508</ele>
        <time>2026-08-15T08:57:40.000Z</time>
      </trkpt>
      <trkpt lat="22.827240" lon="109.867428">
        <ele>107.788781</ele>
        <time>2026-08-15T08:57:41.000Z</time>
      </trkpt>
      <trkpt lat="22.827233" lon="109.867478">
        <ele>107.785054</ele>
        <time>2026-08-15T08:57:42.000Z</time>
      </trkpt>
      <trkpt lat="22.827223" lon="109.867525">
        <ele>107.781500</ele>
        <time>2026-08-15T08:57:43.000Z</time>
      </trkpt>
      <trkpt lat="22.827216" lon="109.867574">
        <ele>107.777846</ele>
        <time>2026-08-15T08:57:44.000Z</time>
      </trkpt>
      <trkpt lat="22.827209" lon="109.867622">
        <ele>107.774265</ele>
        <time>2026-08-15T08:57:45.000Z</time>
      </trkpt>
      <trkpt lat="22.827201" lon="109.867669">
        <ele>107.770743</ele>
        <time>2026-08-15T08:57:46.000Z</time>
      </trkpt>
      <trkpt lat="22.827196" lon="109.867716">
        <ele>107.767257</ele>
        <time>2026-08-15T08:57:47.000Z</time>
      </trkpt>
      <trkpt lat="22.827186" lon="109.867759">
        <ele>107.763989</ele>
        <time>2026-08-15T08:57:48.000Z</time>
      </trkpt>
      <trkpt lat="22.827181" lon="109.867803">
        <ele>107.760722</ele>
        <time>2026-08-15T08:57:49.000Z</time>
      </trkpt>
      <trkpt lat="22.827176" lon="109.867847">
        <ele>107.757455</ele>
        <time>2026-08-15T08:57:50.000Z</time>
      </trkpt>
      <trkpt lat="22.827171" lon="109.867892">
        <ele>107.754115</ele>
        <time>2026-08-15T08:57:51.000Z</time>
      </trkpt>
      <trkpt lat="22.827167" lon="109.867935">
        <ele>107.750931</ele>
        <time>2026-08-15T08:57:52.000Z</time>
      </trkpt>
      <trkpt lat="22.827171" lon="109.867981">
        <ele>107.747526</ele>
        <time>2026-08-15T08:57:53.000Z</time>
      </trkpt>
      <trkpt lat="22.827171" lon="109.868029">
        <ele>107.743989</ele>
        <time>2026-08-15T08:57:54.000Z</time>
      </trkpt>
      <trkpt lat="22.827170" lon="109.868073">
        <ele>107.740746</ele>
        <time>2026-08-15T08:57:55.000Z</time>
      </trkpt>
      <trkpt lat="22.827165" lon="109.868116">
        <ele>107.737552</ele>
        <time>2026-08-15T08:57:56.000Z</time>
      </trkpt>
      <trkpt lat="22.827157" lon="109.868157">
        <ele>107.734464</ele>
        <time>2026-08-15T08:57:57.000Z</time>
      </trkpt>
      <trkpt lat="22.827152" lon="109.868198">
        <ele>107.731416</ele>
        <time>2026-08-15T08:57:58.000Z</time>
      </trkpt>
      <trkpt lat="22.827147" lon="109.868240">
        <ele>107.728296</ele>
        <time>2026-08-15T08:57:59.000Z</time>
      </trkpt>
      <trkpt lat="22.827145" lon="109.868284">
        <ele>107.731037</ele>
        <time>2026-08-15T08:58:00.000Z</time>
      </trkpt>
      <trkpt lat="22.827144" lon="109.868328">
        <ele>107.740502</ele>
        <time>2026-08-15T08:58:01.000Z</time>
      </trkpt>
      <trkpt lat="22.827140" lon="109.868374">
        <ele>107.750438</ele>
        <time>2026-08-15T08:58:02.000Z</time>
      </trkpt>
      <trkpt lat="22.827135" lon="109.868420">
        <ele>107.760398</ele>
        <time>2026-08-15T08:58:03.000Z</time>
      </trkpt>
      <trkpt lat="22.827130" lon="109.868465">
        <ele>107.770146</ele>
        <time>2026-08-15T08:58:04.000Z</time>
      </trkpt>
      <trkpt lat="22.827124" lon="109.868508">
        <ele>107.779498</ele>
        <time>2026-08-15T08:58:05.000Z</time>
      </trkpt>
      <trkpt lat="22.827119" lon="109.868551">
        <ele>107.788818</ele>
        <time>2026-08-15T08:58:06.000Z</time>
      </trkpt>
      <trkpt lat="22.827116" lon="109.868591">
        <ele>107.797448</ele>
        <time>2026-08-15T08:58:07.000Z</time>
      </trkpt>
      <trkpt lat="22.827112" lon="109.868632">
        <ele>107.806314</ele>
        <time>2026-08-15T08:58:08.000Z</time>
      </trkpt>
      <trkpt lat="22.827107" lon="109.868676">
        <ele>107.815848</ele>
        <time>2026-08-15T08:58:09.000Z</time>
      </trkpt>
      <trkpt lat="22.827098" lon="109.868718">
        <ele>107.825121</ele>
        <time>2026-08-15T08:58:10.000Z</time>
      </trkpt>
      <trkpt lat="22.827091" lon="109.868759">
        <ele>107.834088</ele>
        <time>2026-08-15T08:58:11.000Z</time>
      </trkpt>
      <trkpt lat="22.827082" lon="109.868801">
        <ele>107.843361</ele>
        <time>2026-08-15T08:58:12.000Z</time>
      </trkpt>
      <trkpt lat="22.827074" lon="109.868845">
        <ele>107.853005</ele>
        <time>2026-08-15T08:58:13.000Z</time>
      </trkpt>
      <trkpt lat="22.827068" lon="109.868888">
        <ele>107.862357</ele>
        <time>2026-08-15T08:58:14.000Z</time>
      </trkpt>
      <trkpt lat="22.827061" lon="109.868932">
        <ele>107.871959</ele>
        <time>2026-08-15T08:58:15.000Z</time>
      </trkpt>
      <trkpt lat="22.827054" lon="109.868975">
        <ele>107.881349</ele>
        <time>2026-08-15T08:58:16.000Z</time>
      </trkpt>
      <trkpt lat="22.827049" lon="109.869018">
        <ele>107.890669</ele>
        <time>2026-08-15T08:58:17.000Z</time>
      </trkpt>
      <trkpt lat="22.827045" lon="109.869063">
        <ele>107.900391</ele>
        <time>2026-08-15T08:58:18.000Z</time>
      </trkpt>
      <trkpt lat="22.827040" lon="109.869108">
        <ele>107.910139</ele>
        <time>2026-08-15T08:58:19.000Z</time>
      </trkpt>
      <trkpt lat="22.827036" lon="109.869154">
        <ele>107.920075</ele>
        <time>2026-08-15T08:58:20.000Z</time>
      </trkpt>
      <trkpt lat="22.827031" lon="109.869199">
        <ele>107.929822</ele>
        <time>2026-08-15T08:58:21.000Z</time>
      </trkpt>
      <trkpt lat="22.827026" lon="109.869245">
        <ele>107.939782</ele>
        <time>2026-08-15T08:58:22.000Z</time>
      </trkpt>
      <trkpt lat="22.827022" lon="109.869290">
        <ele>107.949504</ele>
        <time>2026-08-15T08:58:23.000Z</time>
      </trkpt>
      <trkpt lat="22.827016" lon="109.869334">
        <ele>107.959069</ele>
        <time>2026-08-15T08:58:24.000Z</time>
      </trkpt>
      <trkpt lat="22.827012" lon="109.869378">
        <ele>107.968577</ele>
        <time>2026-08-15T08:58:25.000Z</time>
      </trkpt>
      <trkpt lat="22.827006" lon="109.869423">
        <ele>107.978355</ele>
        <time>2026-08-15T08:58:26.000Z</time>
      </trkpt>
      <trkpt lat="22.826999" lon="109.869468">
        <ele>107.988169</ele>
        <time>2026-08-15T08:58:27.000Z</time>
      </trkpt>
      <trkpt lat="22.826991" lon="109.869509">
        <ele>107.997181</ele>
        <time>2026-08-15T08:58:28.000Z</time>
      </trkpt>
      <trkpt lat="22.826984" lon="109.869547">
        <ele>108.005514</ele>
        <time>2026-08-15T08:58:29.000Z</time>
      </trkpt>
      <trkpt lat="22.826976" lon="109.869587">
        <ele>108.014316</ele>
        <time>2026-08-15T08:58:30.000Z</time>
      </trkpt>
      <trkpt lat="22.826967" lon="109.869622">
        <ele>108.022131</ele>
        <time>2026-08-15T08:58:31.000Z</time>
      </trkpt>
      <trkpt lat="22.826953" lon="109.869655">
        <ele>108.029943</ele>
        <time>2026-08-15T08:58:32.000Z</time>
      </trkpt>
      <trkpt lat="22.826938" lon="109.869688">
        <ele>108.037855</ele>
        <time>2026-08-15T08:58:33.000Z</time>
      </trkpt>
      <trkpt lat="22.826921" lon="109.869718">
        <ele>108.045428</ele>
        <time>2026-08-15T08:58:34.000Z</time>
      </trkpt>
      <trkpt lat="22.826911" lon="109.869748">
        <ele>108.052289</ele>
        <time>2026-08-15T08:58:35.000Z</time>
      </trkpt>
      <trkpt lat="22.826901" lon="109.869780">
        <ele>108.059555</ele>
        <time>2026-08-15T08:58:36.000Z</time>
      </trkpt>
      <trkpt lat="22.826892" lon="109.869811">
        <ele>108.066544</ele>
        <time>2026-08-15T08:58:37.000Z</time>
      </trkpt>
      <trkpt lat="22.826885" lon="109.869843">
        <ele>108.073617</ele>
        <time>2026-08-15T08:58:38.000Z</time>
      </trkpt>
      <trkpt lat="22.826877" lon="109.869879">
        <ele>108.081580</ele>
        <time>2026-08-15T08:58:39.000Z</time>
      </trkpt>
      <trkpt lat="22.826859" lon="109.869915">
        <ele>108.090388</ele>
        <time>2026-08-15T08:58:40.000Z</time>
      </trkpt>
      <trkpt lat="22.826844" lon="109.869954">
        <ele>108.099476</ele>
        <time>2026-08-15T08:58:41.000Z</time>
      </trkpt>
      <trkpt lat="22.826827" lon="109.869991">
        <ele>108.108366</ele>
        <time>2026-08-15T08:58:42.000Z</time>
      </trkpt>
      <trkpt lat="22.826814" lon="109.870032">
        <ele>108.117690</ele>
        <time>2026-08-15T08:58:43.000Z</time>
      </trkpt>
      <trkpt lat="22.826799" lon="109.870072">
        <ele>108.126977</ele>
        <time>2026-08-15T08:58:44.000Z</time>
      </trkpt>
      <trkpt lat="22.826784" lon="109.870109">
        <ele>108.135669</ele>
        <time>2026-08-15T08:58:45.000Z</time>
      </trkpt>
      <trkpt lat="22.826769" lon="109.870144">
        <ele>108.143970</ele>
        <time>2026-08-15T08:58:46.000Z</time>
      </trkpt>
      <trkpt lat="22.826751" lon="109.870178">
        <ele>108.156512</ele>
        <time>2026-08-15T08:58:47.000Z</time>
      </trkpt>
      <trkpt lat="22.826737" lon="109.870212">
        <ele>108.169858</ele>
        <time>2026-08-15T08:58:48.000Z</time>
      </trkpt>
      <trkpt lat="22.826720" lon="109.870242">
        <ele>108.182480</ele>
        <time>2026-08-15T08:58:49.000Z</time>
      </trkpt>
      <trkpt lat="22.826706" lon="109.870272">
        <ele>108.194532</ele>
        <time>2026-08-15T08:58:50.000Z</time>
      </trkpt>
      <trkpt lat="22.826692" lon="109.870298">
        <ele>108.205324</ele>
        <time>2026-08-15T08:58:51.000Z</time>
      </trkpt>
      <trkpt lat="22.826680" lon="109.870319">
        <ele>108.214180</ele>
        <time>2026-08-15T08:58:52.000Z</time>
      </trkpt>
      <trkpt lat="22.826666" lon="109.870334">
        <ele>108.221831</ele>
        <time>2026-08-15T08:58:53.000Z</time>
      </trkpt>
      <trkpt lat="22.826659" lon="109.870347">
        <ele>108.227227</ele>
        <time>2026-08-15T08:58:54.000Z</time>
      </trkpt>
      <trkpt lat="22.826655" lon="109.870355">
        <ele>108.230489</ele>
        <time>2026-08-15T08:58:55.000Z</time>
      </trkpt>
      <trkpt lat="22.826654" lon="109.870360">
        <ele>108.232322</ele>
        <time>2026-08-15T08:58:56.000Z</time>
      </trkpt>
      <trkpt lat="22.826646" lon="109.870446">
        <ele>108.263301</ele>
        <time>2026-08-15T09:00:43.000Z</time>
      </trkpt>
      <trkpt lat="22.826632" lon="109.870463">
        <ele>108.271472</ele>
        <time>2026-08-15T09:00:44.000Z</time>
      </trkpt>
      <trkpt lat="22.826620" lon="109.870481">
        <ele>108.279434</ele>
        <time>2026-08-15T09:00:45.000Z</time>
      </trkpt>
      <trkpt lat="22.826608" lon="109.870504">
        <ele>108.288906</ele>
        <time>2026-08-15T09:00:46.000Z</time>
      </trkpt>
      <trkpt lat="22.826594" lon="109.870532">
        <ele>108.300323</ele>
        <time>2026-08-15T09:00:47.000Z</time>
      </trkpt>
      <trkpt lat="22.826575" lon="109.870554">
        <ele>108.311128</ele>
        <time>2026-08-15T09:00:48.000Z</time>
      </trkpt>
      <trkpt lat="22.826553" lon="109.870578">
        <ele>108.323260</ele>
        <time>2026-08-15T09:00:49.000Z</time>
      </trkpt>
      <trkpt lat="22.826533" lon="109.870606">
        <ele>108.335956</ele>
        <time>2026-08-15T09:00:50.000Z</time>
      </trkpt>
      <trkpt lat="22.826512" lon="109.870636">
        <ele>108.349457</ele>
        <time>2026-08-15T09:00:51.000Z</time>
      </trkpt>
      <trkpt lat="22.826493" lon="109.870667">
        <ele>108.362800</ele>
        <time>2026-08-15T09:00:52.000Z</time>
      </trkpt>
      <trkpt lat="22.826473" lon="109.870697">
        <ele>108.376070</ele>
        <time>2026-08-15T09:00:53.000Z</time>
      </trkpt>
      <trkpt lat="22.826452" lon="109.870726">
        <ele>108.389288</ele>
        <time>2026-08-15T09:00:54.000Z</time>
      </trkpt>
      <trkpt lat="22.826428" lon="109.870751">
        <ele>108.402225</ele>
        <time>2026-08-15T09:00:55.000Z</time>
      </trkpt>
      <trkpt lat="22.826408" lon="109.870778">
        <ele>108.414640</ele>
        <time>2026-08-15T09:00:56.000Z</time>
      </trkpt>
      <trkpt lat="22.826388" lon="109.870805">
        <ele>108.427055</ele>
        <time>2026-08-15T09:00:57.000Z</time>
      </trkpt>
      <trkpt lat="22.826367" lon="109.870832">
        <ele>108.439717</ele>
        <time>2026-08-15T09:00:58.000Z</time>
      </trkpt>
      <trkpt lat="22.826345" lon="109.870858">
        <ele>108.452367</ele>
        <time>2026-08-15T09:00:59.000Z</time>
      </trkpt>
      <trkpt lat="22.826321" lon="109.870887">
        <ele>108.466335</ele>
        <time>2026-08-15T09:01:00.000Z</time>
      </trkpt>
      <trkpt lat="22.826288" lon="109.870911">
        <ele>108.481784</ele>
        <time>2026-08-15T09:01:01.000Z</time>
      </trkpt>
      <trkpt lat="22.826264" lon="109.870942">
        <ele>108.496294</ele>
        <time>2026-08-15T09:01:02.000Z</time>
      </trkpt>
      <trkpt lat="22.826239" lon="109.870970">
        <ele>108.510265</ele>
        <time>2026-08-15T09:01:03.000Z</time>
      </trkpt>
      <trkpt lat="22.826215" lon="109.871001">
        <ele>108.524775</ele>
        <time>2026-08-15T09:01:04.000Z</time>
      </trkpt>
      <trkpt lat="22.826192" lon="109.871032">
        <ele>108.539038</ele>
        <time>2026-08-15T09:01:05.000Z</time>
      </trkpt>
      <trkpt lat="22.826166" lon="109.871063">
        <ele>108.554060</ele>
        <time>2026-08-15T09:01:06.000Z</time>
      </trkpt>
      <trkpt lat="22.826143" lon="109.871100">
        <ele>108.570055</ele>
        <time>2026-08-15T09:01:07.000Z</time>
      </trkpt>
      <trkpt lat="22.826116" lon="109.871132">
        <ele>108.585604</ele>
        <time>2026-08-15T09:01:08.000Z</time>
      </trkpt>
      <trkpt lat="22.826088" lon="109.871164">
        <ele>108.601418</ele>
        <time>2026-08-15T09:01:09.000Z</time>
      </trkpt>
      <trkpt lat="22.826067" lon="109.871201">
        <ele>108.616992</ele>
        <time>2026-08-15T09:01:10.000Z</time>
      </trkpt>
      <trkpt lat="22.826045" lon="109.871236">
        <ele>108.632175</ele>
        <time>2026-08-15T09:01:11.000Z</time>
      </trkpt>
      <trkpt lat="22.826018" lon="109.871269">
        <ele>108.647990</ele>
        <time>2026-08-15T09:01:12.000Z</time>
      </trkpt>
      <trkpt lat="22.825990" lon="109.871299">
        <ele>108.663292</ele>
        <time>2026-08-15T09:01:13.000Z</time>
      </trkpt>
      <trkpt lat="22.825961" lon="109.871328">
        <ele>108.678629</ele>
        <time>2026-08-15T09:01:14.000Z</time>
      </trkpt>
      <trkpt lat="22.825932" lon="109.871358">
        <ele>108.694210</ele>
        <time>2026-08-15T09:01:15.000Z</time>
      </trkpt>
      <trkpt lat="22.825900" lon="109.871388">
        <ele>108.710655</ele>
        <time>2026-08-15T09:01:16.000Z</time>
      </trkpt>
      <trkpt lat="22.825869" lon="109.871420">
        <ele>108.727294</ele>
        <time>2026-08-15T09:01:17.000Z</time>
      </trkpt>
      <trkpt lat="22.825841" lon="109.871453">
        <ele>108.743370</ele>
        <time>2026-08-15T09:01:18.000Z</time>
      </trkpt>
      <trkpt lat="22.825812" lon="109.871483">
        <ele>108.758951</ele>
        <time>2026-08-15T09:01:19.000Z</time>
      </trkpt>
      <trkpt lat="22.825780" lon="109.871510">
        <ele>108.774714</ele>
        <time>2026-08-15T09:01:20.000Z</time>
      </trkpt>
      <trkpt lat="22.825744" lon="109.871538">
        <ele>108.791938</ele>
        <time>2026-08-15T09:01:21.000Z</time>
      </trkpt>
      <trkpt lat="22.825705" lon="109.871566">
        <ele>108.810123</ele>
        <time>2026-08-15T09:01:22.000Z</time>
      </trkpt>
      <trkpt lat="22.825670" lon="109.871594">
        <ele>108.827033</ele>
        <time>2026-08-15T09:01:23.000Z</time>
      </trkpt>
      <trkpt lat="22.825639" lon="109.871627">
        <ele>108.843921</ele>
        <time>2026-08-15T09:01:24.000Z</time>
      </trkpt>
      <trkpt lat="22.825607" lon="109.871662">
        <ele>108.866773</ele>
        <time>2026-08-15T09:01:25.000Z</time>
      </trkpt>
      <trkpt lat="22.825574" lon="109.871696">
        <ele>108.890222</ele>
        <time>2026-08-15T09:01:26.000Z</time>
      </trkpt>
      <trkpt lat="22.825542" lon="109.871731">
        <ele>108.913635</ele>
        <time>2026-08-15T09:01:27.000Z</time>
      </trkpt>
      <trkpt lat="22.825514" lon="109.871767">
        <ele>108.936006</ele>
        <time>2026-08-15T09:01:28.000Z</time>
      </trkpt>
      <trkpt lat="22.825483" lon="109.871801">
        <ele>108.958720</ele>
        <time>2026-08-15T09:01:29.000Z</time>
      </trkpt>
      <trkpt lat="22.825453" lon="109.871832">
        <ele>108.980067</ele>
        <time>2026-08-15T09:01:30.000Z</time>
      </trkpt>
      <trkpt lat="22.825418" lon="109.871863">
        <ele>109.003348</ele>
        <time>2026-08-15T09:01:31.000Z</time>
      </trkpt>
      <trkpt lat="22.825381" lon="109.871892">
        <ele>109.026867</ele>
        <time>2026-08-15T09:01:32.000Z</time>
      </trkpt>
      <trkpt lat="22.825348" lon="109.871922">
        <ele>109.049051</ele>
        <time>2026-08-15T09:01:33.000Z</time>
      </trkpt>
      <trkpt lat="22.825313" lon="109.871948">
        <ele>109.070908</ele>
        <time>2026-08-15T09:01:34.000Z</time>
      </trkpt>
      <trkpt lat="22.825279" lon="109.871978">
        <ele>109.093489</ele>
        <time>2026-08-15T09:01:35.000Z</time>
      </trkpt>
      <trkpt lat="22.825246" lon="109.872008">
        <ele>109.115674</ele>
        <time>2026-08-15T09:01:36.000Z</time>
      </trkpt>
      <trkpt lat="22.825213" lon="109.872036">
        <ele>109.137260</ele>
        <time>2026-08-15T09:01:37.000Z</time>
      </trkpt>
      <trkpt lat="22.825180" lon="109.872066">
        <ele>109.159444</ele>
        <time>2026-08-15T09:01:38.000Z</time>
      </trkpt>
      <trkpt lat="22.825149" lon="109.872099">
        <ele>109.181822</ele>
        <time>2026-08-15T09:01:39.000Z</time>
      </trkpt>
      <trkpt lat="22.825119" lon="109.872135">
        <ele>109.204871</ele>
        <time>2026-08-15T09:01:40.000Z</time>
      </trkpt>
      <trkpt lat="22.825088" lon="109.872170">
        <ele>109.227924</ele>
        <time>2026-08-15T09:01:41.000Z</time>
      </trkpt>
      <trkpt lat="22.825055" lon="109.872204">
        <ele>109.251374</ele>
        <time>2026-08-15T09:01:42.000Z</time>
      </trkpt>
      <trkpt lat="22.825022" lon="109.872232">
        <ele>109.272960</ele>
        <time>2026-08-15T09:01:43.000Z</time>
      </trkpt>
      <trkpt lat="22.824989" lon="109.872263">
        <ele>109.295452</ele>
        <time>2026-08-15T09:01:44.000Z</time>
      </trkpt>
      <trkpt lat="22.824962" lon="109.872294">
        <ele>109.315708</ele>
        <time>2026-08-15T09:01:45.000Z</time>
      </trkpt>
      <trkpt lat="22.824932" lon="109.872321">
        <ele>109.335793</ele>
        <time>2026-08-15T09:01:46.000Z</time>
      </trkpt>
      <trkpt lat="22.824903" lon="109.872351">
        <ele>109.356439</ele>
        <time>2026-08-15T09:01:47.000Z</time>
      </trkpt>
      <trkpt lat="22.824870" lon="109.872379">
        <ele>109.378026</ele>
        <time>2026-08-15T09:01:48.000Z</time>
      </trkpt>
      <trkpt lat="22.824835" lon="109.872408">
        <ele>109.400718</ele>
        <time>2026-08-15T09:01:49.000Z</time>
      </trkpt>
      <trkpt lat="22.824793" lon="109.872430">
        <ele>109.424750</ele>
        <time>2026-08-15T09:01:50.000Z</time>
      </trkpt>
      <trkpt lat="22.824757" lon="109.872453">
        <ele>109.446277</ele>
        <time>2026-08-15T09:01:51.000Z</time>
      </trkpt>
      <trkpt lat="22.824724" lon="109.872477">
        <ele>109.466747</ele>
        <time>2026-08-15T09:01:52.000Z</time>
      </trkpt>
      <trkpt lat="22.824694" lon="109.872503">
        <ele>109.486532</ele>
        <time>2026-08-15T09:01:53.000Z</time>
      </trkpt>
      <trkpt lat="22.824662" lon="109.872524">
        <ele>109.505802</ele>
        <time>2026-08-15T09:01:54.000Z</time>
      </trkpt>
      <trkpt lat="22.824633" lon="109.872544">
        <ele>109.523509</ele>
        <time>2026-08-15T09:01:55.000Z</time>
      </trkpt>
      <trkpt lat="22.824605" lon="109.872564">
        <ele>109.540782</ele>
        <time>2026-08-15T09:01:56.000Z</time>
      </trkpt>
      <trkpt lat="22.824575" lon="109.872585">
        <ele>109.559179</ele>
        <time>2026-08-15T09:01:57.000Z</time>
      </trkpt>
      <trkpt lat="22.824545" lon="109.872605">
        <ele>109.577322</ele>
        <time>2026-08-15T09:01:58.000Z</time>
      </trkpt>
      <trkpt lat="22.824512" lon="109.872621">
        <ele>109.595946</ele>
        <time>2026-08-15T09:01:59.000Z</time>
      </trkpt>
      <trkpt lat="22.824478" lon="109.872634">
        <ele>109.614522</ele>
        <time>2026-08-15T09:02:00.000Z</time>
      </trkpt>
      <trkpt lat="22.824452" lon="109.872654">
        <ele>109.630944</ele>
        <time>2026-08-15T09:02:01.000Z</time>
      </trkpt>
      <trkpt lat="22.824423" lon="109.872667">
        <ele>109.647113</ele>
        <time>2026-08-15T09:02:02.000Z</time>
      </trkpt>
      <trkpt lat="22.824392" lon="109.872676">
        <ele>109.663648</ele>
        <time>2026-08-15T09:02:03.000Z</time>
      </trkpt>
      <trkpt lat="22.824362" lon="109.872684">
        <ele>109.679566</ele>
        <time>2026-08-15T09:02:04.000Z</time>
      </trkpt>
      <trkpt lat="22.824335" lon="109.872696">
        <ele>109.694601</ele>
        <time>2026-08-15T09:02:05.000Z</time>
      </trkpt>
      <trkpt lat="22.824309" lon="109.872707">
        <ele>109.708980</ele>
        <time>2026-08-15T09:02:06.000Z</time>
      </trkpt>
      <trkpt lat="22.824283" lon="109.872712">
        <ele>109.722586</ele>
        <time>2026-08-15T09:02:07.000Z</time>
      </trkpt>
      <trkpt lat="22.824261" lon="109.872719">
        <ele>109.734400</ele>
        <time>2026-08-15T09:02:08.000Z</time>
      </trkpt>
      <trkpt lat="22.824239" lon="109.872730">
        <ele>109.746882</ele>
        <time>2026-08-15T09:02:09.000Z</time>
      </trkpt>
      <trkpt lat="22.824220" lon="109.872736">
        <ele>109.757078</ele>
        <time>2026-08-15T09:02:10.000Z</time>
      </trkpt>
      <trkpt lat="22.824205" lon="109.872745">
        <ele>109.765910</ele>
        <time>2026-08-15T09:02:11.000Z</time>
      </trkpt>
      <trkpt lat="22.824193" lon="109.872752">
        <ele>109.772119</ele>
        <time>2026-08-15T09:02:12.000Z</time>
      </trkpt>
      <trkpt lat="22.824183" lon="109.872758">
        <ele>109.768289</ele>
        <time>2026-08-15T09:02:13.000Z</time>
      </trkpt>
      <trkpt lat="22.824177" lon="109.872766">
        <ele>109.765104</ele>
        <time>2026-08-15T09:02:14.000Z</time>
      </trkpt>
      <trkpt lat="22.824177" lon="109.872769">
        <ele>109.764177</ele>
        <time>2026-08-15T09:02:15.000Z</time>
      </trkpt>
      <trkpt lat="22.824131" lon="109.872794">
        <ele>109.746936</ele>
        <time>2026-08-15T09:02:26.000Z</time>
      </trkpt>
      <trkpt lat="22.824112" lon="109.872799">
        <ele>109.740385</ele>
        <time>2026-08-15T09:02:27.000Z</time>
      </trkpt>
      <trkpt lat="22.824086" lon="109.872805">
        <ele>109.731477</ele>
        <time>2026-08-15T09:02:28.000Z</time>
      </trkpt>
      <trkpt lat="22.824053" lon="109.872811">
        <ele>109.720264</ele>
        <time>2026-08-15T09:02:29.000Z</time>
      </trkpt>
      <trkpt lat="22.824029" lon="109.872815">
        <ele>109.712127</ele>
        <time>2026-08-15T09:02:30.000Z</time>
      </trkpt>
      <trkpt lat="22.824008" lon="109.872815">
        <ele>109.705090</ele>
        <time>2026-08-15T09:02:31.000Z</time>
      </trkpt>
      <trkpt lat="22.823983" lon="109.872818">
        <ele>109.696661</ele>
        <time>2026-08-15T09:02:32.000Z</time>
      </trkpt>
      <trkpt lat="22.823954" lon="109.872829">
        <ele>109.686366</ele>
        <time>2026-08-15T09:02:33.000Z</time>
      </trkpt>
      <trkpt lat="22.823921" lon="109.872842">
        <ele>109.674601</ele>
        <time>2026-08-15T09:02:34.000Z</time>
      </trkpt>
      <trkpt lat="22.823891" lon="109.872855">
        <ele>109.663776</ele>
        <time>2026-08-15T09:02:35.000Z</time>
      </trkpt>
      <trkpt lat="22.823865" lon="109.872870">
        <ele>109.653908</ele>
        <time>2026-08-15T09:02:36.000Z</time>
      </trkpt>
      <trkpt lat="22.823839" lon="109.872894">
        <ele>109.642468</ele>
        <time>2026-08-15T09:02:37.000Z</time>
      </trkpt>
      <trkpt lat="22.823822" lon="109.872927">
        <ele>109.630792</ele>
        <time>2026-08-15T09:02:38.000Z</time>
      </trkpt>
      <trkpt lat="22.823807" lon="109.872962">
        <ele>109.618870</ele>
        <time>2026-08-15T09:02:39.000Z</time>
      </trkpt>
      <trkpt lat="22.823794" lon="109.872993">
        <ele>109.608350</ele>
        <time>2026-08-15T09:02:40.000Z</time>
      </trkpt>
      <trkpt lat="22.823783" lon="109.873017">
        <ele>109.600071</ele>
        <time>2026-08-15T09:02:41.000Z</time>
      </trkpt>
      <trkpt lat="22.823778" lon="109.873036">
        <ele>109.593968</ele>
        <time>2026-08-15T09:02:42.000Z</time>
      </trkpt>
      <trkpt lat="22.823778" lon="109.873064">
        <ele>109.585320</ele>
        <time>2026-08-15T09:02:43.000Z</time>
      </trkpt>
      <trkpt lat="22.823783" lon="109.873100">
        <ele>109.574075</ele>
        <time>2026-08-15T09:02:44.000Z</time>
      </trkpt>
      <trkpt lat="22.823787" lon="109.873136">
        <ele>109.562875</ele>
        <time>2026-08-15T09:02:45.000Z</time>
      </trkpt>
      <trkpt lat="22.823794" lon="109.873177">
        <ele>109.549996</ele>
        <time>2026-08-15T09:02:46.000Z</time>
      </trkpt>
      <trkpt lat="22.823799" lon="109.873212">
        <ele>109.539057</ele>
        <time>2026-08-15T09:02:47.000Z</time>
      </trkpt>
      <trkpt lat="22.823807" lon="109.873246">
        <ele>109.528219</ele>
        <time>2026-08-15T09:02:48.000Z</time>
      </trkpt>
      <trkpt lat="22.823814" lon="109.873279">
        <ele>109.517759</ele>
        <time>2026-08-15T09:02:49.000Z</time>
      </trkpt>
      <trkpt lat="22.823818" lon="109.873314">
        <ele>109.506866</ele>
        <time>2026-08-15T09:02:50.000Z</time>
      </trkpt>
      <trkpt lat="22.823821" lon="109.873348">
        <ele>109.496317</ele>
        <time>2026-08-15T09:02:51.000Z</time>
      </trkpt>
      <trkpt lat="22.823825" lon="109.873383">
        <ele>109.485423</ele>
        <time>2026-08-15T09:02:52.000Z</time>
      </trkpt>
      <trkpt lat="22.823829" lon="109.873417">
        <ele>109.474837</ele>
        <time>2026-08-15T09:02:53.000Z</time>
      </trkpt>
      <trkpt lat="22.823834" lon="109.873448">
        <ele>109.465116</ele>
        <time>2026-08-15T09:02:54.000Z</time>
      </trkpt>
      <trkpt lat="22.823841" lon="109.873480">
        <ele>109.454958</ele>
        <time>2026-08-15T09:02:55.000Z</time>
      </trkpt>
      <trkpt lat="22.823852" lon="109.873509">
        <ele>109.445272</ele>
        <time>2026-08-15T09:02:56.000Z</time>
      </trkpt>
      <trkpt lat="22.823875" lon="109.873539">
        <ele>109.433219</ele>
        <time>2026-08-15T09:02:57.000Z</time>
      </trkpt>
      <trkpt lat="22.823888" lon="109.873567">
        <ele>109.423536</ele>
        <time>2026-08-15T09:02:58.000Z</time>
      </trkpt>
      <trkpt lat="22.823895" lon="109.873596">
        <ele>109.414276</ele>
        <time>2026-08-15T09:02:59.000Z</time>
      </trkpt>
      <trkpt lat="22.823902" lon="109.873623">
        <ele>109.405613</ele>
        <time>2026-08-15T09:03:00.000Z</time>
      </trkpt>
      <trkpt lat="22.823906" lon="109.873649">
        <ele>109.397472</ele>
        <time>2026-08-15T09:03:01.000Z</time>
      </trkpt>
      <trkpt lat="22.823910" lon="109.873674">
        <ele>109.389634</ele>
        <time>2026-08-15T09:03:02.000Z</time>
      </trkpt>
      <trkpt lat="22.823913" lon="109.873694">
        <ele>109.383376</ele>
        <time>2026-08-15T09:03:03.000Z</time>
      </trkpt>
      <trkpt lat="22.823917" lon="109.873711">
        <ele>109.377957</ele>
        <time>2026-08-15T09:03:04.000Z</time>
      </trkpt>
      <trkpt lat="22.823922" lon="109.873719">
        <ele>109.374971</ele>
        <time>2026-08-15T09:03:05.000Z</time>
      </trkpt>
      <trkpt lat="22.823924" lon="109.873718">
        <ele>109.374233</ele>
        <time>2026-08-15T09:03:06.000Z</time>
      </trkpt>
      <trkpt lat="22.823933" lon="109.873713">
        <ele>109.370845</ele>
        <time>2026-08-15T09:03:07.000Z</time>
      </trkpt>
      <trkpt lat="22.823948" lon="109.873702">
        <ele>109.364778</ele>
        <time>2026-08-15T09:03:08.000Z</time>
      </trkpt>
      <trkpt lat="22.823966" lon="109.873702">
        <ele>109.358746</ele>
        <time>2026-08-15T09:03:09.000Z</time>
      </trkpt>
      <trkpt lat="22.823995" lon="109.873697">
        <ele>109.348906</ele>
        <time>2026-08-15T09:03:10.000Z</time>
      </trkpt>
      <trkpt lat="22.824013" lon="109.873684">
        <ele>109.341659</ele>
        <time>2026-08-15T09:03:11.000Z</time>
      </trkpt>
      <trkpt lat="22.824033" lon="109.873666">
        <ele>109.332951</ele>
        <time>2026-08-15T09:03:12.000Z</time>
      </trkpt>
      <trkpt lat="22.824056" lon="109.873656">
        <ele>109.324648</ele>
        <time>2026-08-15T09:03:13.000Z</time>
      </trkpt>
      <trkpt lat="22.824077" lon="109.873649">
        <ele>109.317286</ele>
        <time>2026-08-15T09:03:14.000Z</time>
      </trkpt>
      <trkpt lat="22.824100" lon="109.873642">
        <ele>109.309281</ele>
        <time>2026-08-15T09:03:15.000Z</time>
      </trkpt>
      <trkpt lat="22.824120" lon="109.873638">
        <ele>109.302466</ele>
        <time>2026-08-15T09:03:16.000Z</time>
      </trkpt>
      <trkpt lat="22.824132" lon="109.873636">
        <ele>109.298398</ele>
        <time>2026-08-15T09:03:17.000Z</time>
      </trkpt>
      <trkpt lat="22.824140" lon="109.873636">
        <ele>109.295717</ele>
        <time>2026-08-15T09:03:18.000Z</time>
      </trkpt>
      <trkpt lat="22.824250" lon="109.873539">
        <ele>109.248215</ele>
        <time>2026-08-15T09:04:26.000Z</time>
      </trkpt>
      <trkpt lat="22.824274" lon="109.873539">
        <ele>109.240173</ele>
        <time>2026-08-15T09:04:27.000Z</time>
      </trkpt>
      <trkpt lat="22.824297" lon="109.873535">
        <ele>109.232367</ele>
        <time>2026-08-15T09:04:28.000Z</time>
      </trkpt>
      <trkpt lat="22.824319" lon="109.873530">
        <ele>109.224834</ele>
        <time>2026-08-15T09:04:29.000Z</time>
      </trkpt>
      <trkpt lat="22.824340" lon="109.873519">
        <ele>109.217020</ele>
        <time>2026-08-15T09:04:30.000Z</time>
      </trkpt>
      <trkpt lat="22.824362" lon="109.873514">
        <ele>109.209487</ele>
        <time>2026-08-15T09:04:31.000Z</time>
      </trkpt>
      <trkpt lat="22.824385" lon="109.873508">
        <ele>109.201560</ele>
        <time>2026-08-15T09:04:32.000Z</time>
      </trkpt>
      <trkpt lat="22.824412" lon="109.873508">
        <ele>109.192512</ele>
        <time>2026-08-15T09:04:33.000Z</time>
      </trkpt>
      <trkpt lat="22.824437" lon="109.873498">
        <ele>109.183583</ele>
        <time>2026-08-15T09:04:34.000Z</time>
      </trkpt>
      <trkpt lat="22.824461" lon="109.873495">
        <ele>109.175488</ele>
        <time>2026-08-15T09:04:35.000Z</time>
      </trkpt>
      <trkpt lat="22.824485" lon="109.873488">
        <ele>109.174370</ele>
        <time>2026-08-15T09:04:36.000Z</time>
      </trkpt>
      <trkpt lat="22.824511" lon="109.873482">
        <ele>109.190750</ele>
        <time>2026-08-15T09:04:37.000Z</time>
      </trkpt>
      <trkpt lat="22.824532" lon="109.873470">
        <ele>109.205376</ele>
        <time>2026-08-15T09:04:38.000Z</time>
      </trkpt>
      <trkpt lat="22.824553" lon="109.873460">
        <ele>109.219508</ele>
        <time>2026-08-15T09:04:39.000Z</time>
      </trkpt>
      <trkpt lat="22.824577" lon="109.873450">
        <ele>109.235350</ele>
        <time>2026-08-15T09:04:40.000Z</time>
      </trkpt>
      <trkpt lat="22.824601" lon="109.873440">
        <ele>109.251192</ele>
        <time>2026-08-15T09:04:41.000Z</time>
      </trkpt>
      <trkpt lat="22.824624" lon="109.873438">
        <ele>109.265410</ele>
        <time>2026-08-15T09:04:42.000Z</time>
      </trkpt>
      <trkpt lat="22.824646" lon="109.873431">
        <ele>109.279537</ele>
        <time>2026-08-15T09:04:43.000Z</time>
      </trkpt>
      <trkpt lat="22.824666" lon="109.873424">
        <ele>109.292487</ele>
        <time>2026-08-15T09:04:44.000Z</time>
      </trkpt>
      <trkpt lat="22.824687" lon="109.873417">
        <ele>109.306024</ele>
        <time>2026-08-15T09:04:45.000Z</time>
      </trkpt>
      <trkpt lat="22.824699" lon="109.873412">
        <ele>109.313945</ele>
        <time>2026-08-15T09:04:46.000Z</time>
      </trkpt>
      <trkpt lat="22.824703" lon="109.873406">
        <ele>109.318151</ele>
        <time>2026-08-15T09:04:47.000Z</time>
      </trkpt>
      <trkpt lat="22.824713" lon="109.873402">
        <ele>109.324718</ele>
        <time>2026-08-15T09:04:48.000Z</time>
      </trkpt>
      <trkpt lat="22.824721" lon="109.873401">
        <ele>109.329681</ele>
        <time>2026-08-15T09:04:49.000Z</time>
      </trkpt>
      <trkpt lat="22.824735" lon="109.873390">
        <ele>109.340332</ele>
        <time>2026-08-15T09:04:50.000Z</time>
      </trkpt>
      <trkpt lat="22.824749" lon="109.873412">
        <ele>109.355516</ele>
        <time>2026-08-15T09:05:04.000Z</time>
      </trkpt>
      <trkpt lat="22.824739" lon="109.873415">
        <ele>109.361909</ele>
        <time>2026-08-15T09:05:05.000Z</time>
      </trkpt>
      <trkpt lat="22.824738" lon="109.873426">
        <ele>109.368187</ele>
        <time>2026-08-15T09:05:06.000Z</time>
      </trkpt>
      <trkpt lat="22.824732" lon="109.873433">
        <ele>109.373616</ele>
        <time>2026-08-15T09:05:07.000Z</time>
      </trkpt>
      <trkpt lat="22.824730" lon="109.873442">
        <ele>109.378874</ele>
        <time>2026-08-15T09:05:08.000Z</time>
      </trkpt>
      <trkpt lat="22.824678" lon="109.873461">
        <ele>109.412685</ele>
        <time>2026-08-15T09:40:02.000Z</time>
      </trkpt>
      <trkpt lat="22.824661" lon="109.873470">
        <ele>109.424342</ele>
        <time>2026-08-15T09:40:03.000Z</time>
      </trkpt>
      <trkpt lat="22.824641" lon="109.873482">
        <ele>109.438425</ele>
        <time>2026-08-15T09:40:04.000Z</time>
      </trkpt>
      <trkpt lat="22.824621" lon="109.873489">
        <ele>109.451374</ele>
        <time>2026-08-15T09:40:05.000Z</time>
      </trkpt>
      <trkpt lat="22.824593" lon="109.873498">
        <ele>109.469369</ele>
        <time>2026-08-15T09:40:06.000Z</time>
      </trkpt>
      <trkpt lat="22.824562" lon="109.873505">
        <ele>109.488881</ele>
        <time>2026-08-15T09:40:07.000Z</time>
      </trkpt>
      <trkpt lat="22.824533" lon="109.873515">
        <ele>109.507632</ele>
        <time>2026-08-15T09:40:08.000Z</time>
      </trkpt>
      <trkpt lat="22.824504" lon="109.873517">
        <ele>109.525538</ele>
        <time>2026-08-15T09:40:09.000Z</time>
      </trkpt>
      <trkpt lat="22.824480" lon="109.873519">
        <ele>109.540370</ele>
        <time>2026-08-15T09:40:10.000Z</time>
      </trkpt>
      <trkpt lat="22.824455" lon="109.873515">
        <ele>109.555942</ele>
        <time>2026-08-15T09:40:11.000Z</time>
      </trkpt>
      <trkpt lat="22.824422" lon="109.873521">
        <ele>109.576561</ele>
        <time>2026-08-15T09:40:12.000Z</time>
      </trkpt>
      <trkpt lat="22.824391" lon="109.873533">
        <ele>109.596842</ele>
        <time>2026-08-15T09:40:13.000Z</time>
      </trkpt>
      <trkpt lat="22.824352" lon="109.873549">
        <ele>109.622535</ele>
        <time>2026-08-15T09:40:14.000Z</time>
      </trkpt>
      <trkpt lat="22.824313" lon="109.873564">
        <ele>109.648033</ele>
        <time>2026-08-15T09:40:15.000Z</time>
      </trkpt>
      <trkpt lat="22.824270" lon="109.873573">
        <ele>109.675018</ele>
        <time>2026-08-15T09:40:16.000Z</time>
      </trkpt>
      <trkpt lat="22.824238" lon="109.873588">
        <ele>109.696498</ele>
        <time>2026-08-15T09:40:17.000Z</time>
      </trkpt>
      <trkpt lat="22.824202" lon="109.873602">
        <ele>109.720064</ele>
        <time>2026-08-15T09:40:18.000Z</time>
      </trkpt>
      <trkpt lat="22.824168" lon="109.873616">
        <ele>109.742473</ele>
        <time>2026-08-15T09:40:19.000Z</time>
      </trkpt>
      <trkpt lat="22.824133" lon="109.873629">
        <ele>109.765269</ele>
        <time>2026-08-15T09:40:20.000Z</time>
      </trkpt>
      <trkpt lat="22.824100" lon="109.873641">
        <ele>109.786716</ele>
        <time>2026-08-15T09:40:21.000Z</time>
      </trkpt>
      <trkpt lat="22.824069" lon="109.873652">
        <ele>109.806814</ele>
        <time>2026-08-15T09:40:22.000Z</time>
      </trkpt>
      <trkpt lat="22.824041" lon="109.873659">
        <ele>109.824520</ele>
        <time>2026-08-15T09:40:23.000Z</time>
      </trkpt>
      <trkpt lat="22.824021" lon="109.873671">
        <ele>109.838603</ele>
        <time>2026-08-15T09:40:24.000Z</time>
      </trkpt>
      <trkpt lat="22.824004" lon="109.873660">
        <ele>109.850800</ele>
        <time>2026-08-15T09:40:25.000Z</time>
      </trkpt>
      <trkpt lat="22.823993" lon="109.873634">
        <ele>109.867048</ele>
        <time>2026-08-15T09:40:26.000Z</time>
      </trkpt>
      <trkpt lat="22.823990" lon="109.873600">
        <ele>109.886447</ele>
        <time>2026-08-15T09:40:27.000Z</time>
      </trkpt>
      <trkpt lat="22.823993" lon="109.873571">
        <ele>109.903021</ele>
        <time>2026-08-15T09:40:28.000Z</time>
      </trkpt>
      <trkpt lat="22.823988" lon="109.873531">
        <ele>109.925948</ele>
        <time>2026-08-15T09:40:29.000Z</time>
      </trkpt>
      <trkpt lat="22.823975" lon="109.873487">
        <ele>109.952190</ele>
        <time>2026-08-15T09:40:30.000Z</time>
      </trkpt>
      <trkpt lat="22.823955" lon="109.873444">
        <ele>109.979546</ele>
        <time>2026-08-15T09:40:31.000Z</time>
      </trkpt>
      <trkpt lat="22.823938" lon="109.873405">
        <ele>110.004048</ele>
        <time>2026-08-15T09:40:32.000Z</time>
      </trkpt>
      <trkpt lat="22.823910" lon="109.873360">
        <ele>110.034885</ele>
        <time>2026-08-15T09:40:33.000Z</time>
      </trkpt>
      <trkpt lat="22.823889" lon="109.873327">
        <ele>110.057661</ele>
        <time>2026-08-15T09:40:34.000Z</time>
      </trkpt>
      <trkpt lat="22.823878" lon="109.873297">
        <ele>110.075999</ele>
        <time>2026-08-15T09:40:35.000Z</time>
      </trkpt>
      <trkpt lat="22.823864" lon="109.873266">
        <ele>110.095605</ele>
        <time>2026-08-15T09:40:36.000Z</time>
      </trkpt>
      <trkpt lat="22.823844" lon="109.873233">
        <ele>110.118037</ele>
        <time>2026-08-15T09:40:37.000Z</time>
      </trkpt>
      <trkpt lat="22.823825" lon="109.873205">
        <ele>110.137785</ele>
        <time>2026-08-15T09:40:38.000Z</time>
      </trkpt>
      <trkpt lat="22.823797" lon="109.873169">
        <ele>110.164538</ele>
        <time>2026-08-15T09:40:39.000Z</time>
      </trkpt>
      <trkpt lat="22.823792" lon="109.873138">
        <ele>110.182412</ele>
        <time>2026-08-15T09:40:40.000Z</time>
      </trkpt>
      <trkpt lat="22.823793" lon="109.873108">
        <ele>110.199462</ele>
        <time>2026-08-15T09:40:41.000Z</time>
      </trkpt>
      <trkpt lat="22.823784" lon="109.873075">
        <ele>110.219008</ele>
        <time>2026-08-15T09:40:42.000Z</time>
      </trkpt>
      <trkpt lat="22.823759" lon="109.873042">
        <ele>110.243270</ele>
        <time>2026-08-15T09:40:43.000Z</time>
      </trkpt>
      <trkpt lat="22.823731" lon="109.873020">
        <ele>110.264573</ele>
        <time>2026-08-15T09:40:44.000Z</time>
      </trkpt>
      <trkpt lat="22.823693" lon="109.872999">
        <ele>110.283236</ele>
        <time>2026-08-15T09:40:45.000Z</time>
      </trkpt>
      <trkpt lat="22.823650" lon="109.872999">
        <ele>110.293987</ele>
        <time>2026-08-15T09:40:46.000Z</time>
      </trkpt>
      <trkpt lat="22.823605" lon="109.873005">
        <ele>110.305324</ele>
        <time>2026-08-15T09:40:47.000Z</time>
      </trkpt>
      <trkpt lat="22.823566" lon="109.873016">
        <ele>110.315399</ele>
        <time>2026-08-15T09:40:48.000Z</time>
      </trkpt>
      <trkpt lat="22.823524" lon="109.873024">
        <ele>110.326061</ele>
        <time>2026-08-15T09:40:49.000Z</time>
      </trkpt>
      <trkpt lat="22.823481" lon="109.873035">
        <ele>110.337108</ele>
        <time>2026-08-15T09:40:50.000Z</time>
      </trkpt>
      <trkpt lat="22.823440" lon="109.873046">
        <ele>110.347668</ele>
        <time>2026-08-15T09:40:51.000Z</time>
      </trkpt>
      <trkpt lat="22.823402" lon="109.873057">
        <ele>110.357502</ele>
        <time>2026-08-15T09:40:52.000Z</time>
      </trkpt>
      <trkpt lat="22.823359" lon="109.873067">
        <ele>110.368498</ele>
        <time>2026-08-15T09:40:53.000Z</time>
      </trkpt>
      <trkpt lat="22.823317" lon="109.873071">
        <ele>110.379040</ele>
        <time>2026-08-15T09:40:54.000Z</time>
      </trkpt>
      <trkpt lat="22.823274" lon="109.873071">
        <ele>110.389791</ele>
        <time>2026-08-15T09:40:55.000Z</time>
      </trkpt>
      <trkpt lat="22.823231" lon="109.873079">
        <ele>110.400700</ele>
        <time>2026-08-15T09:40:56.000Z</time>
      </trkpt>
      <trkpt lat="22.823187" lon="109.873085">
        <ele>110.411788</ele>
        <time>2026-08-15T09:40:57.000Z</time>
      </trkpt>
      <trkpt lat="22.823144" lon="109.873089">
        <ele>110.422579</ele>
        <time>2026-08-15T09:40:58.000Z</time>
      </trkpt>
      <trkpt lat="22.823102" lon="109.873094">
        <ele>110.433144</ele>
        <time>2026-08-15T09:40:59.000Z</time>
      </trkpt>
      <trkpt lat="22.823063" lon="109.873097">
        <ele>110.442919</ele>
        <time>2026-08-15T09:41:00.000Z</time>
      </trkpt>
      <trkpt lat="22.823025" lon="109.873102">
        <ele>110.452491</ele>
        <time>2026-08-15T09:41:01.000Z</time>
      </trkpt>
      <trkpt lat="22.822984" lon="109.873103">
        <ele>110.462745</ele>
        <time>2026-08-15T09:41:02.000Z</time>
      </trkpt>
      <trkpt lat="22.822940" lon="109.873109">
        <ele>110.473833</ele>
        <time>2026-08-15T09:41:03.000Z</time>
      </trkpt>
      <trkpt lat="22.822893" lon="109.873120">
        <ele>110.485855</ele>
        <time>2026-08-15T09:41:04.000Z</time>
      </trkpt>
      <trkpt lat="22.822848" lon="109.873128">
        <ele>110.497257</ele>
        <time>2026-08-15T09:41:05.000Z</time>
      </trkpt>
      <trkpt lat="22.822805" lon="109.873131">
        <ele>110.508030</ele>
        <time>2026-08-15T09:41:06.000Z</time>
      </trkpt>
      <trkpt lat="22.822761" lon="109.873137">
        <ele>110.519119</ele>
        <time>2026-08-15T09:41:07.000Z</time>
      </trkpt>
      <trkpt lat="22.822717" lon="109.873146">
        <ele>110.530314</ele>
        <time>2026-08-15T09:41:08.000Z</time>
      </trkpt>
      <trkpt lat="22.822674" lon="109.873151">
        <ele>110.541127</ele>
        <time>2026-08-15T09:41:09.000Z</time>
      </trkpt>
      <trkpt lat="22.822630" lon="109.873161">
        <ele>110.552368</ele>
        <time>2026-08-15T09:41:10.000Z</time>
      </trkpt>
      <trkpt lat="22.822586" lon="109.873175">
        <ele>110.563832</ele>
        <time>2026-08-15T09:41:11.000Z</time>
      </trkpt>
      <trkpt lat="22.822541" lon="109.873190">
        <ele>110.575603</ele>
        <time>2026-08-15T09:41:12.000Z</time>
      </trkpt>
      <trkpt lat="22.822494" lon="109.873209">
        <ele>110.588144</ele>
        <time>2026-08-15T09:41:13.000Z</time>
      </trkpt>
      <trkpt lat="22.822448" lon="109.873226">
        <ele>110.600295</ele>
        <time>2026-08-15T09:41:14.000Z</time>
      </trkpt>
      <trkpt lat="22.822395" lon="109.873246">
        <ele>110.614326</ele>
        <time>2026-08-15T09:41:15.000Z</time>
      </trkpt>
      <trkpt lat="22.822343" lon="109.873267">
        <ele>110.628199</ele>
        <time>2026-08-15T09:41:16.000Z</time>
      </trkpt>
      <trkpt lat="22.822298" lon="109.873283">
        <ele>110.640039</ele>
        <time>2026-08-15T09:41:17.000Z</time>
      </trkpt>
      <trkpt lat="22.822258" lon="109.873297">
        <ele>110.650548</ele>
        <time>2026-08-15T09:41:18.000Z</time>
      </trkpt>
      <trkpt lat="22.822238" lon="109.873297">
        <ele>110.655549</ele>
        <time>2026-08-15T09:41:19.000Z</time>
      </trkpt>
      <trkpt lat="22.822225" lon="109.873298">
        <ele>110.658808</ele>
        <time>2026-08-15T09:41:20.000Z</time>
      </trkpt>
      <trkpt lat="22.822219" lon="109.873298">
        <ele>110.660308</ele>
        <time>2026-08-15T09:41:21.000Z</time>
      </trkpt>
      <trkpt lat="22.822161" lon="109.873353">
        <ele>110.679569</ele>
        <time>2026-08-15T09:41:39.000Z</time>
      </trkpt>
      <trkpt lat="22.822135" lon="109.873367">
        <ele>110.686826</ele>
        <time>2026-08-15T09:41:40.000Z</time>
      </trkpt>
      <trkpt lat="22.822104" lon="109.873378">
        <ele>110.694982</ele>
        <time>2026-08-15T09:41:41.000Z</time>
      </trkpt>
      <trkpt lat="22.822071" lon="109.873386">
        <ele>110.703436</ele>
        <time>2026-08-15T09:41:42.000Z</time>
      </trkpt>
      <trkpt lat="22.822037" lon="109.873398">
        <ele>110.712376</ele>
        <time>2026-08-15T09:41:43.000Z</time>
      </trkpt>
      <trkpt lat="22.822002" lon="109.873409">
        <ele>110.721487</ele>
        <time>2026-08-15T09:41:44.000Z</time>
      </trkpt>
      <trkpt lat="22.821967" lon="109.873420">
        <ele>110.733058</ele>
        <time>2026-08-15T09:41:45.000Z</time>
      </trkpt>
      <trkpt lat="22.821933" lon="109.873430">
        <ele>110.749507</ele>
        <time>2026-08-15T09:41:46.000Z</time>
      </trkpt>
      <trkpt lat="22.821894" lon="109.873445">
        <ele>110.768829</ele>
        <time>2026-08-15T09:41:47.000Z</time>
      </trkpt>
      <trkpt lat="22.821855" lon="109.873457">
        <ele>110.787758</ele>
        <time>2026-08-15T09:41:48.000Z</time>
      </trkpt>
      <trkpt lat="22.821815" lon="109.873470">
        <ele>110.807256</ele>
        <time>2026-08-15T09:41:49.000Z</time>
      </trkpt>
      <trkpt lat="22.821773" lon="109.873485">
        <ele>110.827904</ele>
        <time>2026-08-15T09:41:50.000Z</time>
      </trkpt>
      <trkpt lat="22.821731" lon="109.873497">
        <ele>110.848184</ele>
        <time>2026-08-15T09:41:51.000Z</time>
      </trkpt>
      <trkpt lat="22.821691" lon="109.873504">
        <ele>110.867104</ele>
        <time>2026-08-15T09:41:52.000Z</time>
      </trkpt>
      <trkpt lat="22.821650" lon="109.873516">
        <ele>110.886933</ele>
        <time>2026-08-15T09:41:53.000Z</time>
      </trkpt>
      <trkpt lat="22.821607" lon="109.873528">
        <ele>110.907666</ele>
        <time>2026-08-15T09:41:54.000Z</time>
      </trkpt>
      <trkpt lat="22.821564" lon="109.873542">
        <ele>110.928629</ele>
        <time>2026-08-15T09:41:55.000Z</time>
      </trkpt>
      <trkpt lat="22.821521" lon="109.873553">
        <ele>110.949259</ele>
        <time>2026-08-15T09:41:56.000Z</time>
      </trkpt>
      <trkpt lat="22.821477" lon="109.873564">
        <ele>110.970343</ele>
        <time>2026-08-15T09:41:57.000Z</time>
      </trkpt>
      <trkpt lat="22.821433" lon="109.873578">
        <ele>110.991754</ele>
        <time>2026-08-15T09:41:58.000Z</time>
      </trkpt>
      <trkpt lat="22.821391" lon="109.873597">
        <ele>111.013003</ele>
        <time>2026-08-15T09:41:59.000Z</time>
      </trkpt>
      <trkpt lat="22.821346" lon="109.873614">
        <ele>111.035253</ele>
        <time>2026-08-15T09:42:00.000Z</time>
      </trkpt>
      <trkpt lat="22.821297" lon="109.873628">
        <ele>111.058914</ele>
        <time>2026-08-15T09:42:01.000Z</time>
      </trkpt>
      <trkpt lat="22.821250" lon="109.873640">
        <ele>111.081460</ele>
        <time>2026-08-15T09:42:02.000Z</time>
      </trkpt>
      <trkpt lat="22.821206" lon="109.873646">
        <ele>111.102167</ele>
        <time>2026-08-15T09:42:03.000Z</time>
      </trkpt>
      <trkpt lat="22.821163" lon="109.873653">
        <ele>111.122471</ele>
        <time>2026-08-15T09:42:04.000Z</time>
      </trkpt>
      <trkpt lat="22.821120" lon="109.873667">
        <ele>111.143435</ele>
        <time>2026-08-15T09:42:05.000Z</time>
      </trkpt>
      <trkpt lat="22.821076" lon="109.873681">
        <ele>111.164846</ele>
        <time>2026-08-15T09:42:06.000Z</time>
      </trkpt>
      <trkpt lat="22.821033" lon="109.873699">
        <ele>111.186367</ele>
        <time>2026-08-15T09:42:07.000Z</time>
      </trkpt>
      <trkpt lat="22.820987" lon="109.873713">
        <ele>111.208676</ele>
        <time>2026-08-15T09:42:08.000Z</time>
      </trkpt>
      <trkpt lat="22.820944" lon="109.873728">
        <ele>111.229768</ele>
        <time>2026-08-15T09:42:09.000Z</time>
      </trkpt>
      <trkpt lat="22.820901" lon="109.873740">
        <ele>111.250500</ele>
        <time>2026-08-15T09:42:10.000Z</time>
      </trkpt>
      <trkpt lat="22.820860" lon="109.873754">
        <ele>111.270571</ele>
        <time>2026-08-15T09:42:11.000Z</time>
      </trkpt>
      <trkpt lat="22.820822" lon="109.873773">
        <ele>111.290109</ele>
        <time>2026-08-15T09:42:12.000Z</time>
      </trkpt>
      <trkpt lat="22.820783" lon="109.873790">
        <ele>111.309735</ele>
        <time>2026-08-15T09:42:13.000Z</time>
      </trkpt>
      <trkpt lat="22.820746" lon="109.873806">
        <ele>111.328334</ele>
        <time>2026-08-15T09:42:14.000Z</time>
      </trkpt>
      <trkpt lat="22.820714" lon="109.873820">
        <ele>111.344445</ele>
        <time>2026-08-15T09:42:15.000Z</time>
      </trkpt>
      <trkpt lat="22.820676" lon="109.873842">
        <ele>111.364558</ele>
        <time>2026-08-15T09:42:16.000Z</time>
      </trkpt>
      <trkpt lat="22.820638" lon="109.873861">
        <ele>111.384096</ele>
        <time>2026-08-15T09:42:17.000Z</time>
      </trkpt>
      <trkpt lat="22.820600" lon="109.873881">
        <ele>111.403818</ele>
        <time>2026-08-15T09:42:18.000Z</time>
      </trkpt>
      <trkpt lat="22.820562" lon="109.873902">
        <ele>111.423731</ele>
        <time>2026-08-15T09:42:19.000Z</time>
      </trkpt>
      <trkpt lat="22.820525" lon="109.873922">
        <ele>111.443034</ele>
        <time>2026-08-15T09:42:20.000Z</time>
      </trkpt>
      <trkpt lat="22.820487" lon="109.873945">
        <ele>111.463353</ele>
        <time>2026-08-15T09:42:21.000Z</time>
      </trkpt>
      <trkpt lat="22.820448" lon="109.873968">
        <ele>111.484080</ele>
        <time>2026-08-15T09:42:22.000Z</time>
      </trkpt>
      <trkpt lat="22.820410" lon="109.873992">
        <ele>111.504612</ele>
        <time>2026-08-15T09:42:23.000Z</time>
      </trkpt>
      <trkpt lat="22.820372" lon="109.874017">
        <ele>111.525364</ele>
        <time>2026-08-15T09:42:24.000Z</time>
      </trkpt>
      <trkpt lat="22.820333" lon="109.874040">
        <ele>111.546092</ele>
        <time>2026-08-15T09:42:25.000Z</time>
      </trkpt>
      <trkpt lat="22.820295" lon="109.874064">
        <ele>111.566623</ele>
        <time>2026-08-15T09:42:26.000Z</time>
      </trkpt>
      <trkpt lat="22.820259" lon="109.874090">
        <ele>111.567642</ele>
        <time>2026-08-15T09:42:27.000Z</time>
      </trkpt>
      <trkpt lat="22.820225" lon="109.874116">
        <ele>111.567642</ele>
        <time>2026-08-15T09:42:28.000Z</time>
      </trkpt>
      <trkpt lat="22.820190" lon="109.874143">
        <ele>111.567642</ele>
        <time>2026-08-15T09:42:29.000Z</time>
      </trkpt>
      <trkpt lat="22.820155" lon="109.874172">
        <ele>111.567642</ele>
        <time>2026-08-15T09:42:30.000Z</time>
      </trkpt>
      <trkpt lat="22.820120" lon="109.874201">
        <ele>111.567642</ele>
        <time>2026-08-15T09:42:31.000Z</time>
      </trkpt>
      <trkpt lat="22.820085" lon="109.874229">
        <ele>111.567642</ele>
        <time>2026-08-15T09:42:32.000Z</time>
      </trkpt>
      <trkpt lat="22.820051" lon="109.874257">
        <ele>111.567642</ele>
        <time>2026-08-15T09:42:33.000Z</time>
      </trkpt>
      <trkpt lat="22.820017" lon="109.874287">
        <ele>111.567642</ele>
        <time>2026-08-15T09:42:34.000Z</time>
      </trkpt>
      <trkpt lat="22.819984" lon="109.874319">
        <ele>111.567642</ele>
        <time>2026-08-15T09:42:35.000Z</time>
      </trkpt>
      <trkpt lat="22.819953" lon="109.874352">
        <ele>111.567642</ele>
        <time>2026-08-15T09:42:36.000Z</time>
      </trkpt>
      <trkpt lat="22.819920" lon="109.874384">
        <ele>111.567642</ele>
        <time>2026-08-15T09:42:37.000Z</time>
      </trkpt>
      <trkpt lat="22.819888" lon="109.874414">
        <ele>111.567642</ele>
        <time>2026-08-15T09:42:38.000Z</time>
      </trkpt>
      <trkpt lat="22.819858" lon="109.874444">
        <ele>111.567642</ele>
        <time>2026-08-15T09:42:39.000Z</time>
      </trkpt>
      <trkpt lat="22.819830" lon="109.874473">
        <ele>111.567642</ele>
        <time>2026-08-15T09:42:40.000Z</time>
      </trkpt>
      <trkpt lat="22.819803" lon="109.874501">
        <ele>111.567642</ele>
        <time>2026-08-15T09:42:41.000Z</time>
      </trkpt>
      <trkpt lat="22.819777" lon="109.874529">
        <ele>111.567642</ele>
        <time>2026-08-15T09:42:42.000Z</time>
      </trkpt>
      <trkpt lat="22.819751" lon="109.874556">
        <ele>111.567642</ele>
        <time>2026-08-15T09:42:43.000Z</time>
      </trkpt>
      <trkpt lat="22.819730" lon="109.874584">
        <ele>111.567642</ele>
        <time>2026-08-15T09:42:44.000Z</time>
      </trkpt>
      <trkpt lat="22.819712" lon="109.874612">
        <ele>111.567642</ele>
        <time>2026-08-15T09:42:45.000Z</time>
      </trkpt>
      <trkpt lat="22.819691" lon="109.874641">
        <ele>111.567642</ele>
        <time>2026-08-15T09:42:46.000Z</time>
      </trkpt>
      <trkpt lat="22.819666" lon="109.874670">
        <ele>111.567642</ele>
        <time>2026-08-15T09:42:47.000Z</time>
      </trkpt>
      <trkpt lat="22.819645" lon="109.874698">
        <ele>111.567642</ele>
        <time>2026-08-15T09:42:48.000Z</time>
      </trkpt>
      <trkpt lat="22.819623" lon="109.874724">
        <ele>111.567642</ele>
        <time>2026-08-15T09:42:49.000Z</time>
      </trkpt>
      <trkpt lat="22.819603" lon="109.874751">
        <ele>111.567642</ele>
        <time>2026-08-15T09:42:50.000Z</time>
      </trkpt>
      <trkpt lat="22.819585" lon="109.874778">
        <ele>111.567642</ele>
        <time>2026-08-15T09:42:51.000Z</time>
      </trkpt>
      <trkpt lat="22.819569" lon="109.874806">
        <ele>111.567642</ele>
        <time>2026-08-15T09:42:52.000Z</time>
      </trkpt>
      <trkpt lat="22.819554" lon="109.874835">
        <ele>111.567642</ele>
        <time>2026-08-15T09:42:53.000Z</time>
      </trkpt>
      <trkpt lat="22.819539" lon="109.874863">
        <ele>111.567642</ele>
        <time>2026-08-15T09:42:54.000Z</time>
      </trkpt>
      <trkpt lat="22.819523" lon="109.874888">
        <ele>111.567642</ele>
        <time>2026-08-15T09:42:55.000Z</time>
      </trkpt>
      <trkpt lat="22.819509" lon="109.874915">
        <ele>111.567642</ele>
        <time>2026-08-15T09:42:56.000Z</time>
      </trkpt>
      <trkpt lat="22.819493" lon="109.874944">
        <ele>111.567642</ele>
        <time>2026-08-15T09:42:57.000Z</time>
      </trkpt>
      <trkpt lat="22.819474" lon="109.874975">
        <ele>111.567642</ele>
        <time>2026-08-15T09:42:58.000Z</time>
      </trkpt>
      <trkpt lat="22.819459" lon="109.875008">
        <ele>111.567642</ele>
        <time>2026-08-15T09:42:59.000Z</time>
      </trkpt>
      <trkpt lat="22.819445" lon="109.875041">
        <ele>111.567642</ele>
        <time>2026-08-15T09:43:00.000Z</time>
      </trkpt>
      <trkpt lat="22.819432" lon="109.875076">
        <ele>111.567642</ele>
        <time>2026-08-15T09:43:01.000Z</time>
      </trkpt>
      <trkpt lat="22.819421" lon="109.875113">
        <ele>111.567642</ele>
        <time>2026-08-15T09:43:02.000Z</time>
      </trkpt>
      <trkpt lat="22.819406" lon="109.875146">
        <ele>111.567642</ele>
        <time>2026-08-15T09:43:03.000Z</time>
      </trkpt>
      <trkpt lat="22.819392" lon="109.875183">
        <ele>111.567642</ele>
        <time>2026-08-15T09:43:04.000Z</time>
      </trkpt>
      <trkpt lat="22.819374" lon="109.875219">
        <ele>111.567642</ele>
        <time>2026-08-15T09:43:05.000Z</time>
      </trkpt>
      <trkpt lat="22.819354" lon="109.875254">
        <ele>111.567642</ele>
        <time>2026-08-15T09:43:06.000Z</time>
      </trkpt>
      <trkpt lat="22.819338" lon="109.875290">
        <ele>111.567642</ele>
        <time>2026-08-15T09:43:07.000Z</time>
      </trkpt>
      <trkpt lat="22.819321" lon="109.875326">
        <ele>111.567642</ele>
        <time>2026-08-15T09:43:08.000Z</time>
      </trkpt>
      <trkpt lat="22.819303" lon="109.875361">
        <ele>111.567642</ele>
        <time>2026-08-15T09:43:09.000Z</time>
      </trkpt>
      <trkpt lat="22.819286" lon="109.875396">
        <ele>111.567642</ele>
        <time>2026-08-15T09:43:10.000Z</time>
      </trkpt>
      <trkpt lat="22.819270" lon="109.875430">
        <ele>111.567642</ele>
        <time>2026-08-15T09:43:11.000Z</time>
      </trkpt>
      <trkpt lat="22.819254" lon="109.875460">
        <ele>111.567642</ele>
        <time>2026-08-15T09:43:12.000Z</time>
      </trkpt>
      <trkpt lat="22.819239" lon="109.875488">
        <ele>111.567642</ele>
        <time>2026-08-15T09:43:13.000Z</time>
      </trkpt>
      <trkpt lat="22.819221" lon="109.875516">
        <ele>111.567642</ele>
        <time>2026-08-15T09:43:14.000Z</time>
      </trkpt>
      <trkpt lat="22.819205" lon="109.875541">
        <ele>111.567642</ele>
        <time>2026-08-15T09:43:15.000Z</time>
      </trkpt>
      <trkpt lat="22.819185" lon="109.875559">
        <ele>111.567642</ele>
        <time>2026-08-15T09:43:16.000Z</time>
      </trkpt>
      <trkpt lat="22.819170" lon="109.875579">
        <ele>111.567642</ele>
        <time>2026-08-15T09:43:17.000Z</time>
      </trkpt>
      <trkpt lat="22.819156" lon="109.875600">
        <ele>111.567642</ele>
        <time>2026-08-15T09:43:18.000Z</time>
      </trkpt>
      <trkpt lat="22.819141" lon="109.875618">
        <ele>111.567642</ele>
        <time>2026-08-15T09:43:19.000Z</time>
      </trkpt>
      <trkpt lat="22.819127" lon="109.875638">
        <ele>111.567642</ele>
        <time>2026-08-15T09:43:20.000Z</time>
      </trkpt>
      <trkpt lat="22.819113" lon="109.875659">
        <ele>111.567642</ele>
        <time>2026-08-15T09:43:21.000Z</time>
      </trkpt>
      <trkpt lat="22.819102" lon="109.875680">
        <ele>111.567642</ele>
        <time>2026-08-15T09:43:22.000Z</time>
      </trkpt>
      <trkpt lat="22.819087" lon="109.875694">
        <ele>111.567642</ele>
        <time>2026-08-15T09:43:23.000Z</time>
      </trkpt>
      <trkpt lat="22.819075" lon="109.875702">
        <ele>111.567642</ele>
        <time>2026-08-15T09:43:24.000Z</time>
      </trkpt>
      <trkpt lat="22.819065" lon="109.875709">
        <ele>111.567642</ele>
        <time>2026-08-15T09:43:25.000Z</time>
      </trkpt>
      <trkpt lat="22.819052" lon="109.875719">
        <ele>111.567642</ele>
        <time>2026-08-15T09:43:26.000Z</time>
      </trkpt>
      <trkpt lat="22.819040" lon="109.875732">
        <ele>111.567642</ele>
        <time>2026-08-15T09:43:27.000Z</time>
      </trkpt>
      <trkpt lat="22.819029" lon="109.875746">
        <ele>111.567642</ele>
        <time>2026-08-15T09:43:28.000Z</time>
      </trkpt>
      <trkpt lat="22.819022" lon="109.875759">
        <ele>111.567642</ele>
        <time>2026-08-15T09:43:29.000Z</time>
      </trkpt>
      <trkpt lat="22.819019" lon="109.875774">
        <ele>111.567642</ele>
        <time>2026-08-15T09:43:30.000Z</time>
      </trkpt>
      <trkpt lat="22.819012" lon="109.875782">
        <ele>111.567642</ele>
        <time>2026-08-15T09:43:31.000Z</time>
      </trkpt>
      <trkpt lat="22.819001" lon="109.875791">
        <ele>111.567642</ele>
        <time>2026-08-15T09:43:32.000Z</time>
      </trkpt>
      <trkpt lat="22.818986" lon="109.875795">
        <ele>111.567642</ele>
        <time>2026-08-15T09:43:33.000Z</time>
      </trkpt>
      <trkpt lat="22.818972" lon="109.875795">
        <ele>111.567642</ele>
        <time>2026-08-15T09:43:34.000Z</time>
      </trkpt>
      <trkpt lat="22.818965" lon="109.875800">
        <ele>111.567642</ele>
        <time>2026-08-15T09:43:35.000Z</time>
      </trkpt>
      <trkpt lat="22.818957" lon="109.875799">
        <ele>111.567642</ele>
        <time>2026-08-15T09:43:36.000Z</time>
      </trkpt>
    </trkseg>
  </trk>
</gpx>